<?xml version="1.0" encoding="UTF-8"?>
<gpx version="1.1" creator="https://www.youtrack.es" xsi:schemaLocation="http://www.topografix.com/GPX/1/1 http://www.topografix.com/GPX/1/1/gpx.xsd http://www.garmin.com/xmlschemas/GpxExtensions/v3 http://www.garmin.com/xmlschemas/GpxExtensionsv3.xsd http://www.garmin.com/xmlschemas/TrackPointExtension/v1 http://www.garmin.com/xmlschemas/TrackPointExtensionv1.xsd" xmlns:gpxtpx="http://www.garmin.com/xmlschemas/TrackPointExtension/v1" xmlns:gpxx="http://www.garmin.com/xmlschemas/GpxExtensions/v3" xmlns:xsi="http://www.w3.org/2001/XMLSchema-instance">
  <metadata>
    <link href="https://www.youtrack.es">
      <text>YouTrack.es</text>
    </link>
    <time>2026-05-09T00:04:42Z</time>
  </metadata>
  <trk>
    <src>https://www.youtrack.es</src>
    <link href="https://www.youtrack.es/ruta/19195-komoot-311549570-by-komoottogpx">
      <text>YouTrack.es</text>
    </link>
    <trkseg>
      <trkpt lat="38.620766" lon="-0.025401">
        <ele>11.3</ele>
        <time>2021-01-31T12:11:26Z</time>
      </trkpt>
      <trkpt lat="38.620641" lon="-0.02557">
        <ele>12.2</ele>
        <time>2021-01-31T12:11:49Z</time>
      </trkpt>
      <trkpt lat="38.620622" lon="-0.025609">
        <ele>12.3</ele>
        <time>2021-01-31T12:11:54Z</time>
      </trkpt>
      <trkpt lat="38.620599" lon="-0.025683">
        <ele>12.5</ele>
        <time>2021-01-31T12:12:02Z</time>
      </trkpt>
      <trkpt lat="38.620629" lon="-0.025699">
        <ele>12.6</ele>
        <time>2021-01-31T12:12:03Z</time>
      </trkpt>
      <trkpt lat="38.620663" lon="-0.025768">
        <ele>12.7</ele>
        <time>2021-01-31T12:12:05Z</time>
      </trkpt>
      <trkpt lat="38.620641" lon="-0.025886">
        <ele>13</ele>
        <time>2021-01-31T12:12:07Z</time>
      </trkpt>
      <trkpt lat="38.620632" lon="-0.025897">
        <ele>13.1</ele>
        <time>2021-01-31T12:12:08Z</time>
      </trkpt>
      <trkpt lat="38.621328" lon="-0.02683">
        <ele>18.2</ele>
        <time>2021-01-31T12:12:49Z</time>
      </trkpt>
      <trkpt lat="38.62138" lon="-0.026919">
        <ele>18.7</ele>
        <time>2021-01-31T12:12:53Z</time>
      </trkpt>
      <trkpt lat="38.621391" lon="-0.02695">
        <ele>19.3</ele>
        <time>2021-01-31T12:12:56Z</time>
      </trkpt>
      <trkpt lat="38.621261" lon="-0.02704">
        <ele>19.9</ele>
        <time>2021-01-31T12:13:01Z</time>
      </trkpt>
      <trkpt lat="38.62123" lon="-0.027125">
        <ele>20.2</ele>
        <time>2021-01-31T12:13:04Z</time>
      </trkpt>
      <trkpt lat="38.62125" lon="-0.027186">
        <ele>20.4</ele>
        <time>2021-01-31T12:13:06Z</time>
      </trkpt>
      <trkpt lat="38.621286" lon="-0.027212">
        <ele>20.6</ele>
        <time>2021-01-31T12:13:07Z</time>
      </trkpt>
      <trkpt lat="38.621317" lon="-0.027209">
        <ele>21.1</ele>
        <time>2021-01-31T12:13:10Z</time>
      </trkpt>
      <trkpt lat="38.621832" lon="-0.026895">
        <ele>23.8</ele>
        <time>2021-01-31T12:13:32Z</time>
      </trkpt>
      <trkpt lat="38.621954" lon="-0.026893">
        <ele>24.3</ele>
        <time>2021-01-31T12:13:37Z</time>
      </trkpt>
      <trkpt lat="38.622165" lon="-0.026756">
        <ele>25.5</ele>
        <time>2021-01-31T12:13:45Z</time>
      </trkpt>
      <trkpt lat="38.622936" lon="-0.026249">
        <ele>29.3</ele>
        <time>2021-01-31T12:14:13Z</time>
      </trkpt>
      <trkpt lat="38.623267" lon="-0.026043">
        <ele>30.7</ele>
        <time>2021-01-31T12:14:24Z</time>
      </trkpt>
      <trkpt lat="38.623659" lon="-0.025793">
        <ele>32.6</ele>
        <time>2021-01-31T12:14:38Z</time>
      </trkpt>
      <trkpt lat="38.624604" lon="-0.025176">
        <ele>36.4</ele>
        <time>2021-01-31T12:15:09Z</time>
      </trkpt>
      <trkpt lat="38.624775" lon="-0.025078">
        <ele>36.7</ele>
        <time>2021-01-31T12:15:13Z</time>
      </trkpt>
      <trkpt lat="38.624889" lon="-0.024999">
        <ele>36.9</ele>
        <time>2021-01-31T12:15:16Z</time>
      </trkpt>
      <trkpt lat="38.625142" lon="-0.02475">
        <ele>37.1</ele>
        <time>2021-01-31T12:15:22Z</time>
      </trkpt>
      <trkpt lat="38.625302" lon="-0.024385">
        <ele>36.9</ele>
        <time>2021-01-31T12:15:26Z</time>
      </trkpt>
      <trkpt lat="38.625322" lon="-0.024231">
        <ele>36.7</ele>
        <time>2021-01-31T12:15:27Z</time>
      </trkpt>
      <trkpt lat="38.625371" lon="-0.023792">
        <ele>36.1</ele>
        <time>2021-01-31T12:15:31Z</time>
      </trkpt>
      <trkpt lat="38.625451" lon="-0.02291">
        <ele>34.2</ele>
        <time>2021-01-31T12:15:38Z</time>
      </trkpt>
      <trkpt lat="38.625498" lon="-0.022297">
        <ele>32.5</ele>
        <time>2021-01-31T12:15:43Z</time>
      </trkpt>
      <trkpt lat="38.625557" lon="-0.021668">
        <ele>31.3</ele>
        <time>2021-01-31T12:15:48Z</time>
      </trkpt>
      <trkpt lat="38.625581" lon="-0.021435">
        <ele>30.9</ele>
        <time>2021-01-31T12:15:50Z</time>
      </trkpt>
      <trkpt lat="38.625588" lon="-0.021345">
        <ele>30.7</ele>
        <time>2021-01-31T12:15:51Z</time>
      </trkpt>
      <trkpt lat="38.625628" lon="-0.021207">
        <ele>30.6</ele>
        <time>2021-01-31T12:15:52Z</time>
      </trkpt>
      <trkpt lat="38.625788" lon="-0.020952">
        <ele>30.2</ele>
        <time>2021-01-31T12:15:55Z</time>
      </trkpt>
      <trkpt lat="38.626297" lon="-0.020493">
        <ele>30.5</ele>
        <time>2021-01-31T12:16:06Z</time>
      </trkpt>
      <trkpt lat="38.626371" lon="-0.020417">
        <ele>30.5</ele>
        <time>2021-01-31T12:16:07Z</time>
      </trkpt>
      <trkpt lat="38.626458" lon="-0.020348">
        <ele>30.7</ele>
        <time>2021-01-31T12:16:10Z</time>
      </trkpt>
      <trkpt lat="38.626672" lon="-0.020212">
        <ele>31</ele>
        <time>2021-01-31T12:16:14Z</time>
      </trkpt>
      <trkpt lat="38.626758" lon="-0.020161">
        <ele>31.2</ele>
        <time>2021-01-31T12:16:16Z</time>
      </trkpt>
      <trkpt lat="38.626927" lon="-0.020064">
        <ele>31.4</ele>
        <time>2021-01-31T12:16:20Z</time>
      </trkpt>
      <trkpt lat="38.626972" lon="-0.020038">
        <ele>31.5</ele>
        <time>2021-01-31T12:16:21Z</time>
      </trkpt>
      <trkpt lat="38.627196" lon="-0.019884">
        <ele>31.9</ele>
        <time>2021-01-31T12:16:26Z</time>
      </trkpt>
      <trkpt lat="38.628667" lon="-0.018734">
        <ele>35.6</ele>
        <time>2021-01-31T12:17:07Z</time>
      </trkpt>
      <trkpt lat="38.629013" lon="-0.018482">
        <ele>36.6</ele>
        <time>2021-01-31T12:17:17Z</time>
      </trkpt>
      <trkpt lat="38.629094" lon="-0.018423">
        <ele>36.9</ele>
        <time>2021-01-31T12:17:19Z</time>
      </trkpt>
      <trkpt lat="38.629201" lon="-0.018345">
        <ele>37.4</ele>
        <time>2021-01-31T12:17:23Z</time>
      </trkpt>
      <trkpt lat="38.629645" lon="-0.017993">
        <ele>39.5</ele>
        <time>2021-01-31T12:17:39Z</time>
      </trkpt>
      <trkpt lat="38.629836" lon="-0.017902">
        <ele>40.4</ele>
        <time>2021-01-31T12:17:46Z</time>
      </trkpt>
      <trkpt lat="38.630526" lon="-0.017969">
        <ele>43.7</ele>
        <time>2021-01-31T12:18:09Z</time>
      </trkpt>
      <trkpt lat="38.630599" lon="-0.017953">
        <ele>44.4</ele>
        <time>2021-01-31T12:18:13Z</time>
      </trkpt>
      <trkpt lat="38.630632" lon="-0.017945">
        <ele>44.5</ele>
        <time>2021-01-31T12:18:14Z</time>
      </trkpt>
      <trkpt lat="38.630665" lon="-0.017933">
        <ele>44.7</ele>
        <time>2021-01-31T12:18:16Z</time>
      </trkpt>
      <trkpt lat="38.630712" lon="-0.017916">
        <ele>45</ele>
        <time>2021-01-31T12:18:17Z</time>
      </trkpt>
      <trkpt lat="38.630836" lon="-0.017816">
        <ele>45.5</ele>
        <time>2021-01-31T12:18:22Z</time>
      </trkpt>
      <trkpt lat="38.630915" lon="-0.017669">
        <ele>46.5</ele>
        <time>2021-01-31T12:18:27Z</time>
      </trkpt>
      <trkpt lat="38.630955" lon="-0.017513">
        <ele>47.1</ele>
        <time>2021-01-31T12:18:32Z</time>
      </trkpt>
      <trkpt lat="38.630953" lon="-0.017379">
        <ele>47.5</ele>
        <time>2021-01-31T12:18:35Z</time>
      </trkpt>
      <trkpt lat="38.630924" lon="-0.017105">
        <ele>49</ele>
        <time>2021-01-31T12:18:44Z</time>
      </trkpt>
      <trkpt lat="38.630813" lon="-0.016918">
        <ele>49.9</ele>
        <time>2021-01-31T12:18:51Z</time>
      </trkpt>
      <trkpt lat="38.630801" lon="-0.016906">
        <ele>50.3</ele>
        <time>2021-01-31T12:18:52Z</time>
      </trkpt>
      <trkpt lat="38.630737" lon="-0.016789">
        <ele>51.8</ele>
        <time>2021-01-31T12:19:00Z</time>
      </trkpt>
      <trkpt lat="38.630515" lon="-0.016539">
        <ele>54.4</ele>
        <time>2021-01-31T12:19:14Z</time>
      </trkpt>
      <trkpt lat="38.630433" lon="-0.016253">
        <ele>55.5</ele>
        <time>2021-01-31T12:19:23Z</time>
      </trkpt>
      <trkpt lat="38.630465" lon="-0.016">
        <ele>57.6</ele>
        <time>2021-01-31T12:19:34Z</time>
      </trkpt>
      <trkpt lat="38.63072" lon="-0.015349">
        <ele>61</ele>
        <time>2021-01-31T12:19:56Z</time>
      </trkpt>
      <trkpt lat="38.630757" lon="-0.01533">
        <ele>61.9</ele>
        <time>2021-01-31T12:20:00Z</time>
      </trkpt>
      <trkpt lat="38.630746" lon="-0.015322">
        <ele>62.3</ele>
        <time>2021-01-31T12:20:02Z</time>
      </trkpt>
      <trkpt lat="38.630741" lon="-0.015123">
        <ele>63.1</ele>
        <time>2021-01-31T12:20:07Z</time>
      </trkpt>
      <trkpt lat="38.630645" lon="-0.014914">
        <ele>64.2</ele>
        <time>2021-01-31T12:20:14Z</time>
      </trkpt>
      <trkpt lat="38.6301" lon="-0.014721">
        <ele>66.5</ele>
        <time>2021-01-31T12:20:32Z</time>
      </trkpt>
      <trkpt lat="38.629981" lon="-0.01458">
        <ele>67.1</ele>
        <time>2021-01-31T12:20:37Z</time>
      </trkpt>
      <trkpt lat="38.629905" lon="-0.014372">
        <ele>67.2</ele>
        <time>2021-01-31T12:20:39Z</time>
      </trkpt>
      <trkpt lat="38.629868" lon="-0.014319">
        <ele>67.3</ele>
        <time>2021-01-31T12:20:41Z</time>
      </trkpt>
      <trkpt lat="38.629859" lon="-0.014244">
        <ele>67</ele>
        <time>2021-01-31T12:20:41Z</time>
      </trkpt>
      <trkpt lat="38.629853" lon="-0.013871">
        <ele>67.6</ele>
        <time>2021-01-31T12:20:48Z</time>
      </trkpt>
      <trkpt lat="38.629874" lon="-0.013785">
        <ele>67.2</ele>
        <time>2021-01-31T12:20:49Z</time>
      </trkpt>
      <trkpt lat="38.629885" lon="-0.013492">
        <ele>66.6</ele>
        <time>2021-01-31T12:20:51Z</time>
      </trkpt>
      <trkpt lat="38.629918" lon="-0.013352">
        <ele>66.4</ele>
        <time>2021-01-31T12:20:53Z</time>
      </trkpt>
      <trkpt lat="38.629961" lon="-0.013247">
        <ele>65.9</ele>
        <time>2021-01-31T12:20:53Z</time>
      </trkpt>
      <trkpt lat="38.630172" lon="-0.012962">
        <ele>65</ele>
        <time>2021-01-31T12:20:57Z</time>
      </trkpt>
      <trkpt lat="38.630319" lon="-0.01286">
        <ele>64.4</ele>
        <time>2021-01-31T12:20:58Z</time>
      </trkpt>
      <trkpt lat="38.630461" lon="-0.012819">
        <ele>63.9</ele>
        <time>2021-01-31T12:21:00Z</time>
      </trkpt>
      <trkpt lat="38.630932" lon="-0.012852">
        <ele>61.6</ele>
        <time>2021-01-31T12:21:04Z</time>
      </trkpt>
      <trkpt lat="38.631389" lon="-0.013037">
        <ele>59.9</ele>
        <time>2021-01-31T12:21:09Z</time>
      </trkpt>
      <trkpt lat="38.631783" lon="-0.013125">
        <ele>58.7</ele>
        <time>2021-01-31T12:21:13Z</time>
      </trkpt>
      <trkpt lat="38.632029" lon="-0.013186">
        <ele>58.1</ele>
        <time>2021-01-31T12:21:16Z</time>
      </trkpt>
      <trkpt lat="38.632094" lon="-0.013194">
        <ele>58.1</ele>
        <time>2021-01-31T12:21:17Z</time>
      </trkpt>
      <trkpt lat="38.632143" lon="-0.013195">
        <ele>58</ele>
        <time>2021-01-31T12:21:17Z</time>
      </trkpt>
      <trkpt lat="38.632239" lon="-0.013187">
        <ele>57.8</ele>
        <time>2021-01-31T12:21:18Z</time>
      </trkpt>
      <trkpt lat="38.632466" lon="-0.013026">
        <ele>57.4</ele>
        <time>2021-01-31T12:21:21Z</time>
      </trkpt>
      <trkpt lat="38.63251" lon="-0.01297">
        <ele>57.3</ele>
        <time>2021-01-31T12:21:22Z</time>
      </trkpt>
      <trkpt lat="38.632547" lon="-0.012881">
        <ele>57.2</ele>
        <time>2021-01-31T12:21:23Z</time>
      </trkpt>
      <trkpt lat="38.632589" lon="-0.012551">
        <ele>56.8</ele>
        <time>2021-01-31T12:21:26Z</time>
      </trkpt>
      <trkpt lat="38.63256" lon="-0.012353">
        <ele>56.6</ele>
        <time>2021-01-31T12:21:28Z</time>
      </trkpt>
      <trkpt lat="38.63251" lon="-0.012197">
        <ele>56.5</ele>
        <time>2021-01-31T12:21:29Z</time>
      </trkpt>
      <trkpt lat="38.632315" lon="-0.011701">
        <ele>56</ele>
        <time>2021-01-31T12:21:34Z</time>
      </trkpt>
      <trkpt lat="38.631554" lon="-0.009778">
        <ele>51.4</ele>
        <time>2021-01-31T12:21:52Z</time>
      </trkpt>
      <trkpt lat="38.631527" lon="-0.009704">
        <ele>51.2</ele>
        <time>2021-01-31T12:21:53Z</time>
      </trkpt>
      <trkpt lat="38.6315" lon="-0.009628">
        <ele>50.9</ele>
        <time>2021-01-31T12:21:53Z</time>
      </trkpt>
      <trkpt lat="38.631414" lon="-0.009193">
        <ele>49.1</ele>
        <time>2021-01-31T12:21:57Z</time>
      </trkpt>
      <trkpt lat="38.631414" lon="-0.009099">
        <ele>48.7</ele>
        <time>2021-01-31T12:21:57Z</time>
      </trkpt>
      <trkpt lat="38.631414" lon="-0.009067">
        <ele>48.5</ele>
        <time>2021-01-31T12:21:58Z</time>
      </trkpt>
      <trkpt lat="38.631445" lon="-0.008788">
        <ele>47.3</ele>
        <time>2021-01-31T12:22:00Z</time>
      </trkpt>
      <trkpt lat="38.63146" lon="-0.008676">
        <ele>46.8</ele>
        <time>2021-01-31T12:22:00Z</time>
      </trkpt>
      <trkpt lat="38.631491" lon="-0.008419">
        <ele>45.5</ele>
        <time>2021-01-31T12:22:02Z</time>
      </trkpt>
      <trkpt lat="38.631489" lon="-0.008005">
        <ele>43.6</ele>
        <time>2021-01-31T12:22:05Z</time>
      </trkpt>
      <trkpt lat="38.631346" lon="-0.00733">
        <ele>40.5</ele>
        <time>2021-01-31T12:22:10Z</time>
      </trkpt>
      <trkpt lat="38.631398" lon="-0.006338">
        <ele>36.7</ele>
        <time>2021-01-31T12:22:18Z</time>
      </trkpt>
      <trkpt lat="38.631654" lon="-0.005061">
        <ele>35.4</ele>
        <time>2021-01-31T12:22:30Z</time>
      </trkpt>
      <trkpt lat="38.631652" lon="-0.004093">
        <ele>35.9</ele>
        <time>2021-01-31T12:22:43Z</time>
      </trkpt>
      <trkpt lat="38.631776" lon="-0.003595">
        <ele>36.8</ele>
        <time>2021-01-31T12:22:53Z</time>
      </trkpt>
      <trkpt lat="38.631849" lon="-0.002838">
        <ele>38.7</ele>
        <time>2021-01-31T12:23:09Z</time>
      </trkpt>
      <trkpt lat="38.631983" lon="-0.002317">
        <ele>40.4</ele>
        <time>2021-01-31T12:23:22Z</time>
      </trkpt>
      <trkpt lat="38.631959" lon="-0.002082">
        <ele>41.1</ele>
        <time>2021-01-31T12:23:28Z</time>
      </trkpt>
      <trkpt lat="38.631844" lon="-0.001789">
        <ele>42.2</ele>
        <time>2021-01-31T12:23:36Z</time>
      </trkpt>
      <trkpt lat="38.63179" lon="-0.001658">
        <ele>42.9</ele>
        <time>2021-01-31T12:23:41Z</time>
      </trkpt>
      <trkpt lat="38.631713" lon="-0.001384">
        <ele>44.4</ele>
        <time>2021-01-31T12:23:50Z</time>
      </trkpt>
      <trkpt lat="38.631794" lon="-0.000687">
        <ele>48.3</ele>
        <time>2021-01-31T12:24:14Z</time>
      </trkpt>
      <trkpt lat="38.63191" lon="-0.000467">
        <ele>49</ele>
        <time>2021-01-31T12:24:20Z</time>
      </trkpt>
      <trkpt lat="38.632157" lon="-0.000247">
        <ele>50.2</ele>
        <time>2021-01-31T12:24:29Z</time>
      </trkpt>
      <trkpt lat="38.632359" lon="-6.9E-5">
        <ele>51.5</ele>
        <time>2021-01-31T12:24:38Z</time>
      </trkpt>
      <trkpt lat="38.632538" lon="8.4E-5">
        <ele>52.4</ele>
        <time>2021-01-31T12:24:44Z</time>
      </trkpt>
      <trkpt lat="38.632724" lon="0.000249">
        <ele>53.4</ele>
        <time>2021-01-31T12:24:52Z</time>
      </trkpt>
      <trkpt lat="38.633181" lon="0.000638">
        <ele>55.5</ele>
        <time>2021-01-31T12:25:09Z</time>
      </trkpt>
      <trkpt lat="38.633249" lon="0.0007">
        <ele>56</ele>
        <time>2021-01-31T12:25:12Z</time>
      </trkpt>
      <trkpt lat="38.633358" lon="0.000797">
        <ele>56.3</ele>
        <time>2021-01-31T12:25:15Z</time>
      </trkpt>
      <trkpt lat="38.633464" lon="0.0009">
        <ele>56.9</ele>
        <time>2021-01-31T12:25:19Z</time>
      </trkpt>
      <trkpt lat="38.634155" lon="0.001648">
        <ele>57.9</ele>
        <time>2021-01-31T12:25:37Z</time>
      </trkpt>
      <trkpt lat="38.634259" lon="0.00189">
        <ele>58.3</ele>
        <time>2021-01-31T12:25:41Z</time>
      </trkpt>
      <trkpt lat="38.634266" lon="0.002107">
        <ele>58.6</ele>
        <time>2021-01-31T12:25:45Z</time>
      </trkpt>
      <trkpt lat="38.634125" lon="0.003193">
        <ele>60.1</ele>
        <time>2021-01-31T12:26:04Z</time>
      </trkpt>
      <trkpt lat="38.634125" lon="0.003689">
        <ele>60.3</ele>
        <time>2021-01-31T12:26:11Z</time>
      </trkpt>
      <trkpt lat="38.634153" lon="0.004132">
        <ele>60.6</ele>
        <time>2021-01-31T12:26:17Z</time>
      </trkpt>
      <trkpt lat="38.634171" lon="0.004285">
        <ele>60.8</ele>
        <time>2021-01-31T12:26:19Z</time>
      </trkpt>
      <trkpt lat="38.634257" lon="0.004599">
        <ele>61.2</ele>
        <time>2021-01-31T12:26:25Z</time>
      </trkpt>
      <trkpt lat="38.634381" lon="0.004848">
        <ele>61.5</ele>
        <time>2021-01-31T12:26:30Z</time>
      </trkpt>
      <trkpt lat="38.634728" lon="0.005138">
        <ele>62.2</ele>
        <time>2021-01-31T12:26:39Z</time>
      </trkpt>
      <trkpt lat="38.634895" lon="0.005205">
        <ele>62.6</ele>
        <time>2021-01-31T12:26:43Z</time>
      </trkpt>
      <trkpt lat="38.635509" lon="0.005359">
        <ele>64.5</ele>
        <time>2021-01-31T12:27:00Z</time>
      </trkpt>
      <trkpt lat="38.636141" lon="0.005519">
        <ele>69.9</ele>
        <time>2021-01-31T12:27:31Z</time>
      </trkpt>
      <trkpt lat="38.636773" lon="0.005688">
        <ele>81.9</ele>
        <time>2021-01-31T12:28:29Z</time>
      </trkpt>
      <trkpt lat="38.636961" lon="0.005785">
        <ele>87.3</ele>
        <time>2021-01-31T12:28:50Z</time>
      </trkpt>
      <trkpt lat="38.637026" lon="0.005832">
        <ele>90.1</ele>
        <time>2021-01-31T12:28:58Z</time>
      </trkpt>
      <trkpt lat="38.637377" lon="0.006102">
        <ele>104.5</ele>
        <time>2021-01-31T12:29:43Z</time>
      </trkpt>
      <trkpt lat="38.63784" lon="0.006501">
        <ele>119.7</ele>
        <time>2021-01-31T12:30:43Z</time>
      </trkpt>
      <trkpt lat="38.637973" lon="0.00659">
        <ele>124.9</ele>
        <time>2021-01-31T12:30:59Z</time>
      </trkpt>
      <trkpt lat="38.638428" lon="0.006956">
        <ele>136.6</ele>
        <time>2021-01-31T12:31:54Z</time>
      </trkpt>
      <trkpt lat="38.638542" lon="0.007108">
        <ele>141</ele>
        <time>2021-01-31T12:32:11Z</time>
      </trkpt>
      <trkpt lat="38.638633" lon="0.007238">
        <ele>142</ele>
        <time>2021-01-31T12:32:17Z</time>
      </trkpt>
      <trkpt lat="38.638853" lon="0.00769">
        <ele>147.7</ele>
        <time>2021-01-31T12:32:46Z</time>
      </trkpt>
      <trkpt lat="38.639421" lon="0.008229">
        <ele>148.4</ele>
        <time>2021-01-31T12:32:59Z</time>
      </trkpt>
      <trkpt lat="38.639882" lon="0.009133">
        <ele>138.6</ele>
        <time>2021-01-31T12:33:06Z</time>
      </trkpt>
      <trkpt lat="38.639966" lon="0.009538">
        <ele>135.9</ele>
        <time>2021-01-31T12:33:09Z</time>
      </trkpt>
      <trkpt lat="38.640023" lon="0.010714">
        <ele>131.4</ele>
        <time>2021-01-31T12:33:18Z</time>
      </trkpt>
      <trkpt lat="38.640035" lon="0.010998">
        <ele>130.9</ele>
        <time>2021-01-31T12:33:20Z</time>
      </trkpt>
      <trkpt lat="38.64006" lon="0.011544">
        <ele>130.3</ele>
        <time>2021-01-31T12:33:26Z</time>
      </trkpt>
      <trkpt lat="38.640073" lon="0.011967">
        <ele>128.9</ele>
        <time>2021-01-31T12:33:29Z</time>
      </trkpt>
      <trkpt lat="38.640025" lon="0.012283">
        <ele>128.5</ele>
        <time>2021-01-31T12:33:32Z</time>
      </trkpt>
      <trkpt lat="38.639572" lon="0.013543">
        <ele>121</ele>
        <time>2021-01-31T12:33:41Z</time>
      </trkpt>
      <trkpt lat="38.639563" lon="0.013579">
        <ele>120.3</ele>
        <time>2021-01-31T12:33:42Z</time>
      </trkpt>
      <trkpt lat="38.639556" lon="0.013619">
        <ele>119.5</ele>
        <time>2021-01-31T12:33:42Z</time>
      </trkpt>
      <trkpt lat="38.63963" lon="0.016096">
        <ele>101.7</ele>
        <time>2021-01-31T12:33:59Z</time>
      </trkpt>
      <trkpt lat="38.639584" lon="0.018609">
        <ele>91.1</ele>
        <time>2021-01-31T12:34:17Z</time>
      </trkpt>
      <trkpt lat="38.639623" lon="0.018868">
        <ele>90.4</ele>
        <time>2021-01-31T12:34:19Z</time>
      </trkpt>
      <trkpt lat="38.639648" lon="0.01895">
        <ele>90</ele>
        <time>2021-01-31T12:34:20Z</time>
      </trkpt>
      <trkpt lat="38.639729" lon="0.019121">
        <ele>89.9</ele>
        <time>2021-01-31T12:34:22Z</time>
      </trkpt>
      <trkpt lat="38.639846" lon="0.019384">
        <ele>88.9</ele>
        <time>2021-01-31T12:34:24Z</time>
      </trkpt>
      <trkpt lat="38.639879" lon="0.01951">
        <ele>89.1</ele>
        <time>2021-01-31T12:34:26Z</time>
      </trkpt>
      <trkpt lat="38.639902" lon="0.019606">
        <ele>88.6</ele>
        <time>2021-01-31T12:34:27Z</time>
      </trkpt>
      <trkpt lat="38.639892" lon="0.019883">
        <ele>88.4</ele>
        <time>2021-01-31T12:34:30Z</time>
      </trkpt>
      <trkpt lat="38.639577" lon="0.021341">
        <ele>88.3</ele>
        <time>2021-01-31T12:34:47Z</time>
      </trkpt>
      <trkpt lat="38.639562" lon="0.021427">
        <ele>88</ele>
        <time>2021-01-31T12:34:48Z</time>
      </trkpt>
      <trkpt lat="38.639556" lon="0.021462">
        <ele>88.3</ele>
        <time>2021-01-31T12:34:49Z</time>
      </trkpt>
      <trkpt lat="38.639547" lon="0.021784">
        <ele>88.2</ele>
        <time>2021-01-31T12:34:53Z</time>
      </trkpt>
      <trkpt lat="38.63967" lon="0.022147">
        <ele>88.1</ele>
        <time>2021-01-31T12:34:57Z</time>
      </trkpt>
      <trkpt lat="38.640514" lon="0.023177">
        <ele>87.1</ele>
        <time>2021-01-31T12:35:12Z</time>
      </trkpt>
      <trkpt lat="38.640869" lon="0.023606">
        <ele>86.1</ele>
        <time>2021-01-31T12:35:17Z</time>
      </trkpt>
      <trkpt lat="38.641097" lon="0.023882">
        <ele>85.5</ele>
        <time>2021-01-31T12:35:20Z</time>
      </trkpt>
      <trkpt lat="38.641158" lon="0.023957">
        <ele>85.2</ele>
        <time>2021-01-31T12:35:21Z</time>
      </trkpt>
      <trkpt lat="38.641556" lon="0.024448">
        <ele>83.8</ele>
        <time>2021-01-31T12:35:27Z</time>
      </trkpt>
      <trkpt lat="38.642766" lon="0.02595">
        <ele>80</ele>
        <time>2021-01-31T12:35:45Z</time>
      </trkpt>
      <trkpt lat="38.642907" lon="0.026355">
        <ele>79.6</ele>
        <time>2021-01-31T12:35:49Z</time>
      </trkpt>
      <trkpt lat="38.642914" lon="0.026781">
        <ele>79.2</ele>
        <time>2021-01-31T12:35:53Z</time>
      </trkpt>
      <trkpt lat="38.642904" lon="0.026895">
        <ele>79</ele>
        <time>2021-01-31T12:35:54Z</time>
      </trkpt>
      <trkpt lat="38.642888" lon="0.027077">
        <ele>78.9</ele>
        <time>2021-01-31T12:35:56Z</time>
      </trkpt>
      <trkpt lat="38.642879" lon="0.027194">
        <ele>78.8</ele>
        <time>2021-01-31T12:35:57Z</time>
      </trkpt>
      <trkpt lat="38.642855" lon="0.027497">
        <ele>78.4</ele>
        <time>2021-01-31T12:36:00Z</time>
      </trkpt>
      <trkpt lat="38.642842" lon="0.027956">
        <ele>77.8</ele>
        <time>2021-01-31T12:36:04Z</time>
      </trkpt>
      <trkpt lat="38.64289" lon="0.028217">
        <ele>77.4</ele>
        <time>2021-01-31T12:36:06Z</time>
      </trkpt>
      <trkpt lat="38.642988" lon="0.028461">
        <ele>77.2</ele>
        <time>2021-01-31T12:36:09Z</time>
      </trkpt>
      <trkpt lat="38.643208" lon="0.028761">
        <ele>76.6</ele>
        <time>2021-01-31T12:36:12Z</time>
      </trkpt>
      <trkpt lat="38.643343" lon="0.028887">
        <ele>76.2</ele>
        <time>2021-01-31T12:36:14Z</time>
      </trkpt>
      <trkpt lat="38.643758" lon="0.029267">
        <ele>75.4</ele>
        <time>2021-01-31T12:36:20Z</time>
      </trkpt>
      <trkpt lat="38.644143" lon="0.029614">
        <ele>74.3</ele>
        <time>2021-01-31T12:36:25Z</time>
      </trkpt>
      <trkpt lat="38.644455" lon="0.029896">
        <ele>73.6</ele>
        <time>2021-01-31T12:36:29Z</time>
      </trkpt>
      <trkpt lat="38.64493" lon="0.03033">
        <ele>73</ele>
        <time>2021-01-31T12:36:36Z</time>
      </trkpt>
      <trkpt lat="38.644995" lon="0.030399">
        <ele>72.8</ele>
        <time>2021-01-31T12:36:37Z</time>
      </trkpt>
      <trkpt lat="38.64502" lon="0.030427">
        <ele>72.8</ele>
        <time>2021-01-31T12:36:38Z</time>
      </trkpt>
      <trkpt lat="38.645163" lon="0.03066">
        <ele>72.8</ele>
        <time>2021-01-31T12:36:41Z</time>
      </trkpt>
      <trkpt lat="38.645247" lon="0.03091">
        <ele>72.7</ele>
        <time>2021-01-31T12:36:44Z</time>
      </trkpt>
      <trkpt lat="38.645279" lon="0.031048">
        <ele>72.7</ele>
        <time>2021-01-31T12:36:46Z</time>
      </trkpt>
      <trkpt lat="38.645293" lon="0.031175">
        <ele>72.6</ele>
        <time>2021-01-31T12:36:47Z</time>
      </trkpt>
      <trkpt lat="38.645269" lon="0.031627">
        <ele>72.8</ele>
        <time>2021-01-31T12:36:53Z</time>
      </trkpt>
      <trkpt lat="38.644905" lon="0.03283">
        <ele>74.1</ele>
        <time>2021-01-31T12:37:13Z</time>
      </trkpt>
      <trkpt lat="38.64491" lon="0.033149">
        <ele>74.1</ele>
        <time>2021-01-31T12:37:17Z</time>
      </trkpt>
      <trkpt lat="38.645023" lon="0.033538">
        <ele>74.2</ele>
        <time>2021-01-31T12:37:22Z</time>
      </trkpt>
      <trkpt lat="38.645077" lon="0.033646">
        <ele>74.3</ele>
        <time>2021-01-31T12:37:24Z</time>
      </trkpt>
      <trkpt lat="38.645177" lon="0.033793">
        <ele>74.3</ele>
        <time>2021-01-31T12:37:26Z</time>
      </trkpt>
      <trkpt lat="38.645245" lon="0.033951">
        <ele>74</ele>
        <time>2021-01-31T12:37:28Z</time>
      </trkpt>
      <trkpt lat="38.645475" lon="0.034251">
        <ele>73.2</ele>
        <time>2021-01-31T12:37:31Z</time>
      </trkpt>
      <trkpt lat="38.645565" lon="0.03452">
        <ele>72.7</ele>
        <time>2021-01-31T12:37:34Z</time>
      </trkpt>
      <trkpt lat="38.645574" lon="0.035223">
        <ele>70.2</ele>
        <time>2021-01-31T12:37:39Z</time>
      </trkpt>
      <trkpt lat="38.645412" lon="0.035834">
        <ele>67.3</ele>
        <time>2021-01-31T12:37:44Z</time>
      </trkpt>
      <trkpt lat="38.645399" lon="0.035938">
        <ele>66.6</ele>
        <time>2021-01-31T12:37:44Z</time>
      </trkpt>
      <trkpt lat="38.645363" lon="0.036022">
        <ele>66.3</ele>
        <time>2021-01-31T12:37:45Z</time>
      </trkpt>
      <trkpt lat="38.645347" lon="0.036059">
        <ele>65.9</ele>
        <time>2021-01-31T12:37:45Z</time>
      </trkpt>
      <trkpt lat="38.645115" lon="0.036974">
        <ele>61.8</ele>
        <time>2021-01-31T12:37:52Z</time>
      </trkpt>
      <trkpt lat="38.645094" lon="0.037029">
        <ele>61.4</ele>
        <time>2021-01-31T12:37:53Z</time>
      </trkpt>
      <trkpt lat="38.645064" lon="0.037041">
        <ele>61.3</ele>
        <time>2021-01-31T12:37:53Z</time>
      </trkpt>
      <trkpt lat="38.644995" lon="0.03711">
        <ele>60.9</ele>
        <time>2021-01-31T12:37:54Z</time>
      </trkpt>
      <trkpt lat="38.644968" lon="0.037174">
        <ele>60.5</ele>
        <time>2021-01-31T12:37:54Z</time>
      </trkpt>
      <trkpt lat="38.644959" lon="0.037258">
        <ele>60.4</ele>
        <time>2021-01-31T12:37:55Z</time>
      </trkpt>
      <trkpt lat="38.644971" lon="0.03733">
        <ele>60</ele>
        <time>2021-01-31T12:37:56Z</time>
      </trkpt>
      <trkpt lat="38.645005" lon="0.0374">
        <ele>59.6</ele>
        <time>2021-01-31T12:37:56Z</time>
      </trkpt>
      <trkpt lat="38.645036" lon="0.037435">
        <ele>59.4</ele>
        <time>2021-01-31T12:37:57Z</time>
      </trkpt>
      <trkpt lat="38.645061" lon="0.03745">
        <ele>59.4</ele>
        <time>2021-01-31T12:37:57Z</time>
      </trkpt>
      <trkpt lat="38.645075" lon="0.037519">
        <ele>59</ele>
        <time>2021-01-31T12:37:57Z</time>
      </trkpt>
      <trkpt lat="38.645086" lon="0.037586">
        <ele>58.7</ele>
        <time>2021-01-31T12:37:58Z</time>
      </trkpt>
      <trkpt lat="38.645081" lon="0.037945">
        <ele>57.3</ele>
        <time>2021-01-31T12:38:01Z</time>
      </trkpt>
      <trkpt lat="38.645079" lon="0.038111">
        <ele>57</ele>
        <time>2021-01-31T12:38:02Z</time>
      </trkpt>
      <trkpt lat="38.645082" lon="0.038351">
        <ele>56.2</ele>
        <time>2021-01-31T12:38:04Z</time>
      </trkpt>
      <trkpt lat="38.645083" lon="0.038535">
        <ele>55.9</ele>
        <time>2021-01-31T12:38:05Z</time>
      </trkpt>
      <trkpt lat="38.645088" lon="0.038715">
        <ele>55.3</ele>
        <time>2021-01-31T12:38:07Z</time>
      </trkpt>
      <trkpt lat="38.645125" lon="0.039125">
        <ele>54.4</ele>
        <time>2021-01-31T12:38:10Z</time>
      </trkpt>
      <trkpt lat="38.645134" lon="0.039143">
        <ele>54.3</ele>
        <time>2021-01-31T12:38:10Z</time>
      </trkpt>
      <trkpt lat="38.645155" lon="0.039192">
        <ele>54.1</ele>
        <time>2021-01-31T12:38:11Z</time>
      </trkpt>
      <trkpt lat="38.645199" lon="0.039289">
        <ele>53.9</ele>
        <time>2021-01-31T12:38:12Z</time>
      </trkpt>
      <trkpt lat="38.645297" lon="0.039502">
        <ele>53.5</ele>
        <time>2021-01-31T12:38:14Z</time>
      </trkpt>
      <trkpt lat="38.645348" lon="0.039594">
        <ele>53.1</ele>
        <time>2021-01-31T12:38:15Z</time>
      </trkpt>
      <trkpt lat="38.645635" lon="0.040246">
        <ele>51.6</ele>
        <time>2021-01-31T12:38:21Z</time>
      </trkpt>
      <trkpt lat="38.645886" lon="0.041874">
        <ele>49.3</ele>
        <time>2021-01-31T12:38:35Z</time>
      </trkpt>
      <trkpt lat="38.645923" lon="0.042001">
        <ele>49</ele>
        <time>2021-01-31T12:38:36Z</time>
      </trkpt>
      <trkpt lat="38.645913" lon="0.04204">
        <ele>49</ele>
        <time>2021-01-31T12:38:37Z</time>
      </trkpt>
      <trkpt lat="38.645919" lon="0.042091">
        <ele>48.9</ele>
        <time>2021-01-31T12:38:37Z</time>
      </trkpt>
      <trkpt lat="38.645928" lon="0.042127">
        <ele>48.9</ele>
        <time>2021-01-31T12:38:38Z</time>
      </trkpt>
      <trkpt lat="38.64597" lon="0.04218">
        <ele>48.9</ele>
        <time>2021-01-31T12:38:38Z</time>
      </trkpt>
      <trkpt lat="38.645987" lon="0.042293">
        <ele>48.9</ele>
        <time>2021-01-31T12:38:40Z</time>
      </trkpt>
      <trkpt lat="38.646041" lon="0.042499">
        <ele>48.5</ele>
        <time>2021-01-31T12:38:42Z</time>
      </trkpt>
      <trkpt lat="38.646082" lon="0.042682">
        <ele>48.5</ele>
        <time>2021-01-31T12:38:44Z</time>
      </trkpt>
      <trkpt lat="38.646167" lon="0.043035">
        <ele>48</ele>
        <time>2021-01-31T12:38:47Z</time>
      </trkpt>
      <trkpt lat="38.646238" lon="0.043358">
        <ele>47.6</ele>
        <time>2021-01-31T12:38:50Z</time>
      </trkpt>
      <trkpt lat="38.646405" lon="0.045401">
        <ele>40.6</ele>
        <time>2021-01-31T12:39:06Z</time>
      </trkpt>
      <trkpt lat="38.646417" lon="0.045688">
        <ele>39</ele>
        <time>2021-01-31T12:39:08Z</time>
      </trkpt>
      <trkpt lat="38.646422" lon="0.045978">
        <ele>37.5</ele>
        <time>2021-01-31T12:39:10Z</time>
      </trkpt>
      <trkpt lat="38.646359" lon="0.046665">
        <ele>33.4</ele>
        <time>2021-01-31T12:39:14Z</time>
      </trkpt>
      <trkpt lat="38.646255" lon="0.047179">
        <ele>29.8</ele>
        <time>2021-01-31T12:39:18Z</time>
      </trkpt>
      <trkpt lat="38.646157" lon="0.047552">
        <ele>27.5</ele>
        <time>2021-01-31T12:39:21Z</time>
      </trkpt>
      <trkpt lat="38.645947" lon="0.047918">
        <ele>25.2</ele>
        <time>2021-01-31T12:39:24Z</time>
      </trkpt>
      <trkpt lat="38.645906" lon="0.047969">
        <ele>24.6</ele>
        <time>2021-01-31T12:39:25Z</time>
      </trkpt>
      <trkpt lat="38.645878" lon="0.047971">
        <ele>24.5</ele>
        <time>2021-01-31T12:39:25Z</time>
      </trkpt>
      <trkpt lat="38.645852" lon="0.047983">
        <ele>24.4</ele>
        <time>2021-01-31T12:39:25Z</time>
      </trkpt>
      <trkpt lat="38.645823" lon="0.048008">
        <ele>24.2</ele>
        <time>2021-01-31T12:39:25Z</time>
      </trkpt>
      <trkpt lat="38.645802" lon="0.048043">
        <ele>24</ele>
        <time>2021-01-31T12:39:26Z</time>
      </trkpt>
      <trkpt lat="38.64579" lon="0.048086">
        <ele>23.8</ele>
        <time>2021-01-31T12:39:26Z</time>
      </trkpt>
      <trkpt lat="38.645788" lon="0.048107">
        <ele>23.7</ele>
        <time>2021-01-31T12:39:26Z</time>
      </trkpt>
      <trkpt lat="38.645789" lon="0.048128">
        <ele>23.6</ele>
        <time>2021-01-31T12:39:26Z</time>
      </trkpt>
      <trkpt lat="38.645778" lon="0.048153">
        <ele>23.4</ele>
        <time>2021-01-31T12:39:27Z</time>
      </trkpt>
      <trkpt lat="38.645399" lon="0.048714">
        <ele>20.4</ele>
        <time>2021-01-31T12:39:32Z</time>
      </trkpt>
      <trkpt lat="38.645374" lon="0.048775">
        <ele>20.2</ele>
        <time>2021-01-31T12:39:32Z</time>
      </trkpt>
      <trkpt lat="38.645357" lon="0.048825">
        <ele>19.9</ele>
        <time>2021-01-31T12:39:33Z</time>
      </trkpt>
      <trkpt lat="38.645328" lon="0.048926">
        <ele>19.6</ele>
        <time>2021-01-31T12:39:34Z</time>
      </trkpt>
      <trkpt lat="38.645238" lon="0.049386">
        <ele>18</ele>
        <time>2021-01-31T12:39:37Z</time>
      </trkpt>
      <trkpt lat="38.645228" lon="0.049444">
        <ele>17.8</ele>
        <time>2021-01-31T12:39:38Z</time>
      </trkpt>
      <trkpt lat="38.645196" lon="0.049617">
        <ele>17.1</ele>
        <time>2021-01-31T12:39:39Z</time>
      </trkpt>
      <trkpt lat="38.64518" lon="0.049693">
        <ele>16.8</ele>
        <time>2021-01-31T12:39:40Z</time>
      </trkpt>
      <trkpt lat="38.645158" lon="0.049698">
        <ele>16.7</ele>
        <time>2021-01-31T12:39:40Z</time>
      </trkpt>
      <trkpt lat="38.64513" lon="0.049714">
        <ele>16.6</ele>
        <time>2021-01-31T12:39:40Z</time>
      </trkpt>
      <trkpt lat="38.645106" lon="0.049738">
        <ele>16.5</ele>
        <time>2021-01-31T12:39:40Z</time>
      </trkpt>
      <trkpt lat="38.645085" lon="0.049775">
        <ele>16.4</ele>
        <time>2021-01-31T12:39:41Z</time>
      </trkpt>
      <trkpt lat="38.645073" lon="0.049824">
        <ele>16.3</ele>
        <time>2021-01-31T12:39:41Z</time>
      </trkpt>
      <trkpt lat="38.645089" lon="0.049923">
        <ele>16.1</ele>
        <time>2021-01-31T12:39:42Z</time>
      </trkpt>
      <trkpt lat="38.645115" lon="0.049962">
        <ele>16.1</ele>
        <time>2021-01-31T12:39:43Z</time>
      </trkpt>
      <trkpt lat="38.645119" lon="0.049994">
        <ele>15.9</ele>
        <time>2021-01-31T12:39:43Z</time>
      </trkpt>
      <trkpt lat="38.644829" lon="0.051461">
        <ele>12.1</ele>
        <time>2021-01-31T12:39:55Z</time>
      </trkpt>
      <trkpt lat="38.644782" lon="0.051698">
        <ele>11.4</ele>
        <time>2021-01-31T12:39:57Z</time>
      </trkpt>
      <trkpt lat="38.644436" lon="0.053429">
        <ele>8.6</ele>
        <time>2021-01-31T12:40:12Z</time>
      </trkpt>
      <trkpt lat="38.644399" lon="0.053439">
        <ele>8.6</ele>
        <time>2021-01-31T12:40:13Z</time>
      </trkpt>
      <trkpt lat="38.644366" lon="0.053463">
        <ele>8.6</ele>
        <time>2021-01-31T12:40:13Z</time>
      </trkpt>
      <trkpt lat="38.644341" lon="0.053498">
        <ele>8.6</ele>
        <time>2021-01-31T12:40:14Z</time>
      </trkpt>
      <trkpt lat="38.644325" lon="0.053555">
        <ele>8.5</ele>
        <time>2021-01-31T12:40:14Z</time>
      </trkpt>
      <trkpt lat="38.644322" lon="0.053592">
        <ele>8.5</ele>
        <time>2021-01-31T12:40:15Z</time>
      </trkpt>
      <trkpt lat="38.644351" lon="0.053682">
        <ele>8.5</ele>
        <time>2021-01-31T12:40:16Z</time>
      </trkpt>
      <trkpt lat="38.644381" lon="0.053714">
        <ele>8.5</ele>
        <time>2021-01-31T12:40:16Z</time>
      </trkpt>
      <trkpt lat="38.644154" lon="0.054841">
        <ele>9.1</ele>
        <time>2021-01-31T12:40:32Z</time>
      </trkpt>
      <trkpt lat="38.643896" lon="0.056253">
        <ele>9.9</ele>
        <time>2021-01-31T12:40:52Z</time>
      </trkpt>
      <trkpt lat="38.643455" lon="0.05855">
        <ele>7.2</ele>
        <time>2021-01-31T12:41:14Z</time>
      </trkpt>
      <trkpt lat="38.643366" lon="0.058792">
        <ele>6.8</ele>
        <time>2021-01-31T12:41:16Z</time>
      </trkpt>
      <trkpt lat="38.643313" lon="0.058816">
        <ele>6.8</ele>
        <time>2021-01-31T12:41:17Z</time>
      </trkpt>
      <trkpt lat="38.643259" lon="0.05888">
        <ele>6.8</ele>
        <time>2021-01-31T12:41:18Z</time>
      </trkpt>
      <trkpt lat="38.643241" lon="0.058932">
        <ele>6.8</ele>
        <time>2021-01-31T12:41:18Z</time>
      </trkpt>
      <trkpt lat="38.643232" lon="0.059022">
        <ele>6.7</ele>
        <time>2021-01-31T12:41:19Z</time>
      </trkpt>
      <trkpt lat="38.643249" lon="0.05909">
        <ele>6.7</ele>
        <time>2021-01-31T12:41:20Z</time>
      </trkpt>
      <trkpt lat="38.643293" lon="0.059158">
        <ele>6.6</ele>
        <time>2021-01-31T12:41:21Z</time>
      </trkpt>
      <trkpt lat="38.643282" lon="0.059314">
        <ele>6.6</ele>
        <time>2021-01-31T12:41:23Z</time>
      </trkpt>
      <trkpt lat="38.643193" lon="0.059681">
        <ele>6.7</ele>
        <time>2021-01-31T12:41:28Z</time>
      </trkpt>
      <trkpt lat="38.642305" lon="0.063344">
        <ele>12.3</ele>
        <time>2021-01-31T12:42:34Z</time>
      </trkpt>
      <trkpt lat="38.641945" lon="0.064932">
        <ele>10.8</ele>
        <time>2021-01-31T12:42:50Z</time>
      </trkpt>
      <trkpt lat="38.641927" lon="0.065458">
        <ele>9.6</ele>
        <time>2021-01-31T12:42:54Z</time>
      </trkpt>
      <trkpt lat="38.641973" lon="0.065824">
        <ele>8.8</ele>
        <time>2021-01-31T12:42:57Z</time>
      </trkpt>
      <trkpt lat="38.641984" lon="0.066123">
        <ele>8.2</ele>
        <time>2021-01-31T12:43:00Z</time>
      </trkpt>
      <trkpt lat="38.641957" lon="0.066166">
        <ele>8.1</ele>
        <time>2021-01-31T12:43:00Z</time>
      </trkpt>
      <trkpt lat="38.641951" lon="0.066338">
        <ele>7.7</ele>
        <time>2021-01-31T12:43:01Z</time>
      </trkpt>
      <trkpt lat="38.641998" lon="0.066415">
        <ele>7.6</ele>
        <time>2021-01-31T12:43:02Z</time>
      </trkpt>
      <trkpt lat="38.642085" lon="0.066462">
        <ele>7.4</ele>
        <time>2021-01-31T12:43:03Z</time>
      </trkpt>
      <trkpt lat="38.642193" lon="0.066623">
        <ele>7.2</ele>
        <time>2021-01-31T12:43:05Z</time>
      </trkpt>
      <trkpt lat="38.642207" lon="0.066673">
        <ele>7.2</ele>
        <time>2021-01-31T12:43:06Z</time>
      </trkpt>
      <trkpt lat="38.642301" lon="0.067001">
        <ele>6.9</ele>
        <time>2021-01-31T12:43:09Z</time>
      </trkpt>
      <trkpt lat="38.642524" lon="0.067782">
        <ele>6.2</ele>
        <time>2021-01-31T12:43:17Z</time>
      </trkpt>
      <trkpt lat="38.642553" lon="0.067879">
        <ele>6</ele>
        <time>2021-01-31T12:43:18Z</time>
      </trkpt>
      <trkpt lat="38.6426" lon="0.06804">
        <ele>6</ele>
        <time>2021-01-31T12:43:20Z</time>
      </trkpt>
      <trkpt lat="38.642632" lon="0.068148">
        <ele>5.8</ele>
        <time>2021-01-31T12:43:21Z</time>
      </trkpt>
      <trkpt lat="38.642686" lon="0.068332">
        <ele>5.6</ele>
        <time>2021-01-31T12:43:23Z</time>
      </trkpt>
      <trkpt lat="38.642729" lon="0.068575">
        <ele>5.5</ele>
        <time>2021-01-31T12:43:25Z</time>
      </trkpt>
      <trkpt lat="38.642802" lon="0.069349">
        <ele>5.3</ele>
        <time>2021-01-31T12:43:34Z</time>
      </trkpt>
      <trkpt lat="38.642814" lon="0.069483">
        <ele>5.4</ele>
        <time>2021-01-31T12:43:35Z</time>
      </trkpt>
      <trkpt lat="38.642826" lon="0.069551">
        <ele>5.4</ele>
        <time>2021-01-31T12:43:36Z</time>
      </trkpt>
      <trkpt lat="38.642849" lon="0.069684">
        <ele>5.7</ele>
        <time>2021-01-31T12:43:39Z</time>
      </trkpt>
      <trkpt lat="38.642843" lon="0.069896">
        <ele>6</ele>
        <time>2021-01-31T12:43:43Z</time>
      </trkpt>
      <trkpt lat="38.642811" lon="0.069955">
        <ele>6.1</ele>
        <time>2021-01-31T12:43:44Z</time>
      </trkpt>
      <trkpt lat="38.642795" lon="0.070096">
        <ele>6.6</ele>
        <time>2021-01-31T12:43:48Z</time>
      </trkpt>
      <trkpt lat="38.642813" lon="0.070165">
        <ele>6.7</ele>
        <time>2021-01-31T12:43:49Z</time>
      </trkpt>
      <trkpt lat="38.642845" lon="0.070221">
        <ele>6.8</ele>
        <time>2021-01-31T12:43:50Z</time>
      </trkpt>
      <trkpt lat="38.642889" lon="0.070262">
        <ele>6.9</ele>
        <time>2021-01-31T12:43:51Z</time>
      </trkpt>
      <trkpt lat="38.64294" lon="0.070285">
        <ele>7</ele>
        <time>2021-01-31T12:43:52Z</time>
      </trkpt>
      <trkpt lat="38.642984" lon="0.070289">
        <ele>7</ele>
        <time>2021-01-31T12:43:53Z</time>
      </trkpt>
      <trkpt lat="38.643027" lon="0.070279">
        <ele>7.3</ele>
        <time>2021-01-31T12:43:55Z</time>
      </trkpt>
      <trkpt lat="38.643191" lon="0.070388">
        <ele>7.8</ele>
        <time>2021-01-31T12:44:00Z</time>
      </trkpt>
      <trkpt lat="38.643411" lon="0.070585">
        <ele>8.5</ele>
        <time>2021-01-31T12:44:06Z</time>
      </trkpt>
      <trkpt lat="38.643426" lon="0.070598">
        <ele>8.5</ele>
        <time>2021-01-31T12:44:07Z</time>
      </trkpt>
      <trkpt lat="38.643483" lon="0.070638">
        <ele>8.6</ele>
        <time>2021-01-31T12:44:08Z</time>
      </trkpt>
      <trkpt lat="38.643615" lon="0.070722">
        <ele>8.7</ele>
        <time>2021-01-31T12:44:11Z</time>
      </trkpt>
      <trkpt lat="38.64368" lon="0.070754">
        <ele>9</ele>
        <time>2021-01-31T12:44:13Z</time>
      </trkpt>
      <trkpt lat="38.643908" lon="0.070843">
        <ele>9.2</ele>
        <time>2021-01-31T12:44:17Z</time>
      </trkpt>
      <trkpt lat="38.644531" lon="0.071027">
        <ele>10</ele>
        <time>2021-01-31T12:44:30Z</time>
      </trkpt>
      <trkpt lat="38.64457" lon="0.071036">
        <ele>10.1</ele>
        <time>2021-01-31T12:44:31Z</time>
      </trkpt>
      <trkpt lat="38.644632" lon="0.071054">
        <ele>10.2</ele>
        <time>2021-01-31T12:44:32Z</time>
      </trkpt>
      <trkpt lat="38.644659" lon="0.07106">
        <ele>10.1</ele>
        <time>2021-01-31T12:44:32Z</time>
      </trkpt>
      <trkpt lat="38.64479" lon="0.071095">
        <ele>10.5</ele>
        <time>2021-01-31T12:44:36Z</time>
      </trkpt>
      <trkpt lat="38.645059" lon="0.071173">
        <ele>10.7</ele>
        <time>2021-01-31T12:44:41Z</time>
      </trkpt>
      <trkpt lat="38.645208" lon="0.071212">
        <ele>10.5</ele>
        <time>2021-01-31T12:44:42Z</time>
      </trkpt>
      <trkpt lat="38.645488" lon="0.071287">
        <ele>10.2</ele>
        <time>2021-01-31T12:44:46Z</time>
      </trkpt>
      <trkpt lat="38.645531" lon="0.071299">
        <ele>9.9</ele>
        <time>2021-01-31T12:44:46Z</time>
      </trkpt>
      <trkpt lat="38.645725" lon="0.071351">
        <ele>9.5</ele>
        <time>2021-01-31T12:44:48Z</time>
      </trkpt>
      <trkpt lat="38.645912" lon="0.0714">
        <ele>8.8</ele>
        <time>2021-01-31T12:44:50Z</time>
      </trkpt>
      <trkpt lat="38.64602" lon="0.07143">
        <ele>8.5</ele>
        <time>2021-01-31T12:44:52Z</time>
      </trkpt>
      <trkpt lat="38.646337" lon="0.071515">
        <ele>7.2</ele>
        <time>2021-01-31T12:44:55Z</time>
      </trkpt>
      <trkpt lat="38.64655" lon="0.071572">
        <ele>6.5</ele>
        <time>2021-01-31T12:44:57Z</time>
      </trkpt>
      <trkpt lat="38.646801" lon="0.071639">
        <ele>5.7</ele>
        <time>2021-01-31T12:45:00Z</time>
      </trkpt>
      <trkpt lat="38.646919" lon="0.07167">
        <ele>5.4</ele>
        <time>2021-01-31T12:45:01Z</time>
      </trkpt>
      <trkpt lat="38.647157" lon="0.071733">
        <ele>4.8</ele>
        <time>2021-01-31T12:45:03Z</time>
      </trkpt>
      <trkpt lat="38.64739" lon="0.071797">
        <ele>4.5</ele>
        <time>2021-01-31T12:45:06Z</time>
      </trkpt>
      <trkpt lat="38.647892" lon="0.071934">
        <ele>3.6</ele>
        <time>2021-01-31T12:45:12Z</time>
      </trkpt>
      <trkpt lat="38.648094" lon="0.071987">
        <ele>3.3</ele>
        <time>2021-01-31T12:45:14Z</time>
      </trkpt>
      <trkpt lat="38.648109" lon="0.071991">
        <ele>3.3</ele>
        <time>2021-01-31T12:45:15Z</time>
      </trkpt>
      <trkpt lat="38.648153" lon="0.072003">
        <ele>3.3</ele>
        <time>2021-01-31T12:45:15Z</time>
      </trkpt>
      <trkpt lat="38.648403" lon="0.072069">
        <ele>3.1</ele>
        <time>2021-01-31T12:45:18Z</time>
      </trkpt>
      <trkpt lat="38.648801" lon="0.072173">
        <ele>3</ele>
        <time>2021-01-31T12:45:24Z</time>
      </trkpt>
      <trkpt lat="38.649069" lon="0.072242">
        <ele>3.1</ele>
        <time>2021-01-31T12:45:28Z</time>
      </trkpt>
      <trkpt lat="38.649259" lon="0.072343">
        <ele>3.1</ele>
        <time>2021-01-31T12:45:32Z</time>
      </trkpt>
      <trkpt lat="38.649283" lon="0.072422">
        <ele>3.1</ele>
        <time>2021-01-31T12:45:33Z</time>
      </trkpt>
      <trkpt lat="38.649441" lon="0.072555">
        <ele>3.2</ele>
        <time>2021-01-31T12:45:36Z</time>
      </trkpt>
      <trkpt lat="38.649568" lon="0.072522">
        <ele>3.2</ele>
        <time>2021-01-31T12:45:38Z</time>
      </trkpt>
      <trkpt lat="38.649619" lon="0.072469">
        <ele>3.3</ele>
        <time>2021-01-31T12:45:39Z</time>
      </trkpt>
      <trkpt lat="38.64972" lon="0.072414">
        <ele>3.3</ele>
        <time>2021-01-31T12:45:41Z</time>
      </trkpt>
      <trkpt lat="38.649956" lon="0.072473">
        <ele>3.5</ele>
        <time>2021-01-31T12:45:45Z</time>
      </trkpt>
      <trkpt lat="38.650495" lon="0.072612">
        <ele>4.2</ele>
        <time>2021-01-31T12:45:56Z</time>
      </trkpt>
      <trkpt lat="38.651125" lon="0.072778">
        <ele>5.2</ele>
        <time>2021-01-31T12:46:09Z</time>
      </trkpt>
      <trkpt lat="38.651373" lon="0.072847">
        <ele>5.7</ele>
        <time>2021-01-31T12:46:15Z</time>
      </trkpt>
      <trkpt lat="38.651479" lon="0.072877">
        <ele>6.1</ele>
        <time>2021-01-31T12:46:19Z</time>
      </trkpt>
      <trkpt lat="38.651618" lon="0.072914">
        <ele>6.5</ele>
        <time>2021-01-31T12:46:22Z</time>
      </trkpt>
      <trkpt lat="38.651634" lon="0.072924">
        <ele>6.6</ele>
        <time>2021-01-31T12:46:23Z</time>
      </trkpt>
      <trkpt lat="38.651668" lon="0.072943">
        <ele>6.7</ele>
        <time>2021-01-31T12:46:24Z</time>
      </trkpt>
      <trkpt lat="38.651694" lon="0.072946">
        <ele>6.8</ele>
        <time>2021-01-31T12:46:24Z</time>
      </trkpt>
      <trkpt lat="38.651721" lon="0.072941">
        <ele>6.9</ele>
        <time>2021-01-31T12:46:25Z</time>
      </trkpt>
      <trkpt lat="38.651746" lon="0.072928">
        <ele>7</ele>
        <time>2021-01-31T12:46:26Z</time>
      </trkpt>
      <trkpt lat="38.651839" lon="0.072969">
        <ele>7.4</ele>
        <time>2021-01-31T12:46:29Z</time>
      </trkpt>
      <trkpt lat="38.651971" lon="0.073033">
        <ele>7.9</ele>
        <time>2021-01-31T12:46:33Z</time>
      </trkpt>
      <trkpt lat="38.652306" lon="0.073352">
        <ele>9.8</ele>
        <time>2021-01-31T12:46:47Z</time>
      </trkpt>
      <trkpt lat="38.652364" lon="0.073423">
        <ele>10.3</ele>
        <time>2021-01-31T12:46:50Z</time>
      </trkpt>
      <trkpt lat="38.652452" lon="0.073532">
        <ele>11</ele>
        <time>2021-01-31T12:46:55Z</time>
      </trkpt>
      <trkpt lat="38.652696" lon="0.073832">
        <ele>13</ele>
        <time>2021-01-31T12:47:08Z</time>
      </trkpt>
      <trkpt lat="38.652786" lon="0.073949">
        <ele>13.7</ele>
        <time>2021-01-31T12:47:13Z</time>
      </trkpt>
      <trkpt lat="38.652861" lon="0.074059">
        <ele>14.4</ele>
        <time>2021-01-31T12:47:17Z</time>
      </trkpt>
      <trkpt lat="38.652944" lon="0.074193">
        <ele>15.3</ele>
        <time>2021-01-31T12:47:23Z</time>
      </trkpt>
      <trkpt lat="38.652966" lon="0.074236">
        <ele>15.5</ele>
        <time>2021-01-31T12:47:24Z</time>
      </trkpt>
      <trkpt lat="38.653008" lon="0.074311">
        <ele>15.9</ele>
        <time>2021-01-31T12:47:27Z</time>
      </trkpt>
      <trkpt lat="38.653102" lon="0.074475">
        <ele>16.9</ele>
        <time>2021-01-31T12:47:33Z</time>
      </trkpt>
      <trkpt lat="38.653298" lon="0.074824">
        <ele>18.8</ele>
        <time>2021-01-31T12:47:46Z</time>
      </trkpt>
      <trkpt lat="38.653419" lon="0.075036">
        <ele>20</ele>
        <time>2021-01-31T12:47:53Z</time>
      </trkpt>
      <trkpt lat="38.653565" lon="0.07531">
        <ele>21.3</ele>
        <time>2021-01-31T12:48:03Z</time>
      </trkpt>
      <trkpt lat="38.653615" lon="0.075392">
        <ele>21.7</ele>
        <time>2021-01-31T12:48:05Z</time>
      </trkpt>
      <trkpt lat="38.653721" lon="0.075587">
        <ele>22.6</ele>
        <time>2021-01-31T12:48:12Z</time>
      </trkpt>
      <trkpt lat="38.653761" lon="0.075659">
        <ele>22.9</ele>
        <time>2021-01-31T12:48:14Z</time>
      </trkpt>
      <trkpt lat="38.653849" lon="0.07582">
        <ele>23.6</ele>
        <time>2021-01-31T12:48:19Z</time>
      </trkpt>
      <trkpt lat="38.653917" lon="0.075951">
        <ele>24.1</ele>
        <time>2021-01-31T12:48:23Z</time>
      </trkpt>
      <trkpt lat="38.654074" lon="0.076254">
        <ele>25.5</ele>
        <time>2021-01-31T12:48:33Z</time>
      </trkpt>
      <trkpt lat="38.654079" lon="0.076264">
        <ele>25.5</ele>
        <time>2021-01-31T12:48:33Z</time>
      </trkpt>
      <trkpt lat="38.65414" lon="0.076378">
        <ele>26</ele>
        <time>2021-01-31T12:48:37Z</time>
      </trkpt>
      <trkpt lat="38.654157" lon="0.076411">
        <ele>26.2</ele>
        <time>2021-01-31T12:48:38Z</time>
      </trkpt>
      <trkpt lat="38.65425" lon="0.076585">
        <ele>27</ele>
        <time>2021-01-31T12:48:43Z</time>
      </trkpt>
      <trkpt lat="38.654261" lon="0.076606">
        <ele>27.1</ele>
        <time>2021-01-31T12:48:44Z</time>
      </trkpt>
      <trkpt lat="38.654341" lon="0.076756">
        <ele>27.7</ele>
        <time>2021-01-31T12:48:49Z</time>
      </trkpt>
      <trkpt lat="38.654436" lon="0.076912">
        <ele>28.3</ele>
        <time>2021-01-31T12:48:53Z</time>
      </trkpt>
      <trkpt lat="38.654493" lon="0.07699">
        <ele>28.6</ele>
        <time>2021-01-31T12:48:56Z</time>
      </trkpt>
      <trkpt lat="38.654549" lon="0.077066">
        <ele>29</ele>
        <time>2021-01-31T12:48:58Z</time>
      </trkpt>
      <trkpt lat="38.65462" lon="0.077151">
        <ele>29.3</ele>
        <time>2021-01-31T12:49:01Z</time>
      </trkpt>
      <trkpt lat="38.654679" lon="0.077209">
        <ele>29.5</ele>
        <time>2021-01-31T12:49:03Z</time>
      </trkpt>
      <trkpt lat="38.654705" lon="0.077232">
        <ele>29.6</ele>
        <time>2021-01-31T12:49:04Z</time>
      </trkpt>
      <trkpt lat="38.654729" lon="0.077251">
        <ele>29.7</ele>
        <time>2021-01-31T12:49:05Z</time>
      </trkpt>
      <trkpt lat="38.654904" lon="0.077333">
        <ele>30.3</ele>
        <time>2021-01-31T12:49:10Z</time>
      </trkpt>
      <trkpt lat="38.654935" lon="0.077345">
        <ele>30.4</ele>
        <time>2021-01-31T12:49:11Z</time>
      </trkpt>
      <trkpt lat="38.655114" lon="0.077414">
        <ele>31.1</ele>
        <time>2021-01-31T12:49:16Z</time>
      </trkpt>
      <trkpt lat="38.655121" lon="0.077417">
        <ele>31.1</ele>
        <time>2021-01-31T12:49:16Z</time>
      </trkpt>
      <trkpt lat="38.655177" lon="0.077439">
        <ele>31.4</ele>
        <time>2021-01-31T12:49:18Z</time>
      </trkpt>
      <trkpt lat="38.655459" lon="0.077524">
        <ele>32.3</ele>
        <time>2021-01-31T12:49:26Z</time>
      </trkpt>
      <trkpt lat="38.655674" lon="0.077589">
        <ele>33.1</ele>
        <time>2021-01-31T12:49:33Z</time>
      </trkpt>
      <trkpt lat="38.655757" lon="0.077615">
        <ele>33.4</ele>
        <time>2021-01-31T12:49:35Z</time>
      </trkpt>
      <trkpt lat="38.655872" lon="0.077641">
        <ele>33.9</ele>
        <time>2021-01-31T12:49:39Z</time>
      </trkpt>
      <trkpt lat="38.655978" lon="0.077655">
        <ele>34.1</ele>
        <time>2021-01-31T12:49:42Z</time>
      </trkpt>
      <trkpt lat="38.656058" lon="0.077656">
        <ele>34.4</ele>
        <time>2021-01-31T12:49:44Z</time>
      </trkpt>
      <trkpt lat="38.656139" lon="0.077643">
        <ele>34.6</ele>
        <time>2021-01-31T12:49:46Z</time>
      </trkpt>
      <trkpt lat="38.656203" lon="0.077616">
        <ele>34.8</ele>
        <time>2021-01-31T12:49:48Z</time>
      </trkpt>
      <trkpt lat="38.656443" lon="0.077472">
        <ele>35.3</ele>
        <time>2021-01-31T12:49:54Z</time>
      </trkpt>
      <trkpt lat="38.656659" lon="0.077342">
        <ele>35.8</ele>
        <time>2021-01-31T12:49:59Z</time>
      </trkpt>
      <trkpt lat="38.656718" lon="0.077306">
        <ele>35.8</ele>
        <time>2021-01-31T12:50:00Z</time>
      </trkpt>
      <trkpt lat="38.656838" lon="0.07726">
        <ele>35.9</ele>
        <time>2021-01-31T12:50:02Z</time>
      </trkpt>
      <trkpt lat="38.656906" lon="0.077256">
        <ele>35.9</ele>
        <time>2021-01-31T12:50:03Z</time>
      </trkpt>
      <trkpt lat="38.656939" lon="0.077257">
        <ele>35.9</ele>
        <time>2021-01-31T12:50:04Z</time>
      </trkpt>
      <trkpt lat="38.65717" lon="0.077356">
        <ele>35.9</ele>
        <time>2021-01-31T12:50:08Z</time>
      </trkpt>
      <trkpt lat="38.657214" lon="0.077382">
        <ele>35.9</ele>
        <time>2021-01-31T12:50:08Z</time>
      </trkpt>
      <trkpt lat="38.657271" lon="0.077417">
        <ele>35.9</ele>
        <time>2021-01-31T12:50:09Z</time>
      </trkpt>
      <trkpt lat="38.657591" lon="0.077639">
        <ele>35.7</ele>
        <time>2021-01-31T12:50:14Z</time>
      </trkpt>
      <trkpt lat="38.657656" lon="0.077699">
        <ele>35.7</ele>
        <time>2021-01-31T12:50:15Z</time>
      </trkpt>
      <trkpt lat="38.657705" lon="0.07776">
        <ele>35.6</ele>
        <time>2021-01-31T12:50:16Z</time>
      </trkpt>
      <trkpt lat="38.657967" lon="0.078233">
        <ele>35.3</ele>
        <time>2021-01-31T12:50:22Z</time>
      </trkpt>
      <trkpt lat="38.658009" lon="0.078293">
        <ele>35.2</ele>
        <time>2021-01-31T12:50:22Z</time>
      </trkpt>
      <trkpt lat="38.658046" lon="0.078342">
        <ele>35.1</ele>
        <time>2021-01-31T12:50:23Z</time>
      </trkpt>
      <trkpt lat="38.658452" lon="0.078679">
        <ele>34.2</ele>
        <time>2021-01-31T12:50:28Z</time>
      </trkpt>
      <trkpt lat="38.658604" lon="0.078875">
        <ele>33.7</ele>
        <time>2021-01-31T12:50:31Z</time>
      </trkpt>
      <trkpt lat="38.658705" lon="0.079132">
        <ele>33.1</ele>
        <time>2021-01-31T12:50:33Z</time>
      </trkpt>
      <trkpt lat="38.658872" lon="0.079983">
        <ele>31.8</ele>
        <time>2021-01-31T12:50:41Z</time>
      </trkpt>
      <trkpt lat="38.65906" lon="0.080357">
        <ele>31.1</ele>
        <time>2021-01-31T12:50:44Z</time>
      </trkpt>
      <trkpt lat="38.659118" lon="0.080426">
        <ele>30.7</ele>
        <time>2021-01-31T12:50:45Z</time>
      </trkpt>
      <trkpt lat="38.659382" lon="0.080731">
        <ele>30.3</ele>
        <time>2021-01-31T12:50:49Z</time>
      </trkpt>
      <trkpt lat="38.659772" lon="0.081197">
        <ele>30.1</ele>
        <time>2021-01-31T12:50:57Z</time>
      </trkpt>
      <trkpt lat="38.659918" lon="0.081475">
        <ele>30.1</ele>
        <time>2021-01-31T12:51:01Z</time>
      </trkpt>
      <trkpt lat="38.660045" lon="0.081785">
        <ele>30.5</ele>
        <time>2021-01-31T12:51:06Z</time>
      </trkpt>
      <trkpt lat="38.660075" lon="0.081868">
        <ele>30.6</ele>
        <time>2021-01-31T12:51:08Z</time>
      </trkpt>
      <trkpt lat="38.660316" lon="0.082172">
        <ele>31.6</ele>
        <time>2021-01-31T12:51:19Z</time>
      </trkpt>
      <trkpt lat="38.660465" lon="0.082315">
        <ele>32.5</ele>
        <time>2021-01-31T12:51:26Z</time>
      </trkpt>
      <trkpt lat="38.660792" lon="0.082465">
        <ele>34.1</ele>
        <time>2021-01-31T12:51:39Z</time>
      </trkpt>
      <trkpt lat="38.661146" lon="0.08283">
        <ele>36.7</ele>
        <time>2021-01-31T12:51:59Z</time>
      </trkpt>
      <trkpt lat="38.66137" lon="0.083066">
        <ele>38.3</ele>
        <time>2021-01-31T12:52:11Z</time>
      </trkpt>
      <trkpt lat="38.661513" lon="0.083196">
        <ele>39.3</ele>
        <time>2021-01-31T12:52:19Z</time>
      </trkpt>
      <trkpt lat="38.661605" lon="0.08328">
        <ele>39.9</ele>
        <time>2021-01-31T12:52:24Z</time>
      </trkpt>
      <trkpt lat="38.662032" lon="0.084042">
        <ele>42.9</ele>
        <time>2021-01-31T12:52:50Z</time>
      </trkpt>
      <trkpt lat="38.662108" lon="0.084168">
        <ele>43.2</ele>
        <time>2021-01-31T12:52:54Z</time>
      </trkpt>
      <trkpt lat="38.662238" lon="0.084265">
        <ele>43.2</ele>
        <time>2021-01-31T12:52:57Z</time>
      </trkpt>
      <trkpt lat="38.662312" lon="0.084214">
        <ele>43.2</ele>
        <time>2021-01-31T12:52:59Z</time>
      </trkpt>
      <trkpt lat="38.662606" lon="0.084815">
        <ele>42</ele>
        <time>2021-01-31T12:53:07Z</time>
      </trkpt>
      <trkpt lat="38.662928" lon="0.08515">
        <ele>39.6</ele>
        <time>2021-01-31T12:53:13Z</time>
      </trkpt>
      <trkpt lat="38.66339" lon="0.08554">
        <ele>35.5</ele>
        <time>2021-01-31T12:53:20Z</time>
      </trkpt>
      <trkpt lat="38.663515" lon="0.085673">
        <ele>34.1</ele>
        <time>2021-01-31T12:53:22Z</time>
      </trkpt>
      <trkpt lat="38.663791" lon="0.08593">
        <ele>31.2</ele>
        <time>2021-01-31T12:53:26Z</time>
      </trkpt>
      <trkpt lat="38.663921" lon="0.085993">
        <ele>29.9</ele>
        <time>2021-01-31T12:53:28Z</time>
      </trkpt>
      <trkpt lat="38.664139" lon="0.086161">
        <ele>27.4</ele>
        <time>2021-01-31T12:53:51Z</time>
      </trkpt>
      <trkpt lat="38.664308" lon="0.086241">
        <ele>25.8</ele>
        <time>2021-01-31T12:54:07Z</time>
      </trkpt>
      <trkpt lat="38.664428" lon="0.086149">
        <ele>24.3</ele>
        <time>2021-01-31T12:54:19Z</time>
      </trkpt>
      <trkpt lat="38.664599" lon="0.085951">
        <ele>22.5</ele>
        <time>2021-01-31T12:54:40Z</time>
      </trkpt>
      <trkpt lat="38.664598" lon="0.085855">
        <ele>21.6</ele>
        <time>2021-01-31T12:54:41Z</time>
      </trkpt>
      <trkpt lat="38.664625" lon="0.085627">
        <ele>20.3</ele>
        <time>2021-01-31T12:54:43Z</time>
      </trkpt>
      <trkpt lat="38.664741" lon="0.085505">
        <ele>19.3</ele>
        <time>2021-01-31T12:54:45Z</time>
      </trkpt>
      <trkpt lat="38.664908" lon="0.085501">
        <ele>18.2</ele>
        <time>2021-01-31T12:54:47Z</time>
      </trkpt>
      <trkpt lat="38.665061" lon="0.085629">
        <ele>17.1</ele>
        <time>2021-01-31T12:54:50Z</time>
      </trkpt>
      <trkpt lat="38.665065" lon="0.085637">
        <ele>16.9</ele>
        <time>2021-01-31T12:54:50Z</time>
      </trkpt>
      <trkpt lat="38.665089" lon="0.085682">
        <ele>16.6</ele>
        <time>2021-01-31T12:54:50Z</time>
      </trkpt>
      <trkpt lat="38.665209" lon="0.085903">
        <ele>15.7</ele>
        <time>2021-01-31T12:54:53Z</time>
      </trkpt>
      <trkpt lat="38.665281" lon="0.085951">
        <ele>15.3</ele>
        <time>2021-01-31T12:54:54Z</time>
      </trkpt>
      <trkpt lat="38.665246" lon="0.086057">
        <ele>14.7</ele>
        <time>2021-01-31T12:54:55Z</time>
      </trkpt>
      <trkpt lat="38.665229" lon="0.086237">
        <ele>14.2</ele>
        <time>2021-01-31T12:54:57Z</time>
      </trkpt>
      <trkpt lat="38.665281" lon="0.086517">
        <ele>13.2</ele>
        <time>2021-01-31T12:54:59Z</time>
      </trkpt>
      <trkpt lat="38.6653" lon="0.08663">
        <ele>13</ele>
        <time>2021-01-31T12:55:00Z</time>
      </trkpt>
      <trkpt lat="38.665309" lon="0.086708">
        <ele>12.8</ele>
        <time>2021-01-31T12:55:00Z</time>
      </trkpt>
      <trkpt lat="38.665318" lon="0.087103">
        <ele>11.9</ele>
        <time>2021-01-31T12:55:03Z</time>
      </trkpt>
      <trkpt lat="38.665384" lon="0.087377">
        <ele>11.1</ele>
        <time>2021-01-31T12:55:06Z</time>
      </trkpt>
      <trkpt lat="38.66541" lon="0.087467">
        <ele>11.1</ele>
        <time>2021-01-31T12:55:07Z</time>
      </trkpt>
      <trkpt lat="38.66543" lon="0.087567">
        <ele>11.1</ele>
        <time>2021-01-31T12:55:08Z</time>
      </trkpt>
      <trkpt lat="38.665481" lon="0.088013">
        <ele>10.8</ele>
        <time>2021-01-31T12:55:12Z</time>
      </trkpt>
      <trkpt lat="38.665688" lon="0.088898">
        <ele>11.3</ele>
        <time>2021-01-31T12:55:25Z</time>
      </trkpt>
      <trkpt lat="38.665719" lon="0.08897">
        <ele>11.5</ele>
        <time>2021-01-31T12:55:27Z</time>
      </trkpt>
      <trkpt lat="38.665775" lon="0.089064">
        <ele>12</ele>
        <time>2021-01-31T12:55:30Z</time>
      </trkpt>
      <trkpt lat="38.665826" lon="0.089138">
        <ele>12.1</ele>
        <time>2021-01-31T12:55:32Z</time>
      </trkpt>
      <trkpt lat="38.665901" lon="0.089227">
        <ele>12.5</ele>
        <time>2021-01-31T12:55:35Z</time>
      </trkpt>
      <trkpt lat="38.666395" lon="0.089567">
        <ele>15.2</ele>
        <time>2021-01-31T12:55:54Z</time>
      </trkpt>
      <trkpt lat="38.66686" lon="0.089733">
        <ele>17.7</ele>
        <time>2021-01-31T12:56:11Z</time>
      </trkpt>
      <trkpt lat="38.666979" lon="0.08972">
        <ele>18.5</ele>
        <time>2021-01-31T12:56:16Z</time>
      </trkpt>
      <trkpt lat="38.667063" lon="0.089684">
        <ele>19.2</ele>
        <time>2021-01-31T12:56:20Z</time>
      </trkpt>
      <trkpt lat="38.667298" lon="0.089499">
        <ele>20.9</ele>
        <time>2021-01-31T12:56:31Z</time>
      </trkpt>
      <trkpt lat="38.667462" lon="0.089451">
        <ele>22</ele>
        <time>2021-01-31T12:56:38Z</time>
      </trkpt>
      <trkpt lat="38.667626" lon="0.089472">
        <ele>22.9</ele>
        <time>2021-01-31T12:56:44Z</time>
      </trkpt>
      <trkpt lat="38.667867" lon="0.08961">
        <ele>24.6</ele>
        <time>2021-01-31T12:56:55Z</time>
      </trkpt>
      <trkpt lat="38.668057" lon="0.089605">
        <ele>26.2</ele>
        <time>2021-01-31T12:57:04Z</time>
      </trkpt>
      <trkpt lat="38.668663" lon="0.089005">
        <ele>30.9</ele>
        <time>2021-01-31T12:57:34Z</time>
      </trkpt>
      <trkpt lat="38.6689" lon="0.089028">
        <ele>32.1</ele>
        <time>2021-01-31T12:57:42Z</time>
      </trkpt>
      <trkpt lat="38.669031" lon="0.089143">
        <ele>32.7</ele>
        <time>2021-01-31T12:57:47Z</time>
      </trkpt>
      <trkpt lat="38.669136" lon="0.089262">
        <ele>33.4</ele>
        <time>2021-01-31T12:57:52Z</time>
      </trkpt>
      <trkpt lat="38.669342" lon="0.089504">
        <ele>34.6</ele>
        <time>2021-01-31T12:58:01Z</time>
      </trkpt>
      <trkpt lat="38.66942" lon="0.089715">
        <ele>35.3</ele>
        <time>2021-01-31T12:58:06Z</time>
      </trkpt>
      <trkpt lat="38.669432" lon="0.089955">
        <ele>36</ele>
        <time>2021-01-31T12:58:12Z</time>
      </trkpt>
      <trkpt lat="38.668848" lon="0.091147">
        <ele>38.9</ele>
        <time>2021-01-31T12:58:40Z</time>
      </trkpt>
      <trkpt lat="38.668775" lon="0.091494">
        <ele>39.4</ele>
        <time>2021-01-31T12:58:46Z</time>
      </trkpt>
      <trkpt lat="38.66878" lon="0.091644">
        <ele>39.7</ele>
        <time>2021-01-31T12:58:49Z</time>
      </trkpt>
      <trkpt lat="38.668864" lon="0.091832">
        <ele>40</ele>
        <time>2021-01-31T12:58:53Z</time>
      </trkpt>
      <trkpt lat="38.668954" lon="0.091936">
        <ele>40.3</ele>
        <time>2021-01-31T12:58:56Z</time>
      </trkpt>
      <trkpt lat="38.669109" lon="0.092043">
        <ele>40.5</ele>
        <time>2021-01-31T12:58:59Z</time>
      </trkpt>
      <trkpt lat="38.669271" lon="0.092099">
        <ele>41</ele>
        <time>2021-01-31T12:59:04Z</time>
      </trkpt>
      <trkpt lat="38.67087" lon="0.092008">
        <ele>45.2</ele>
        <time>2021-01-31T12:59:44Z</time>
      </trkpt>
      <trkpt lat="38.671127" lon="0.091935">
        <ele>46</ele>
        <time>2021-01-31T12:59:51Z</time>
      </trkpt>
      <trkpt lat="38.671453" lon="0.091385">
        <ele>47.5</ele>
        <time>2021-01-31T13:00:06Z</time>
      </trkpt>
      <trkpt lat="38.671792" lon="0.091233">
        <ele>48.4</ele>
        <time>2021-01-31T13:00:14Z</time>
      </trkpt>
      <trkpt lat="38.672029" lon="0.090997">
        <ele>48.9</ele>
        <time>2021-01-31T13:00:21Z</time>
      </trkpt>
      <trkpt lat="38.672491" lon="0.090238">
        <ele>49.9</ele>
        <time>2021-01-31T13:00:36Z</time>
      </trkpt>
      <trkpt lat="38.673267" lon="0.08807">
        <ele>49.9</ele>
        <time>2021-01-31T13:01:04Z</time>
      </trkpt>
      <trkpt lat="38.673389" lon="0.088004">
        <ele>49.8</ele>
        <time>2021-01-31T13:01:05Z</time>
      </trkpt>
      <trkpt lat="38.673541" lon="0.088005">
        <ele>49.8</ele>
        <time>2021-01-31T13:01:08Z</time>
      </trkpt>
      <trkpt lat="38.673573" lon="0.088006">
        <ele>49.8</ele>
        <time>2021-01-31T13:01:08Z</time>
      </trkpt>
      <trkpt lat="38.673744" lon="0.088109">
        <ele>49.8</ele>
        <time>2021-01-31T13:01:11Z</time>
      </trkpt>
      <trkpt lat="38.673885" lon="0.088659">
        <ele>50.2</ele>
        <time>2021-01-31T13:01:19Z</time>
      </trkpt>
      <trkpt lat="38.674031" lon="0.088812">
        <ele>50.5</ele>
        <time>2021-01-31T13:01:23Z</time>
      </trkpt>
      <trkpt lat="38.674462" lon="0.088761">
        <ele>50.9</ele>
        <time>2021-01-31T13:01:31Z</time>
      </trkpt>
      <trkpt lat="38.674805" lon="0.088476">
        <ele>51.1</ele>
        <time>2021-01-31T13:01:38Z</time>
      </trkpt>
      <trkpt lat="38.674948" lon="0.088529">
        <ele>51.1</ele>
        <time>2021-01-31T13:01:40Z</time>
      </trkpt>
      <trkpt lat="38.675008" lon="0.08868">
        <ele>51.5</ele>
        <time>2021-01-31T13:01:44Z</time>
      </trkpt>
      <trkpt lat="38.674946" lon="0.088996">
        <ele>51.4</ele>
        <time>2021-01-31T13:01:47Z</time>
      </trkpt>
      <trkpt lat="38.674848" lon="0.089782">
        <ele>51.9</ele>
        <time>2021-01-31T13:01:58Z</time>
      </trkpt>
      <trkpt lat="38.674769" lon="0.090035">
        <ele>52.3</ele>
        <time>2021-01-31T13:02:03Z</time>
      </trkpt>
      <trkpt lat="38.674511" lon="0.090417">
        <ele>52.4</ele>
        <time>2021-01-31T13:02:09Z</time>
      </trkpt>
      <trkpt lat="38.674399" lon="0.090759">
        <ele>52.5</ele>
        <time>2021-01-31T13:02:14Z</time>
      </trkpt>
      <trkpt lat="38.674471" lon="0.090977">
        <ele>52.6</ele>
        <time>2021-01-31T13:02:17Z</time>
      </trkpt>
      <trkpt lat="38.674723" lon="0.091193">
        <ele>53</ele>
        <time>2021-01-31T13:02:23Z</time>
      </trkpt>
      <trkpt lat="38.674794" lon="0.091336">
        <ele>53.2</ele>
        <time>2021-01-31T13:02:26Z</time>
      </trkpt>
      <trkpt lat="38.674847" lon="0.091733">
        <ele>53.6</ele>
        <time>2021-01-31T13:02:32Z</time>
      </trkpt>
      <trkpt lat="38.674796" lon="0.09207">
        <ele>54</ele>
        <time>2021-01-31T13:02:38Z</time>
      </trkpt>
      <trkpt lat="38.674721" lon="0.09232">
        <ele>54.3</ele>
        <time>2021-01-31T13:02:42Z</time>
      </trkpt>
      <trkpt lat="38.674685" lon="0.092463">
        <ele>54.3</ele>
        <time>2021-01-31T13:02:44Z</time>
      </trkpt>
      <trkpt lat="38.67464" lon="0.092936">
        <ele>54.2</ele>
        <time>2021-01-31T13:02:49Z</time>
      </trkpt>
      <trkpt lat="38.674412" lon="0.093427">
        <ele>53.9</ele>
        <time>2021-01-31T13:02:55Z</time>
      </trkpt>
      <trkpt lat="38.674355" lon="0.093683">
        <ele>53.9</ele>
        <time>2021-01-31T13:02:58Z</time>
      </trkpt>
      <trkpt lat="38.674329" lon="0.09387">
        <ele>53.5</ele>
        <time>2021-01-31T13:03:00Z</time>
      </trkpt>
      <trkpt lat="38.674248" lon="0.094132">
        <ele>53.4</ele>
        <time>2021-01-31T13:03:03Z</time>
      </trkpt>
      <trkpt lat="38.674207" lon="0.094217">
        <ele>53</ele>
        <time>2021-01-31T13:03:03Z</time>
      </trkpt>
      <trkpt lat="38.674101" lon="0.094307">
        <ele>52.7</ele>
        <time>2021-01-31T13:03:05Z</time>
      </trkpt>
      <trkpt lat="38.672586" lon="0.094973">
        <ele>44.5</ele>
        <time>2021-01-31T13:03:20Z</time>
      </trkpt>
      <trkpt lat="38.67246" lon="0.095056">
        <ele>43.7</ele>
        <time>2021-01-31T13:03:21Z</time>
      </trkpt>
      <trkpt lat="38.672403" lon="0.095118">
        <ele>43.3</ele>
        <time>2021-01-31T13:03:22Z</time>
      </trkpt>
      <trkpt lat="38.672307" lon="0.095284">
        <ele>42.6</ele>
        <time>2021-01-31T13:03:23Z</time>
      </trkpt>
      <trkpt lat="38.672288" lon="0.095481">
        <ele>41.7</ele>
        <time>2021-01-31T13:03:25Z</time>
      </trkpt>
      <trkpt lat="38.672351" lon="0.095715">
        <ele>40.9</ele>
        <time>2021-01-31T13:03:27Z</time>
      </trkpt>
      <trkpt lat="38.672479" lon="0.095907">
        <ele>39.7</ele>
        <time>2021-01-31T13:03:28Z</time>
      </trkpt>
      <trkpt lat="38.672647" lon="0.096004">
        <ele>38.9</ele>
        <time>2021-01-31T13:03:30Z</time>
      </trkpt>
      <trkpt lat="38.673038" lon="0.096042">
        <ele>37.1</ele>
        <time>2021-01-31T13:03:34Z</time>
      </trkpt>
      <trkpt lat="38.673424" lon="0.096551">
        <ele>35</ele>
        <time>2021-01-31T13:03:39Z</time>
      </trkpt>
      <trkpt lat="38.673701" lon="0.096612">
        <ele>34.5</ele>
        <time>2021-01-31T13:03:43Z</time>
      </trkpt>
      <trkpt lat="38.673777" lon="0.096604">
        <ele>34.1</ele>
        <time>2021-01-31T13:03:43Z</time>
      </trkpt>
      <trkpt lat="38.673811" lon="0.096599">
        <ele>34.1</ele>
        <time>2021-01-31T13:03:44Z</time>
      </trkpt>
      <trkpt lat="38.674147" lon="0.09648">
        <ele>33.4</ele>
        <time>2021-01-31T13:03:47Z</time>
      </trkpt>
      <trkpt lat="38.674513" lon="0.096564">
        <ele>32.7</ele>
        <time>2021-01-31T13:03:52Z</time>
      </trkpt>
      <trkpt lat="38.674862" lon="0.096471">
        <ele>32.2</ele>
        <time>2021-01-31T13:03:56Z</time>
      </trkpt>
      <trkpt lat="38.675024" lon="0.096361">
        <ele>32.1</ele>
        <time>2021-01-31T13:03:58Z</time>
      </trkpt>
      <trkpt lat="38.675259" lon="0.095998">
        <ele>31.9</ele>
        <time>2021-01-31T13:04:03Z</time>
      </trkpt>
      <trkpt lat="38.675478" lon="0.095893">
        <ele>31.9</ele>
        <time>2021-01-31T13:04:06Z</time>
      </trkpt>
      <trkpt lat="38.675658" lon="0.095901">
        <ele>32</ele>
        <time>2021-01-31T13:04:10Z</time>
      </trkpt>
      <trkpt lat="38.675833" lon="0.095998">
        <ele>32.1</ele>
        <time>2021-01-31T13:04:13Z</time>
      </trkpt>
      <trkpt lat="38.675927" lon="0.096156">
        <ele>32.3</ele>
        <time>2021-01-31T13:04:16Z</time>
      </trkpt>
      <trkpt lat="38.675966" lon="0.096373">
        <ele>32.5</ele>
        <time>2021-01-31T13:04:19Z</time>
      </trkpt>
      <trkpt lat="38.675961" lon="0.096409">
        <ele>32.4</ele>
        <time>2021-01-31T13:04:20Z</time>
      </trkpt>
      <trkpt lat="38.675951" lon="0.096462">
        <ele>32.6</ele>
        <time>2021-01-31T13:04:21Z</time>
      </trkpt>
      <trkpt lat="38.675665" lon="0.098155">
        <ele>35.4</ele>
        <time>2021-01-31T13:04:52Z</time>
      </trkpt>
      <trkpt lat="38.675596" lon="0.098335">
        <ele>34.7</ele>
        <time>2021-01-31T13:04:54Z</time>
      </trkpt>
      <trkpt lat="38.675496" lon="0.098499">
        <ele>35</ele>
        <time>2021-01-31T13:04:57Z</time>
      </trkpt>
      <trkpt lat="38.675417" lon="0.09859">
        <ele>34.2</ele>
        <time>2021-01-31T13:04:58Z</time>
      </trkpt>
      <trkpt lat="38.675162" lon="0.098757">
        <ele>34.1</ele>
        <time>2021-01-31T13:05:02Z</time>
      </trkpt>
      <trkpt lat="38.674785" lon="0.098755">
        <ele>32.7</ele>
        <time>2021-01-31T13:05:06Z</time>
      </trkpt>
      <trkpt lat="38.674561" lon="0.098833">
        <ele>31.6</ele>
        <time>2021-01-31T13:05:08Z</time>
      </trkpt>
      <trkpt lat="38.674455" lon="0.0989">
        <ele>30.6</ele>
        <time>2021-01-31T13:05:09Z</time>
      </trkpt>
      <trkpt lat="38.67439" lon="0.09895">
        <ele>29.4</ele>
        <time>2021-01-31T13:05:10Z</time>
      </trkpt>
      <trkpt lat="38.673662" lon="0.099845">
        <ele>22.3</ele>
        <time>2021-01-31T13:05:19Z</time>
      </trkpt>
      <trkpt lat="38.673567" lon="0.100173">
        <ele>20.7</ele>
        <time>2021-01-31T13:05:21Z</time>
      </trkpt>
      <trkpt lat="38.673591" lon="0.100291">
        <ele>19.6</ele>
        <time>2021-01-31T13:05:22Z</time>
      </trkpt>
      <trkpt lat="38.67362" lon="0.100365">
        <ele>18.9</ele>
        <time>2021-01-31T13:05:23Z</time>
      </trkpt>
      <trkpt lat="38.673766" lon="0.100585">
        <ele>18.1</ele>
        <time>2021-01-31T13:05:25Z</time>
      </trkpt>
      <trkpt lat="38.673992" lon="0.100796">
        <ele>17.1</ele>
        <time>2021-01-31T13:05:28Z</time>
      </trkpt>
      <trkpt lat="38.674706" lon="0.101136">
        <ele>15.4</ele>
        <time>2021-01-31T13:05:36Z</time>
      </trkpt>
      <trkpt lat="38.674804" lon="0.101198">
        <ele>15</ele>
        <time>2021-01-31T13:05:37Z</time>
      </trkpt>
      <trkpt lat="38.674867" lon="0.101254">
        <ele>15</ele>
        <time>2021-01-31T13:05:39Z</time>
      </trkpt>
      <trkpt lat="38.674922" lon="0.101322">
        <ele>15.2</ele>
        <time>2021-01-31T13:05:40Z</time>
      </trkpt>
      <trkpt lat="38.674975" lon="0.101419">
        <ele>15.2</ele>
        <time>2021-01-31T13:05:42Z</time>
      </trkpt>
      <trkpt lat="38.675011" lon="0.101558">
        <ele>15.4</ele>
        <time>2021-01-31T13:05:44Z</time>
      </trkpt>
      <trkpt lat="38.675052" lon="0.101734">
        <ele>15.7</ele>
        <time>2021-01-31T13:05:48Z</time>
      </trkpt>
      <trkpt lat="38.675076" lon="0.101805">
        <ele>15.7</ele>
        <time>2021-01-31T13:05:48Z</time>
      </trkpt>
      <trkpt lat="38.675144" lon="0.101952">
        <ele>15.9</ele>
        <time>2021-01-31T13:05:51Z</time>
      </trkpt>
      <trkpt lat="38.675188" lon="0.102015">
        <ele>16</ele>
        <time>2021-01-31T13:05:53Z</time>
      </trkpt>
      <trkpt lat="38.67524" lon="0.102075">
        <ele>16.2</ele>
        <time>2021-01-31T13:05:54Z</time>
      </trkpt>
      <trkpt lat="38.675608" lon="0.102318">
        <ele>16.9</ele>
        <time>2021-01-31T13:06:03Z</time>
      </trkpt>
      <trkpt lat="38.676059" lon="0.102431">
        <ele>17.5</ele>
        <time>2021-01-31T13:06:13Z</time>
      </trkpt>
      <trkpt lat="38.676368" lon="0.102348">
        <ele>18</ele>
        <time>2021-01-31T13:06:19Z</time>
      </trkpt>
      <trkpt lat="38.676752" lon="0.101999">
        <ele>18.7</ele>
        <time>2021-01-31T13:06:29Z</time>
      </trkpt>
      <trkpt lat="38.676793" lon="0.101984">
        <ele>18.9</ele>
        <time>2021-01-31T13:06:30Z</time>
      </trkpt>
      <trkpt lat="38.676833" lon="0.101985">
        <ele>19</ele>
        <time>2021-01-31T13:06:31Z</time>
      </trkpt>
      <trkpt lat="38.676926" lon="0.102036">
        <ele>19.1</ele>
        <time>2021-01-31T13:06:33Z</time>
      </trkpt>
      <trkpt lat="38.677028" lon="0.10223">
        <ele>19.3</ele>
        <time>2021-01-31T13:06:37Z</time>
      </trkpt>
      <trkpt lat="38.677024" lon="0.102282">
        <ele>19.4</ele>
        <time>2021-01-31T13:06:38Z</time>
      </trkpt>
      <trkpt lat="38.677012" lon="0.102329">
        <ele>19.5</ele>
        <time>2021-01-31T13:06:39Z</time>
      </trkpt>
      <trkpt lat="38.676815" lon="0.10267">
        <ele>19.9</ele>
        <time>2021-01-31T13:06:45Z</time>
      </trkpt>
      <trkpt lat="38.676687" lon="0.103276">
        <ele>20.5</ele>
        <time>2021-01-31T13:06:55Z</time>
      </trkpt>
      <trkpt lat="38.676555" lon="0.103552">
        <ele>20.8</ele>
        <time>2021-01-31T13:07:00Z</time>
      </trkpt>
      <trkpt lat="38.675808" lon="0.103972">
        <ele>22.7</ele>
        <time>2021-01-31T13:07:20Z</time>
      </trkpt>
      <trkpt lat="38.675142" lon="0.104238">
        <ele>25.5</ele>
        <time>2021-01-31T13:07:41Z</time>
      </trkpt>
      <trkpt lat="38.675098" lon="0.104274">
        <ele>25.4</ele>
        <time>2021-01-31T13:07:42Z</time>
      </trkpt>
      <trkpt lat="38.675058" lon="0.104322">
        <ele>25.9</ele>
        <time>2021-01-31T13:07:44Z</time>
      </trkpt>
      <trkpt lat="38.675034" lon="0.104561">
        <ele>27.2</ele>
        <time>2021-01-31T13:07:53Z</time>
      </trkpt>
      <trkpt lat="38.67515" lon="0.104778">
        <ele>28.2</ele>
        <time>2021-01-31T13:08:00Z</time>
      </trkpt>
      <trkpt lat="38.675193" lon="0.104817">
        <ele>28.8</ele>
        <time>2021-01-31T13:08:03Z</time>
      </trkpt>
      <trkpt lat="38.675242" lon="0.104833">
        <ele>29.4</ele>
        <time>2021-01-31T13:08:06Z</time>
      </trkpt>
      <trkpt lat="38.675587" lon="0.104809">
        <ele>31.7</ele>
        <time>2021-01-31T13:08:21Z</time>
      </trkpt>
      <trkpt lat="38.676152" lon="0.104571">
        <ele>37.1</ele>
        <time>2021-01-31T13:08:51Z</time>
      </trkpt>
      <trkpt lat="38.676319" lon="0.104503">
        <ele>39.4</ele>
        <time>2021-01-31T13:09:03Z</time>
      </trkpt>
      <trkpt lat="38.676534" lon="0.104396">
        <ele>41.3</ele>
        <time>2021-01-31T13:09:14Z</time>
      </trkpt>
      <trkpt lat="38.676774" lon="0.10439">
        <ele>44.1</ele>
        <time>2021-01-31T13:09:28Z</time>
      </trkpt>
      <trkpt lat="38.67692" lon="0.104537">
        <ele>45.5</ele>
        <time>2021-01-31T13:09:37Z</time>
      </trkpt>
      <trkpt lat="38.677099" lon="0.104841">
        <ele>48.2</ele>
        <time>2021-01-31T13:09:52Z</time>
      </trkpt>
      <trkpt lat="38.677136" lon="0.104912">
        <ele>48.6</ele>
        <time>2021-01-31T13:09:55Z</time>
      </trkpt>
      <trkpt lat="38.677166" lon="0.104979">
        <ele>49.3</ele>
        <time>2021-01-31T13:09:58Z</time>
      </trkpt>
      <trkpt lat="38.677269" lon="0.105247">
        <ele>51.1</ele>
        <time>2021-01-31T13:10:09Z</time>
      </trkpt>
      <trkpt lat="38.677321" lon="0.105403">
        <ele>52.3</ele>
        <time>2021-01-31T13:10:16Z</time>
      </trkpt>
      <trkpt lat="38.677417" lon="0.105705">
        <ele>54.1</ele>
        <time>2021-01-31T13:10:27Z</time>
      </trkpt>
      <trkpt lat="38.677625" lon="0.106334">
        <ele>56.7</ele>
        <time>2021-01-31T13:10:45Z</time>
      </trkpt>
      <trkpt lat="38.677744" lon="0.106694">
        <ele>57.5</ele>
        <time>2021-01-31T13:10:53Z</time>
      </trkpt>
      <trkpt lat="38.677839" lon="0.10694">
        <ele>57.4</ele>
        <time>2021-01-31T13:10:56Z</time>
      </trkpt>
      <trkpt lat="38.677872" lon="0.107018">
        <ele>57.4</ele>
        <time>2021-01-31T13:10:57Z</time>
      </trkpt>
      <trkpt lat="38.67788" lon="0.107095">
        <ele>57.4</ele>
        <time>2021-01-31T13:10:58Z</time>
      </trkpt>
      <trkpt lat="38.677867" lon="0.107115">
        <ele>57.3</ele>
        <time>2021-01-31T13:10:58Z</time>
      </trkpt>
      <trkpt lat="38.677854" lon="0.107324">
        <ele>57.1</ele>
        <time>2021-01-31T13:11:00Z</time>
      </trkpt>
      <trkpt lat="38.677888" lon="0.107395">
        <ele>57</ele>
        <time>2021-01-31T13:11:00Z</time>
      </trkpt>
      <trkpt lat="38.677929" lon="0.107435">
        <ele>56.8</ele>
        <time>2021-01-31T13:11:01Z</time>
      </trkpt>
      <trkpt lat="38.677946" lon="0.107448">
        <ele>56.8</ele>
        <time>2021-01-31T13:11:01Z</time>
      </trkpt>
      <trkpt lat="38.677961" lon="0.107451">
        <ele>56.7</ele>
        <time>2021-01-31T13:11:01Z</time>
      </trkpt>
      <trkpt lat="38.67801" lon="0.10746">
        <ele>56.6</ele>
        <time>2021-01-31T13:11:02Z</time>
      </trkpt>
      <trkpt lat="38.678081" lon="0.107441">
        <ele>56.4</ele>
        <time>2021-01-31T13:11:03Z</time>
      </trkpt>
      <trkpt lat="38.678098" lon="0.107466">
        <ele>56.4</ele>
        <time>2021-01-31T13:11:03Z</time>
      </trkpt>
      <trkpt lat="38.678133" lon="0.107526">
        <ele>56.2</ele>
        <time>2021-01-31T13:11:03Z</time>
      </trkpt>
      <trkpt lat="38.678358" lon="0.107912">
        <ele>54.6</ele>
        <time>2021-01-31T13:11:07Z</time>
      </trkpt>
      <trkpt lat="38.678565" lon="0.108452">
        <ele>52.2</ele>
        <time>2021-01-31T13:11:12Z</time>
      </trkpt>
      <trkpt lat="38.678784" lon="0.108998">
        <ele>49.3</ele>
        <time>2021-01-31T13:11:16Z</time>
      </trkpt>
      <trkpt lat="38.678881" lon="0.109172">
        <ele>48.3</ele>
        <time>2021-01-31T13:11:17Z</time>
      </trkpt>
      <trkpt lat="38.679003" lon="0.109343">
        <ele>47.1</ele>
        <time>2021-01-31T13:11:19Z</time>
      </trkpt>
      <trkpt lat="38.679092" lon="0.109463">
        <ele>46.2</ele>
        <time>2021-01-31T13:11:20Z</time>
      </trkpt>
      <trkpt lat="38.679212" lon="0.109814">
        <ele>44.4</ele>
        <time>2021-01-31T13:11:23Z</time>
      </trkpt>
      <trkpt lat="38.679261" lon="0.110445">
        <ele>41.7</ele>
        <time>2021-01-31T13:11:28Z</time>
      </trkpt>
      <trkpt lat="38.679286" lon="0.110621">
        <ele>41</ele>
        <time>2021-01-31T13:11:29Z</time>
      </trkpt>
      <trkpt lat="38.679373" lon="0.1109">
        <ele>39.9</ele>
        <time>2021-01-31T13:11:31Z</time>
      </trkpt>
      <trkpt lat="38.67948" lon="0.111119">
        <ele>39.1</ele>
        <time>2021-01-31T13:11:33Z</time>
      </trkpt>
      <trkpt lat="38.679501" lon="0.111213">
        <ele>38.7</ele>
        <time>2021-01-31T13:11:34Z</time>
      </trkpt>
      <trkpt lat="38.679523" lon="0.111319">
        <ele>38.4</ele>
        <time>2021-01-31T13:11:35Z</time>
      </trkpt>
      <trkpt lat="38.679412" lon="0.111936">
        <ele>36.9</ele>
        <time>2021-01-31T13:11:40Z</time>
      </trkpt>
      <trkpt lat="38.679416" lon="0.112119">
        <ele>36.3</ele>
        <time>2021-01-31T13:11:41Z</time>
      </trkpt>
      <trkpt lat="38.67965" lon="0.113305">
        <ele>33.2</ele>
        <time>2021-01-31T13:11:51Z</time>
      </trkpt>
      <trkpt lat="38.679685" lon="0.113646">
        <ele>32.5</ele>
        <time>2021-01-31T13:11:54Z</time>
      </trkpt>
      <trkpt lat="38.679719" lon="0.113797">
        <ele>32.1</ele>
        <time>2021-01-31T13:11:55Z</time>
      </trkpt>
      <trkpt lat="38.679869" lon="0.114395">
        <ele>30.7</ele>
        <time>2021-01-31T13:12:00Z</time>
      </trkpt>
      <trkpt lat="38.680042" lon="0.114887">
        <ele>29.4</ele>
        <time>2021-01-31T13:12:04Z</time>
      </trkpt>
      <trkpt lat="38.680303" lon="0.115672">
        <ele>27.4</ele>
        <time>2021-01-31T13:12:11Z</time>
      </trkpt>
      <trkpt lat="38.680562" lon="0.116271">
        <ele>25.5</ele>
        <time>2021-01-31T13:12:17Z</time>
      </trkpt>
      <trkpt lat="38.680721" lon="0.116655">
        <ele>24.3</ele>
        <time>2021-01-31T13:12:20Z</time>
      </trkpt>
      <trkpt lat="38.680869" lon="0.117056">
        <ele>23.1</ele>
        <time>2021-01-31T13:12:23Z</time>
      </trkpt>
      <trkpt lat="38.680968" lon="0.117397">
        <ele>21.9</ele>
        <time>2021-01-31T13:12:26Z</time>
      </trkpt>
      <trkpt lat="38.681024" lon="0.117711">
        <ele>20.7</ele>
        <time>2021-01-31T13:12:29Z</time>
      </trkpt>
      <trkpt lat="38.681039" lon="0.117908">
        <ele>20.1</ele>
        <time>2021-01-31T13:12:30Z</time>
      </trkpt>
      <trkpt lat="38.68108" lon="0.118346">
        <ele>18.6</ele>
        <time>2021-01-31T13:12:33Z</time>
      </trkpt>
      <trkpt lat="38.681232" lon="0.118835">
        <ele>16.8</ele>
        <time>2021-01-31T13:12:37Z</time>
      </trkpt>
      <trkpt lat="38.681289" lon="0.118957">
        <ele>16.1</ele>
        <time>2021-01-31T13:12:38Z</time>
      </trkpt>
      <trkpt lat="38.681274" lon="0.118987">
        <ele>16</ele>
        <time>2021-01-31T13:12:39Z</time>
      </trkpt>
      <trkpt lat="38.681276" lon="0.119092">
        <ele>15.8</ele>
        <time>2021-01-31T13:12:39Z</time>
      </trkpt>
      <trkpt lat="38.681293" lon="0.119121">
        <ele>15.7</ele>
        <time>2021-01-31T13:12:40Z</time>
      </trkpt>
      <trkpt lat="38.681313" lon="0.11914">
        <ele>15.6</ele>
        <time>2021-01-31T13:12:40Z</time>
      </trkpt>
      <trkpt lat="38.681385" lon="0.11915">
        <ele>15.3</ele>
        <time>2021-01-31T13:12:41Z</time>
      </trkpt>
      <trkpt lat="38.681408" lon="0.119138">
        <ele>15.3</ele>
        <time>2021-01-31T13:12:41Z</time>
      </trkpt>
      <trkpt lat="38.681445" lon="0.119204">
        <ele>14.8</ele>
        <time>2021-01-31T13:12:42Z</time>
      </trkpt>
      <trkpt lat="38.682203" lon="0.120247">
        <ele>10.4</ele>
        <time>2021-01-31T13:12:52Z</time>
      </trkpt>
      <trkpt lat="38.682245" lon="0.120347">
        <ele>9.9</ele>
        <time>2021-01-31T13:12:53Z</time>
      </trkpt>
      <trkpt lat="38.682264" lon="0.120698">
        <ele>9.2</ele>
        <time>2021-01-31T13:12:56Z</time>
      </trkpt>
      <trkpt lat="38.682262" lon="0.120904">
        <ele>8.6</ele>
        <time>2021-01-31T13:12:58Z</time>
      </trkpt>
      <trkpt lat="38.682262" lon="0.12098">
        <ele>8.5</ele>
        <time>2021-01-31T13:12:58Z</time>
      </trkpt>
      <trkpt lat="38.682282" lon="0.121106">
        <ele>8.3</ele>
        <time>2021-01-31T13:13:00Z</time>
      </trkpt>
      <trkpt lat="38.6823" lon="0.121159">
        <ele>8.3</ele>
        <time>2021-01-31T13:13:00Z</time>
      </trkpt>
      <trkpt lat="38.682345" lon="0.121249">
        <ele>8</ele>
        <time>2021-01-31T13:13:01Z</time>
      </trkpt>
      <trkpt lat="38.682379" lon="0.12131">
        <ele>7.9</ele>
        <time>2021-01-31T13:13:02Z</time>
      </trkpt>
      <trkpt lat="38.68263" lon="0.121685">
        <ele>7.2</ele>
        <time>2021-01-31T13:13:06Z</time>
      </trkpt>
      <trkpt lat="38.682754" lon="0.121876">
        <ele>7</ele>
        <time>2021-01-31T13:13:08Z</time>
      </trkpt>
      <trkpt lat="38.683047" lon="0.122271">
        <ele>6.3</ele>
        <time>2021-01-31T13:13:13Z</time>
      </trkpt>
      <trkpt lat="38.683164" lon="0.122572">
        <ele>6</ele>
        <time>2021-01-31T13:13:16Z</time>
      </trkpt>
      <trkpt lat="38.683274" lon="0.122747">
        <ele>5.8</ele>
        <time>2021-01-31T13:13:18Z</time>
      </trkpt>
      <trkpt lat="38.68349" lon="0.122939">
        <ele>5.5</ele>
        <time>2021-01-31T13:13:22Z</time>
      </trkpt>
      <trkpt lat="38.683992" lon="0.123106">
        <ele>6</ele>
        <time>2021-01-31T13:13:31Z</time>
      </trkpt>
      <trkpt lat="38.684243" lon="0.123343">
        <ele>6.5</ele>
        <time>2021-01-31T13:13:38Z</time>
      </trkpt>
      <trkpt lat="38.684709" lon="0.124004">
        <ele>7.4</ele>
        <time>2021-01-31T13:13:52Z</time>
      </trkpt>
      <trkpt lat="38.68481" lon="0.124137">
        <ele>7.5</ele>
        <time>2021-01-31T13:13:54Z</time>
      </trkpt>
      <trkpt lat="38.684931" lon="0.12425">
        <ele>7.6</ele>
        <time>2021-01-31T13:13:57Z</time>
      </trkpt>
      <trkpt lat="38.685098" lon="0.124345">
        <ele>7.5</ele>
        <time>2021-01-31T13:13:59Z</time>
      </trkpt>
      <trkpt lat="38.685236" lon="0.124382">
        <ele>7.4</ele>
        <time>2021-01-31T13:14:01Z</time>
      </trkpt>
      <trkpt lat="38.68577" lon="0.124453">
        <ele>6.9</ele>
        <time>2021-01-31T13:14:08Z</time>
      </trkpt>
      <trkpt lat="38.685914" lon="0.124565">
        <ele>6.7</ele>
        <time>2021-01-31T13:14:10Z</time>
      </trkpt>
      <trkpt lat="38.685976" lon="0.12464">
        <ele>6.6</ele>
        <time>2021-01-31T13:14:11Z</time>
      </trkpt>
      <trkpt lat="38.686077" lon="0.124806">
        <ele>6.4</ele>
        <time>2021-01-31T13:14:13Z</time>
      </trkpt>
      <trkpt lat="38.686133" lon="0.12507">
        <ele>6.1</ele>
        <time>2021-01-31T13:14:15Z</time>
      </trkpt>
      <trkpt lat="38.686108" lon="0.125214">
        <ele>5.8</ele>
        <time>2021-01-31T13:14:17Z</time>
      </trkpt>
      <trkpt lat="38.686081" lon="0.125301">
        <ele>5.7</ele>
        <time>2021-01-31T13:14:17Z</time>
      </trkpt>
      <trkpt lat="38.686051" lon="0.125396">
        <ele>5.6</ele>
        <time>2021-01-31T13:14:18Z</time>
      </trkpt>
      <trkpt lat="38.685841" lon="0.125889">
        <ele>4.6</ele>
        <time>2021-01-31T13:14:23Z</time>
      </trkpt>
      <trkpt lat="38.685797" lon="0.126105">
        <ele>4.1</ele>
        <time>2021-01-31T13:14:25Z</time>
      </trkpt>
      <trkpt lat="38.685785" lon="0.126353">
        <ele>3.7</ele>
        <time>2021-01-31T13:14:27Z</time>
      </trkpt>
      <trkpt lat="38.685781" lon="0.126745">
        <ele>2.8</ele>
        <time>2021-01-31T13:14:30Z</time>
      </trkpt>
      <trkpt lat="38.685783" lon="0.127205">
        <ele>2.2</ele>
        <time>2021-01-31T13:14:34Z</time>
      </trkpt>
      <trkpt lat="38.685774" lon="0.12753">
        <ele>2.2</ele>
        <time>2021-01-31T13:14:38Z</time>
      </trkpt>
      <trkpt lat="38.685766" lon="0.127933">
        <ele>2.2</ele>
        <time>2021-01-31T13:14:42Z</time>
      </trkpt>
      <trkpt lat="38.685773" lon="0.128069">
        <ele>2.2</ele>
        <time>2021-01-31T13:14:44Z</time>
      </trkpt>
      <trkpt lat="38.685793" lon="0.128216">
        <ele>2.2</ele>
        <time>2021-01-31T13:14:46Z</time>
      </trkpt>
      <trkpt lat="38.685851" lon="0.128393">
        <ele>2.4</ele>
        <time>2021-01-31T13:14:49Z</time>
      </trkpt>
      <trkpt lat="38.685955" lon="0.128517">
        <ele>2.6</ele>
        <time>2021-01-31T13:14:52Z</time>
      </trkpt>
      <trkpt lat="38.686057" lon="0.128597">
        <ele>2.7</ele>
        <time>2021-01-31T13:14:54Z</time>
      </trkpt>
      <trkpt lat="38.686189" lon="0.128665">
        <ele>3.1</ele>
        <time>2021-01-31T13:14:58Z</time>
      </trkpt>
      <trkpt lat="38.686482" lon="0.128826">
        <ele>3.6</ele>
        <time>2021-01-31T13:15:04Z</time>
      </trkpt>
      <trkpt lat="38.68697" lon="0.12894">
        <ele>4.3</ele>
        <time>2021-01-31T13:15:15Z</time>
      </trkpt>
      <trkpt lat="38.687224" lon="0.128987">
        <ele>4.8</ele>
        <time>2021-01-31T13:15:21Z</time>
      </trkpt>
      <trkpt lat="38.687553" lon="0.12904">
        <ele>5.3</ele>
        <time>2021-01-31T13:15:27Z</time>
      </trkpt>
      <trkpt lat="38.688145" lon="0.129117">
        <ele>5.6</ele>
        <time>2021-01-31T13:15:37Z</time>
      </trkpt>
      <trkpt lat="38.688716" lon="0.129224">
        <ele>5.7</ele>
        <time>2021-01-31T13:15:46Z</time>
      </trkpt>
      <trkpt lat="38.688845" lon="0.129251">
        <ele>5.6</ele>
        <time>2021-01-31T13:15:48Z</time>
      </trkpt>
      <trkpt lat="38.688911" lon="0.129278">
        <ele>5.5</ele>
        <time>2021-01-31T13:15:49Z</time>
      </trkpt>
      <trkpt lat="38.689011" lon="0.129357">
        <ele>5.5</ele>
        <time>2021-01-31T13:15:50Z</time>
      </trkpt>
      <trkpt lat="38.689067" lon="0.129425">
        <ele>5.4</ele>
        <time>2021-01-31T13:15:51Z</time>
      </trkpt>
      <trkpt lat="38.689109" lon="0.129508">
        <ele>5.3</ele>
        <time>2021-01-31T13:15:52Z</time>
      </trkpt>
      <trkpt lat="38.689149" lon="0.129722">
        <ele>5.2</ele>
        <time>2021-01-31T13:15:54Z</time>
      </trkpt>
      <trkpt lat="38.689138" lon="0.130093">
        <ele>5</ele>
        <time>2021-01-31T13:15:58Z</time>
      </trkpt>
      <trkpt lat="38.689126" lon="0.130511">
        <ele>4.9</ele>
        <time>2021-01-31T13:16:03Z</time>
      </trkpt>
      <trkpt lat="38.689122" lon="0.130601">
        <ele>4.9</ele>
        <time>2021-01-31T13:16:04Z</time>
      </trkpt>
      <trkpt lat="38.689101" lon="0.131154">
        <ele>5</ele>
        <time>2021-01-31T13:16:11Z</time>
      </trkpt>
      <trkpt lat="38.689098" lon="0.131355">
        <ele>5</ele>
        <time>2021-01-31T13:16:13Z</time>
      </trkpt>
      <trkpt lat="38.689095" lon="0.131476">
        <ele>5</ele>
        <time>2021-01-31T13:16:14Z</time>
      </trkpt>
      <trkpt lat="38.689091" lon="0.131561">
        <ele>5.2</ele>
        <time>2021-01-31T13:16:16Z</time>
      </trkpt>
      <trkpt lat="38.689086" lon="0.131837">
        <ele>5.6</ele>
        <time>2021-01-31T13:16:21Z</time>
      </trkpt>
      <trkpt lat="38.68908" lon="0.132">
        <ele>5.9</ele>
        <time>2021-01-31T13:16:24Z</time>
      </trkpt>
      <trkpt lat="38.689073" lon="0.132266">
        <ele>6.6</ele>
        <time>2021-01-31T13:16:30Z</time>
      </trkpt>
      <trkpt lat="38.689053" lon="0.132909">
        <ele>8.6</ele>
        <time>2021-01-31T13:16:45Z</time>
      </trkpt>
      <trkpt lat="38.689041" lon="0.132953">
        <ele>8.9</ele>
        <time>2021-01-31T13:16:47Z</time>
      </trkpt>
      <trkpt lat="38.689006" lon="0.133383">
        <ele>10.4</ele>
        <time>2021-01-31T13:16:58Z</time>
      </trkpt>
      <trkpt lat="38.688991" lon="0.133426">
        <ele>10.8</ele>
        <time>2021-01-31T13:17:00Z</time>
      </trkpt>
      <trkpt lat="38.688976" lon="0.133443">
        <ele>10.9</ele>
        <time>2021-01-31T13:17:01Z</time>
      </trkpt>
      <trkpt lat="38.688946" lon="0.133536">
        <ele>11.1</ele>
        <time>2021-01-31T13:17:03Z</time>
      </trkpt>
      <trkpt lat="38.688949" lon="0.133587">
        <ele>11.2</ele>
        <time>2021-01-31T13:17:04Z</time>
      </trkpt>
      <trkpt lat="38.688962" lon="0.133626">
        <ele>11.4</ele>
        <time>2021-01-31T13:17:05Z</time>
      </trkpt>
      <trkpt lat="38.688982" lon="0.13366">
        <ele>11.4</ele>
        <time>2021-01-31T13:17:06Z</time>
      </trkpt>
      <trkpt lat="38.688997" lon="0.133674">
        <ele>11.5</ele>
        <time>2021-01-31T13:17:07Z</time>
      </trkpt>
      <trkpt lat="38.689017" lon="0.133711">
        <ele>11.8</ele>
        <time>2021-01-31T13:17:08Z</time>
      </trkpt>
      <trkpt lat="38.689064" lon="0.133831">
        <ele>12.4</ele>
        <time>2021-01-31T13:17:12Z</time>
      </trkpt>
      <trkpt lat="38.689087" lon="0.13407">
        <ele>12.8</ele>
        <time>2021-01-31T13:17:17Z</time>
      </trkpt>
      <trkpt lat="38.689121" lon="0.134372">
        <ele>13.8</ele>
        <time>2021-01-31T13:17:24Z</time>
      </trkpt>
      <trkpt lat="38.689137" lon="0.134505">
        <ele>14</ele>
        <time>2021-01-31T13:17:26Z</time>
      </trkpt>
      <trkpt lat="38.689149" lon="0.134677">
        <ele>14.4</ele>
        <time>2021-01-31T13:17:30Z</time>
      </trkpt>
      <trkpt lat="38.689149" lon="0.134759">
        <ele>14.9</ele>
        <time>2021-01-31T13:17:33Z</time>
      </trkpt>
      <trkpt lat="38.689156" lon="0.134736">
        <ele>14.8</ele>
        <time>2021-01-31T13:17:33Z</time>
      </trkpt>
      <trkpt lat="38.689227" lon="0.13466">
        <ele>15</ele>
        <time>2021-01-31T13:17:35Z</time>
      </trkpt>
      <trkpt lat="38.689264" lon="0.134656">
        <ele>15.1</ele>
        <time>2021-01-31T13:17:36Z</time>
      </trkpt>
      <trkpt lat="38.689286" lon="0.134661">
        <ele>15.1</ele>
        <time>2021-01-31T13:17:36Z</time>
      </trkpt>
      <trkpt lat="38.689306" lon="0.134672">
        <ele>15.2</ele>
        <time>2021-01-31T13:17:37Z</time>
      </trkpt>
      <trkpt lat="38.689331" lon="0.134695">
        <ele>15.3</ele>
        <time>2021-01-31T13:17:38Z</time>
      </trkpt>
      <trkpt lat="38.689361" lon="0.134764">
        <ele>15.4</ele>
        <time>2021-01-31T13:17:39Z</time>
      </trkpt>
      <trkpt lat="38.689363" lon="0.134804">
        <ele>15.6</ele>
        <time>2021-01-31T13:17:41Z</time>
      </trkpt>
      <trkpt lat="38.689412" lon="0.134756">
        <ele>15.8</ele>
        <time>2021-01-31T13:17:42Z</time>
      </trkpt>
      <trkpt lat="38.68957" lon="0.134671">
        <ele>16.1</ele>
        <time>2021-01-31T13:17:46Z</time>
      </trkpt>
      <trkpt lat="38.689596" lon="0.134665">
        <ele>16.3</ele>
        <time>2021-01-31T13:17:47Z</time>
      </trkpt>
      <trkpt lat="38.689732" lon="0.134634">
        <ele>16.7</ele>
        <time>2021-01-31T13:17:51Z</time>
      </trkpt>
      <trkpt lat="38.689917" lon="0.134598">
        <ele>16.9</ele>
        <time>2021-01-31T13:17:54Z</time>
      </trkpt>
      <trkpt lat="38.690191" lon="0.134572">
        <ele>17.1</ele>
        <time>2021-01-31T13:17:59Z</time>
      </trkpt>
      <trkpt lat="38.690534" lon="0.13459">
        <ele>17</ele>
        <time>2021-01-31T13:18:04Z</time>
      </trkpt>
      <trkpt lat="38.691263" lon="0.134657">
        <ele>17.7</ele>
        <time>2021-01-31T13:18:18Z</time>
      </trkpt>
      <trkpt lat="38.691309" lon="0.134661">
        <ele>17.7</ele>
        <time>2021-01-31T13:18:18Z</time>
      </trkpt>
      <trkpt lat="38.691363" lon="0.134656">
        <ele>17.9</ele>
        <time>2021-01-31T13:18:20Z</time>
      </trkpt>
      <trkpt lat="38.691426" lon="0.134646">
        <ele>17.8</ele>
        <time>2021-01-31T13:18:21Z</time>
      </trkpt>
      <trkpt lat="38.691533" lon="0.134598">
        <ele>18.4</ele>
        <time>2021-01-31T13:18:24Z</time>
      </trkpt>
      <trkpt lat="38.691585" lon="0.134551">
        <ele>18.5</ele>
        <time>2021-01-31T13:18:26Z</time>
      </trkpt>
      <trkpt lat="38.691797" lon="0.134621">
        <ele>19</ele>
        <time>2021-01-31T13:18:31Z</time>
      </trkpt>
      <trkpt lat="38.692114" lon="0.134695">
        <ele>20.2</ele>
        <time>2021-01-31T13:18:41Z</time>
      </trkpt>
      <trkpt lat="38.692136" lon="0.134686">
        <ele>20.3</ele>
        <time>2021-01-31T13:18:41Z</time>
      </trkpt>
      <trkpt lat="38.692154" lon="0.134829">
        <ele>21</ele>
        <time>2021-01-31T13:18:47Z</time>
      </trkpt>
      <trkpt lat="38.692246" lon="0.135342">
        <ele>22.5</ele>
        <time>2021-01-31T13:19:01Z</time>
      </trkpt>
      <trkpt lat="38.692538" lon="0.136311">
        <ele>26.2</ele>
        <time>2021-01-31T13:19:32Z</time>
      </trkpt>
      <trkpt lat="38.692806" lon="0.137105">
        <ele>30.1</ele>
        <time>2021-01-31T13:20:01Z</time>
      </trkpt>
      <trkpt lat="38.692862" lon="0.137254">
        <ele>31.1</ele>
        <time>2021-01-31T13:20:08Z</time>
      </trkpt>
      <trkpt lat="38.692896" lon="0.137344">
        <ele>31.5</ele>
        <time>2021-01-31T13:20:11Z</time>
      </trkpt>
      <trkpt lat="38.693081" lon="0.137589">
        <ele>33.2</ele>
        <time>2021-01-31T13:20:23Z</time>
      </trkpt>
      <trkpt lat="38.693188" lon="0.137792">
        <ele>34.1</ele>
        <time>2021-01-31T13:20:31Z</time>
      </trkpt>
      <trkpt lat="38.693201" lon="0.138024">
        <ele>35.3</ele>
        <time>2021-01-31T13:20:39Z</time>
      </trkpt>
      <trkpt lat="38.693141" lon="0.138245">
        <ele>36.1</ele>
        <time>2021-01-31T13:20:46Z</time>
      </trkpt>
      <trkpt lat="38.69292" lon="0.13846">
        <ele>37.7</ele>
        <time>2021-01-31T13:20:58Z</time>
      </trkpt>
      <trkpt lat="38.692789" lon="0.13855">
        <ele>38.5</ele>
        <time>2021-01-31T13:21:04Z</time>
      </trkpt>
      <trkpt lat="38.692823" lon="0.138625">
        <ele>39.1</ele>
        <time>2021-01-31T13:21:08Z</time>
      </trkpt>
      <trkpt lat="38.693293" lon="0.139011">
        <ele>42.8</ele>
        <time>2021-01-31T13:21:31Z</time>
      </trkpt>
      <trkpt lat="38.694121" lon="0.139344">
        <ele>49.5</ele>
        <time>2021-01-31T13:22:11Z</time>
      </trkpt>
      <trkpt lat="38.694415" lon="0.13943">
        <ele>51.1</ele>
        <time>2021-01-31T13:22:22Z</time>
      </trkpt>
      <trkpt lat="38.694339" lon="0.139516">
        <ele>51.9</ele>
        <time>2021-01-31T13:22:27Z</time>
      </trkpt>
      <trkpt lat="38.694357" lon="0.139916">
        <ele>53.5</ele>
        <time>2021-01-31T13:22:39Z</time>
      </trkpt>
      <trkpt lat="38.694416" lon="0.140505">
        <ele>56.1</ele>
        <time>2021-01-31T13:22:59Z</time>
      </trkpt>
      <trkpt lat="38.694544" lon="0.140497">
        <ele>56.7</ele>
        <time>2021-01-31T13:23:03Z</time>
      </trkpt>
      <trkpt lat="38.69486" lon="0.140413">
        <ele>58.3</ele>
        <time>2021-01-31T13:23:15Z</time>
      </trkpt>
      <trkpt lat="38.695041" lon="0.14027">
        <ele>59.5</ele>
        <time>2021-01-31T13:23:23Z</time>
      </trkpt>
      <trkpt lat="38.695108" lon="0.140426">
        <ele>60</ele>
        <time>2021-01-31T13:23:28Z</time>
      </trkpt>
      <trkpt lat="38.695146" lon="0.140453">
        <ele>60.2</ele>
        <time>2021-01-31T13:23:29Z</time>
      </trkpt>
      <trkpt lat="38.69592" lon="0.140342">
        <ele>63</ele>
        <time>2021-01-31T13:23:56Z</time>
      </trkpt>
      <trkpt lat="38.696958" lon="0.140273">
        <ele>67.2</ele>
        <time>2021-01-31T13:24:34Z</time>
      </trkpt>
      <trkpt lat="38.69759" lon="0.140388">
        <ele>71.1</ele>
        <time>2021-01-31T13:25:02Z</time>
      </trkpt>
      <trkpt lat="38.698227" lon="0.140691">
        <ele>76.2</ele>
        <time>2021-01-31T13:25:37Z</time>
      </trkpt>
      <trkpt lat="38.698373" lon="0.140734">
        <ele>77.4</ele>
        <time>2021-01-31T13:25:44Z</time>
      </trkpt>
      <trkpt lat="38.698468" lon="0.141324">
        <ele>79.7</ele>
        <time>2021-01-31T13:26:03Z</time>
      </trkpt>
      <trkpt lat="38.698505" lon="0.141655">
        <ele>81</ele>
        <time>2021-01-31T13:26:14Z</time>
      </trkpt>
      <trkpt lat="38.698613" lon="0.142104">
        <ele>82.8</ele>
        <time>2021-01-31T13:26:28Z</time>
      </trkpt>
      <trkpt lat="38.698725" lon="0.142425">
        <ele>84</ele>
        <time>2021-01-31T13:26:39Z</time>
      </trkpt>
      <trkpt lat="38.69876" lon="0.142603">
        <ele>84.8</ele>
        <time>2021-01-31T13:26:45Z</time>
      </trkpt>
      <trkpt lat="38.698874" lon="0.142771">
        <ele>85.4</ele>
        <time>2021-01-31T13:26:50Z</time>
      </trkpt>
      <trkpt lat="38.699023" lon="0.142931">
        <ele>86.2</ele>
        <time>2021-01-31T13:26:58Z</time>
      </trkpt>
      <trkpt lat="38.699103" lon="0.142984">
        <ele>86.4</ele>
        <time>2021-01-31T13:27:00Z</time>
      </trkpt>
      <trkpt lat="38.699913" lon="0.143318">
        <ele>89.5</ele>
        <time>2021-01-31T13:27:30Z</time>
      </trkpt>
      <trkpt lat="38.700482" lon="0.14337">
        <ele>91.9</ele>
        <time>2021-01-31T13:27:51Z</time>
      </trkpt>
      <trkpt lat="38.701018" lon="0.143481">
        <ele>95</ele>
        <time>2021-01-31T13:28:14Z</time>
      </trkpt>
      <trkpt lat="38.702253" lon="0.143608">
        <ele>96.5</ele>
        <time>2021-01-31T13:28:46Z</time>
      </trkpt>
      <trkpt lat="38.702324" lon="0.14361">
        <ele>96.2</ele>
        <time>2021-01-31T13:28:47Z</time>
      </trkpt>
      <trkpt lat="38.702873" lon="0.143635">
        <ele>95.1</ele>
        <time>2021-01-31T13:28:55Z</time>
      </trkpt>
      <trkpt lat="38.70288" lon="0.14406">
        <ele>94</ele>
        <time>2021-01-31T13:29:00Z</time>
      </trkpt>
      <trkpt lat="38.702932" lon="0.144419">
        <ele>93</ele>
        <time>2021-01-31T13:29:04Z</time>
      </trkpt>
      <trkpt lat="38.703216" lon="0.144373">
        <ele>92.2</ele>
        <time>2021-01-31T13:29:08Z</time>
      </trkpt>
      <trkpt lat="38.703275" lon="0.144385">
        <ele>92.1</ele>
        <time>2021-01-31T13:29:09Z</time>
      </trkpt>
      <trkpt lat="38.703663" lon="0.144604">
        <ele>90.9</ele>
        <time>2021-01-31T13:29:16Z</time>
      </trkpt>
      <trkpt lat="38.704239" lon="0.144827">
        <ele>89.8</ele>
        <time>2021-01-31T13:29:25Z</time>
      </trkpt>
      <trkpt lat="38.704607" lon="0.14494">
        <ele>90.4</ele>
        <time>2021-01-31T13:29:35Z</time>
      </trkpt>
      <trkpt lat="38.704847" lon="0.145029">
        <ele>91</ele>
        <time>2021-01-31T13:29:42Z</time>
      </trkpt>
      <trkpt lat="38.704931" lon="0.145139">
        <ele>91.2</ele>
        <time>2021-01-31T13:29:46Z</time>
      </trkpt>
      <trkpt lat="38.704945" lon="0.14523">
        <ele>91.3</ele>
        <time>2021-01-31T13:29:48Z</time>
      </trkpt>
      <trkpt lat="38.705131" lon="0.145462">
        <ele>91.8</ele>
        <time>2021-01-31T13:29:55Z</time>
      </trkpt>
      <trkpt lat="38.705267" lon="0.145554">
        <ele>92.1</ele>
        <time>2021-01-31T13:29:59Z</time>
      </trkpt>
      <trkpt lat="38.706137" lon="0.145912">
        <ele>94.1</ele>
        <time>2021-01-31T13:30:25Z</time>
      </trkpt>
      <trkpt lat="38.706756" lon="0.145891">
        <ele>97</ele>
        <time>2021-01-31T13:30:50Z</time>
      </trkpt>
      <trkpt lat="38.707273" lon="0.145891">
        <ele>99.3</ele>
        <time>2021-01-31T13:31:09Z</time>
      </trkpt>
      <trkpt lat="38.707443" lon="0.146244">
        <ele>101.3</ele>
        <time>2021-01-31T13:31:24Z</time>
      </trkpt>
      <trkpt lat="38.707549" lon="0.146317">
        <ele>102</ele>
        <time>2021-01-31T13:31:29Z</time>
      </trkpt>
      <trkpt lat="38.707585" lon="0.146341">
        <ele>102.6</ele>
        <time>2021-01-31T13:31:33Z</time>
      </trkpt>
      <trkpt lat="38.708425" lon="0.146579">
        <ele>108.7</ele>
        <time>2021-01-31T13:32:14Z</time>
      </trkpt>
      <trkpt lat="38.7087" lon="0.146462">
        <ele>111.3</ele>
        <time>2021-01-31T13:32:30Z</time>
      </trkpt>
      <trkpt lat="38.708955" lon="0.146742">
        <ele>114.1</ele>
        <time>2021-01-31T13:32:48Z</time>
      </trkpt>
      <trkpt lat="38.709154" lon="0.146742">
        <ele>115.5</ele>
        <time>2021-01-31T13:32:58Z</time>
      </trkpt>
      <trkpt lat="38.7094" lon="0.146794">
        <ele>117.1</ele>
        <time>2021-01-31T13:33:09Z</time>
      </trkpt>
      <trkpt lat="38.709639" lon="0.146975">
        <ele>119</ele>
        <time>2021-01-31T13:33:23Z</time>
      </trkpt>
      <trkpt lat="38.709793" lon="0.14718">
        <ele>120.5</ele>
        <time>2021-01-31T13:33:33Z</time>
      </trkpt>
      <trkpt lat="38.709899" lon="0.147314">
        <ele>121.5</ele>
        <time>2021-01-31T13:33:40Z</time>
      </trkpt>
      <trkpt lat="38.710116" lon="0.147561">
        <ele>123.3</ele>
        <time>2021-01-31T13:33:53Z</time>
      </trkpt>
      <trkpt lat="38.710252" lon="0.147644">
        <ele>124.4</ele>
        <time>2021-01-31T13:34:01Z</time>
      </trkpt>
      <trkpt lat="38.710875" lon="0.147679">
        <ele>128.4</ele>
        <time>2021-01-31T13:34:29Z</time>
      </trkpt>
      <trkpt lat="38.711025" lon="0.147735">
        <ele>129.2</ele>
        <time>2021-01-31T13:34:36Z</time>
      </trkpt>
      <trkpt lat="38.711389" lon="0.148127">
        <ele>131.8</ele>
        <time>2021-01-31T13:34:56Z</time>
      </trkpt>
      <trkpt lat="38.711446" lon="0.14817">
        <ele>132.4</ele>
        <time>2021-01-31T13:34:59Z</time>
      </trkpt>
      <trkpt lat="38.711804" lon="0.148358">
        <ele>134.5</ele>
        <time>2021-01-31T13:35:16Z</time>
      </trkpt>
      <trkpt lat="38.713139" lon="0.148807">
        <ele>145.4</ele>
        <time>2021-01-31T13:36:27Z</time>
      </trkpt>
      <trkpt lat="38.713206" lon="0.148832">
        <ele>146.1</ele>
        <time>2021-01-31T13:36:32Z</time>
      </trkpt>
      <trkpt lat="38.71327" lon="0.148906">
        <ele>147.1</ele>
        <time>2021-01-31T13:36:37Z</time>
      </trkpt>
      <trkpt lat="38.713546" lon="0.14912">
        <ele>149.5</ele>
        <time>2021-01-31T13:36:53Z</time>
      </trkpt>
      <trkpt lat="38.714952" lon="0.149914">
        <ele>163.2</ele>
        <time>2021-01-31T13:38:19Z</time>
      </trkpt>
      <trkpt lat="38.715226" lon="0.150017">
        <ele>165.6</ele>
        <time>2021-01-31T13:38:35Z</time>
      </trkpt>
      <trkpt lat="38.715907" lon="0.150231">
        <ele>172.1</ele>
        <time>2021-01-31T13:39:15Z</time>
      </trkpt>
      <trkpt lat="38.716074" lon="0.150279">
        <ele>173.9</ele>
        <time>2021-01-31T13:39:26Z</time>
      </trkpt>
      <trkpt lat="38.71658" lon="0.150485">
        <ele>179.4</ele>
        <time>2021-01-31T13:39:58Z</time>
      </trkpt>
      <trkpt lat="38.717618" lon="0.151187">
        <ele>197.2</ele>
        <time>2021-01-31T13:41:34Z</time>
      </trkpt>
      <trkpt lat="38.71802" lon="0.151458">
        <ele>204.4</ele>
        <time>2021-01-31T13:42:12Z</time>
      </trkpt>
      <trkpt lat="38.717952" lon="0.151567">
        <ele>206.8</ele>
        <time>2021-01-31T13:42:23Z</time>
      </trkpt>
      <trkpt lat="38.717767" lon="0.151796">
        <ele>210.6</ele>
        <time>2021-01-31T13:42:42Z</time>
      </trkpt>
      <trkpt lat="38.717504" lon="0.152005">
        <ele>216</ele>
        <time>2021-01-31T13:43:08Z</time>
      </trkpt>
      <trkpt lat="38.716824" lon="0.152126">
        <ele>228.1</ele>
        <time>2021-01-31T13:44:07Z</time>
      </trkpt>
      <trkpt lat="38.716397" lon="0.152289">
        <ele>235.1</ele>
        <time>2021-01-31T13:44:42Z</time>
      </trkpt>
      <trkpt lat="38.714895" lon="0.152163">
        <ele>252.9</ele>
        <time>2021-01-31T13:46:15Z</time>
      </trkpt>
      <trkpt lat="38.713498" lon="0.15234">
        <ele>263.6</ele>
        <time>2021-01-31T13:47:19Z</time>
      </trkpt>
      <trkpt lat="38.713022" lon="0.15256">
        <ele>265.9</ele>
        <time>2021-01-31T13:47:35Z</time>
      </trkpt>
      <trkpt lat="38.712449" lon="0.153067">
        <ele>267.7</ele>
        <time>2021-01-31T13:47:53Z</time>
      </trkpt>
      <trkpt lat="38.712401" lon="0.153136">
        <ele>268</ele>
        <time>2021-01-31T13:47:55Z</time>
      </trkpt>
      <trkpt lat="38.712362" lon="0.153215">
        <ele>268</ele>
        <time>2021-01-31T13:47:56Z</time>
      </trkpt>
      <trkpt lat="38.712349" lon="0.153773">
        <ele>268.2</ele>
        <time>2021-01-31T13:48:04Z</time>
      </trkpt>
      <trkpt lat="38.712336" lon="0.153888">
        <ele>268.2</ele>
        <time>2021-01-31T13:48:05Z</time>
      </trkpt>
      <trkpt lat="38.71232" lon="0.153959">
        <ele>268.2</ele>
        <time>2021-01-31T13:48:06Z</time>
      </trkpt>
      <trkpt lat="38.712288" lon="0.154043">
        <ele>268.3</ele>
        <time>2021-01-31T13:48:07Z</time>
      </trkpt>
      <trkpt lat="38.712196" lon="0.15425">
        <ele>268</ele>
        <time>2021-01-31T13:48:09Z</time>
      </trkpt>
      <trkpt lat="38.71197" lon="0.154735">
        <ele>267.5</ele>
        <time>2021-01-31T13:48:15Z</time>
      </trkpt>
      <trkpt lat="38.711916" lon="0.154834">
        <ele>267.5</ele>
        <time>2021-01-31T13:48:16Z</time>
      </trkpt>
      <trkpt lat="38.711758" lon="0.154911">
        <ele>267.2</ele>
        <time>2021-01-31T13:48:18Z</time>
      </trkpt>
      <trkpt lat="38.711723" lon="0.154904">
        <ele>267.1</ele>
        <time>2021-01-31T13:48:18Z</time>
      </trkpt>
      <trkpt lat="38.711655" lon="0.154934">
        <ele>267</ele>
        <time>2021-01-31T13:48:19Z</time>
      </trkpt>
      <trkpt lat="38.711632" lon="0.154969">
        <ele>266.9</ele>
        <time>2021-01-31T13:48:20Z</time>
      </trkpt>
      <trkpt lat="38.71162" lon="0.155004">
        <ele>266.9</ele>
        <time>2021-01-31T13:48:20Z</time>
      </trkpt>
      <trkpt lat="38.71162" lon="0.155078">
        <ele>266.8</ele>
        <time>2021-01-31T13:48:21Z</time>
      </trkpt>
      <trkpt lat="38.711632" lon="0.155112">
        <ele>266.8</ele>
        <time>2021-01-31T13:48:21Z</time>
      </trkpt>
      <trkpt lat="38.711657" lon="0.155147">
        <ele>266.7</ele>
        <time>2021-01-31T13:48:21Z</time>
      </trkpt>
      <trkpt lat="38.711689" lon="0.15517">
        <ele>266.7</ele>
        <time>2021-01-31T13:48:22Z</time>
      </trkpt>
      <trkpt lat="38.711767" lon="0.155299">
        <ele>266.7</ele>
        <time>2021-01-31T13:48:24Z</time>
      </trkpt>
      <trkpt lat="38.711935" lon="0.155663">
        <ele>266.7</ele>
        <time>2021-01-31T13:48:29Z</time>
      </trkpt>
      <trkpt lat="38.712261" lon="0.156262">
        <ele>267.7</ele>
        <time>2021-01-31T13:48:41Z</time>
      </trkpt>
      <trkpt lat="38.712537" lon="0.156621">
        <ele>269.2</ele>
        <time>2021-01-31T13:48:53Z</time>
      </trkpt>
      <trkpt lat="38.71449" lon="0.158582">
        <ele>290.6</ele>
        <time>2021-01-31T13:50:55Z</time>
      </trkpt>
      <trkpt lat="38.714708" lon="0.158724">
        <ele>293.9</ele>
        <time>2021-01-31T13:51:12Z</time>
      </trkpt>
      <trkpt lat="38.715714" lon="0.159172">
        <ele>308.7</ele>
        <time>2021-01-31T13:52:27Z</time>
      </trkpt>
      <trkpt lat="38.715981" lon="0.159336">
        <ele>312.5</ele>
        <time>2021-01-31T13:52:47Z</time>
      </trkpt>
      <trkpt lat="38.716032" lon="0.159358">
        <ele>313.4</ele>
        <time>2021-01-31T13:52:51Z</time>
      </trkpt>
      <trkpt lat="38.71611" lon="0.159402">
        <ele>314.2</ele>
        <time>2021-01-31T13:52:56Z</time>
      </trkpt>
      <trkpt lat="38.716284" lon="0.159541">
        <ele>317</ele>
        <time>2021-01-31T13:53:10Z</time>
      </trkpt>
      <trkpt lat="38.71632" lon="0.159567">
        <ele>317.5</ele>
        <time>2021-01-31T13:53:13Z</time>
      </trkpt>
      <trkpt lat="38.716373" lon="0.159605">
        <ele>318.3</ele>
        <time>2021-01-31T13:53:17Z</time>
      </trkpt>
      <trkpt lat="38.716768" lon="0.159814">
        <ele>323.5</ele>
        <time>2021-01-31T13:53:44Z</time>
      </trkpt>
      <trkpt lat="38.716777" lon="0.159819">
        <ele>323.7</ele>
        <time>2021-01-31T13:53:45Z</time>
      </trkpt>
      <trkpt lat="38.716724" lon="0.159721">
        <ele>325.1</ele>
        <time>2021-01-31T13:54:01Z</time>
      </trkpt>
      <trkpt lat="38.716355" lon="0.159105">
        <ele>333.8</ele>
        <time>2021-01-31T13:55:44Z</time>
      </trkpt>
      <trkpt lat="38.71608" lon="0.158712">
        <ele>340.2</ele>
        <time>2021-01-31T13:56:56Z</time>
      </trkpt>
      <trkpt lat="38.715923" lon="0.158495">
        <ele>342.5</ele>
        <time>2021-01-31T13:57:30Z</time>
      </trkpt>
      <trkpt lat="38.71566" lon="0.158087">
        <ele>348.6</ele>
        <time>2021-01-31T13:58:41Z</time>
      </trkpt>
      <trkpt lat="38.715646" lon="0.158034">
        <ele>349.8</ele>
        <time>2021-01-31T13:58:50Z</time>
      </trkpt>
      <trkpt lat="38.715644" lon="0.158006">
        <ele>350.5</ele>
        <time>2021-01-31T13:58:55Z</time>
      </trkpt>
      <trkpt lat="38.715696" lon="0.157814">
        <ele>352.9</ele>
        <time>2021-01-31T13:59:22Z</time>
      </trkpt>
      <trkpt lat="38.715741" lon="0.157755">
        <ele>353.9</ele>
        <time>2021-01-31T13:59:33Z</time>
      </trkpt>
      <trkpt lat="38.715834" lon="0.157694">
        <ele>356.1</ele>
        <time>2021-01-31T13:59:54Z</time>
      </trkpt>
      <trkpt lat="38.716138" lon="0.157636">
        <ele>361.4</ele>
        <time>2021-01-31T14:00:50Z</time>
      </trkpt>
      <trkpt lat="38.7169" lon="0.15777">
        <ele>375.3</ele>
        <time>2021-01-31T14:03:12Z</time>
      </trkpt>
      <trkpt lat="38.716995" lon="0.157804">
        <ele>378</ele>
        <time>2021-01-31T14:03:32Z</time>
      </trkpt>
      <trkpt lat="38.717128" lon="0.157852">
        <ele>379.9</ele>
        <time>2021-01-31T14:03:55Z</time>
      </trkpt>
      <trkpt lat="38.717855" lon="0.158171">
        <ele>391</ele>
        <time>2021-01-31T14:06:06Z</time>
      </trkpt>
      <trkpt lat="38.718275" lon="0.158242">
        <ele>395.4</ele>
        <time>2021-01-31T14:07:11Z</time>
      </trkpt>
      <trkpt lat="38.718407" lon="0.15821">
        <ele>397.5</ele>
        <time>2021-01-31T14:07:34Z</time>
      </trkpt>
      <trkpt lat="38.718541" lon="0.158196">
        <ele>398.5</ele>
        <time>2021-01-31T14:07:53Z</time>
      </trkpt>
      <trkpt lat="38.718885" lon="0.158242">
        <ele>400</ele>
        <time>2021-01-31T14:08:38Z</time>
      </trkpt>
      <trkpt lat="38.718973" lon="0.158296">
        <ele>400.4</ele>
        <time>2021-01-31T14:08:50Z</time>
      </trkpt>
      <trkpt lat="38.719124" lon="0.158446">
        <ele>401.2</ele>
        <time>2021-01-31T14:09:14Z</time>
      </trkpt>
      <trkpt lat="38.719983" lon="0.159607">
        <ele>404.3</ele>
        <time>2021-01-31T14:11:46Z</time>
      </trkpt>
      <trkpt lat="38.720033" lon="0.159684">
        <ele>404.2</ele>
        <time>2021-01-31T14:11:54Z</time>
      </trkpt>
      <trkpt lat="38.719983" lon="0.159607">
        <ele>404.3</ele>
        <time>2021-01-31T14:12:03Z</time>
      </trkpt>
      <trkpt lat="38.719124" lon="0.158446">
        <ele>401.2</ele>
        <time>2021-01-31T14:14:12Z</time>
      </trkpt>
      <trkpt lat="38.718973" lon="0.158296">
        <ele>400.4</ele>
        <time>2021-01-31T14:14:30Z</time>
      </trkpt>
      <trkpt lat="38.718885" lon="0.158242">
        <ele>400</ele>
        <time>2021-01-31T14:14:40Z</time>
      </trkpt>
      <trkpt lat="38.718541" lon="0.158196">
        <ele>398.5</ele>
        <time>2021-01-31T14:15:14Z</time>
      </trkpt>
      <trkpt lat="38.718407" lon="0.15821">
        <ele>397.5</ele>
        <time>2021-01-31T14:15:26Z</time>
      </trkpt>
      <trkpt lat="38.718275" lon="0.158242">
        <ele>395.4</ele>
        <time>2021-01-31T14:15:37Z</time>
      </trkpt>
      <trkpt lat="38.717855" lon="0.158171">
        <ele>391</ele>
        <time>2021-01-31T14:16:14Z</time>
      </trkpt>
      <trkpt lat="38.717128" lon="0.157852">
        <ele>379.9</ele>
        <time>2021-01-31T14:17:19Z</time>
      </trkpt>
      <trkpt lat="38.716995" lon="0.157804">
        <ele>378</ele>
        <time>2021-01-31T14:17:30Z</time>
      </trkpt>
      <trkpt lat="38.7169" lon="0.15777">
        <ele>375.3</ele>
        <time>2021-01-31T14:17:38Z</time>
      </trkpt>
      <trkpt lat="38.716138" lon="0.157636">
        <ele>361.4</ele>
        <time>2021-01-31T14:18:40Z</time>
      </trkpt>
      <trkpt lat="38.715834" lon="0.157694">
        <ele>356.1</ele>
        <time>2021-01-31T14:19:05Z</time>
      </trkpt>
      <trkpt lat="38.715741" lon="0.157755">
        <ele>353.9</ele>
        <time>2021-01-31T14:19:14Z</time>
      </trkpt>
      <trkpt lat="38.715696" lon="0.157814">
        <ele>352.9</ele>
        <time>2021-01-31T14:19:19Z</time>
      </trkpt>
      <trkpt lat="38.715644" lon="0.158006">
        <ele>350.5</ele>
        <time>2021-01-31T14:19:32Z</time>
      </trkpt>
      <trkpt lat="38.715646" lon="0.158034">
        <ele>349.8</ele>
        <time>2021-01-31T14:19:34Z</time>
      </trkpt>
      <trkpt lat="38.71566" lon="0.158087">
        <ele>348.6</ele>
        <time>2021-01-31T14:19:37Z</time>
      </trkpt>
      <trkpt lat="38.715923" lon="0.158495">
        <ele>342.5</ele>
        <time>2021-01-31T14:20:12Z</time>
      </trkpt>
      <trkpt lat="38.71608" lon="0.158712">
        <ele>340.3</ele>
        <time>2021-01-31T14:20:32Z</time>
      </trkpt>
      <trkpt lat="38.716355" lon="0.159105">
        <ele>334.7</ele>
        <time>2021-01-31T14:21:07Z</time>
      </trkpt>
      <trkpt lat="38.716724" lon="0.159721">
        <ele>329.5</ele>
        <time>2021-01-31T14:22:02Z</time>
      </trkpt>
      <trkpt lat="38.716777" lon="0.159819">
        <ele>328.7</ele>
        <time>2021-01-31T14:22:10Z</time>
      </trkpt>
      <trkpt lat="38.716866" lon="0.15987">
        <ele>328.4</ele>
        <time>2021-01-31T14:22:11Z</time>
      </trkpt>
      <trkpt lat="38.718326" lon="0.160793">
        <ele>322.9</ele>
        <time>2021-01-31T14:22:28Z</time>
      </trkpt>
      <trkpt lat="38.720445" lon="0.162262">
        <ele>319.5</ele>
        <time>2021-01-31T14:22:56Z</time>
      </trkpt>
      <trkpt lat="38.723379" lon="0.163841">
        <ele>315.4</ele>
        <time>2021-01-31T14:23:33Z</time>
      </trkpt>
      <trkpt lat="38.723856" lon="0.163893">
        <ele>314</ele>
        <time>2021-01-31T14:23:38Z</time>
      </trkpt>
      <trkpt lat="38.724043" lon="0.16387">
        <ele>313.3</ele>
        <time>2021-01-31T14:23:40Z</time>
      </trkpt>
      <trkpt lat="38.724128" lon="0.163839">
        <ele>312.9</ele>
        <time>2021-01-31T14:23:41Z</time>
      </trkpt>
      <trkpt lat="38.724974" lon="0.163451">
        <ele>308.1</ele>
        <time>2021-01-31T14:23:49Z</time>
      </trkpt>
      <trkpt lat="38.725903" lon="0.162756">
        <ele>294.4</ele>
        <time>2021-01-31T14:23:58Z</time>
      </trkpt>
      <trkpt lat="38.726358" lon="0.162593">
        <ele>288.5</ele>
        <time>2021-01-31T14:24:02Z</time>
      </trkpt>
      <trkpt lat="38.726461" lon="0.162588">
        <ele>286.4</ele>
        <time>2021-01-31T14:24:03Z</time>
      </trkpt>
      <trkpt lat="38.726508" lon="0.162633">
        <ele>285.5</ele>
        <time>2021-01-31T14:24:03Z</time>
      </trkpt>
      <trkpt lat="38.726574" lon="0.162628">
        <ele>284.5</ele>
        <time>2021-01-31T14:24:04Z</time>
      </trkpt>
      <trkpt lat="38.726726" lon="0.162646">
        <ele>283.1</ele>
        <time>2021-01-31T14:24:05Z</time>
      </trkpt>
      <trkpt lat="38.726844" lon="0.162687">
        <ele>280.7</ele>
        <time>2021-01-31T14:24:06Z</time>
      </trkpt>
      <trkpt lat="38.726945" lon="0.162716">
        <ele>279.3</ele>
        <time>2021-01-31T14:24:07Z</time>
      </trkpt>
      <trkpt lat="38.727923" lon="0.163006">
        <ele>266.7</ele>
        <time>2021-01-31T14:24:16Z</time>
      </trkpt>
      <trkpt lat="38.728164" lon="0.162889">
        <ele>264.7</ele>
        <time>2021-01-31T14:24:18Z</time>
      </trkpt>
      <trkpt lat="38.728226" lon="0.162878">
        <ele>264.2</ele>
        <time>2021-01-31T14:24:18Z</time>
      </trkpt>
      <trkpt lat="38.728247" lon="0.162874">
        <ele>263.9</ele>
        <time>2021-01-31T14:24:19Z</time>
      </trkpt>
      <trkpt lat="38.728908" lon="0.162676">
        <ele>260.6</ele>
        <time>2021-01-31T14:24:25Z</time>
      </trkpt>
      <trkpt lat="38.729008" lon="0.162626">
        <ele>260</ele>
        <time>2021-01-31T14:24:26Z</time>
      </trkpt>
      <trkpt lat="38.729092" lon="0.162593">
        <ele>259.9</ele>
        <time>2021-01-31T14:24:27Z</time>
      </trkpt>
      <trkpt lat="38.729258" lon="0.162527">
        <ele>259.5</ele>
        <time>2021-01-31T14:24:29Z</time>
      </trkpt>
      <trkpt lat="38.72933" lon="0.162499">
        <ele>259.2</ele>
        <time>2021-01-31T14:24:30Z</time>
      </trkpt>
      <trkpt lat="38.73026" lon="0.162164">
        <ele>259.5</ele>
        <time>2021-01-31T14:24:45Z</time>
      </trkpt>
      <trkpt lat="38.73093" lon="0.161917">
        <ele>261.4</ele>
        <time>2021-01-31T14:25:03Z</time>
      </trkpt>
      <trkpt lat="38.731609" lon="0.161667">
        <ele>264.2</ele>
        <time>2021-01-31T14:25:25Z</time>
      </trkpt>
      <trkpt lat="38.73191" lon="0.161556">
        <ele>265.6</ele>
        <time>2021-01-31T14:25:35Z</time>
      </trkpt>
      <trkpt lat="38.732179" lon="0.161348">
        <ele>266.9</ele>
        <time>2021-01-31T14:25:45Z</time>
      </trkpt>
      <trkpt lat="38.732244" lon="0.161216">
        <ele>267.3</ele>
        <time>2021-01-31T14:25:48Z</time>
      </trkpt>
      <trkpt lat="38.732252" lon="0.161053">
        <ele>267.7</ele>
        <time>2021-01-31T14:25:52Z</time>
      </trkpt>
      <trkpt lat="38.732198" lon="0.160878">
        <ele>268.1</ele>
        <time>2021-01-31T14:25:55Z</time>
      </trkpt>
      <trkpt lat="38.731917" lon="0.160544">
        <ele>268.6</ele>
        <time>2021-01-31T14:26:03Z</time>
      </trkpt>
      <trkpt lat="38.731198" lon="0.159978">
        <ele>267.4</ele>
        <time>2021-01-31T14:26:13Z</time>
      </trkpt>
      <trkpt lat="38.729218" lon="0.158775">
        <ele>254.2</ele>
        <time>2021-01-31T14:26:33Z</time>
      </trkpt>
      <trkpt lat="38.728415" lon="0.158132">
        <ele>245.6</ele>
        <time>2021-01-31T14:26:41Z</time>
      </trkpt>
      <trkpt lat="38.72812" lon="0.157943">
        <ele>241.4</ele>
        <time>2021-01-31T14:26:44Z</time>
      </trkpt>
      <trkpt lat="38.72763" lon="0.157742">
        <ele>234.6</ele>
        <time>2021-01-31T14:26:48Z</time>
      </trkpt>
      <trkpt lat="38.72737" lon="0.157479">
        <ele>230.4</ele>
        <time>2021-01-31T14:26:51Z</time>
      </trkpt>
      <trkpt lat="38.727182" lon="0.157047">
        <ele>225.4</ele>
        <time>2021-01-31T14:26:54Z</time>
      </trkpt>
      <trkpt lat="38.727155" lon="0.156913">
        <ele>224</ele>
        <time>2021-01-31T14:26:55Z</time>
      </trkpt>
      <trkpt lat="38.727156" lon="0.156535">
        <ele>220.1</ele>
        <time>2021-01-31T14:26:58Z</time>
      </trkpt>
      <trkpt lat="38.727111" lon="0.156347">
        <ele>217.8</ele>
        <time>2021-01-31T14:26:59Z</time>
      </trkpt>
      <trkpt lat="38.727062" lon="0.156264">
        <ele>216.5</ele>
        <time>2021-01-31T14:27:00Z</time>
      </trkpt>
      <trkpt lat="38.726903" lon="0.156148">
        <ele>214.7</ele>
        <time>2021-01-31T14:27:01Z</time>
      </trkpt>
      <trkpt lat="38.726588" lon="0.155924">
        <ele>210.2</ele>
        <time>2021-01-31T14:27:04Z</time>
      </trkpt>
      <trkpt lat="38.726589" lon="0.155864">
        <ele>210.1</ele>
        <time>2021-01-31T14:27:05Z</time>
      </trkpt>
      <trkpt lat="38.726609" lon="0.15582">
        <ele>208.7</ele>
        <time>2021-01-31T14:27:05Z</time>
      </trkpt>
      <trkpt lat="38.727401" lon="0.155636">
        <ele>199.8</ele>
        <time>2021-01-31T14:27:12Z</time>
      </trkpt>
      <trkpt lat="38.727624" lon="0.155537">
        <ele>199.2</ele>
        <time>2021-01-31T14:27:15Z</time>
      </trkpt>
      <trkpt lat="38.727682" lon="0.155427">
        <ele>197.3</ele>
        <time>2021-01-31T14:27:15Z</time>
      </trkpt>
      <trkpt lat="38.727674" lon="0.155317">
        <ele>196.7</ele>
        <time>2021-01-31T14:27:16Z</time>
      </trkpt>
      <trkpt lat="38.727515" lon="0.155093">
        <ele>194.2</ele>
        <time>2021-01-31T14:27:18Z</time>
      </trkpt>
      <trkpt lat="38.726998" lon="0.154626">
        <ele>187.8</ele>
        <time>2021-01-31T14:27:24Z</time>
      </trkpt>
      <trkpt lat="38.726903" lon="0.154362">
        <ele>185.2</ele>
        <time>2021-01-31T14:27:26Z</time>
      </trkpt>
      <trkpt lat="38.726948" lon="0.154185">
        <ele>184.3</ele>
        <time>2021-01-31T14:27:27Z</time>
      </trkpt>
      <trkpt lat="38.727038" lon="0.154035">
        <ele>181.8</ele>
        <time>2021-01-31T14:27:28Z</time>
      </trkpt>
      <trkpt lat="38.727156" lon="0.154131">
        <ele>181.1</ele>
        <time>2021-01-31T14:27:30Z</time>
      </trkpt>
      <trkpt lat="38.727271" lon="0.154224">
        <ele>180.4</ele>
        <time>2021-01-31T14:27:32Z</time>
      </trkpt>
      <trkpt lat="38.727283" lon="0.154233">
        <ele>180.2</ele>
        <time>2021-01-31T14:27:32Z</time>
      </trkpt>
      <trkpt lat="38.727326" lon="0.154262">
        <ele>178.9</ele>
        <time>2021-01-31T14:27:33Z</time>
      </trkpt>
      <trkpt lat="38.727549" lon="0.154283">
        <ele>177.8</ele>
        <time>2021-01-31T14:27:36Z</time>
      </trkpt>
      <trkpt lat="38.728317" lon="0.153903">
        <ele>172.2</ele>
        <time>2021-01-31T14:27:46Z</time>
      </trkpt>
      <trkpt lat="38.728373" lon="0.153881">
        <ele>171</ele>
        <time>2021-01-31T14:27:47Z</time>
      </trkpt>
      <trkpt lat="38.728423" lon="0.153869">
        <ele>171</ele>
        <time>2021-01-31T14:27:48Z</time>
      </trkpt>
      <trkpt lat="38.728687" lon="0.153858">
        <ele>169.7</ele>
        <time>2021-01-31T14:27:52Z</time>
      </trkpt>
      <trkpt lat="38.729018" lon="0.154001">
        <ele>168.4</ele>
        <time>2021-01-31T14:27:57Z</time>
      </trkpt>
      <trkpt lat="38.729245" lon="0.154129">
        <ele>167.4</ele>
        <time>2021-01-31T14:28:00Z</time>
      </trkpt>
      <trkpt lat="38.729441" lon="0.154256">
        <ele>166.1</ele>
        <time>2021-01-31T14:28:03Z</time>
      </trkpt>
      <trkpt lat="38.729658" lon="0.15443">
        <ele>165.2</ele>
        <time>2021-01-31T14:28:07Z</time>
      </trkpt>
      <trkpt lat="38.730266" lon="0.155113">
        <ele>162.2</ele>
        <time>2021-01-31T14:28:18Z</time>
      </trkpt>
      <trkpt lat="38.730518" lon="0.155386">
        <ele>160.8</ele>
        <time>2021-01-31T14:28:23Z</time>
      </trkpt>
      <trkpt lat="38.730567" lon="0.155446">
        <ele>160.3</ele>
        <time>2021-01-31T14:28:24Z</time>
      </trkpt>
      <trkpt lat="38.731074" lon="0.155869">
        <ele>156.3</ele>
        <time>2021-01-31T14:28:31Z</time>
      </trkpt>
      <trkpt lat="38.731274" lon="0.155951">
        <ele>154.4</ele>
        <time>2021-01-31T14:28:34Z</time>
      </trkpt>
      <trkpt lat="38.73134" lon="0.155955">
        <ele>153.9</ele>
        <time>2021-01-31T14:28:35Z</time>
      </trkpt>
      <trkpt lat="38.731696" lon="0.155995">
        <ele>150.4</ele>
        <time>2021-01-31T14:28:39Z</time>
      </trkpt>
      <trkpt lat="38.732083" lon="0.155748">
        <ele>146</ele>
        <time>2021-01-31T14:28:44Z</time>
      </trkpt>
      <trkpt lat="38.73229" lon="0.155605">
        <ele>143.5</ele>
        <time>2021-01-31T14:28:47Z</time>
      </trkpt>
      <trkpt lat="38.732526" lon="0.155388">
        <ele>139.9</ele>
        <time>2021-01-31T14:28:51Z</time>
      </trkpt>
      <trkpt lat="38.732688" lon="0.155248">
        <ele>137.5</ele>
        <time>2021-01-31T14:28:53Z</time>
      </trkpt>
      <trkpt lat="38.732879" lon="0.155083">
        <ele>134.5</ele>
        <time>2021-01-31T14:28:56Z</time>
      </trkpt>
      <trkpt lat="38.732997" lon="0.15498">
        <ele>132.3</ele>
        <time>2021-01-31T14:28:57Z</time>
      </trkpt>
      <trkpt lat="38.733249" lon="0.154732">
        <ele>127.8</ele>
        <time>2021-01-31T14:29:01Z</time>
      </trkpt>
      <trkpt lat="38.733383" lon="0.154603">
        <ele>125.5</ele>
        <time>2021-01-31T14:29:03Z</time>
      </trkpt>
      <trkpt lat="38.733569" lon="0.154359">
        <ele>122.1</ele>
        <time>2021-01-31T14:29:06Z</time>
      </trkpt>
      <trkpt lat="38.733707" lon="0.154178">
        <ele>119.3</ele>
        <time>2021-01-31T14:29:09Z</time>
      </trkpt>
      <trkpt lat="38.734012" lon="0.154014">
        <ele>114.9</ele>
        <time>2021-01-31T14:29:13Z</time>
      </trkpt>
      <trkpt lat="38.734597" lon="0.153639">
        <ele>107.4</ele>
        <time>2021-01-31T14:29:20Z</time>
      </trkpt>
      <trkpt lat="38.734769" lon="0.153463">
        <ele>105.3</ele>
        <time>2021-01-31T14:29:23Z</time>
      </trkpt>
      <trkpt lat="38.734991" lon="0.153246">
        <ele>102.8</ele>
        <time>2021-01-31T14:29:27Z</time>
      </trkpt>
      <trkpt lat="38.735091" lon="0.153132">
        <ele>101.6</ele>
        <time>2021-01-31T14:29:28Z</time>
      </trkpt>
      <trkpt lat="38.735269" lon="0.152915">
        <ele>100</ele>
        <time>2021-01-31T14:29:31Z</time>
      </trkpt>
      <trkpt lat="38.735602" lon="0.152717">
        <ele>97.7</ele>
        <time>2021-01-31T14:29:36Z</time>
      </trkpt>
      <trkpt lat="38.736072" lon="0.152395">
        <ele>94.3</ele>
        <time>2021-01-31T14:29:43Z</time>
      </trkpt>
      <trkpt lat="38.736441" lon="0.152606">
        <ele>92.3</ele>
        <time>2021-01-31T14:29:47Z</time>
      </trkpt>
      <trkpt lat="38.73651" lon="0.152636">
        <ele>92.1</ele>
        <time>2021-01-31T14:29:48Z</time>
      </trkpt>
      <trkpt lat="38.736583" lon="0.152658">
        <ele>91.8</ele>
        <time>2021-01-31T14:29:48Z</time>
      </trkpt>
      <trkpt lat="38.736691" lon="0.15268">
        <ele>91.3</ele>
        <time>2021-01-31T14:29:49Z</time>
      </trkpt>
      <trkpt lat="38.736818" lon="0.15269">
        <ele>90.9</ele>
        <time>2021-01-31T14:29:51Z</time>
      </trkpt>
      <trkpt lat="38.737635" lon="0.152694">
        <ele>88</ele>
        <time>2021-01-31T14:29:59Z</time>
      </trkpt>
      <trkpt lat="38.737693" lon="0.152692">
        <ele>87.7</ele>
        <time>2021-01-31T14:29:59Z</time>
      </trkpt>
      <trkpt lat="38.737822" lon="0.152687">
        <ele>87.2</ele>
        <time>2021-01-31T14:30:01Z</time>
      </trkpt>
      <trkpt lat="38.737991" lon="0.152687">
        <ele>86.8</ele>
        <time>2021-01-31T14:30:02Z</time>
      </trkpt>
      <trkpt lat="38.738164" lon="0.152687">
        <ele>86</ele>
        <time>2021-01-31T14:30:04Z</time>
      </trkpt>
      <trkpt lat="38.738515" lon="0.152626">
        <ele>84.9</ele>
        <time>2021-01-31T14:30:08Z</time>
      </trkpt>
      <trkpt lat="38.738684" lon="0.152511">
        <ele>84.4</ele>
        <time>2021-01-31T14:30:10Z</time>
      </trkpt>
      <trkpt lat="38.738844" lon="0.152383">
        <ele>83.7</ele>
        <time>2021-01-31T14:30:12Z</time>
      </trkpt>
      <trkpt lat="38.739211" lon="0.15209">
        <ele>82.4</ele>
        <time>2021-01-31T14:30:16Z</time>
      </trkpt>
      <trkpt lat="38.739528" lon="0.151838">
        <ele>81.5</ele>
        <time>2021-01-31T14:30:20Z</time>
      </trkpt>
      <trkpt lat="38.739859" lon="0.151607">
        <ele>80.7</ele>
        <time>2021-01-31T14:30:24Z</time>
      </trkpt>
      <trkpt lat="38.740912" lon="0.150966">
        <ele>78.4</ele>
        <time>2021-01-31T14:30:37Z</time>
      </trkpt>
      <trkpt lat="38.74295" lon="0.150114">
        <ele>72.8</ele>
        <time>2021-01-31T14:30:59Z</time>
      </trkpt>
      <trkpt lat="38.743265" lon="0.149943">
        <ele>71.9</ele>
        <time>2021-01-31T14:31:03Z</time>
      </trkpt>
      <trkpt lat="38.743502" lon="0.149893">
        <ele>71.2</ele>
        <time>2021-01-31T14:31:05Z</time>
      </trkpt>
      <trkpt lat="38.743822" lon="0.149897">
        <ele>70.2</ele>
        <time>2021-01-31T14:31:09Z</time>
      </trkpt>
      <trkpt lat="38.744471" lon="0.150087">
        <ele>68.2</ele>
        <time>2021-01-31T14:31:15Z</time>
      </trkpt>
      <trkpt lat="38.745113" lon="0.150062">
        <ele>66.4</ele>
        <time>2021-01-31T14:31:22Z</time>
      </trkpt>
      <trkpt lat="38.745178" lon="0.150045">
        <ele>66.2</ele>
        <time>2021-01-31T14:31:23Z</time>
      </trkpt>
      <trkpt lat="38.745253" lon="0.150011">
        <ele>65.9</ele>
        <time>2021-01-31T14:31:24Z</time>
      </trkpt>
      <trkpt lat="38.745941" lon="0.149662">
        <ele>63.8</ele>
        <time>2021-01-31T14:31:31Z</time>
      </trkpt>
      <trkpt lat="38.747155" lon="0.149295">
        <ele>59.6</ele>
        <time>2021-01-31T14:31:44Z</time>
      </trkpt>
      <trkpt lat="38.747979" lon="0.148942">
        <ele>57.2</ele>
        <time>2021-01-31T14:31:53Z</time>
      </trkpt>
      <trkpt lat="38.748399" lon="0.148941">
        <ele>56.3</ele>
        <time>2021-01-31T14:31:57Z</time>
      </trkpt>
      <trkpt lat="38.748413" lon="0.148945">
        <ele>56.1</ele>
        <time>2021-01-31T14:31:57Z</time>
      </trkpt>
      <trkpt lat="38.748546" lon="0.148983">
        <ele>56</ele>
        <time>2021-01-31T14:31:59Z</time>
      </trkpt>
      <trkpt lat="38.748689" lon="0.149071">
        <ele>55.8</ele>
        <time>2021-01-31T14:32:01Z</time>
      </trkpt>
      <trkpt lat="38.748743" lon="0.14912">
        <ele>55.5</ele>
        <time>2021-01-31T14:32:02Z</time>
      </trkpt>
      <trkpt lat="38.749076" lon="0.149422">
        <ele>54.7</ele>
        <time>2021-01-31T14:32:06Z</time>
      </trkpt>
      <trkpt lat="38.749268" lon="0.149599">
        <ele>54.4</ele>
        <time>2021-01-31T14:32:09Z</time>
      </trkpt>
      <trkpt lat="38.749539" lon="0.149779">
        <ele>53.9</ele>
        <time>2021-01-31T14:32:12Z</time>
      </trkpt>
      <trkpt lat="38.749999" lon="0.150047">
        <ele>53.3</ele>
        <time>2021-01-31T14:32:18Z</time>
      </trkpt>
      <trkpt lat="38.750183" lon="0.150069">
        <ele>53</ele>
        <time>2021-01-31T14:32:20Z</time>
      </trkpt>
      <trkpt lat="38.75111" lon="0.150064">
        <ele>51.6</ele>
        <time>2021-01-31T14:32:31Z</time>
      </trkpt>
      <trkpt lat="38.751472" lon="0.150141">
        <ele>51.2</ele>
        <time>2021-01-31T14:32:35Z</time>
      </trkpt>
      <trkpt lat="38.751759" lon="0.150175">
        <ele>50.8</ele>
        <time>2021-01-31T14:32:39Z</time>
      </trkpt>
      <trkpt lat="38.752516" lon="0.150047">
        <ele>50.7</ele>
        <time>2021-01-31T14:32:50Z</time>
      </trkpt>
      <trkpt lat="38.7529" lon="0.149973">
        <ele>50.8</ele>
        <time>2021-01-31T14:32:56Z</time>
      </trkpt>
      <trkpt lat="38.753245" lon="0.149907">
        <ele>51</ele>
        <time>2021-01-31T14:33:02Z</time>
      </trkpt>
      <trkpt lat="38.753806" lon="0.149796">
        <ele>51.1</ele>
        <time>2021-01-31T14:33:11Z</time>
      </trkpt>
      <trkpt lat="38.754481" lon="0.149555">
        <ele>50.3</ele>
        <time>2021-01-31T14:33:19Z</time>
      </trkpt>
      <trkpt lat="38.754571" lon="0.149522">
        <ele>50.2</ele>
        <time>2021-01-31T14:33:20Z</time>
      </trkpt>
      <trkpt lat="38.754818" lon="0.149428">
        <ele>49.6</ele>
        <time>2021-01-31T14:33:23Z</time>
      </trkpt>
      <trkpt lat="38.756195" lon="0.148912">
        <ele>45</ele>
        <time>2021-01-31T14:33:37Z</time>
      </trkpt>
      <trkpt lat="38.75651" lon="0.148817">
        <ele>44</ele>
        <time>2021-01-31T14:33:41Z</time>
      </trkpt>
      <trkpt lat="38.756716" lon="0.14879">
        <ele>43.4</ele>
        <time>2021-01-31T14:33:43Z</time>
      </trkpt>
      <trkpt lat="38.757107" lon="0.148759">
        <ele>42.4</ele>
        <time>2021-01-31T14:33:47Z</time>
      </trkpt>
      <trkpt lat="38.7573" lon="0.148721">
        <ele>42</ele>
        <time>2021-01-31T14:33:49Z</time>
      </trkpt>
      <trkpt lat="38.757357" lon="0.148709">
        <ele>41.8</ele>
        <time>2021-01-31T14:33:50Z</time>
      </trkpt>
      <trkpt lat="38.757496" lon="0.148682">
        <ele>41.5</ele>
        <time>2021-01-31T14:33:51Z</time>
      </trkpt>
      <trkpt lat="38.757852" lon="0.148586">
        <ele>40.7</ele>
        <time>2021-01-31T14:33:55Z</time>
      </trkpt>
      <trkpt lat="38.757919" lon="0.148568">
        <ele>40.6</ele>
        <time>2021-01-31T14:33:56Z</time>
      </trkpt>
      <trkpt lat="38.758419" lon="0.148433">
        <ele>39.7</ele>
        <time>2021-01-31T14:34:02Z</time>
      </trkpt>
      <trkpt lat="38.758487" lon="0.148423">
        <ele>39.6</ele>
        <time>2021-01-31T14:34:02Z</time>
      </trkpt>
      <trkpt lat="38.759393" lon="0.148318">
        <ele>38.1</ele>
        <time>2021-01-31T14:34:13Z</time>
      </trkpt>
      <trkpt lat="38.760151" lon="0.148133">
        <ele>36.4</ele>
        <time>2021-01-31T14:34:21Z</time>
      </trkpt>
      <trkpt lat="38.76072" lon="0.147962">
        <ele>35.3</ele>
        <time>2021-01-31T14:34:27Z</time>
      </trkpt>
      <trkpt lat="38.761318" lon="0.147817">
        <ele>34.2</ele>
        <time>2021-01-31T14:34:34Z</time>
      </trkpt>
      <trkpt lat="38.761914" lon="0.147676">
        <ele>33.4</ele>
        <time>2021-01-31T14:34:41Z</time>
      </trkpt>
      <trkpt lat="38.762048" lon="0.147649">
        <ele>33.2</ele>
        <time>2021-01-31T14:34:43Z</time>
      </trkpt>
      <trkpt lat="38.762231" lon="0.1476">
        <ele>33.1</ele>
        <time>2021-01-31T14:34:45Z</time>
      </trkpt>
      <trkpt lat="38.762553" lon="0.147502">
        <ele>32.9</ele>
        <time>2021-01-31T14:34:50Z</time>
      </trkpt>
      <trkpt lat="38.762886" lon="0.147401">
        <ele>32.8</ele>
        <time>2021-01-31T14:34:54Z</time>
      </trkpt>
      <trkpt lat="38.76402" lon="0.147053">
        <ele>32.6</ele>
        <time>2021-01-31T14:35:11Z</time>
      </trkpt>
      <trkpt lat="38.764182" lon="0.147012">
        <ele>32.5</ele>
        <time>2021-01-31T14:35:13Z</time>
      </trkpt>
      <trkpt lat="38.764306" lon="0.146996">
        <ele>32.5</ele>
        <time>2021-01-31T14:35:15Z</time>
      </trkpt>
      <trkpt lat="38.764647" lon="0.146933">
        <ele>32.4</ele>
        <time>2021-01-31T14:35:20Z</time>
      </trkpt>
      <trkpt lat="38.764779" lon="0.14689">
        <ele>32.4</ele>
        <time>2021-01-31T14:35:22Z</time>
      </trkpt>
      <trkpt lat="38.764871" lon="0.146854">
        <ele>32.3</ele>
        <time>2021-01-31T14:35:23Z</time>
      </trkpt>
      <trkpt lat="38.765942" lon="0.146513">
        <ele>31.3</ele>
        <time>2021-01-31T14:35:37Z</time>
      </trkpt>
      <trkpt lat="38.766292" lon="0.146527">
        <ele>31</ele>
        <time>2021-01-31T14:35:41Z</time>
      </trkpt>
      <trkpt lat="38.76669" lon="0.146666">
        <ele>30.6</ele>
        <time>2021-01-31T14:35:46Z</time>
      </trkpt>
      <trkpt lat="38.766774" lon="0.14673">
        <ele>30.4</ele>
        <time>2021-01-31T14:35:47Z</time>
      </trkpt>
      <trkpt lat="38.767111" lon="0.146972">
        <ele>30.1</ele>
        <time>2021-01-31T14:35:52Z</time>
      </trkpt>
      <trkpt lat="38.767648" lon="0.147364">
        <ele>29.6</ele>
        <time>2021-01-31T14:35:59Z</time>
      </trkpt>
      <trkpt lat="38.76784" lon="0.147517">
        <ele>29.4</ele>
        <time>2021-01-31T14:36:02Z</time>
      </trkpt>
      <trkpt lat="38.76811" lon="0.147728">
        <ele>29.2</ele>
        <time>2021-01-31T14:36:06Z</time>
      </trkpt>
      <trkpt lat="38.768381" lon="0.147918">
        <ele>29</ele>
        <time>2021-01-31T14:36:10Z</time>
      </trkpt>
      <trkpt lat="38.768506" lon="0.147992">
        <ele>28.8</ele>
        <time>2021-01-31T14:36:12Z</time>
      </trkpt>
      <trkpt lat="38.768868" lon="0.148174">
        <ele>28.2</ele>
        <time>2021-01-31T14:36:16Z</time>
      </trkpt>
      <trkpt lat="38.769205" lon="0.148314">
        <ele>27.4</ele>
        <time>2021-01-31T14:36:20Z</time>
      </trkpt>
      <trkpt lat="38.769454" lon="0.148417">
        <ele>26.8</ele>
        <time>2021-01-31T14:36:23Z</time>
      </trkpt>
      <trkpt lat="38.769823" lon="0.14857">
        <ele>26</ele>
        <time>2021-01-31T14:36:27Z</time>
      </trkpt>
      <trkpt lat="38.769951" lon="0.148651">
        <ele>25.6</ele>
        <time>2021-01-31T14:36:29Z</time>
      </trkpt>
      <trkpt lat="38.770135" lon="0.148763">
        <ele>25.3</ele>
        <time>2021-01-31T14:36:31Z</time>
      </trkpt>
      <trkpt lat="38.770206" lon="0.148865">
        <ele>25.1</ele>
        <time>2021-01-31T14:36:32Z</time>
      </trkpt>
      <trkpt lat="38.770248" lon="0.148934">
        <ele>24.8</ele>
        <time>2021-01-31T14:36:33Z</time>
      </trkpt>
      <trkpt lat="38.770255" lon="0.148961">
        <ele>24.8</ele>
        <time>2021-01-31T14:36:33Z</time>
      </trkpt>
      <trkpt lat="38.770282" lon="0.149012">
        <ele>24.7</ele>
        <time>2021-01-31T14:36:34Z</time>
      </trkpt>
      <trkpt lat="38.770313" lon="0.149045">
        <ele>24.7</ele>
        <time>2021-01-31T14:36:34Z</time>
      </trkpt>
      <trkpt lat="38.770345" lon="0.149079">
        <ele>24.6</ele>
        <time>2021-01-31T14:36:35Z</time>
      </trkpt>
      <trkpt lat="38.770447" lon="0.149114">
        <ele>24.5</ele>
        <time>2021-01-31T14:36:36Z</time>
      </trkpt>
      <trkpt lat="38.770518" lon="0.1491">
        <ele>24.2</ele>
        <time>2021-01-31T14:36:37Z</time>
      </trkpt>
      <trkpt lat="38.77053" lon="0.149097">
        <ele>24.2</ele>
        <time>2021-01-31T14:36:37Z</time>
      </trkpt>
      <trkpt lat="38.7706" lon="0.149045">
        <ele>24.1</ele>
        <time>2021-01-31T14:36:38Z</time>
      </trkpt>
      <trkpt lat="38.770628" lon="0.149008">
        <ele>24</ele>
        <time>2021-01-31T14:36:38Z</time>
      </trkpt>
      <trkpt lat="38.770666" lon="0.14892">
        <ele>23.9</ele>
        <time>2021-01-31T14:36:39Z</time>
      </trkpt>
      <trkpt lat="38.770679" lon="0.148821">
        <ele>23.8</ele>
        <time>2021-01-31T14:36:40Z</time>
      </trkpt>
      <trkpt lat="38.770674" lon="0.148769">
        <ele>23.7</ele>
        <time>2021-01-31T14:36:41Z</time>
      </trkpt>
      <trkpt lat="38.770608" lon="0.148616">
        <ele>23.3</ele>
        <time>2021-01-31T14:36:42Z</time>
      </trkpt>
      <trkpt lat="38.770599" lon="0.148611">
        <ele>23.3</ele>
        <time>2021-01-31T14:36:42Z</time>
      </trkpt>
      <trkpt lat="38.77087" lon="0.14901">
        <ele>47.6</ele>
        <time>2021-01-31 12:09:09</time>
      </trkpt>
      <trkpt lat="38.77087" lon="0.14901">
        <ele>47.6</ele>
        <time>2021-01-31 12:09:10</time>
      </trkpt>
      <trkpt lat="38.77081" lon="0.14894">
        <ele>48.6</ele>
        <time>2021-01-31 12:09:11</time>
      </trkpt>
      <trkpt lat="38.77078" lon="0.1489">
        <ele>48.8</ele>
        <time>2021-01-31 12:09:12</time>
      </trkpt>
      <trkpt lat="38.77076" lon="0.14886">
        <ele>48.8</ele>
        <time>2021-01-31 12:09:13</time>
      </trkpt>
      <trkpt lat="38.77075" lon="0.14881">
        <ele>48.8</ele>
        <time>2021-01-31 12:09:14</time>
      </trkpt>
      <trkpt lat="38.77074" lon="0.14876">
        <ele>48.8</ele>
        <time>2021-01-31 12:09:15</time>
      </trkpt>
      <trkpt lat="38.77072" lon="0.14871">
        <ele>49</ele>
        <time>2021-01-31 12:09:16</time>
      </trkpt>
      <trkpt lat="38.7707" lon="0.14867">
        <ele>49</ele>
        <time>2021-01-31 12:09:17</time>
      </trkpt>
      <trkpt lat="38.77067" lon="0.14864">
        <ele>49</ele>
        <time>2021-01-31 12:09:18</time>
      </trkpt>
      <trkpt lat="38.77064" lon="0.14861">
        <ele>49</ele>
        <time>2021-01-31 12:09:19</time>
      </trkpt>
      <trkpt lat="38.77061" lon="0.14858">
        <ele>50</ele>
        <time>2021-01-31 12:09:20</time>
      </trkpt>
      <trkpt lat="38.77058" lon="0.14856">
        <ele>50</ele>
        <time>2021-01-31 12:09:21</time>
      </trkpt>
      <trkpt lat="38.77054" lon="0.14854">
        <ele>50</ele>
        <time>2021-01-31 12:09:22</time>
      </trkpt>
      <trkpt lat="38.7705" lon="0.14852">
        <ele>49.4</ele>
        <time>2021-01-31 12:09:23</time>
      </trkpt>
      <trkpt lat="38.77048" lon="0.14848">
        <ele>49.4</ele>
        <time>2021-01-31 12:09:24</time>
      </trkpt>
      <trkpt lat="38.77045" lon="0.14844">
        <ele>49.4</ele>
        <time>2021-01-31 12:09:25</time>
      </trkpt>
      <trkpt lat="38.77043" lon="0.1484">
        <ele>49.4</ele>
        <time>2021-01-31 12:09:26</time>
      </trkpt>
      <trkpt lat="38.7704" lon="0.14836">
        <ele>49.4</ele>
        <time>2021-01-31 12:09:27</time>
      </trkpt>
      <trkpt lat="38.77037" lon="0.14832">
        <ele>49.6</ele>
        <time>2021-01-31 12:09:28</time>
      </trkpt>
      <trkpt lat="38.77034" lon="0.14829">
        <ele>49.6</ele>
        <time>2021-01-31 12:09:29</time>
      </trkpt>
      <trkpt lat="38.77031" lon="0.14825">
        <ele>49.6</ele>
        <time>2021-01-31 12:09:30</time>
      </trkpt>
      <trkpt lat="38.77028" lon="0.14822">
        <ele>49.6</ele>
        <time>2021-01-31 12:09:31</time>
      </trkpt>
      <trkpt lat="38.77025" lon="0.14819">
        <ele>49.8</ele>
        <time>2021-01-31 12:09:32</time>
      </trkpt>
      <trkpt lat="38.77022" lon="0.14815">
        <ele>49.8</ele>
        <time>2021-01-31 12:09:33</time>
      </trkpt>
      <trkpt lat="38.77019" lon="0.14811">
        <ele>49.8</ele>
        <time>2021-01-31 12:09:34</time>
      </trkpt>
      <trkpt lat="38.77019" lon="0.14811">
        <ele>49</ele>
        <time>2021-01-31 12:09:35</time>
      </trkpt>
      <trkpt lat="38.77017" lon="0.14802">
        <ele>49.4</ele>
        <time>2021-01-31 12:09:36</time>
      </trkpt>
      <trkpt lat="38.77016" lon="0.14797">
        <ele>49.4</ele>
        <time>2021-01-31 12:09:37</time>
      </trkpt>
      <trkpt lat="38.77015" lon="0.14793">
        <ele>49.4</ele>
        <time>2021-01-31 12:09:38</time>
      </trkpt>
      <trkpt lat="38.77016" lon="0.14788">
        <ele>49.4</ele>
        <time>2021-01-31 12:09:39</time>
      </trkpt>
      <trkpt lat="38.77016" lon="0.14783">
        <ele>49.2</ele>
        <time>2021-01-31 12:09:40</time>
      </trkpt>
      <trkpt lat="38.77017" lon="0.14778">
        <ele>49.2</ele>
        <time>2021-01-31 12:09:41</time>
      </trkpt>
      <trkpt lat="38.77018" lon="0.14773">
        <ele>49.2</ele>
        <time>2021-01-31 12:09:42</time>
      </trkpt>
      <trkpt lat="38.77019" lon="0.14767">
        <ele>49.2</ele>
        <time>2021-01-31 12:09:43</time>
      </trkpt>
      <trkpt lat="38.7702" lon="0.14761">
        <ele>49.4</ele>
        <time>2021-01-31 12:09:44</time>
      </trkpt>
      <trkpt lat="38.77022" lon="0.14756">
        <ele>49.4</ele>
        <time>2021-01-31 12:09:45</time>
      </trkpt>
      <trkpt lat="38.77023" lon="0.1475">
        <ele>49.4</ele>
        <time>2021-01-31 12:09:46</time>
      </trkpt>
      <trkpt lat="38.77024" lon="0.14744">
        <ele>50.4</ele>
        <time>2021-01-31 12:09:47</time>
      </trkpt>
      <trkpt lat="38.77025" lon="0.14739">
        <ele>50.6</ele>
        <time>2021-01-31 12:09:48</time>
      </trkpt>
      <trkpt lat="38.77026" lon="0.14734">
        <ele>50.6</ele>
        <time>2021-01-31 12:09:49</time>
      </trkpt>
      <trkpt lat="38.77027" lon="0.14728">
        <ele>50.6</ele>
        <time>2021-01-31 12:09:50</time>
      </trkpt>
      <trkpt lat="38.77028" lon="0.14723">
        <ele>50.6</ele>
        <time>2021-01-31 12:09:51</time>
      </trkpt>
      <trkpt lat="38.77028" lon="0.14718">
        <ele>50.6</ele>
        <time>2021-01-31 12:09:52</time>
      </trkpt>
      <trkpt lat="38.77028" lon="0.14712">
        <ele>50.6</ele>
        <time>2021-01-31 12:09:53</time>
      </trkpt>
      <trkpt lat="38.77028" lon="0.14706">
        <ele>50.6</ele>
        <time>2021-01-31 12:09:54</time>
      </trkpt>
      <trkpt lat="38.77028" lon="0.14701">
        <ele>50.6</ele>
        <time>2021-01-31 12:09:55</time>
      </trkpt>
      <trkpt lat="38.77027" lon="0.14695">
        <ele>50.4</ele>
        <time>2021-01-31 12:09:56</time>
      </trkpt>
      <trkpt lat="38.77027" lon="0.14689">
        <ele>51.2</ele>
        <time>2021-01-31 12:09:57</time>
      </trkpt>
      <trkpt lat="38.77025" lon="0.14683">
        <ele>51.2</ele>
        <time>2021-01-31 12:09:58</time>
      </trkpt>
      <trkpt lat="38.77024" lon="0.14677">
        <ele>51.2</ele>
        <time>2021-01-31 12:09:59</time>
      </trkpt>
      <trkpt lat="38.77023" lon="0.14671">
        <ele>50.2</ele>
        <time>2021-01-31 12:10:00</time>
      </trkpt>
      <trkpt lat="38.77022" lon="0.14666">
        <ele>50.4</ele>
        <time>2021-01-31 12:10:01</time>
      </trkpt>
      <trkpt lat="38.7702" lon="0.1466">
        <ele>50.4</ele>
        <time>2021-01-31 12:10:02</time>
      </trkpt>
      <trkpt lat="38.77019" lon="0.14655">
        <ele>50.6</ele>
        <time>2021-01-31 12:10:03</time>
      </trkpt>
      <trkpt lat="38.77017" lon="0.14649">
        <ele>50.8</ele>
        <time>2021-01-31 12:10:04</time>
      </trkpt>
      <trkpt lat="38.77016" lon="0.14644">
        <ele>50.8</ele>
        <time>2021-01-31 12:10:05</time>
      </trkpt>
      <trkpt lat="38.77013" lon="0.1464">
        <ele>50.8</ele>
        <time>2021-01-31 12:10:06</time>
      </trkpt>
      <trkpt lat="38.7701" lon="0.14636">
        <ele>51.6</ele>
        <time>2021-01-31 12:10:07</time>
      </trkpt>
      <trkpt lat="38.77007" lon="0.14632">
        <ele>51</ele>
        <time>2021-01-31 12:10:08</time>
      </trkpt>
      <trkpt lat="38.77005" lon="0.14627">
        <ele>51</ele>
        <time>2021-01-31 12:10:09</time>
      </trkpt>
      <trkpt lat="38.77004" lon="0.14621">
        <ele>51</ele>
        <time>2021-01-31 12:10:10</time>
      </trkpt>
      <trkpt lat="38.77003" lon="0.14616">
        <ele>51</ele>
        <time>2021-01-31 12:10:11</time>
      </trkpt>
      <trkpt lat="38.77003" lon="0.1461">
        <ele>50.8</ele>
        <time>2021-01-31 12:10:12</time>
      </trkpt>
      <trkpt lat="38.77003" lon="0.14603">
        <ele>50.8</ele>
        <time>2021-01-31 12:10:13</time>
      </trkpt>
      <trkpt lat="38.77003" lon="0.14597">
        <ele>50.8</ele>
        <time>2021-01-31 12:10:14</time>
      </trkpt>
      <trkpt lat="38.77003" lon="0.14591">
        <ele>50.8</ele>
        <time>2021-01-31 12:10:15</time>
      </trkpt>
      <trkpt lat="38.77004" lon="0.14585">
        <ele>50.8</ele>
        <time>2021-01-31 12:10:16</time>
      </trkpt>
      <trkpt lat="38.77004" lon="0.14578">
        <ele>50.8</ele>
        <time>2021-01-31 12:10:17</time>
      </trkpt>
      <trkpt lat="38.77004" lon="0.14572">
        <ele>50.8</ele>
        <time>2021-01-31 12:10:18</time>
      </trkpt>
      <trkpt lat="38.77005" lon="0.14566">
        <ele>50.8</ele>
        <time>2021-01-31 12:10:19</time>
      </trkpt>
      <trkpt lat="38.77005" lon="0.1456">
        <ele>50.4</ele>
        <time>2021-01-31 12:10:20</time>
      </trkpt>
      <trkpt lat="38.77006" lon="0.14554">
        <ele>50.4</ele>
        <time>2021-01-31 12:10:21</time>
      </trkpt>
      <trkpt lat="38.77007" lon="0.14548">
        <ele>50.4</ele>
        <time>2021-01-31 12:10:22</time>
      </trkpt>
      <trkpt lat="38.77008" lon="0.14542">
        <ele>51.4</ele>
        <time>2021-01-31 12:10:23</time>
      </trkpt>
      <trkpt lat="38.77009" lon="0.14537">
        <ele>52</ele>
        <time>2021-01-31 12:10:24</time>
      </trkpt>
      <trkpt lat="38.7701" lon="0.14533">
        <ele>52</ele>
        <time>2021-01-31 12:10:25</time>
      </trkpt>
      <trkpt lat="38.77011" lon="0.14527">
        <ele>52</ele>
        <time>2021-01-31 12:10:26</time>
      </trkpt>
      <trkpt lat="38.77012" lon="0.14522">
        <ele>52</ele>
        <time>2021-01-31 12:10:27</time>
      </trkpt>
      <trkpt lat="38.77013" lon="0.14517">
        <ele>52.2</ele>
        <time>2021-01-31 12:10:28</time>
      </trkpt>
      <trkpt lat="38.77014" lon="0.14512">
        <ele>52.2</ele>
        <time>2021-01-31 12:10:29</time>
      </trkpt>
      <trkpt lat="38.77015" lon="0.14506">
        <ele>52.2</ele>
        <time>2021-01-31 12:10:30</time>
      </trkpt>
      <trkpt lat="38.77016" lon="0.145">
        <ele>51.2</ele>
        <time>2021-01-31 12:10:31</time>
      </trkpt>
      <trkpt lat="38.77017" lon="0.14495">
        <ele>51.8</ele>
        <time>2021-01-31 12:10:32</time>
      </trkpt>
      <trkpt lat="38.77017" lon="0.1449">
        <ele>51.8</ele>
        <time>2021-01-31 12:10:33</time>
      </trkpt>
      <trkpt lat="38.77018" lon="0.14484">
        <ele>51.8</ele>
        <time>2021-01-31 12:10:34</time>
      </trkpt>
      <trkpt lat="38.77019" lon="0.14479">
        <ele>52.2</ele>
        <time>2021-01-31 12:10:35</time>
      </trkpt>
      <trkpt lat="38.7702" lon="0.14473">
        <ele>52</ele>
        <time>2021-01-31 12:10:36</time>
      </trkpt>
      <trkpt lat="38.77021" lon="0.14467">
        <ele>52</ele>
        <time>2021-01-31 12:10:37</time>
      </trkpt>
      <trkpt lat="38.77022" lon="0.14461">
        <ele>52</ele>
        <time>2021-01-31 12:10:38</time>
      </trkpt>
      <trkpt lat="38.77023" lon="0.14456">
        <ele>51.8</ele>
        <time>2021-01-31 12:10:39</time>
      </trkpt>
      <trkpt lat="38.77024" lon="0.1445">
        <ele>53</ele>
        <time>2021-01-31 12:10:40</time>
      </trkpt>
      <trkpt lat="38.77024" lon="0.14444">
        <ele>53</ele>
        <time>2021-01-31 12:10:41</time>
      </trkpt>
      <trkpt lat="38.77025" lon="0.14438">
        <ele>53</ele>
        <time>2021-01-31 12:10:42</time>
      </trkpt>
      <trkpt lat="38.77025" lon="0.14433">
        <ele>53</ele>
        <time>2021-01-31 12:10:43</time>
      </trkpt>
      <trkpt lat="38.77025" lon="0.14433">
        <ele>53</ele>
        <time>2021-01-31 12:10:44</time>
      </trkpt>
      <trkpt lat="38.77027" lon="0.14422">
        <ele>52.2</ele>
        <time>2021-01-31 12:10:45</time>
      </trkpt>
      <trkpt lat="38.77027" lon="0.14416">
        <ele>52.2</ele>
        <time>2021-01-31 12:10:46</time>
      </trkpt>
      <trkpt lat="38.77028" lon="0.14411">
        <ele>52.2</ele>
        <time>2021-01-31 12:10:47</time>
      </trkpt>
      <trkpt lat="38.77028" lon="0.14406">
        <ele>53.2</ele>
        <time>2021-01-31 12:10:48</time>
      </trkpt>
      <trkpt lat="38.77028" lon="0.14401">
        <ele>53.8</ele>
        <time>2021-01-31 12:10:49</time>
      </trkpt>
      <trkpt lat="38.77028" lon="0.14395">
        <ele>53.8</ele>
        <time>2021-01-31 12:10:50</time>
      </trkpt>
      <trkpt lat="38.77027" lon="0.1439">
        <ele>53.8</ele>
        <time>2021-01-31 12:10:51</time>
      </trkpt>
      <trkpt lat="38.77026" lon="0.14385">
        <ele>52.8</ele>
        <time>2021-01-31 12:10:52</time>
      </trkpt>
      <trkpt lat="38.77025" lon="0.14379">
        <ele>50.8</ele>
        <time>2021-01-31 12:10:53</time>
      </trkpt>
      <trkpt lat="38.77024" lon="0.14374">
        <ele>50.8</ele>
        <time>2021-01-31 12:10:54</time>
      </trkpt>
      <trkpt lat="38.77023" lon="0.14368">
        <ele>50.8</ele>
        <time>2021-01-31 12:10:55</time>
      </trkpt>
      <trkpt lat="38.77021" lon="0.14363">
        <ele>51.6</ele>
        <time>2021-01-31 12:10:56</time>
      </trkpt>
      <trkpt lat="38.77021" lon="0.14363">
        <ele>53</ele>
        <time>2021-01-31 12:10:57</time>
      </trkpt>
      <trkpt lat="38.7702" lon="0.14351">
        <ele>53</ele>
        <time>2021-01-31 12:10:58</time>
      </trkpt>
      <trkpt lat="38.7702" lon="0.14345">
        <ele>53</ele>
        <time>2021-01-31 12:10:59</time>
      </trkpt>
      <trkpt lat="38.7702" lon="0.14339">
        <ele>53</ele>
        <time>2021-01-31 12:11:00</time>
      </trkpt>
      <trkpt lat="38.77021" lon="0.14332">
        <ele>53.6</ele>
        <time>2021-01-31 12:11:01</time>
      </trkpt>
      <trkpt lat="38.77021" lon="0.14326">
        <ele>53.6</ele>
        <time>2021-01-31 12:11:02</time>
      </trkpt>
      <trkpt lat="38.77021" lon="0.14319">
        <ele>53.6</ele>
        <time>2021-01-31 12:11:03</time>
      </trkpt>
      <trkpt lat="38.7702" lon="0.14313">
        <ele>53.6</ele>
        <time>2021-01-31 12:11:04</time>
      </trkpt>
      <trkpt lat="38.7702" lon="0.14306">
        <ele>53</ele>
        <time>2021-01-31 12:11:05</time>
      </trkpt>
      <trkpt lat="38.77018" lon="0.143">
        <ele>53</ele>
        <time>2021-01-31 12:11:06</time>
      </trkpt>
      <trkpt lat="38.77018" lon="0.143">
        <ele>53</ele>
        <time>2021-01-31 12:11:07</time>
      </trkpt>
      <trkpt lat="38.77017" lon="0.14287">
        <ele>52.8</ele>
        <time>2021-01-31 12:11:08</time>
      </trkpt>
      <trkpt lat="38.77017" lon="0.14287">
        <ele>52.2</ele>
        <time>2021-01-31 12:11:09</time>
      </trkpt>
      <trkpt lat="38.77017" lon="0.1428">
        <ele>52.2</ele>
        <time>2021-01-31 12:11:10</time>
      </trkpt>
      <trkpt lat="38.77017" lon="0.14273">
        <ele>52.2</ele>
        <time>2021-01-31 12:11:11</time>
      </trkpt>
      <trkpt lat="38.77017" lon="0.14267">
        <ele>52.2</ele>
        <time>2021-01-31 12:11:12</time>
      </trkpt>
      <trkpt lat="38.77017" lon="0.1426">
        <ele>51.4</ele>
        <time>2021-01-31 12:11:13</time>
      </trkpt>
      <trkpt lat="38.77017" lon="0.14253">
        <ele>51.4</ele>
        <time>2021-01-31 12:11:14</time>
      </trkpt>
      <trkpt lat="38.77017" lon="0.14247">
        <ele>51.4</ele>
        <time>2021-01-31 12:11:15</time>
      </trkpt>
      <trkpt lat="38.77018" lon="0.1424">
        <ele>51.4</ele>
        <time>2021-01-31 12:11:16</time>
      </trkpt>
      <trkpt lat="38.77019" lon="0.14233">
        <ele>52</ele>
        <time>2021-01-31 12:11:17</time>
      </trkpt>
      <trkpt lat="38.7702" lon="0.14226">
        <ele>52</ele>
        <time>2021-01-31 12:11:18</time>
      </trkpt>
      <trkpt lat="38.7702" lon="0.14219">
        <ele>52</ele>
        <time>2021-01-31 12:11:19</time>
      </trkpt>
      <trkpt lat="38.77021" lon="0.14212">
        <ele>52</ele>
        <time>2021-01-31 12:11:20</time>
      </trkpt>
      <trkpt lat="38.77021" lon="0.14205">
        <ele>51.6</ele>
        <time>2021-01-31 12:11:21</time>
      </trkpt>
      <trkpt lat="38.77021" lon="0.14197">
        <ele>51.6</ele>
        <time>2021-01-31 12:11:22</time>
      </trkpt>
      <trkpt lat="38.7702" lon="0.1419">
        <ele>51.6</ele>
        <time>2021-01-31 12:11:23</time>
      </trkpt>
      <trkpt lat="38.7702" lon="0.14183">
        <ele>52.4</ele>
        <time>2021-01-31 12:11:24</time>
      </trkpt>
      <trkpt lat="38.77019" lon="0.14176">
        <ele>52.2</ele>
        <time>2021-01-31 12:11:25</time>
      </trkpt>
      <trkpt lat="38.77018" lon="0.14169">
        <ele>52.2</ele>
        <time>2021-01-31 12:11:26</time>
      </trkpt>
      <trkpt lat="38.77017" lon="0.14162">
        <ele>52.2</ele>
        <time>2021-01-31 12:11:27</time>
      </trkpt>
      <trkpt lat="38.77016" lon="0.14155">
        <ele>53.2</ele>
        <time>2021-01-31 12:11:28</time>
      </trkpt>
      <trkpt lat="38.77015" lon="0.14149">
        <ele>54</ele>
        <time>2021-01-31 12:11:29</time>
      </trkpt>
      <trkpt lat="38.77013" lon="0.14143">
        <ele>54</ele>
        <time>2021-01-31 12:11:30</time>
      </trkpt>
      <trkpt lat="38.77011" lon="0.14138">
        <ele>54</ele>
        <time>2021-01-31 12:11:31</time>
      </trkpt>
      <trkpt lat="38.7701" lon="0.14133">
        <ele>54.6</ele>
        <time>2021-01-31 12:11:32</time>
      </trkpt>
      <trkpt lat="38.7701" lon="0.14128">
        <ele>54.8</ele>
        <time>2021-01-31 12:11:33</time>
      </trkpt>
      <trkpt lat="38.77009" lon="0.14123">
        <ele>54.8</ele>
        <time>2021-01-31 12:11:34</time>
      </trkpt>
      <trkpt lat="38.77008" lon="0.14118">
        <ele>54.8</ele>
        <time>2021-01-31 12:11:35</time>
      </trkpt>
      <trkpt lat="38.77007" lon="0.14114">
        <ele>55.8</ele>
        <time>2021-01-31 12:11:36</time>
      </trkpt>
      <trkpt lat="38.77006" lon="0.1411">
        <ele>56.4</ele>
        <time>2021-01-31 12:11:37</time>
      </trkpt>
      <trkpt lat="38.77005" lon="0.14106">
        <ele>56.4</ele>
        <time>2021-01-31 12:11:38</time>
      </trkpt>
      <trkpt lat="38.77004" lon="0.14102">
        <ele>56.4</ele>
        <time>2021-01-31 12:11:39</time>
      </trkpt>
      <trkpt lat="38.77003" lon="0.14097">
        <ele>56.4</ele>
        <time>2021-01-31 12:11:40</time>
      </trkpt>
      <trkpt lat="38.77003" lon="0.14093">
        <ele>56.4</ele>
        <time>2021-01-31 12:11:41</time>
      </trkpt>
      <trkpt lat="38.77002" lon="0.14088">
        <ele>56.4</ele>
        <time>2021-01-31 12:11:42</time>
      </trkpt>
      <trkpt lat="38.77001" lon="0.14082">
        <ele>56.4</ele>
        <time>2021-01-31 12:11:43</time>
      </trkpt>
      <trkpt lat="38.77" lon="0.14077">
        <ele>56.4</ele>
        <time>2021-01-31 12:11:44</time>
      </trkpt>
      <trkpt lat="38.76998" lon="0.14071">
        <ele>55.4</ele>
        <time>2021-01-31 12:11:45</time>
      </trkpt>
      <trkpt lat="38.76997" lon="0.14065">
        <ele>55.4</ele>
        <time>2021-01-31 12:11:46</time>
      </trkpt>
      <trkpt lat="38.76996" lon="0.14059">
        <ele>55.4</ele>
        <time>2021-01-31 12:11:47</time>
      </trkpt>
      <trkpt lat="38.76995" lon="0.14052">
        <ele>54.4</ele>
        <time>2021-01-31 12:11:48</time>
      </trkpt>
      <trkpt lat="38.76994" lon="0.14045">
        <ele>52.8</ele>
        <time>2021-01-31 12:11:49</time>
      </trkpt>
      <trkpt lat="38.76993" lon="0.14039">
        <ele>52.8</ele>
        <time>2021-01-31 12:11:50</time>
      </trkpt>
      <trkpt lat="38.76993" lon="0.14035">
        <ele>52.8</ele>
        <time>2021-01-31 12:11:51</time>
      </trkpt>
      <trkpt lat="38.76994" lon="0.14032">
        <ele>52.8</ele>
        <time>2021-01-31 12:11:52</time>
      </trkpt>
      <trkpt lat="38.76996" lon="0.14029">
        <ele>53.4</ele>
        <time>2021-01-31 12:11:53</time>
      </trkpt>
      <trkpt lat="38.77" lon="0.14027">
        <ele>53.4</ele>
        <time>2021-01-31 12:11:54</time>
      </trkpt>
      <trkpt lat="38.77004" lon="0.14026">
        <ele>53.4</ele>
        <time>2021-01-31 12:11:55</time>
      </trkpt>
      <trkpt lat="38.77009" lon="0.14026">
        <ele>52.4</ele>
        <time>2021-01-31 12:11:56</time>
      </trkpt>
      <trkpt lat="38.77015" lon="0.14026">
        <ele>53</ele>
        <time>2021-01-31 12:11:57</time>
      </trkpt>
      <trkpt lat="38.7702" lon="0.14026">
        <ele>53</ele>
        <time>2021-01-31 12:11:58</time>
      </trkpt>
      <trkpt lat="38.77026" lon="0.14026">
        <ele>53</ele>
        <time>2021-01-31 12:11:59</time>
      </trkpt>
      <trkpt lat="38.77032" lon="0.14026">
        <ele>52</ele>
        <time>2021-01-31 12:12:00</time>
      </trkpt>
      <trkpt lat="38.77038" lon="0.14025">
        <ele>50.4</ele>
        <time>2021-01-31 12:12:01</time>
      </trkpt>
      <trkpt lat="38.77045" lon="0.14024">
        <ele>50.4</ele>
        <time>2021-01-31 12:12:02</time>
      </trkpt>
      <trkpt lat="38.77052" lon="0.14022">
        <ele>50.4</ele>
        <time>2021-01-31 12:12:03</time>
      </trkpt>
      <trkpt lat="38.7706" lon="0.14021">
        <ele>49.4</ele>
        <time>2021-01-31 12:12:04</time>
      </trkpt>
      <trkpt lat="38.77068" lon="0.14019">
        <ele>47.4</ele>
        <time>2021-01-31 12:12:05</time>
      </trkpt>
      <trkpt lat="38.77076" lon="0.14015">
        <ele>47.4</ele>
        <time>2021-01-31 12:12:06</time>
      </trkpt>
      <trkpt lat="38.77083" lon="0.14009">
        <ele>47.4</ele>
        <time>2021-01-31 12:12:07</time>
      </trkpt>
      <trkpt lat="38.77091" lon="0.14003">
        <ele>46.4</ele>
        <time>2021-01-31 12:12:08</time>
      </trkpt>
      <trkpt lat="38.77098" lon="0.13997">
        <ele>42.8</ele>
        <time>2021-01-31 12:12:09</time>
      </trkpt>
      <trkpt lat="38.77105" lon="0.1399">
        <ele>42.8</ele>
        <time>2021-01-31 12:12:10</time>
      </trkpt>
      <trkpt lat="38.77113" lon="0.13984">
        <ele>42.8</ele>
        <time>2021-01-31 12:12:11</time>
      </trkpt>
      <trkpt lat="38.7712" lon="0.13978">
        <ele>42.8</ele>
        <time>2021-01-31 12:12:12</time>
      </trkpt>
      <trkpt lat="38.77128" lon="0.13973">
        <ele>43.6</ele>
        <time>2021-01-31 12:12:13</time>
      </trkpt>
      <trkpt lat="38.77135" lon="0.13969">
        <ele>43.6</ele>
        <time>2021-01-31 12:12:14</time>
      </trkpt>
      <trkpt lat="38.77142" lon="0.13966">
        <ele>43.6</ele>
        <time>2021-01-31 12:12:15</time>
      </trkpt>
      <trkpt lat="38.77149" lon="0.13963">
        <ele>44.6</ele>
        <time>2021-01-31 12:12:16</time>
      </trkpt>
      <trkpt lat="38.77156" lon="0.13961">
        <ele>45.6</ele>
        <time>2021-01-31 12:12:17</time>
      </trkpt>
      <trkpt lat="38.77162" lon="0.13958">
        <ele>45.6</ele>
        <time>2021-01-31 12:12:18</time>
      </trkpt>
      <trkpt lat="38.77168" lon="0.13955">
        <ele>45.6</ele>
        <time>2021-01-31 12:12:19</time>
      </trkpt>
      <trkpt lat="38.77173" lon="0.13953">
        <ele>46.6</ele>
        <time>2021-01-31 12:12:20</time>
      </trkpt>
      <trkpt lat="38.77178" lon="0.13951">
        <ele>47.6</ele>
        <time>2021-01-31 12:12:21</time>
      </trkpt>
      <trkpt lat="38.77182" lon="0.1395">
        <ele>47.6</ele>
        <time>2021-01-31 12:12:22</time>
      </trkpt>
      <trkpt lat="38.77186" lon="0.13948">
        <ele>47.6</ele>
        <time>2021-01-31 12:12:23</time>
      </trkpt>
      <trkpt lat="38.7719" lon="0.13946">
        <ele>48.6</ele>
        <time>2021-01-31 12:12:24</time>
      </trkpt>
      <trkpt lat="38.77192" lon="0.13943">
        <ele>50.4</ele>
        <time>2021-01-31 12:12:25</time>
      </trkpt>
      <trkpt lat="38.77192" lon="0.13939">
        <ele>50.4</ele>
        <time>2021-01-31 12:12:26</time>
      </trkpt>
      <trkpt lat="38.77192" lon="0.13935">
        <ele>50.4</ele>
        <time>2021-01-31 12:12:27</time>
      </trkpt>
      <trkpt lat="38.77191" lon="0.13932">
        <ele>50</ele>
        <time>2021-01-31 12:12:28</time>
      </trkpt>
      <trkpt lat="38.77191" lon="0.13932">
        <ele>50</ele>
        <time>2021-01-31 12:12:29</time>
      </trkpt>
      <trkpt lat="38.77191" lon="0.13932">
        <ele>50</ele>
        <time>2021-01-31 12:12:30</time>
      </trkpt>
      <trkpt lat="38.77187" lon="0.1392">
        <ele>50</ele>
        <time>2021-01-31 12:12:31</time>
      </trkpt>
      <trkpt lat="38.77185" lon="0.13916">
        <ele>50</ele>
        <time>2021-01-31 12:12:32</time>
      </trkpt>
      <trkpt lat="38.77183" lon="0.13912">
        <ele>49.8</ele>
        <time>2021-01-31 12:12:33</time>
      </trkpt>
      <trkpt lat="38.77182" lon="0.13907">
        <ele>49.8</ele>
        <time>2021-01-31 12:12:34</time>
      </trkpt>
      <trkpt lat="38.7718" lon="0.13903">
        <ele>49.8</ele>
        <time>2021-01-31 12:12:35</time>
      </trkpt>
      <trkpt lat="38.77179" lon="0.13898">
        <ele>50.2</ele>
        <time>2021-01-31 12:12:36</time>
      </trkpt>
      <trkpt lat="38.77177" lon="0.13893">
        <ele>49.8</ele>
        <time>2021-01-31 12:12:37</time>
      </trkpt>
      <trkpt lat="38.77176" lon="0.13888">
        <ele>49.8</ele>
        <time>2021-01-31 12:12:38</time>
      </trkpt>
      <trkpt lat="38.77174" lon="0.13882">
        <ele>49.8</ele>
        <time>2021-01-31 12:12:39</time>
      </trkpt>
      <trkpt lat="38.77173" lon="0.13877">
        <ele>49.8</ele>
        <time>2021-01-31 12:12:40</time>
      </trkpt>
      <trkpt lat="38.77171" lon="0.13871">
        <ele>48.4</ele>
        <time>2021-01-31 12:12:41</time>
      </trkpt>
      <trkpt lat="38.7717" lon="0.13866">
        <ele>48.4</ele>
        <time>2021-01-31 12:12:42</time>
      </trkpt>
      <trkpt lat="38.77169" lon="0.1386">
        <ele>48.4</ele>
        <time>2021-01-31 12:12:43</time>
      </trkpt>
      <trkpt lat="38.77168" lon="0.13855">
        <ele>48.4</ele>
        <time>2021-01-31 12:12:44</time>
      </trkpt>
      <trkpt lat="38.77167" lon="0.13851">
        <ele>48.8</ele>
        <time>2021-01-31 12:12:45</time>
      </trkpt>
      <trkpt lat="38.77167" lon="0.13846">
        <ele>48.8</ele>
        <time>2021-01-31 12:12:46</time>
      </trkpt>
      <trkpt lat="38.77167" lon="0.13842">
        <ele>48.8</ele>
        <time>2021-01-31 12:12:47</time>
      </trkpt>
      <trkpt lat="38.77166" lon="0.13838">
        <ele>48.8</ele>
        <time>2021-01-31 12:12:48</time>
      </trkpt>
      <trkpt lat="38.77165" lon="0.13835">
        <ele>49.4</ele>
        <time>2021-01-31 12:12:49</time>
      </trkpt>
      <trkpt lat="38.77166" lon="0.13832">
        <ele>49.4</ele>
        <time>2021-01-31 12:12:50</time>
      </trkpt>
      <trkpt lat="38.77166" lon="0.1383">
        <ele>49.4</ele>
        <time>2021-01-31 12:12:51</time>
      </trkpt>
      <trkpt lat="38.77166" lon="0.1383">
        <ele>49.4</ele>
        <time>2021-01-31 12:12:52</time>
      </trkpt>
      <trkpt lat="38.77167" lon="0.13826">
        <ele>49.4</ele>
        <time>2021-01-31 12:12:53</time>
      </trkpt>
      <trkpt lat="38.77167" lon="0.13826">
        <ele>49.4</ele>
        <time>2021-01-31 12:12:54</time>
      </trkpt>
      <trkpt lat="38.77167" lon="0.13826">
        <ele>49.4</ele>
        <time>2021-01-31 12:12:55</time>
      </trkpt>
      <trkpt lat="38.7717" lon="0.13823">
        <ele>50</ele>
        <time>2021-01-31 12:12:56</time>
      </trkpt>
      <trkpt lat="38.7717" lon="0.13823">
        <ele>49.6</ele>
        <time>2021-01-31 12:12:57</time>
      </trkpt>
      <trkpt lat="38.7717" lon="0.13823">
        <ele>49.6</ele>
        <time>2021-01-31 12:12:58</time>
      </trkpt>
      <trkpt lat="38.77172" lon="0.13827">
        <ele>49.6</ele>
        <time>2021-01-31 12:12:59</time>
      </trkpt>
      <trkpt lat="38.77172" lon="0.13827">
        <ele>49.6</ele>
        <time>2021-01-31 12:13:00</time>
      </trkpt>
      <trkpt lat="38.77169" lon="0.13829">
        <ele>49.2</ele>
        <time>2021-01-31 12:13:01</time>
      </trkpt>
      <trkpt lat="38.77166" lon="0.13829">
        <ele>49.2</ele>
        <time>2021-01-31 12:13:02</time>
      </trkpt>
      <trkpt lat="38.77163" lon="0.1383">
        <ele>49.2</ele>
        <time>2021-01-31 12:13:03</time>
      </trkpt>
      <trkpt lat="38.77163" lon="0.1383">
        <ele>49.6</ele>
        <time>2021-01-31 12:13:04</time>
      </trkpt>
      <trkpt lat="38.77157" lon="0.1383">
        <ele>49.6</ele>
        <time>2021-01-31 12:13:05</time>
      </trkpt>
      <trkpt lat="38.77157" lon="0.1383">
        <ele>48.2</ele>
        <time>2021-01-31 12:13:06</time>
      </trkpt>
      <trkpt lat="38.77153" lon="0.13825">
        <ele>48.2</ele>
        <time>2021-01-31 12:13:07</time>
      </trkpt>
      <trkpt lat="38.77153" lon="0.13825">
        <ele>48.2</ele>
        <time>2021-01-31 12:13:08</time>
      </trkpt>
      <trkpt lat="38.77151" lon="0.13817">
        <ele>48.2</ele>
        <time>2021-01-31 12:13:09</time>
      </trkpt>
      <trkpt lat="38.77151" lon="0.13817">
        <ele>48</ele>
        <time>2021-01-31 12:13:10</time>
      </trkpt>
      <trkpt lat="38.7715" lon="0.13808">
        <ele>48</ele>
        <time>2021-01-31 12:13:11</time>
      </trkpt>
      <trkpt lat="38.7715" lon="0.13808">
        <ele>48.2</ele>
        <time>2021-01-31 12:13:12</time>
      </trkpt>
      <trkpt lat="38.7715" lon="0.13798">
        <ele>48.2</ele>
        <time>2021-01-31 12:13:13</time>
      </trkpt>
      <trkpt lat="38.7715" lon="0.13798">
        <ele>46</ele>
        <time>2021-01-31 12:13:14</time>
      </trkpt>
      <trkpt lat="38.77151" lon="0.13789">
        <ele>46</ele>
        <time>2021-01-31 12:13:15</time>
      </trkpt>
      <trkpt lat="38.77151" lon="0.13789">
        <ele>47</ele>
        <time>2021-01-31 12:13:16</time>
      </trkpt>
      <trkpt lat="38.77153" lon="0.1378">
        <ele>47</ele>
        <time>2021-01-31 12:13:17</time>
      </trkpt>
      <trkpt lat="38.77153" lon="0.1378">
        <ele>47</ele>
        <time>2021-01-31 12:13:18</time>
      </trkpt>
      <trkpt lat="38.77154" lon="0.13771">
        <ele>47</ele>
        <time>2021-01-31 12:13:19</time>
      </trkpt>
      <trkpt lat="38.77154" lon="0.13771">
        <ele>48</ele>
        <time>2021-01-31 12:13:20</time>
      </trkpt>
      <trkpt lat="38.77156" lon="0.13761">
        <ele>48</ele>
        <time>2021-01-31 12:13:21</time>
      </trkpt>
      <trkpt lat="38.77156" lon="0.13761">
        <ele>47.8</ele>
        <time>2021-01-31 12:13:22</time>
      </trkpt>
      <trkpt lat="38.77157" lon="0.13751">
        <ele>47.8</ele>
        <time>2021-01-31 12:13:23</time>
      </trkpt>
      <trkpt lat="38.77157" lon="0.13751">
        <ele>48.2</ele>
        <time>2021-01-31 12:13:24</time>
      </trkpt>
      <trkpt lat="38.77158" lon="0.1374">
        <ele>48.2</ele>
        <time>2021-01-31 12:13:25</time>
      </trkpt>
      <trkpt lat="38.77158" lon="0.1374">
        <ele>48.2</ele>
        <time>2021-01-31 12:13:26</time>
      </trkpt>
      <trkpt lat="38.77156" lon="0.1373">
        <ele>48.2</ele>
        <time>2021-01-31 12:13:27</time>
      </trkpt>
      <trkpt lat="38.77156" lon="0.1373">
        <ele>49.2</ele>
        <time>2021-01-31 12:13:28</time>
      </trkpt>
      <trkpt lat="38.77153" lon="0.1372">
        <ele>49.2</ele>
        <time>2021-01-31 12:13:29</time>
      </trkpt>
      <trkpt lat="38.77153" lon="0.1372">
        <ele>48.4</ele>
        <time>2021-01-31 12:13:30</time>
      </trkpt>
      <trkpt lat="38.7715" lon="0.13711">
        <ele>48.4</ele>
        <time>2021-01-31 12:13:31</time>
      </trkpt>
      <trkpt lat="38.7715" lon="0.13711">
        <ele>48.4</ele>
        <time>2021-01-31 12:13:32</time>
      </trkpt>
      <trkpt lat="38.77147" lon="0.13702">
        <ele>48.4</ele>
        <time>2021-01-31 12:13:33</time>
      </trkpt>
      <trkpt lat="38.77147" lon="0.13702">
        <ele>49.4</ele>
        <time>2021-01-31 12:13:34</time>
      </trkpt>
      <trkpt lat="38.77142" lon="0.13692">
        <ele>49.4</ele>
        <time>2021-01-31 12:13:35</time>
      </trkpt>
      <trkpt lat="38.77142" lon="0.13692">
        <ele>49.4</ele>
        <time>2021-01-31 12:13:36</time>
      </trkpt>
      <trkpt lat="38.77142" lon="0.13692">
        <ele>49.4</ele>
        <time>2021-01-31 12:13:37</time>
      </trkpt>
      <trkpt lat="38.77142" lon="0.13692">
        <ele>48</ele>
        <time>2021-01-31 12:13:38</time>
      </trkpt>
      <trkpt lat="38.77131" lon="0.13672">
        <ele>48</ele>
        <time>2021-01-31 12:13:39</time>
      </trkpt>
      <trkpt lat="38.77128" lon="0.13668">
        <ele>48</ele>
        <time>2021-01-31 12:13:40</time>
      </trkpt>
      <trkpt lat="38.77124" lon="0.13663">
        <ele>48.4</ele>
        <time>2021-01-31 12:13:41</time>
      </trkpt>
      <trkpt lat="38.77121" lon="0.13659">
        <ele>48.4</ele>
        <time>2021-01-31 12:13:42</time>
      </trkpt>
      <trkpt lat="38.77121" lon="0.13659">
        <ele>48.4</ele>
        <time>2021-01-31 12:13:43</time>
      </trkpt>
      <trkpt lat="38.77121" lon="0.13659">
        <ele>48.4</ele>
        <time>2021-01-31 12:13:44</time>
      </trkpt>
      <trkpt lat="38.77121" lon="0.13659">
        <ele>50.6</ele>
        <time>2021-01-31 12:13:45</time>
      </trkpt>
      <trkpt lat="38.77107" lon="0.13646">
        <ele>50.6</ele>
        <time>2021-01-31 12:13:46</time>
      </trkpt>
      <trkpt lat="38.77103" lon="0.13644">
        <ele>50.6</ele>
        <time>2021-01-31 12:13:47</time>
      </trkpt>
      <trkpt lat="38.771" lon="0.13642">
        <ele>50</ele>
        <time>2021-01-31 12:13:48</time>
      </trkpt>
      <trkpt lat="38.77096" lon="0.1364">
        <ele>50</ele>
        <time>2021-01-31 12:13:49</time>
      </trkpt>
      <trkpt lat="38.77092" lon="0.13638">
        <ele>50</ele>
        <time>2021-01-31 12:13:50</time>
      </trkpt>
      <trkpt lat="38.77088" lon="0.13636">
        <ele>50</ele>
        <time>2021-01-31 12:13:51</time>
      </trkpt>
      <trkpt lat="38.77084" lon="0.13633">
        <ele>50</ele>
        <time>2021-01-31 12:13:52</time>
      </trkpt>
      <trkpt lat="38.7708" lon="0.13631">
        <ele>49.4</ele>
        <time>2021-01-31 12:13:53</time>
      </trkpt>
      <trkpt lat="38.77075" lon="0.13629">
        <ele>49.4</ele>
        <time>2021-01-31 12:13:54</time>
      </trkpt>
      <trkpt lat="38.77071" lon="0.13627">
        <ele>49.4</ele>
        <time>2021-01-31 12:13:55</time>
      </trkpt>
      <trkpt lat="38.77066" lon="0.13625">
        <ele>50</ele>
        <time>2021-01-31 12:13:56</time>
      </trkpt>
      <trkpt lat="38.77062" lon="0.13623">
        <ele>50.6</ele>
        <time>2021-01-31 12:13:57</time>
      </trkpt>
      <trkpt lat="38.77057" lon="0.13621">
        <ele>50.6</ele>
        <time>2021-01-31 12:13:58</time>
      </trkpt>
      <trkpt lat="38.77053" lon="0.13619">
        <ele>50.6</ele>
        <time>2021-01-31 12:13:59</time>
      </trkpt>
      <trkpt lat="38.77049" lon="0.13616">
        <ele>50.6</ele>
        <time>2021-01-31 12:14:00</time>
      </trkpt>
      <trkpt lat="38.77046" lon="0.13614">
        <ele>51.4</ele>
        <time>2021-01-31 12:14:01</time>
      </trkpt>
      <trkpt lat="38.77044" lon="0.13611">
        <ele>51.4</ele>
        <time>2021-01-31 12:14:02</time>
      </trkpt>
      <trkpt lat="38.77042" lon="0.13608">
        <ele>51.4</ele>
        <time>2021-01-31 12:14:03</time>
      </trkpt>
      <trkpt lat="38.77042" lon="0.13608">
        <ele>51.4</ele>
        <time>2021-01-31 12:14:04</time>
      </trkpt>
      <trkpt lat="38.77038" lon="0.13603">
        <ele>52.8</ele>
        <time>2021-01-31 12:14:05</time>
      </trkpt>
      <trkpt lat="38.77037" lon="0.136">
        <ele>52.8</ele>
        <time>2021-01-31 12:14:06</time>
      </trkpt>
      <trkpt lat="38.77035" lon="0.13597">
        <ele>52.8</ele>
        <time>2021-01-31 12:14:07</time>
      </trkpt>
      <trkpt lat="38.77034" lon="0.13594">
        <ele>53.2</ele>
        <time>2021-01-31 12:14:08</time>
      </trkpt>
      <trkpt lat="38.77033" lon="0.13591">
        <ele>53.6</ele>
        <time>2021-01-31 12:14:09</time>
      </trkpt>
      <trkpt lat="38.77033" lon="0.13587">
        <ele>53.6</ele>
        <time>2021-01-31 12:14:10</time>
      </trkpt>
      <trkpt lat="38.77033" lon="0.13584">
        <ele>53.6</ele>
        <time>2021-01-31 12:14:11</time>
      </trkpt>
      <trkpt lat="38.77033" lon="0.13581">
        <ele>53</ele>
        <time>2021-01-31 12:14:12</time>
      </trkpt>
      <trkpt lat="38.77034" lon="0.13576">
        <ele>53</ele>
        <time>2021-01-31 12:14:13</time>
      </trkpt>
      <trkpt lat="38.77034" lon="0.13572">
        <ele>53</ele>
        <time>2021-01-31 12:14:14</time>
      </trkpt>
      <trkpt lat="38.77035" lon="0.13568">
        <ele>53</ele>
        <time>2021-01-31 12:14:15</time>
      </trkpt>
      <trkpt lat="38.77035" lon="0.13563">
        <ele>53</ele>
        <time>2021-01-31 12:14:16</time>
      </trkpt>
      <trkpt lat="38.77035" lon="0.13558">
        <ele>52.6</ele>
        <time>2021-01-31 12:14:17</time>
      </trkpt>
      <trkpt lat="38.77035" lon="0.13553">
        <ele>52.6</ele>
        <time>2021-01-31 12:14:18</time>
      </trkpt>
      <trkpt lat="38.77036" lon="0.13548">
        <ele>52.6</ele>
        <time>2021-01-31 12:14:19</time>
      </trkpt>
      <trkpt lat="38.77036" lon="0.13543">
        <ele>53.4</ele>
        <time>2021-01-31 12:14:20</time>
      </trkpt>
      <trkpt lat="38.77037" lon="0.13537">
        <ele>53.4</ele>
        <time>2021-01-31 12:14:21</time>
      </trkpt>
      <trkpt lat="38.77037" lon="0.13532">
        <ele>53.4</ele>
        <time>2021-01-31 12:14:22</time>
      </trkpt>
      <trkpt lat="38.77038" lon="0.13527">
        <ele>53.4</ele>
        <time>2021-01-31 12:14:23</time>
      </trkpt>
      <trkpt lat="38.77038" lon="0.13522">
        <ele>53.4</ele>
        <time>2021-01-31 12:14:24</time>
      </trkpt>
      <trkpt lat="38.77039" lon="0.13516">
        <ele>54</ele>
        <time>2021-01-31 12:14:25</time>
      </trkpt>
      <trkpt lat="38.77039" lon="0.13511">
        <ele>54</ele>
        <time>2021-01-31 12:14:26</time>
      </trkpt>
      <trkpt lat="38.7704" lon="0.13506">
        <ele>54</ele>
        <time>2021-01-31 12:14:27</time>
      </trkpt>
      <trkpt lat="38.77041" lon="0.135">
        <ele>53</ele>
        <time>2021-01-31 12:14:28</time>
      </trkpt>
      <trkpt lat="38.77042" lon="0.13495">
        <ele>53.6</ele>
        <time>2021-01-31 12:14:29</time>
      </trkpt>
      <trkpt lat="38.77042" lon="0.1349">
        <ele>53.6</ele>
        <time>2021-01-31 12:14:30</time>
      </trkpt>
      <trkpt lat="38.77043" lon="0.13485">
        <ele>53.6</ele>
        <time>2021-01-31 12:14:31</time>
      </trkpt>
      <trkpt lat="38.77044" lon="0.1348">
        <ele>53.6</ele>
        <time>2021-01-31 12:14:32</time>
      </trkpt>
      <trkpt lat="38.77045" lon="0.13476">
        <ele>54</ele>
        <time>2021-01-31 12:14:33</time>
      </trkpt>
      <trkpt lat="38.77045" lon="0.13472">
        <ele>54</ele>
        <time>2021-01-31 12:14:34</time>
      </trkpt>
      <trkpt lat="38.77046" lon="0.13467">
        <ele>54</ele>
        <time>2021-01-31 12:14:35</time>
      </trkpt>
      <trkpt lat="38.77047" lon="0.13463">
        <ele>54.6</ele>
        <time>2021-01-31 12:14:36</time>
      </trkpt>
      <trkpt lat="38.77048" lon="0.13459">
        <ele>55.2</ele>
        <time>2021-01-31 12:14:37</time>
      </trkpt>
      <trkpt lat="38.77048" lon="0.13456">
        <ele>55.2</ele>
        <time>2021-01-31 12:14:38</time>
      </trkpt>
      <trkpt lat="38.77048" lon="0.13456">
        <ele>55.2</ele>
        <time>2021-01-31 12:14:39</time>
      </trkpt>
      <trkpt lat="38.77048" lon="0.13456">
        <ele>55.2</ele>
        <time>2021-01-31 12:14:40</time>
      </trkpt>
      <trkpt lat="38.77048" lon="0.13456">
        <ele>54</ele>
        <time>2021-01-31 12:14:41</time>
      </trkpt>
      <trkpt lat="38.7705" lon="0.13441">
        <ele>54</ele>
        <time>2021-01-31 12:14:42</time>
      </trkpt>
      <trkpt lat="38.77051" lon="0.13437">
        <ele>54</ele>
        <time>2021-01-31 12:14:43</time>
      </trkpt>
      <trkpt lat="38.77052" lon="0.13432">
        <ele>54.4</ele>
        <time>2021-01-31 12:14:44</time>
      </trkpt>
      <trkpt lat="38.77052" lon="0.13428">
        <ele>55.2</ele>
        <time>2021-01-31 12:14:45</time>
      </trkpt>
      <trkpt lat="38.77052" lon="0.13424">
        <ele>55.2</ele>
        <time>2021-01-31 12:14:46</time>
      </trkpt>
      <trkpt lat="38.77053" lon="0.1342">
        <ele>55.2</ele>
        <time>2021-01-31 12:14:47</time>
      </trkpt>
      <trkpt lat="38.77053" lon="0.13416">
        <ele>55</ele>
        <time>2021-01-31 12:14:48</time>
      </trkpt>
      <trkpt lat="38.77054" lon="0.13412">
        <ele>55.2</ele>
        <time>2021-01-31 12:14:49</time>
      </trkpt>
      <trkpt lat="38.77054" lon="0.13408">
        <ele>55.2</ele>
        <time>2021-01-31 12:14:50</time>
      </trkpt>
      <trkpt lat="38.77055" lon="0.13404">
        <ele>55.2</ele>
        <time>2021-01-31 12:14:51</time>
      </trkpt>
      <trkpt lat="38.77055" lon="0.13399">
        <ele>55.2</ele>
        <time>2021-01-31 12:14:52</time>
      </trkpt>
      <trkpt lat="38.77056" lon="0.13393">
        <ele>56</ele>
        <time>2021-01-31 12:14:53</time>
      </trkpt>
      <trkpt lat="38.77056" lon="0.13388">
        <ele>56</ele>
        <time>2021-01-31 12:14:54</time>
      </trkpt>
      <trkpt lat="38.77057" lon="0.13383">
        <ele>56</ele>
        <time>2021-01-31 12:14:55</time>
      </trkpt>
      <trkpt lat="38.77057" lon="0.13378">
        <ele>56.4</ele>
        <time>2021-01-31 12:14:56</time>
      </trkpt>
      <trkpt lat="38.77057" lon="0.13373">
        <ele>56.4</ele>
        <time>2021-01-31 12:14:57</time>
      </trkpt>
      <trkpt lat="38.77058" lon="0.13368">
        <ele>56.4</ele>
        <time>2021-01-31 12:14:58</time>
      </trkpt>
      <trkpt lat="38.77058" lon="0.13363">
        <ele>56.4</ele>
        <time>2021-01-31 12:14:59</time>
      </trkpt>
      <trkpt lat="38.77058" lon="0.13358">
        <ele>56.4</ele>
        <time>2021-01-31 12:15:00</time>
      </trkpt>
      <trkpt lat="38.77059" lon="0.13353">
        <ele>56.8</ele>
        <time>2021-01-31 12:15:01</time>
      </trkpt>
      <trkpt lat="38.77059" lon="0.13349">
        <ele>56.8</ele>
        <time>2021-01-31 12:15:02</time>
      </trkpt>
      <trkpt lat="38.77059" lon="0.13344">
        <ele>56.8</ele>
        <time>2021-01-31 12:15:03</time>
      </trkpt>
      <trkpt lat="38.7706" lon="0.13339">
        <ele>56.8</ele>
        <time>2021-01-31 12:15:04</time>
      </trkpt>
      <trkpt lat="38.7706" lon="0.13334">
        <ele>57.8</ele>
        <time>2021-01-31 12:15:05</time>
      </trkpt>
      <trkpt lat="38.7706" lon="0.13329">
        <ele>57.8</ele>
        <time>2021-01-31 12:15:06</time>
      </trkpt>
      <trkpt lat="38.7706" lon="0.13324">
        <ele>57.8</ele>
        <time>2021-01-31 12:15:07</time>
      </trkpt>
      <trkpt lat="38.7706" lon="0.13319">
        <ele>57.2</ele>
        <time>2021-01-31 12:15:08</time>
      </trkpt>
      <trkpt lat="38.77061" lon="0.13314">
        <ele>58</ele>
        <time>2021-01-31 12:15:09</time>
      </trkpt>
      <trkpt lat="38.77061" lon="0.13309">
        <ele>58</ele>
        <time>2021-01-31 12:15:10</time>
      </trkpt>
      <trkpt lat="38.77062" lon="0.13304">
        <ele>58</ele>
        <time>2021-01-31 12:15:11</time>
      </trkpt>
      <trkpt lat="38.77063" lon="0.133">
        <ele>57.4</ele>
        <time>2021-01-31 12:15:12</time>
      </trkpt>
      <trkpt lat="38.77064" lon="0.13295">
        <ele>59</ele>
        <time>2021-01-31 12:15:13</time>
      </trkpt>
      <trkpt lat="38.77065" lon="0.1329">
        <ele>59</ele>
        <time>2021-01-31 12:15:14</time>
      </trkpt>
      <trkpt lat="38.77066" lon="0.13285">
        <ele>59</ele>
        <time>2021-01-31 12:15:15</time>
      </trkpt>
      <trkpt lat="38.77067" lon="0.1328">
        <ele>59</ele>
        <time>2021-01-31 12:15:16</time>
      </trkpt>
      <trkpt lat="38.77067" lon="0.13275">
        <ele>58.6</ele>
        <time>2021-01-31 12:15:17</time>
      </trkpt>
      <trkpt lat="38.77068" lon="0.13271">
        <ele>58.6</ele>
        <time>2021-01-31 12:15:18</time>
      </trkpt>
      <trkpt lat="38.77069" lon="0.13266">
        <ele>58.6</ele>
        <time>2021-01-31 12:15:19</time>
      </trkpt>
      <trkpt lat="38.7707" lon="0.13261">
        <ele>58.2</ele>
        <time>2021-01-31 12:15:20</time>
      </trkpt>
      <trkpt lat="38.77071" lon="0.13257">
        <ele>57.6</ele>
        <time>2021-01-31 12:15:21</time>
      </trkpt>
      <trkpt lat="38.77072" lon="0.13252">
        <ele>57.6</ele>
        <time>2021-01-31 12:15:22</time>
      </trkpt>
      <trkpt lat="38.77073" lon="0.13248">
        <ele>57.6</ele>
        <time>2021-01-31 12:15:23</time>
      </trkpt>
      <trkpt lat="38.77075" lon="0.13243">
        <ele>57.6</ele>
        <time>2021-01-31 12:15:24</time>
      </trkpt>
      <trkpt lat="38.77076" lon="0.13239">
        <ele>58</ele>
        <time>2021-01-31 12:15:25</time>
      </trkpt>
      <trkpt lat="38.77077" lon="0.13235">
        <ele>58</ele>
        <time>2021-01-31 12:15:26</time>
      </trkpt>
      <trkpt lat="38.77078" lon="0.1323">
        <ele>58</ele>
        <time>2021-01-31 12:15:27</time>
      </trkpt>
      <trkpt lat="38.77079" lon="0.13226">
        <ele>59</ele>
        <time>2021-01-31 12:15:28</time>
      </trkpt>
      <trkpt lat="38.77079" lon="0.13222">
        <ele>59.4</ele>
        <time>2021-01-31 12:15:29</time>
      </trkpt>
      <trkpt lat="38.7708" lon="0.13217">
        <ele>59.4</ele>
        <time>2021-01-31 12:15:30</time>
      </trkpt>
      <trkpt lat="38.7708" lon="0.13212">
        <ele>59.4</ele>
        <time>2021-01-31 12:15:31</time>
      </trkpt>
      <trkpt lat="38.77081" lon="0.13208">
        <ele>60.4</ele>
        <time>2021-01-31 12:15:32</time>
      </trkpt>
      <trkpt lat="38.77082" lon="0.13204">
        <ele>60.4</ele>
        <time>2021-01-31 12:15:33</time>
      </trkpt>
      <trkpt lat="38.77082" lon="0.132">
        <ele>60.4</ele>
        <time>2021-01-31 12:15:34</time>
      </trkpt>
      <trkpt lat="38.77083" lon="0.13197">
        <ele>60.4</ele>
        <time>2021-01-31 12:15:35</time>
      </trkpt>
      <trkpt lat="38.77084" lon="0.13194">
        <ele>61.4</ele>
        <time>2021-01-31 12:15:36</time>
      </trkpt>
      <trkpt lat="38.77084" lon="0.1319">
        <ele>62.4</ele>
        <time>2021-01-31 12:15:37</time>
      </trkpt>
      <trkpt lat="38.77085" lon="0.13187">
        <ele>62.4</ele>
        <time>2021-01-31 12:15:38</time>
      </trkpt>
      <trkpt lat="38.77085" lon="0.13183">
        <ele>62.4</ele>
        <time>2021-01-31 12:15:39</time>
      </trkpt>
      <trkpt lat="38.77085" lon="0.13183">
        <ele>62.4</ele>
        <time>2021-01-31 12:15:40</time>
      </trkpt>
      <trkpt lat="38.77085" lon="0.13183">
        <ele>62.4</ele>
        <time>2021-01-31 12:15:41</time>
      </trkpt>
      <trkpt lat="38.77085" lon="0.13183">
        <ele>62</ele>
        <time>2021-01-31 12:15:42</time>
      </trkpt>
      <trkpt lat="38.77087" lon="0.13169">
        <ele>62</ele>
        <time>2021-01-31 12:15:43</time>
      </trkpt>
      <trkpt lat="38.77088" lon="0.13165">
        <ele>63</ele>
        <time>2021-01-31 12:15:44</time>
      </trkpt>
      <trkpt lat="38.77088" lon="0.13162">
        <ele>63.2</ele>
        <time>2021-01-31 12:15:45</time>
      </trkpt>
      <trkpt lat="38.77088" lon="0.13158">
        <ele>63.2</ele>
        <time>2021-01-31 12:15:46</time>
      </trkpt>
      <trkpt lat="38.77089" lon="0.13154">
        <ele>63.2</ele>
        <time>2021-01-31 12:15:47</time>
      </trkpt>
      <trkpt lat="38.77089" lon="0.13151">
        <ele>63.2</ele>
        <time>2021-01-31 12:15:48</time>
      </trkpt>
      <trkpt lat="38.7709" lon="0.13146">
        <ele>64.4</ele>
        <time>2021-01-31 12:15:49</time>
      </trkpt>
      <trkpt lat="38.7709" lon="0.13142">
        <ele>64.4</ele>
        <time>2021-01-31 12:15:50</time>
      </trkpt>
      <trkpt lat="38.77091" lon="0.13138">
        <ele>64.4</ele>
        <time>2021-01-31 12:15:51</time>
      </trkpt>
      <trkpt lat="38.77091" lon="0.13134">
        <ele>64.4</ele>
        <time>2021-01-31 12:15:52</time>
      </trkpt>
      <trkpt lat="38.77092" lon="0.13129">
        <ele>63.2</ele>
        <time>2021-01-31 12:15:53</time>
      </trkpt>
      <trkpt lat="38.77092" lon="0.13125">
        <ele>63.2</ele>
        <time>2021-01-31 12:15:54</time>
      </trkpt>
      <trkpt lat="38.77093" lon="0.1312">
        <ele>63.2</ele>
        <time>2021-01-31 12:15:55</time>
      </trkpt>
      <trkpt lat="38.77094" lon="0.13116">
        <ele>63.6</ele>
        <time>2021-01-31 12:15:56</time>
      </trkpt>
      <trkpt lat="38.77095" lon="0.13111">
        <ele>64</ele>
        <time>2021-01-31 12:15:57</time>
      </trkpt>
      <trkpt lat="38.77095" lon="0.13106">
        <ele>64</ele>
        <time>2021-01-31 12:15:58</time>
      </trkpt>
      <trkpt lat="38.77096" lon="0.13102">
        <ele>64</ele>
        <time>2021-01-31 12:15:59</time>
      </trkpt>
      <trkpt lat="38.77097" lon="0.13097">
        <ele>64.8</ele>
        <time>2021-01-31 12:16:00</time>
      </trkpt>
      <trkpt lat="38.77098" lon="0.13093">
        <ele>64</ele>
        <time>2021-01-31 12:16:01</time>
      </trkpt>
      <trkpt lat="38.77099" lon="0.13089">
        <ele>64</ele>
        <time>2021-01-31 12:16:02</time>
      </trkpt>
      <trkpt lat="38.771" lon="0.13084">
        <ele>64</ele>
        <time>2021-01-31 12:16:03</time>
      </trkpt>
      <trkpt lat="38.77101" lon="0.1308">
        <ele>63.2</ele>
        <time>2021-01-31 12:16:04</time>
      </trkpt>
      <trkpt lat="38.77102" lon="0.13076">
        <ele>63.6</ele>
        <time>2021-01-31 12:16:05</time>
      </trkpt>
      <trkpt lat="38.77103" lon="0.13071">
        <ele>63.6</ele>
        <time>2021-01-31 12:16:06</time>
      </trkpt>
      <trkpt lat="38.77104" lon="0.13067">
        <ele>63.6</ele>
        <time>2021-01-31 12:16:07</time>
      </trkpt>
      <trkpt lat="38.77105" lon="0.13062">
        <ele>64.6</ele>
        <time>2021-01-31 12:16:08</time>
      </trkpt>
      <trkpt lat="38.77106" lon="0.13057">
        <ele>64.6</ele>
        <time>2021-01-31 12:16:09</time>
      </trkpt>
      <trkpt lat="38.77107" lon="0.13053">
        <ele>64.6</ele>
        <time>2021-01-31 12:16:10</time>
      </trkpt>
      <trkpt lat="38.77108" lon="0.13048">
        <ele>64.6</ele>
        <time>2021-01-31 12:16:11</time>
      </trkpt>
      <trkpt lat="38.77109" lon="0.13043">
        <ele>65</ele>
        <time>2021-01-31 12:16:12</time>
      </trkpt>
      <trkpt lat="38.7711" lon="0.13038">
        <ele>65.2</ele>
        <time>2021-01-31 12:16:13</time>
      </trkpt>
      <trkpt lat="38.77111" lon="0.13034">
        <ele>65.2</ele>
        <time>2021-01-31 12:16:14</time>
      </trkpt>
      <trkpt lat="38.77112" lon="0.13029">
        <ele>65.2</ele>
        <time>2021-01-31 12:16:15</time>
      </trkpt>
      <trkpt lat="38.77113" lon="0.13024">
        <ele>65.2</ele>
        <time>2021-01-31 12:16:16</time>
      </trkpt>
      <trkpt lat="38.77114" lon="0.13019">
        <ele>65</ele>
        <time>2021-01-31 12:16:17</time>
      </trkpt>
      <trkpt lat="38.77115" lon="0.13014">
        <ele>65</ele>
        <time>2021-01-31 12:16:18</time>
      </trkpt>
      <trkpt lat="38.77116" lon="0.13009">
        <ele>65</ele>
        <time>2021-01-31 12:16:19</time>
      </trkpt>
      <trkpt lat="38.77117" lon="0.13004">
        <ele>65</ele>
        <time>2021-01-31 12:16:20</time>
      </trkpt>
      <trkpt lat="38.77118" lon="0.13">
        <ele>65.6</ele>
        <time>2021-01-31 12:16:21</time>
      </trkpt>
      <trkpt lat="38.77119" lon="0.12995">
        <ele>65.6</ele>
        <time>2021-01-31 12:16:22</time>
      </trkpt>
      <trkpt lat="38.7712" lon="0.1299">
        <ele>65.6</ele>
        <time>2021-01-31 12:16:23</time>
      </trkpt>
      <trkpt lat="38.77122" lon="0.12986">
        <ele>65.6</ele>
        <time>2021-01-31 12:16:24</time>
      </trkpt>
      <trkpt lat="38.77123" lon="0.12983">
        <ele>65.6</ele>
        <time>2021-01-31 12:16:25</time>
      </trkpt>
      <trkpt lat="38.77123" lon="0.12983">
        <ele>65.6</ele>
        <time>2021-01-31 12:16:26</time>
      </trkpt>
      <trkpt lat="38.77123" lon="0.12983">
        <ele>65.6</ele>
        <time>2021-01-31 12:16:27</time>
      </trkpt>
      <trkpt lat="38.77123" lon="0.12983">
        <ele>65.8</ele>
        <time>2021-01-31 12:16:28</time>
      </trkpt>
      <trkpt lat="38.77129" lon="0.12966">
        <ele>66</ele>
        <time>2021-01-31 12:16:29</time>
      </trkpt>
      <trkpt lat="38.7713" lon="0.12962">
        <ele>66</ele>
        <time>2021-01-31 12:16:30</time>
      </trkpt>
      <trkpt lat="38.77131" lon="0.12958">
        <ele>66</ele>
        <time>2021-01-31 12:16:31</time>
      </trkpt>
      <trkpt lat="38.77133" lon="0.12954">
        <ele>66</ele>
        <time>2021-01-31 12:16:32</time>
      </trkpt>
      <trkpt lat="38.77134" lon="0.1295">
        <ele>67.8</ele>
        <time>2021-01-31 12:16:33</time>
      </trkpt>
      <trkpt lat="38.77135" lon="0.12946">
        <ele>67.8</ele>
        <time>2021-01-31 12:16:34</time>
      </trkpt>
      <trkpt lat="38.77136" lon="0.12942">
        <ele>67.8</ele>
        <time>2021-01-31 12:16:35</time>
      </trkpt>
      <trkpt lat="38.77137" lon="0.12939">
        <ele>67.8</ele>
        <time>2021-01-31 12:16:36</time>
      </trkpt>
      <trkpt lat="38.77139" lon="0.12935">
        <ele>68.4</ele>
        <time>2021-01-31 12:16:37</time>
      </trkpt>
      <trkpt lat="38.7714" lon="0.12931">
        <ele>68.4</ele>
        <time>2021-01-31 12:16:38</time>
      </trkpt>
      <trkpt lat="38.77142" lon="0.12927">
        <ele>68.4</ele>
        <time>2021-01-31 12:16:39</time>
      </trkpt>
      <trkpt lat="38.77144" lon="0.12924">
        <ele>67.4</ele>
        <time>2021-01-31 12:16:40</time>
      </trkpt>
      <trkpt lat="38.77146" lon="0.1292">
        <ele>66.8</ele>
        <time>2021-01-31 12:16:41</time>
      </trkpt>
      <trkpt lat="38.77147" lon="0.12917">
        <ele>66.8</ele>
        <time>2021-01-31 12:16:42</time>
      </trkpt>
      <trkpt lat="38.77148" lon="0.12914">
        <ele>66.8</ele>
        <time>2021-01-31 12:16:43</time>
      </trkpt>
      <trkpt lat="38.77149" lon="0.12912">
        <ele>67.8</ele>
        <time>2021-01-31 12:16:44</time>
      </trkpt>
      <trkpt lat="38.77149" lon="0.12909">
        <ele>68.8</ele>
        <time>2021-01-31 12:16:45</time>
      </trkpt>
      <trkpt lat="38.7715" lon="0.12907">
        <ele>68.8</ele>
        <time>2021-01-31 12:16:46</time>
      </trkpt>
      <trkpt lat="38.7715" lon="0.12907">
        <ele>68.8</ele>
        <time>2021-01-31 12:16:47</time>
      </trkpt>
      <trkpt lat="38.7715" lon="0.12907">
        <ele>68.8</ele>
        <time>2021-01-31 12:16:48</time>
      </trkpt>
      <trkpt lat="38.7715" lon="0.12907">
        <ele>69.2</ele>
        <time>2021-01-31 12:16:49</time>
      </trkpt>
      <trkpt lat="38.77156" lon="0.12896">
        <ele>69.2</ele>
        <time>2021-01-31 12:16:50</time>
      </trkpt>
      <trkpt lat="38.77157" lon="0.12893">
        <ele>69.2</ele>
        <time>2021-01-31 12:16:51</time>
      </trkpt>
      <trkpt lat="38.77159" lon="0.1289">
        <ele>69.2</ele>
        <time>2021-01-31 12:16:52</time>
      </trkpt>
      <trkpt lat="38.7716" lon="0.12887">
        <ele>70.2</ele>
        <time>2021-01-31 12:16:53</time>
      </trkpt>
      <trkpt lat="38.77162" lon="0.12883">
        <ele>70.2</ele>
        <time>2021-01-31 12:16:54</time>
      </trkpt>
      <trkpt lat="38.77164" lon="0.1288">
        <ele>70.2</ele>
        <time>2021-01-31 12:16:55</time>
      </trkpt>
      <trkpt lat="38.77165" lon="0.12876">
        <ele>70.2</ele>
        <time>2021-01-31 12:16:56</time>
      </trkpt>
      <trkpt lat="38.77166" lon="0.12872">
        <ele>70.4</ele>
        <time>2021-01-31 12:16:57</time>
      </trkpt>
      <trkpt lat="38.77167" lon="0.12868">
        <ele>70.4</ele>
        <time>2021-01-31 12:16:58</time>
      </trkpt>
      <trkpt lat="38.77169" lon="0.12864">
        <ele>70.4</ele>
        <time>2021-01-31 12:16:59</time>
      </trkpt>
      <trkpt lat="38.7717" lon="0.12861">
        <ele>69.4</ele>
        <time>2021-01-31 12:17:00</time>
      </trkpt>
      <trkpt lat="38.77171" lon="0.12857">
        <ele>70.2</ele>
        <time>2021-01-31 12:17:01</time>
      </trkpt>
      <trkpt lat="38.77173" lon="0.12854">
        <ele>70.2</ele>
        <time>2021-01-31 12:17:02</time>
      </trkpt>
      <trkpt lat="38.77174" lon="0.1285">
        <ele>70.2</ele>
        <time>2021-01-31 12:17:03</time>
      </trkpt>
      <trkpt lat="38.77175" lon="0.12847">
        <ele>70.2</ele>
        <time>2021-01-31 12:17:04</time>
      </trkpt>
      <trkpt lat="38.77177" lon="0.12843">
        <ele>71.2</ele>
        <time>2021-01-31 12:17:05</time>
      </trkpt>
      <trkpt lat="38.77178" lon="0.12839">
        <ele>71.2</ele>
        <time>2021-01-31 12:17:06</time>
      </trkpt>
      <trkpt lat="38.77179" lon="0.12835">
        <ele>71.2</ele>
        <time>2021-01-31 12:17:07</time>
      </trkpt>
      <trkpt lat="38.77181" lon="0.12831">
        <ele>70.2</ele>
        <time>2021-01-31 12:17:08</time>
      </trkpt>
      <trkpt lat="38.77182" lon="0.12827">
        <ele>70.6</ele>
        <time>2021-01-31 12:17:09</time>
      </trkpt>
      <trkpt lat="38.77184" lon="0.12823">
        <ele>70.6</ele>
        <time>2021-01-31 12:17:10</time>
      </trkpt>
      <trkpt lat="38.77185" lon="0.12819">
        <ele>70.6</ele>
        <time>2021-01-31 12:17:11</time>
      </trkpt>
      <trkpt lat="38.77186" lon="0.12815">
        <ele>70.6</ele>
        <time>2021-01-31 12:17:12</time>
      </trkpt>
      <trkpt lat="38.77188" lon="0.12811">
        <ele>71</ele>
        <time>2021-01-31 12:17:13</time>
      </trkpt>
      <trkpt lat="38.77189" lon="0.12806">
        <ele>71</ele>
        <time>2021-01-31 12:17:14</time>
      </trkpt>
      <trkpt lat="38.77189" lon="0.12806">
        <ele>71</ele>
        <time>2021-01-31 12:17:15</time>
      </trkpt>
      <trkpt lat="38.77192" lon="0.12798">
        <ele>71.8</ele>
        <time>2021-01-31 12:17:16</time>
      </trkpt>
      <trkpt lat="38.77193" lon="0.12793">
        <ele>71.6</ele>
        <time>2021-01-31 12:17:17</time>
      </trkpt>
      <trkpt lat="38.77195" lon="0.12789">
        <ele>71.6</ele>
        <time>2021-01-31 12:17:18</time>
      </trkpt>
      <trkpt lat="38.77196" lon="0.12785">
        <ele>71.6</ele>
        <time>2021-01-31 12:17:19</time>
      </trkpt>
      <trkpt lat="38.77196" lon="0.1278">
        <ele>71.6</ele>
        <time>2021-01-31 12:17:20</time>
      </trkpt>
      <trkpt lat="38.77197" lon="0.12775">
        <ele>72.4</ele>
        <time>2021-01-31 12:17:21</time>
      </trkpt>
      <trkpt lat="38.77198" lon="0.12771">
        <ele>72.4</ele>
        <time>2021-01-31 12:17:22</time>
      </trkpt>
      <trkpt lat="38.77199" lon="0.12766">
        <ele>72.4</ele>
        <time>2021-01-31 12:17:23</time>
      </trkpt>
      <trkpt lat="38.77199" lon="0.12761">
        <ele>71.4</ele>
        <time>2021-01-31 12:17:24</time>
      </trkpt>
      <trkpt lat="38.772" lon="0.12756">
        <ele>71.8</ele>
        <time>2021-01-31 12:17:25</time>
      </trkpt>
      <trkpt lat="38.772" lon="0.12751">
        <ele>71.8</ele>
        <time>2021-01-31 12:17:26</time>
      </trkpt>
      <trkpt lat="38.77201" lon="0.12745">
        <ele>71.8</ele>
        <time>2021-01-31 12:17:27</time>
      </trkpt>
      <trkpt lat="38.77201" lon="0.1274">
        <ele>71</ele>
        <time>2021-01-31 12:17:28</time>
      </trkpt>
      <trkpt lat="38.77201" lon="0.12735">
        <ele>71.2</ele>
        <time>2021-01-31 12:17:29</time>
      </trkpt>
      <trkpt lat="38.77201" lon="0.12729">
        <ele>71.2</ele>
        <time>2021-01-31 12:17:30</time>
      </trkpt>
      <trkpt lat="38.77201" lon="0.12724">
        <ele>71.2</ele>
        <time>2021-01-31 12:17:31</time>
      </trkpt>
      <trkpt lat="38.77201" lon="0.12719">
        <ele>70.2</ele>
        <time>2021-01-31 12:17:32</time>
      </trkpt>
      <trkpt lat="38.77201" lon="0.12713">
        <ele>68</ele>
        <time>2021-01-31 12:17:33</time>
      </trkpt>
      <trkpt lat="38.77201" lon="0.12707">
        <ele>68</ele>
        <time>2021-01-31 12:17:34</time>
      </trkpt>
      <trkpt lat="38.772" lon="0.12701">
        <ele>68</ele>
        <time>2021-01-31 12:17:35</time>
      </trkpt>
      <trkpt lat="38.772" lon="0.12695">
        <ele>69</ele>
        <time>2021-01-31 12:17:36</time>
      </trkpt>
      <trkpt lat="38.772" lon="0.12689">
        <ele>71.4</ele>
        <time>2021-01-31 12:17:37</time>
      </trkpt>
      <trkpt lat="38.772" lon="0.12683">
        <ele>71.4</ele>
        <time>2021-01-31 12:17:38</time>
      </trkpt>
      <trkpt lat="38.77201" lon="0.12677">
        <ele>71.4</ele>
        <time>2021-01-31 12:17:39</time>
      </trkpt>
      <trkpt lat="38.77201" lon="0.12672">
        <ele>70.6</ele>
        <time>2021-01-31 12:17:40</time>
      </trkpt>
      <trkpt lat="38.77201" lon="0.12666">
        <ele>70.8</ele>
        <time>2021-01-31 12:17:41</time>
      </trkpt>
      <trkpt lat="38.77201" lon="0.1266">
        <ele>70.8</ele>
        <time>2021-01-31 12:17:42</time>
      </trkpt>
      <trkpt lat="38.77201" lon="0.12654">
        <ele>70.8</ele>
        <time>2021-01-31 12:17:43</time>
      </trkpt>
      <trkpt lat="38.77202" lon="0.12649">
        <ele>71.6</ele>
        <time>2021-01-31 12:17:44</time>
      </trkpt>
      <trkpt lat="38.77202" lon="0.12643">
        <ele>71.8</ele>
        <time>2021-01-31 12:17:45</time>
      </trkpt>
      <trkpt lat="38.77203" lon="0.12637">
        <ele>71.8</ele>
        <time>2021-01-31 12:17:46</time>
      </trkpt>
      <trkpt lat="38.77203" lon="0.12631">
        <ele>71.8</ele>
        <time>2021-01-31 12:17:47</time>
      </trkpt>
      <trkpt lat="38.77203" lon="0.12631">
        <ele>71.8</ele>
        <time>2021-01-31 12:17:48</time>
      </trkpt>
      <trkpt lat="38.77203" lon="0.12631">
        <ele>71.8</ele>
        <time>2021-01-31 12:17:49</time>
      </trkpt>
      <trkpt lat="38.77203" lon="0.12631">
        <ele>70.2</ele>
        <time>2021-01-31 12:17:50</time>
      </trkpt>
      <trkpt lat="38.77204" lon="0.12607">
        <ele>70.2</ele>
        <time>2021-01-31 12:17:51</time>
      </trkpt>
      <trkpt lat="38.77203" lon="0.126">
        <ele>71.2</ele>
        <time>2021-01-31 12:17:52</time>
      </trkpt>
      <trkpt lat="38.77203" lon="0.12594">
        <ele>71.4</ele>
        <time>2021-01-31 12:17:53</time>
      </trkpt>
      <trkpt lat="38.77203" lon="0.12588">
        <ele>71.4</ele>
        <time>2021-01-31 12:17:54</time>
      </trkpt>
      <trkpt lat="38.77203" lon="0.12581">
        <ele>71.4</ele>
        <time>2021-01-31 12:17:55</time>
      </trkpt>
      <trkpt lat="38.77203" lon="0.12575">
        <ele>71.4</ele>
        <time>2021-01-31 12:17:56</time>
      </trkpt>
      <trkpt lat="38.77202" lon="0.12568">
        <ele>70.6</ele>
        <time>2021-01-31 12:17:57</time>
      </trkpt>
      <trkpt lat="38.77202" lon="0.12561">
        <ele>70.6</ele>
        <time>2021-01-31 12:17:58</time>
      </trkpt>
      <trkpt lat="38.77202" lon="0.12555">
        <ele>70.6</ele>
        <time>2021-01-31 12:17:59</time>
      </trkpt>
      <trkpt lat="38.77201" lon="0.12548">
        <ele>70.6</ele>
        <time>2021-01-31 12:18:00</time>
      </trkpt>
      <trkpt lat="38.77201" lon="0.12542">
        <ele>71</ele>
        <time>2021-01-31 12:18:01</time>
      </trkpt>
      <trkpt lat="38.772" lon="0.12535">
        <ele>71</ele>
        <time>2021-01-31 12:18:02</time>
      </trkpt>
      <trkpt lat="38.772" lon="0.12528">
        <ele>71</ele>
        <time>2021-01-31 12:18:03</time>
      </trkpt>
      <trkpt lat="38.772" lon="0.12522">
        <ele>70.6</ele>
        <time>2021-01-31 12:18:04</time>
      </trkpt>
      <trkpt lat="38.772" lon="0.12515">
        <ele>70.2</ele>
        <time>2021-01-31 12:18:05</time>
      </trkpt>
      <trkpt lat="38.772" lon="0.12508">
        <ele>70.2</ele>
        <time>2021-01-31 12:18:06</time>
      </trkpt>
      <trkpt lat="38.772" lon="0.12502">
        <ele>70.2</ele>
        <time>2021-01-31 12:18:07</time>
      </trkpt>
      <trkpt lat="38.77201" lon="0.12495">
        <ele>70.2</ele>
        <time>2021-01-31 12:18:08</time>
      </trkpt>
      <trkpt lat="38.77201" lon="0.12488">
        <ele>70.4</ele>
        <time>2021-01-31 12:18:09</time>
      </trkpt>
      <trkpt lat="38.77201" lon="0.12482">
        <ele>70.4</ele>
        <time>2021-01-31 12:18:10</time>
      </trkpt>
      <trkpt lat="38.77201" lon="0.12475">
        <ele>70.4</ele>
        <time>2021-01-31 12:18:11</time>
      </trkpt>
      <trkpt lat="38.77201" lon="0.12468">
        <ele>70.4</ele>
        <time>2021-01-31 12:18:12</time>
      </trkpt>
      <trkpt lat="38.77202" lon="0.12462">
        <ele>71</ele>
        <time>2021-01-31 12:18:13</time>
      </trkpt>
      <trkpt lat="38.77202" lon="0.12455">
        <ele>71</ele>
        <time>2021-01-31 12:18:14</time>
      </trkpt>
      <trkpt lat="38.77203" lon="0.12449">
        <ele>71</ele>
        <time>2021-01-31 12:18:15</time>
      </trkpt>
      <trkpt lat="38.77204" lon="0.12442">
        <ele>71</ele>
        <time>2021-01-31 12:18:16</time>
      </trkpt>
      <trkpt lat="38.77204" lon="0.12436">
        <ele>70.6</ele>
        <time>2021-01-31 12:18:17</time>
      </trkpt>
      <trkpt lat="38.77205" lon="0.1243">
        <ele>70.6</ele>
        <time>2021-01-31 12:18:18</time>
      </trkpt>
      <trkpt lat="38.77206" lon="0.12424">
        <ele>70.6</ele>
        <time>2021-01-31 12:18:19</time>
      </trkpt>
      <trkpt lat="38.77206" lon="0.12418">
        <ele>70.6</ele>
        <time>2021-01-31 12:18:20</time>
      </trkpt>
      <trkpt lat="38.77207" lon="0.12411">
        <ele>69.6</ele>
        <time>2021-01-31 12:18:21</time>
      </trkpt>
      <trkpt lat="38.77208" lon="0.12405">
        <ele>69.6</ele>
        <time>2021-01-31 12:18:22</time>
      </trkpt>
      <trkpt lat="38.77209" lon="0.12399">
        <ele>69.6</ele>
        <time>2021-01-31 12:18:23</time>
      </trkpt>
      <trkpt lat="38.7721" lon="0.12393">
        <ele>70.6</ele>
        <time>2021-01-31 12:18:24</time>
      </trkpt>
      <trkpt lat="38.77211" lon="0.12387">
        <ele>70.6</ele>
        <time>2021-01-31 12:18:25</time>
      </trkpt>
      <trkpt lat="38.77212" lon="0.12381">
        <ele>70.6</ele>
        <time>2021-01-31 12:18:26</time>
      </trkpt>
      <trkpt lat="38.77213" lon="0.12375">
        <ele>70.6</ele>
        <time>2021-01-31 12:18:27</time>
      </trkpt>
      <trkpt lat="38.77214" lon="0.12369">
        <ele>71.6</ele>
        <time>2021-01-31 12:18:28</time>
      </trkpt>
      <trkpt lat="38.77215" lon="0.12363">
        <ele>71.4</ele>
        <time>2021-01-31 12:18:29</time>
      </trkpt>
      <trkpt lat="38.77216" lon="0.12357">
        <ele>71.4</ele>
        <time>2021-01-31 12:18:30</time>
      </trkpt>
      <trkpt lat="38.77217" lon="0.12351">
        <ele>71.4</ele>
        <time>2021-01-31 12:18:31</time>
      </trkpt>
      <trkpt lat="38.77218" lon="0.12345">
        <ele>71</ele>
        <time>2021-01-31 12:18:32</time>
      </trkpt>
      <trkpt lat="38.77219" lon="0.12339">
        <ele>70.8</ele>
        <time>2021-01-31 12:18:33</time>
      </trkpt>
      <trkpt lat="38.7722" lon="0.12333">
        <ele>70.8</ele>
        <time>2021-01-31 12:18:34</time>
      </trkpt>
      <trkpt lat="38.77221" lon="0.12326">
        <ele>70.8</ele>
        <time>2021-01-31 12:18:35</time>
      </trkpt>
      <trkpt lat="38.77222" lon="0.1232">
        <ele>70.4</ele>
        <time>2021-01-31 12:18:36</time>
      </trkpt>
      <trkpt lat="38.77223" lon="0.12313">
        <ele>71.2</ele>
        <time>2021-01-31 12:18:37</time>
      </trkpt>
      <trkpt lat="38.77224" lon="0.12307">
        <ele>71.2</ele>
        <time>2021-01-31 12:18:38</time>
      </trkpt>
      <trkpt lat="38.77225" lon="0.123">
        <ele>71.2</ele>
        <time>2021-01-31 12:18:39</time>
      </trkpt>
      <trkpt lat="38.77226" lon="0.12294">
        <ele>71.2</ele>
        <time>2021-01-31 12:18:40</time>
      </trkpt>
      <trkpt lat="38.77227" lon="0.12287">
        <ele>70.8</ele>
        <time>2021-01-31 12:18:41</time>
      </trkpt>
      <trkpt lat="38.77228" lon="0.1228">
        <ele>70.8</ele>
        <time>2021-01-31 12:18:42</time>
      </trkpt>
      <trkpt lat="38.77229" lon="0.12274">
        <ele>70.8</ele>
        <time>2021-01-31 12:18:43</time>
      </trkpt>
      <trkpt lat="38.7723" lon="0.12267">
        <ele>70.2</ele>
        <time>2021-01-31 12:18:44</time>
      </trkpt>
      <trkpt lat="38.77232" lon="0.12261">
        <ele>70.6</ele>
        <time>2021-01-31 12:18:45</time>
      </trkpt>
      <trkpt lat="38.77233" lon="0.12254">
        <ele>70.6</ele>
        <time>2021-01-31 12:18:46</time>
      </trkpt>
      <trkpt lat="38.77234" lon="0.12247">
        <ele>70.6</ele>
        <time>2021-01-31 12:18:47</time>
      </trkpt>
      <trkpt lat="38.77235" lon="0.1224">
        <ele>71</ele>
        <time>2021-01-31 12:18:48</time>
      </trkpt>
      <trkpt lat="38.77236" lon="0.12233">
        <ele>69.8</ele>
        <time>2021-01-31 12:18:49</time>
      </trkpt>
      <trkpt lat="38.77237" lon="0.12226">
        <ele>69.8</ele>
        <time>2021-01-31 12:18:50</time>
      </trkpt>
      <trkpt lat="38.77239" lon="0.12219">
        <ele>69.8</ele>
        <time>2021-01-31 12:18:51</time>
      </trkpt>
      <trkpt lat="38.7724" lon="0.12212">
        <ele>70.8</ele>
        <time>2021-01-31 12:18:52</time>
      </trkpt>
      <trkpt lat="38.77242" lon="0.12205">
        <ele>70</ele>
        <time>2021-01-31 12:18:53</time>
      </trkpt>
      <trkpt lat="38.77243" lon="0.12198">
        <ele>70</ele>
        <time>2021-01-31 12:18:54</time>
      </trkpt>
      <trkpt lat="38.77244" lon="0.1219">
        <ele>70</ele>
        <time>2021-01-31 12:18:55</time>
      </trkpt>
      <trkpt lat="38.77246" lon="0.12183">
        <ele>69</ele>
        <time>2021-01-31 12:18:56</time>
      </trkpt>
      <trkpt lat="38.77248" lon="0.12176">
        <ele>68.4</ele>
        <time>2021-01-31 12:18:57</time>
      </trkpt>
      <trkpt lat="38.77249" lon="0.12169">
        <ele>68.4</ele>
        <time>2021-01-31 12:18:58</time>
      </trkpt>
      <trkpt lat="38.77251" lon="0.12162">
        <ele>68.4</ele>
        <time>2021-01-31 12:18:59</time>
      </trkpt>
      <trkpt lat="38.77253" lon="0.12155">
        <ele>68.4</ele>
        <time>2021-01-31 12:19:00</time>
      </trkpt>
      <trkpt lat="38.77255" lon="0.12148">
        <ele>68.2</ele>
        <time>2021-01-31 12:19:01</time>
      </trkpt>
      <trkpt lat="38.77257" lon="0.12141">
        <ele>68.2</ele>
        <time>2021-01-31 12:19:02</time>
      </trkpt>
      <trkpt lat="38.77259" lon="0.12135">
        <ele>68.2</ele>
        <time>2021-01-31 12:19:03</time>
      </trkpt>
      <trkpt lat="38.77259" lon="0.12135">
        <ele>68.2</ele>
        <time>2021-01-31 12:19:04</time>
      </trkpt>
      <trkpt lat="38.77259" lon="0.12135">
        <ele>68.2</ele>
        <time>2021-01-31 12:19:05</time>
      </trkpt>
      <trkpt lat="38.77259" lon="0.12135">
        <ele>68.8</ele>
        <time>2021-01-31 12:19:06</time>
      </trkpt>
      <trkpt lat="38.77267" lon="0.12108">
        <ele>68.8</ele>
        <time>2021-01-31 12:19:07</time>
      </trkpt>
      <trkpt lat="38.77268" lon="0.12101">
        <ele>69</ele>
        <time>2021-01-31 12:19:08</time>
      </trkpt>
      <trkpt lat="38.7727" lon="0.12094">
        <ele>69</ele>
        <time>2021-01-31 12:19:09</time>
      </trkpt>
      <trkpt lat="38.77272" lon="0.12088">
        <ele>69</ele>
        <time>2021-01-31 12:19:10</time>
      </trkpt>
      <trkpt lat="38.77273" lon="0.12081">
        <ele>69</ele>
        <time>2021-01-31 12:19:11</time>
      </trkpt>
      <trkpt lat="38.77273" lon="0.12081">
        <ele>69</ele>
        <time>2021-01-31 12:19:12</time>
      </trkpt>
      <trkpt lat="38.77273" lon="0.12081">
        <ele>69</ele>
        <time>2021-01-31 12:19:13</time>
      </trkpt>
      <trkpt lat="38.77273" lon="0.12081">
        <ele>69.8</ele>
        <time>2021-01-31 12:19:14</time>
      </trkpt>
      <trkpt lat="38.77281" lon="0.12056">
        <ele>69.8</ele>
        <time>2021-01-31 12:19:15</time>
      </trkpt>
      <trkpt lat="38.77282" lon="0.12049">
        <ele>69.8</ele>
        <time>2021-01-31 12:19:16</time>
      </trkpt>
      <trkpt lat="38.77284" lon="0.12043">
        <ele>70.2</ele>
        <time>2021-01-31 12:19:17</time>
      </trkpt>
      <trkpt lat="38.77285" lon="0.12037">
        <ele>70.2</ele>
        <time>2021-01-31 12:19:18</time>
      </trkpt>
      <trkpt lat="38.77286" lon="0.1203">
        <ele>70.2</ele>
        <time>2021-01-31 12:19:19</time>
      </trkpt>
      <trkpt lat="38.77286" lon="0.12024">
        <ele>70.2</ele>
        <time>2021-01-31 12:19:20</time>
      </trkpt>
      <trkpt lat="38.77287" lon="0.12017">
        <ele>70</ele>
        <time>2021-01-31 12:19:21</time>
      </trkpt>
      <trkpt lat="38.77287" lon="0.1201">
        <ele>70</ele>
        <time>2021-01-31 12:19:22</time>
      </trkpt>
      <trkpt lat="38.77287" lon="0.12003">
        <ele>70</ele>
        <time>2021-01-31 12:19:23</time>
      </trkpt>
      <trkpt lat="38.77287" lon="0.11997">
        <ele>70</ele>
        <time>2021-01-31 12:19:24</time>
      </trkpt>
      <trkpt lat="38.77287" lon="0.1199">
        <ele>70.2</ele>
        <time>2021-01-31 12:19:25</time>
      </trkpt>
      <trkpt lat="38.77287" lon="0.11983">
        <ele>70.2</ele>
        <time>2021-01-31 12:19:26</time>
      </trkpt>
      <trkpt lat="38.77288" lon="0.11976">
        <ele>70.2</ele>
        <time>2021-01-31 12:19:27</time>
      </trkpt>
      <trkpt lat="38.77288" lon="0.1197">
        <ele>70.4</ele>
        <time>2021-01-31 12:19:28</time>
      </trkpt>
      <trkpt lat="38.77289" lon="0.11963">
        <ele>69</ele>
        <time>2021-01-31 12:19:29</time>
      </trkpt>
      <trkpt lat="38.77291" lon="0.11956">
        <ele>69</ele>
        <time>2021-01-31 12:19:30</time>
      </trkpt>
      <trkpt lat="38.77292" lon="0.1195">
        <ele>69</ele>
        <time>2021-01-31 12:19:31</time>
      </trkpt>
      <trkpt lat="38.77293" lon="0.11943">
        <ele>69.6</ele>
        <time>2021-01-31 12:19:32</time>
      </trkpt>
      <trkpt lat="38.77294" lon="0.11936">
        <ele>69</ele>
        <time>2021-01-31 12:19:33</time>
      </trkpt>
      <trkpt lat="38.77295" lon="0.11929">
        <ele>69</ele>
        <time>2021-01-31 12:19:34</time>
      </trkpt>
      <trkpt lat="38.77296" lon="0.11922">
        <ele>69</ele>
        <time>2021-01-31 12:19:35</time>
      </trkpt>
      <trkpt lat="38.77299" lon="0.11917">
        <ele>69.2</ele>
        <time>2021-01-31 12:19:36</time>
      </trkpt>
      <trkpt lat="38.77301" lon="0.11911">
        <ele>69</ele>
        <time>2021-01-31 12:19:37</time>
      </trkpt>
      <trkpt lat="38.77303" lon="0.11905">
        <ele>69</ele>
        <time>2021-01-31 12:19:38</time>
      </trkpt>
      <trkpt lat="38.77306" lon="0.11899">
        <ele>69</ele>
        <time>2021-01-31 12:19:39</time>
      </trkpt>
      <trkpt lat="38.77309" lon="0.11894">
        <ele>70</ele>
        <time>2021-01-31 12:19:40</time>
      </trkpt>
      <trkpt lat="38.77311" lon="0.11889">
        <ele>71</ele>
        <time>2021-01-31 12:19:41</time>
      </trkpt>
      <trkpt lat="38.77314" lon="0.11884">
        <ele>71</ele>
        <time>2021-01-31 12:19:42</time>
      </trkpt>
      <trkpt lat="38.77317" lon="0.11878">
        <ele>71</ele>
        <time>2021-01-31 12:19:43</time>
      </trkpt>
      <trkpt lat="38.7732" lon="0.11873">
        <ele>71</ele>
        <time>2021-01-31 12:19:44</time>
      </trkpt>
      <trkpt lat="38.77323" lon="0.11869">
        <ele>69.6</ele>
        <time>2021-01-31 12:19:45</time>
      </trkpt>
      <trkpt lat="38.77326" lon="0.11864">
        <ele>69.6</ele>
        <time>2021-01-31 12:19:46</time>
      </trkpt>
      <trkpt lat="38.7733" lon="0.11859">
        <ele>69.6</ele>
        <time>2021-01-31 12:19:47</time>
      </trkpt>
      <trkpt lat="38.77333" lon="0.11855">
        <ele>70.6</ele>
        <time>2021-01-31 12:19:48</time>
      </trkpt>
      <trkpt lat="38.77337" lon="0.11852">
        <ele>70.6</ele>
        <time>2021-01-31 12:19:49</time>
      </trkpt>
      <trkpt lat="38.77337" lon="0.11852">
        <ele>70.6</ele>
        <time>2021-01-31 12:19:50</time>
      </trkpt>
      <trkpt lat="38.77337" lon="0.11852">
        <ele>70.6</ele>
        <time>2021-01-31 12:19:51</time>
      </trkpt>
      <trkpt lat="38.77337" lon="0.11852">
        <ele>72.6</ele>
        <time>2021-01-31 12:19:52</time>
      </trkpt>
      <trkpt lat="38.77353" lon="0.11839">
        <ele>72.6</ele>
        <time>2021-01-31 12:19:53</time>
      </trkpt>
      <trkpt lat="38.77358" lon="0.11836">
        <ele>72.6</ele>
        <time>2021-01-31 12:19:54</time>
      </trkpt>
      <trkpt lat="38.77362" lon="0.11833">
        <ele>72.6</ele>
        <time>2021-01-31 12:19:55</time>
      </trkpt>
      <trkpt lat="38.77365" lon="0.11831">
        <ele>72.6</ele>
        <time>2021-01-31 12:19:56</time>
      </trkpt>
      <trkpt lat="38.77369" lon="0.11828">
        <ele>72.2</ele>
        <time>2021-01-31 12:19:57</time>
      </trkpt>
      <trkpt lat="38.77372" lon="0.11825">
        <ele>72.2</ele>
        <time>2021-01-31 12:19:58</time>
      </trkpt>
      <trkpt lat="38.77376" lon="0.11822">
        <ele>72.2</ele>
        <time>2021-01-31 12:19:59</time>
      </trkpt>
      <trkpt lat="38.77379" lon="0.11818">
        <ele>72.2</ele>
        <time>2021-01-31 12:20:00</time>
      </trkpt>
      <trkpt lat="38.77382" lon="0.11815">
        <ele>73.2</ele>
        <time>2021-01-31 12:20:01</time>
      </trkpt>
      <trkpt lat="38.77385" lon="0.11812">
        <ele>73.2</ele>
        <time>2021-01-31 12:20:02</time>
      </trkpt>
      <trkpt lat="38.77387" lon="0.11809">
        <ele>73.2</ele>
        <time>2021-01-31 12:20:03</time>
      </trkpt>
      <trkpt lat="38.77387" lon="0.11809">
        <ele>73.2</ele>
        <time>2021-01-31 12:20:04</time>
      </trkpt>
      <trkpt lat="38.77387" lon="0.11809">
        <ele>73.2</ele>
        <time>2021-01-31 12:20:05</time>
      </trkpt>
      <trkpt lat="38.77387" lon="0.11809">
        <ele>73.8</ele>
        <time>2021-01-31 12:20:06</time>
      </trkpt>
      <trkpt lat="38.77398" lon="0.11796">
        <ele>73.8</ele>
        <time>2021-01-31 12:20:07</time>
      </trkpt>
      <trkpt lat="38.774" lon="0.11793">
        <ele>73.8</ele>
        <time>2021-01-31 12:20:08</time>
      </trkpt>
      <trkpt lat="38.77403" lon="0.1179">
        <ele>74.2</ele>
        <time>2021-01-31 12:20:09</time>
      </trkpt>
      <trkpt lat="38.77406" lon="0.11786">
        <ele>74.2</ele>
        <time>2021-01-31 12:20:10</time>
      </trkpt>
      <trkpt lat="38.77409" lon="0.11783">
        <ele>74.2</ele>
        <time>2021-01-31 12:20:11</time>
      </trkpt>
      <trkpt lat="38.77411" lon="0.11779">
        <ele>74.2</ele>
        <time>2021-01-31 12:20:12</time>
      </trkpt>
      <trkpt lat="38.77414" lon="0.11776">
        <ele>74.6</ele>
        <time>2021-01-31 12:20:13</time>
      </trkpt>
      <trkpt lat="38.77417" lon="0.11772">
        <ele>74.6</ele>
        <time>2021-01-31 12:20:14</time>
      </trkpt>
      <trkpt lat="38.7742" lon="0.11768">
        <ele>74.6</ele>
        <time>2021-01-31 12:20:15</time>
      </trkpt>
      <trkpt lat="38.77423" lon="0.11764">
        <ele>73.8</ele>
        <time>2021-01-31 12:20:16</time>
      </trkpt>
      <trkpt lat="38.77426" lon="0.11761">
        <ele>73.2</ele>
        <time>2021-01-31 12:20:17</time>
      </trkpt>
      <trkpt lat="38.77429" lon="0.11757">
        <ele>73.2</ele>
        <time>2021-01-31 12:20:18</time>
      </trkpt>
      <trkpt lat="38.77432" lon="0.11753">
        <ele>73.2</ele>
        <time>2021-01-31 12:20:19</time>
      </trkpt>
      <trkpt lat="38.77434" lon="0.11749">
        <ele>73.2</ele>
        <time>2021-01-31 12:20:20</time>
      </trkpt>
      <trkpt lat="38.77437" lon="0.11745">
        <ele>74.4</ele>
        <time>2021-01-31 12:20:21</time>
      </trkpt>
      <trkpt lat="38.7744" lon="0.11741">
        <ele>74.4</ele>
        <time>2021-01-31 12:20:22</time>
      </trkpt>
      <trkpt lat="38.77443" lon="0.11737">
        <ele>74.4</ele>
        <time>2021-01-31 12:20:23</time>
      </trkpt>
      <trkpt lat="38.77446" lon="0.11733">
        <ele>74.4</ele>
        <time>2021-01-31 12:20:24</time>
      </trkpt>
      <trkpt lat="38.77448" lon="0.11728">
        <ele>74.8</ele>
        <time>2021-01-31 12:20:25</time>
      </trkpt>
      <trkpt lat="38.77451" lon="0.11724">
        <ele>74.8</ele>
        <time>2021-01-31 12:20:26</time>
      </trkpt>
      <trkpt lat="38.77454" lon="0.1172">
        <ele>74.8</ele>
        <time>2021-01-31 12:20:27</time>
      </trkpt>
      <trkpt lat="38.77457" lon="0.11715">
        <ele>74</ele>
        <time>2021-01-31 12:20:28</time>
      </trkpt>
      <trkpt lat="38.77459" lon="0.1171">
        <ele>73.8</ele>
        <time>2021-01-31 12:20:29</time>
      </trkpt>
      <trkpt lat="38.77462" lon="0.11705">
        <ele>73.8</ele>
        <time>2021-01-31 12:20:30</time>
      </trkpt>
      <trkpt lat="38.77465" lon="0.11701">
        <ele>73.8</ele>
        <time>2021-01-31 12:20:31</time>
      </trkpt>
      <trkpt lat="38.77467" lon="0.11695">
        <ele>73.8</ele>
        <time>2021-01-31 12:20:32</time>
      </trkpt>
      <trkpt lat="38.7747" lon="0.1169">
        <ele>74.2</ele>
        <time>2021-01-31 12:20:33</time>
      </trkpt>
      <trkpt lat="38.77472" lon="0.11685">
        <ele>74.2</ele>
        <time>2021-01-31 12:20:34</time>
      </trkpt>
      <trkpt lat="38.77474" lon="0.1168">
        <ele>74.2</ele>
        <time>2021-01-31 12:20:35</time>
      </trkpt>
      <trkpt lat="38.77477" lon="0.11675">
        <ele>74.2</ele>
        <time>2021-01-31 12:20:36</time>
      </trkpt>
      <trkpt lat="38.77479" lon="0.11669">
        <ele>74.6</ele>
        <time>2021-01-31 12:20:37</time>
      </trkpt>
      <trkpt lat="38.77481" lon="0.11664">
        <ele>74.6</ele>
        <time>2021-01-31 12:20:38</time>
      </trkpt>
      <trkpt lat="38.77484" lon="0.11659">
        <ele>74.6</ele>
        <time>2021-01-31 12:20:39</time>
      </trkpt>
      <trkpt lat="38.77486" lon="0.11653">
        <ele>74.6</ele>
        <time>2021-01-31 12:20:40</time>
      </trkpt>
      <trkpt lat="38.77488" lon="0.11647">
        <ele>74.6</ele>
        <time>2021-01-31 12:20:41</time>
      </trkpt>
      <trkpt lat="38.77491" lon="0.11642">
        <ele>74.6</ele>
        <time>2021-01-31 12:20:42</time>
      </trkpt>
      <trkpt lat="38.77494" lon="0.11636">
        <ele>74.6</ele>
        <time>2021-01-31 12:20:43</time>
      </trkpt>
      <trkpt lat="38.77496" lon="0.1163">
        <ele>74.6</ele>
        <time>2021-01-31 12:20:44</time>
      </trkpt>
      <trkpt lat="38.77499" lon="0.11625">
        <ele>74.8</ele>
        <time>2021-01-31 12:20:45</time>
      </trkpt>
      <trkpt lat="38.77503" lon="0.11619">
        <ele>74.8</ele>
        <time>2021-01-31 12:20:46</time>
      </trkpt>
      <trkpt lat="38.77503" lon="0.11619">
        <ele>74.8</ele>
        <time>2021-01-31 12:20:47</time>
      </trkpt>
      <trkpt lat="38.77509" lon="0.11608">
        <ele>74.8</ele>
        <time>2021-01-31 12:20:48</time>
      </trkpt>
      <trkpt lat="38.77513" lon="0.11602">
        <ele>74.2</ele>
        <time>2021-01-31 12:20:49</time>
      </trkpt>
      <trkpt lat="38.77516" lon="0.11596">
        <ele>74.2</ele>
        <time>2021-01-31 12:20:50</time>
      </trkpt>
      <trkpt lat="38.7752" lon="0.11591">
        <ele>74.2</ele>
        <time>2021-01-31 12:20:51</time>
      </trkpt>
      <trkpt lat="38.77523" lon="0.11585">
        <ele>74.2</ele>
        <time>2021-01-31 12:20:52</time>
      </trkpt>
      <trkpt lat="38.77527" lon="0.11579">
        <ele>73.2</ele>
        <time>2021-01-31 12:20:53</time>
      </trkpt>
      <trkpt lat="38.7753" lon="0.11574">
        <ele>73.2</ele>
        <time>2021-01-31 12:20:54</time>
      </trkpt>
      <trkpt lat="38.77534" lon="0.11569">
        <ele>73.2</ele>
        <time>2021-01-31 12:20:55</time>
      </trkpt>
      <trkpt lat="38.77538" lon="0.11564">
        <ele>73.2</ele>
        <time>2021-01-31 12:20:56</time>
      </trkpt>
      <trkpt lat="38.77541" lon="0.11558">
        <ele>73.8</ele>
        <time>2021-01-31 12:20:57</time>
      </trkpt>
      <trkpt lat="38.77544" lon="0.11553">
        <ele>73.8</ele>
        <time>2021-01-31 12:20:58</time>
      </trkpt>
      <trkpt lat="38.77548" lon="0.11547">
        <ele>73.8</ele>
        <time>2021-01-31 12:20:59</time>
      </trkpt>
      <trkpt lat="38.77551" lon="0.11542">
        <ele>73.8</ele>
        <time>2021-01-31 12:21:00</time>
      </trkpt>
      <trkpt lat="38.77551" lon="0.11542">
        <ele>73.8</ele>
        <time>2021-01-31 12:21:01</time>
      </trkpt>
      <trkpt lat="38.77551" lon="0.11542">
        <ele>73.8</ele>
        <time>2021-01-31 12:21:02</time>
      </trkpt>
      <trkpt lat="38.77551" lon="0.11542">
        <ele>73.4</ele>
        <time>2021-01-31 12:21:03</time>
      </trkpt>
      <trkpt lat="38.77565" lon="0.1152">
        <ele>73.4</ele>
        <time>2021-01-31 12:21:04</time>
      </trkpt>
      <trkpt lat="38.77565" lon="0.1152">
        <ele>73.4</ele>
        <time>2021-01-31 12:21:05</time>
      </trkpt>
      <trkpt lat="38.77565" lon="0.1152">
        <ele>73.4</ele>
        <time>2021-01-31 12:21:06</time>
      </trkpt>
      <trkpt lat="38.77565" lon="0.1152">
        <ele>74.6</ele>
        <time>2021-01-31 12:21:07</time>
      </trkpt>
      <trkpt lat="38.77578" lon="0.11499">
        <ele>74.2</ele>
        <time>2021-01-31 12:21:08</time>
      </trkpt>
      <trkpt lat="38.77581" lon="0.11494">
        <ele>73.6</ele>
        <time>2021-01-31 12:21:09</time>
      </trkpt>
      <trkpt lat="38.77584" lon="0.11489">
        <ele>73.6</ele>
        <time>2021-01-31 12:21:10</time>
      </trkpt>
      <trkpt lat="38.77587" lon="0.11485">
        <ele>73.6</ele>
        <time>2021-01-31 12:21:11</time>
      </trkpt>
      <trkpt lat="38.7759" lon="0.11483">
        <ele>74.6</ele>
        <time>2021-01-31 12:21:12</time>
      </trkpt>
      <trkpt lat="38.77593" lon="0.11481">
        <ele>74.8</ele>
        <time>2021-01-31 12:21:13</time>
      </trkpt>
      <trkpt lat="38.77596" lon="0.1148">
        <ele>74.8</ele>
        <time>2021-01-31 12:21:14</time>
      </trkpt>
      <trkpt lat="38.77599" lon="0.1148">
        <ele>74.8</ele>
        <time>2021-01-31 12:21:15</time>
      </trkpt>
      <trkpt lat="38.77602" lon="0.11478">
        <ele>74.8</ele>
        <time>2021-01-31 12:21:16</time>
      </trkpt>
      <trkpt lat="38.77605" lon="0.11475">
        <ele>74.4</ele>
        <time>2021-01-31 12:21:17</time>
      </trkpt>
      <trkpt lat="38.77607" lon="0.11469">
        <ele>74.4</ele>
        <time>2021-01-31 12:21:18</time>
      </trkpt>
      <trkpt lat="38.77607" lon="0.11469">
        <ele>74.4</ele>
        <time>2021-01-31 12:21:19</time>
      </trkpt>
      <trkpt lat="38.77609" lon="0.11457">
        <ele>73.6</ele>
        <time>2021-01-31 12:21:20</time>
      </trkpt>
      <trkpt lat="38.7761" lon="0.1145">
        <ele>73.6</ele>
        <time>2021-01-31 12:21:21</time>
      </trkpt>
      <trkpt lat="38.77611" lon="0.11444">
        <ele>73.6</ele>
        <time>2021-01-31 12:21:22</time>
      </trkpt>
      <trkpt lat="38.77612" lon="0.11438">
        <ele>73.6</ele>
        <time>2021-01-31 12:21:23</time>
      </trkpt>
      <trkpt lat="38.77613" lon="0.11432">
        <ele>72.6</ele>
        <time>2021-01-31 12:21:24</time>
      </trkpt>
      <trkpt lat="38.77614" lon="0.11426">
        <ele>73.2</ele>
        <time>2021-01-31 12:21:25</time>
      </trkpt>
      <trkpt lat="38.77615" lon="0.1142">
        <ele>73.2</ele>
        <time>2021-01-31 12:21:26</time>
      </trkpt>
      <trkpt lat="38.77616" lon="0.11415">
        <ele>73.2</ele>
        <time>2021-01-31 12:21:27</time>
      </trkpt>
      <trkpt lat="38.77617" lon="0.1141">
        <ele>73.8</ele>
        <time>2021-01-31 12:21:28</time>
      </trkpt>
      <trkpt lat="38.77618" lon="0.11406">
        <ele>73.2</ele>
        <time>2021-01-31 12:21:29</time>
      </trkpt>
      <trkpt lat="38.77619" lon="0.11402">
        <ele>73.2</ele>
        <time>2021-01-31 12:21:30</time>
      </trkpt>
      <trkpt lat="38.7762" lon="0.11397">
        <ele>73.2</ele>
        <time>2021-01-31 12:21:31</time>
      </trkpt>
      <trkpt lat="38.77621" lon="0.11393">
        <ele>74.2</ele>
        <time>2021-01-31 12:21:32</time>
      </trkpt>
      <trkpt lat="38.77622" lon="0.11388">
        <ele>74.2</ele>
        <time>2021-01-31 12:21:33</time>
      </trkpt>
      <trkpt lat="38.77624" lon="0.11383">
        <ele>74.2</ele>
        <time>2021-01-31 12:21:34</time>
      </trkpt>
      <trkpt lat="38.77625" lon="0.11377">
        <ele>74.2</ele>
        <time>2021-01-31 12:21:35</time>
      </trkpt>
      <trkpt lat="38.77627" lon="0.11372">
        <ele>74.2</ele>
        <time>2021-01-31 12:21:36</time>
      </trkpt>
      <trkpt lat="38.77628" lon="0.11366">
        <ele>74.6</ele>
        <time>2021-01-31 12:21:37</time>
      </trkpt>
      <trkpt lat="38.7763" lon="0.1136">
        <ele>74.6</ele>
        <time>2021-01-31 12:21:38</time>
      </trkpt>
      <trkpt lat="38.77631" lon="0.11355">
        <ele>74.6</ele>
        <time>2021-01-31 12:21:39</time>
      </trkpt>
      <trkpt lat="38.77633" lon="0.11349">
        <ele>74.6</ele>
        <time>2021-01-31 12:21:40</time>
      </trkpt>
      <trkpt lat="38.77634" lon="0.11343">
        <ele>74.6</ele>
        <time>2021-01-31 12:21:41</time>
      </trkpt>
      <trkpt lat="38.77636" lon="0.11337">
        <ele>74.6</ele>
        <time>2021-01-31 12:21:42</time>
      </trkpt>
      <trkpt lat="38.77637" lon="0.11331">
        <ele>74.6</ele>
        <time>2021-01-31 12:21:43</time>
      </trkpt>
      <trkpt lat="38.77639" lon="0.11325">
        <ele>74.6</ele>
        <time>2021-01-31 12:21:44</time>
      </trkpt>
      <trkpt lat="38.7764" lon="0.11319">
        <ele>75.4</ele>
        <time>2021-01-31 12:21:45</time>
      </trkpt>
      <trkpt lat="38.77642" lon="0.11313">
        <ele>75.4</ele>
        <time>2021-01-31 12:21:46</time>
      </trkpt>
      <trkpt lat="38.77643" lon="0.11308">
        <ele>75.4</ele>
        <time>2021-01-31 12:21:47</time>
      </trkpt>
      <trkpt lat="38.77645" lon="0.11302">
        <ele>75.4</ele>
        <time>2021-01-31 12:21:48</time>
      </trkpt>
      <trkpt lat="38.77646" lon="0.11296">
        <ele>75</ele>
        <time>2021-01-31 12:21:49</time>
      </trkpt>
      <trkpt lat="38.77648" lon="0.1129">
        <ele>75</ele>
        <time>2021-01-31 12:21:50</time>
      </trkpt>
      <trkpt lat="38.77649" lon="0.11285">
        <ele>75</ele>
        <time>2021-01-31 12:21:51</time>
      </trkpt>
      <trkpt lat="38.7765" lon="0.11279">
        <ele>76</ele>
        <time>2021-01-31 12:21:52</time>
      </trkpt>
      <trkpt lat="38.77652" lon="0.11273">
        <ele>76</ele>
        <time>2021-01-31 12:21:53</time>
      </trkpt>
      <trkpt lat="38.77654" lon="0.11267">
        <ele>76</ele>
        <time>2021-01-31 12:21:54</time>
      </trkpt>
      <trkpt lat="38.77655" lon="0.11261">
        <ele>76</ele>
        <time>2021-01-31 12:21:55</time>
      </trkpt>
      <trkpt lat="38.77657" lon="0.11256">
        <ele>76</ele>
        <time>2021-01-31 12:21:56</time>
      </trkpt>
      <trkpt lat="38.77657" lon="0.11256">
        <ele>76</ele>
        <time>2021-01-31 12:21:57</time>
      </trkpt>
      <trkpt lat="38.77657" lon="0.11256">
        <ele>76</ele>
        <time>2021-01-31 12:21:58</time>
      </trkpt>
      <trkpt lat="38.77657" lon="0.11256">
        <ele>76.4</ele>
        <time>2021-01-31 12:21:59</time>
      </trkpt>
      <trkpt lat="38.77662" lon="0.11233">
        <ele>76.4</ele>
        <time>2021-01-31 12:22:00</time>
      </trkpt>
      <trkpt lat="38.77664" lon="0.11227">
        <ele>76</ele>
        <time>2021-01-31 12:22:01</time>
      </trkpt>
      <trkpt lat="38.77666" lon="0.11222">
        <ele>76</ele>
        <time>2021-01-31 12:22:02</time>
      </trkpt>
      <trkpt lat="38.77667" lon="0.11216">
        <ele>76</ele>
        <time>2021-01-31 12:22:03</time>
      </trkpt>
      <trkpt lat="38.77669" lon="0.1121">
        <ele>77</ele>
        <time>2021-01-31 12:22:04</time>
      </trkpt>
      <trkpt lat="38.7767" lon="0.11205">
        <ele>78</ele>
        <time>2021-01-31 12:22:05</time>
      </trkpt>
      <trkpt lat="38.77671" lon="0.11199">
        <ele>78</ele>
        <time>2021-01-31 12:22:06</time>
      </trkpt>
      <trkpt lat="38.77673" lon="0.11194">
        <ele>78</ele>
        <time>2021-01-31 12:22:07</time>
      </trkpt>
      <trkpt lat="38.77674" lon="0.11188">
        <ele>77.8</ele>
        <time>2021-01-31 12:22:08</time>
      </trkpt>
      <trkpt lat="38.77675" lon="0.11183">
        <ele>77.6</ele>
        <time>2021-01-31 12:22:09</time>
      </trkpt>
      <trkpt lat="38.77677" lon="0.11177">
        <ele>77.6</ele>
        <time>2021-01-31 12:22:10</time>
      </trkpt>
      <trkpt lat="38.77678" lon="0.11172">
        <ele>77.6</ele>
        <time>2021-01-31 12:22:11</time>
      </trkpt>
      <trkpt lat="38.77679" lon="0.11167">
        <ele>77.6</ele>
        <time>2021-01-31 12:22:12</time>
      </trkpt>
      <trkpt lat="38.77681" lon="0.11162">
        <ele>77.2</ele>
        <time>2021-01-31 12:22:13</time>
      </trkpt>
      <trkpt lat="38.77682" lon="0.11156">
        <ele>77.2</ele>
        <time>2021-01-31 12:22:14</time>
      </trkpt>
      <trkpt lat="38.77683" lon="0.11151">
        <ele>77.2</ele>
        <time>2021-01-31 12:22:15</time>
      </trkpt>
      <trkpt lat="38.77685" lon="0.11146">
        <ele>77.6</ele>
        <time>2021-01-31 12:22:16</time>
      </trkpt>
      <trkpt lat="38.77686" lon="0.11141">
        <ele>77.6</ele>
        <time>2021-01-31 12:22:17</time>
      </trkpt>
      <trkpt lat="38.77687" lon="0.11137">
        <ele>77.6</ele>
        <time>2021-01-31 12:22:18</time>
      </trkpt>
      <trkpt lat="38.77689" lon="0.11132">
        <ele>77.6</ele>
        <time>2021-01-31 12:22:19</time>
      </trkpt>
      <trkpt lat="38.7769" lon="0.11127">
        <ele>77.6</ele>
        <time>2021-01-31 12:22:20</time>
      </trkpt>
      <trkpt lat="38.77691" lon="0.11122">
        <ele>78</ele>
        <time>2021-01-31 12:22:21</time>
      </trkpt>
      <trkpt lat="38.77692" lon="0.11117">
        <ele>78</ele>
        <time>2021-01-31 12:22:22</time>
      </trkpt>
      <trkpt lat="38.77694" lon="0.11112">
        <ele>78</ele>
        <time>2021-01-31 12:22:23</time>
      </trkpt>
      <trkpt lat="38.77695" lon="0.11107">
        <ele>77.2</ele>
        <time>2021-01-31 12:22:24</time>
      </trkpt>
      <trkpt lat="38.77697" lon="0.11102">
        <ele>77</ele>
        <time>2021-01-31 12:22:25</time>
      </trkpt>
      <trkpt lat="38.77698" lon="0.11097">
        <ele>77</ele>
        <time>2021-01-31 12:22:26</time>
      </trkpt>
      <trkpt lat="38.77699" lon="0.11093">
        <ele>77</ele>
        <time>2021-01-31 12:22:27</time>
      </trkpt>
      <trkpt lat="38.777" lon="0.11088">
        <ele>77.2</ele>
        <time>2021-01-31 12:22:28</time>
      </trkpt>
      <trkpt lat="38.77701" lon="0.11083">
        <ele>78.6</ele>
        <time>2021-01-31 12:22:29</time>
      </trkpt>
      <trkpt lat="38.77703" lon="0.11078">
        <ele>78.6</ele>
        <time>2021-01-31 12:22:30</time>
      </trkpt>
      <trkpt lat="38.77704" lon="0.11073">
        <ele>78.6</ele>
        <time>2021-01-31 12:22:31</time>
      </trkpt>
      <trkpt lat="38.77705" lon="0.11069">
        <ele>79.2</ele>
        <time>2021-01-31 12:22:32</time>
      </trkpt>
      <trkpt lat="38.77706" lon="0.11064">
        <ele>79.4</ele>
        <time>2021-01-31 12:22:33</time>
      </trkpt>
      <trkpt lat="38.77708" lon="0.11059">
        <ele>79.4</ele>
        <time>2021-01-31 12:22:34</time>
      </trkpt>
      <trkpt lat="38.77709" lon="0.11054">
        <ele>79.4</ele>
        <time>2021-01-31 12:22:35</time>
      </trkpt>
      <trkpt lat="38.7771" lon="0.11048">
        <ele>80.4</ele>
        <time>2021-01-31 12:22:36</time>
      </trkpt>
      <trkpt lat="38.77711" lon="0.11043">
        <ele>80.4</ele>
        <time>2021-01-31 12:22:37</time>
      </trkpt>
      <trkpt lat="38.77712" lon="0.11038">
        <ele>80.4</ele>
        <time>2021-01-31 12:22:38</time>
      </trkpt>
      <trkpt lat="38.77714" lon="0.11033">
        <ele>80.4</ele>
        <time>2021-01-31 12:22:39</time>
      </trkpt>
      <trkpt lat="38.77715" lon="0.11028">
        <ele>80.4</ele>
        <time>2021-01-31 12:22:40</time>
      </trkpt>
      <trkpt lat="38.77716" lon="0.11023">
        <ele>80.2</ele>
        <time>2021-01-31 12:22:41</time>
      </trkpt>
      <trkpt lat="38.77717" lon="0.11018">
        <ele>80.2</ele>
        <time>2021-01-31 12:22:42</time>
      </trkpt>
      <trkpt lat="38.77718" lon="0.11013">
        <ele>80.2</ele>
        <time>2021-01-31 12:22:43</time>
      </trkpt>
      <trkpt lat="38.7772" lon="0.11008">
        <ele>81.2</ele>
        <time>2021-01-31 12:22:44</time>
      </trkpt>
      <trkpt lat="38.77721" lon="0.11003">
        <ele>81.8</ele>
        <time>2021-01-31 12:22:45</time>
      </trkpt>
      <trkpt lat="38.77722" lon="0.10998">
        <ele>81.8</ele>
        <time>2021-01-31 12:22:46</time>
      </trkpt>
      <trkpt lat="38.77723" lon="0.10993">
        <ele>81.8</ele>
        <time>2021-01-31 12:22:47</time>
      </trkpt>
      <trkpt lat="38.77725" lon="0.10989">
        <ele>81</ele>
        <time>2021-01-31 12:22:48</time>
      </trkpt>
      <trkpt lat="38.77726" lon="0.10984">
        <ele>81</ele>
        <time>2021-01-31 12:22:49</time>
      </trkpt>
      <trkpt lat="38.77726" lon="0.10984">
        <ele>81</ele>
        <time>2021-01-31 12:22:50</time>
      </trkpt>
      <trkpt lat="38.77726" lon="0.10984">
        <ele>81</ele>
        <time>2021-01-31 12:22:51</time>
      </trkpt>
      <trkpt lat="38.77726" lon="0.10984">
        <ele>81.4</ele>
        <time>2021-01-31 12:22:52</time>
      </trkpt>
      <trkpt lat="38.77731" lon="0.10964">
        <ele>81.2</ele>
        <time>2021-01-31 12:22:53</time>
      </trkpt>
      <trkpt lat="38.77732" lon="0.10959">
        <ele>81.2</ele>
        <time>2021-01-31 12:22:54</time>
      </trkpt>
      <trkpt lat="38.77733" lon="0.10954">
        <ele>81.2</ele>
        <time>2021-01-31 12:22:55</time>
      </trkpt>
      <trkpt lat="38.77734" lon="0.1095">
        <ele>81.2</ele>
        <time>2021-01-31 12:22:56</time>
      </trkpt>
      <trkpt lat="38.77735" lon="0.10945">
        <ele>80.8</ele>
        <time>2021-01-31 12:22:57</time>
      </trkpt>
      <trkpt lat="38.77737" lon="0.1094">
        <ele>80.8</ele>
        <time>2021-01-31 12:22:58</time>
      </trkpt>
      <trkpt lat="38.77738" lon="0.10935">
        <ele>80.8</ele>
        <time>2021-01-31 12:22:59</time>
      </trkpt>
      <trkpt lat="38.77739" lon="0.10931">
        <ele>80.8</ele>
        <time>2021-01-31 12:23:00</time>
      </trkpt>
      <trkpt lat="38.7774" lon="0.10926">
        <ele>82.4</ele>
        <time>2021-01-31 12:23:01</time>
      </trkpt>
      <trkpt lat="38.77742" lon="0.10921">
        <ele>82.4</ele>
        <time>2021-01-31 12:23:02</time>
      </trkpt>
      <trkpt lat="38.77743" lon="0.10917">
        <ele>82.4</ele>
        <time>2021-01-31 12:23:03</time>
      </trkpt>
      <trkpt lat="38.77744" lon="0.10912">
        <ele>82.4</ele>
        <time>2021-01-31 12:23:04</time>
      </trkpt>
      <trkpt lat="38.77745" lon="0.10907">
        <ele>83.4</ele>
        <time>2021-01-31 12:23:05</time>
      </trkpt>
      <trkpt lat="38.77747" lon="0.10903">
        <ele>83.4</ele>
        <time>2021-01-31 12:23:06</time>
      </trkpt>
      <trkpt lat="38.77748" lon="0.10898">
        <ele>83.4</ele>
        <time>2021-01-31 12:23:07</time>
      </trkpt>
      <trkpt lat="38.77749" lon="0.10893">
        <ele>83.4</ele>
        <time>2021-01-31 12:23:08</time>
      </trkpt>
      <trkpt lat="38.77751" lon="0.10888">
        <ele>84.2</ele>
        <time>2021-01-31 12:23:09</time>
      </trkpt>
      <trkpt lat="38.77752" lon="0.10884">
        <ele>84.2</ele>
        <time>2021-01-31 12:23:10</time>
      </trkpt>
      <trkpt lat="38.77754" lon="0.10879">
        <ele>84.2</ele>
        <time>2021-01-31 12:23:11</time>
      </trkpt>
      <trkpt lat="38.77755" lon="0.10874">
        <ele>84.2</ele>
        <time>2021-01-31 12:23:12</time>
      </trkpt>
      <trkpt lat="38.77757" lon="0.10869">
        <ele>84.6</ele>
        <time>2021-01-31 12:23:13</time>
      </trkpt>
      <trkpt lat="38.77758" lon="0.10864">
        <ele>84.6</ele>
        <time>2021-01-31 12:23:14</time>
      </trkpt>
      <trkpt lat="38.7776" lon="0.10859">
        <ele>84.6</ele>
        <time>2021-01-31 12:23:15</time>
      </trkpt>
      <trkpt lat="38.77761" lon="0.10854">
        <ele>84.6</ele>
        <time>2021-01-31 12:23:16</time>
      </trkpt>
      <trkpt lat="38.77763" lon="0.10849">
        <ele>84.2</ele>
        <time>2021-01-31 12:23:17</time>
      </trkpt>
      <trkpt lat="38.77764" lon="0.10845">
        <ele>84.2</ele>
        <time>2021-01-31 12:23:18</time>
      </trkpt>
      <trkpt lat="38.77764" lon="0.10845">
        <ele>84.2</ele>
        <time>2021-01-31 12:23:19</time>
      </trkpt>
      <trkpt lat="38.77764" lon="0.10845">
        <ele>84.2</ele>
        <time>2021-01-31 12:23:20</time>
      </trkpt>
      <trkpt lat="38.77764" lon="0.10845">
        <ele>83.4</ele>
        <time>2021-01-31 12:23:21</time>
      </trkpt>
      <trkpt lat="38.7777" lon="0.10825">
        <ele>83.4</ele>
        <time>2021-01-31 12:23:22</time>
      </trkpt>
      <trkpt lat="38.77772" lon="0.1082">
        <ele>83.4</ele>
        <time>2021-01-31 12:23:23</time>
      </trkpt>
      <trkpt lat="38.77773" lon="0.10815">
        <ele>84.4</ele>
        <time>2021-01-31 12:23:24</time>
      </trkpt>
      <trkpt lat="38.77775" lon="0.10811">
        <ele>85</ele>
        <time>2021-01-31 12:23:25</time>
      </trkpt>
      <trkpt lat="38.77777" lon="0.10806">
        <ele>85</ele>
        <time>2021-01-31 12:23:26</time>
      </trkpt>
      <trkpt lat="38.77778" lon="0.10801">
        <ele>85</ele>
        <time>2021-01-31 12:23:27</time>
      </trkpt>
      <trkpt lat="38.7778" lon="0.10796">
        <ele>85.6</ele>
        <time>2021-01-31 12:23:28</time>
      </trkpt>
      <trkpt lat="38.77782" lon="0.10792">
        <ele>85.4</ele>
        <time>2021-01-31 12:23:29</time>
      </trkpt>
      <trkpt lat="38.77784" lon="0.10787">
        <ele>85.4</ele>
        <time>2021-01-31 12:23:30</time>
      </trkpt>
      <trkpt lat="38.77786" lon="0.10783">
        <ele>85.4</ele>
        <time>2021-01-31 12:23:31</time>
      </trkpt>
      <trkpt lat="38.77787" lon="0.10778">
        <ele>85.4</ele>
        <time>2021-01-31 12:23:32</time>
      </trkpt>
      <trkpt lat="38.77789" lon="0.10773">
        <ele>86.6</ele>
        <time>2021-01-31 12:23:33</time>
      </trkpt>
      <trkpt lat="38.77791" lon="0.10769">
        <ele>86.6</ele>
        <time>2021-01-31 12:23:34</time>
      </trkpt>
      <trkpt lat="38.77793" lon="0.10764">
        <ele>86.6</ele>
        <time>2021-01-31 12:23:35</time>
      </trkpt>
      <trkpt lat="38.77794" lon="0.1076">
        <ele>85.8</ele>
        <time>2021-01-31 12:23:36</time>
      </trkpt>
      <trkpt lat="38.77796" lon="0.10755">
        <ele>85.8</ele>
        <time>2021-01-31 12:23:37</time>
      </trkpt>
      <trkpt lat="38.77798" lon="0.10751">
        <ele>85.8</ele>
        <time>2021-01-31 12:23:38</time>
      </trkpt>
      <trkpt lat="38.778" lon="0.10746">
        <ele>85.8</ele>
        <time>2021-01-31 12:23:39</time>
      </trkpt>
      <trkpt lat="38.77802" lon="0.10742">
        <ele>85.8</ele>
        <time>2021-01-31 12:23:40</time>
      </trkpt>
      <trkpt lat="38.77804" lon="0.10737">
        <ele>86.6</ele>
        <time>2021-01-31 12:23:41</time>
      </trkpt>
      <trkpt lat="38.77805" lon="0.10733">
        <ele>86.6</ele>
        <time>2021-01-31 12:23:42</time>
      </trkpt>
      <trkpt lat="38.77807" lon="0.10729">
        <ele>86.6</ele>
        <time>2021-01-31 12:23:43</time>
      </trkpt>
      <trkpt lat="38.77809" lon="0.10724">
        <ele>86.6</ele>
        <time>2021-01-31 12:23:44</time>
      </trkpt>
      <trkpt lat="38.77811" lon="0.1072">
        <ele>86.4</ele>
        <time>2021-01-31 12:23:45</time>
      </trkpt>
      <trkpt lat="38.77812" lon="0.10715">
        <ele>86.4</ele>
        <time>2021-01-31 12:23:46</time>
      </trkpt>
      <trkpt lat="38.77814" lon="0.10711">
        <ele>86.4</ele>
        <time>2021-01-31 12:23:47</time>
      </trkpt>
      <trkpt lat="38.77814" lon="0.10711">
        <ele>86.4</ele>
        <time>2021-01-31 12:23:48</time>
      </trkpt>
      <trkpt lat="38.77814" lon="0.10711">
        <ele>86.4</ele>
        <time>2021-01-31 12:23:49</time>
      </trkpt>
      <trkpt lat="38.77814" lon="0.10711">
        <ele>88.2</ele>
        <time>2021-01-31 12:23:50</time>
      </trkpt>
      <trkpt lat="38.77822" lon="0.10694">
        <ele>88.2</ele>
        <time>2021-01-31 12:23:51</time>
      </trkpt>
      <trkpt lat="38.77823" lon="0.10689">
        <ele>88.2</ele>
        <time>2021-01-31 12:23:52</time>
      </trkpt>
      <trkpt lat="38.77825" lon="0.10685">
        <ele>89</ele>
        <time>2021-01-31 12:23:53</time>
      </trkpt>
      <trkpt lat="38.77827" lon="0.1068">
        <ele>89</ele>
        <time>2021-01-31 12:23:54</time>
      </trkpt>
      <trkpt lat="38.77829" lon="0.10676">
        <ele>89</ele>
        <time>2021-01-31 12:23:55</time>
      </trkpt>
      <trkpt lat="38.7783" lon="0.10671">
        <ele>88.8</ele>
        <time>2021-01-31 12:23:56</time>
      </trkpt>
      <trkpt lat="38.77832" lon="0.10667">
        <ele>87</ele>
        <time>2021-01-31 12:23:57</time>
      </trkpt>
      <trkpt lat="38.77834" lon="0.10663">
        <ele>87</ele>
        <time>2021-01-31 12:23:58</time>
      </trkpt>
      <trkpt lat="38.77836" lon="0.10658">
        <ele>87</ele>
        <time>2021-01-31 12:23:59</time>
      </trkpt>
      <trkpt lat="38.77838" lon="0.10654">
        <ele>88</ele>
        <time>2021-01-31 12:24:00</time>
      </trkpt>
      <trkpt lat="38.7784" lon="0.10649">
        <ele>89.4</ele>
        <time>2021-01-31 12:24:01</time>
      </trkpt>
      <trkpt lat="38.77842" lon="0.10645">
        <ele>89.4</ele>
        <time>2021-01-31 12:24:02</time>
      </trkpt>
      <trkpt lat="38.77844" lon="0.10642">
        <ele>89.4</ele>
        <time>2021-01-31 12:24:03</time>
      </trkpt>
      <trkpt lat="38.77846" lon="0.10637">
        <ele>90</ele>
        <time>2021-01-31 12:24:04</time>
      </trkpt>
      <trkpt lat="38.77847" lon="0.10633">
        <ele>89.2</ele>
        <time>2021-01-31 12:24:05</time>
      </trkpt>
      <trkpt lat="38.77849" lon="0.10628">
        <ele>89.2</ele>
        <time>2021-01-31 12:24:06</time>
      </trkpt>
      <trkpt lat="38.77851" lon="0.10624">
        <ele>89.2</ele>
        <time>2021-01-31 12:24:07</time>
      </trkpt>
      <trkpt lat="38.77853" lon="0.1062">
        <ele>90.2</ele>
        <time>2021-01-31 12:24:08</time>
      </trkpt>
      <trkpt lat="38.77855" lon="0.10616">
        <ele>89.6</ele>
        <time>2021-01-31 12:24:09</time>
      </trkpt>
      <trkpt lat="38.77857" lon="0.10612">
        <ele>89.6</ele>
        <time>2021-01-31 12:24:10</time>
      </trkpt>
      <trkpt lat="38.77858" lon="0.10607">
        <ele>89.6</ele>
        <time>2021-01-31 12:24:11</time>
      </trkpt>
      <trkpt lat="38.7786" lon="0.10603">
        <ele>90.2</ele>
        <time>2021-01-31 12:24:12</time>
      </trkpt>
      <trkpt lat="38.77862" lon="0.10599">
        <ele>90.4</ele>
        <time>2021-01-31 12:24:13</time>
      </trkpt>
      <trkpt lat="38.77863" lon="0.10594">
        <ele>90.4</ele>
        <time>2021-01-31 12:24:14</time>
      </trkpt>
      <trkpt lat="38.77865" lon="0.1059">
        <ele>90.4</ele>
        <time>2021-01-31 12:24:15</time>
      </trkpt>
      <trkpt lat="38.77867" lon="0.10586">
        <ele>89.6</ele>
        <time>2021-01-31 12:24:16</time>
      </trkpt>
      <trkpt lat="38.77869" lon="0.10581">
        <ele>90.4</ele>
        <time>2021-01-31 12:24:17</time>
      </trkpt>
      <trkpt lat="38.7787" lon="0.10577">
        <ele>90.4</ele>
        <time>2021-01-31 12:24:18</time>
      </trkpt>
      <trkpt lat="38.77872" lon="0.10573">
        <ele>90.4</ele>
        <time>2021-01-31 12:24:19</time>
      </trkpt>
      <trkpt lat="38.77874" lon="0.10568">
        <ele>90.4</ele>
        <time>2021-01-31 12:24:20</time>
      </trkpt>
      <trkpt lat="38.77876" lon="0.10564">
        <ele>91.2</ele>
        <time>2021-01-31 12:24:21</time>
      </trkpt>
      <trkpt lat="38.77878" lon="0.10559">
        <ele>91.2</ele>
        <time>2021-01-31 12:24:22</time>
      </trkpt>
      <trkpt lat="38.7788" lon="0.10554">
        <ele>91.2</ele>
        <time>2021-01-31 12:24:23</time>
      </trkpt>
      <trkpt lat="38.77882" lon="0.10549">
        <ele>91.2</ele>
        <time>2021-01-31 12:24:24</time>
      </trkpt>
      <trkpt lat="38.77884" lon="0.10544">
        <ele>91</ele>
        <time>2021-01-31 12:24:25</time>
      </trkpt>
      <trkpt lat="38.77886" lon="0.10539">
        <ele>91</ele>
        <time>2021-01-31 12:24:26</time>
      </trkpt>
      <trkpt lat="38.77888" lon="0.10533">
        <ele>91</ele>
        <time>2021-01-31 12:24:27</time>
      </trkpt>
      <trkpt lat="38.77891" lon="0.10527">
        <ele>90</ele>
        <time>2021-01-31 12:24:28</time>
      </trkpt>
      <trkpt lat="38.77893" lon="0.10521">
        <ele>89.6</ele>
        <time>2021-01-31 12:24:29</time>
      </trkpt>
      <trkpt lat="38.77896" lon="0.10515">
        <ele>89.6</ele>
        <time>2021-01-31 12:24:30</time>
      </trkpt>
      <trkpt lat="38.77898" lon="0.10509">
        <ele>89.6</ele>
        <time>2021-01-31 12:24:31</time>
      </trkpt>
      <trkpt lat="38.77901" lon="0.10503">
        <ele>89.6</ele>
        <time>2021-01-31 12:24:32</time>
      </trkpt>
      <trkpt lat="38.77904" lon="0.10496">
        <ele>90.2</ele>
        <time>2021-01-31 12:24:33</time>
      </trkpt>
      <trkpt lat="38.77906" lon="0.1049">
        <ele>90.2</ele>
        <time>2021-01-31 12:24:34</time>
      </trkpt>
      <trkpt lat="38.77909" lon="0.10483">
        <ele>90.2</ele>
        <time>2021-01-31 12:24:35</time>
      </trkpt>
      <trkpt lat="38.77912" lon="0.10476">
        <ele>89.2</ele>
        <time>2021-01-31 12:24:36</time>
      </trkpt>
      <trkpt lat="38.77914" lon="0.10469">
        <ele>88.4</ele>
        <time>2021-01-31 12:24:37</time>
      </trkpt>
      <trkpt lat="38.77917" lon="0.10462">
        <ele>88.4</ele>
        <time>2021-01-31 12:24:38</time>
      </trkpt>
      <trkpt lat="38.77919" lon="0.10454">
        <ele>88.4</ele>
        <time>2021-01-31 12:24:39</time>
      </trkpt>
      <trkpt lat="38.77922" lon="0.10447">
        <ele>87.4</ele>
        <time>2021-01-31 12:24:40</time>
      </trkpt>
      <trkpt lat="38.77924" lon="0.10439">
        <ele>87</ele>
        <time>2021-01-31 12:24:41</time>
      </trkpt>
      <trkpt lat="38.77927" lon="0.10431">
        <ele>87</ele>
        <time>2021-01-31 12:24:42</time>
      </trkpt>
      <trkpt lat="38.77929" lon="0.10422">
        <ele>87</ele>
        <time>2021-01-31 12:24:43</time>
      </trkpt>
      <trkpt lat="38.77932" lon="0.10414">
        <ele>86</ele>
        <time>2021-01-31 12:24:44</time>
      </trkpt>
      <trkpt lat="38.77935" lon="0.10406">
        <ele>85</ele>
        <time>2021-01-31 12:24:45</time>
      </trkpt>
      <trkpt lat="38.77937" lon="0.10398">
        <ele>85</ele>
        <time>2021-01-31 12:24:46</time>
      </trkpt>
      <trkpt lat="38.7794" lon="0.10389">
        <ele>85</ele>
        <time>2021-01-31 12:24:47</time>
      </trkpt>
      <trkpt lat="38.77943" lon="0.1038">
        <ele>85</ele>
        <time>2021-01-31 12:24:48</time>
      </trkpt>
      <trkpt lat="38.77945" lon="0.10371">
        <ele>84.2</ele>
        <time>2021-01-31 12:24:49</time>
      </trkpt>
      <trkpt lat="38.77948" lon="0.10362">
        <ele>84.2</ele>
        <time>2021-01-31 12:24:50</time>
      </trkpt>
      <trkpt lat="38.77951" lon="0.10354">
        <ele>84.2</ele>
        <time>2021-01-31 12:24:51</time>
      </trkpt>
      <trkpt lat="38.77954" lon="0.10345">
        <ele>83.2</ele>
        <time>2021-01-31 12:24:52</time>
      </trkpt>
      <trkpt lat="38.77956" lon="0.10336">
        <ele>83.2</ele>
        <time>2021-01-31 12:24:53</time>
      </trkpt>
      <trkpt lat="38.7796" lon="0.10328">
        <ele>83.2</ele>
        <time>2021-01-31 12:24:54</time>
      </trkpt>
      <trkpt lat="38.77962" lon="0.10319">
        <ele>83.2</ele>
        <time>2021-01-31 12:24:55</time>
      </trkpt>
      <trkpt lat="38.77965" lon="0.1031">
        <ele>82.8</ele>
        <time>2021-01-31 12:24:56</time>
      </trkpt>
      <trkpt lat="38.77967" lon="0.10302">
        <ele>83.2</ele>
        <time>2021-01-31 12:24:57</time>
      </trkpt>
      <trkpt lat="38.7797" lon="0.10294">
        <ele>83.2</ele>
        <time>2021-01-31 12:24:58</time>
      </trkpt>
      <trkpt lat="38.77972" lon="0.10286">
        <ele>83.2</ele>
        <time>2021-01-31 12:24:59</time>
      </trkpt>
      <trkpt lat="38.77975" lon="0.10277">
        <ele>84.2</ele>
        <time>2021-01-31 12:25:00</time>
      </trkpt>
      <trkpt lat="38.77977" lon="0.10269">
        <ele>85.8</ele>
        <time>2021-01-31 12:25:01</time>
      </trkpt>
      <trkpt lat="38.7798" lon="0.10261">
        <ele>85.8</ele>
        <time>2021-01-31 12:25:02</time>
      </trkpt>
      <trkpt lat="38.77982" lon="0.10252">
        <ele>85.8</ele>
        <time>2021-01-31 12:25:03</time>
      </trkpt>
      <trkpt lat="38.77985" lon="0.10244">
        <ele>85.8</ele>
        <time>2021-01-31 12:25:04</time>
      </trkpt>
      <trkpt lat="38.77988" lon="0.10236">
        <ele>85.4</ele>
        <time>2021-01-31 12:25:05</time>
      </trkpt>
      <trkpt lat="38.77991" lon="0.10228">
        <ele>85.4</ele>
        <time>2021-01-31 12:25:06</time>
      </trkpt>
      <trkpt lat="38.77993" lon="0.1022">
        <ele>85.4</ele>
        <time>2021-01-31 12:25:07</time>
      </trkpt>
      <trkpt lat="38.77996" lon="0.10212">
        <ele>85.4</ele>
        <time>2021-01-31 12:25:08</time>
      </trkpt>
      <trkpt lat="38.77998" lon="0.10204">
        <ele>85.6</ele>
        <time>2021-01-31 12:25:09</time>
      </trkpt>
      <trkpt lat="38.78001" lon="0.10196">
        <ele>85.6</ele>
        <time>2021-01-31 12:25:10</time>
      </trkpt>
      <trkpt lat="38.78004" lon="0.10188">
        <ele>85.6</ele>
        <time>2021-01-31 12:25:11</time>
      </trkpt>
      <trkpt lat="38.78006" lon="0.1018">
        <ele>85.8</ele>
        <time>2021-01-31 12:25:12</time>
      </trkpt>
      <trkpt lat="38.78009" lon="0.10172">
        <ele>85.4</ele>
        <time>2021-01-31 12:25:13</time>
      </trkpt>
      <trkpt lat="38.78011" lon="0.10164">
        <ele>85.4</ele>
        <time>2021-01-31 12:25:14</time>
      </trkpt>
      <trkpt lat="38.78014" lon="0.10156">
        <ele>85.4</ele>
        <time>2021-01-31 12:25:15</time>
      </trkpt>
      <trkpt lat="38.78016" lon="0.10148">
        <ele>85.4</ele>
        <time>2021-01-31 12:25:16</time>
      </trkpt>
      <trkpt lat="38.78019" lon="0.10141">
        <ele>85</ele>
        <time>2021-01-31 12:25:17</time>
      </trkpt>
      <trkpt lat="38.78021" lon="0.10133">
        <ele>85</ele>
        <time>2021-01-31 12:25:18</time>
      </trkpt>
      <trkpt lat="38.78024" lon="0.10125">
        <ele>85</ele>
        <time>2021-01-31 12:25:19</time>
      </trkpt>
      <trkpt lat="38.78026" lon="0.10118">
        <ele>86</ele>
        <time>2021-01-31 12:25:20</time>
      </trkpt>
      <trkpt lat="38.78028" lon="0.10111">
        <ele>85.4</ele>
        <time>2021-01-31 12:25:21</time>
      </trkpt>
      <trkpt lat="38.78031" lon="0.10103">
        <ele>85.4</ele>
        <time>2021-01-31 12:25:22</time>
      </trkpt>
      <trkpt lat="38.78033" lon="0.10096">
        <ele>85.4</ele>
        <time>2021-01-31 12:25:23</time>
      </trkpt>
      <trkpt lat="38.78035" lon="0.10089">
        <ele>85.4</ele>
        <time>2021-01-31 12:25:24</time>
      </trkpt>
      <trkpt lat="38.78037" lon="0.10082">
        <ele>85.8</ele>
        <time>2021-01-31 12:25:25</time>
      </trkpt>
      <trkpt lat="38.7804" lon="0.10075">
        <ele>85.8</ele>
        <time>2021-01-31 12:25:26</time>
      </trkpt>
      <trkpt lat="38.78042" lon="0.10069">
        <ele>85.8</ele>
        <time>2021-01-31 12:25:27</time>
      </trkpt>
      <trkpt lat="38.78044" lon="0.10062">
        <ele>86.6</ele>
        <time>2021-01-31 12:25:28</time>
      </trkpt>
      <trkpt lat="38.78046" lon="0.10055">
        <ele>86.8</ele>
        <time>2021-01-31 12:25:29</time>
      </trkpt>
      <trkpt lat="38.78048" lon="0.10048">
        <ele>86.8</ele>
        <time>2021-01-31 12:25:30</time>
      </trkpt>
      <trkpt lat="38.7805" lon="0.10042">
        <ele>86.8</ele>
        <time>2021-01-31 12:25:31</time>
      </trkpt>
      <trkpt lat="38.78052" lon="0.10035">
        <ele>86.8</ele>
        <time>2021-01-31 12:25:32</time>
      </trkpt>
      <trkpt lat="38.78054" lon="0.10028">
        <ele>87.8</ele>
        <time>2021-01-31 12:25:33</time>
      </trkpt>
      <trkpt lat="38.78056" lon="0.10022">
        <ele>87.8</ele>
        <time>2021-01-31 12:25:34</time>
      </trkpt>
      <trkpt lat="38.78058" lon="0.10015">
        <ele>87.8</ele>
        <time>2021-01-31 12:25:35</time>
      </trkpt>
      <trkpt lat="38.78061" lon="0.10008">
        <ele>87.4</ele>
        <time>2021-01-31 12:25:36</time>
      </trkpt>
      <trkpt lat="38.78063" lon="0.10002">
        <ele>86.2</ele>
        <time>2021-01-31 12:25:37</time>
      </trkpt>
      <trkpt lat="38.78065" lon="0.09995">
        <ele>86.2</ele>
        <time>2021-01-31 12:25:38</time>
      </trkpt>
      <trkpt lat="38.78067" lon="0.09988">
        <ele>86.2</ele>
        <time>2021-01-31 12:25:39</time>
      </trkpt>
      <trkpt lat="38.78069" lon="0.09982">
        <ele>86.2</ele>
        <time>2021-01-31 12:25:40</time>
      </trkpt>
      <trkpt lat="38.78071" lon="0.09975">
        <ele>86.4</ele>
        <time>2021-01-31 12:25:41</time>
      </trkpt>
      <trkpt lat="38.78073" lon="0.09968">
        <ele>86.4</ele>
        <time>2021-01-31 12:25:42</time>
      </trkpt>
      <trkpt lat="38.78075" lon="0.09962">
        <ele>86.4</ele>
        <time>2021-01-31 12:25:43</time>
      </trkpt>
      <trkpt lat="38.78077" lon="0.09955">
        <ele>87.4</ele>
        <time>2021-01-31 12:25:44</time>
      </trkpt>
      <trkpt lat="38.78079" lon="0.09949">
        <ele>88.6</ele>
        <time>2021-01-31 12:25:45</time>
      </trkpt>
      <trkpt lat="38.78081" lon="0.09942">
        <ele>88.6</ele>
        <time>2021-01-31 12:25:46</time>
      </trkpt>
      <trkpt lat="38.78083" lon="0.09935">
        <ele>88.6</ele>
        <time>2021-01-31 12:25:47</time>
      </trkpt>
      <trkpt lat="38.78085" lon="0.09928">
        <ele>87.8</ele>
        <time>2021-01-31 12:25:48</time>
      </trkpt>
      <trkpt lat="38.78087" lon="0.09922">
        <ele>88.4</ele>
        <time>2021-01-31 12:25:49</time>
      </trkpt>
      <trkpt lat="38.7809" lon="0.09915">
        <ele>88.4</ele>
        <time>2021-01-31 12:25:50</time>
      </trkpt>
      <trkpt lat="38.78091" lon="0.09908">
        <ele>88.4</ele>
        <time>2021-01-31 12:25:51</time>
      </trkpt>
      <trkpt lat="38.78094" lon="0.09901">
        <ele>88.4</ele>
        <time>2021-01-31 12:25:52</time>
      </trkpt>
      <trkpt lat="38.78096" lon="0.09895">
        <ele>88.6</ele>
        <time>2021-01-31 12:25:53</time>
      </trkpt>
      <trkpt lat="38.78098" lon="0.09888">
        <ele>88.6</ele>
        <time>2021-01-31 12:25:54</time>
      </trkpt>
      <trkpt lat="38.781" lon="0.09882">
        <ele>88.6</ele>
        <time>2021-01-31 12:25:55</time>
      </trkpt>
      <trkpt lat="38.78102" lon="0.09875">
        <ele>88.6</ele>
        <time>2021-01-31 12:25:56</time>
      </trkpt>
      <trkpt lat="38.78104" lon="0.09869">
        <ele>88</ele>
        <time>2021-01-31 12:25:57</time>
      </trkpt>
      <trkpt lat="38.78106" lon="0.09862">
        <ele>88</ele>
        <time>2021-01-31 12:25:58</time>
      </trkpt>
      <trkpt lat="38.78108" lon="0.09856">
        <ele>88</ele>
        <time>2021-01-31 12:25:59</time>
      </trkpt>
      <trkpt lat="38.7811" lon="0.09849">
        <ele>88</ele>
        <time>2021-01-31 12:26:00</time>
      </trkpt>
      <trkpt lat="38.78112" lon="0.09843">
        <ele>87.6</ele>
        <time>2021-01-31 12:26:01</time>
      </trkpt>
      <trkpt lat="38.78114" lon="0.09836">
        <ele>87.6</ele>
        <time>2021-01-31 12:26:02</time>
      </trkpt>
      <trkpt lat="38.78116" lon="0.0983">
        <ele>87.6</ele>
        <time>2021-01-31 12:26:03</time>
      </trkpt>
      <trkpt lat="38.78118" lon="0.09824">
        <ele>87.6</ele>
        <time>2021-01-31 12:26:04</time>
      </trkpt>
      <trkpt lat="38.7812" lon="0.09817">
        <ele>87.2</ele>
        <time>2021-01-31 12:26:05</time>
      </trkpt>
      <trkpt lat="38.78122" lon="0.09811">
        <ele>87.2</ele>
        <time>2021-01-31 12:26:06</time>
      </trkpt>
      <trkpt lat="38.78123" lon="0.09805">
        <ele>87.2</ele>
        <time>2021-01-31 12:26:07</time>
      </trkpt>
      <trkpt lat="38.78125" lon="0.09799">
        <ele>87.2</ele>
        <time>2021-01-31 12:26:08</time>
      </trkpt>
      <trkpt lat="38.78127" lon="0.09793">
        <ele>87.2</ele>
        <time>2021-01-31 12:26:09</time>
      </trkpt>
      <trkpt lat="38.78129" lon="0.09787">
        <ele>87.2</ele>
        <time>2021-01-31 12:26:10</time>
      </trkpt>
      <trkpt lat="38.78131" lon="0.09781">
        <ele>87.2</ele>
        <time>2021-01-31 12:26:11</time>
      </trkpt>
      <trkpt lat="38.78133" lon="0.09775">
        <ele>87.2</ele>
        <time>2021-01-31 12:26:12</time>
      </trkpt>
      <trkpt lat="38.78135" lon="0.0977">
        <ele>88.6</ele>
        <time>2021-01-31 12:26:13</time>
      </trkpt>
      <trkpt lat="38.78136" lon="0.09764">
        <ele>88.6</ele>
        <time>2021-01-31 12:26:14</time>
      </trkpt>
      <trkpt lat="38.78138" lon="0.09758">
        <ele>88.6</ele>
        <time>2021-01-31 12:26:15</time>
      </trkpt>
      <trkpt lat="38.7814" lon="0.09752">
        <ele>88.4</ele>
        <time>2021-01-31 12:26:16</time>
      </trkpt>
      <trkpt lat="38.78142" lon="0.09746">
        <ele>89.4</ele>
        <time>2021-01-31 12:26:17</time>
      </trkpt>
      <trkpt lat="38.78144" lon="0.0974">
        <ele>89.4</ele>
        <time>2021-01-31 12:26:18</time>
      </trkpt>
      <trkpt lat="38.78146" lon="0.09734">
        <ele>89.4</ele>
        <time>2021-01-31 12:26:19</time>
      </trkpt>
      <trkpt lat="38.78147" lon="0.09727">
        <ele>89.4</ele>
        <time>2021-01-31 12:26:20</time>
      </trkpt>
      <trkpt lat="38.78149" lon="0.09721">
        <ele>89</ele>
        <time>2021-01-31 12:26:21</time>
      </trkpt>
      <trkpt lat="38.78151" lon="0.09715">
        <ele>89</ele>
        <time>2021-01-31 12:26:22</time>
      </trkpt>
      <trkpt lat="38.78153" lon="0.09708">
        <ele>89</ele>
        <time>2021-01-31 12:26:23</time>
      </trkpt>
      <trkpt lat="38.78156" lon="0.09702">
        <ele>90</ele>
        <time>2021-01-31 12:26:24</time>
      </trkpt>
      <trkpt lat="38.78158" lon="0.09695">
        <ele>89.4</ele>
        <time>2021-01-31 12:26:25</time>
      </trkpt>
      <trkpt lat="38.7816" lon="0.09689">
        <ele>89.4</ele>
        <time>2021-01-31 12:26:26</time>
      </trkpt>
      <trkpt lat="38.78162" lon="0.09682">
        <ele>89.4</ele>
        <time>2021-01-31 12:26:27</time>
      </trkpt>
      <trkpt lat="38.78164" lon="0.09676">
        <ele>88.8</ele>
        <time>2021-01-31 12:26:28</time>
      </trkpt>
      <trkpt lat="38.78166" lon="0.0967">
        <ele>89</ele>
        <time>2021-01-31 12:26:29</time>
      </trkpt>
      <trkpt lat="38.78168" lon="0.09663">
        <ele>89</ele>
        <time>2021-01-31 12:26:30</time>
      </trkpt>
      <trkpt lat="38.7817" lon="0.09656">
        <ele>89</ele>
        <time>2021-01-31 12:26:31</time>
      </trkpt>
      <trkpt lat="38.78172" lon="0.0965">
        <ele>89</ele>
        <time>2021-01-31 12:26:32</time>
      </trkpt>
      <trkpt lat="38.78174" lon="0.09643">
        <ele>89.6</ele>
        <time>2021-01-31 12:26:33</time>
      </trkpt>
      <trkpt lat="38.78176" lon="0.09637">
        <ele>89.6</ele>
        <time>2021-01-31 12:26:34</time>
      </trkpt>
      <trkpt lat="38.78178" lon="0.0963">
        <ele>89.6</ele>
        <time>2021-01-31 12:26:35</time>
      </trkpt>
      <trkpt lat="38.7818" lon="0.09624">
        <ele>90.4</ele>
        <time>2021-01-31 12:26:36</time>
      </trkpt>
      <trkpt lat="38.78182" lon="0.09617">
        <ele>91</ele>
        <time>2021-01-31 12:26:37</time>
      </trkpt>
      <trkpt lat="38.78184" lon="0.09611">
        <ele>91</ele>
        <time>2021-01-31 12:26:38</time>
      </trkpt>
      <trkpt lat="38.78186" lon="0.09604">
        <ele>91</ele>
        <time>2021-01-31 12:26:39</time>
      </trkpt>
      <trkpt lat="38.78188" lon="0.09598">
        <ele>90</ele>
        <time>2021-01-31 12:26:40</time>
      </trkpt>
      <trkpt lat="38.7819" lon="0.09591">
        <ele>90.4</ele>
        <time>2021-01-31 12:26:41</time>
      </trkpt>
      <trkpt lat="38.78192" lon="0.09585">
        <ele>90.4</ele>
        <time>2021-01-31 12:26:42</time>
      </trkpt>
      <trkpt lat="38.78194" lon="0.09579">
        <ele>90.4</ele>
        <time>2021-01-31 12:26:43</time>
      </trkpt>
      <trkpt lat="38.78196" lon="0.09572">
        <ele>91.4</ele>
        <time>2021-01-31 12:26:44</time>
      </trkpt>
      <trkpt lat="38.78198" lon="0.09566">
        <ele>91.4</ele>
        <time>2021-01-31 12:26:45</time>
      </trkpt>
      <trkpt lat="38.782" lon="0.09559">
        <ele>91.4</ele>
        <time>2021-01-31 12:26:46</time>
      </trkpt>
      <trkpt lat="38.78202" lon="0.09553">
        <ele>91.4</ele>
        <time>2021-01-31 12:26:47</time>
      </trkpt>
      <trkpt lat="38.78204" lon="0.09547">
        <ele>91.2</ele>
        <time>2021-01-31 12:26:48</time>
      </trkpt>
      <trkpt lat="38.78206" lon="0.0954">
        <ele>91.4</ele>
        <time>2021-01-31 12:26:49</time>
      </trkpt>
      <trkpt lat="38.78208" lon="0.09534">
        <ele>91.4</ele>
        <time>2021-01-31 12:26:50</time>
      </trkpt>
      <trkpt lat="38.7821" lon="0.09528">
        <ele>91.4</ele>
        <time>2021-01-31 12:26:51</time>
      </trkpt>
      <trkpt lat="38.78212" lon="0.09522">
        <ele>91.4</ele>
        <time>2021-01-31 12:26:52</time>
      </trkpt>
      <trkpt lat="38.78214" lon="0.09516">
        <ele>91.4</ele>
        <time>2021-01-31 12:26:53</time>
      </trkpt>
      <trkpt lat="38.78216" lon="0.0951">
        <ele>91.4</ele>
        <time>2021-01-31 12:26:54</time>
      </trkpt>
      <trkpt lat="38.78218" lon="0.09505">
        <ele>91.4</ele>
        <time>2021-01-31 12:26:55</time>
      </trkpt>
      <trkpt lat="38.78219" lon="0.09499">
        <ele>91.4</ele>
        <time>2021-01-31 12:26:56</time>
      </trkpt>
      <trkpt lat="38.78221" lon="0.09493">
        <ele>91</ele>
        <time>2021-01-31 12:26:57</time>
      </trkpt>
      <trkpt lat="38.78223" lon="0.09488">
        <ele>91</ele>
        <time>2021-01-31 12:26:58</time>
      </trkpt>
      <trkpt lat="38.78224" lon="0.09483">
        <ele>91</ele>
        <time>2021-01-31 12:26:59</time>
      </trkpt>
      <trkpt lat="38.78226" lon="0.09478">
        <ele>91</ele>
        <time>2021-01-31 12:27:00</time>
      </trkpt>
      <trkpt lat="38.78227" lon="0.09473">
        <ele>91.2</ele>
        <time>2021-01-31 12:27:01</time>
      </trkpt>
      <trkpt lat="38.78229" lon="0.09468">
        <ele>91.2</ele>
        <time>2021-01-31 12:27:02</time>
      </trkpt>
      <trkpt lat="38.7823" lon="0.09463">
        <ele>91.2</ele>
        <time>2021-01-31 12:27:03</time>
      </trkpt>
      <trkpt lat="38.78232" lon="0.09459">
        <ele>92.2</ele>
        <time>2021-01-31 12:27:04</time>
      </trkpt>
      <trkpt lat="38.78233" lon="0.09454">
        <ele>93.6</ele>
        <time>2021-01-31 12:27:05</time>
      </trkpt>
      <trkpt lat="38.78234" lon="0.0945">
        <ele>93.6</ele>
        <time>2021-01-31 12:27:06</time>
      </trkpt>
      <trkpt lat="38.78236" lon="0.09445">
        <ele>93.6</ele>
        <time>2021-01-31 12:27:07</time>
      </trkpt>
      <trkpt lat="38.78237" lon="0.0944">
        <ele>93.6</ele>
        <time>2021-01-31 12:27:08</time>
      </trkpt>
      <trkpt lat="38.78238" lon="0.09436">
        <ele>93</ele>
        <time>2021-01-31 12:27:09</time>
      </trkpt>
      <trkpt lat="38.7824" lon="0.09431">
        <ele>93</ele>
        <time>2021-01-31 12:27:10</time>
      </trkpt>
      <trkpt lat="38.78241" lon="0.09427">
        <ele>93</ele>
        <time>2021-01-31 12:27:11</time>
      </trkpt>
      <trkpt lat="38.78243" lon="0.09422">
        <ele>93.8</ele>
        <time>2021-01-31 12:27:12</time>
      </trkpt>
      <trkpt lat="38.78244" lon="0.09418">
        <ele>93.6</ele>
        <time>2021-01-31 12:27:13</time>
      </trkpt>
      <trkpt lat="38.78245" lon="0.09414">
        <ele>93.6</ele>
        <time>2021-01-31 12:27:14</time>
      </trkpt>
      <trkpt lat="38.78247" lon="0.09409">
        <ele>93.6</ele>
        <time>2021-01-31 12:27:15</time>
      </trkpt>
      <trkpt lat="38.78248" lon="0.09405">
        <ele>93.2</ele>
        <time>2021-01-31 12:27:16</time>
      </trkpt>
      <trkpt lat="38.78249" lon="0.094">
        <ele>94</ele>
        <time>2021-01-31 12:27:17</time>
      </trkpt>
      <trkpt lat="38.78251" lon="0.09396">
        <ele>94</ele>
        <time>2021-01-31 12:27:18</time>
      </trkpt>
      <trkpt lat="38.78252" lon="0.09392">
        <ele>94</ele>
        <time>2021-01-31 12:27:19</time>
      </trkpt>
      <trkpt lat="38.78253" lon="0.09387">
        <ele>94.6</ele>
        <time>2021-01-31 12:27:20</time>
      </trkpt>
      <trkpt lat="38.78255" lon="0.09383">
        <ele>94.4</ele>
        <time>2021-01-31 12:27:21</time>
      </trkpt>
      <trkpt lat="38.78256" lon="0.09379">
        <ele>94.4</ele>
        <time>2021-01-31 12:27:22</time>
      </trkpt>
      <trkpt lat="38.78258" lon="0.09374">
        <ele>94.4</ele>
        <time>2021-01-31 12:27:23</time>
      </trkpt>
      <trkpt lat="38.78259" lon="0.0937">
        <ele>94.4</ele>
        <time>2021-01-31 12:27:24</time>
      </trkpt>
      <trkpt lat="38.7826" lon="0.09366">
        <ele>95.4</ele>
        <time>2021-01-31 12:27:25</time>
      </trkpt>
      <trkpt lat="38.78262" lon="0.09362">
        <ele>95.4</ele>
        <time>2021-01-31 12:27:26</time>
      </trkpt>
      <trkpt lat="38.78263" lon="0.09357">
        <ele>95.4</ele>
        <time>2021-01-31 12:27:27</time>
      </trkpt>
      <trkpt lat="38.78264" lon="0.09353">
        <ele>95.4</ele>
        <time>2021-01-31 12:27:28</time>
      </trkpt>
      <trkpt lat="38.78266" lon="0.09349">
        <ele>95.4</ele>
        <time>2021-01-31 12:27:29</time>
      </trkpt>
      <trkpt lat="38.78267" lon="0.09344">
        <ele>95.4</ele>
        <time>2021-01-31 12:27:30</time>
      </trkpt>
      <trkpt lat="38.78269" lon="0.0934">
        <ele>95.4</ele>
        <time>2021-01-31 12:27:31</time>
      </trkpt>
      <trkpt lat="38.7827" lon="0.09336">
        <ele>96</ele>
        <time>2021-01-31 12:27:32</time>
      </trkpt>
      <trkpt lat="38.78271" lon="0.09332">
        <ele>96</ele>
        <time>2021-01-31 12:27:33</time>
      </trkpt>
      <trkpt lat="38.78273" lon="0.09328">
        <ele>96</ele>
        <time>2021-01-31 12:27:34</time>
      </trkpt>
      <trkpt lat="38.78274" lon="0.09324">
        <ele>96</ele>
        <time>2021-01-31 12:27:35</time>
      </trkpt>
      <trkpt lat="38.78275" lon="0.09319">
        <ele>96</ele>
        <time>2021-01-31 12:27:36</time>
      </trkpt>
      <trkpt lat="38.78276" lon="0.09315">
        <ele>96.2</ele>
        <time>2021-01-31 12:27:37</time>
      </trkpt>
      <trkpt lat="38.78277" lon="0.09311">
        <ele>96.2</ele>
        <time>2021-01-31 12:27:38</time>
      </trkpt>
      <trkpt lat="38.78279" lon="0.09307">
        <ele>96.2</ele>
        <time>2021-01-31 12:27:39</time>
      </trkpt>
      <trkpt lat="38.7828" lon="0.09303">
        <ele>96.2</ele>
        <time>2021-01-31 12:27:40</time>
      </trkpt>
      <trkpt lat="38.78281" lon="0.09298">
        <ele>95.2</ele>
        <time>2021-01-31 12:27:41</time>
      </trkpt>
      <trkpt lat="38.78282" lon="0.09294">
        <ele>95.2</ele>
        <time>2021-01-31 12:27:42</time>
      </trkpt>
      <trkpt lat="38.78283" lon="0.0929">
        <ele>95.2</ele>
        <time>2021-01-31 12:27:43</time>
      </trkpt>
      <trkpt lat="38.78284" lon="0.09286">
        <ele>96.2</ele>
        <time>2021-01-31 12:27:44</time>
      </trkpt>
      <trkpt lat="38.78285" lon="0.09282">
        <ele>97</ele>
        <time>2021-01-31 12:27:45</time>
      </trkpt>
      <trkpt lat="38.78286" lon="0.09278">
        <ele>97</ele>
        <time>2021-01-31 12:27:46</time>
      </trkpt>
      <trkpt lat="38.78287" lon="0.09273">
        <ele>97</ele>
        <time>2021-01-31 12:27:47</time>
      </trkpt>
      <trkpt lat="38.78288" lon="0.09269">
        <ele>96</ele>
        <time>2021-01-31 12:27:48</time>
      </trkpt>
      <trkpt lat="38.78289" lon="0.09265">
        <ele>93</ele>
        <time>2021-01-31 12:27:49</time>
      </trkpt>
      <trkpt lat="38.7829" lon="0.09261">
        <ele>93</ele>
        <time>2021-01-31 12:27:50</time>
      </trkpt>
      <trkpt lat="38.78291" lon="0.09257">
        <ele>93</ele>
        <time>2021-01-31 12:27:51</time>
      </trkpt>
      <trkpt lat="38.78292" lon="0.09253">
        <ele>94</ele>
        <time>2021-01-31 12:27:52</time>
      </trkpt>
      <trkpt lat="38.78293" lon="0.09248">
        <ele>97</ele>
        <time>2021-01-31 12:27:53</time>
      </trkpt>
      <trkpt lat="38.78294" lon="0.09244">
        <ele>97</ele>
        <time>2021-01-31 12:27:54</time>
      </trkpt>
      <trkpt lat="38.78295" lon="0.0924">
        <ele>97</ele>
        <time>2021-01-31 12:27:55</time>
      </trkpt>
      <trkpt lat="38.78296" lon="0.09235">
        <ele>97</ele>
        <time>2021-01-31 12:27:56</time>
      </trkpt>
      <trkpt lat="38.78297" lon="0.09231">
        <ele>95.8</ele>
        <time>2021-01-31 12:27:57</time>
      </trkpt>
      <trkpt lat="38.78298" lon="0.09227">
        <ele>95.8</ele>
        <time>2021-01-31 12:27:58</time>
      </trkpt>
      <trkpt lat="38.78299" lon="0.09222">
        <ele>95.8</ele>
        <time>2021-01-31 12:27:59</time>
      </trkpt>
      <trkpt lat="38.783" lon="0.09218">
        <ele>95.8</ele>
        <time>2021-01-31 12:28:00</time>
      </trkpt>
      <trkpt lat="38.78301" lon="0.09214">
        <ele>96</ele>
        <time>2021-01-31 12:28:01</time>
      </trkpt>
      <trkpt lat="38.78302" lon="0.0921">
        <ele>96</ele>
        <time>2021-01-31 12:28:02</time>
      </trkpt>
      <trkpt lat="38.78303" lon="0.09205">
        <ele>96</ele>
        <time>2021-01-31 12:28:03</time>
      </trkpt>
      <trkpt lat="38.78305" lon="0.09201">
        <ele>96</ele>
        <time>2021-01-31 12:28:04</time>
      </trkpt>
      <trkpt lat="38.78306" lon="0.09197">
        <ele>96.2</ele>
        <time>2021-01-31 12:28:05</time>
      </trkpt>
      <trkpt lat="38.78307" lon="0.09193">
        <ele>96.2</ele>
        <time>2021-01-31 12:28:06</time>
      </trkpt>
      <trkpt lat="38.78309" lon="0.09189">
        <ele>96.2</ele>
        <time>2021-01-31 12:28:07</time>
      </trkpt>
      <trkpt lat="38.7831" lon="0.09184">
        <ele>97.2</ele>
        <time>2021-01-31 12:28:08</time>
      </trkpt>
      <trkpt lat="38.78312" lon="0.0918">
        <ele>97.4</ele>
        <time>2021-01-31 12:28:09</time>
      </trkpt>
      <trkpt lat="38.78314" lon="0.09176">
        <ele>97.4</ele>
        <time>2021-01-31 12:28:10</time>
      </trkpt>
      <trkpt lat="38.78316" lon="0.09173">
        <ele>97.4</ele>
        <time>2021-01-31 12:28:11</time>
      </trkpt>
      <trkpt lat="38.78318" lon="0.09169">
        <ele>96.6</ele>
        <time>2021-01-31 12:28:12</time>
      </trkpt>
      <trkpt lat="38.78321" lon="0.09166">
        <ele>96.8</ele>
        <time>2021-01-31 12:28:13</time>
      </trkpt>
      <trkpt lat="38.78324" lon="0.09163">
        <ele>96.8</ele>
        <time>2021-01-31 12:28:14</time>
      </trkpt>
      <trkpt lat="38.78327" lon="0.09159">
        <ele>96.8</ele>
        <time>2021-01-31 12:28:15</time>
      </trkpt>
      <trkpt lat="38.78327" lon="0.09159">
        <ele>96.8</ele>
        <time>2021-01-31 12:28:16</time>
      </trkpt>
      <trkpt lat="38.78332" lon="0.0915">
        <ele>96</ele>
        <time>2021-01-31 12:28:17</time>
      </trkpt>
      <trkpt lat="38.78334" lon="0.09145">
        <ele>96</ele>
        <time>2021-01-31 12:28:18</time>
      </trkpt>
      <trkpt lat="38.78335" lon="0.0914">
        <ele>96</ele>
        <time>2021-01-31 12:28:19</time>
      </trkpt>
      <trkpt lat="38.78335" lon="0.09135">
        <ele>97</ele>
        <time>2021-01-31 12:28:20</time>
      </trkpt>
      <trkpt lat="38.78334" lon="0.0913">
        <ele>97.8</ele>
        <time>2021-01-31 12:28:21</time>
      </trkpt>
      <trkpt lat="38.78332" lon="0.09125">
        <ele>97.8</ele>
        <time>2021-01-31 12:28:22</time>
      </trkpt>
      <trkpt lat="38.78331" lon="0.09121">
        <ele>97.8</ele>
        <time>2021-01-31 12:28:23</time>
      </trkpt>
      <trkpt lat="38.7833" lon="0.09117">
        <ele>97.8</ele>
        <time>2021-01-31 12:28:24</time>
      </trkpt>
      <trkpt lat="38.78329" lon="0.09112">
        <ele>97</ele>
        <time>2021-01-31 12:28:25</time>
      </trkpt>
      <trkpt lat="38.78329" lon="0.09107">
        <ele>97</ele>
        <time>2021-01-31 12:28:26</time>
      </trkpt>
      <trkpt lat="38.78329" lon="0.09102">
        <ele>97</ele>
        <time>2021-01-31 12:28:27</time>
      </trkpt>
      <trkpt lat="38.7833" lon="0.09098">
        <ele>97.6</ele>
        <time>2021-01-31 12:28:28</time>
      </trkpt>
      <trkpt lat="38.7833" lon="0.09093">
        <ele>97.6</ele>
        <time>2021-01-31 12:28:29</time>
      </trkpt>
      <trkpt lat="38.78331" lon="0.09088">
        <ele>97.6</ele>
        <time>2021-01-31 12:28:30</time>
      </trkpt>
      <trkpt lat="38.78331" lon="0.09083">
        <ele>97.6</ele>
        <time>2021-01-31 12:28:31</time>
      </trkpt>
      <trkpt lat="38.78331" lon="0.09083">
        <ele>98.6</ele>
        <time>2021-01-31 12:28:32</time>
      </trkpt>
      <trkpt lat="38.78332" lon="0.09073">
        <ele>98.6</ele>
        <time>2021-01-31 12:28:33</time>
      </trkpt>
      <trkpt lat="38.78333" lon="0.09068">
        <ele>98</ele>
        <time>2021-01-31 12:28:34</time>
      </trkpt>
      <trkpt lat="38.78333" lon="0.09068">
        <ele>98</ele>
        <time>2021-01-31 12:28:35</time>
      </trkpt>
      <trkpt lat="38.78335" lon="0.09058">
        <ele>99</ele>
        <time>2021-01-31 12:28:36</time>
      </trkpt>
      <trkpt lat="38.78335" lon="0.09053">
        <ele>97.6</ele>
        <time>2021-01-31 12:28:37</time>
      </trkpt>
      <trkpt lat="38.78337" lon="0.09048">
        <ele>97.6</ele>
        <time>2021-01-31 12:28:38</time>
      </trkpt>
      <trkpt lat="38.78338" lon="0.09042">
        <ele>97.6</ele>
        <time>2021-01-31 12:28:39</time>
      </trkpt>
      <trkpt lat="38.78338" lon="0.09042">
        <ele>98.6</ele>
        <time>2021-01-31 12:28:40</time>
      </trkpt>
      <trkpt lat="38.7834" lon="0.09032">
        <ele>99.6</ele>
        <time>2021-01-31 12:28:41</time>
      </trkpt>
      <trkpt lat="38.7834" lon="0.09032">
        <ele>99.6</ele>
        <time>2021-01-31 12:28:42</time>
      </trkpt>
      <trkpt lat="38.78341" lon="0.09023">
        <ele>99.6</ele>
        <time>2021-01-31 12:28:43</time>
      </trkpt>
      <trkpt lat="38.78341" lon="0.09023">
        <ele>99.8</ele>
        <time>2021-01-31 12:28:44</time>
      </trkpt>
      <trkpt lat="38.78343" lon="0.09013">
        <ele>100.6</ele>
        <time>2021-01-31 12:28:45</time>
      </trkpt>
      <trkpt lat="38.78343" lon="0.09013">
        <ele>100.6</ele>
        <time>2021-01-31 12:28:46</time>
      </trkpt>
      <trkpt lat="38.78344" lon="0.09004">
        <ele>100.6</ele>
        <time>2021-01-31 12:28:47</time>
      </trkpt>
      <trkpt lat="38.78344" lon="0.09004">
        <ele>99.6</ele>
        <time>2021-01-31 12:28:48</time>
      </trkpt>
      <trkpt lat="38.78346" lon="0.08994">
        <ele>100.2</ele>
        <time>2021-01-31 12:28:49</time>
      </trkpt>
      <trkpt lat="38.78347" lon="0.08989">
        <ele>100.2</ele>
        <time>2021-01-31 12:28:50</time>
      </trkpt>
      <trkpt lat="38.78348" lon="0.08984">
        <ele>100.2</ele>
        <time>2021-01-31 12:28:51</time>
      </trkpt>
      <trkpt lat="38.78349" lon="0.08979">
        <ele>99.6</ele>
        <time>2021-01-31 12:28:52</time>
      </trkpt>
      <trkpt lat="38.7835" lon="0.08973">
        <ele>99.4</ele>
        <time>2021-01-31 12:28:53</time>
      </trkpt>
      <trkpt lat="38.78351" lon="0.08968">
        <ele>99.4</ele>
        <time>2021-01-31 12:28:54</time>
      </trkpt>
      <trkpt lat="38.78352" lon="0.08962">
        <ele>99.4</ele>
        <time>2021-01-31 12:28:55</time>
      </trkpt>
      <trkpt lat="38.78352" lon="0.08957">
        <ele>100.2</ele>
        <time>2021-01-31 12:28:56</time>
      </trkpt>
      <trkpt lat="38.78353" lon="0.08951">
        <ele>100</ele>
        <time>2021-01-31 12:28:57</time>
      </trkpt>
      <trkpt lat="38.78355" lon="0.08945">
        <ele>100</ele>
        <time>2021-01-31 12:28:58</time>
      </trkpt>
      <trkpt lat="38.78356" lon="0.0894">
        <ele>100</ele>
        <time>2021-01-31 12:28:59</time>
      </trkpt>
      <trkpt lat="38.78357" lon="0.08934">
        <ele>100</ele>
        <time>2021-01-31 12:29:00</time>
      </trkpt>
      <trkpt lat="38.78357" lon="0.08934">
        <ele>99.6</ele>
        <time>2021-01-31 12:29:01</time>
      </trkpt>
      <trkpt lat="38.78359" lon="0.08922">
        <ele>99.6</ele>
        <time>2021-01-31 12:29:02</time>
      </trkpt>
      <trkpt lat="38.7836" lon="0.08917">
        <ele>99.6</ele>
        <time>2021-01-31 12:29:03</time>
      </trkpt>
      <trkpt lat="38.78361" lon="0.08911">
        <ele>99.6</ele>
        <time>2021-01-31 12:29:04</time>
      </trkpt>
      <trkpt lat="38.78361" lon="0.08911">
        <ele>99.6</ele>
        <time>2021-01-31 12:29:05</time>
      </trkpt>
      <trkpt lat="38.78363" lon="0.08899">
        <ele>99.6</ele>
        <time>2021-01-31 12:29:06</time>
      </trkpt>
      <trkpt lat="38.78363" lon="0.08899">
        <ele>99.6</ele>
        <time>2021-01-31 12:29:07</time>
      </trkpt>
      <trkpt lat="38.78363" lon="0.08899">
        <ele>99.2</ele>
        <time>2021-01-31 12:29:08</time>
      </trkpt>
      <trkpt lat="38.78363" lon="0.08899">
        <ele>98.6</ele>
        <time>2021-01-31 12:29:09</time>
      </trkpt>
      <trkpt lat="38.78367" lon="0.08876">
        <ele>98.6</ele>
        <time>2021-01-31 12:29:10</time>
      </trkpt>
      <trkpt lat="38.78368" lon="0.08871">
        <ele>98.6</ele>
        <time>2021-01-31 12:29:11</time>
      </trkpt>
      <trkpt lat="38.78369" lon="0.08865">
        <ele>98.6</ele>
        <time>2021-01-31 12:29:12</time>
      </trkpt>
      <trkpt lat="38.7837" lon="0.0886">
        <ele>99.2</ele>
        <time>2021-01-31 12:29:13</time>
      </trkpt>
      <trkpt lat="38.78371" lon="0.08854">
        <ele>99.2</ele>
        <time>2021-01-31 12:29:14</time>
      </trkpt>
      <trkpt lat="38.78373" lon="0.08849">
        <ele>99.2</ele>
        <time>2021-01-31 12:29:15</time>
      </trkpt>
      <trkpt lat="38.78374" lon="0.08844">
        <ele>99.4</ele>
        <time>2021-01-31 12:29:16</time>
      </trkpt>
      <trkpt lat="38.78375" lon="0.08838">
        <ele>99.8</ele>
        <time>2021-01-31 12:29:17</time>
      </trkpt>
      <trkpt lat="38.78376" lon="0.08833">
        <ele>99.8</ele>
        <time>2021-01-31 12:29:18</time>
      </trkpt>
      <trkpt lat="38.78377" lon="0.08827">
        <ele>99.8</ele>
        <time>2021-01-31 12:29:19</time>
      </trkpt>
      <trkpt lat="38.78378" lon="0.08822">
        <ele>99.8</ele>
        <time>2021-01-31 12:29:20</time>
      </trkpt>
      <trkpt lat="38.78379" lon="0.08816">
        <ele>100.2</ele>
        <time>2021-01-31 12:29:21</time>
      </trkpt>
      <trkpt lat="38.7838" lon="0.08811">
        <ele>100.2</ele>
        <time>2021-01-31 12:29:22</time>
      </trkpt>
      <trkpt lat="38.78381" lon="0.08805">
        <ele>100.2</ele>
        <time>2021-01-31 12:29:23</time>
      </trkpt>
      <trkpt lat="38.78382" lon="0.08799">
        <ele>99.6</ele>
        <time>2021-01-31 12:29:24</time>
      </trkpt>
      <trkpt lat="38.78383" lon="0.08794">
        <ele>99.6</ele>
        <time>2021-01-31 12:29:25</time>
      </trkpt>
      <trkpt lat="38.78384" lon="0.08788">
        <ele>99.6</ele>
        <time>2021-01-31 12:29:26</time>
      </trkpt>
      <trkpt lat="38.78385" lon="0.08782">
        <ele>99.6</ele>
        <time>2021-01-31 12:29:27</time>
      </trkpt>
      <trkpt lat="38.78385" lon="0.08782">
        <ele>99.6</ele>
        <time>2021-01-31 12:29:28</time>
      </trkpt>
      <trkpt lat="38.78385" lon="0.08782">
        <ele>101.4</ele>
        <time>2021-01-31 12:29:29</time>
      </trkpt>
      <trkpt lat="38.78385" lon="0.08782">
        <ele>101.4</ele>
        <time>2021-01-31 12:29:30</time>
      </trkpt>
      <trkpt lat="38.78389" lon="0.0876">
        <ele>101.4</ele>
        <time>2021-01-31 12:29:31</time>
      </trkpt>
      <trkpt lat="38.7839" lon="0.08754">
        <ele>101.4</ele>
        <time>2021-01-31 12:29:32</time>
      </trkpt>
      <trkpt lat="38.7839" lon="0.08749">
        <ele>101.8</ele>
        <time>2021-01-31 12:29:33</time>
      </trkpt>
      <trkpt lat="38.78391" lon="0.08743">
        <ele>101.8</ele>
        <time>2021-01-31 12:29:34</time>
      </trkpt>
      <trkpt lat="38.78393" lon="0.08737">
        <ele>101.8</ele>
        <time>2021-01-31 12:29:35</time>
      </trkpt>
      <trkpt lat="38.78394" lon="0.08732">
        <ele>101.8</ele>
        <time>2021-01-31 12:29:36</time>
      </trkpt>
      <trkpt lat="38.78395" lon="0.08726">
        <ele>102.4</ele>
        <time>2021-01-31 12:29:37</time>
      </trkpt>
      <trkpt lat="38.78396" lon="0.08721">
        <ele>102.4</ele>
        <time>2021-01-31 12:29:38</time>
      </trkpt>
      <trkpt lat="38.78397" lon="0.08715">
        <ele>102.4</ele>
        <time>2021-01-31 12:29:39</time>
      </trkpt>
      <trkpt lat="38.78398" lon="0.0871">
        <ele>102.4</ele>
        <time>2021-01-31 12:29:40</time>
      </trkpt>
      <trkpt lat="38.78399" lon="0.08704">
        <ele>102.8</ele>
        <time>2021-01-31 12:29:41</time>
      </trkpt>
      <trkpt lat="38.784" lon="0.08698">
        <ele>102.8</ele>
        <time>2021-01-31 12:29:42</time>
      </trkpt>
      <trkpt lat="38.78401" lon="0.08693">
        <ele>102.8</ele>
        <time>2021-01-31 12:29:43</time>
      </trkpt>
      <trkpt lat="38.78402" lon="0.08687">
        <ele>101.8</ele>
        <time>2021-01-31 12:29:44</time>
      </trkpt>
      <trkpt lat="38.78403" lon="0.08682">
        <ele>100.4</ele>
        <time>2021-01-31 12:29:45</time>
      </trkpt>
      <trkpt lat="38.78405" lon="0.08677">
        <ele>100.4</ele>
        <time>2021-01-31 12:29:46</time>
      </trkpt>
      <trkpt lat="38.78406" lon="0.08672">
        <ele>100.4</ele>
        <time>2021-01-31 12:29:47</time>
      </trkpt>
      <trkpt lat="38.78407" lon="0.08666">
        <ele>101.4</ele>
        <time>2021-01-31 12:29:48</time>
      </trkpt>
      <trkpt lat="38.78408" lon="0.08661">
        <ele>102.8</ele>
        <time>2021-01-31 12:29:49</time>
      </trkpt>
      <trkpt lat="38.7841" lon="0.08656">
        <ele>102.8</ele>
        <time>2021-01-31 12:29:50</time>
      </trkpt>
      <trkpt lat="38.78411" lon="0.08651">
        <ele>102.8</ele>
        <time>2021-01-31 12:29:51</time>
      </trkpt>
      <trkpt lat="38.78412" lon="0.08646">
        <ele>102.8</ele>
        <time>2021-01-31 12:29:52</time>
      </trkpt>
      <trkpt lat="38.78413" lon="0.08641">
        <ele>102.4</ele>
        <time>2021-01-31 12:29:53</time>
      </trkpt>
      <trkpt lat="38.78415" lon="0.08636">
        <ele>102.4</ele>
        <time>2021-01-31 12:29:54</time>
      </trkpt>
      <trkpt lat="38.78416" lon="0.08632">
        <ele>102.4</ele>
        <time>2021-01-31 12:29:55</time>
      </trkpt>
      <trkpt lat="38.78417" lon="0.08627">
        <ele>103.2</ele>
        <time>2021-01-31 12:29:56</time>
      </trkpt>
      <trkpt lat="38.78419" lon="0.08622">
        <ele>102.8</ele>
        <time>2021-01-31 12:29:57</time>
      </trkpt>
      <trkpt lat="38.78421" lon="0.08618">
        <ele>102.8</ele>
        <time>2021-01-31 12:29:58</time>
      </trkpt>
      <trkpt lat="38.78422" lon="0.08613">
        <ele>102.8</ele>
        <time>2021-01-31 12:29:59</time>
      </trkpt>
      <trkpt lat="38.78423" lon="0.08608">
        <ele>102.8</ele>
        <time>2021-01-31 12:30:00</time>
      </trkpt>
      <trkpt lat="38.78425" lon="0.08604">
        <ele>103.8</ele>
        <time>2021-01-31 12:30:01</time>
      </trkpt>
      <trkpt lat="38.78426" lon="0.08599">
        <ele>103.8</ele>
        <time>2021-01-31 12:30:02</time>
      </trkpt>
      <trkpt lat="38.78428" lon="0.08595">
        <ele>103.8</ele>
        <time>2021-01-31 12:30:03</time>
      </trkpt>
      <trkpt lat="38.7843" lon="0.0859">
        <ele>104.6</ele>
        <time>2021-01-31 12:30:04</time>
      </trkpt>
      <trkpt lat="38.78432" lon="0.08586">
        <ele>104.8</ele>
        <time>2021-01-31 12:30:05</time>
      </trkpt>
      <trkpt lat="38.78433" lon="0.08582">
        <ele>104.8</ele>
        <time>2021-01-31 12:30:06</time>
      </trkpt>
      <trkpt lat="38.78435" lon="0.08578">
        <ele>104.8</ele>
        <time>2021-01-31 12:30:07</time>
      </trkpt>
      <trkpt lat="38.78437" lon="0.08574">
        <ele>104.8</ele>
        <time>2021-01-31 12:30:08</time>
      </trkpt>
      <trkpt lat="38.78439" lon="0.0857">
        <ele>104.8</ele>
        <time>2021-01-31 12:30:09</time>
      </trkpt>
      <trkpt lat="38.7844" lon="0.08566">
        <ele>104.8</ele>
        <time>2021-01-31 12:30:10</time>
      </trkpt>
      <trkpt lat="38.78442" lon="0.08562">
        <ele>104.8</ele>
        <time>2021-01-31 12:30:11</time>
      </trkpt>
      <trkpt lat="38.78444" lon="0.08558">
        <ele>105.8</ele>
        <time>2021-01-31 12:30:12</time>
      </trkpt>
      <trkpt lat="38.78446" lon="0.08554">
        <ele>104.8</ele>
        <time>2021-01-31 12:30:13</time>
      </trkpt>
      <trkpt lat="38.78448" lon="0.0855">
        <ele>104.8</ele>
        <time>2021-01-31 12:30:14</time>
      </trkpt>
      <trkpt lat="38.78449" lon="0.08547">
        <ele>104.8</ele>
        <time>2021-01-31 12:30:15</time>
      </trkpt>
      <trkpt lat="38.78451" lon="0.08543">
        <ele>105.8</ele>
        <time>2021-01-31 12:30:16</time>
      </trkpt>
      <trkpt lat="38.78453" lon="0.0854">
        <ele>107</ele>
        <time>2021-01-31 12:30:17</time>
      </trkpt>
      <trkpt lat="38.78455" lon="0.08536">
        <ele>107</ele>
        <time>2021-01-31 12:30:18</time>
      </trkpt>
      <trkpt lat="38.78458" lon="0.08533">
        <ele>107</ele>
        <time>2021-01-31 12:30:19</time>
      </trkpt>
      <trkpt lat="38.7846" lon="0.0853">
        <ele>107</ele>
        <time>2021-01-31 12:30:20</time>
      </trkpt>
      <trkpt lat="38.78462" lon="0.08527">
        <ele>106.6</ele>
        <time>2021-01-31 12:30:21</time>
      </trkpt>
      <trkpt lat="38.78465" lon="0.08524">
        <ele>106.6</ele>
        <time>2021-01-31 12:30:22</time>
      </trkpt>
      <trkpt lat="38.78467" lon="0.08521">
        <ele>106.6</ele>
        <time>2021-01-31 12:30:23</time>
      </trkpt>
      <trkpt lat="38.78469" lon="0.08519">
        <ele>107.6</ele>
        <time>2021-01-31 12:30:24</time>
      </trkpt>
      <trkpt lat="38.78472" lon="0.08517">
        <ele>107.6</ele>
        <time>2021-01-31 12:30:25</time>
      </trkpt>
      <trkpt lat="38.78475" lon="0.08515">
        <ele>107.6</ele>
        <time>2021-01-31 12:30:26</time>
      </trkpt>
      <trkpt lat="38.78478" lon="0.08513">
        <ele>107.6</ele>
        <time>2021-01-31 12:30:27</time>
      </trkpt>
      <trkpt lat="38.78481" lon="0.08511">
        <ele>108.6</ele>
        <time>2021-01-31 12:30:28</time>
      </trkpt>
      <trkpt lat="38.78484" lon="0.08509">
        <ele>108.4</ele>
        <time>2021-01-31 12:30:29</time>
      </trkpt>
      <trkpt lat="38.78486" lon="0.08506">
        <ele>108.4</ele>
        <time>2021-01-31 12:30:30</time>
      </trkpt>
      <trkpt lat="38.78488" lon="0.08503">
        <ele>108.4</ele>
        <time>2021-01-31 12:30:31</time>
      </trkpt>
      <trkpt lat="38.7849" lon="0.08499">
        <ele>109.4</ele>
        <time>2021-01-31 12:30:32</time>
      </trkpt>
      <trkpt lat="38.78491" lon="0.08495">
        <ele>109.4</ele>
        <time>2021-01-31 12:30:33</time>
      </trkpt>
      <trkpt lat="38.78491" lon="0.08491">
        <ele>109.4</ele>
        <time>2021-01-31 12:30:34</time>
      </trkpt>
      <trkpt lat="38.78491" lon="0.08486">
        <ele>109.4</ele>
        <time>2021-01-31 12:30:35</time>
      </trkpt>
      <trkpt lat="38.78491" lon="0.08482">
        <ele>109.4</ele>
        <time>2021-01-31 12:30:36</time>
      </trkpt>
      <trkpt lat="38.78491" lon="0.08478">
        <ele>110</ele>
        <time>2021-01-31 12:30:37</time>
      </trkpt>
      <trkpt lat="38.78491" lon="0.08474">
        <ele>110</ele>
        <time>2021-01-31 12:30:38</time>
      </trkpt>
      <trkpt lat="38.78491" lon="0.0847">
        <ele>110</ele>
        <time>2021-01-31 12:30:39</time>
      </trkpt>
      <trkpt lat="38.78491" lon="0.08466">
        <ele>110.4</ele>
        <time>2021-01-31 12:30:40</time>
      </trkpt>
      <trkpt lat="38.78492" lon="0.08462">
        <ele>112</ele>
        <time>2021-01-31 12:30:41</time>
      </trkpt>
      <trkpt lat="38.78493" lon="0.08458">
        <ele>112</ele>
        <time>2021-01-31 12:30:42</time>
      </trkpt>
      <trkpt lat="38.78495" lon="0.08455">
        <ele>112</ele>
        <time>2021-01-31 12:30:43</time>
      </trkpt>
      <trkpt lat="38.78495" lon="0.08455">
        <ele>111.2</ele>
        <time>2021-01-31 12:30:44</time>
      </trkpt>
      <trkpt lat="38.78498" lon="0.08448">
        <ele>111.6</ele>
        <time>2021-01-31 12:30:45</time>
      </trkpt>
      <trkpt lat="38.78499" lon="0.08444">
        <ele>111.6</ele>
        <time>2021-01-31 12:30:46</time>
      </trkpt>
      <trkpt lat="38.78501" lon="0.08441">
        <ele>111.6</ele>
        <time>2021-01-31 12:30:47</time>
      </trkpt>
      <trkpt lat="38.78503" lon="0.08438">
        <ele>111.6</ele>
        <time>2021-01-31 12:30:48</time>
      </trkpt>
      <trkpt lat="38.78504" lon="0.08434">
        <ele>111.8</ele>
        <time>2021-01-31 12:30:49</time>
      </trkpt>
      <trkpt lat="38.78506" lon="0.08431">
        <ele>111.8</ele>
        <time>2021-01-31 12:30:50</time>
      </trkpt>
      <trkpt lat="38.78508" lon="0.08428">
        <ele>111.8</ele>
        <time>2021-01-31 12:30:51</time>
      </trkpt>
      <trkpt lat="38.78509" lon="0.08425">
        <ele>112.8</ele>
        <time>2021-01-31 12:30:52</time>
      </trkpt>
      <trkpt lat="38.78511" lon="0.08422">
        <ele>113.8</ele>
        <time>2021-01-31 12:30:53</time>
      </trkpt>
      <trkpt lat="38.78513" lon="0.08418">
        <ele>113.8</ele>
        <time>2021-01-31 12:30:54</time>
      </trkpt>
      <trkpt lat="38.78514" lon="0.08415">
        <ele>113.8</ele>
        <time>2021-01-31 12:30:55</time>
      </trkpt>
      <trkpt lat="38.78516" lon="0.08412">
        <ele>113.8</ele>
        <time>2021-01-31 12:30:56</time>
      </trkpt>
      <trkpt lat="38.78518" lon="0.08409">
        <ele>114.2</ele>
        <time>2021-01-31 12:30:57</time>
      </trkpt>
      <trkpt lat="38.78519" lon="0.08405">
        <ele>114.2</ele>
        <time>2021-01-31 12:30:58</time>
      </trkpt>
      <trkpt lat="38.78521" lon="0.08402">
        <ele>114.2</ele>
        <time>2021-01-31 12:30:59</time>
      </trkpt>
      <trkpt lat="38.78522" lon="0.08398">
        <ele>114.2</ele>
        <time>2021-01-31 12:31:00</time>
      </trkpt>
      <trkpt lat="38.78523" lon="0.08395">
        <ele>114.2</ele>
        <time>2021-01-31 12:31:01</time>
      </trkpt>
      <trkpt lat="38.78524" lon="0.08391">
        <ele>114.2</ele>
        <time>2021-01-31 12:31:02</time>
      </trkpt>
      <trkpt lat="38.78526" lon="0.08387">
        <ele>114.2</ele>
        <time>2021-01-31 12:31:03</time>
      </trkpt>
      <trkpt lat="38.78527" lon="0.08384">
        <ele>114.8</ele>
        <time>2021-01-31 12:31:04</time>
      </trkpt>
      <trkpt lat="38.78528" lon="0.0838">
        <ele>115.6</ele>
        <time>2021-01-31 12:31:05</time>
      </trkpt>
      <trkpt lat="38.78529" lon="0.08377">
        <ele>115.6</ele>
        <time>2021-01-31 12:31:06</time>
      </trkpt>
      <trkpt lat="38.7853" lon="0.08373">
        <ele>115.6</ele>
        <time>2021-01-31 12:31:07</time>
      </trkpt>
      <trkpt lat="38.78531" lon="0.08369">
        <ele>115.6</ele>
        <time>2021-01-31 12:31:08</time>
      </trkpt>
      <trkpt lat="38.78532" lon="0.08366">
        <ele>115.8</ele>
        <time>2021-01-31 12:31:09</time>
      </trkpt>
      <trkpt lat="38.78533" lon="0.08362">
        <ele>115.8</ele>
        <time>2021-01-31 12:31:10</time>
      </trkpt>
      <trkpt lat="38.78534" lon="0.08358">
        <ele>115.8</ele>
        <time>2021-01-31 12:31:11</time>
      </trkpt>
      <trkpt lat="38.78535" lon="0.08354">
        <ele>115.8</ele>
        <time>2021-01-31 12:31:12</time>
      </trkpt>
      <trkpt lat="38.78536" lon="0.0835">
        <ele>114.6</ele>
        <time>2021-01-31 12:31:13</time>
      </trkpt>
      <trkpt lat="38.78537" lon="0.08346">
        <ele>114.6</ele>
        <time>2021-01-31 12:31:14</time>
      </trkpt>
      <trkpt lat="38.78537" lon="0.08342">
        <ele>114.6</ele>
        <time>2021-01-31 12:31:15</time>
      </trkpt>
      <trkpt lat="38.78538" lon="0.08338">
        <ele>115.6</ele>
        <time>2021-01-31 12:31:16</time>
      </trkpt>
      <trkpt lat="38.78539" lon="0.08334">
        <ele>116</ele>
        <time>2021-01-31 12:31:17</time>
      </trkpt>
      <trkpt lat="38.78539" lon="0.0833">
        <ele>116</ele>
        <time>2021-01-31 12:31:18</time>
      </trkpt>
      <trkpt lat="38.7854" lon="0.08326">
        <ele>116</ele>
        <time>2021-01-31 12:31:19</time>
      </trkpt>
      <trkpt lat="38.7854" lon="0.08322">
        <ele>117</ele>
        <time>2021-01-31 12:31:20</time>
      </trkpt>
      <trkpt lat="38.7854" lon="0.08318">
        <ele>117.8</ele>
        <time>2021-01-31 12:31:21</time>
      </trkpt>
      <trkpt lat="38.7854" lon="0.08314">
        <ele>117.8</ele>
        <time>2021-01-31 12:31:22</time>
      </trkpt>
      <trkpt lat="38.7854" lon="0.0831">
        <ele>117.8</ele>
        <time>2021-01-31 12:31:23</time>
      </trkpt>
      <trkpt lat="38.7854" lon="0.08306">
        <ele>117.8</ele>
        <time>2021-01-31 12:31:24</time>
      </trkpt>
      <trkpt lat="38.7854" lon="0.08302">
        <ele>117.8</ele>
        <time>2021-01-31 12:31:25</time>
      </trkpt>
      <trkpt lat="38.7854" lon="0.08299">
        <ele>117.8</ele>
        <time>2021-01-31 12:31:26</time>
      </trkpt>
      <trkpt lat="38.7854" lon="0.08295">
        <ele>117.8</ele>
        <time>2021-01-31 12:31:27</time>
      </trkpt>
      <trkpt lat="38.7854" lon="0.08291">
        <ele>117.8</ele>
        <time>2021-01-31 12:31:28</time>
      </trkpt>
      <trkpt lat="38.78539" lon="0.08287">
        <ele>119.6</ele>
        <time>2021-01-31 12:31:29</time>
      </trkpt>
      <trkpt lat="38.78539" lon="0.08283">
        <ele>119.6</ele>
        <time>2021-01-31 12:31:30</time>
      </trkpt>
      <trkpt lat="38.78538" lon="0.08279">
        <ele>119.6</ele>
        <time>2021-01-31 12:31:31</time>
      </trkpt>
      <trkpt lat="38.78538" lon="0.08275">
        <ele>119.2</ele>
        <time>2021-01-31 12:31:32</time>
      </trkpt>
      <trkpt lat="38.78537" lon="0.08271">
        <ele>120</ele>
        <time>2021-01-31 12:31:33</time>
      </trkpt>
      <trkpt lat="38.78537" lon="0.08267">
        <ele>120</ele>
        <time>2021-01-31 12:31:34</time>
      </trkpt>
      <trkpt lat="38.78536" lon="0.08263">
        <ele>120</ele>
        <time>2021-01-31 12:31:35</time>
      </trkpt>
      <trkpt lat="38.78536" lon="0.08258">
        <ele>120</ele>
        <time>2021-01-31 12:31:36</time>
      </trkpt>
      <trkpt lat="38.78535" lon="0.08254">
        <ele>120</ele>
        <time>2021-01-31 12:31:37</time>
      </trkpt>
      <trkpt lat="38.78534" lon="0.0825">
        <ele>120</ele>
        <time>2021-01-31 12:31:38</time>
      </trkpt>
      <trkpt lat="38.78533" lon="0.08246">
        <ele>120</ele>
        <time>2021-01-31 12:31:39</time>
      </trkpt>
      <trkpt lat="38.78533" lon="0.08242">
        <ele>119.6</ele>
        <time>2021-01-31 12:31:40</time>
      </trkpt>
      <trkpt lat="38.78532" lon="0.08238">
        <ele>118.8</ele>
        <time>2021-01-31 12:31:41</time>
      </trkpt>
      <trkpt lat="38.78531" lon="0.08234">
        <ele>118.8</ele>
        <time>2021-01-31 12:31:42</time>
      </trkpt>
      <trkpt lat="38.7853" lon="0.08231">
        <ele>118.8</ele>
        <time>2021-01-31 12:31:43</time>
      </trkpt>
      <trkpt lat="38.78529" lon="0.08227">
        <ele>119.8</ele>
        <time>2021-01-31 12:31:44</time>
      </trkpt>
      <trkpt lat="38.78528" lon="0.08223">
        <ele>119.8</ele>
        <time>2021-01-31 12:31:45</time>
      </trkpt>
      <trkpt lat="38.78527" lon="0.08219">
        <ele>119.8</ele>
        <time>2021-01-31 12:31:46</time>
      </trkpt>
      <trkpt lat="38.78525" lon="0.08215">
        <ele>119.8</ele>
        <time>2021-01-31 12:31:47</time>
      </trkpt>
      <trkpt lat="38.78524" lon="0.08211">
        <ele>118.8</ele>
        <time>2021-01-31 12:31:48</time>
      </trkpt>
      <trkpt lat="38.78522" lon="0.08208">
        <ele>118.2</ele>
        <time>2021-01-31 12:31:49</time>
      </trkpt>
      <trkpt lat="38.7852" lon="0.08204">
        <ele>118.2</ele>
        <time>2021-01-31 12:31:50</time>
      </trkpt>
      <trkpt lat="38.78519" lon="0.082">
        <ele>118.2</ele>
        <time>2021-01-31 12:31:51</time>
      </trkpt>
      <trkpt lat="38.78516" lon="0.08196">
        <ele>119.2</ele>
        <time>2021-01-31 12:31:52</time>
      </trkpt>
      <trkpt lat="38.78514" lon="0.08193">
        <ele>119.8</ele>
        <time>2021-01-31 12:31:53</time>
      </trkpt>
      <trkpt lat="38.78511" lon="0.08189">
        <ele>119.8</ele>
        <time>2021-01-31 12:31:54</time>
      </trkpt>
      <trkpt lat="38.78509" lon="0.08185">
        <ele>119.8</ele>
        <time>2021-01-31 12:31:55</time>
      </trkpt>
      <trkpt lat="38.78506" lon="0.08181">
        <ele>119.8</ele>
        <time>2021-01-31 12:31:56</time>
      </trkpt>
      <trkpt lat="38.78503" lon="0.08178">
        <ele>119.8</ele>
        <time>2021-01-31 12:31:57</time>
      </trkpt>
      <trkpt lat="38.78503" lon="0.08178">
        <ele>119.8</ele>
        <time>2021-01-31 12:31:58</time>
      </trkpt>
      <trkpt lat="38.78503" lon="0.08178">
        <ele>119.6</ele>
        <time>2021-01-31 12:31:59</time>
      </trkpt>
      <trkpt lat="38.78503" lon="0.08178">
        <ele>120.6</ele>
        <time>2021-01-31 12:32:00</time>
      </trkpt>
      <trkpt lat="38.78493" lon="0.08164">
        <ele>120.2</ele>
        <time>2021-01-31 12:32:01</time>
      </trkpt>
      <trkpt lat="38.7849" lon="0.0816">
        <ele>120.2</ele>
        <time>2021-01-31 12:32:02</time>
      </trkpt>
      <trkpt lat="38.78488" lon="0.08157">
        <ele>120.2</ele>
        <time>2021-01-31 12:32:03</time>
      </trkpt>
      <trkpt lat="38.78485" lon="0.08153">
        <ele>120.2</ele>
        <time>2021-01-31 12:32:04</time>
      </trkpt>
      <trkpt lat="38.78482" lon="0.08149">
        <ele>120.8</ele>
        <time>2021-01-31 12:32:05</time>
      </trkpt>
      <trkpt lat="38.78479" lon="0.08146">
        <ele>120.8</ele>
        <time>2021-01-31 12:32:06</time>
      </trkpt>
      <trkpt lat="38.78476" lon="0.08142">
        <ele>120.8</ele>
        <time>2021-01-31 12:32:07</time>
      </trkpt>
      <trkpt lat="38.78476" lon="0.08142">
        <ele>119.8</ele>
        <time>2021-01-31 12:32:08</time>
      </trkpt>
      <trkpt lat="38.78476" lon="0.08142">
        <ele>120</ele>
        <time>2021-01-31 12:32:09</time>
      </trkpt>
      <trkpt lat="38.78467" lon="0.08129">
        <ele>120</ele>
        <time>2021-01-31 12:32:10</time>
      </trkpt>
      <trkpt lat="38.78464" lon="0.08125">
        <ele>120</ele>
        <time>2021-01-31 12:32:11</time>
      </trkpt>
      <trkpt lat="38.78461" lon="0.08121">
        <ele>120</ele>
        <time>2021-01-31 12:32:12</time>
      </trkpt>
      <trkpt lat="38.78457" lon="0.08117">
        <ele>118.4</ele>
        <time>2021-01-31 12:32:13</time>
      </trkpt>
      <trkpt lat="38.78454" lon="0.08112">
        <ele>118.4</ele>
        <time>2021-01-31 12:32:14</time>
      </trkpt>
      <trkpt lat="38.7845" lon="0.08107">
        <ele>118.4</ele>
        <time>2021-01-31 12:32:15</time>
      </trkpt>
      <trkpt lat="38.78447" lon="0.08102">
        <ele>118.4</ele>
        <time>2021-01-31 12:32:16</time>
      </trkpt>
      <trkpt lat="38.78444" lon="0.08097">
        <ele>117</ele>
        <time>2021-01-31 12:32:17</time>
      </trkpt>
      <trkpt lat="38.78441" lon="0.08093">
        <ele>117</ele>
        <time>2021-01-31 12:32:18</time>
      </trkpt>
      <trkpt lat="38.78439" lon="0.08088">
        <ele>117</ele>
        <time>2021-01-31 12:32:19</time>
      </trkpt>
      <trkpt lat="38.78436" lon="0.08083">
        <ele>117</ele>
        <time>2021-01-31 12:32:20</time>
      </trkpt>
      <trkpt lat="38.78434" lon="0.08078">
        <ele>119.2</ele>
        <time>2021-01-31 12:32:21</time>
      </trkpt>
      <trkpt lat="38.78431" lon="0.08073">
        <ele>119.2</ele>
        <time>2021-01-31 12:32:22</time>
      </trkpt>
      <trkpt lat="38.78429" lon="0.08068">
        <ele>119.2</ele>
        <time>2021-01-31 12:32:23</time>
      </trkpt>
      <trkpt lat="38.78426" lon="0.08062">
        <ele>119.2</ele>
        <time>2021-01-31 12:32:24</time>
      </trkpt>
      <trkpt lat="38.78424" lon="0.08055">
        <ele>117.4</ele>
        <time>2021-01-31 12:32:25</time>
      </trkpt>
      <trkpt lat="38.78422" lon="0.08049">
        <ele>117.4</ele>
        <time>2021-01-31 12:32:26</time>
      </trkpt>
      <trkpt lat="38.7842" lon="0.08042">
        <ele>117.4</ele>
        <time>2021-01-31 12:32:27</time>
      </trkpt>
      <trkpt lat="38.78417" lon="0.08035">
        <ele>116.8</ele>
        <time>2021-01-31 12:32:28</time>
      </trkpt>
      <trkpt lat="38.78416" lon="0.08029">
        <ele>118</ele>
        <time>2021-01-31 12:32:29</time>
      </trkpt>
      <trkpt lat="38.78414" lon="0.08022">
        <ele>118</ele>
        <time>2021-01-31 12:32:30</time>
      </trkpt>
      <trkpt lat="38.78413" lon="0.08015">
        <ele>118</ele>
        <time>2021-01-31 12:32:31</time>
      </trkpt>
      <trkpt lat="38.78411" lon="0.08008">
        <ele>117</ele>
        <time>2021-01-31 12:32:32</time>
      </trkpt>
      <trkpt lat="38.78409" lon="0.08">
        <ele>115.8</ele>
        <time>2021-01-31 12:32:33</time>
      </trkpt>
      <trkpt lat="38.78408" lon="0.07993">
        <ele>115.8</ele>
        <time>2021-01-31 12:32:34</time>
      </trkpt>
      <trkpt lat="38.78407" lon="0.07986">
        <ele>115.8</ele>
        <time>2021-01-31 12:32:35</time>
      </trkpt>
      <trkpt lat="38.78405" lon="0.07979">
        <ele>115.8</ele>
        <time>2021-01-31 12:32:36</time>
      </trkpt>
      <trkpt lat="38.78404" lon="0.07972">
        <ele>115.8</ele>
        <time>2021-01-31 12:32:37</time>
      </trkpt>
      <trkpt lat="38.78404" lon="0.07972">
        <ele>115.8</ele>
        <time>2021-01-31 12:32:38</time>
      </trkpt>
      <trkpt lat="38.78404" lon="0.07972">
        <ele>115.8</ele>
        <time>2021-01-31 12:32:39</time>
      </trkpt>
      <trkpt lat="38.78404" lon="0.07972">
        <ele>116</ele>
        <time>2021-01-31 12:32:40</time>
      </trkpt>
      <trkpt lat="38.78399" lon="0.07941">
        <ele>116</ele>
        <time>2021-01-31 12:32:41</time>
      </trkpt>
      <trkpt lat="38.78399" lon="0.07941">
        <ele>116</ele>
        <time>2021-01-31 12:32:42</time>
      </trkpt>
      <trkpt lat="38.78399" lon="0.07941">
        <ele>116</ele>
        <time>2021-01-31 12:32:43</time>
      </trkpt>
      <trkpt lat="38.78399" lon="0.07941">
        <ele>115</ele>
        <time>2021-01-31 12:32:44</time>
      </trkpt>
      <trkpt lat="38.78394" lon="0.07907">
        <ele>115</ele>
        <time>2021-01-31 12:32:45</time>
      </trkpt>
      <trkpt lat="38.78392" lon="0.07898">
        <ele>114.4</ele>
        <time>2021-01-31 12:32:46</time>
      </trkpt>
      <trkpt lat="38.78391" lon="0.07889">
        <ele>114.4</ele>
        <time>2021-01-31 12:32:47</time>
      </trkpt>
      <trkpt lat="38.78389" lon="0.07881">
        <ele>114.4</ele>
        <time>2021-01-31 12:32:48</time>
      </trkpt>
      <trkpt lat="38.78388" lon="0.07873">
        <ele>114.4</ele>
        <time>2021-01-31 12:32:49</time>
      </trkpt>
      <trkpt lat="38.78388" lon="0.07866">
        <ele>112.6</ele>
        <time>2021-01-31 12:32:50</time>
      </trkpt>
      <trkpt lat="38.7839" lon="0.07858">
        <ele>112.6</ele>
        <time>2021-01-31 12:32:51</time>
      </trkpt>
      <trkpt lat="38.78391" lon="0.07851">
        <ele>112.6</ele>
        <time>2021-01-31 12:32:52</time>
      </trkpt>
      <trkpt lat="38.78394" lon="0.07844">
        <ele>112.6</ele>
        <time>2021-01-31 12:32:53</time>
      </trkpt>
      <trkpt lat="38.78397" lon="0.07836">
        <ele>110.2</ele>
        <time>2021-01-31 12:32:54</time>
      </trkpt>
      <trkpt lat="38.78399" lon="0.07828">
        <ele>110.2</ele>
        <time>2021-01-31 12:32:55</time>
      </trkpt>
      <trkpt lat="38.78401" lon="0.07821">
        <ele>110.2</ele>
        <time>2021-01-31 12:32:56</time>
      </trkpt>
      <trkpt lat="38.78404" lon="0.07813">
        <ele>109.2</ele>
        <time>2021-01-31 12:32:57</time>
      </trkpt>
      <trkpt lat="38.78407" lon="0.07805">
        <ele>109</ele>
        <time>2021-01-31 12:32:58</time>
      </trkpt>
      <trkpt lat="38.7841" lon="0.07798">
        <ele>109</ele>
        <time>2021-01-31 12:32:59</time>
      </trkpt>
      <trkpt lat="38.7841" lon="0.07798">
        <ele>109</ele>
        <time>2021-01-31 12:33:00</time>
      </trkpt>
      <trkpt lat="38.7841" lon="0.07798">
        <ele>109</ele>
        <time>2021-01-31 12:33:01</time>
      </trkpt>
      <trkpt lat="38.7841" lon="0.07798">
        <ele>107.8</ele>
        <time>2021-01-31 12:33:02</time>
      </trkpt>
      <trkpt lat="38.78428" lon="0.07769">
        <ele>107.8</ele>
        <time>2021-01-31 12:33:03</time>
      </trkpt>
      <trkpt lat="38.78434" lon="0.07762">
        <ele>107.8</ele>
        <time>2021-01-31 12:33:04</time>
      </trkpt>
      <trkpt lat="38.7844" lon="0.07755">
        <ele>106.8</ele>
        <time>2021-01-31 12:33:05</time>
      </trkpt>
      <trkpt lat="38.78446" lon="0.07749">
        <ele>104.6</ele>
        <time>2021-01-31 12:33:06</time>
      </trkpt>
      <trkpt lat="38.78452" lon="0.07742">
        <ele>104.6</ele>
        <time>2021-01-31 12:33:07</time>
      </trkpt>
      <trkpt lat="38.78458" lon="0.07735">
        <ele>104.6</ele>
        <time>2021-01-31 12:33:08</time>
      </trkpt>
      <trkpt lat="38.78465" lon="0.07728">
        <ele>104.6</ele>
        <time>2021-01-31 12:33:09</time>
      </trkpt>
      <trkpt lat="38.78472" lon="0.07722">
        <ele>103.2</ele>
        <time>2021-01-31 12:33:10</time>
      </trkpt>
      <trkpt lat="38.78479" lon="0.07715">
        <ele>103.2</ele>
        <time>2021-01-31 12:33:11</time>
      </trkpt>
      <trkpt lat="38.78485" lon="0.07708">
        <ele>103.2</ele>
        <time>2021-01-31 12:33:12</time>
      </trkpt>
      <trkpt lat="38.78492" lon="0.07701">
        <ele>102.6</ele>
        <time>2021-01-31 12:33:13</time>
      </trkpt>
      <trkpt lat="38.78499" lon="0.07694">
        <ele>101.8</ele>
        <time>2021-01-31 12:33:14</time>
      </trkpt>
      <trkpt lat="38.78507" lon="0.07687">
        <ele>101.8</ele>
        <time>2021-01-31 12:33:15</time>
      </trkpt>
      <trkpt lat="38.78507" lon="0.07687">
        <ele>101.8</ele>
        <time>2021-01-31 12:33:16</time>
      </trkpt>
      <trkpt lat="38.78507" lon="0.07687">
        <ele>101.8</ele>
        <time>2021-01-31 12:33:17</time>
      </trkpt>
      <trkpt lat="38.78507" lon="0.07687">
        <ele>101.6</ele>
        <time>2021-01-31 12:33:18</time>
      </trkpt>
      <trkpt lat="38.78536" lon="0.07658">
        <ele>101.6</ele>
        <time>2021-01-31 12:33:19</time>
      </trkpt>
      <trkpt lat="38.78543" lon="0.0765">
        <ele>101.6</ele>
        <time>2021-01-31 12:33:20</time>
      </trkpt>
      <trkpt lat="38.78551" lon="0.07643">
        <ele>100.6</ele>
        <time>2021-01-31 12:33:21</time>
      </trkpt>
      <trkpt lat="38.78558" lon="0.07636">
        <ele>98.2</ele>
        <time>2021-01-31 12:33:22</time>
      </trkpt>
      <trkpt lat="38.78565" lon="0.07629">
        <ele>98.2</ele>
        <time>2021-01-31 12:33:23</time>
      </trkpt>
      <trkpt lat="38.78572" lon="0.07621">
        <ele>98.2</ele>
        <time>2021-01-31 12:33:24</time>
      </trkpt>
      <trkpt lat="38.78578" lon="0.07614">
        <ele>97.6</ele>
        <time>2021-01-31 12:33:25</time>
      </trkpt>
      <trkpt lat="38.78584" lon="0.07607">
        <ele>98.4</ele>
        <time>2021-01-31 12:33:26</time>
      </trkpt>
      <trkpt lat="38.78589" lon="0.07599">
        <ele>98.4</ele>
        <time>2021-01-31 12:33:27</time>
      </trkpt>
      <trkpt lat="38.78595" lon="0.07592">
        <ele>98.4</ele>
        <time>2021-01-31 12:33:28</time>
      </trkpt>
      <trkpt lat="38.786" lon="0.07585">
        <ele>98.4</ele>
        <time>2021-01-31 12:33:29</time>
      </trkpt>
      <trkpt lat="38.78605" lon="0.07577">
        <ele>98.8</ele>
        <time>2021-01-31 12:33:30</time>
      </trkpt>
      <trkpt lat="38.7861" lon="0.0757">
        <ele>98.8</ele>
        <time>2021-01-31 12:33:31</time>
      </trkpt>
      <trkpt lat="38.78614" lon="0.07563">
        <ele>98.8</ele>
        <time>2021-01-31 12:33:32</time>
      </trkpt>
      <trkpt lat="38.78618" lon="0.07556">
        <ele>98.8</ele>
        <time>2021-01-31 12:33:33</time>
      </trkpt>
      <trkpt lat="38.78622" lon="0.07548">
        <ele>98.8</ele>
        <time>2021-01-31 12:33:34</time>
      </trkpt>
      <trkpt lat="38.78622" lon="0.07548">
        <ele>98.8</ele>
        <time>2021-01-31 12:33:35</time>
      </trkpt>
      <trkpt lat="38.78622" lon="0.07548">
        <ele>98.8</ele>
        <time>2021-01-31 12:33:36</time>
      </trkpt>
      <trkpt lat="38.78622" lon="0.07548">
        <ele>98.8</ele>
        <time>2021-01-31 12:33:37</time>
      </trkpt>
      <trkpt lat="38.78637" lon="0.0752">
        <ele>97.8</ele>
        <time>2021-01-31 12:33:38</time>
      </trkpt>
      <trkpt lat="38.78641" lon="0.07513">
        <ele>97.8</ele>
        <time>2021-01-31 12:33:39</time>
      </trkpt>
      <trkpt lat="38.78644" lon="0.07506">
        <ele>97.8</ele>
        <time>2021-01-31 12:33:40</time>
      </trkpt>
      <trkpt lat="38.78648" lon="0.07499">
        <ele>98.6</ele>
        <time>2021-01-31 12:33:41</time>
      </trkpt>
      <trkpt lat="38.78651" lon="0.07492">
        <ele>98.2</ele>
        <time>2021-01-31 12:33:42</time>
      </trkpt>
      <trkpt lat="38.78655" lon="0.07486">
        <ele>98.2</ele>
        <time>2021-01-31 12:33:43</time>
      </trkpt>
      <trkpt lat="38.78659" lon="0.07479">
        <ele>98.2</ele>
        <time>2021-01-31 12:33:44</time>
      </trkpt>
      <trkpt lat="38.78662" lon="0.07473">
        <ele>98.2</ele>
        <time>2021-01-31 12:33:45</time>
      </trkpt>
      <trkpt lat="38.78665" lon="0.07466">
        <ele>98.6</ele>
        <time>2021-01-31 12:33:46</time>
      </trkpt>
      <trkpt lat="38.78668" lon="0.07459">
        <ele>98.6</ele>
        <time>2021-01-31 12:33:47</time>
      </trkpt>
      <trkpt lat="38.78671" lon="0.07453">
        <ele>98.6</ele>
        <time>2021-01-31 12:33:48</time>
      </trkpt>
      <trkpt lat="38.78673" lon="0.07448">
        <ele>98.6</ele>
        <time>2021-01-31 12:33:49</time>
      </trkpt>
      <trkpt lat="38.78675" lon="0.07442">
        <ele>98</ele>
        <time>2021-01-31 12:33:50</time>
      </trkpt>
      <trkpt lat="38.78677" lon="0.07436">
        <ele>98</ele>
        <time>2021-01-31 12:33:51</time>
      </trkpt>
      <trkpt lat="38.78678" lon="0.07431">
        <ele>98</ele>
        <time>2021-01-31 12:33:52</time>
      </trkpt>
      <trkpt lat="38.7868" lon="0.07426">
        <ele>99</ele>
        <time>2021-01-31 12:33:53</time>
      </trkpt>
      <trkpt lat="38.78682" lon="0.07421">
        <ele>99.2</ele>
        <time>2021-01-31 12:33:54</time>
      </trkpt>
      <trkpt lat="38.78685" lon="0.07417">
        <ele>99.2</ele>
        <time>2021-01-31 12:33:55</time>
      </trkpt>
      <trkpt lat="38.78687" lon="0.07412">
        <ele>99.2</ele>
        <time>2021-01-31 12:33:56</time>
      </trkpt>
      <trkpt lat="38.78687" lon="0.07412">
        <ele>99.2</ele>
        <time>2021-01-31 12:33:57</time>
      </trkpt>
      <trkpt lat="38.78687" lon="0.07412">
        <ele>99.2</ele>
        <time>2021-01-31 12:33:58</time>
      </trkpt>
      <trkpt lat="38.78687" lon="0.07412">
        <ele>100</ele>
        <time>2021-01-31 12:33:59</time>
      </trkpt>
      <trkpt lat="38.78695" lon="0.07398">
        <ele>100</ele>
        <time>2021-01-31 12:34:00</time>
      </trkpt>
      <trkpt lat="38.78696" lon="0.07396">
        <ele>100.8</ele>
        <time>2021-01-31 12:34:01</time>
      </trkpt>
      <trkpt lat="38.78697" lon="0.07394">
        <ele>101.2</ele>
        <time>2021-01-31 12:34:02</time>
      </trkpt>
      <trkpt lat="38.78697" lon="0.07394">
        <ele>101.2</ele>
        <time>2021-01-31 12:34:03</time>
      </trkpt>
      <trkpt lat="38.78698" lon="0.07393">
        <ele>101.2</ele>
        <time>2021-01-31 12:34:04</time>
      </trkpt>
      <trkpt lat="38.78698" lon="0.07393">
        <ele>101.2</ele>
        <time>2021-01-31 12:34:05</time>
      </trkpt>
      <trkpt lat="38.78699" lon="0.07391">
        <ele>101.8</ele>
        <time>2021-01-31 12:34:06</time>
      </trkpt>
      <trkpt lat="38.78699" lon="0.07388">
        <ele>101.8</ele>
        <time>2021-01-31 12:34:07</time>
      </trkpt>
      <trkpt lat="38.78699" lon="0.07388">
        <ele>101.8</ele>
        <time>2021-01-31 12:34:08</time>
      </trkpt>
      <trkpt lat="38.78702" lon="0.07383">
        <ele>101.8</ele>
        <time>2021-01-31 12:34:09</time>
      </trkpt>
      <trkpt lat="38.78702" lon="0.07379">
        <ele>101</ele>
        <time>2021-01-31 12:34:10</time>
      </trkpt>
      <trkpt lat="38.78703" lon="0.07375">
        <ele>101</ele>
        <time>2021-01-31 12:34:11</time>
      </trkpt>
      <trkpt lat="38.78702" lon="0.07371">
        <ele>101</ele>
        <time>2021-01-31 12:34:12</time>
      </trkpt>
      <trkpt lat="38.78702" lon="0.07367">
        <ele>101</ele>
        <time>2021-01-31 12:34:13</time>
      </trkpt>
      <trkpt lat="38.78699" lon="0.07363">
        <ele>100.4</ele>
        <time>2021-01-31 12:34:14</time>
      </trkpt>
      <trkpt lat="38.78695" lon="0.0736">
        <ele>100.4</ele>
        <time>2021-01-31 12:34:15</time>
      </trkpt>
      <trkpt lat="38.78691" lon="0.07358">
        <ele>100.4</ele>
        <time>2021-01-31 12:34:16</time>
      </trkpt>
      <trkpt lat="38.78686" lon="0.07355">
        <ele>99.6</ele>
        <time>2021-01-31 12:34:17</time>
      </trkpt>
      <trkpt lat="38.78681" lon="0.07353">
        <ele>100</ele>
        <time>2021-01-31 12:34:18</time>
      </trkpt>
      <trkpt lat="38.78676" lon="0.0735">
        <ele>100</ele>
        <time>2021-01-31 12:34:19</time>
      </trkpt>
      <trkpt lat="38.78671" lon="0.07347">
        <ele>100</ele>
        <time>2021-01-31 12:34:20</time>
      </trkpt>
      <trkpt lat="38.78666" lon="0.07344">
        <ele>100</ele>
        <time>2021-01-31 12:34:21</time>
      </trkpt>
      <trkpt lat="38.78661" lon="0.07341">
        <ele>100</ele>
        <time>2021-01-31 12:34:22</time>
      </trkpt>
      <trkpt lat="38.78656" lon="0.07337">
        <ele>100</ele>
        <time>2021-01-31 12:34:23</time>
      </trkpt>
      <trkpt lat="38.7865" lon="0.07334">
        <ele>100</ele>
        <time>2021-01-31 12:34:24</time>
      </trkpt>
      <trkpt lat="38.78645" lon="0.07331">
        <ele>100</ele>
        <time>2021-01-31 12:34:25</time>
      </trkpt>
      <trkpt lat="38.78639" lon="0.07327">
        <ele>98.8</ele>
        <time>2021-01-31 12:34:26</time>
      </trkpt>
      <trkpt lat="38.78633" lon="0.07324">
        <ele>98.8</ele>
        <time>2021-01-31 12:34:27</time>
      </trkpt>
      <trkpt lat="38.78628" lon="0.0732">
        <ele>98.8</ele>
        <time>2021-01-31 12:34:28</time>
      </trkpt>
      <trkpt lat="38.78622" lon="0.07316">
        <ele>99.6</ele>
        <time>2021-01-31 12:34:29</time>
      </trkpt>
      <trkpt lat="38.78616" lon="0.07312">
        <ele>99.6</ele>
        <time>2021-01-31 12:34:30</time>
      </trkpt>
      <trkpt lat="38.78616" lon="0.07312">
        <ele>99.6</ele>
        <time>2021-01-31 12:34:31</time>
      </trkpt>
      <trkpt lat="38.78616" lon="0.07312">
        <ele>99.6</ele>
        <time>2021-01-31 12:34:32</time>
      </trkpt>
      <trkpt lat="38.78616" lon="0.07312">
        <ele>99</ele>
        <time>2021-01-31 12:34:33</time>
      </trkpt>
      <trkpt lat="38.78595" lon="0.0729">
        <ele>99.8</ele>
        <time>2021-01-31 12:34:34</time>
      </trkpt>
      <trkpt lat="38.78593" lon="0.07282">
        <ele>99.8</ele>
        <time>2021-01-31 12:34:35</time>
      </trkpt>
      <trkpt lat="38.78593" lon="0.07273">
        <ele>99.8</ele>
        <time>2021-01-31 12:34:36</time>
      </trkpt>
      <trkpt lat="38.78596" lon="0.07266">
        <ele>98.8</ele>
        <time>2021-01-31 12:34:37</time>
      </trkpt>
      <trkpt lat="38.78599" lon="0.07259">
        <ele>97.2</ele>
        <time>2021-01-31 12:34:38</time>
      </trkpt>
      <trkpt lat="38.78602" lon="0.07252">
        <ele>97.2</ele>
        <time>2021-01-31 12:34:39</time>
      </trkpt>
      <trkpt lat="38.78606" lon="0.07245">
        <ele>97.2</ele>
        <time>2021-01-31 12:34:40</time>
      </trkpt>
      <trkpt lat="38.78609" lon="0.07238">
        <ele>97</ele>
        <time>2021-01-31 12:34:41</time>
      </trkpt>
      <trkpt lat="38.78612" lon="0.07232">
        <ele>97.2</ele>
        <time>2021-01-31 12:34:42</time>
      </trkpt>
      <trkpt lat="38.78616" lon="0.07225">
        <ele>97.2</ele>
        <time>2021-01-31 12:34:43</time>
      </trkpt>
      <trkpt lat="38.7862" lon="0.07218">
        <ele>97.2</ele>
        <time>2021-01-31 12:34:44</time>
      </trkpt>
      <trkpt lat="38.78623" lon="0.07211">
        <ele>97.2</ele>
        <time>2021-01-31 12:34:45</time>
      </trkpt>
      <trkpt lat="38.78623" lon="0.07211">
        <ele>97.2</ele>
        <time>2021-01-31 12:34:46</time>
      </trkpt>
      <trkpt lat="38.78623" lon="0.07211">
        <ele>97.2</ele>
        <time>2021-01-31 12:34:47</time>
      </trkpt>
      <trkpt lat="38.78623" lon="0.07211">
        <ele>96.6</ele>
        <time>2021-01-31 12:34:48</time>
      </trkpt>
      <trkpt lat="38.78633" lon="0.07182">
        <ele>96.6</ele>
        <time>2021-01-31 12:34:49</time>
      </trkpt>
      <trkpt lat="38.78636" lon="0.07176">
        <ele>96.4</ele>
        <time>2021-01-31 12:34:50</time>
      </trkpt>
      <trkpt lat="38.78639" lon="0.07169">
        <ele>96.4</ele>
        <time>2021-01-31 12:34:51</time>
      </trkpt>
      <trkpt lat="38.78641" lon="0.07162">
        <ele>96.4</ele>
        <time>2021-01-31 12:34:52</time>
      </trkpt>
      <trkpt lat="38.78645" lon="0.07155">
        <ele>96.4</ele>
        <time>2021-01-31 12:34:53</time>
      </trkpt>
      <trkpt lat="38.78647" lon="0.07148">
        <ele>97</ele>
        <time>2021-01-31 12:34:54</time>
      </trkpt>
      <trkpt lat="38.7865" lon="0.07141">
        <ele>97</ele>
        <time>2021-01-31 12:34:55</time>
      </trkpt>
      <trkpt lat="38.7865" lon="0.07141">
        <ele>97</ele>
        <time>2021-01-31 12:34:56</time>
      </trkpt>
      <trkpt lat="38.7865" lon="0.07141">
        <ele>97</ele>
        <time>2021-01-31 12:34:57</time>
      </trkpt>
      <trkpt lat="38.7865" lon="0.07141">
        <ele>96.6</ele>
        <time>2021-01-31 12:34:58</time>
      </trkpt>
      <trkpt lat="38.78659" lon="0.07111">
        <ele>96.6</ele>
        <time>2021-01-31 12:34:59</time>
      </trkpt>
      <trkpt lat="38.78661" lon="0.07104">
        <ele>96.6</ele>
        <time>2021-01-31 12:35:00</time>
      </trkpt>
      <trkpt lat="38.78663" lon="0.07097">
        <ele>96</ele>
        <time>2021-01-31 12:35:01</time>
      </trkpt>
      <trkpt lat="38.78665" lon="0.07089">
        <ele>96</ele>
        <time>2021-01-31 12:35:02</time>
      </trkpt>
      <trkpt lat="38.78667" lon="0.07082">
        <ele>96</ele>
        <time>2021-01-31 12:35:03</time>
      </trkpt>
      <trkpt lat="38.78669" lon="0.07074">
        <ele>96</ele>
        <time>2021-01-31 12:35:04</time>
      </trkpt>
      <trkpt lat="38.7867" lon="0.07067">
        <ele>95.6</ele>
        <time>2021-01-31 12:35:05</time>
      </trkpt>
      <trkpt lat="38.78672" lon="0.07059">
        <ele>95.6</ele>
        <time>2021-01-31 12:35:06</time>
      </trkpt>
      <trkpt lat="38.78674" lon="0.07052">
        <ele>95.6</ele>
        <time>2021-01-31 12:35:07</time>
      </trkpt>
      <trkpt lat="38.78676" lon="0.07044">
        <ele>95.6</ele>
        <time>2021-01-31 12:35:08</time>
      </trkpt>
      <trkpt lat="38.78677" lon="0.07037">
        <ele>94.6</ele>
        <time>2021-01-31 12:35:09</time>
      </trkpt>
      <trkpt lat="38.78679" lon="0.0703">
        <ele>94.8</ele>
        <time>2021-01-31 12:35:10</time>
      </trkpt>
      <trkpt lat="38.7868" lon="0.07022">
        <ele>94.8</ele>
        <time>2021-01-31 12:35:11</time>
      </trkpt>
      <trkpt lat="38.7868" lon="0.07022">
        <ele>94.8</ele>
        <time>2021-01-31 12:35:12</time>
      </trkpt>
      <trkpt lat="38.78684" lon="0.07008">
        <ele>95.8</ele>
        <time>2021-01-31 12:35:13</time>
      </trkpt>
      <trkpt lat="38.78686" lon="0.07">
        <ele>95.2</ele>
        <time>2021-01-31 12:35:14</time>
      </trkpt>
      <trkpt lat="38.78689" lon="0.06993">
        <ele>95.2</ele>
        <time>2021-01-31 12:35:15</time>
      </trkpt>
      <trkpt lat="38.78691" lon="0.06986">
        <ele>95.2</ele>
        <time>2021-01-31 12:35:16</time>
      </trkpt>
      <trkpt lat="38.78692" lon="0.06979">
        <ele>95.2</ele>
        <time>2021-01-31 12:35:17</time>
      </trkpt>
      <trkpt lat="38.78694" lon="0.06971">
        <ele>95.4</ele>
        <time>2021-01-31 12:35:18</time>
      </trkpt>
      <trkpt lat="38.78696" lon="0.06964">
        <ele>95.4</ele>
        <time>2021-01-31 12:35:19</time>
      </trkpt>
      <trkpt lat="38.78698" lon="0.06957">
        <ele>95.4</ele>
        <time>2021-01-31 12:35:20</time>
      </trkpt>
      <trkpt lat="38.787" lon="0.06949">
        <ele>94.4</ele>
        <time>2021-01-31 12:35:21</time>
      </trkpt>
      <trkpt lat="38.78702" lon="0.06941">
        <ele>94.4</ele>
        <time>2021-01-31 12:35:22</time>
      </trkpt>
      <trkpt lat="38.78704" lon="0.06934">
        <ele>94.4</ele>
        <time>2021-01-31 12:35:23</time>
      </trkpt>
      <trkpt lat="38.78705" lon="0.06926">
        <ele>94.4</ele>
        <time>2021-01-31 12:35:24</time>
      </trkpt>
      <trkpt lat="38.78705" lon="0.06918">
        <ele>94.4</ele>
        <time>2021-01-31 12:35:25</time>
      </trkpt>
      <trkpt lat="38.78705" lon="0.0691">
        <ele>95</ele>
        <time>2021-01-31 12:35:26</time>
      </trkpt>
      <trkpt lat="38.78705" lon="0.06902">
        <ele>95</ele>
        <time>2021-01-31 12:35:27</time>
      </trkpt>
      <trkpt lat="38.78705" lon="0.06895">
        <ele>95</ele>
        <time>2021-01-31 12:35:28</time>
      </trkpt>
      <trkpt lat="38.78705" lon="0.06887">
        <ele>95</ele>
        <time>2021-01-31 12:35:29</time>
      </trkpt>
      <trkpt lat="38.78704" lon="0.06879">
        <ele>94.2</ele>
        <time>2021-01-31 12:35:30</time>
      </trkpt>
      <trkpt lat="38.78704" lon="0.06871">
        <ele>94.2</ele>
        <time>2021-01-31 12:35:31</time>
      </trkpt>
      <trkpt lat="38.78704" lon="0.06863">
        <ele>94.2</ele>
        <time>2021-01-31 12:35:32</time>
      </trkpt>
      <trkpt lat="38.78704" lon="0.06863">
        <ele>94.2</ele>
        <time>2021-01-31 12:35:33</time>
      </trkpt>
      <trkpt lat="38.78704" lon="0.06863">
        <ele>94.2</ele>
        <time>2021-01-31 12:35:34</time>
      </trkpt>
      <trkpt lat="38.78704" lon="0.06863">
        <ele>93.2</ele>
        <time>2021-01-31 12:35:35</time>
      </trkpt>
      <trkpt lat="38.78704" lon="0.06832">
        <ele>93.2</ele>
        <time>2021-01-31 12:35:36</time>
      </trkpt>
      <trkpt lat="38.78704" lon="0.06824">
        <ele>93.2</ele>
        <time>2021-01-31 12:35:37</time>
      </trkpt>
      <trkpt lat="38.78704" lon="0.06816">
        <ele>94.6</ele>
        <time>2021-01-31 12:35:38</time>
      </trkpt>
      <trkpt lat="38.78704" lon="0.06808">
        <ele>94.6</ele>
        <time>2021-01-31 12:35:39</time>
      </trkpt>
      <trkpt lat="38.78704" lon="0.068">
        <ele>94.6</ele>
        <time>2021-01-31 12:35:40</time>
      </trkpt>
      <trkpt lat="38.78704" lon="0.06792">
        <ele>94.8</ele>
        <time>2021-01-31 12:35:41</time>
      </trkpt>
      <trkpt lat="38.78704" lon="0.06784">
        <ele>94</ele>
        <time>2021-01-31 12:35:42</time>
      </trkpt>
      <trkpt lat="38.78704" lon="0.06776">
        <ele>94</ele>
        <time>2021-01-31 12:35:43</time>
      </trkpt>
      <trkpt lat="38.78703" lon="0.06768">
        <ele>94</ele>
        <time>2021-01-31 12:35:44</time>
      </trkpt>
      <trkpt lat="38.78703" lon="0.06759">
        <ele>93.6</ele>
        <time>2021-01-31 12:35:45</time>
      </trkpt>
      <trkpt lat="38.78703" lon="0.06751">
        <ele>93.2</ele>
        <time>2021-01-31 12:35:46</time>
      </trkpt>
      <trkpt lat="38.78703" lon="0.06742">
        <ele>93.2</ele>
        <time>2021-01-31 12:35:47</time>
      </trkpt>
      <trkpt lat="38.78702" lon="0.06734">
        <ele>93.2</ele>
        <time>2021-01-31 12:35:48</time>
      </trkpt>
      <trkpt lat="38.78702" lon="0.06726">
        <ele>93.2</ele>
        <time>2021-01-31 12:35:49</time>
      </trkpt>
      <trkpt lat="38.78702" lon="0.06718">
        <ele>93.6</ele>
        <time>2021-01-31 12:35:50</time>
      </trkpt>
      <trkpt lat="38.78702" lon="0.0671">
        <ele>93.6</ele>
        <time>2021-01-31 12:35:51</time>
      </trkpt>
      <trkpt lat="38.78701" lon="0.06702">
        <ele>93.6</ele>
        <time>2021-01-31 12:35:52</time>
      </trkpt>
      <trkpt lat="38.78701" lon="0.06694">
        <ele>93.6</ele>
        <time>2021-01-31 12:35:53</time>
      </trkpt>
      <trkpt lat="38.787" lon="0.06686">
        <ele>93</ele>
        <time>2021-01-31 12:35:54</time>
      </trkpt>
      <trkpt lat="38.78699" lon="0.06678">
        <ele>93</ele>
        <time>2021-01-31 12:35:55</time>
      </trkpt>
      <trkpt lat="38.78699" lon="0.0667">
        <ele>93</ele>
        <time>2021-01-31 12:35:56</time>
      </trkpt>
      <trkpt lat="38.78698" lon="0.06662">
        <ele>93</ele>
        <time>2021-01-31 12:35:57</time>
      </trkpt>
      <trkpt lat="38.78697" lon="0.06654">
        <ele>93</ele>
        <time>2021-01-31 12:35:58</time>
      </trkpt>
      <trkpt lat="38.78697" lon="0.06647">
        <ele>93</ele>
        <time>2021-01-31 12:35:59</time>
      </trkpt>
      <trkpt lat="38.78698" lon="0.06641">
        <ele>93</ele>
        <time>2021-01-31 12:36:00</time>
      </trkpt>
      <trkpt lat="38.78698" lon="0.06634">
        <ele>92.8</ele>
        <time>2021-01-31 12:36:01</time>
      </trkpt>
      <trkpt lat="38.78698" lon="0.06627">
        <ele>92.4</ele>
        <time>2021-01-31 12:36:02</time>
      </trkpt>
      <trkpt lat="38.78698" lon="0.06619">
        <ele>92.4</ele>
        <time>2021-01-31 12:36:03</time>
      </trkpt>
      <trkpt lat="38.78698" lon="0.06611">
        <ele>92.4</ele>
        <time>2021-01-31 12:36:04</time>
      </trkpt>
      <trkpt lat="38.78698" lon="0.06611">
        <ele>92.4</ele>
        <time>2021-01-31 12:36:05</time>
      </trkpt>
      <trkpt lat="38.78698" lon="0.06611">
        <ele>93</ele>
        <time>2021-01-31 12:36:06</time>
      </trkpt>
      <trkpt lat="38.78698" lon="0.06611">
        <ele>93</ele>
        <time>2021-01-31 12:36:07</time>
      </trkpt>
      <trkpt lat="38.78698" lon="0.06611">
        <ele>93</ele>
        <time>2021-01-31 12:36:08</time>
      </trkpt>
      <trkpt lat="38.78698" lon="0.06611">
        <ele>93</ele>
        <time>2021-01-31 12:36:09</time>
      </trkpt>
      <trkpt lat="38.78698" lon="0.06611">
        <ele>93</ele>
        <time>2021-01-31 12:36:10</time>
      </trkpt>
      <trkpt lat="38.78687" lon="0.06553">
        <ele>93</ele>
        <time>2021-01-31 12:36:11</time>
      </trkpt>
      <trkpt lat="38.78686" lon="0.06547">
        <ele>93</ele>
        <time>2021-01-31 12:36:12</time>
      </trkpt>
      <trkpt lat="38.78685" lon="0.06539">
        <ele>93.6</ele>
        <time>2021-01-31 12:36:13</time>
      </trkpt>
      <trkpt lat="38.78685" lon="0.06532">
        <ele>93</ele>
        <time>2021-01-31 12:36:14</time>
      </trkpt>
      <trkpt lat="38.78684" lon="0.06525">
        <ele>93</ele>
        <time>2021-01-31 12:36:15</time>
      </trkpt>
      <trkpt lat="38.78683" lon="0.06517">
        <ele>93</ele>
        <time>2021-01-31 12:36:16</time>
      </trkpt>
      <trkpt lat="38.78682" lon="0.06509">
        <ele>93.8</ele>
        <time>2021-01-31 12:36:17</time>
      </trkpt>
      <trkpt lat="38.78681" lon="0.06501">
        <ele>94.6</ele>
        <time>2021-01-31 12:36:18</time>
      </trkpt>
      <trkpt lat="38.7868" lon="0.06493">
        <ele>94.6</ele>
        <time>2021-01-31 12:36:19</time>
      </trkpt>
      <trkpt lat="38.78678" lon="0.06486">
        <ele>94.6</ele>
        <time>2021-01-31 12:36:20</time>
      </trkpt>
      <trkpt lat="38.78677" lon="0.06478">
        <ele>94.4</ele>
        <time>2021-01-31 12:36:21</time>
      </trkpt>
      <trkpt lat="38.78676" lon="0.06471">
        <ele>94.2</ele>
        <time>2021-01-31 12:36:22</time>
      </trkpt>
      <trkpt lat="38.78675" lon="0.06463">
        <ele>94.2</ele>
        <time>2021-01-31 12:36:23</time>
      </trkpt>
      <trkpt lat="38.78675" lon="0.06455">
        <ele>94.2</ele>
        <time>2021-01-31 12:36:24</time>
      </trkpt>
      <trkpt lat="38.78675" lon="0.06448">
        <ele>93.8</ele>
        <time>2021-01-31 12:36:25</time>
      </trkpt>
      <trkpt lat="38.78675" lon="0.06448">
        <ele>93.6</ele>
        <time>2021-01-31 12:36:26</time>
      </trkpt>
      <trkpt lat="38.78674" lon="0.06433">
        <ele>93.6</ele>
        <time>2021-01-31 12:36:27</time>
      </trkpt>
      <trkpt lat="38.78673" lon="0.06426">
        <ele>93.6</ele>
        <time>2021-01-31 12:36:28</time>
      </trkpt>
      <trkpt lat="38.78672" lon="0.06419">
        <ele>94.2</ele>
        <time>2021-01-31 12:36:29</time>
      </trkpt>
      <trkpt lat="38.78672" lon="0.06413">
        <ele>95</ele>
        <time>2021-01-31 12:36:30</time>
      </trkpt>
      <trkpt lat="38.78671" lon="0.06406">
        <ele>95</ele>
        <time>2021-01-31 12:36:31</time>
      </trkpt>
      <trkpt lat="38.7867" lon="0.06399">
        <ele>95</ele>
        <time>2021-01-31 12:36:32</time>
      </trkpt>
      <trkpt lat="38.78669" lon="0.06392">
        <ele>95</ele>
        <time>2021-01-31 12:36:33</time>
      </trkpt>
      <trkpt lat="38.78668" lon="0.06385">
        <ele>94.6</ele>
        <time>2021-01-31 12:36:34</time>
      </trkpt>
      <trkpt lat="38.78668" lon="0.06378">
        <ele>94.6</ele>
        <time>2021-01-31 12:36:35</time>
      </trkpt>
      <trkpt lat="38.78667" lon="0.06372">
        <ele>94.6</ele>
        <time>2021-01-31 12:36:36</time>
      </trkpt>
      <trkpt lat="38.78666" lon="0.06365">
        <ele>94.6</ele>
        <time>2021-01-31 12:36:37</time>
      </trkpt>
      <trkpt lat="38.78665" lon="0.06358">
        <ele>97.8</ele>
        <time>2021-01-31 12:36:38</time>
      </trkpt>
      <trkpt lat="38.78665" lon="0.06351">
        <ele>97.8</ele>
        <time>2021-01-31 12:36:39</time>
      </trkpt>
      <trkpt lat="38.78664" lon="0.06344">
        <ele>97.8</ele>
        <time>2021-01-31 12:36:40</time>
      </trkpt>
      <trkpt lat="38.78663" lon="0.06337">
        <ele>96.8</ele>
        <time>2021-01-31 12:36:41</time>
      </trkpt>
      <trkpt lat="38.78663" lon="0.0633">
        <ele>95.2</ele>
        <time>2021-01-31 12:36:42</time>
      </trkpt>
      <trkpt lat="38.78663" lon="0.06322">
        <ele>95.2</ele>
        <time>2021-01-31 12:36:43</time>
      </trkpt>
      <trkpt lat="38.78663" lon="0.06315">
        <ele>95.2</ele>
        <time>2021-01-31 12:36:44</time>
      </trkpt>
      <trkpt lat="38.78664" lon="0.06307">
        <ele>95.2</ele>
        <time>2021-01-31 12:36:45</time>
      </trkpt>
      <trkpt lat="38.78664" lon="0.063">
        <ele>94.8</ele>
        <time>2021-01-31 12:36:46</time>
      </trkpt>
      <trkpt lat="38.78665" lon="0.06293">
        <ele>94.8</ele>
        <time>2021-01-31 12:36:47</time>
      </trkpt>
      <trkpt lat="38.78667" lon="0.06286">
        <ele>94.8</ele>
        <time>2021-01-31 12:36:48</time>
      </trkpt>
      <trkpt lat="38.78668" lon="0.06279">
        <ele>94</ele>
        <time>2021-01-31 12:36:49</time>
      </trkpt>
      <trkpt lat="38.7867" lon="0.06272">
        <ele>94</ele>
        <time>2021-01-31 12:36:50</time>
      </trkpt>
      <trkpt lat="38.78672" lon="0.06265">
        <ele>94</ele>
        <time>2021-01-31 12:36:51</time>
      </trkpt>
      <trkpt lat="38.78674" lon="0.06258">
        <ele>94</ele>
        <time>2021-01-31 12:36:52</time>
      </trkpt>
      <trkpt lat="38.78676" lon="0.06252">
        <ele>93</ele>
        <time>2021-01-31 12:36:53</time>
      </trkpt>
      <trkpt lat="38.78678" lon="0.06245">
        <ele>93.2</ele>
        <time>2021-01-31 12:36:54</time>
      </trkpt>
      <trkpt lat="38.7868" lon="0.06239">
        <ele>93.2</ele>
        <time>2021-01-31 12:36:55</time>
      </trkpt>
      <trkpt lat="38.78683" lon="0.06232">
        <ele>93.2</ele>
        <time>2021-01-31 12:36:56</time>
      </trkpt>
      <trkpt lat="38.78685" lon="0.06226">
        <ele>93.2</ele>
        <time>2021-01-31 12:36:57</time>
      </trkpt>
      <trkpt lat="38.78687" lon="0.06221">
        <ele>91.4</ele>
        <time>2021-01-31 12:36:58</time>
      </trkpt>
      <trkpt lat="38.78689" lon="0.06215">
        <ele>91.4</ele>
        <time>2021-01-31 12:36:59</time>
      </trkpt>
      <trkpt lat="38.7869" lon="0.0621">
        <ele>91.4</ele>
        <time>2021-01-31 12:37:00</time>
      </trkpt>
      <trkpt lat="38.78692" lon="0.06205">
        <ele>92.4</ele>
        <time>2021-01-31 12:37:01</time>
      </trkpt>
      <trkpt lat="38.78693" lon="0.062">
        <ele>95</ele>
        <time>2021-01-31 12:37:02</time>
      </trkpt>
      <trkpt lat="38.78695" lon="0.06194">
        <ele>95</ele>
        <time>2021-01-31 12:37:03</time>
      </trkpt>
      <trkpt lat="38.78696" lon="0.06189">
        <ele>95</ele>
        <time>2021-01-31 12:37:04</time>
      </trkpt>
      <trkpt lat="38.78696" lon="0.06183">
        <ele>95</ele>
        <time>2021-01-31 12:37:05</time>
      </trkpt>
      <trkpt lat="38.78697" lon="0.06178">
        <ele>95.2</ele>
        <time>2021-01-31 12:37:06</time>
      </trkpt>
      <trkpt lat="38.78697" lon="0.06172">
        <ele>95.2</ele>
        <time>2021-01-31 12:37:07</time>
      </trkpt>
      <trkpt lat="38.78697" lon="0.06166">
        <ele>95.2</ele>
        <time>2021-01-31 12:37:08</time>
      </trkpt>
      <trkpt lat="38.78697" lon="0.06166">
        <ele>95.2</ele>
        <time>2021-01-31 12:37:09</time>
      </trkpt>
      <trkpt lat="38.78697" lon="0.06155">
        <ele>96</ele>
        <time>2021-01-31 12:37:10</time>
      </trkpt>
      <trkpt lat="38.78697" lon="0.06149">
        <ele>96</ele>
        <time>2021-01-31 12:37:11</time>
      </trkpt>
      <trkpt lat="38.78697" lon="0.06144">
        <ele>96</ele>
        <time>2021-01-31 12:37:12</time>
      </trkpt>
      <trkpt lat="38.78697" lon="0.06139">
        <ele>96</ele>
        <time>2021-01-31 12:37:13</time>
      </trkpt>
      <trkpt lat="38.78697" lon="0.06133">
        <ele>97.8</ele>
        <time>2021-01-31 12:37:14</time>
      </trkpt>
      <trkpt lat="38.78698" lon="0.06128">
        <ele>97.8</ele>
        <time>2021-01-31 12:37:15</time>
      </trkpt>
      <trkpt lat="38.78698" lon="0.06128">
        <ele>97.8</ele>
        <time>2021-01-31 12:37:16</time>
      </trkpt>
      <trkpt lat="38.78698" lon="0.06128">
        <ele>97.8</ele>
        <time>2021-01-31 12:37:17</time>
      </trkpt>
      <trkpt lat="38.78698" lon="0.06128">
        <ele>97.6</ele>
        <time>2021-01-31 12:37:18</time>
      </trkpt>
      <trkpt lat="38.78698" lon="0.06107">
        <ele>97.6</ele>
        <time>2021-01-31 12:37:19</time>
      </trkpt>
      <trkpt lat="38.78698" lon="0.06102">
        <ele>97.6</ele>
        <time>2021-01-31 12:37:20</time>
      </trkpt>
      <trkpt lat="38.78698" lon="0.06097">
        <ele>97.6</ele>
        <time>2021-01-31 12:37:21</time>
      </trkpt>
      <trkpt lat="38.78698" lon="0.06092">
        <ele>97.2</ele>
        <time>2021-01-31 12:37:22</time>
      </trkpt>
      <trkpt lat="38.78698" lon="0.06087">
        <ele>97.2</ele>
        <time>2021-01-31 12:37:23</time>
      </trkpt>
      <trkpt lat="38.78698" lon="0.06082">
        <ele>97.2</ele>
        <time>2021-01-31 12:37:24</time>
      </trkpt>
      <trkpt lat="38.78698" lon="0.06078">
        <ele>97.8</ele>
        <time>2021-01-31 12:37:25</time>
      </trkpt>
      <trkpt lat="38.78698" lon="0.06073">
        <ele>98.2</ele>
        <time>2021-01-31 12:37:26</time>
      </trkpt>
      <trkpt lat="38.78698" lon="0.06068">
        <ele>98.2</ele>
        <time>2021-01-31 12:37:27</time>
      </trkpt>
      <trkpt lat="38.78698" lon="0.06063">
        <ele>98.2</ele>
        <time>2021-01-31 12:37:28</time>
      </trkpt>
      <trkpt lat="38.78699" lon="0.06058">
        <ele>98.2</ele>
        <time>2021-01-31 12:37:29</time>
      </trkpt>
      <trkpt lat="38.78699" lon="0.06053">
        <ele>99.6</ele>
        <time>2021-01-31 12:37:30</time>
      </trkpt>
      <trkpt lat="38.78699" lon="0.06048">
        <ele>99.6</ele>
        <time>2021-01-31 12:37:31</time>
      </trkpt>
      <trkpt lat="38.78699" lon="0.06043">
        <ele>99.6</ele>
        <time>2021-01-31 12:37:32</time>
      </trkpt>
      <trkpt lat="38.78699" lon="0.06037">
        <ele>99.6</ele>
        <time>2021-01-31 12:37:33</time>
      </trkpt>
      <trkpt lat="38.78699" lon="0.06032">
        <ele>99.6</ele>
        <time>2021-01-31 12:37:34</time>
      </trkpt>
      <trkpt lat="38.78699" lon="0.06032">
        <ele>99.6</ele>
        <time>2021-01-31 12:37:35</time>
      </trkpt>
      <trkpt lat="38.78699" lon="0.06032">
        <ele>99.6</ele>
        <time>2021-01-31 12:37:36</time>
      </trkpt>
      <trkpt lat="38.78699" lon="0.06032">
        <ele>100.2</ele>
        <time>2021-01-31 12:37:37</time>
      </trkpt>
      <trkpt lat="38.78698" lon="0.06012">
        <ele>99.8</ele>
        <time>2021-01-31 12:37:38</time>
      </trkpt>
      <trkpt lat="38.78697" lon="0.06006">
        <ele>99.8</ele>
        <time>2021-01-31 12:37:39</time>
      </trkpt>
      <trkpt lat="38.78697" lon="0.06001">
        <ele>99.8</ele>
        <time>2021-01-31 12:37:40</time>
      </trkpt>
      <trkpt lat="38.78696" lon="0.05996">
        <ele>100.6</ele>
        <time>2021-01-31 12:37:41</time>
      </trkpt>
      <trkpt lat="38.78696" lon="0.05991">
        <ele>101</ele>
        <time>2021-01-31 12:37:42</time>
      </trkpt>
      <trkpt lat="38.78695" lon="0.05986">
        <ele>101</ele>
        <time>2021-01-31 12:37:43</time>
      </trkpt>
      <trkpt lat="38.78695" lon="0.0598">
        <ele>101</ele>
        <time>2021-01-31 12:37:44</time>
      </trkpt>
      <trkpt lat="38.78695" lon="0.05975">
        <ele>101.2</ele>
        <time>2021-01-31 12:37:45</time>
      </trkpt>
      <trkpt lat="38.78694" lon="0.0597">
        <ele>101.2</ele>
        <time>2021-01-31 12:37:46</time>
      </trkpt>
      <trkpt lat="38.78694" lon="0.05965">
        <ele>101.2</ele>
        <time>2021-01-31 12:37:47</time>
      </trkpt>
      <trkpt lat="38.78695" lon="0.0596">
        <ele>101.2</ele>
        <time>2021-01-31 12:37:48</time>
      </trkpt>
      <trkpt lat="38.78696" lon="0.05955">
        <ele>101.2</ele>
        <time>2021-01-31 12:37:49</time>
      </trkpt>
      <trkpt lat="38.78698" lon="0.05951">
        <ele>101.6</ele>
        <time>2021-01-31 12:37:50</time>
      </trkpt>
      <trkpt lat="38.78699" lon="0.05946">
        <ele>101.6</ele>
        <time>2021-01-31 12:37:51</time>
      </trkpt>
      <trkpt lat="38.78701" lon="0.05942">
        <ele>101.6</ele>
        <time>2021-01-31 12:37:52</time>
      </trkpt>
      <trkpt lat="38.78703" lon="0.05937">
        <ele>101.6</ele>
        <time>2021-01-31 12:37:53</time>
      </trkpt>
      <trkpt lat="38.78704" lon="0.05933">
        <ele>102.8</ele>
        <time>2021-01-31 12:37:54</time>
      </trkpt>
      <trkpt lat="38.78706" lon="0.05928">
        <ele>102.8</ele>
        <time>2021-01-31 12:37:55</time>
      </trkpt>
      <trkpt lat="38.78708" lon="0.05923">
        <ele>102.8</ele>
        <time>2021-01-31 12:37:56</time>
      </trkpt>
      <trkpt lat="38.78709" lon="0.05919">
        <ele>102.8</ele>
        <time>2021-01-31 12:37:57</time>
      </trkpt>
      <trkpt lat="38.78711" lon="0.05914">
        <ele>101.8</ele>
        <time>2021-01-31 12:37:58</time>
      </trkpt>
      <trkpt lat="38.78713" lon="0.0591">
        <ele>101.8</ele>
        <time>2021-01-31 12:37:59</time>
      </trkpt>
      <trkpt lat="38.78715" lon="0.05905">
        <ele>101.8</ele>
        <time>2021-01-31 12:38:00</time>
      </trkpt>
      <trkpt lat="38.78716" lon="0.05901">
        <ele>102.6</ele>
        <time>2021-01-31 12:38:01</time>
      </trkpt>
      <trkpt lat="38.78718" lon="0.05896">
        <ele>102.8</ele>
        <time>2021-01-31 12:38:02</time>
      </trkpt>
      <trkpt lat="38.7872" lon="0.05891">
        <ele>102.8</ele>
        <time>2021-01-31 12:38:03</time>
      </trkpt>
      <trkpt lat="38.78721" lon="0.05887">
        <ele>102.8</ele>
        <time>2021-01-31 12:38:04</time>
      </trkpt>
      <trkpt lat="38.78723" lon="0.05882">
        <ele>102.8</ele>
        <time>2021-01-31 12:38:05</time>
      </trkpt>
      <trkpt lat="38.78725" lon="0.05877">
        <ele>102.8</ele>
        <time>2021-01-31 12:38:06</time>
      </trkpt>
      <trkpt lat="38.78727" lon="0.05872">
        <ele>102.8</ele>
        <time>2021-01-31 12:38:07</time>
      </trkpt>
      <trkpt lat="38.78728" lon="0.05868">
        <ele>102.8</ele>
        <time>2021-01-31 12:38:08</time>
      </trkpt>
      <trkpt lat="38.7873" lon="0.05863">
        <ele>102.8</ele>
        <time>2021-01-31 12:38:09</time>
      </trkpt>
      <trkpt lat="38.78732" lon="0.05858">
        <ele>103</ele>
        <time>2021-01-31 12:38:10</time>
      </trkpt>
      <trkpt lat="38.78733" lon="0.05853">
        <ele>103</ele>
        <time>2021-01-31 12:38:11</time>
      </trkpt>
      <trkpt lat="38.78735" lon="0.05849">
        <ele>103</ele>
        <time>2021-01-31 12:38:12</time>
      </trkpt>
      <trkpt lat="38.78737" lon="0.05844">
        <ele>103</ele>
        <time>2021-01-31 12:38:13</time>
      </trkpt>
      <trkpt lat="38.78739" lon="0.05839">
        <ele>103.2</ele>
        <time>2021-01-31 12:38:14</time>
      </trkpt>
      <trkpt lat="38.7874" lon="0.05835">
        <ele>103.2</ele>
        <time>2021-01-31 12:38:15</time>
      </trkpt>
      <trkpt lat="38.78742" lon="0.0583">
        <ele>103.2</ele>
        <time>2021-01-31 12:38:16</time>
      </trkpt>
      <trkpt lat="38.78743" lon="0.05825">
        <ele>103.2</ele>
        <time>2021-01-31 12:38:17</time>
      </trkpt>
      <trkpt lat="38.78745" lon="0.05821">
        <ele>103.6</ele>
        <time>2021-01-31 12:38:18</time>
      </trkpt>
      <trkpt lat="38.78747" lon="0.05816">
        <ele>103.6</ele>
        <time>2021-01-31 12:38:19</time>
      </trkpt>
      <trkpt lat="38.78748" lon="0.05812">
        <ele>103.6</ele>
        <time>2021-01-31 12:38:20</time>
      </trkpt>
      <trkpt lat="38.7875" lon="0.05808">
        <ele>104.4</ele>
        <time>2021-01-31 12:38:21</time>
      </trkpt>
      <trkpt lat="38.78751" lon="0.05803">
        <ele>104.6</ele>
        <time>2021-01-31 12:38:22</time>
      </trkpt>
      <trkpt lat="38.78753" lon="0.05799">
        <ele>104.6</ele>
        <time>2021-01-31 12:38:23</time>
      </trkpt>
      <trkpt lat="38.78754" lon="0.05795">
        <ele>104.6</ele>
        <time>2021-01-31 12:38:24</time>
      </trkpt>
      <trkpt lat="38.78756" lon="0.05791">
        <ele>104.6</ele>
        <time>2021-01-31 12:38:25</time>
      </trkpt>
      <trkpt lat="38.78757" lon="0.05786">
        <ele>104.8</ele>
        <time>2021-01-31 12:38:26</time>
      </trkpt>
      <trkpt lat="38.78759" lon="0.05782">
        <ele>104.8</ele>
        <time>2021-01-31 12:38:27</time>
      </trkpt>
      <trkpt lat="38.7876" lon="0.05778">
        <ele>104.8</ele>
        <time>2021-01-31 12:38:28</time>
      </trkpt>
      <trkpt lat="38.78762" lon="0.05773">
        <ele>104.8</ele>
        <time>2021-01-31 12:38:29</time>
      </trkpt>
      <trkpt lat="38.78763" lon="0.05769">
        <ele>104.8</ele>
        <time>2021-01-31 12:38:30</time>
      </trkpt>
      <trkpt lat="38.78765" lon="0.05765">
        <ele>104.8</ele>
        <time>2021-01-31 12:38:31</time>
      </trkpt>
      <trkpt lat="38.78765" lon="0.05765">
        <ele>104.8</ele>
        <time>2021-01-31 12:38:32</time>
      </trkpt>
      <trkpt lat="38.78765" lon="0.05765">
        <ele>104.8</ele>
        <time>2021-01-31 12:38:33</time>
      </trkpt>
      <trkpt lat="38.78765" lon="0.05765">
        <ele>106</ele>
        <time>2021-01-31 12:38:34</time>
      </trkpt>
      <trkpt lat="38.7877" lon="0.05748">
        <ele>106</ele>
        <time>2021-01-31 12:38:35</time>
      </trkpt>
      <trkpt lat="38.78771" lon="0.05744">
        <ele>106</ele>
        <time>2021-01-31 12:38:36</time>
      </trkpt>
      <trkpt lat="38.78772" lon="0.05739">
        <ele>107</ele>
        <time>2021-01-31 12:38:37</time>
      </trkpt>
      <trkpt lat="38.78772" lon="0.05735">
        <ele>107.2</ele>
        <time>2021-01-31 12:38:38</time>
      </trkpt>
      <trkpt lat="38.78772" lon="0.0573">
        <ele>107.2</ele>
        <time>2021-01-31 12:38:39</time>
      </trkpt>
      <trkpt lat="38.78772" lon="0.05726">
        <ele>107.2</ele>
        <time>2021-01-31 12:38:40</time>
      </trkpt>
      <trkpt lat="38.78772" lon="0.05721">
        <ele>108</ele>
        <time>2021-01-31 12:38:41</time>
      </trkpt>
      <trkpt lat="38.78771" lon="0.05716">
        <ele>107.6</ele>
        <time>2021-01-31 12:38:42</time>
      </trkpt>
      <trkpt lat="38.7877" lon="0.05712">
        <ele>107.6</ele>
        <time>2021-01-31 12:38:43</time>
      </trkpt>
      <trkpt lat="38.78769" lon="0.05707">
        <ele>107.6</ele>
        <time>2021-01-31 12:38:44</time>
      </trkpt>
      <trkpt lat="38.78768" lon="0.05702">
        <ele>107.6</ele>
        <time>2021-01-31 12:38:45</time>
      </trkpt>
      <trkpt lat="38.78767" lon="0.05698">
        <ele>107.8</ele>
        <time>2021-01-31 12:38:46</time>
      </trkpt>
      <trkpt lat="38.78766" lon="0.05693">
        <ele>107.8</ele>
        <time>2021-01-31 12:38:47</time>
      </trkpt>
      <trkpt lat="38.78765" lon="0.05689">
        <ele>107.8</ele>
        <time>2021-01-31 12:38:48</time>
      </trkpt>
      <trkpt lat="38.78764" lon="0.05684">
        <ele>108.8</ele>
        <time>2021-01-31 12:38:49</time>
      </trkpt>
      <trkpt lat="38.78763" lon="0.0568">
        <ele>109</ele>
        <time>2021-01-31 12:38:50</time>
      </trkpt>
      <trkpt lat="38.78762" lon="0.05675">
        <ele>109</ele>
        <time>2021-01-31 12:38:51</time>
      </trkpt>
      <trkpt lat="38.78762" lon="0.05671">
        <ele>109</ele>
        <time>2021-01-31 12:38:52</time>
      </trkpt>
      <trkpt lat="38.78761" lon="0.05666">
        <ele>110</ele>
        <time>2021-01-31 12:38:53</time>
      </trkpt>
      <trkpt lat="38.78761" lon="0.05662">
        <ele>109</ele>
        <time>2021-01-31 12:38:54</time>
      </trkpt>
      <trkpt lat="38.7876" lon="0.05657">
        <ele>109</ele>
        <time>2021-01-31 12:38:55</time>
      </trkpt>
      <trkpt lat="38.7876" lon="0.05653">
        <ele>109</ele>
        <time>2021-01-31 12:38:56</time>
      </trkpt>
      <trkpt lat="38.7876" lon="0.05649">
        <ele>109</ele>
        <time>2021-01-31 12:38:57</time>
      </trkpt>
      <trkpt lat="38.7876" lon="0.05644">
        <ele>109.4</ele>
        <time>2021-01-31 12:38:58</time>
      </trkpt>
      <trkpt lat="38.78761" lon="0.0564">
        <ele>109.4</ele>
        <time>2021-01-31 12:38:59</time>
      </trkpt>
      <trkpt lat="38.78761" lon="0.05636">
        <ele>109.4</ele>
        <time>2021-01-31 12:39:00</time>
      </trkpt>
      <trkpt lat="38.78761" lon="0.05631">
        <ele>109.4</ele>
        <time>2021-01-31 12:39:01</time>
      </trkpt>
      <trkpt lat="38.78761" lon="0.05627">
        <ele>109.4</ele>
        <time>2021-01-31 12:39:02</time>
      </trkpt>
      <trkpt lat="38.78762" lon="0.05623">
        <ele>109.4</ele>
        <time>2021-01-31 12:39:03</time>
      </trkpt>
      <trkpt lat="38.78762" lon="0.05619">
        <ele>109.4</ele>
        <time>2021-01-31 12:39:04</time>
      </trkpt>
      <trkpt lat="38.78762" lon="0.05615">
        <ele>109.2</ele>
        <time>2021-01-31 12:39:05</time>
      </trkpt>
      <trkpt lat="38.78762" lon="0.05611">
        <ele>109.8</ele>
        <time>2021-01-31 12:39:06</time>
      </trkpt>
      <trkpt lat="38.78763" lon="0.05606">
        <ele>109.8</ele>
        <time>2021-01-31 12:39:07</time>
      </trkpt>
      <trkpt lat="38.78763" lon="0.05602">
        <ele>109.8</ele>
        <time>2021-01-31 12:39:08</time>
      </trkpt>
      <trkpt lat="38.78763" lon="0.05598">
        <ele>110.8</ele>
        <time>2021-01-31 12:39:09</time>
      </trkpt>
      <trkpt lat="38.78764" lon="0.05594">
        <ele>110.6</ele>
        <time>2021-01-31 12:39:10</time>
      </trkpt>
      <trkpt lat="38.78764" lon="0.05591">
        <ele>110.6</ele>
        <time>2021-01-31 12:39:11</time>
      </trkpt>
      <trkpt lat="38.78764" lon="0.05586">
        <ele>110.6</ele>
        <time>2021-01-31 12:39:12</time>
      </trkpt>
      <trkpt lat="38.78764" lon="0.05582">
        <ele>111</ele>
        <time>2021-01-31 12:39:13</time>
      </trkpt>
      <trkpt lat="38.78764" lon="0.05578">
        <ele>111.8</ele>
        <time>2021-01-31 12:39:14</time>
      </trkpt>
      <trkpt lat="38.78763" lon="0.05574">
        <ele>111.8</ele>
        <time>2021-01-31 12:39:15</time>
      </trkpt>
      <trkpt lat="38.78763" lon="0.05569">
        <ele>111.8</ele>
        <time>2021-01-31 12:39:16</time>
      </trkpt>
      <trkpt lat="38.78763" lon="0.05565">
        <ele>111.2</ele>
        <time>2021-01-31 12:39:17</time>
      </trkpt>
      <trkpt lat="38.78762" lon="0.0556">
        <ele>111.2</ele>
        <time>2021-01-31 12:39:18</time>
      </trkpt>
      <trkpt lat="38.78762" lon="0.05556">
        <ele>111.2</ele>
        <time>2021-01-31 12:39:19</time>
      </trkpt>
      <trkpt lat="38.78762" lon="0.05551">
        <ele>111.2</ele>
        <time>2021-01-31 12:39:20</time>
      </trkpt>
      <trkpt lat="38.78761" lon="0.05547">
        <ele>111.2</ele>
        <time>2021-01-31 12:39:21</time>
      </trkpt>
      <trkpt lat="38.78761" lon="0.05543">
        <ele>114.4</ele>
        <time>2021-01-31 12:39:22</time>
      </trkpt>
      <trkpt lat="38.78761" lon="0.05539">
        <ele>114.4</ele>
        <time>2021-01-31 12:39:23</time>
      </trkpt>
      <trkpt lat="38.7876" lon="0.05535">
        <ele>114.4</ele>
        <time>2021-01-31 12:39:24</time>
      </trkpt>
      <trkpt lat="38.7876" lon="0.05531">
        <ele>114.4</ele>
        <time>2021-01-31 12:39:25</time>
      </trkpt>
      <trkpt lat="38.7876" lon="0.05527">
        <ele>113.2</ele>
        <time>2021-01-31 12:39:26</time>
      </trkpt>
      <trkpt lat="38.78759" lon="0.05523">
        <ele>113.2</ele>
        <time>2021-01-31 12:39:27</time>
      </trkpt>
      <trkpt lat="38.78759" lon="0.05519">
        <ele>113.2</ele>
        <time>2021-01-31 12:39:28</time>
      </trkpt>
      <trkpt lat="38.78759" lon="0.05515">
        <ele>112.2</ele>
        <time>2021-01-31 12:39:29</time>
      </trkpt>
      <trkpt lat="38.78758" lon="0.05511">
        <ele>113.4</ele>
        <time>2021-01-31 12:39:30</time>
      </trkpt>
      <trkpt lat="38.78758" lon="0.05507">
        <ele>113.4</ele>
        <time>2021-01-31 12:39:31</time>
      </trkpt>
      <trkpt lat="38.78758" lon="0.05502">
        <ele>113.4</ele>
        <time>2021-01-31 12:39:32</time>
      </trkpt>
      <trkpt lat="38.78757" lon="0.05498">
        <ele>113.4</ele>
        <time>2021-01-31 12:39:33</time>
      </trkpt>
      <trkpt lat="38.78757" lon="0.05494">
        <ele>113.4</ele>
        <time>2021-01-31 12:39:34</time>
      </trkpt>
      <trkpt lat="38.78757" lon="0.0549">
        <ele>113.4</ele>
        <time>2021-01-31 12:39:35</time>
      </trkpt>
      <trkpt lat="38.78757" lon="0.0549">
        <ele>113.4</ele>
        <time>2021-01-31 12:39:36</time>
      </trkpt>
      <trkpt lat="38.78757" lon="0.0549">
        <ele>113.4</ele>
        <time>2021-01-31 12:39:37</time>
      </trkpt>
      <trkpt lat="38.78757" lon="0.0549">
        <ele>114</ele>
        <time>2021-01-31 12:39:38</time>
      </trkpt>
      <trkpt lat="38.78758" lon="0.05474">
        <ele>114</ele>
        <time>2021-01-31 12:39:39</time>
      </trkpt>
      <trkpt lat="38.78759" lon="0.0547">
        <ele>114</ele>
        <time>2021-01-31 12:39:40</time>
      </trkpt>
      <trkpt lat="38.7876" lon="0.05467">
        <ele>115</ele>
        <time>2021-01-31 12:39:41</time>
      </trkpt>
      <trkpt lat="38.78762" lon="0.05463">
        <ele>116.2</ele>
        <time>2021-01-31 12:39:42</time>
      </trkpt>
      <trkpt lat="38.78763" lon="0.0546">
        <ele>116.2</ele>
        <time>2021-01-31 12:39:43</time>
      </trkpt>
      <trkpt lat="38.78764" lon="0.05456">
        <ele>116.2</ele>
        <time>2021-01-31 12:39:44</time>
      </trkpt>
      <trkpt lat="38.78766" lon="0.05453">
        <ele>116.2</ele>
        <time>2021-01-31 12:39:45</time>
      </trkpt>
      <trkpt lat="38.78767" lon="0.05449">
        <ele>116.2</ele>
        <time>2021-01-31 12:39:46</time>
      </trkpt>
      <trkpt lat="38.78768" lon="0.05445">
        <ele>116.2</ele>
        <time>2021-01-31 12:39:47</time>
      </trkpt>
      <trkpt lat="38.7877" lon="0.05442">
        <ele>116.2</ele>
        <time>2021-01-31 12:39:48</time>
      </trkpt>
      <trkpt lat="38.78771" lon="0.05438">
        <ele>117</ele>
        <time>2021-01-31 12:39:49</time>
      </trkpt>
      <trkpt lat="38.78772" lon="0.05434">
        <ele>117.2</ele>
        <time>2021-01-31 12:39:50</time>
      </trkpt>
      <trkpt lat="38.78774" lon="0.0543">
        <ele>117.2</ele>
        <time>2021-01-31 12:39:51</time>
      </trkpt>
      <trkpt lat="38.78775" lon="0.05426">
        <ele>117.2</ele>
        <time>2021-01-31 12:39:52</time>
      </trkpt>
      <trkpt lat="38.78777" lon="0.05422">
        <ele>116.4</ele>
        <time>2021-01-31 12:39:53</time>
      </trkpt>
      <trkpt lat="38.78778" lon="0.05418">
        <ele>116.8</ele>
        <time>2021-01-31 12:39:54</time>
      </trkpt>
      <trkpt lat="38.7878" lon="0.05414">
        <ele>116.8</ele>
        <time>2021-01-31 12:39:55</time>
      </trkpt>
      <trkpt lat="38.78781" lon="0.0541">
        <ele>116.8</ele>
        <time>2021-01-31 12:39:56</time>
      </trkpt>
      <trkpt lat="38.78783" lon="0.05406">
        <ele>117</ele>
        <time>2021-01-31 12:39:57</time>
      </trkpt>
      <trkpt lat="38.78784" lon="0.05401">
        <ele>117.6</ele>
        <time>2021-01-31 12:39:58</time>
      </trkpt>
      <trkpt lat="38.78786" lon="0.05397">
        <ele>117.6</ele>
        <time>2021-01-31 12:39:59</time>
      </trkpt>
      <trkpt lat="38.78788" lon="0.05393">
        <ele>117.6</ele>
        <time>2021-01-31 12:40:00</time>
      </trkpt>
      <trkpt lat="38.78789" lon="0.05388">
        <ele>117.6</ele>
        <time>2021-01-31 12:40:01</time>
      </trkpt>
      <trkpt lat="38.78791" lon="0.05384">
        <ele>117.4</ele>
        <time>2021-01-31 12:40:02</time>
      </trkpt>
      <trkpt lat="38.78792" lon="0.0538">
        <ele>117.4</ele>
        <time>2021-01-31 12:40:03</time>
      </trkpt>
      <trkpt lat="38.78793" lon="0.05375">
        <ele>117.4</ele>
        <time>2021-01-31 12:40:04</time>
      </trkpt>
      <trkpt lat="38.78794" lon="0.0537">
        <ele>117.2</ele>
        <time>2021-01-31 12:40:05</time>
      </trkpt>
      <trkpt lat="38.78795" lon="0.05366">
        <ele>116.2</ele>
        <time>2021-01-31 12:40:06</time>
      </trkpt>
      <trkpt lat="38.78796" lon="0.05361">
        <ele>116.2</ele>
        <time>2021-01-31 12:40:07</time>
      </trkpt>
      <trkpt lat="38.78797" lon="0.05356">
        <ele>116.2</ele>
        <time>2021-01-31 12:40:08</time>
      </trkpt>
      <trkpt lat="38.78798" lon="0.05351">
        <ele>116.8</ele>
        <time>2021-01-31 12:40:09</time>
      </trkpt>
      <trkpt lat="38.78799" lon="0.05346">
        <ele>117.4</ele>
        <time>2021-01-31 12:40:10</time>
      </trkpt>
      <trkpt lat="38.788" lon="0.05342">
        <ele>117.4</ele>
        <time>2021-01-31 12:40:11</time>
      </trkpt>
      <trkpt lat="38.788" lon="0.05337">
        <ele>117.4</ele>
        <time>2021-01-31 12:40:12</time>
      </trkpt>
      <trkpt lat="38.78801" lon="0.05332">
        <ele>117.4</ele>
        <time>2021-01-31 12:40:13</time>
      </trkpt>
      <trkpt lat="38.78802" lon="0.05327">
        <ele>117</ele>
        <time>2021-01-31 12:40:14</time>
      </trkpt>
      <trkpt lat="38.78803" lon="0.05322">
        <ele>117</ele>
        <time>2021-01-31 12:40:15</time>
      </trkpt>
      <trkpt lat="38.78804" lon="0.05317">
        <ele>117</ele>
        <time>2021-01-31 12:40:16</time>
      </trkpt>
      <trkpt lat="38.78806" lon="0.05313">
        <ele>117</ele>
        <time>2021-01-31 12:40:17</time>
      </trkpt>
      <trkpt lat="38.78808" lon="0.05309">
        <ele>117.8</ele>
        <time>2021-01-31 12:40:18</time>
      </trkpt>
      <trkpt lat="38.78809" lon="0.05305">
        <ele>117.8</ele>
        <time>2021-01-31 12:40:19</time>
      </trkpt>
      <trkpt lat="38.78811" lon="0.05301">
        <ele>117.8</ele>
        <time>2021-01-31 12:40:20</time>
      </trkpt>
      <trkpt lat="38.78813" lon="0.05296">
        <ele>117.8</ele>
        <time>2021-01-31 12:40:21</time>
      </trkpt>
      <trkpt lat="38.78815" lon="0.05292">
        <ele>117.4</ele>
        <time>2021-01-31 12:40:22</time>
      </trkpt>
      <trkpt lat="38.78817" lon="0.05288">
        <ele>117.4</ele>
        <time>2021-01-31 12:40:23</time>
      </trkpt>
      <trkpt lat="38.78819" lon="0.05284">
        <ele>117.4</ele>
        <time>2021-01-31 12:40:24</time>
      </trkpt>
      <trkpt lat="38.78822" lon="0.05281">
        <ele>118.4</ele>
        <time>2021-01-31 12:40:25</time>
      </trkpt>
      <trkpt lat="38.78824" lon="0.05277">
        <ele>118.4</ele>
        <time>2021-01-31 12:40:26</time>
      </trkpt>
      <trkpt lat="38.78826" lon="0.05272">
        <ele>118.4</ele>
        <time>2021-01-31 12:40:27</time>
      </trkpt>
      <trkpt lat="38.78829" lon="0.05268">
        <ele>118.4</ele>
        <time>2021-01-31 12:40:28</time>
      </trkpt>
      <trkpt lat="38.78831" lon="0.05263">
        <ele>117.8</ele>
        <time>2021-01-31 12:40:29</time>
      </trkpt>
      <trkpt lat="38.78833" lon="0.05259">
        <ele>117.8</ele>
        <time>2021-01-31 12:40:30</time>
      </trkpt>
      <trkpt lat="38.78835" lon="0.05254">
        <ele>117.8</ele>
        <time>2021-01-31 12:40:31</time>
      </trkpt>
      <trkpt lat="38.78837" lon="0.0525">
        <ele>117.8</ele>
        <time>2021-01-31 12:40:32</time>
      </trkpt>
      <trkpt lat="38.78837" lon="0.0525">
        <ele>117.8</ele>
        <time>2021-01-31 12:40:33</time>
      </trkpt>
      <trkpt lat="38.78837" lon="0.0525">
        <ele>117.8</ele>
        <time>2021-01-31 12:40:34</time>
      </trkpt>
      <trkpt lat="38.78837" lon="0.0525">
        <ele>117.6</ele>
        <time>2021-01-31 12:40:35</time>
      </trkpt>
      <trkpt lat="38.78845" lon="0.05229">
        <ele>117.6</ele>
        <time>2021-01-31 12:40:36</time>
      </trkpt>
      <trkpt lat="38.78847" lon="0.05224">
        <ele>117.2</ele>
        <time>2021-01-31 12:40:37</time>
      </trkpt>
      <trkpt lat="38.78848" lon="0.05219">
        <ele>117.8</ele>
        <time>2021-01-31 12:40:38</time>
      </trkpt>
      <trkpt lat="38.7885" lon="0.05214">
        <ele>117.8</ele>
        <time>2021-01-31 12:40:39</time>
      </trkpt>
      <trkpt lat="38.7885" lon="0.05214">
        <ele>117.8</ele>
        <time>2021-01-31 12:40:40</time>
      </trkpt>
      <trkpt lat="38.7885" lon="0.05214">
        <ele>117.8</ele>
        <time>2021-01-31 12:40:41</time>
      </trkpt>
      <trkpt lat="38.7885" lon="0.05214">
        <ele>117.8</ele>
        <time>2021-01-31 12:40:42</time>
      </trkpt>
      <trkpt lat="38.78857" lon="0.05194">
        <ele>117.8</ele>
        <time>2021-01-31 12:40:43</time>
      </trkpt>
      <trkpt lat="38.78859" lon="0.05188">
        <ele>117.8</ele>
        <time>2021-01-31 12:40:44</time>
      </trkpt>
      <trkpt lat="38.7886" lon="0.05183">
        <ele>117.2</ele>
        <time>2021-01-31 12:40:45</time>
      </trkpt>
      <trkpt lat="38.78861" lon="0.05177">
        <ele>118.2</ele>
        <time>2021-01-31 12:40:46</time>
      </trkpt>
      <trkpt lat="38.78862" lon="0.05171">
        <ele>118.2</ele>
        <time>2021-01-31 12:40:47</time>
      </trkpt>
      <trkpt lat="38.78863" lon="0.05165">
        <ele>118.2</ele>
        <time>2021-01-31 12:40:48</time>
      </trkpt>
      <trkpt lat="38.78864" lon="0.05159">
        <ele>118.2</ele>
        <time>2021-01-31 12:40:49</time>
      </trkpt>
      <trkpt lat="38.78864" lon="0.05152">
        <ele>118</ele>
        <time>2021-01-31 12:40:50</time>
      </trkpt>
      <trkpt lat="38.78865" lon="0.05146">
        <ele>118</ele>
        <time>2021-01-31 12:40:51</time>
      </trkpt>
      <trkpt lat="38.78866" lon="0.0514">
        <ele>118</ele>
        <time>2021-01-31 12:40:52</time>
      </trkpt>
      <trkpt lat="38.78867" lon="0.05133">
        <ele>117.8</ele>
        <time>2021-01-31 12:40:53</time>
      </trkpt>
      <trkpt lat="38.78868" lon="0.05127">
        <ele>117.2</ele>
        <time>2021-01-31 12:40:54</time>
      </trkpt>
      <trkpt lat="38.78869" lon="0.05121">
        <ele>117.2</ele>
        <time>2021-01-31 12:40:55</time>
      </trkpt>
      <trkpt lat="38.78871" lon="0.05115">
        <ele>117.2</ele>
        <time>2021-01-31 12:40:56</time>
      </trkpt>
      <trkpt lat="38.78872" lon="0.05109">
        <ele>116.6</ele>
        <time>2021-01-31 12:40:57</time>
      </trkpt>
      <trkpt lat="38.78874" lon="0.05103">
        <ele>116.8</ele>
        <time>2021-01-31 12:40:58</time>
      </trkpt>
      <trkpt lat="38.78875" lon="0.05097">
        <ele>116.8</ele>
        <time>2021-01-31 12:40:59</time>
      </trkpt>
      <trkpt lat="38.78877" lon="0.05091">
        <ele>116.8</ele>
        <time>2021-01-31 12:41:00</time>
      </trkpt>
      <trkpt lat="38.78878" lon="0.05084">
        <ele>116</ele>
        <time>2021-01-31 12:41:01</time>
      </trkpt>
      <trkpt lat="38.7888" lon="0.05078">
        <ele>116.8</ele>
        <time>2021-01-31 12:41:02</time>
      </trkpt>
      <trkpt lat="38.78882" lon="0.05072">
        <ele>116.8</ele>
        <time>2021-01-31 12:41:03</time>
      </trkpt>
      <trkpt lat="38.78884" lon="0.05065">
        <ele>116.8</ele>
        <time>2021-01-31 12:41:04</time>
      </trkpt>
      <trkpt lat="38.78886" lon="0.05058">
        <ele>116.8</ele>
        <time>2021-01-31 12:41:05</time>
      </trkpt>
      <trkpt lat="38.78888" lon="0.05052">
        <ele>115.8</ele>
        <time>2021-01-31 12:41:06</time>
      </trkpt>
      <trkpt lat="38.7889" lon="0.05045">
        <ele>115.8</ele>
        <time>2021-01-31 12:41:07</time>
      </trkpt>
      <trkpt lat="38.78892" lon="0.05038">
        <ele>115.8</ele>
        <time>2021-01-31 12:41:08</time>
      </trkpt>
      <trkpt lat="38.78893" lon="0.05031">
        <ele>115</ele>
        <time>2021-01-31 12:41:09</time>
      </trkpt>
      <trkpt lat="38.78895" lon="0.05025">
        <ele>115.8</ele>
        <time>2021-01-31 12:41:10</time>
      </trkpt>
      <trkpt lat="38.78896" lon="0.05018">
        <ele>115.8</ele>
        <time>2021-01-31 12:41:11</time>
      </trkpt>
      <trkpt lat="38.78897" lon="0.05011">
        <ele>115.8</ele>
        <time>2021-01-31 12:41:12</time>
      </trkpt>
      <trkpt lat="38.78897" lon="0.05005">
        <ele>115.4</ele>
        <time>2021-01-31 12:41:13</time>
      </trkpt>
      <trkpt lat="38.78897" lon="0.04998">
        <ele>114.6</ele>
        <time>2021-01-31 12:41:14</time>
      </trkpt>
      <trkpt lat="38.78897" lon="0.04991">
        <ele>114.6</ele>
        <time>2021-01-31 12:41:15</time>
      </trkpt>
      <trkpt lat="38.78896" lon="0.04985">
        <ele>114.6</ele>
        <time>2021-01-31 12:41:16</time>
      </trkpt>
      <trkpt lat="38.78896" lon="0.04978">
        <ele>113.6</ele>
        <time>2021-01-31 12:41:17</time>
      </trkpt>
      <trkpt lat="38.78896" lon="0.0497">
        <ele>114</ele>
        <time>2021-01-31 12:41:18</time>
      </trkpt>
      <trkpt lat="38.78896" lon="0.04963">
        <ele>114</ele>
        <time>2021-01-31 12:41:19</time>
      </trkpt>
      <trkpt lat="38.78896" lon="0.04955">
        <ele>114</ele>
        <time>2021-01-31 12:41:20</time>
      </trkpt>
      <trkpt lat="38.78897" lon="0.04948">
        <ele>114.6</ele>
        <time>2021-01-31 12:41:21</time>
      </trkpt>
      <trkpt lat="38.78898" lon="0.04941">
        <ele>114.6</ele>
        <time>2021-01-31 12:41:22</time>
      </trkpt>
      <trkpt lat="38.78898" lon="0.04941">
        <ele>114.6</ele>
        <time>2021-01-31 12:41:23</time>
      </trkpt>
      <trkpt lat="38.78898" lon="0.04941">
        <ele>114.6</ele>
        <time>2021-01-31 12:41:24</time>
      </trkpt>
      <trkpt lat="38.78898" lon="0.04941">
        <ele>114</ele>
        <time>2021-01-31 12:41:25</time>
      </trkpt>
      <trkpt lat="38.78906" lon="0.04912">
        <ele>111.8</ele>
        <time>2021-01-31 12:41:26</time>
      </trkpt>
      <trkpt lat="38.78908" lon="0.04904">
        <ele>111.8</ele>
        <time>2021-01-31 12:41:27</time>
      </trkpt>
      <trkpt lat="38.78911" lon="0.04897">
        <ele>111.8</ele>
        <time>2021-01-31 12:41:28</time>
      </trkpt>
      <trkpt lat="38.78914" lon="0.0489">
        <ele>111.8</ele>
        <time>2021-01-31 12:41:29</time>
      </trkpt>
      <trkpt lat="38.78917" lon="0.04883">
        <ele>112.6</ele>
        <time>2021-01-31 12:41:30</time>
      </trkpt>
      <trkpt lat="38.78921" lon="0.04876">
        <ele>112.6</ele>
        <time>2021-01-31 12:41:31</time>
      </trkpt>
      <trkpt lat="38.78924" lon="0.04869">
        <ele>112.6</ele>
        <time>2021-01-31 12:41:32</time>
      </trkpt>
      <trkpt lat="38.78927" lon="0.04861">
        <ele>111.6</ele>
        <time>2021-01-31 12:41:33</time>
      </trkpt>
      <trkpt lat="38.7893" lon="0.04854">
        <ele>111</ele>
        <time>2021-01-31 12:41:34</time>
      </trkpt>
      <trkpt lat="38.78934" lon="0.04846">
        <ele>111</ele>
        <time>2021-01-31 12:41:35</time>
      </trkpt>
      <trkpt lat="38.78937" lon="0.04839">
        <ele>111</ele>
        <time>2021-01-31 12:41:36</time>
      </trkpt>
      <trkpt lat="38.7894" lon="0.04831">
        <ele>110</ele>
        <time>2021-01-31 12:41:37</time>
      </trkpt>
      <trkpt lat="38.78944" lon="0.04823">
        <ele>108.4</ele>
        <time>2021-01-31 12:41:38</time>
      </trkpt>
      <trkpt lat="38.78947" lon="0.04816">
        <ele>108.4</ele>
        <time>2021-01-31 12:41:39</time>
      </trkpt>
      <trkpt lat="38.78951" lon="0.04808">
        <ele>108.4</ele>
        <time>2021-01-31 12:41:40</time>
      </trkpt>
      <trkpt lat="38.78955" lon="0.048">
        <ele>108.4</ele>
        <time>2021-01-31 12:41:41</time>
      </trkpt>
      <trkpt lat="38.78958" lon="0.04792">
        <ele>108</ele>
        <time>2021-01-31 12:41:42</time>
      </trkpt>
      <trkpt lat="38.78962" lon="0.04784">
        <ele>108</ele>
        <time>2021-01-31 12:41:43</time>
      </trkpt>
      <trkpt lat="38.78966" lon="0.04775">
        <ele>108</ele>
        <time>2021-01-31 12:41:44</time>
      </trkpt>
      <trkpt lat="38.78969" lon="0.04767">
        <ele>108</ele>
        <time>2021-01-31 12:41:45</time>
      </trkpt>
      <trkpt lat="38.78973" lon="0.04758">
        <ele>108.4</ele>
        <time>2021-01-31 12:41:46</time>
      </trkpt>
      <trkpt lat="38.78977" lon="0.0475">
        <ele>108.4</ele>
        <time>2021-01-31 12:41:47</time>
      </trkpt>
      <trkpt lat="38.78981" lon="0.04741">
        <ele>108.4</ele>
        <time>2021-01-31 12:41:48</time>
      </trkpt>
      <trkpt lat="38.78985" lon="0.04733">
        <ele>107.4</ele>
        <time>2021-01-31 12:41:49</time>
      </trkpt>
      <trkpt lat="38.78989" lon="0.04724">
        <ele>104.4</ele>
        <time>2021-01-31 12:41:50</time>
      </trkpt>
      <trkpt lat="38.78992" lon="0.04715">
        <ele>104.4</ele>
        <time>2021-01-31 12:41:51</time>
      </trkpt>
      <trkpt lat="38.78996" lon="0.04707">
        <ele>104.4</ele>
        <time>2021-01-31 12:41:52</time>
      </trkpt>
      <trkpt lat="38.79" lon="0.04698">
        <ele>103.8</ele>
        <time>2021-01-31 12:41:53</time>
      </trkpt>
      <trkpt lat="38.79004" lon="0.0469">
        <ele>102.8</ele>
        <time>2021-01-31 12:41:54</time>
      </trkpt>
      <trkpt lat="38.79007" lon="0.04681">
        <ele>102.8</ele>
        <time>2021-01-31 12:41:55</time>
      </trkpt>
      <trkpt lat="38.79011" lon="0.04673">
        <ele>102.8</ele>
        <time>2021-01-31 12:41:56</time>
      </trkpt>
      <trkpt lat="38.79015" lon="0.04664">
        <ele>102.8</ele>
        <time>2021-01-31 12:41:57</time>
      </trkpt>
      <trkpt lat="38.79015" lon="0.04664">
        <ele>102.8</ele>
        <time>2021-01-31 12:41:58</time>
      </trkpt>
      <trkpt lat="38.79015" lon="0.04664">
        <ele>102.8</ele>
        <time>2021-01-31 12:41:59</time>
      </trkpt>
      <trkpt lat="38.79015" lon="0.04664">
        <ele>102.6</ele>
        <time>2021-01-31 12:42:00</time>
      </trkpt>
      <trkpt lat="38.7903" lon="0.04628">
        <ele>101.6</ele>
        <time>2021-01-31 12:42:01</time>
      </trkpt>
      <trkpt lat="38.79034" lon="0.04619">
        <ele>98.6</ele>
        <time>2021-01-31 12:42:02</time>
      </trkpt>
      <trkpt lat="38.79038" lon="0.0461">
        <ele>98.6</ele>
        <time>2021-01-31 12:42:03</time>
      </trkpt>
      <trkpt lat="38.79042" lon="0.04601">
        <ele>98.6</ele>
        <time>2021-01-31 12:42:04</time>
      </trkpt>
      <trkpt lat="38.79046" lon="0.04592">
        <ele>99.6</ele>
        <time>2021-01-31 12:42:05</time>
      </trkpt>
      <trkpt lat="38.79049" lon="0.04584">
        <ele>99.6</ele>
        <time>2021-01-31 12:42:06</time>
      </trkpt>
      <trkpt lat="38.79049" lon="0.04584">
        <ele>99.6</ele>
        <time>2021-01-31 12:42:07</time>
      </trkpt>
      <trkpt lat="38.79049" lon="0.04584">
        <ele>99.6</ele>
        <time>2021-01-31 12:42:08</time>
      </trkpt>
      <trkpt lat="38.79049" lon="0.04584">
        <ele>100.8</ele>
        <time>2021-01-31 12:42:09</time>
      </trkpt>
      <trkpt lat="38.79063" lon="0.04551">
        <ele>101</ele>
        <time>2021-01-31 12:42:10</time>
      </trkpt>
      <trkpt lat="38.79067" lon="0.04543">
        <ele>101</ele>
        <time>2021-01-31 12:42:11</time>
      </trkpt>
      <trkpt lat="38.7907" lon="0.04536">
        <ele>101</ele>
        <time>2021-01-31 12:42:12</time>
      </trkpt>
      <trkpt lat="38.79073" lon="0.04529">
        <ele>101</ele>
        <time>2021-01-31 12:42:13</time>
      </trkpt>
      <trkpt lat="38.79077" lon="0.04522">
        <ele>99.6</ele>
        <time>2021-01-31 12:42:14</time>
      </trkpt>
      <trkpt lat="38.7908" lon="0.04515">
        <ele>99.6</ele>
        <time>2021-01-31 12:42:15</time>
      </trkpt>
      <trkpt lat="38.79083" lon="0.04509">
        <ele>99.6</ele>
        <time>2021-01-31 12:42:16</time>
      </trkpt>
      <trkpt lat="38.79086" lon="0.04502">
        <ele>100.6</ele>
        <time>2021-01-31 12:42:17</time>
      </trkpt>
      <trkpt lat="38.79089" lon="0.04495">
        <ele>100.4</ele>
        <time>2021-01-31 12:42:18</time>
      </trkpt>
      <trkpt lat="38.79092" lon="0.04488">
        <ele>100.4</ele>
        <time>2021-01-31 12:42:19</time>
      </trkpt>
      <trkpt lat="38.79095" lon="0.04481">
        <ele>100.4</ele>
        <time>2021-01-31 12:42:20</time>
      </trkpt>
      <trkpt lat="38.79097" lon="0.04474">
        <ele>100.4</ele>
        <time>2021-01-31 12:42:21</time>
      </trkpt>
      <trkpt lat="38.791" lon="0.04467">
        <ele>99.6</ele>
        <time>2021-01-31 12:42:22</time>
      </trkpt>
      <trkpt lat="38.79102" lon="0.0446">
        <ele>99.6</ele>
        <time>2021-01-31 12:42:23</time>
      </trkpt>
      <trkpt lat="38.79105" lon="0.04454">
        <ele>99.6</ele>
        <time>2021-01-31 12:42:24</time>
      </trkpt>
      <trkpt lat="38.79106" lon="0.04447">
        <ele>100.6</ele>
        <time>2021-01-31 12:42:25</time>
      </trkpt>
      <trkpt lat="38.79108" lon="0.0444">
        <ele>101.6</ele>
        <time>2021-01-31 12:42:26</time>
      </trkpt>
      <trkpt lat="38.79109" lon="0.04433">
        <ele>101.6</ele>
        <time>2021-01-31 12:42:27</time>
      </trkpt>
      <trkpt lat="38.79109" lon="0.04426">
        <ele>101.6</ele>
        <time>2021-01-31 12:42:28</time>
      </trkpt>
      <trkpt lat="38.79109" lon="0.04418">
        <ele>100.8</ele>
        <time>2021-01-31 12:42:29</time>
      </trkpt>
      <trkpt lat="38.7911" lon="0.04411">
        <ele>100.6</ele>
        <time>2021-01-31 12:42:30</time>
      </trkpt>
      <trkpt lat="38.7911" lon="0.04403">
        <ele>100.6</ele>
        <time>2021-01-31 12:42:31</time>
      </trkpt>
      <trkpt lat="38.7911" lon="0.04395">
        <ele>100.6</ele>
        <time>2021-01-31 12:42:32</time>
      </trkpt>
      <trkpt lat="38.7911" lon="0.04388">
        <ele>100.6</ele>
        <time>2021-01-31 12:42:33</time>
      </trkpt>
      <trkpt lat="38.7911" lon="0.04388">
        <ele>100.6</ele>
        <time>2021-01-31 12:42:34</time>
      </trkpt>
      <trkpt lat="38.7911" lon="0.04388">
        <ele>100.6</ele>
        <time>2021-01-31 12:42:35</time>
      </trkpt>
      <trkpt lat="38.7911" lon="0.04388">
        <ele>101.8</ele>
        <time>2021-01-31 12:42:36</time>
      </trkpt>
      <trkpt lat="38.79108" lon="0.04359">
        <ele>101.2</ele>
        <time>2021-01-31 12:42:37</time>
      </trkpt>
      <trkpt lat="38.79107" lon="0.04352">
        <ele>101</ele>
        <time>2021-01-31 12:42:38</time>
      </trkpt>
      <trkpt lat="38.79106" lon="0.04345">
        <ele>101</ele>
        <time>2021-01-31 12:42:39</time>
      </trkpt>
      <trkpt lat="38.79105" lon="0.04338">
        <ele>101</ele>
        <time>2021-01-31 12:42:40</time>
      </trkpt>
      <trkpt lat="38.79105" lon="0.04331">
        <ele>101</ele>
        <time>2021-01-31 12:42:41</time>
      </trkpt>
      <trkpt lat="38.79106" lon="0.04324">
        <ele>102.2</ele>
        <time>2021-01-31 12:42:42</time>
      </trkpt>
      <trkpt lat="38.79107" lon="0.04317">
        <ele>102.2</ele>
        <time>2021-01-31 12:42:43</time>
      </trkpt>
      <trkpt lat="38.79108" lon="0.04311">
        <ele>102.2</ele>
        <time>2021-01-31 12:42:44</time>
      </trkpt>
      <trkpt lat="38.7911" lon="0.04304">
        <ele>101.8</ele>
        <time>2021-01-31 12:42:45</time>
      </trkpt>
      <trkpt lat="38.79114" lon="0.04299">
        <ele>102.4</ele>
        <time>2021-01-31 12:42:46</time>
      </trkpt>
      <trkpt lat="38.79115" lon="0.04293">
        <ele>102.4</ele>
        <time>2021-01-31 12:42:47</time>
      </trkpt>
      <trkpt lat="38.79118" lon="0.04288">
        <ele>102.4</ele>
        <time>2021-01-31 12:42:48</time>
      </trkpt>
      <trkpt lat="38.7912" lon="0.04283">
        <ele>103.4</ele>
        <time>2021-01-31 12:42:49</time>
      </trkpt>
      <trkpt lat="38.79122" lon="0.04278">
        <ele>103.6</ele>
        <time>2021-01-31 12:42:50</time>
      </trkpt>
      <trkpt lat="38.79124" lon="0.04273">
        <ele>103.6</ele>
        <time>2021-01-31 12:42:51</time>
      </trkpt>
      <trkpt lat="38.79126" lon="0.04268">
        <ele>103.6</ele>
        <time>2021-01-31 12:42:52</time>
      </trkpt>
      <trkpt lat="38.79128" lon="0.04264">
        <ele>103.6</ele>
        <time>2021-01-31 12:42:53</time>
      </trkpt>
      <trkpt lat="38.79129" lon="0.04258">
        <ele>104.2</ele>
        <time>2021-01-31 12:42:54</time>
      </trkpt>
      <trkpt lat="38.7913" lon="0.04253">
        <ele>104.2</ele>
        <time>2021-01-31 12:42:55</time>
      </trkpt>
      <trkpt lat="38.79132" lon="0.04248">
        <ele>104.2</ele>
        <time>2021-01-31 12:42:56</time>
      </trkpt>
      <trkpt lat="38.79134" lon="0.04243">
        <ele>104.2</ele>
        <time>2021-01-31 12:42:57</time>
      </trkpt>
      <trkpt lat="38.79135" lon="0.04238">
        <ele>104.6</ele>
        <time>2021-01-31 12:42:58</time>
      </trkpt>
      <trkpt lat="38.79136" lon="0.04233">
        <ele>104.6</ele>
        <time>2021-01-31 12:42:59</time>
      </trkpt>
      <trkpt lat="38.79137" lon="0.04228">
        <ele>104.6</ele>
        <time>2021-01-31 12:43:00</time>
      </trkpt>
      <trkpt lat="38.79138" lon="0.04223">
        <ele>105</ele>
        <time>2021-01-31 12:43:01</time>
      </trkpt>
      <trkpt lat="38.7914" lon="0.04218">
        <ele>106.4</ele>
        <time>2021-01-31 12:43:02</time>
      </trkpt>
      <trkpt lat="38.7914" lon="0.04213">
        <ele>106.4</ele>
        <time>2021-01-31 12:43:03</time>
      </trkpt>
      <trkpt lat="38.79141" lon="0.04207">
        <ele>106.4</ele>
        <time>2021-01-31 12:43:04</time>
      </trkpt>
      <trkpt lat="38.79142" lon="0.04203">
        <ele>106.4</ele>
        <time>2021-01-31 12:43:05</time>
      </trkpt>
      <trkpt lat="38.79144" lon="0.04198">
        <ele>107</ele>
        <time>2021-01-31 12:43:06</time>
      </trkpt>
      <trkpt lat="38.79145" lon="0.04193">
        <ele>107</ele>
        <time>2021-01-31 12:43:07</time>
      </trkpt>
      <trkpt lat="38.79146" lon="0.04188">
        <ele>107</ele>
        <time>2021-01-31 12:43:08</time>
      </trkpt>
      <trkpt lat="38.79147" lon="0.04184">
        <ele>107</ele>
        <time>2021-01-31 12:43:09</time>
      </trkpt>
      <trkpt lat="38.79148" lon="0.04179">
        <ele>106.8</ele>
        <time>2021-01-31 12:43:10</time>
      </trkpt>
      <trkpt lat="38.79149" lon="0.04175">
        <ele>106.8</ele>
        <time>2021-01-31 12:43:11</time>
      </trkpt>
      <trkpt lat="38.7915" lon="0.04171">
        <ele>106.8</ele>
        <time>2021-01-31 12:43:12</time>
      </trkpt>
      <trkpt lat="38.79151" lon="0.04167">
        <ele>107.6</ele>
        <time>2021-01-31 12:43:13</time>
      </trkpt>
      <trkpt lat="38.79153" lon="0.04162">
        <ele>107.8</ele>
        <time>2021-01-31 12:43:14</time>
      </trkpt>
      <trkpt lat="38.79154" lon="0.04158">
        <ele>107.8</ele>
        <time>2021-01-31 12:43:15</time>
      </trkpt>
      <trkpt lat="38.79155" lon="0.04153">
        <ele>107.8</ele>
        <time>2021-01-31 12:43:16</time>
      </trkpt>
      <trkpt lat="38.79156" lon="0.04149">
        <ele>107.8</ele>
        <time>2021-01-31 12:43:17</time>
      </trkpt>
      <trkpt lat="38.79158" lon="0.04145">
        <ele>107.4</ele>
        <time>2021-01-31 12:43:18</time>
      </trkpt>
      <trkpt lat="38.79159" lon="0.04141">
        <ele>107.4</ele>
        <time>2021-01-31 12:43:19</time>
      </trkpt>
      <trkpt lat="38.7916" lon="0.04136">
        <ele>107.4</ele>
        <time>2021-01-31 12:43:20</time>
      </trkpt>
      <trkpt lat="38.7916" lon="0.04132">
        <ele>106.4</ele>
        <time>2021-01-31 12:43:21</time>
      </trkpt>
      <trkpt lat="38.79162" lon="0.04128">
        <ele>106.8</ele>
        <time>2021-01-31 12:43:22</time>
      </trkpt>
      <trkpt lat="38.79164" lon="0.04124">
        <ele>106.8</ele>
        <time>2021-01-31 12:43:23</time>
      </trkpt>
      <trkpt lat="38.79166" lon="0.0412">
        <ele>106.8</ele>
        <time>2021-01-31 12:43:24</time>
      </trkpt>
      <trkpt lat="38.79168" lon="0.04117">
        <ele>106.8</ele>
        <time>2021-01-31 12:43:25</time>
      </trkpt>
      <trkpt lat="38.79168" lon="0.04117">
        <ele>106.8</ele>
        <time>2021-01-31 12:43:26</time>
      </trkpt>
      <trkpt lat="38.79168" lon="0.04117">
        <ele>106.8</ele>
        <time>2021-01-31 12:43:27</time>
      </trkpt>
      <trkpt lat="38.79168" lon="0.04117">
        <ele>109.6</ele>
        <time>2021-01-31 12:43:28</time>
      </trkpt>
      <trkpt lat="38.79177" lon="0.04101">
        <ele>110.6</ele>
        <time>2021-01-31 12:43:29</time>
      </trkpt>
      <trkpt lat="38.79179" lon="0.04097">
        <ele>110.4</ele>
        <time>2021-01-31 12:43:30</time>
      </trkpt>
      <trkpt lat="38.79181" lon="0.04094">
        <ele>110.4</ele>
        <time>2021-01-31 12:43:31</time>
      </trkpt>
      <trkpt lat="38.79184" lon="0.0409">
        <ele>110.4</ele>
        <time>2021-01-31 12:43:32</time>
      </trkpt>
      <trkpt lat="38.79185" lon="0.04085">
        <ele>109.4</ele>
        <time>2021-01-31 12:43:33</time>
      </trkpt>
      <trkpt lat="38.79186" lon="0.04081">
        <ele>110</ele>
        <time>2021-01-31 12:43:34</time>
      </trkpt>
      <trkpt lat="38.79188" lon="0.04077">
        <ele>110</ele>
        <time>2021-01-31 12:43:35</time>
      </trkpt>
      <trkpt lat="38.79191" lon="0.04074">
        <ele>110</ele>
        <time>2021-01-31 12:43:36</time>
      </trkpt>
      <trkpt lat="38.79192" lon="0.04069">
        <ele>110.6</ele>
        <time>2021-01-31 12:43:37</time>
      </trkpt>
      <trkpt lat="38.79194" lon="0.04065">
        <ele>110</ele>
        <time>2021-01-31 12:43:38</time>
      </trkpt>
      <trkpt lat="38.79196" lon="0.04061">
        <ele>110</ele>
        <time>2021-01-31 12:43:39</time>
      </trkpt>
      <trkpt lat="38.79199" lon="0.04057">
        <ele>110</ele>
        <time>2021-01-31 12:43:40</time>
      </trkpt>
      <trkpt lat="38.79201" lon="0.04053">
        <ele>110.6</ele>
        <time>2021-01-31 12:43:41</time>
      </trkpt>
      <trkpt lat="38.79203" lon="0.04048">
        <ele>109.2</ele>
        <time>2021-01-31 12:43:42</time>
      </trkpt>
      <trkpt lat="38.79205" lon="0.04043">
        <ele>109.2</ele>
        <time>2021-01-31 12:43:43</time>
      </trkpt>
      <trkpt lat="38.79205" lon="0.04043">
        <ele>109.2</ele>
        <time>2021-01-31 12:43:44</time>
      </trkpt>
      <trkpt lat="38.7921" lon="0.04035">
        <ele>109.8</ele>
        <time>2021-01-31 12:43:45</time>
      </trkpt>
      <trkpt lat="38.79212" lon="0.0403">
        <ele>108.8</ele>
        <time>2021-01-31 12:43:46</time>
      </trkpt>
      <trkpt lat="38.79213" lon="0.04025">
        <ele>108.8</ele>
        <time>2021-01-31 12:43:47</time>
      </trkpt>
      <trkpt lat="38.79214" lon="0.04021">
        <ele>108.8</ele>
        <time>2021-01-31 12:43:48</time>
      </trkpt>
      <trkpt lat="38.79216" lon="0.04017">
        <ele>107.8</ele>
        <time>2021-01-31 12:43:49</time>
      </trkpt>
      <trkpt lat="38.79219" lon="0.04013">
        <ele>106.8</ele>
        <time>2021-01-31 12:43:50</time>
      </trkpt>
      <trkpt lat="38.79222" lon="0.04009">
        <ele>106.8</ele>
        <time>2021-01-31 12:43:51</time>
      </trkpt>
      <trkpt lat="38.79224" lon="0.04005">
        <ele>106.8</ele>
        <time>2021-01-31 12:43:52</time>
      </trkpt>
      <trkpt lat="38.79227" lon="0.04">
        <ele>106.8</ele>
        <time>2021-01-31 12:43:53</time>
      </trkpt>
      <trkpt lat="38.79228" lon="0.03995">
        <ele>107</ele>
        <time>2021-01-31 12:43:54</time>
      </trkpt>
      <trkpt lat="38.7923" lon="0.03991">
        <ele>107</ele>
        <time>2021-01-31 12:43:55</time>
      </trkpt>
      <trkpt lat="38.79232" lon="0.03986">
        <ele>107</ele>
        <time>2021-01-31 12:43:56</time>
      </trkpt>
      <trkpt lat="38.79233" lon="0.03981">
        <ele>108</ele>
        <time>2021-01-31 12:43:57</time>
      </trkpt>
      <trkpt lat="38.79235" lon="0.03975">
        <ele>108.2</ele>
        <time>2021-01-31 12:43:58</time>
      </trkpt>
      <trkpt lat="38.79236" lon="0.0397">
        <ele>108.2</ele>
        <time>2021-01-31 12:43:59</time>
      </trkpt>
      <trkpt lat="38.79238" lon="0.03965">
        <ele>108.2</ele>
        <time>2021-01-31 12:44:00</time>
      </trkpt>
      <trkpt lat="38.79241" lon="0.03961">
        <ele>108.2</ele>
        <time>2021-01-31 12:44:01</time>
      </trkpt>
      <trkpt lat="38.79245" lon="0.03957">
        <ele>108</ele>
        <time>2021-01-31 12:44:02</time>
      </trkpt>
      <trkpt lat="38.79247" lon="0.03952">
        <ele>108</ele>
        <time>2021-01-31 12:44:03</time>
      </trkpt>
      <trkpt lat="38.7925" lon="0.03946">
        <ele>108</ele>
        <time>2021-01-31 12:44:04</time>
      </trkpt>
      <trkpt lat="38.79252" lon="0.03941">
        <ele>108</ele>
        <time>2021-01-31 12:44:05</time>
      </trkpt>
      <trkpt lat="38.79259" lon="0.03936">
        <ele>108</ele>
        <time>2021-01-31 12:44:06</time>
      </trkpt>
      <trkpt lat="38.79263" lon="0.0393">
        <ele>108</ele>
        <time>2021-01-31 12:44:07</time>
      </trkpt>
      <trkpt lat="38.79263" lon="0.0393">
        <ele>108</ele>
        <time>2021-01-31 12:44:08</time>
      </trkpt>
      <trkpt lat="38.79263" lon="0.0393">
        <ele>108</ele>
        <time>2021-01-31 12:44:09</time>
      </trkpt>
      <trkpt lat="38.79263" lon="0.0393">
        <ele>107.2</ele>
        <time>2021-01-31 12:44:10</time>
      </trkpt>
      <trkpt lat="38.79274" lon="0.03904">
        <ele>107.2</ele>
        <time>2021-01-31 12:44:11</time>
      </trkpt>
      <trkpt lat="38.79278" lon="0.03898">
        <ele>107.2</ele>
        <time>2021-01-31 12:44:12</time>
      </trkpt>
      <trkpt lat="38.79283" lon="0.03891">
        <ele>106.2</ele>
        <time>2021-01-31 12:44:13</time>
      </trkpt>
      <trkpt lat="38.79289" lon="0.03885">
        <ele>105.2</ele>
        <time>2021-01-31 12:44:14</time>
      </trkpt>
      <trkpt lat="38.79293" lon="0.0388">
        <ele>105.2</ele>
        <time>2021-01-31 12:44:15</time>
      </trkpt>
      <trkpt lat="38.79298" lon="0.03874">
        <ele>105.2</ele>
        <time>2021-01-31 12:44:16</time>
      </trkpt>
      <trkpt lat="38.79303" lon="0.03868">
        <ele>105.2</ele>
        <time>2021-01-31 12:44:17</time>
      </trkpt>
      <trkpt lat="38.79306" lon="0.03862">
        <ele>107.2</ele>
        <time>2021-01-31 12:44:18</time>
      </trkpt>
      <trkpt lat="38.79312" lon="0.03856">
        <ele>107.2</ele>
        <time>2021-01-31 12:44:19</time>
      </trkpt>
      <trkpt lat="38.79317" lon="0.0385">
        <ele>107.2</ele>
        <time>2021-01-31 12:44:20</time>
      </trkpt>
      <trkpt lat="38.79322" lon="0.03845">
        <ele>107.2</ele>
        <time>2021-01-31 12:44:21</time>
      </trkpt>
      <trkpt lat="38.79327" lon="0.0384">
        <ele>107.2</ele>
        <time>2021-01-31 12:44:22</time>
      </trkpt>
      <trkpt lat="38.79327" lon="0.0384">
        <ele>107.2</ele>
        <time>2021-01-31 12:44:23</time>
      </trkpt>
      <trkpt lat="38.79327" lon="0.0384">
        <ele>107.2</ele>
        <time>2021-01-31 12:44:24</time>
      </trkpt>
      <trkpt lat="38.79327" lon="0.0384">
        <ele>104.8</ele>
        <time>2021-01-31 12:44:25</time>
      </trkpt>
      <trkpt lat="38.79346" lon="0.03817">
        <ele>104</ele>
        <time>2021-01-31 12:44:26</time>
      </trkpt>
      <trkpt lat="38.79352" lon="0.0381">
        <ele>104</ele>
        <time>2021-01-31 12:44:27</time>
      </trkpt>
      <trkpt lat="38.79357" lon="0.03804">
        <ele>104</ele>
        <time>2021-01-31 12:44:28</time>
      </trkpt>
      <trkpt lat="38.79363" lon="0.03798">
        <ele>104</ele>
        <time>2021-01-31 12:44:29</time>
      </trkpt>
      <trkpt lat="38.79371" lon="0.03792">
        <ele>102.8</ele>
        <time>2021-01-31 12:44:30</time>
      </trkpt>
      <trkpt lat="38.79376" lon="0.03787">
        <ele>102.8</ele>
        <time>2021-01-31 12:44:31</time>
      </trkpt>
      <trkpt lat="38.79381" lon="0.03781">
        <ele>102.8</ele>
        <time>2021-01-31 12:44:32</time>
      </trkpt>
      <trkpt lat="38.79386" lon="0.03775">
        <ele>102.8</ele>
        <time>2021-01-31 12:44:33</time>
      </trkpt>
      <trkpt lat="38.79391" lon="0.03769">
        <ele>102.8</ele>
        <time>2021-01-31 12:44:34</time>
      </trkpt>
      <trkpt lat="38.79397" lon="0.03764">
        <ele>102.8</ele>
        <time>2021-01-31 12:44:35</time>
      </trkpt>
      <trkpt lat="38.79402" lon="0.03757">
        <ele>102.8</ele>
        <time>2021-01-31 12:44:36</time>
      </trkpt>
      <trkpt lat="38.79407" lon="0.03751">
        <ele>102.2</ele>
        <time>2021-01-31 12:44:37</time>
      </trkpt>
      <trkpt lat="38.79412" lon="0.03746">
        <ele>103.4</ele>
        <time>2021-01-31 12:44:38</time>
      </trkpt>
      <trkpt lat="38.79418" lon="0.03739">
        <ele>103.4</ele>
        <time>2021-01-31 12:44:39</time>
      </trkpt>
      <trkpt lat="38.79425" lon="0.03734">
        <ele>103.4</ele>
        <time>2021-01-31 12:44:40</time>
      </trkpt>
      <trkpt lat="38.79431" lon="0.03729">
        <ele>102.8</ele>
        <time>2021-01-31 12:44:41</time>
      </trkpt>
      <trkpt lat="38.79438" lon="0.03723">
        <ele>102.8</ele>
        <time>2021-01-31 12:44:42</time>
      </trkpt>
      <trkpt lat="38.79446" lon="0.03718">
        <ele>102.8</ele>
        <time>2021-01-31 12:44:43</time>
      </trkpt>
      <trkpt lat="38.79453" lon="0.03713">
        <ele>102.8</ele>
        <time>2021-01-31 12:44:44</time>
      </trkpt>
      <trkpt lat="38.7946" lon="0.03709">
        <ele>102.8</ele>
        <time>2021-01-31 12:44:45</time>
      </trkpt>
      <trkpt lat="38.79465" lon="0.03703">
        <ele>101.6</ele>
        <time>2021-01-31 12:44:46</time>
      </trkpt>
      <trkpt lat="38.79469" lon="0.03696">
        <ele>101.6</ele>
        <time>2021-01-31 12:44:47</time>
      </trkpt>
      <trkpt lat="38.79472" lon="0.03688">
        <ele>101.6</ele>
        <time>2021-01-31 12:44:48</time>
      </trkpt>
      <trkpt lat="38.79476" lon="0.03682">
        <ele>102.6</ele>
        <time>2021-01-31 12:44:49</time>
      </trkpt>
      <trkpt lat="38.79481" lon="0.03674">
        <ele>102.6</ele>
        <time>2021-01-31 12:44:50</time>
      </trkpt>
      <trkpt lat="38.79481" lon="0.03674">
        <ele>102.6</ele>
        <time>2021-01-31 12:44:51</time>
      </trkpt>
      <trkpt lat="38.79481" lon="0.03674">
        <ele>102.6</ele>
        <time>2021-01-31 12:44:52</time>
      </trkpt>
      <trkpt lat="38.79481" lon="0.03674">
        <ele>102.6</ele>
        <time>2021-01-31 12:44:53</time>
      </trkpt>
      <trkpt lat="38.79498" lon="0.03643">
        <ele>103</ele>
        <time>2021-01-31 12:44:54</time>
      </trkpt>
      <trkpt lat="38.79503" lon="0.03636">
        <ele>103</ele>
        <time>2021-01-31 12:44:55</time>
      </trkpt>
      <trkpt lat="38.79509" lon="0.03629">
        <ele>103</ele>
        <time>2021-01-31 12:44:56</time>
      </trkpt>
      <trkpt lat="38.79513" lon="0.03622">
        <ele>103</ele>
        <time>2021-01-31 12:44:57</time>
      </trkpt>
      <trkpt lat="38.79516" lon="0.03615">
        <ele>102.2</ele>
        <time>2021-01-31 12:44:58</time>
      </trkpt>
      <trkpt lat="38.7952" lon="0.03608">
        <ele>102.2</ele>
        <time>2021-01-31 12:44:59</time>
      </trkpt>
      <trkpt lat="38.79522" lon="0.03601">
        <ele>102.2</ele>
        <time>2021-01-31 12:45:00</time>
      </trkpt>
      <trkpt lat="38.79527" lon="0.03594">
        <ele>102.2</ele>
        <time>2021-01-31 12:45:01</time>
      </trkpt>
      <trkpt lat="38.79531" lon="0.03588">
        <ele>102.8</ele>
        <time>2021-01-31 12:45:02</time>
      </trkpt>
      <trkpt lat="38.79535" lon="0.03582">
        <ele>102.8</ele>
        <time>2021-01-31 12:45:03</time>
      </trkpt>
      <trkpt lat="38.79538" lon="0.03576">
        <ele>102.8</ele>
        <time>2021-01-31 12:45:04</time>
      </trkpt>
      <trkpt lat="38.79541" lon="0.0357">
        <ele>102.8</ele>
        <time>2021-01-31 12:45:05</time>
      </trkpt>
      <trkpt lat="38.79541" lon="0.0357">
        <ele>102.8</ele>
        <time>2021-01-31 12:45:06</time>
      </trkpt>
      <trkpt lat="38.79541" lon="0.0357">
        <ele>102.8</ele>
        <time>2021-01-31 12:45:07</time>
      </trkpt>
      <trkpt lat="38.79541" lon="0.0357">
        <ele>102.8</ele>
        <time>2021-01-31 12:45:08</time>
      </trkpt>
      <trkpt lat="38.79555" lon="0.03551">
        <ele>103.8</ele>
        <time>2021-01-31 12:45:09</time>
      </trkpt>
      <trkpt lat="38.79559" lon="0.03547">
        <ele>105.2</ele>
        <time>2021-01-31 12:45:10</time>
      </trkpt>
      <trkpt lat="38.79563" lon="0.03541">
        <ele>105.2</ele>
        <time>2021-01-31 12:45:11</time>
      </trkpt>
      <trkpt lat="38.79565" lon="0.03534">
        <ele>105.2</ele>
        <time>2021-01-31 12:45:12</time>
      </trkpt>
      <trkpt lat="38.79567" lon="0.03527">
        <ele>104.2</ele>
        <time>2021-01-31 12:45:13</time>
      </trkpt>
      <trkpt lat="38.79569" lon="0.03521">
        <ele>102.6</ele>
        <time>2021-01-31 12:45:14</time>
      </trkpt>
      <trkpt lat="38.79571" lon="0.03514">
        <ele>102.6</ele>
        <time>2021-01-31 12:45:15</time>
      </trkpt>
      <trkpt lat="38.79572" lon="0.03507">
        <ele>102.6</ele>
        <time>2021-01-31 12:45:16</time>
      </trkpt>
      <trkpt lat="38.79574" lon="0.03501">
        <ele>102.6</ele>
        <time>2021-01-31 12:45:17</time>
      </trkpt>
      <trkpt lat="38.79576" lon="0.03495">
        <ele>101.8</ele>
        <time>2021-01-31 12:45:18</time>
      </trkpt>
      <trkpt lat="38.79579" lon="0.03489">
        <ele>101.8</ele>
        <time>2021-01-31 12:45:19</time>
      </trkpt>
      <trkpt lat="38.79582" lon="0.03483">
        <ele>101.8</ele>
        <time>2021-01-31 12:45:20</time>
      </trkpt>
      <trkpt lat="38.79585" lon="0.03477">
        <ele>100.8</ele>
        <time>2021-01-31 12:45:21</time>
      </trkpt>
      <trkpt lat="38.7959" lon="0.03471">
        <ele>100.8</ele>
        <time>2021-01-31 12:45:22</time>
      </trkpt>
      <trkpt lat="38.79593" lon="0.03465">
        <ele>100.8</ele>
        <time>2021-01-31 12:45:23</time>
      </trkpt>
      <trkpt lat="38.79595" lon="0.03458">
        <ele>100.8</ele>
        <time>2021-01-31 12:45:24</time>
      </trkpt>
      <trkpt lat="38.79598" lon="0.03451">
        <ele>100.8</ele>
        <time>2021-01-31 12:45:25</time>
      </trkpt>
      <trkpt lat="38.796" lon="0.03444">
        <ele>99.4</ele>
        <time>2021-01-31 12:45:26</time>
      </trkpt>
      <trkpt lat="38.79602" lon="0.03436">
        <ele>99.4</ele>
        <time>2021-01-31 12:45:27</time>
      </trkpt>
      <trkpt lat="38.79606" lon="0.03429">
        <ele>99.4</ele>
        <time>2021-01-31 12:45:28</time>
      </trkpt>
      <trkpt lat="38.7961" lon="0.03423">
        <ele>100.4</ele>
        <time>2021-01-31 12:45:29</time>
      </trkpt>
      <trkpt lat="38.79615" lon="0.03417">
        <ele>99.4</ele>
        <time>2021-01-31 12:45:30</time>
      </trkpt>
      <trkpt lat="38.79619" lon="0.0341">
        <ele>99.4</ele>
        <time>2021-01-31 12:45:31</time>
      </trkpt>
      <trkpt lat="38.79623" lon="0.03403">
        <ele>99.4</ele>
        <time>2021-01-31 12:45:32</time>
      </trkpt>
      <trkpt lat="38.79627" lon="0.03396">
        <ele>99.4</ele>
        <time>2021-01-31 12:45:33</time>
      </trkpt>
      <trkpt lat="38.79632" lon="0.03389">
        <ele>98.2</ele>
        <time>2021-01-31 12:45:34</time>
      </trkpt>
      <trkpt lat="38.79635" lon="0.0338">
        <ele>98.2</ele>
        <time>2021-01-31 12:45:35</time>
      </trkpt>
      <trkpt lat="38.79637" lon="0.03373">
        <ele>98.2</ele>
        <time>2021-01-31 12:45:36</time>
      </trkpt>
      <trkpt lat="38.79642" lon="0.03366">
        <ele>97.2</ele>
        <time>2021-01-31 12:45:37</time>
      </trkpt>
      <trkpt lat="38.79644" lon="0.03358">
        <ele>97</ele>
        <time>2021-01-31 12:45:38</time>
      </trkpt>
      <trkpt lat="38.79648" lon="0.0335">
        <ele>97</ele>
        <time>2021-01-31 12:45:39</time>
      </trkpt>
      <trkpt lat="38.79653" lon="0.03342">
        <ele>97</ele>
        <time>2021-01-31 12:45:40</time>
      </trkpt>
      <trkpt lat="38.79657" lon="0.03334">
        <ele>96</ele>
        <time>2021-01-31 12:45:41</time>
      </trkpt>
      <trkpt lat="38.79661" lon="0.03325">
        <ele>94.8</ele>
        <time>2021-01-31 12:45:42</time>
      </trkpt>
      <trkpt lat="38.79665" lon="0.03317">
        <ele>94.8</ele>
        <time>2021-01-31 12:45:43</time>
      </trkpt>
      <trkpt lat="38.7967" lon="0.03309">
        <ele>94.8</ele>
        <time>2021-01-31 12:45:44</time>
      </trkpt>
      <trkpt lat="38.79674" lon="0.03301">
        <ele>94.8</ele>
        <time>2021-01-31 12:45:45</time>
      </trkpt>
      <trkpt lat="38.79677" lon="0.03293">
        <ele>94.8</ele>
        <time>2021-01-31 12:45:46</time>
      </trkpt>
      <trkpt lat="38.79677" lon="0.03293">
        <ele>94.8</ele>
        <time>2021-01-31 12:45:47</time>
      </trkpt>
      <trkpt lat="38.79677" lon="0.03293">
        <ele>94.8</ele>
        <time>2021-01-31 12:45:48</time>
      </trkpt>
      <trkpt lat="38.79677" lon="0.03293">
        <ele>91.8</ele>
        <time>2021-01-31 12:45:49</time>
      </trkpt>
      <trkpt lat="38.79697" lon="0.03264">
        <ele>91.8</ele>
        <time>2021-01-31 12:45:50</time>
      </trkpt>
      <trkpt lat="38.79697" lon="0.03264">
        <ele>91.8</ele>
        <time>2021-01-31 12:45:51</time>
      </trkpt>
      <trkpt lat="38.79697" lon="0.03264">
        <ele>91.8</ele>
        <time>2021-01-31 12:45:52</time>
      </trkpt>
      <trkpt lat="38.79697" lon="0.03264">
        <ele>92.8</ele>
        <time>2021-01-31 12:45:53</time>
      </trkpt>
      <trkpt lat="38.79713" lon="0.03245">
        <ele>92.6</ele>
        <time>2021-01-31 12:45:54</time>
      </trkpt>
      <trkpt lat="38.79716" lon="0.0324">
        <ele>92.6</ele>
        <time>2021-01-31 12:45:55</time>
      </trkpt>
      <trkpt lat="38.79718" lon="0.03236">
        <ele>92.6</ele>
        <time>2021-01-31 12:45:56</time>
      </trkpt>
      <trkpt lat="38.79718" lon="0.0323">
        <ele>93.6</ele>
        <time>2021-01-31 12:45:57</time>
      </trkpt>
      <trkpt lat="38.79716" lon="0.03224">
        <ele>92</ele>
        <time>2021-01-31 12:45:58</time>
      </trkpt>
      <trkpt lat="38.79713" lon="0.03219">
        <ele>92</ele>
        <time>2021-01-31 12:45:59</time>
      </trkpt>
      <trkpt lat="38.79711" lon="0.03215">
        <ele>92</ele>
        <time>2021-01-31 12:46:00</time>
      </trkpt>
      <trkpt lat="38.79708" lon="0.0321">
        <ele>91</ele>
        <time>2021-01-31 12:46:01</time>
      </trkpt>
      <trkpt lat="38.79705" lon="0.03205">
        <ele>90.8</ele>
        <time>2021-01-31 12:46:02</time>
      </trkpt>
      <trkpt lat="38.79704" lon="0.03201">
        <ele>90.8</ele>
        <time>2021-01-31 12:46:03</time>
      </trkpt>
      <trkpt lat="38.79701" lon="0.03197">
        <ele>90.8</ele>
        <time>2021-01-31 12:46:04</time>
      </trkpt>
      <trkpt lat="38.79701" lon="0.03194">
        <ele>91.8</ele>
        <time>2021-01-31 12:46:05</time>
      </trkpt>
      <trkpt lat="38.79698" lon="0.0319">
        <ele>94.8</ele>
        <time>2021-01-31 12:46:06</time>
      </trkpt>
      <trkpt lat="38.79696" lon="0.03186">
        <ele>94.8</ele>
        <time>2021-01-31 12:46:07</time>
      </trkpt>
      <trkpt lat="38.79695" lon="0.03182">
        <ele>94.8</ele>
        <time>2021-01-31 12:46:08</time>
      </trkpt>
      <trkpt lat="38.7969" lon="0.03177">
        <ele>94.8</ele>
        <time>2021-01-31 12:46:09</time>
      </trkpt>
      <trkpt lat="38.7969" lon="0.03177">
        <ele>94.8</ele>
        <time>2021-01-31 12:46:10</time>
      </trkpt>
      <trkpt lat="38.7969" lon="0.03177">
        <ele>94.8</ele>
        <time>2021-01-31 12:46:11</time>
      </trkpt>
      <trkpt lat="38.7969" lon="0.03177">
        <ele>93</ele>
        <time>2021-01-31 12:46:12</time>
      </trkpt>
      <trkpt lat="38.79686" lon="0.03159">
        <ele>93</ele>
        <time>2021-01-31 12:46:13</time>
      </trkpt>
      <trkpt lat="38.79683" lon="0.03153">
        <ele>93.4</ele>
        <time>2021-01-31 12:46:14</time>
      </trkpt>
      <trkpt lat="38.79679" lon="0.03147">
        <ele>93.4</ele>
        <time>2021-01-31 12:46:15</time>
      </trkpt>
      <trkpt lat="38.79678" lon="0.03143">
        <ele>93.4</ele>
        <time>2021-01-31 12:46:16</time>
      </trkpt>
      <trkpt lat="38.79675" lon="0.03139">
        <ele>93.4</ele>
        <time>2021-01-31 12:46:17</time>
      </trkpt>
      <trkpt lat="38.79672" lon="0.03135">
        <ele>92.8</ele>
        <time>2021-01-31 12:46:18</time>
      </trkpt>
      <trkpt lat="38.7967" lon="0.03131">
        <ele>92.8</ele>
        <time>2021-01-31 12:46:19</time>
      </trkpt>
      <trkpt lat="38.79668" lon="0.03129">
        <ele>92.8</ele>
        <time>2021-01-31 12:46:20</time>
      </trkpt>
      <trkpt lat="38.79665" lon="0.03126">
        <ele>93.2</ele>
        <time>2021-01-31 12:46:21</time>
      </trkpt>
      <trkpt lat="38.79664" lon="0.03125">
        <ele>93.8</ele>
        <time>2021-01-31 12:46:22</time>
      </trkpt>
      <trkpt lat="38.79662" lon="0.03123">
        <ele>93.8</ele>
        <time>2021-01-31 12:46:23</time>
      </trkpt>
      <trkpt lat="38.79659" lon="0.03121">
        <ele>93.8</ele>
        <time>2021-01-31 12:46:24</time>
      </trkpt>
      <trkpt lat="38.79656" lon="0.03119">
        <ele>94.8</ele>
        <time>2021-01-31 12:46:25</time>
      </trkpt>
      <trkpt lat="38.79653" lon="0.03118">
        <ele>94.6</ele>
        <time>2021-01-31 12:46:26</time>
      </trkpt>
      <trkpt lat="38.7965" lon="0.03116">
        <ele>94.6</ele>
        <time>2021-01-31 12:46:27</time>
      </trkpt>
      <trkpt lat="38.79646" lon="0.03114">
        <ele>94.6</ele>
        <time>2021-01-31 12:46:28</time>
      </trkpt>
      <trkpt lat="38.79642" lon="0.03112">
        <ele>95</ele>
        <time>2021-01-31 12:46:29</time>
      </trkpt>
      <trkpt lat="38.79638" lon="0.0311">
        <ele>95.2</ele>
        <time>2021-01-31 12:46:30</time>
      </trkpt>
      <trkpt lat="38.79633" lon="0.03108">
        <ele>95.2</ele>
        <time>2021-01-31 12:46:31</time>
      </trkpt>
      <trkpt lat="38.79629" lon="0.03106">
        <ele>95.2</ele>
        <time>2021-01-31 12:46:32</time>
      </trkpt>
      <trkpt lat="38.79624" lon="0.03104">
        <ele>95.8</ele>
        <time>2021-01-31 12:46:33</time>
      </trkpt>
      <trkpt lat="38.79621" lon="0.03102">
        <ele>95.6</ele>
        <time>2021-01-31 12:46:34</time>
      </trkpt>
      <trkpt lat="38.79617" lon="0.03099">
        <ele>95.6</ele>
        <time>2021-01-31 12:46:35</time>
      </trkpt>
      <trkpt lat="38.79612" lon="0.03097">
        <ele>95.6</ele>
        <time>2021-01-31 12:46:36</time>
      </trkpt>
      <trkpt lat="38.79609" lon="0.03095">
        <ele>96.4</ele>
        <time>2021-01-31 12:46:37</time>
      </trkpt>
      <trkpt lat="38.79605" lon="0.03093">
        <ele>96.4</ele>
        <time>2021-01-31 12:46:38</time>
      </trkpt>
      <trkpt lat="38.79602" lon="0.03089">
        <ele>96.4</ele>
        <time>2021-01-31 12:46:39</time>
      </trkpt>
      <trkpt lat="38.79603" lon="0.03084">
        <ele>96.4</ele>
        <time>2021-01-31 12:46:40</time>
      </trkpt>
      <trkpt lat="38.79605" lon="0.03079">
        <ele>95.4</ele>
        <time>2021-01-31 12:46:41</time>
      </trkpt>
      <trkpt lat="38.79607" lon="0.03074">
        <ele>94.4</ele>
        <time>2021-01-31 12:46:42</time>
      </trkpt>
      <trkpt lat="38.79609" lon="0.03069">
        <ele>94.4</ele>
        <time>2021-01-31 12:46:43</time>
      </trkpt>
      <trkpt lat="38.79611" lon="0.03063">
        <ele>94.4</ele>
        <time>2021-01-31 12:46:44</time>
      </trkpt>
      <trkpt lat="38.79614" lon="0.03058">
        <ele>94</ele>
        <time>2021-01-31 12:46:45</time>
      </trkpt>
      <trkpt lat="38.79616" lon="0.03052">
        <ele>94.6</ele>
        <time>2021-01-31 12:46:46</time>
      </trkpt>
      <trkpt lat="38.79616" lon="0.03047">
        <ele>94.6</ele>
        <time>2021-01-31 12:46:47</time>
      </trkpt>
      <trkpt lat="38.79619" lon="0.03041">
        <ele>94.6</ele>
        <time>2021-01-31 12:46:48</time>
      </trkpt>
      <trkpt lat="38.79621" lon="0.03036">
        <ele>93.6</ele>
        <time>2021-01-31 12:46:49</time>
      </trkpt>
      <trkpt lat="38.79623" lon="0.0303">
        <ele>93.6</ele>
        <time>2021-01-31 12:46:50</time>
      </trkpt>
      <trkpt lat="38.79625" lon="0.03024">
        <ele>93.6</ele>
        <time>2021-01-31 12:46:51</time>
      </trkpt>
      <trkpt lat="38.79627" lon="0.03019">
        <ele>93.6</ele>
        <time>2021-01-31 12:46:52</time>
      </trkpt>
      <trkpt lat="38.79627" lon="0.03019">
        <ele>93.6</ele>
        <time>2021-01-31 12:46:53</time>
      </trkpt>
      <trkpt lat="38.79627" lon="0.03019">
        <ele>93.6</ele>
        <time>2021-01-31 12:46:54</time>
      </trkpt>
      <trkpt lat="38.79627" lon="0.03019">
        <ele>93.8</ele>
        <time>2021-01-31 12:46:55</time>
      </trkpt>
      <trkpt lat="38.79636" lon="0.02997">
        <ele>93.8</ele>
        <time>2021-01-31 12:46:56</time>
      </trkpt>
      <trkpt lat="38.79636" lon="0.02991">
        <ele>94.8</ele>
        <time>2021-01-31 12:46:57</time>
      </trkpt>
      <trkpt lat="38.79638" lon="0.02985">
        <ele>95.2</ele>
        <time>2021-01-31 12:46:58</time>
      </trkpt>
      <trkpt lat="38.79641" lon="0.02981">
        <ele>95.2</ele>
        <time>2021-01-31 12:46:59</time>
      </trkpt>
      <trkpt lat="38.79644" lon="0.02977">
        <ele>95.2</ele>
        <time>2021-01-31 12:47:00</time>
      </trkpt>
      <trkpt lat="38.79648" lon="0.02975">
        <ele>95.2</ele>
        <time>2021-01-31 12:47:01</time>
      </trkpt>
      <trkpt lat="38.79651" lon="0.02972">
        <ele>95.6</ele>
        <time>2021-01-31 12:47:02</time>
      </trkpt>
      <trkpt lat="38.79656" lon="0.0297">
        <ele>95.6</ele>
        <time>2021-01-31 12:47:03</time>
      </trkpt>
      <trkpt lat="38.7966" lon="0.02967">
        <ele>95.6</ele>
        <time>2021-01-31 12:47:04</time>
      </trkpt>
      <trkpt lat="38.79664" lon="0.02964">
        <ele>95.8</ele>
        <time>2021-01-31 12:47:05</time>
      </trkpt>
      <trkpt lat="38.79668" lon="0.02961">
        <ele>95.6</ele>
        <time>2021-01-31 12:47:06</time>
      </trkpt>
      <trkpt lat="38.79672" lon="0.02958">
        <ele>95.6</ele>
        <time>2021-01-31 12:47:07</time>
      </trkpt>
      <trkpt lat="38.79675" lon="0.02955">
        <ele>95.6</ele>
        <time>2021-01-31 12:47:08</time>
      </trkpt>
      <trkpt lat="38.79679" lon="0.02952">
        <ele>95.6</ele>
        <time>2021-01-31 12:47:09</time>
      </trkpt>
      <trkpt lat="38.79683" lon="0.02948">
        <ele>96.4</ele>
        <time>2021-01-31 12:47:10</time>
      </trkpt>
      <trkpt lat="38.79687" lon="0.02944">
        <ele>96.4</ele>
        <time>2021-01-31 12:47:11</time>
      </trkpt>
      <trkpt lat="38.79691" lon="0.0294">
        <ele>96.4</ele>
        <time>2021-01-31 12:47:12</time>
      </trkpt>
      <trkpt lat="38.79694" lon="0.02935">
        <ele>96.4</ele>
        <time>2021-01-31 12:47:13</time>
      </trkpt>
      <trkpt lat="38.79694" lon="0.02935">
        <ele>96.4</ele>
        <time>2021-01-31 12:47:14</time>
      </trkpt>
      <trkpt lat="38.79694" lon="0.02935">
        <ele>96.4</ele>
        <time>2021-01-31 12:47:15</time>
      </trkpt>
      <trkpt lat="38.79694" lon="0.02935">
        <ele>95.2</ele>
        <time>2021-01-31 12:47:16</time>
      </trkpt>
      <trkpt lat="38.79707" lon="0.02917">
        <ele>95.2</ele>
        <time>2021-01-31 12:47:17</time>
      </trkpt>
      <trkpt lat="38.79711" lon="0.02913">
        <ele>96.4</ele>
        <time>2021-01-31 12:47:18</time>
      </trkpt>
      <trkpt lat="38.79714" lon="0.02908">
        <ele>96.4</ele>
        <time>2021-01-31 12:47:19</time>
      </trkpt>
      <trkpt lat="38.79717" lon="0.02903">
        <ele>96.4</ele>
        <time>2021-01-31 12:47:20</time>
      </trkpt>
      <trkpt lat="38.7972" lon="0.02898">
        <ele>95.4</ele>
        <time>2021-01-31 12:47:21</time>
      </trkpt>
      <trkpt lat="38.79723" lon="0.02894">
        <ele>95</ele>
        <time>2021-01-31 12:47:22</time>
      </trkpt>
      <trkpt lat="38.79726" lon="0.02889">
        <ele>95</ele>
        <time>2021-01-31 12:47:23</time>
      </trkpt>
      <trkpt lat="38.79729" lon="0.02884">
        <ele>95</ele>
        <time>2021-01-31 12:47:24</time>
      </trkpt>
      <trkpt lat="38.79732" lon="0.02879">
        <ele>95</ele>
        <time>2021-01-31 12:47:25</time>
      </trkpt>
      <trkpt lat="38.79734" lon="0.02875">
        <ele>94.8</ele>
        <time>2021-01-31 12:47:26</time>
      </trkpt>
      <trkpt lat="38.79737" lon="0.0287">
        <ele>94.8</ele>
        <time>2021-01-31 12:47:27</time>
      </trkpt>
      <trkpt lat="38.79739" lon="0.02865">
        <ele>94.8</ele>
        <time>2021-01-31 12:47:28</time>
      </trkpt>
      <trkpt lat="38.79741" lon="0.0286">
        <ele>95.8</ele>
        <time>2021-01-31 12:47:29</time>
      </trkpt>
      <trkpt lat="38.79743" lon="0.02855">
        <ele>96.4</ele>
        <time>2021-01-31 12:47:30</time>
      </trkpt>
      <trkpt lat="38.79745" lon="0.0285">
        <ele>96.4</ele>
        <time>2021-01-31 12:47:31</time>
      </trkpt>
      <trkpt lat="38.79747" lon="0.02845">
        <ele>96.4</ele>
        <time>2021-01-31 12:47:32</time>
      </trkpt>
      <trkpt lat="38.79749" lon="0.0284">
        <ele>96.4</ele>
        <time>2021-01-31 12:47:33</time>
      </trkpt>
      <trkpt lat="38.79751" lon="0.02835">
        <ele>95.2</ele>
        <time>2021-01-31 12:47:34</time>
      </trkpt>
      <trkpt lat="38.79753" lon="0.0283">
        <ele>95.2</ele>
        <time>2021-01-31 12:47:35</time>
      </trkpt>
      <trkpt lat="38.79755" lon="0.02825">
        <ele>95.2</ele>
        <time>2021-01-31 12:47:36</time>
      </trkpt>
      <trkpt lat="38.79757" lon="0.0282">
        <ele>96.2</ele>
        <time>2021-01-31 12:47:37</time>
      </trkpt>
      <trkpt lat="38.79759" lon="0.02815">
        <ele>96.2</ele>
        <time>2021-01-31 12:47:38</time>
      </trkpt>
      <trkpt lat="38.79762" lon="0.02811">
        <ele>96.2</ele>
        <time>2021-01-31 12:47:39</time>
      </trkpt>
      <trkpt lat="38.79764" lon="0.02806">
        <ele>96.2</ele>
        <time>2021-01-31 12:47:40</time>
      </trkpt>
      <trkpt lat="38.79766" lon="0.02801">
        <ele>96.2</ele>
        <time>2021-01-31 12:47:41</time>
      </trkpt>
      <trkpt lat="38.79769" lon="0.02796">
        <ele>97</ele>
        <time>2021-01-31 12:47:42</time>
      </trkpt>
      <trkpt lat="38.79771" lon="0.02792">
        <ele>97</ele>
        <time>2021-01-31 12:47:43</time>
      </trkpt>
      <trkpt lat="38.79774" lon="0.02787">
        <ele>97</ele>
        <time>2021-01-31 12:47:44</time>
      </trkpt>
      <trkpt lat="38.79777" lon="0.02783">
        <ele>96.8</ele>
        <time>2021-01-31 12:47:45</time>
      </trkpt>
      <trkpt lat="38.79779" lon="0.02779">
        <ele>96.6</ele>
        <time>2021-01-31 12:47:46</time>
      </trkpt>
      <trkpt lat="38.79782" lon="0.02774">
        <ele>96.6</ele>
        <time>2021-01-31 12:47:47</time>
      </trkpt>
      <trkpt lat="38.79784" lon="0.0277">
        <ele>96.6</ele>
        <time>2021-01-31 12:47:48</time>
      </trkpt>
      <trkpt lat="38.79787" lon="0.02765">
        <ele>96.8</ele>
        <time>2021-01-31 12:47:49</time>
      </trkpt>
      <trkpt lat="38.7979" lon="0.02761">
        <ele>97.4</ele>
        <time>2021-01-31 12:47:50</time>
      </trkpt>
      <trkpt lat="38.79792" lon="0.02756">
        <ele>97.4</ele>
        <time>2021-01-31 12:47:51</time>
      </trkpt>
      <trkpt lat="38.79794" lon="0.02751">
        <ele>97.4</ele>
        <time>2021-01-31 12:47:52</time>
      </trkpt>
      <trkpt lat="38.79797" lon="0.02746">
        <ele>97.4</ele>
        <time>2021-01-31 12:47:53</time>
      </trkpt>
      <trkpt lat="38.79797" lon="0.02746">
        <ele>97.4</ele>
        <time>2021-01-31 12:47:54</time>
      </trkpt>
      <trkpt lat="38.79797" lon="0.02746">
        <ele>97.4</ele>
        <time>2021-01-31 12:47:55</time>
      </trkpt>
      <trkpt lat="38.79797" lon="0.02746">
        <ele>95.6</ele>
        <time>2021-01-31 12:47:56</time>
      </trkpt>
      <trkpt lat="38.79806" lon="0.02726">
        <ele>96.6</ele>
        <time>2021-01-31 12:47:57</time>
      </trkpt>
      <trkpt lat="38.79808" lon="0.02722">
        <ele>97.2</ele>
        <time>2021-01-31 12:47:58</time>
      </trkpt>
      <trkpt lat="38.7981" lon="0.02717">
        <ele>97.2</ele>
        <time>2021-01-31 12:47:59</time>
      </trkpt>
      <trkpt lat="38.79812" lon="0.02712">
        <ele>97.2</ele>
        <time>2021-01-31 12:48:00</time>
      </trkpt>
      <trkpt lat="38.79815" lon="0.02707">
        <ele>96.6</ele>
        <time>2021-01-31 12:48:01</time>
      </trkpt>
      <trkpt lat="38.79817" lon="0.02702">
        <ele>95.6</ele>
        <time>2021-01-31 12:48:02</time>
      </trkpt>
      <trkpt lat="38.79819" lon="0.02698">
        <ele>95.6</ele>
        <time>2021-01-31 12:48:03</time>
      </trkpt>
      <trkpt lat="38.79821" lon="0.02693">
        <ele>95.6</ele>
        <time>2021-01-31 12:48:04</time>
      </trkpt>
      <trkpt lat="38.79823" lon="0.02688">
        <ele>96.4</ele>
        <time>2021-01-31 12:48:05</time>
      </trkpt>
      <trkpt lat="38.79825" lon="0.02683">
        <ele>97.4</ele>
        <time>2021-01-31 12:48:06</time>
      </trkpt>
      <trkpt lat="38.79825" lon="0.02683">
        <ele>97.4</ele>
        <time>2021-01-31 12:48:07</time>
      </trkpt>
      <trkpt lat="38.79829" lon="0.02673">
        <ele>97.4</ele>
        <time>2021-01-31 12:48:08</time>
      </trkpt>
      <trkpt lat="38.79831" lon="0.02668">
        <ele>97.4</ele>
        <time>2021-01-31 12:48:09</time>
      </trkpt>
      <trkpt lat="38.79834" lon="0.02663">
        <ele>97.2</ele>
        <time>2021-01-31 12:48:10</time>
      </trkpt>
      <trkpt lat="38.79836" lon="0.02659">
        <ele>97.2</ele>
        <time>2021-01-31 12:48:11</time>
      </trkpt>
      <trkpt lat="38.79837" lon="0.02653">
        <ele>97.2</ele>
        <time>2021-01-31 12:48:12</time>
      </trkpt>
      <trkpt lat="38.79839" lon="0.02648">
        <ele>97.2</ele>
        <time>2021-01-31 12:48:13</time>
      </trkpt>
      <trkpt lat="38.79841" lon="0.02643">
        <ele>97.2</ele>
        <time>2021-01-31 12:48:14</time>
      </trkpt>
      <trkpt lat="38.79843" lon="0.02638">
        <ele>97.2</ele>
        <time>2021-01-31 12:48:15</time>
      </trkpt>
      <trkpt lat="38.79846" lon="0.02632">
        <ele>97.2</ele>
        <time>2021-01-31 12:48:16</time>
      </trkpt>
      <trkpt lat="38.79848" lon="0.02627">
        <ele>97.2</ele>
        <time>2021-01-31 12:48:17</time>
      </trkpt>
      <trkpt lat="38.7985" lon="0.02621">
        <ele>96.2</ele>
        <time>2021-01-31 12:48:18</time>
      </trkpt>
      <trkpt lat="38.79852" lon="0.02615">
        <ele>96.2</ele>
        <time>2021-01-31 12:48:19</time>
      </trkpt>
      <trkpt lat="38.79855" lon="0.02609">
        <ele>96.2</ele>
        <time>2021-01-31 12:48:20</time>
      </trkpt>
      <trkpt lat="38.79857" lon="0.02603">
        <ele>96.2</ele>
        <time>2021-01-31 12:48:21</time>
      </trkpt>
      <trkpt lat="38.7986" lon="0.02598">
        <ele>97.4</ele>
        <time>2021-01-31 12:48:22</time>
      </trkpt>
      <trkpt lat="38.79863" lon="0.02592">
        <ele>97.4</ele>
        <time>2021-01-31 12:48:23</time>
      </trkpt>
      <trkpt lat="38.79867" lon="0.02587">
        <ele>97.4</ele>
        <time>2021-01-31 12:48:24</time>
      </trkpt>
      <trkpt lat="38.79872" lon="0.02583">
        <ele>97.4</ele>
        <time>2021-01-31 12:48:25</time>
      </trkpt>
      <trkpt lat="38.79877" lon="0.0258">
        <ele>96.6</ele>
        <time>2021-01-31 12:48:26</time>
      </trkpt>
      <trkpt lat="38.79882" lon="0.02578">
        <ele>96.6</ele>
        <time>2021-01-31 12:48:27</time>
      </trkpt>
      <trkpt lat="38.79887" lon="0.02576">
        <ele>96.6</ele>
        <time>2021-01-31 12:48:28</time>
      </trkpt>
      <trkpt lat="38.79892" lon="0.02573">
        <ele>96.6</ele>
        <time>2021-01-31 12:48:29</time>
      </trkpt>
      <trkpt lat="38.79898" lon="0.02571">
        <ele>96.2</ele>
        <time>2021-01-31 12:48:30</time>
      </trkpt>
      <trkpt lat="38.79904" lon="0.02569">
        <ele>96.2</ele>
        <time>2021-01-31 12:48:31</time>
      </trkpt>
      <trkpt lat="38.7991" lon="0.02567">
        <ele>96.2</ele>
        <time>2021-01-31 12:48:32</time>
      </trkpt>
      <trkpt lat="38.7991" lon="0.02567">
        <ele>96.2</ele>
        <time>2021-01-31 12:48:33</time>
      </trkpt>
      <trkpt lat="38.7991" lon="0.02567">
        <ele>96.2</ele>
        <time>2021-01-31 12:48:34</time>
      </trkpt>
      <trkpt lat="38.7991" lon="0.02567">
        <ele>94.4</ele>
        <time>2021-01-31 12:48:35</time>
      </trkpt>
      <trkpt lat="38.79935" lon="0.02556">
        <ele>94.4</ele>
        <time>2021-01-31 12:48:36</time>
      </trkpt>
      <trkpt lat="38.79941" lon="0.02552">
        <ele>94.6</ele>
        <time>2021-01-31 12:48:37</time>
      </trkpt>
      <trkpt lat="38.79946" lon="0.02549">
        <ele>95</ele>
        <time>2021-01-31 12:48:38</time>
      </trkpt>
      <trkpt lat="38.79952" lon="0.02545">
        <ele>95</ele>
        <time>2021-01-31 12:48:39</time>
      </trkpt>
      <trkpt lat="38.79958" lon="0.02541">
        <ele>95</ele>
        <time>2021-01-31 12:48:40</time>
      </trkpt>
      <trkpt lat="38.79963" lon="0.02537">
        <ele>94.2</ele>
        <time>2021-01-31 12:48:41</time>
      </trkpt>
      <trkpt lat="38.79968" lon="0.02532">
        <ele>94.4</ele>
        <time>2021-01-31 12:48:42</time>
      </trkpt>
      <trkpt lat="38.79973" lon="0.02526">
        <ele>94.4</ele>
        <time>2021-01-31 12:48:43</time>
      </trkpt>
      <trkpt lat="38.79978" lon="0.02521">
        <ele>94.4</ele>
        <time>2021-01-31 12:48:44</time>
      </trkpt>
      <trkpt lat="38.79982" lon="0.02514">
        <ele>93.4</ele>
        <time>2021-01-31 12:48:45</time>
      </trkpt>
      <trkpt lat="38.79986" lon="0.02508">
        <ele>92.6</ele>
        <time>2021-01-31 12:48:46</time>
      </trkpt>
      <trkpt lat="38.7999" lon="0.02501">
        <ele>92.6</ele>
        <time>2021-01-31 12:48:47</time>
      </trkpt>
      <trkpt lat="38.79993" lon="0.02494">
        <ele>92.6</ele>
        <time>2021-01-31 12:48:48</time>
      </trkpt>
      <trkpt lat="38.79997" lon="0.02487">
        <ele>92.6</ele>
        <time>2021-01-31 12:48:49</time>
      </trkpt>
      <trkpt lat="38.8" lon="0.02481">
        <ele>91.2</ele>
        <time>2021-01-31 12:48:50</time>
      </trkpt>
      <trkpt lat="38.80003" lon="0.02475">
        <ele>91.2</ele>
        <time>2021-01-31 12:48:51</time>
      </trkpt>
      <trkpt lat="38.80007" lon="0.02469">
        <ele>91.2</ele>
        <time>2021-01-31 12:48:52</time>
      </trkpt>
      <trkpt lat="38.80007" lon="0.02469">
        <ele>91.2</ele>
        <time>2021-01-31 12:48:53</time>
      </trkpt>
      <trkpt lat="38.80007" lon="0.02469">
        <ele>91.2</ele>
        <time>2021-01-31 12:48:54</time>
      </trkpt>
      <trkpt lat="38.80007" lon="0.02469">
        <ele>92.4</ele>
        <time>2021-01-31 12:48:55</time>
      </trkpt>
      <trkpt lat="38.80021" lon="0.02442">
        <ele>92.4</ele>
        <time>2021-01-31 12:48:56</time>
      </trkpt>
      <trkpt lat="38.80025" lon="0.02435">
        <ele>93.4</ele>
        <time>2021-01-31 12:48:57</time>
      </trkpt>
      <trkpt lat="38.80029" lon="0.02429">
        <ele>92.2</ele>
        <time>2021-01-31 12:48:58</time>
      </trkpt>
      <trkpt lat="38.80034" lon="0.02423">
        <ele>92.2</ele>
        <time>2021-01-31 12:48:59</time>
      </trkpt>
      <trkpt lat="38.80039" lon="0.02417">
        <ele>92.2</ele>
        <time>2021-01-31 12:49:00</time>
      </trkpt>
      <trkpt lat="38.80044" lon="0.02411">
        <ele>92.2</ele>
        <time>2021-01-31 12:49:01</time>
      </trkpt>
      <trkpt lat="38.80048" lon="0.02404">
        <ele>94</ele>
        <time>2021-01-31 12:49:02</time>
      </trkpt>
      <trkpt lat="38.80052" lon="0.02397">
        <ele>94</ele>
        <time>2021-01-31 12:49:03</time>
      </trkpt>
      <trkpt lat="38.80056" lon="0.0239">
        <ele>94</ele>
        <time>2021-01-31 12:49:04</time>
      </trkpt>
      <trkpt lat="38.8006" lon="0.02383">
        <ele>93</ele>
        <time>2021-01-31 12:49:05</time>
      </trkpt>
      <trkpt lat="38.80063" lon="0.02375">
        <ele>92</ele>
        <time>2021-01-31 12:49:06</time>
      </trkpt>
      <trkpt lat="38.80067" lon="0.02367">
        <ele>92</ele>
        <time>2021-01-31 12:49:07</time>
      </trkpt>
      <trkpt lat="38.8007" lon="0.0236">
        <ele>92</ele>
        <time>2021-01-31 12:49:08</time>
      </trkpt>
      <trkpt lat="38.80073" lon="0.02352">
        <ele>92</ele>
        <time>2021-01-31 12:49:09</time>
      </trkpt>
      <trkpt lat="38.80076" lon="0.02343">
        <ele>91.2</ele>
        <time>2021-01-31 12:49:10</time>
      </trkpt>
      <trkpt lat="38.80079" lon="0.02336">
        <ele>91.2</ele>
        <time>2021-01-31 12:49:11</time>
      </trkpt>
      <trkpt lat="38.80083" lon="0.02328">
        <ele>91.2</ele>
        <time>2021-01-31 12:49:12</time>
      </trkpt>
      <trkpt lat="38.80086" lon="0.02321">
        <ele>91.2</ele>
        <time>2021-01-31 12:49:13</time>
      </trkpt>
      <trkpt lat="38.80089" lon="0.02314">
        <ele>92</ele>
        <time>2021-01-31 12:49:14</time>
      </trkpt>
      <trkpt lat="38.80092" lon="0.02306">
        <ele>92</ele>
        <time>2021-01-31 12:49:15</time>
      </trkpt>
      <trkpt lat="38.80095" lon="0.02299">
        <ele>92</ele>
        <time>2021-01-31 12:49:16</time>
      </trkpt>
      <trkpt lat="38.80098" lon="0.02292">
        <ele>92</ele>
        <time>2021-01-31 12:49:17</time>
      </trkpt>
      <trkpt lat="38.80101" lon="0.02284">
        <ele>91.8</ele>
        <time>2021-01-31 12:49:18</time>
      </trkpt>
      <trkpt lat="38.80104" lon="0.02277">
        <ele>91.8</ele>
        <time>2021-01-31 12:49:19</time>
      </trkpt>
      <trkpt lat="38.80107" lon="0.0227">
        <ele>91.8</ele>
        <time>2021-01-31 12:49:20</time>
      </trkpt>
      <trkpt lat="38.80109" lon="0.02262">
        <ele>91.8</ele>
        <time>2021-01-31 12:49:21</time>
      </trkpt>
      <trkpt lat="38.80112" lon="0.02255">
        <ele>91.6</ele>
        <time>2021-01-31 12:49:22</time>
      </trkpt>
      <trkpt lat="38.80115" lon="0.02248">
        <ele>91.6</ele>
        <time>2021-01-31 12:49:23</time>
      </trkpt>
      <trkpt lat="38.80118" lon="0.0224">
        <ele>91.6</ele>
        <time>2021-01-31 12:49:24</time>
      </trkpt>
      <trkpt lat="38.80121" lon="0.02233">
        <ele>91.6</ele>
        <time>2021-01-31 12:49:25</time>
      </trkpt>
      <trkpt lat="38.80121" lon="0.02233">
        <ele>91.6</ele>
        <time>2021-01-31 12:49:26</time>
      </trkpt>
      <trkpt lat="38.80121" lon="0.02233">
        <ele>91.6</ele>
        <time>2021-01-31 12:49:27</time>
      </trkpt>
      <trkpt lat="38.80121" lon="0.02233">
        <ele>90.8</ele>
        <time>2021-01-31 12:49:28</time>
      </trkpt>
      <trkpt lat="38.8013" lon="0.02203">
        <ele>89.8</ele>
        <time>2021-01-31 12:49:29</time>
      </trkpt>
      <trkpt lat="38.80132" lon="0.02196">
        <ele>89.8</ele>
        <time>2021-01-31 12:49:30</time>
      </trkpt>
      <trkpt lat="38.80132" lon="0.02196">
        <ele>89.8</ele>
        <time>2021-01-31 12:49:31</time>
      </trkpt>
      <trkpt lat="38.80132" lon="0.02196">
        <ele>89.8</ele>
        <time>2021-01-31 12:49:32</time>
      </trkpt>
      <trkpt lat="38.80132" lon="0.02196">
        <ele>89.4</ele>
        <time>2021-01-31 12:49:33</time>
      </trkpt>
      <trkpt lat="38.8014" lon="0.02165">
        <ele>88.4</ele>
        <time>2021-01-31 12:49:34</time>
      </trkpt>
      <trkpt lat="38.80142" lon="0.02157">
        <ele>88.4</ele>
        <time>2021-01-31 12:49:35</time>
      </trkpt>
      <trkpt lat="38.80144" lon="0.02149">
        <ele>88.4</ele>
        <time>2021-01-31 12:49:36</time>
      </trkpt>
      <trkpt lat="38.80146" lon="0.02141">
        <ele>88.4</ele>
        <time>2021-01-31 12:49:37</time>
      </trkpt>
      <trkpt lat="38.80148" lon="0.02133">
        <ele>88.4</ele>
        <time>2021-01-31 12:49:38</time>
      </trkpt>
      <trkpt lat="38.80149" lon="0.02125">
        <ele>88.4</ele>
        <time>2021-01-31 12:49:39</time>
      </trkpt>
      <trkpt lat="38.80151" lon="0.02117">
        <ele>88.4</ele>
        <time>2021-01-31 12:49:40</time>
      </trkpt>
      <trkpt lat="38.80153" lon="0.02109">
        <ele>88.4</ele>
        <time>2021-01-31 12:49:41</time>
      </trkpt>
      <trkpt lat="38.80153" lon="0.02109">
        <ele>88.4</ele>
        <time>2021-01-31 12:49:42</time>
      </trkpt>
      <trkpt lat="38.80159" lon="0.02093">
        <ele>87.6</ele>
        <time>2021-01-31 12:49:43</time>
      </trkpt>
      <trkpt lat="38.80159" lon="0.02093">
        <ele>87.6</ele>
        <time>2021-01-31 12:49:44</time>
      </trkpt>
      <trkpt lat="38.80165" lon="0.02078">
        <ele>87.6</ele>
        <time>2021-01-31 12:49:45</time>
      </trkpt>
      <trkpt lat="38.80168" lon="0.02069">
        <ele>86.6</ele>
        <time>2021-01-31 12:49:46</time>
      </trkpt>
      <trkpt lat="38.80171" lon="0.02061">
        <ele>85.8</ele>
        <time>2021-01-31 12:49:47</time>
      </trkpt>
      <trkpt lat="38.80174" lon="0.02053">
        <ele>85.8</ele>
        <time>2021-01-31 12:49:48</time>
      </trkpt>
      <trkpt lat="38.80178" lon="0.02045">
        <ele>85.8</ele>
        <time>2021-01-31 12:49:49</time>
      </trkpt>
      <trkpt lat="38.80181" lon="0.02037">
        <ele>86.8</ele>
        <time>2021-01-31 12:49:50</time>
      </trkpt>
      <trkpt lat="38.80184" lon="0.02029">
        <ele>86.2</ele>
        <time>2021-01-31 12:49:51</time>
      </trkpt>
      <trkpt lat="38.80187" lon="0.02021">
        <ele>86.2</ele>
        <time>2021-01-31 12:49:52</time>
      </trkpt>
      <trkpt lat="38.8019" lon="0.02014">
        <ele>86.2</ele>
        <time>2021-01-31 12:49:53</time>
      </trkpt>
      <trkpt lat="38.80194" lon="0.02006">
        <ele>87.2</ele>
        <time>2021-01-31 12:49:54</time>
      </trkpt>
      <trkpt lat="38.80197" lon="0.01998">
        <ele>86.6</ele>
        <time>2021-01-31 12:49:55</time>
      </trkpt>
      <trkpt lat="38.802" lon="0.01991">
        <ele>86.6</ele>
        <time>2021-01-31 12:49:56</time>
      </trkpt>
      <trkpt lat="38.80203" lon="0.01983">
        <ele>86.6</ele>
        <time>2021-01-31 12:49:57</time>
      </trkpt>
      <trkpt lat="38.80206" lon="0.01975">
        <ele>87</ele>
        <time>2021-01-31 12:49:58</time>
      </trkpt>
      <trkpt lat="38.80206" lon="0.01975">
        <ele>87.4</ele>
        <time>2021-01-31 12:49:59</time>
      </trkpt>
      <trkpt lat="38.80213" lon="0.0196">
        <ele>87.4</ele>
        <time>2021-01-31 12:50:00</time>
      </trkpt>
      <trkpt lat="38.80216" lon="0.01953">
        <ele>87.4</ele>
        <time>2021-01-31 12:50:01</time>
      </trkpt>
      <trkpt lat="38.80219" lon="0.01945">
        <ele>86.8</ele>
        <time>2021-01-31 12:50:02</time>
      </trkpt>
      <trkpt lat="38.80222" lon="0.01938">
        <ele>86.6</ele>
        <time>2021-01-31 12:50:03</time>
      </trkpt>
      <trkpt lat="38.80225" lon="0.01932">
        <ele>86.6</ele>
        <time>2021-01-31 12:50:04</time>
      </trkpt>
      <trkpt lat="38.80227" lon="0.01926">
        <ele>86.6</ele>
        <time>2021-01-31 12:50:05</time>
      </trkpt>
      <trkpt lat="38.8023" lon="0.0192">
        <ele>86.6</ele>
        <time>2021-01-31 12:50:06</time>
      </trkpt>
      <trkpt lat="38.80233" lon="0.01914">
        <ele>86.6</ele>
        <time>2021-01-31 12:50:07</time>
      </trkpt>
      <trkpt lat="38.80233" lon="0.01914">
        <ele>86.6</ele>
        <time>2021-01-31 12:50:08</time>
      </trkpt>
      <trkpt lat="38.80233" lon="0.01914">
        <ele>86.6</ele>
        <time>2021-01-31 12:50:09</time>
      </trkpt>
      <trkpt lat="38.80233" lon="0.01914">
        <ele>86.6</ele>
        <time>2021-01-31 12:50:10</time>
      </trkpt>
      <trkpt lat="38.80244" lon="0.01888">
        <ele>86.4</ele>
        <time>2021-01-31 12:50:11</time>
      </trkpt>
      <trkpt lat="38.80248" lon="0.01881">
        <ele>86.4</ele>
        <time>2021-01-31 12:50:12</time>
      </trkpt>
      <trkpt lat="38.80251" lon="0.01875">
        <ele>86.4</ele>
        <time>2021-01-31 12:50:13</time>
      </trkpt>
      <trkpt lat="38.80254" lon="0.01868">
        <ele>85.4</ele>
        <time>2021-01-31 12:50:14</time>
      </trkpt>
      <trkpt lat="38.80257" lon="0.01861">
        <ele>84.4</ele>
        <time>2021-01-31 12:50:15</time>
      </trkpt>
      <trkpt lat="38.80261" lon="0.01855">
        <ele>84.4</ele>
        <time>2021-01-31 12:50:16</time>
      </trkpt>
      <trkpt lat="38.80264" lon="0.01848">
        <ele>84.4</ele>
        <time>2021-01-31 12:50:17</time>
      </trkpt>
      <trkpt lat="38.80267" lon="0.01841">
        <ele>85.2</ele>
        <time>2021-01-31 12:50:18</time>
      </trkpt>
      <trkpt lat="38.8027" lon="0.01835">
        <ele>84.8</ele>
        <time>2021-01-31 12:50:19</time>
      </trkpt>
      <trkpt lat="38.80273" lon="0.01828">
        <ele>84.8</ele>
        <time>2021-01-31 12:50:20</time>
      </trkpt>
      <trkpt lat="38.80276" lon="0.01821">
        <ele>84.8</ele>
        <time>2021-01-31 12:50:21</time>
      </trkpt>
      <trkpt lat="38.8028" lon="0.01815">
        <ele>84.4</ele>
        <time>2021-01-31 12:50:22</time>
      </trkpt>
      <trkpt lat="38.80283" lon="0.01808">
        <ele>85</ele>
        <time>2021-01-31 12:50:23</time>
      </trkpt>
      <trkpt lat="38.80286" lon="0.01802">
        <ele>85</ele>
        <time>2021-01-31 12:50:24</time>
      </trkpt>
      <trkpt lat="38.80289" lon="0.01795">
        <ele>85</ele>
        <time>2021-01-31 12:50:25</time>
      </trkpt>
      <trkpt lat="38.80292" lon="0.01788">
        <ele>84.6</ele>
        <time>2021-01-31 12:50:26</time>
      </trkpt>
      <trkpt lat="38.80295" lon="0.01782">
        <ele>84.6</ele>
        <time>2021-01-31 12:50:27</time>
      </trkpt>
      <trkpt lat="38.80298" lon="0.01775">
        <ele>84.6</ele>
        <time>2021-01-31 12:50:28</time>
      </trkpt>
      <trkpt lat="38.80301" lon="0.01769">
        <ele>84.6</ele>
        <time>2021-01-31 12:50:29</time>
      </trkpt>
      <trkpt lat="38.80304" lon="0.01763">
        <ele>84.6</ele>
        <time>2021-01-31 12:50:30</time>
      </trkpt>
      <trkpt lat="38.80306" lon="0.01756">
        <ele>82.8</ele>
        <time>2021-01-31 12:50:31</time>
      </trkpt>
      <trkpt lat="38.80308" lon="0.01749">
        <ele>82.8</ele>
        <time>2021-01-31 12:50:32</time>
      </trkpt>
      <trkpt lat="38.8031" lon="0.01743">
        <ele>82.8</ele>
        <time>2021-01-31 12:50:33</time>
      </trkpt>
      <trkpt lat="38.80311" lon="0.01735">
        <ele>82.8</ele>
        <time>2021-01-31 12:50:34</time>
      </trkpt>
      <trkpt lat="38.80312" lon="0.01728">
        <ele>84.2</ele>
        <time>2021-01-31 12:50:35</time>
      </trkpt>
      <trkpt lat="38.80314" lon="0.01721">
        <ele>84.2</ele>
        <time>2021-01-31 12:50:36</time>
      </trkpt>
      <trkpt lat="38.80317" lon="0.01715">
        <ele>84.2</ele>
        <time>2021-01-31 12:50:37</time>
      </trkpt>
      <trkpt lat="38.8032" lon="0.01708">
        <ele>84.2</ele>
        <time>2021-01-31 12:50:38</time>
      </trkpt>
      <trkpt lat="38.80323" lon="0.01702">
        <ele>84.8</ele>
        <time>2021-01-31 12:50:39</time>
      </trkpt>
      <trkpt lat="38.80328" lon="0.01696">
        <ele>84.8</ele>
        <time>2021-01-31 12:50:40</time>
      </trkpt>
      <trkpt lat="38.80333" lon="0.01691">
        <ele>84.8</ele>
        <time>2021-01-31 12:50:41</time>
      </trkpt>
      <trkpt lat="38.80338" lon="0.01687">
        <ele>84.8</ele>
        <time>2021-01-31 12:50:42</time>
      </trkpt>
      <trkpt lat="38.80338" lon="0.01687">
        <ele>84.8</ele>
        <time>2021-01-31 12:50:43</time>
      </trkpt>
      <trkpt lat="38.80338" lon="0.01687">
        <ele>84.8</ele>
        <time>2021-01-31 12:50:44</time>
      </trkpt>
      <trkpt lat="38.80338" lon="0.01687">
        <ele>82.4</ele>
        <time>2021-01-31 12:50:45</time>
      </trkpt>
      <trkpt lat="38.80361" lon="0.01671">
        <ele>82.4</ele>
        <time>2021-01-31 12:50:46</time>
      </trkpt>
      <trkpt lat="38.80368" lon="0.01668">
        <ele>81.4</ele>
        <time>2021-01-31 12:50:47</time>
      </trkpt>
      <trkpt lat="38.80374" lon="0.01666">
        <ele>81.4</ele>
        <time>2021-01-31 12:50:48</time>
      </trkpt>
      <trkpt lat="38.80381" lon="0.01664">
        <ele>81.4</ele>
        <time>2021-01-31 12:50:49</time>
      </trkpt>
      <trkpt lat="38.80388" lon="0.01662">
        <ele>81.4</ele>
        <time>2021-01-31 12:50:50</time>
      </trkpt>
      <trkpt lat="38.80394" lon="0.0166">
        <ele>82.2</ele>
        <time>2021-01-31 12:50:51</time>
      </trkpt>
      <trkpt lat="38.80401" lon="0.01657">
        <ele>82.2</ele>
        <time>2021-01-31 12:50:52</time>
      </trkpt>
      <trkpt lat="38.80407" lon="0.01653">
        <ele>82.2</ele>
        <time>2021-01-31 12:50:53</time>
      </trkpt>
      <trkpt lat="38.80413" lon="0.01648">
        <ele>82.2</ele>
        <time>2021-01-31 12:50:54</time>
      </trkpt>
      <trkpt lat="38.80419" lon="0.01643">
        <ele>82.2</ele>
        <time>2021-01-31 12:50:55</time>
      </trkpt>
      <trkpt lat="38.80419" lon="0.01643">
        <ele>82.2</ele>
        <time>2021-01-31 12:50:56</time>
      </trkpt>
      <trkpt lat="38.80419" lon="0.01643">
        <ele>82.2</ele>
        <time>2021-01-31 12:50:57</time>
      </trkpt>
      <trkpt lat="38.80419" lon="0.01643">
        <ele>79.2</ele>
        <time>2021-01-31 12:50:58</time>
      </trkpt>
      <trkpt lat="38.80437" lon="0.01617">
        <ele>77.6</ele>
        <time>2021-01-31 12:50:59</time>
      </trkpt>
      <trkpt lat="38.80441" lon="0.0161">
        <ele>77.6</ele>
        <time>2021-01-31 12:51:00</time>
      </trkpt>
      <trkpt lat="38.80445" lon="0.01604">
        <ele>77.6</ele>
        <time>2021-01-31 12:51:01</time>
      </trkpt>
      <trkpt lat="38.8045" lon="0.01597">
        <ele>78.6</ele>
        <time>2021-01-31 12:51:02</time>
      </trkpt>
      <trkpt lat="38.80455" lon="0.01592">
        <ele>79.2</ele>
        <time>2021-01-31 12:51:03</time>
      </trkpt>
      <trkpt lat="38.8046" lon="0.01586">
        <ele>79.2</ele>
        <time>2021-01-31 12:51:04</time>
      </trkpt>
      <trkpt lat="38.80465" lon="0.01581">
        <ele>79.2</ele>
        <time>2021-01-31 12:51:05</time>
      </trkpt>
      <trkpt lat="38.8047" lon="0.01575">
        <ele>79.2</ele>
        <time>2021-01-31 12:51:06</time>
      </trkpt>
      <trkpt lat="38.80476" lon="0.0157">
        <ele>80</ele>
        <time>2021-01-31 12:51:07</time>
      </trkpt>
      <trkpt lat="38.80481" lon="0.01564">
        <ele>80</ele>
        <time>2021-01-31 12:51:08</time>
      </trkpt>
      <trkpt lat="38.80487" lon="0.01558">
        <ele>80</ele>
        <time>2021-01-31 12:51:09</time>
      </trkpt>
      <trkpt lat="38.80492" lon="0.01553">
        <ele>80</ele>
        <time>2021-01-31 12:51:10</time>
      </trkpt>
      <trkpt lat="38.80498" lon="0.01547">
        <ele>78.4</ele>
        <time>2021-01-31 12:51:11</time>
      </trkpt>
      <trkpt lat="38.80503" lon="0.01541">
        <ele>78.4</ele>
        <time>2021-01-31 12:51:12</time>
      </trkpt>
      <trkpt lat="38.80508" lon="0.01536">
        <ele>78.4</ele>
        <time>2021-01-31 12:51:13</time>
      </trkpt>
      <trkpt lat="38.80514" lon="0.0153">
        <ele>78.4</ele>
        <time>2021-01-31 12:51:14</time>
      </trkpt>
      <trkpt lat="38.80519" lon="0.01525">
        <ele>76.8</ele>
        <time>2021-01-31 12:51:15</time>
      </trkpt>
      <trkpt lat="38.80524" lon="0.0152">
        <ele>76.8</ele>
        <time>2021-01-31 12:51:16</time>
      </trkpt>
      <trkpt lat="38.8053" lon="0.01514">
        <ele>76.8</ele>
        <time>2021-01-31 12:51:17</time>
      </trkpt>
      <trkpt lat="38.80535" lon="0.01509">
        <ele>77.8</ele>
        <time>2021-01-31 12:51:18</time>
      </trkpt>
      <trkpt lat="38.80541" lon="0.01503">
        <ele>79.2</ele>
        <time>2021-01-31 12:51:19</time>
      </trkpt>
      <trkpt lat="38.80547" lon="0.01497">
        <ele>79.2</ele>
        <time>2021-01-31 12:51:20</time>
      </trkpt>
      <trkpt lat="38.80552" lon="0.01492">
        <ele>79.2</ele>
        <time>2021-01-31 12:51:21</time>
      </trkpt>
      <trkpt lat="38.80552" lon="0.01492">
        <ele>79.2</ele>
        <time>2021-01-31 12:51:22</time>
      </trkpt>
      <trkpt lat="38.80552" lon="0.01492">
        <ele>79.2</ele>
        <time>2021-01-31 12:51:23</time>
      </trkpt>
      <trkpt lat="38.80552" lon="0.01492">
        <ele>78.2</ele>
        <time>2021-01-31 12:51:24</time>
      </trkpt>
      <trkpt lat="38.80576" lon="0.01469">
        <ele>78.2</ele>
        <time>2021-01-31 12:51:25</time>
      </trkpt>
      <trkpt lat="38.80582" lon="0.01464">
        <ele>78.8</ele>
        <time>2021-01-31 12:51:26</time>
      </trkpt>
      <trkpt lat="38.80588" lon="0.01459">
        <ele>78.2</ele>
        <time>2021-01-31 12:51:27</time>
      </trkpt>
      <trkpt lat="38.80594" lon="0.01453">
        <ele>78.2</ele>
        <time>2021-01-31 12:51:28</time>
      </trkpt>
      <trkpt lat="38.806" lon="0.01447">
        <ele>78.2</ele>
        <time>2021-01-31 12:51:29</time>
      </trkpt>
      <trkpt lat="38.80606" lon="0.01442">
        <ele>77.2</ele>
        <time>2021-01-31 12:51:30</time>
      </trkpt>
      <trkpt lat="38.80612" lon="0.01436">
        <ele>76.4</ele>
        <time>2021-01-31 12:51:31</time>
      </trkpt>
      <trkpt lat="38.80616" lon="0.01428">
        <ele>76.4</ele>
        <time>2021-01-31 12:51:32</time>
      </trkpt>
      <trkpt lat="38.80621" lon="0.01421">
        <ele>76.4</ele>
        <time>2021-01-31 12:51:33</time>
      </trkpt>
      <trkpt lat="38.80624" lon="0.01413">
        <ele>77</ele>
        <time>2021-01-31 12:51:34</time>
      </trkpt>
      <trkpt lat="38.80627" lon="0.01404">
        <ele>76.4</ele>
        <time>2021-01-31 12:51:35</time>
      </trkpt>
      <trkpt lat="38.8063" lon="0.01395">
        <ele>76.4</ele>
        <time>2021-01-31 12:51:36</time>
      </trkpt>
      <trkpt lat="38.80633" lon="0.01386">
        <ele>76.4</ele>
        <time>2021-01-31 12:51:37</time>
      </trkpt>
      <trkpt lat="38.80635" lon="0.01378">
        <ele>75.4</ele>
        <time>2021-01-31 12:51:38</time>
      </trkpt>
      <trkpt lat="38.80638" lon="0.01369">
        <ele>75.4</ele>
        <time>2021-01-31 12:51:39</time>
      </trkpt>
      <trkpt lat="38.80638" lon="0.01369">
        <ele>75.4</ele>
        <time>2021-01-31 12:51:40</time>
      </trkpt>
      <trkpt lat="38.80638" lon="0.01369">
        <ele>75.4</ele>
        <time>2021-01-31 12:51:41</time>
      </trkpt>
      <trkpt lat="38.80638" lon="0.01369">
        <ele>74.2</ele>
        <time>2021-01-31 12:51:42</time>
      </trkpt>
      <trkpt lat="38.80656" lon="0.01337">
        <ele>74.6</ele>
        <time>2021-01-31 12:51:43</time>
      </trkpt>
      <trkpt lat="38.80661" lon="0.01331">
        <ele>74.6</ele>
        <time>2021-01-31 12:51:44</time>
      </trkpt>
      <trkpt lat="38.80666" lon="0.01324">
        <ele>74.6</ele>
        <time>2021-01-31 12:51:45</time>
      </trkpt>
      <trkpt lat="38.80672" lon="0.01318">
        <ele>74.6</ele>
        <time>2021-01-31 12:51:46</time>
      </trkpt>
      <trkpt lat="38.80677" lon="0.01311">
        <ele>74</ele>
        <time>2021-01-31 12:51:47</time>
      </trkpt>
      <trkpt lat="38.80683" lon="0.01304">
        <ele>74</ele>
        <time>2021-01-31 12:51:48</time>
      </trkpt>
      <trkpt lat="38.80688" lon="0.01297">
        <ele>74</ele>
        <time>2021-01-31 12:51:49</time>
      </trkpt>
      <trkpt lat="38.80693" lon="0.01291">
        <ele>73</ele>
        <time>2021-01-31 12:51:50</time>
      </trkpt>
      <trkpt lat="38.80698" lon="0.01285">
        <ele>72.2</ele>
        <time>2021-01-31 12:51:51</time>
      </trkpt>
      <trkpt lat="38.80703" lon="0.01279">
        <ele>72.2</ele>
        <time>2021-01-31 12:51:52</time>
      </trkpt>
      <trkpt lat="38.80708" lon="0.01273">
        <ele>72.2</ele>
        <time>2021-01-31 12:51:53</time>
      </trkpt>
      <trkpt lat="38.80713" lon="0.01267">
        <ele>72.2</ele>
        <time>2021-01-31 12:51:54</time>
      </trkpt>
      <trkpt lat="38.80718" lon="0.0126">
        <ele>74.6</ele>
        <time>2021-01-31 12:51:55</time>
      </trkpt>
      <trkpt lat="38.80723" lon="0.01254">
        <ele>74.6</ele>
        <time>2021-01-31 12:51:56</time>
      </trkpt>
      <trkpt lat="38.80728" lon="0.01248">
        <ele>74.6</ele>
        <time>2021-01-31 12:51:57</time>
      </trkpt>
      <trkpt lat="38.80733" lon="0.01242">
        <ele>73.8</ele>
        <time>2021-01-31 12:51:58</time>
      </trkpt>
      <trkpt lat="38.80738" lon="0.01236">
        <ele>71.2</ele>
        <time>2021-01-31 12:51:59</time>
      </trkpt>
      <trkpt lat="38.80743" lon="0.01229">
        <ele>71.2</ele>
        <time>2021-01-31 12:52:00</time>
      </trkpt>
      <trkpt lat="38.80748" lon="0.01223">
        <ele>71.2</ele>
        <time>2021-01-31 12:52:01</time>
      </trkpt>
      <trkpt lat="38.80753" lon="0.01217">
        <ele>71.6</ele>
        <time>2021-01-31 12:52:02</time>
      </trkpt>
      <trkpt lat="38.80758" lon="0.01211">
        <ele>71.8</ele>
        <time>2021-01-31 12:52:03</time>
      </trkpt>
      <trkpt lat="38.80763" lon="0.01204">
        <ele>71.8</ele>
        <time>2021-01-31 12:52:04</time>
      </trkpt>
      <trkpt lat="38.80763" lon="0.01204">
        <ele>71.8</ele>
        <time>2021-01-31 12:52:05</time>
      </trkpt>
      <trkpt lat="38.80763" lon="0.01204">
        <ele>71.8</ele>
        <time>2021-01-31 12:52:06</time>
      </trkpt>
      <trkpt lat="38.80763" lon="0.01204">
        <ele>72.6</ele>
        <time>2021-01-31 12:52:07</time>
      </trkpt>
      <trkpt lat="38.80785" lon="0.0118">
        <ele>72.6</ele>
        <time>2021-01-31 12:52:08</time>
      </trkpt>
      <trkpt lat="38.80791" lon="0.01175">
        <ele>72.6</ele>
        <time>2021-01-31 12:52:09</time>
      </trkpt>
      <trkpt lat="38.80797" lon="0.01169">
        <ele>72.6</ele>
        <time>2021-01-31 12:52:10</time>
      </trkpt>
      <trkpt lat="38.80803" lon="0.01164">
        <ele>70.4</ele>
        <time>2021-01-31 12:52:11</time>
      </trkpt>
      <trkpt lat="38.80809" lon="0.01158">
        <ele>70.4</ele>
        <time>2021-01-31 12:52:12</time>
      </trkpt>
      <trkpt lat="38.80815" lon="0.01152">
        <ele>70.4</ele>
        <time>2021-01-31 12:52:13</time>
      </trkpt>
      <trkpt lat="38.80821" lon="0.01146">
        <ele>71.4</ele>
        <time>2021-01-31 12:52:14</time>
      </trkpt>
      <trkpt lat="38.80827" lon="0.0114">
        <ele>71.4</ele>
        <time>2021-01-31 12:52:15</time>
      </trkpt>
      <trkpt lat="38.80832" lon="0.01134">
        <ele>71.4</ele>
        <time>2021-01-31 12:52:16</time>
      </trkpt>
      <trkpt lat="38.80838" lon="0.01127">
        <ele>71.4</ele>
        <time>2021-01-31 12:52:17</time>
      </trkpt>
      <trkpt lat="38.80843" lon="0.0112">
        <ele>71.2</ele>
        <time>2021-01-31 12:52:18</time>
      </trkpt>
      <trkpt lat="38.80848" lon="0.01112">
        <ele>70.8</ele>
        <time>2021-01-31 12:52:19</time>
      </trkpt>
      <trkpt lat="38.80853" lon="0.01105">
        <ele>70.8</ele>
        <time>2021-01-31 12:52:20</time>
      </trkpt>
      <trkpt lat="38.80858" lon="0.01097">
        <ele>70.8</ele>
        <time>2021-01-31 12:52:21</time>
      </trkpt>
      <trkpt lat="38.80858" lon="0.01097">
        <ele>70.8</ele>
        <time>2021-01-31 12:52:22</time>
      </trkpt>
      <trkpt lat="38.80858" lon="0.01097">
        <ele>70.8</ele>
        <time>2021-01-31 12:52:23</time>
      </trkpt>
      <trkpt lat="38.80858" lon="0.01097">
        <ele>70</ele>
        <time>2021-01-31 12:52:24</time>
      </trkpt>
      <trkpt lat="38.80878" lon="0.01069">
        <ele>70</ele>
        <time>2021-01-31 12:52:25</time>
      </trkpt>
      <trkpt lat="38.80884" lon="0.01062">
        <ele>69</ele>
        <time>2021-01-31 12:52:26</time>
      </trkpt>
      <trkpt lat="38.80884" lon="0.01062">
        <ele>68.8</ele>
        <time>2021-01-31 12:52:27</time>
      </trkpt>
      <trkpt lat="38.80894" lon="0.01049">
        <ele>68.8</ele>
        <time>2021-01-31 12:52:28</time>
      </trkpt>
      <trkpt lat="38.809" lon="0.01043">
        <ele>68.8</ele>
        <time>2021-01-31 12:52:29</time>
      </trkpt>
      <trkpt lat="38.80905" lon="0.01037">
        <ele>68.8</ele>
        <time>2021-01-31 12:52:30</time>
      </trkpt>
      <trkpt lat="38.80911" lon="0.01032">
        <ele>67.2</ele>
        <time>2021-01-31 12:52:31</time>
      </trkpt>
      <trkpt lat="38.80911" lon="0.01032">
        <ele>67.2</ele>
        <time>2021-01-31 12:52:32</time>
      </trkpt>
      <trkpt lat="38.80921" lon="0.0102">
        <ele>67.2</ele>
        <time>2021-01-31 12:52:33</time>
      </trkpt>
      <trkpt lat="38.80926" lon="0.01014">
        <ele>68.2</ele>
        <time>2021-01-31 12:52:34</time>
      </trkpt>
      <trkpt lat="38.80931" lon="0.01009">
        <ele>72.6</ele>
        <time>2021-01-31 12:52:35</time>
      </trkpt>
      <trkpt lat="38.80937" lon="0.01003">
        <ele>72.6</ele>
        <time>2021-01-31 12:52:36</time>
      </trkpt>
      <trkpt lat="38.80942" lon="0.00997">
        <ele>72.6</ele>
        <time>2021-01-31 12:52:37</time>
      </trkpt>
      <trkpt lat="38.80947" lon="0.00992">
        <ele>71.6</ele>
        <time>2021-01-31 12:52:38</time>
      </trkpt>
      <trkpt lat="38.80952" lon="0.00986">
        <ele>68.4</ele>
        <time>2021-01-31 12:52:39</time>
      </trkpt>
      <trkpt lat="38.80957" lon="0.0098">
        <ele>68.4</ele>
        <time>2021-01-31 12:52:40</time>
      </trkpt>
      <trkpt lat="38.80962" lon="0.00975">
        <ele>68.4</ele>
        <time>2021-01-31 12:52:41</time>
      </trkpt>
      <trkpt lat="38.80967" lon="0.0097">
        <ele>68.4</ele>
        <time>2021-01-31 12:52:42</time>
      </trkpt>
      <trkpt lat="38.80972" lon="0.00964">
        <ele>69.8</ele>
        <time>2021-01-31 12:52:43</time>
      </trkpt>
      <trkpt lat="38.80976" lon="0.00959">
        <ele>69.8</ele>
        <time>2021-01-31 12:52:44</time>
      </trkpt>
      <trkpt lat="38.80976" lon="0.00959">
        <ele>69.8</ele>
        <time>2021-01-31 12:52:45</time>
      </trkpt>
      <trkpt lat="38.80976" lon="0.00959">
        <ele>69.8</ele>
        <time>2021-01-31 12:52:46</time>
      </trkpt>
      <trkpt lat="38.80976" lon="0.00959">
        <ele>69.4</ele>
        <time>2021-01-31 12:52:47</time>
      </trkpt>
      <trkpt lat="38.80992" lon="0.00934">
        <ele>69.4</ele>
        <time>2021-01-31 12:52:48</time>
      </trkpt>
      <trkpt lat="38.80995" lon="0.00927">
        <ele>69.4</ele>
        <time>2021-01-31 12:52:49</time>
      </trkpt>
      <trkpt lat="38.80997" lon="0.0092">
        <ele>68.4</ele>
        <time>2021-01-31 12:52:50</time>
      </trkpt>
      <trkpt lat="38.80999" lon="0.00913">
        <ele>66.8</ele>
        <time>2021-01-31 12:52:51</time>
      </trkpt>
      <trkpt lat="38.81002" lon="0.00906">
        <ele>66.8</ele>
        <time>2021-01-31 12:52:52</time>
      </trkpt>
      <trkpt lat="38.81003" lon="0.009">
        <ele>66.8</ele>
        <time>2021-01-31 12:52:53</time>
      </trkpt>
      <trkpt lat="38.81005" lon="0.00893">
        <ele>67.8</ele>
        <time>2021-01-31 12:52:54</time>
      </trkpt>
      <trkpt lat="38.81007" lon="0.00886">
        <ele>68.6</ele>
        <time>2021-01-31 12:52:55</time>
      </trkpt>
      <trkpt lat="38.81009" lon="0.0088">
        <ele>68.6</ele>
        <time>2021-01-31 12:52:56</time>
      </trkpt>
      <trkpt lat="38.81011" lon="0.00874">
        <ele>68.6</ele>
        <time>2021-01-31 12:52:57</time>
      </trkpt>
      <trkpt lat="38.81014" lon="0.00868">
        <ele>68.8</ele>
        <time>2021-01-31 12:52:58</time>
      </trkpt>
      <trkpt lat="38.81017" lon="0.00863">
        <ele>70.6</ele>
        <time>2021-01-31 12:52:59</time>
      </trkpt>
      <trkpt lat="38.81019" lon="0.00857">
        <ele>70.6</ele>
        <time>2021-01-31 12:53:00</time>
      </trkpt>
      <trkpt lat="38.81022" lon="0.00853">
        <ele>70.6</ele>
        <time>2021-01-31 12:53:01</time>
      </trkpt>
      <trkpt lat="38.81025" lon="0.00848">
        <ele>69.6</ele>
        <time>2021-01-31 12:53:02</time>
      </trkpt>
      <trkpt lat="38.81028" lon="0.00843">
        <ele>71.2</ele>
        <time>2021-01-31 12:53:03</time>
      </trkpt>
      <trkpt lat="38.81031" lon="0.00838">
        <ele>71.2</ele>
        <time>2021-01-31 12:53:04</time>
      </trkpt>
      <trkpt lat="38.81035" lon="0.00834">
        <ele>71.2</ele>
        <time>2021-01-31 12:53:05</time>
      </trkpt>
      <trkpt lat="38.81038" lon="0.00829">
        <ele>70.4</ele>
        <time>2021-01-31 12:53:06</time>
      </trkpt>
      <trkpt lat="38.81042" lon="0.00825">
        <ele>70.6</ele>
        <time>2021-01-31 12:53:07</time>
      </trkpt>
      <trkpt lat="38.81045" lon="0.00821">
        <ele>70.6</ele>
        <time>2021-01-31 12:53:08</time>
      </trkpt>
      <trkpt lat="38.81045" lon="0.00821">
        <ele>70.6</ele>
        <time>2021-01-31 12:53:09</time>
      </trkpt>
      <trkpt lat="38.81045" lon="0.00821">
        <ele>70.6</ele>
        <time>2021-01-31 12:53:10</time>
      </trkpt>
      <trkpt lat="38.81045" lon="0.00821">
        <ele>71.6</ele>
        <time>2021-01-31 12:53:11</time>
      </trkpt>
      <trkpt lat="38.8106" lon="0.00804">
        <ele>71.6</ele>
        <time>2021-01-31 12:53:12</time>
      </trkpt>
      <trkpt lat="38.81064" lon="0.008">
        <ele>71.6</ele>
        <time>2021-01-31 12:53:13</time>
      </trkpt>
      <trkpt lat="38.81068" lon="0.00796">
        <ele>71</ele>
        <time>2021-01-31 12:53:14</time>
      </trkpt>
      <trkpt lat="38.81072" lon="0.00791">
        <ele>71</ele>
        <time>2021-01-31 12:53:15</time>
      </trkpt>
      <trkpt lat="38.81076" lon="0.00786">
        <ele>71</ele>
        <time>2021-01-31 12:53:16</time>
      </trkpt>
      <trkpt lat="38.81081" lon="0.00782">
        <ele>71</ele>
        <time>2021-01-31 12:53:17</time>
      </trkpt>
      <trkpt lat="38.81085" lon="0.00777">
        <ele>71</ele>
        <time>2021-01-31 12:53:18</time>
      </trkpt>
      <trkpt lat="38.81089" lon="0.00772">
        <ele>72.2</ele>
        <time>2021-01-31 12:53:19</time>
      </trkpt>
      <trkpt lat="38.81094" lon="0.00767">
        <ele>72.2</ele>
        <time>2021-01-31 12:53:20</time>
      </trkpt>
      <trkpt lat="38.81098" lon="0.00763">
        <ele>72.2</ele>
        <time>2021-01-31 12:53:21</time>
      </trkpt>
      <trkpt lat="38.81102" lon="0.00758">
        <ele>71.6</ele>
        <time>2021-01-31 12:53:22</time>
      </trkpt>
      <trkpt lat="38.81106" lon="0.00753">
        <ele>72</ele>
        <time>2021-01-31 12:53:23</time>
      </trkpt>
      <trkpt lat="38.81111" lon="0.00748">
        <ele>72</ele>
        <time>2021-01-31 12:53:24</time>
      </trkpt>
      <trkpt lat="38.81115" lon="0.00744">
        <ele>72</ele>
        <time>2021-01-31 12:53:25</time>
      </trkpt>
      <trkpt lat="38.81119" lon="0.00739">
        <ele>72</ele>
        <time>2021-01-31 12:53:26</time>
      </trkpt>
      <trkpt lat="38.81124" lon="0.00734">
        <ele>71.6</ele>
        <time>2021-01-31 12:53:27</time>
      </trkpt>
      <trkpt lat="38.81128" lon="0.00729">
        <ele>71.6</ele>
        <time>2021-01-31 12:53:28</time>
      </trkpt>
      <trkpt lat="38.81132" lon="0.00724">
        <ele>71.6</ele>
        <time>2021-01-31 12:53:29</time>
      </trkpt>
      <trkpt lat="38.81136" lon="0.0072">
        <ele>72.6</ele>
        <time>2021-01-31 12:53:30</time>
      </trkpt>
      <trkpt lat="38.81141" lon="0.00715">
        <ele>71.6</ele>
        <time>2021-01-31 12:53:31</time>
      </trkpt>
      <trkpt lat="38.81145" lon="0.0071">
        <ele>71.6</ele>
        <time>2021-01-31 12:53:32</time>
      </trkpt>
      <trkpt lat="38.81149" lon="0.00706">
        <ele>71.6</ele>
        <time>2021-01-31 12:53:33</time>
      </trkpt>
      <trkpt lat="38.81153" lon="0.00701">
        <ele>70.6</ele>
        <time>2021-01-31 12:53:34</time>
      </trkpt>
      <trkpt lat="38.81157" lon="0.00697">
        <ele>70.8</ele>
        <time>2021-01-31 12:53:35</time>
      </trkpt>
      <trkpt lat="38.81161" lon="0.00692">
        <ele>70.8</ele>
        <time>2021-01-31 12:53:36</time>
      </trkpt>
      <trkpt lat="38.81165" lon="0.00688">
        <ele>70.8</ele>
        <time>2021-01-31 12:53:37</time>
      </trkpt>
      <trkpt lat="38.81169" lon="0.00683">
        <ele>70.8</ele>
        <time>2021-01-31 12:53:38</time>
      </trkpt>
      <trkpt lat="38.81173" lon="0.00678">
        <ele>70.8</ele>
        <time>2021-01-31 12:53:39</time>
      </trkpt>
      <trkpt lat="38.81177" lon="0.00674">
        <ele>70.8</ele>
        <time>2021-01-31 12:53:40</time>
      </trkpt>
      <trkpt lat="38.81182" lon="0.00669">
        <ele>70.8</ele>
        <time>2021-01-31 12:53:41</time>
      </trkpt>
      <trkpt lat="38.81186" lon="0.00664">
        <ele>70.8</ele>
        <time>2021-01-31 12:53:42</time>
      </trkpt>
      <trkpt lat="38.8119" lon="0.0066">
        <ele>70.8</ele>
        <time>2021-01-31 12:53:43</time>
      </trkpt>
      <trkpt lat="38.8119" lon="0.0066">
        <ele>70.8</ele>
        <time>2021-01-31 12:53:44</time>
      </trkpt>
      <trkpt lat="38.8119" lon="0.0066">
        <ele>70.8</ele>
        <time>2021-01-31 12:53:45</time>
      </trkpt>
      <trkpt lat="38.8119" lon="0.0066">
        <ele>69.8</ele>
        <time>2021-01-31 12:53:46</time>
      </trkpt>
      <trkpt lat="38.81206" lon="0.00641">
        <ele>70.8</ele>
        <time>2021-01-31 12:53:47</time>
      </trkpt>
      <trkpt lat="38.81211" lon="0.00636">
        <ele>70.8</ele>
        <time>2021-01-31 12:53:48</time>
      </trkpt>
      <trkpt lat="38.81215" lon="0.00632">
        <ele>70.8</ele>
        <time>2021-01-31 12:53:49</time>
      </trkpt>
      <trkpt lat="38.81219" lon="0.00627">
        <ele>70.8</ele>
        <time>2021-01-31 12:53:50</time>
      </trkpt>
      <trkpt lat="38.81223" lon="0.00622">
        <ele>70.2</ele>
        <time>2021-01-31 12:53:51</time>
      </trkpt>
      <trkpt lat="38.81228" lon="0.00618">
        <ele>70.2</ele>
        <time>2021-01-31 12:53:52</time>
      </trkpt>
      <trkpt lat="38.81232" lon="0.00613">
        <ele>70.2</ele>
        <time>2021-01-31 12:53:53</time>
      </trkpt>
      <trkpt lat="38.81236" lon="0.00608">
        <ele>70.2</ele>
        <time>2021-01-31 12:53:54</time>
      </trkpt>
      <trkpt lat="38.8124" lon="0.00604">
        <ele>71</ele>
        <time>2021-01-31 12:53:55</time>
      </trkpt>
      <trkpt lat="38.81244" lon="0.00599">
        <ele>71</ele>
        <time>2021-01-31 12:53:56</time>
      </trkpt>
      <trkpt lat="38.81248" lon="0.00595">
        <ele>71</ele>
        <time>2021-01-31 12:53:57</time>
      </trkpt>
      <trkpt lat="38.81252" lon="0.0059">
        <ele>71</ele>
        <time>2021-01-31 12:53:58</time>
      </trkpt>
      <trkpt lat="38.81257" lon="0.00586">
        <ele>70.8</ele>
        <time>2021-01-31 12:53:59</time>
      </trkpt>
      <trkpt lat="38.81261" lon="0.00581">
        <ele>70.8</ele>
        <time>2021-01-31 12:54:00</time>
      </trkpt>
      <trkpt lat="38.81265" lon="0.00577">
        <ele>70.8</ele>
        <time>2021-01-31 12:54:01</time>
      </trkpt>
      <trkpt lat="38.81269" lon="0.00572">
        <ele>71.4</ele>
        <time>2021-01-31 12:54:02</time>
      </trkpt>
      <trkpt lat="38.81273" lon="0.00567">
        <ele>71</ele>
        <time>2021-01-31 12:54:03</time>
      </trkpt>
      <trkpt lat="38.81277" lon="0.00563">
        <ele>71</ele>
        <time>2021-01-31 12:54:04</time>
      </trkpt>
      <trkpt lat="38.81281" lon="0.00558">
        <ele>71</ele>
        <time>2021-01-31 12:54:05</time>
      </trkpt>
      <trkpt lat="38.81285" lon="0.00553">
        <ele>71</ele>
        <time>2021-01-31 12:54:06</time>
      </trkpt>
      <trkpt lat="38.81289" lon="0.00549">
        <ele>71</ele>
        <time>2021-01-31 12:54:07</time>
      </trkpt>
      <trkpt lat="38.81289" lon="0.00549">
        <ele>71</ele>
        <time>2021-01-31 12:54:08</time>
      </trkpt>
      <trkpt lat="38.81289" lon="0.00549">
        <ele>71</ele>
        <time>2021-01-31 12:54:09</time>
      </trkpt>
      <trkpt lat="38.81289" lon="0.00549">
        <ele>70.6</ele>
        <time>2021-01-31 12:54:10</time>
      </trkpt>
      <trkpt lat="38.81305" lon="0.00531">
        <ele>72.6</ele>
        <time>2021-01-31 12:54:11</time>
      </trkpt>
      <trkpt lat="38.81309" lon="0.00527">
        <ele>72.6</ele>
        <time>2021-01-31 12:54:12</time>
      </trkpt>
      <trkpt lat="38.81313" lon="0.00522">
        <ele>72.6</ele>
        <time>2021-01-31 12:54:13</time>
      </trkpt>
      <trkpt lat="38.81317" lon="0.00518">
        <ele>72.6</ele>
        <time>2021-01-31 12:54:14</time>
      </trkpt>
      <trkpt lat="38.8132" lon="0.00513">
        <ele>71.4</ele>
        <time>2021-01-31 12:54:15</time>
      </trkpt>
      <trkpt lat="38.81324" lon="0.00509">
        <ele>71.4</ele>
        <time>2021-01-31 12:54:16</time>
      </trkpt>
      <trkpt lat="38.81328" lon="0.00505">
        <ele>71.4</ele>
        <time>2021-01-31 12:54:17</time>
      </trkpt>
      <trkpt lat="38.81332" lon="0.005">
        <ele>71</ele>
        <time>2021-01-31 12:54:18</time>
      </trkpt>
      <trkpt lat="38.81336" lon="0.00496">
        <ele>72.6</ele>
        <time>2021-01-31 12:54:19</time>
      </trkpt>
      <trkpt lat="38.8134" lon="0.00492">
        <ele>72.6</ele>
        <time>2021-01-31 12:54:20</time>
      </trkpt>
      <trkpt lat="38.81344" lon="0.00488">
        <ele>72.6</ele>
        <time>2021-01-31 12:54:21</time>
      </trkpt>
      <trkpt lat="38.81348" lon="0.00483">
        <ele>72.6</ele>
        <time>2021-01-31 12:54:22</time>
      </trkpt>
      <trkpt lat="38.81352" lon="0.00479">
        <ele>72</ele>
        <time>2021-01-31 12:54:23</time>
      </trkpt>
      <trkpt lat="38.81356" lon="0.00474">
        <ele>72</ele>
        <time>2021-01-31 12:54:24</time>
      </trkpt>
      <trkpt lat="38.8136" lon="0.0047">
        <ele>72</ele>
        <time>2021-01-31 12:54:25</time>
      </trkpt>
      <trkpt lat="38.8136" lon="0.0047">
        <ele>72</ele>
        <time>2021-01-31 12:54:26</time>
      </trkpt>
      <trkpt lat="38.81368" lon="0.00461">
        <ele>72</ele>
        <time>2021-01-31 12:54:27</time>
      </trkpt>
      <trkpt lat="38.81373" lon="0.00456">
        <ele>72</ele>
        <time>2021-01-31 12:54:28</time>
      </trkpt>
      <trkpt lat="38.81377" lon="0.00451">
        <ele>72</ele>
        <time>2021-01-31 12:54:29</time>
      </trkpt>
      <trkpt lat="38.81381" lon="0.00446">
        <ele>71.4</ele>
        <time>2021-01-31 12:54:30</time>
      </trkpt>
      <trkpt lat="38.81385" lon="0.00442">
        <ele>72</ele>
        <time>2021-01-31 12:54:31</time>
      </trkpt>
      <trkpt lat="38.8139" lon="0.00437">
        <ele>72</ele>
        <time>2021-01-31 12:54:32</time>
      </trkpt>
      <trkpt lat="38.81394" lon="0.00432">
        <ele>72</ele>
        <time>2021-01-31 12:54:33</time>
      </trkpt>
      <trkpt lat="38.81398" lon="0.00427">
        <ele>72</ele>
        <time>2021-01-31 12:54:34</time>
      </trkpt>
      <trkpt lat="38.81403" lon="0.00422">
        <ele>71.6</ele>
        <time>2021-01-31 12:54:35</time>
      </trkpt>
      <trkpt lat="38.81407" lon="0.00418">
        <ele>71.6</ele>
        <time>2021-01-31 12:54:36</time>
      </trkpt>
      <trkpt lat="38.81407" lon="0.00418">
        <ele>71.6</ele>
        <time>2021-01-31 12:54:37</time>
      </trkpt>
      <trkpt lat="38.81407" lon="0.00418">
        <ele>71.6</ele>
        <time>2021-01-31 12:54:38</time>
      </trkpt>
      <trkpt lat="38.81407" lon="0.00418">
        <ele>71.2</ele>
        <time>2021-01-31 12:54:39</time>
      </trkpt>
      <trkpt lat="38.81424" lon="0.00398">
        <ele>71.2</ele>
        <time>2021-01-31 12:54:40</time>
      </trkpt>
      <trkpt lat="38.81428" lon="0.00394">
        <ele>71.2</ele>
        <time>2021-01-31 12:54:41</time>
      </trkpt>
      <trkpt lat="38.81432" lon="0.00389">
        <ele>71.2</ele>
        <time>2021-01-31 12:54:42</time>
      </trkpt>
      <trkpt lat="38.81436" lon="0.00385">
        <ele>71.6</ele>
        <time>2021-01-31 12:54:43</time>
      </trkpt>
      <trkpt lat="38.8144" lon="0.0038">
        <ele>71.6</ele>
        <time>2021-01-31 12:54:44</time>
      </trkpt>
      <trkpt lat="38.81444" lon="0.00375">
        <ele>71.6</ele>
        <time>2021-01-31 12:54:45</time>
      </trkpt>
      <trkpt lat="38.81448" lon="0.00371">
        <ele>71.6</ele>
        <time>2021-01-31 12:54:46</time>
      </trkpt>
      <trkpt lat="38.81453" lon="0.00366">
        <ele>71.8</ele>
        <time>2021-01-31 12:54:47</time>
      </trkpt>
      <trkpt lat="38.81457" lon="0.00362">
        <ele>71.8</ele>
        <time>2021-01-31 12:54:48</time>
      </trkpt>
      <trkpt lat="38.81461" lon="0.00357">
        <ele>71.8</ele>
        <time>2021-01-31 12:54:49</time>
      </trkpt>
      <trkpt lat="38.81465" lon="0.00353">
        <ele>71.8</ele>
        <time>2021-01-31 12:54:50</time>
      </trkpt>
      <trkpt lat="38.81469" lon="0.00349">
        <ele>72.2</ele>
        <time>2021-01-31 12:54:51</time>
      </trkpt>
      <trkpt lat="38.81473" lon="0.00345">
        <ele>72.2</ele>
        <time>2021-01-31 12:54:52</time>
      </trkpt>
      <trkpt lat="38.81478" lon="0.00341">
        <ele>72.2</ele>
        <time>2021-01-31 12:54:53</time>
      </trkpt>
      <trkpt lat="38.81482" lon="0.00337">
        <ele>72</ele>
        <time>2021-01-31 12:54:54</time>
      </trkpt>
      <trkpt lat="38.81486" lon="0.00334">
        <ele>71</ele>
        <time>2021-01-31 12:54:55</time>
      </trkpt>
      <trkpt lat="38.8149" lon="0.00331">
        <ele>71</ele>
        <time>2021-01-31 12:54:56</time>
      </trkpt>
      <trkpt lat="38.81495" lon="0.00328">
        <ele>71</ele>
        <time>2021-01-31 12:54:57</time>
      </trkpt>
      <trkpt lat="38.81499" lon="0.00325">
        <ele>71.8</ele>
        <time>2021-01-31 12:54:58</time>
      </trkpt>
      <trkpt lat="38.81504" lon="0.00323">
        <ele>72.8</ele>
        <time>2021-01-31 12:54:59</time>
      </trkpt>
      <trkpt lat="38.81508" lon="0.0032">
        <ele>72.8</ele>
        <time>2021-01-31 12:55:00</time>
      </trkpt>
      <trkpt lat="38.81513" lon="0.00317">
        <ele>72.8</ele>
        <time>2021-01-31 12:55:01</time>
      </trkpt>
      <trkpt lat="38.81517" lon="0.00314">
        <ele>72</ele>
        <time>2021-01-31 12:55:02</time>
      </trkpt>
      <trkpt lat="38.81522" lon="0.00311">
        <ele>70.6</ele>
        <time>2021-01-31 12:55:03</time>
      </trkpt>
      <trkpt lat="38.81527" lon="0.00308">
        <ele>70.6</ele>
        <time>2021-01-31 12:55:04</time>
      </trkpt>
      <trkpt lat="38.81532" lon="0.00305">
        <ele>70.6</ele>
        <time>2021-01-31 12:55:05</time>
      </trkpt>
      <trkpt lat="38.81536" lon="0.00302">
        <ele>71.6</ele>
        <time>2021-01-31 12:55:06</time>
      </trkpt>
      <trkpt lat="38.81541" lon="0.00299">
        <ele>72.2</ele>
        <time>2021-01-31 12:55:07</time>
      </trkpt>
      <trkpt lat="38.81546" lon="0.00296">
        <ele>72.2</ele>
        <time>2021-01-31 12:55:08</time>
      </trkpt>
      <trkpt lat="38.81551" lon="0.00293">
        <ele>72.2</ele>
        <time>2021-01-31 12:55:09</time>
      </trkpt>
      <trkpt lat="38.81556" lon="0.0029">
        <ele>73</ele>
        <time>2021-01-31 12:55:10</time>
      </trkpt>
      <trkpt lat="38.81561" lon="0.00287">
        <ele>72.8</ele>
        <time>2021-01-31 12:55:11</time>
      </trkpt>
      <trkpt lat="38.81566" lon="0.00284">
        <ele>72.8</ele>
        <time>2021-01-31 12:55:12</time>
      </trkpt>
      <trkpt lat="38.81571" lon="0.0028">
        <ele>72.8</ele>
        <time>2021-01-31 12:55:13</time>
      </trkpt>
      <trkpt lat="38.81576" lon="0.00277">
        <ele>72.8</ele>
        <time>2021-01-31 12:55:14</time>
      </trkpt>
      <trkpt lat="38.81581" lon="0.00274">
        <ele>72.8</ele>
        <time>2021-01-31 12:55:15</time>
      </trkpt>
      <trkpt lat="38.81581" lon="0.00274">
        <ele>72.8</ele>
        <time>2021-01-31 12:55:16</time>
      </trkpt>
      <trkpt lat="38.81581" lon="0.00274">
        <ele>72.8</ele>
        <time>2021-01-31 12:55:17</time>
      </trkpt>
      <trkpt lat="38.81581" lon="0.00274">
        <ele>72.8</ele>
        <time>2021-01-31 12:55:18</time>
      </trkpt>
      <trkpt lat="38.816" lon="0.00261">
        <ele>71.2</ele>
        <time>2021-01-31 12:55:19</time>
      </trkpt>
      <trkpt lat="38.81605" lon="0.00258">
        <ele>71.2</ele>
        <time>2021-01-31 12:55:20</time>
      </trkpt>
      <trkpt lat="38.8161" lon="0.00255">
        <ele>71.2</ele>
        <time>2021-01-31 12:55:21</time>
      </trkpt>
      <trkpt lat="38.81615" lon="0.00252">
        <ele>71.2</ele>
        <time>2021-01-31 12:55:22</time>
      </trkpt>
      <trkpt lat="38.81619" lon="0.00249">
        <ele>71.2</ele>
        <time>2021-01-31 12:55:23</time>
      </trkpt>
      <trkpt lat="38.81619" lon="0.00249">
        <ele>71.2</ele>
        <time>2021-01-31 12:55:24</time>
      </trkpt>
      <trkpt lat="38.81619" lon="0.00249">
        <ele>71.2</ele>
        <time>2021-01-31 12:55:25</time>
      </trkpt>
      <trkpt lat="38.81619" lon="0.00249">
        <ele>71.6</ele>
        <time>2021-01-31 12:55:26</time>
      </trkpt>
      <trkpt lat="38.81638" lon="0.00237">
        <ele>71</ele>
        <time>2021-01-31 12:55:27</time>
      </trkpt>
      <trkpt lat="38.81643" lon="0.00234">
        <ele>71</ele>
        <time>2021-01-31 12:55:28</time>
      </trkpt>
      <trkpt lat="38.81648" lon="0.00231">
        <ele>71</ele>
        <time>2021-01-31 12:55:29</time>
      </trkpt>
      <trkpt lat="38.81652" lon="0.00228">
        <ele>71</ele>
        <time>2021-01-31 12:55:30</time>
      </trkpt>
      <trkpt lat="38.81657" lon="0.00225">
        <ele>70.4</ele>
        <time>2021-01-31 12:55:31</time>
      </trkpt>
      <trkpt lat="38.81662" lon="0.00222">
        <ele>70.4</ele>
        <time>2021-01-31 12:55:32</time>
      </trkpt>
      <trkpt lat="38.81667" lon="0.00219">
        <ele>70.4</ele>
        <time>2021-01-31 12:55:33</time>
      </trkpt>
      <trkpt lat="38.81672" lon="0.00216">
        <ele>71.4</ele>
        <time>2021-01-31 12:55:34</time>
      </trkpt>
      <trkpt lat="38.81676" lon="0.00213">
        <ele>72</ele>
        <time>2021-01-31 12:55:35</time>
      </trkpt>
      <trkpt lat="38.81681" lon="0.0021">
        <ele>72</ele>
        <time>2021-01-31 12:55:36</time>
      </trkpt>
      <trkpt lat="38.81686" lon="0.00207">
        <ele>72</ele>
        <time>2021-01-31 12:55:37</time>
      </trkpt>
      <trkpt lat="38.81691" lon="0.00204">
        <ele>72</ele>
        <time>2021-01-31 12:55:38</time>
      </trkpt>
      <trkpt lat="38.81695" lon="0.00201">
        <ele>72.6</ele>
        <time>2021-01-31 12:55:39</time>
      </trkpt>
      <trkpt lat="38.817" lon="0.00198">
        <ele>72.6</ele>
        <time>2021-01-31 12:55:40</time>
      </trkpt>
      <trkpt lat="38.81705" lon="0.00195">
        <ele>72.6</ele>
        <time>2021-01-31 12:55:41</time>
      </trkpt>
      <trkpt lat="38.8171" lon="0.00193">
        <ele>72.6</ele>
        <time>2021-01-31 12:55:42</time>
      </trkpt>
      <trkpt lat="38.81714" lon="0.00191">
        <ele>73.2</ele>
        <time>2021-01-31 12:55:43</time>
      </trkpt>
      <trkpt lat="38.81718" lon="0.00188">
        <ele>73.2</ele>
        <time>2021-01-31 12:55:44</time>
      </trkpt>
      <trkpt lat="38.81723" lon="0.00186">
        <ele>73.2</ele>
        <time>2021-01-31 12:55:45</time>
      </trkpt>
      <trkpt lat="38.81727" lon="0.00183">
        <ele>72.2</ele>
        <time>2021-01-31 12:55:46</time>
      </trkpt>
      <trkpt lat="38.81732" lon="0.00181">
        <ele>72.6</ele>
        <time>2021-01-31 12:55:47</time>
      </trkpt>
      <trkpt lat="38.81736" lon="0.0018">
        <ele>72.6</ele>
        <time>2021-01-31 12:55:48</time>
      </trkpt>
      <trkpt lat="38.81741" lon="0.00178">
        <ele>72.6</ele>
        <time>2021-01-31 12:55:49</time>
      </trkpt>
      <trkpt lat="38.81745" lon="0.00178">
        <ele>72</ele>
        <time>2021-01-31 12:55:50</time>
      </trkpt>
      <trkpt lat="38.8175" lon="0.00178">
        <ele>73</ele>
        <time>2021-01-31 12:55:51</time>
      </trkpt>
      <trkpt lat="38.81755" lon="0.00179">
        <ele>73</ele>
        <time>2021-01-31 12:55:52</time>
      </trkpt>
      <trkpt lat="38.8176" lon="0.00179">
        <ele>73</ele>
        <time>2021-01-31 12:55:53</time>
      </trkpt>
      <trkpt lat="38.81765" lon="0.00177">
        <ele>74</ele>
        <time>2021-01-31 12:55:54</time>
      </trkpt>
      <trkpt lat="38.81769" lon="0.00174">
        <ele>72</ele>
        <time>2021-01-31 12:55:55</time>
      </trkpt>
      <trkpt lat="38.81773" lon="0.00169">
        <ele>72</ele>
        <time>2021-01-31 12:55:56</time>
      </trkpt>
      <trkpt lat="38.81775" lon="0.00163">
        <ele>72</ele>
        <time>2021-01-31 12:55:57</time>
      </trkpt>
      <trkpt lat="38.81776" lon="0.00157">
        <ele>71</ele>
        <time>2021-01-31 12:55:58</time>
      </trkpt>
      <trkpt lat="38.81778" lon="0.00152">
        <ele>70.6</ele>
        <time>2021-01-31 12:55:59</time>
      </trkpt>
      <trkpt lat="38.81781" lon="0.00147">
        <ele>70.6</ele>
        <time>2021-01-31 12:56:00</time>
      </trkpt>
      <trkpt lat="38.81784" lon="0.00143">
        <ele>70.6</ele>
        <time>2021-01-31 12:56:01</time>
      </trkpt>
      <trkpt lat="38.81788" lon="0.00139">
        <ele>71.6</ele>
        <time>2021-01-31 12:56:02</time>
      </trkpt>
      <trkpt lat="38.81793" lon="0.00136">
        <ele>72.2</ele>
        <time>2021-01-31 12:56:03</time>
      </trkpt>
      <trkpt lat="38.81797" lon="0.00132">
        <ele>72.2</ele>
        <time>2021-01-31 12:56:04</time>
      </trkpt>
      <trkpt lat="38.81801" lon="0.00128">
        <ele>72.2</ele>
        <time>2021-01-31 12:56:05</time>
      </trkpt>
      <trkpt lat="38.81806" lon="0.00124">
        <ele>72.2</ele>
        <time>2021-01-31 12:56:06</time>
      </trkpt>
      <trkpt lat="38.8181" lon="0.0012">
        <ele>73.8</ele>
        <time>2021-01-31 12:56:07</time>
      </trkpt>
      <trkpt lat="38.81815" lon="0.00117">
        <ele>73.8</ele>
        <time>2021-01-31 12:56:08</time>
      </trkpt>
      <trkpt lat="38.81819" lon="0.00113">
        <ele>73.8</ele>
        <time>2021-01-31 12:56:09</time>
      </trkpt>
      <trkpt lat="38.81824" lon="0.00109">
        <ele>72.8</ele>
        <time>2021-01-31 12:56:10</time>
      </trkpt>
      <trkpt lat="38.81828" lon="0.00106">
        <ele>72.8</ele>
        <time>2021-01-31 12:56:11</time>
      </trkpt>
      <trkpt lat="38.81833" lon="0.00102">
        <ele>72.8</ele>
        <time>2021-01-31 12:56:12</time>
      </trkpt>
      <trkpt lat="38.81833" lon="0.00102">
        <ele>72.8</ele>
        <time>2021-01-31 12:56:13</time>
      </trkpt>
      <trkpt lat="38.81833" lon="0.00102">
        <ele>72.8</ele>
        <time>2021-01-31 12:56:14</time>
      </trkpt>
      <trkpt lat="38.81833" lon="0.00102">
        <ele>70.8</ele>
        <time>2021-01-31 12:56:15</time>
      </trkpt>
      <trkpt lat="38.8185" lon="0.00088">
        <ele>70.8</ele>
        <time>2021-01-31 12:56:16</time>
      </trkpt>
      <trkpt lat="38.81855" lon="0.00084">
        <ele>70.8</ele>
        <time>2021-01-31 12:56:17</time>
      </trkpt>
      <trkpt lat="38.81859" lon="0.0008">
        <ele>70.8</ele>
        <time>2021-01-31 12:56:18</time>
      </trkpt>
      <trkpt lat="38.81862" lon="0.00076">
        <ele>71.6</ele>
        <time>2021-01-31 12:56:19</time>
      </trkpt>
      <trkpt lat="38.81866" lon="0.00071">
        <ele>71.6</ele>
        <time>2021-01-31 12:56:20</time>
      </trkpt>
      <trkpt lat="38.8187" lon="0.00067">
        <ele>71.6</ele>
        <time>2021-01-31 12:56:21</time>
      </trkpt>
      <trkpt lat="38.81875" lon="0.00063">
        <ele>72.6</ele>
        <time>2021-01-31 12:56:22</time>
      </trkpt>
      <trkpt lat="38.81879" lon="0.0006">
        <ele>71.6</ele>
        <time>2021-01-31 12:56:23</time>
      </trkpt>
      <trkpt lat="38.81883" lon="0.00056">
        <ele>71.6</ele>
        <time>2021-01-31 12:56:24</time>
      </trkpt>
      <trkpt lat="38.81888" lon="0.00053">
        <ele>71.6</ele>
        <time>2021-01-31 12:56:25</time>
      </trkpt>
      <trkpt lat="38.81892" lon="0.0005">
        <ele>72.6</ele>
        <time>2021-01-31 12:56:26</time>
      </trkpt>
      <trkpt lat="38.81895" lon="0.00046">
        <ele>72.6</ele>
        <time>2021-01-31 12:56:27</time>
      </trkpt>
      <trkpt lat="38.819" lon="0.00042">
        <ele>72.6</ele>
        <time>2021-01-31 12:56:28</time>
      </trkpt>
      <trkpt lat="38.81904" lon="0.00038">
        <ele>72.6</ele>
        <time>2021-01-31 12:56:29</time>
      </trkpt>
      <trkpt lat="38.81909" lon="0.00034">
        <ele>73.6</ele>
        <time>2021-01-31 12:56:30</time>
      </trkpt>
      <trkpt lat="38.81914" lon="0.00031">
        <ele>73.4</ele>
        <time>2021-01-31 12:56:31</time>
      </trkpt>
      <trkpt lat="38.81918" lon="0.00027">
        <ele>73.4</ele>
        <time>2021-01-31 12:56:32</time>
      </trkpt>
      <trkpt lat="38.81923" lon="0.00023">
        <ele>73.4</ele>
        <time>2021-01-31 12:56:33</time>
      </trkpt>
      <trkpt lat="38.81928" lon="0.0002">
        <ele>72.6</ele>
        <time>2021-01-31 12:56:34</time>
      </trkpt>
      <trkpt lat="38.81932" lon="0.00016">
        <ele>70.6</ele>
        <time>2021-01-31 12:56:35</time>
      </trkpt>
      <trkpt lat="38.81934" lon="0.00012">
        <ele>70.6</ele>
        <time>2021-01-31 12:56:36</time>
      </trkpt>
      <trkpt lat="38.81934" lon="0.00012">
        <ele>70.6</ele>
        <time>2021-01-31 12:56:37</time>
      </trkpt>
      <trkpt lat="38.81939" lon="3.0E-5">
        <ele>70.6</ele>
        <time>2021-01-31 12:56:38</time>
      </trkpt>
      <trkpt lat="38.81941" lon="-1.0E-5">
        <ele>70.6</ele>
        <time>2021-01-31 12:56:39</time>
      </trkpt>
      <trkpt lat="38.81941" lon="-1.0E-5">
        <ele>70.6</ele>
        <time>2021-01-31 12:56:40</time>
      </trkpt>
      <trkpt lat="38.81941" lon="-1.0E-5">
        <ele>70.6</ele>
        <time>2021-01-31 12:56:41</time>
      </trkpt>
      <trkpt lat="38.81941" lon="-1.0E-5">
        <ele>71</ele>
        <time>2021-01-31 12:56:42</time>
      </trkpt>
      <trkpt lat="38.81958" lon="-0.00014">
        <ele>70.6</ele>
        <time>2021-01-31 12:56:43</time>
      </trkpt>
      <trkpt lat="38.8196" lon="-0.00018">
        <ele>70.6</ele>
        <time>2021-01-31 12:56:44</time>
      </trkpt>
      <trkpt lat="38.81966" lon="-0.0002">
        <ele>70.6</ele>
        <time>2021-01-31 12:56:45</time>
      </trkpt>
      <trkpt lat="38.8197" lon="-0.00023">
        <ele>70.6</ele>
        <time>2021-01-31 12:56:46</time>
      </trkpt>
      <trkpt lat="38.81974" lon="-0.00026">
        <ele>71</ele>
        <time>2021-01-31 12:56:47</time>
      </trkpt>
      <trkpt lat="38.81979" lon="-0.00029">
        <ele>71</ele>
        <time>2021-01-31 12:56:48</time>
      </trkpt>
      <trkpt lat="38.81987" lon="-0.00031">
        <ele>71</ele>
        <time>2021-01-31 12:56:49</time>
      </trkpt>
      <trkpt lat="38.8199" lon="-0.00035">
        <ele>71</ele>
        <time>2021-01-31 12:56:50</time>
      </trkpt>
      <trkpt lat="38.81996" lon="-0.00038">
        <ele>70.8</ele>
        <time>2021-01-31 12:56:51</time>
      </trkpt>
      <trkpt lat="38.82001" lon="-0.00041">
        <ele>70.8</ele>
        <time>2021-01-31 12:56:52</time>
      </trkpt>
      <trkpt lat="38.82008" lon="-0.00043">
        <ele>70.8</ele>
        <time>2021-01-31 12:56:53</time>
      </trkpt>
      <trkpt lat="38.82016" lon="-0.00046">
        <ele>70.8</ele>
        <time>2021-01-31 12:56:54</time>
      </trkpt>
      <trkpt lat="38.82021" lon="-0.00048">
        <ele>70.2</ele>
        <time>2021-01-31 12:56:55</time>
      </trkpt>
      <trkpt lat="38.82028" lon="-0.00051">
        <ele>70.2</ele>
        <time>2021-01-31 12:56:56</time>
      </trkpt>
      <trkpt lat="38.82035" lon="-0.00054">
        <ele>70.2</ele>
        <time>2021-01-31 12:56:57</time>
      </trkpt>
      <trkpt lat="38.82045" lon="-0.00057">
        <ele>70.2</ele>
        <time>2021-01-31 12:56:58</time>
      </trkpt>
      <trkpt lat="38.82052" lon="-0.00059">
        <ele>70.2</ele>
        <time>2021-01-31 12:56:59</time>
      </trkpt>
      <trkpt lat="38.82052" lon="-0.00059">
        <ele>70.2</ele>
        <time>2021-01-31 12:57:00</time>
      </trkpt>
      <trkpt lat="38.82052" lon="-0.00059">
        <ele>70.2</ele>
        <time>2021-01-31 12:57:01</time>
      </trkpt>
      <trkpt lat="38.82052" lon="-0.00059">
        <ele>71</ele>
        <time>2021-01-31 12:57:02</time>
      </trkpt>
      <trkpt lat="38.82074" lon="-0.00067">
        <ele>72</ele>
        <time>2021-01-31 12:57:03</time>
      </trkpt>
      <trkpt lat="38.82079" lon="-0.00069">
        <ele>72</ele>
        <time>2021-01-31 12:57:04</time>
      </trkpt>
      <trkpt lat="38.82083" lon="-0.00071">
        <ele>72</ele>
        <time>2021-01-31 12:57:05</time>
      </trkpt>
      <trkpt lat="38.82087" lon="-0.00074">
        <ele>72</ele>
        <time>2021-01-31 12:57:06</time>
      </trkpt>
      <trkpt lat="38.82092" lon="-0.00077">
        <ele>72</ele>
        <time>2021-01-31 12:57:07</time>
      </trkpt>
      <trkpt lat="38.82097" lon="-0.0008">
        <ele>72</ele>
        <time>2021-01-31 12:57:08</time>
      </trkpt>
      <trkpt lat="38.82097" lon="-0.0008">
        <ele>72</ele>
        <time>2021-01-31 12:57:09</time>
      </trkpt>
      <trkpt lat="38.82107" lon="-0.00085">
        <ele>72</ele>
        <time>2021-01-31 12:57:10</time>
      </trkpt>
      <trkpt lat="38.82112" lon="-0.00088">
        <ele>71.6</ele>
        <time>2021-01-31 12:57:11</time>
      </trkpt>
      <trkpt lat="38.82115" lon="-0.0009">
        <ele>71.6</ele>
        <time>2021-01-31 12:57:12</time>
      </trkpt>
      <trkpt lat="38.8212" lon="-0.00092">
        <ele>71.6</ele>
        <time>2021-01-31 12:57:13</time>
      </trkpt>
      <trkpt lat="38.82126" lon="-0.00094">
        <ele>71.6</ele>
        <time>2021-01-31 12:57:14</time>
      </trkpt>
      <trkpt lat="38.8213" lon="-0.00097">
        <ele>71.6</ele>
        <time>2021-01-31 12:57:15</time>
      </trkpt>
      <trkpt lat="38.82134" lon="-0.00099">
        <ele>71.6</ele>
        <time>2021-01-31 12:57:16</time>
      </trkpt>
      <trkpt lat="38.82139" lon="-0.001">
        <ele>71.6</ele>
        <time>2021-01-31 12:57:17</time>
      </trkpt>
      <trkpt lat="38.82143" lon="-0.00101">
        <ele>71.6</ele>
        <time>2021-01-31 12:57:18</time>
      </trkpt>
      <trkpt lat="38.82146" lon="-0.00103">
        <ele>72.4</ele>
        <time>2021-01-31 12:57:19</time>
      </trkpt>
      <trkpt lat="38.82149" lon="-0.00105">
        <ele>72.4</ele>
        <time>2021-01-31 12:57:20</time>
      </trkpt>
      <trkpt lat="38.82151" lon="-0.0011">
        <ele>72.4</ele>
        <time>2021-01-31 12:57:21</time>
      </trkpt>
      <trkpt lat="38.82151" lon="-0.00114">
        <ele>71.4</ele>
        <time>2021-01-31 12:57:22</time>
      </trkpt>
      <trkpt lat="38.8215" lon="-0.00119">
        <ele>71.4</ele>
        <time>2021-01-31 12:57:23</time>
      </trkpt>
      <trkpt lat="38.82148" lon="-0.00125">
        <ele>71.4</ele>
        <time>2021-01-31 12:57:24</time>
      </trkpt>
      <trkpt lat="38.82147" lon="-0.00131">
        <ele>71.4</ele>
        <time>2021-01-31 12:57:25</time>
      </trkpt>
      <trkpt lat="38.82146" lon="-0.00138">
        <ele>70.4</ele>
        <time>2021-01-31 12:57:26</time>
      </trkpt>
      <trkpt lat="38.82144" lon="-0.00145">
        <ele>68.4</ele>
        <time>2021-01-31 12:57:27</time>
      </trkpt>
      <trkpt lat="38.82142" lon="-0.00154">
        <ele>68.4</ele>
        <time>2021-01-31 12:57:28</time>
      </trkpt>
      <trkpt lat="38.82141" lon="-0.00163">
        <ele>68.4</ele>
        <time>2021-01-31 12:57:29</time>
      </trkpt>
      <trkpt lat="38.8214" lon="-0.00172">
        <ele>67.4</ele>
        <time>2021-01-31 12:57:30</time>
      </trkpt>
      <trkpt lat="38.82139" lon="-0.00181">
        <ele>66.8</ele>
        <time>2021-01-31 12:57:31</time>
      </trkpt>
      <trkpt lat="38.82137" lon="-0.0019">
        <ele>66.8</ele>
        <time>2021-01-31 12:57:32</time>
      </trkpt>
      <trkpt lat="38.82136" lon="-0.00198">
        <ele>66.8</ele>
        <time>2021-01-31 12:57:33</time>
      </trkpt>
      <trkpt lat="38.82135" lon="-0.00207">
        <ele>67.8</ele>
        <time>2021-01-31 12:57:34</time>
      </trkpt>
      <trkpt lat="38.82134" lon="-0.00215">
        <ele>66.6</ele>
        <time>2021-01-31 12:57:35</time>
      </trkpt>
      <trkpt lat="38.82133" lon="-0.00224">
        <ele>66.6</ele>
        <time>2021-01-31 12:57:36</time>
      </trkpt>
      <trkpt lat="38.82132" lon="-0.00232">
        <ele>66.6</ele>
        <time>2021-01-31 12:57:37</time>
      </trkpt>
      <trkpt lat="38.8213" lon="-0.00239">
        <ele>67.6</ele>
        <time>2021-01-31 12:57:38</time>
      </trkpt>
      <trkpt lat="38.82129" lon="-0.00246">
        <ele>68.6</ele>
        <time>2021-01-31 12:57:39</time>
      </trkpt>
      <trkpt lat="38.82126" lon="-0.00253">
        <ele>68.6</ele>
        <time>2021-01-31 12:57:40</time>
      </trkpt>
      <trkpt lat="38.82123" lon="-0.0026">
        <ele>68.6</ele>
        <time>2021-01-31 12:57:41</time>
      </trkpt>
      <trkpt lat="38.82121" lon="-0.00267">
        <ele>67.6</ele>
        <time>2021-01-31 12:57:42</time>
      </trkpt>
      <trkpt lat="38.82119" lon="-0.00274">
        <ele>69</ele>
        <time>2021-01-31 12:57:43</time>
      </trkpt>
      <trkpt lat="38.82117" lon="-0.0028">
        <ele>69</ele>
        <time>2021-01-31 12:57:44</time>
      </trkpt>
      <trkpt lat="38.82117" lon="-0.0028">
        <ele>69</ele>
        <time>2021-01-31 12:57:45</time>
      </trkpt>
      <trkpt lat="38.82117" lon="-0.0028">
        <ele>69</ele>
        <time>2021-01-31 12:57:46</time>
      </trkpt>
      <trkpt lat="38.82117" lon="-0.0028">
        <ele>70.2</ele>
        <time>2021-01-31 12:57:47</time>
      </trkpt>
      <trkpt lat="38.82106" lon="-0.00305">
        <ele>70.2</ele>
        <time>2021-01-31 12:57:48</time>
      </trkpt>
      <trkpt lat="38.82104" lon="-0.00311">
        <ele>70.2</ele>
        <time>2021-01-31 12:57:49</time>
      </trkpt>
      <trkpt lat="38.82101" lon="-0.00317">
        <ele>70</ele>
        <time>2021-01-31 12:57:50</time>
      </trkpt>
      <trkpt lat="38.82099" lon="-0.00324">
        <ele>70.2</ele>
        <time>2021-01-31 12:57:51</time>
      </trkpt>
      <trkpt lat="38.82096" lon="-0.0033">
        <ele>70.2</ele>
        <time>2021-01-31 12:57:52</time>
      </trkpt>
      <trkpt lat="38.82093" lon="-0.00336">
        <ele>70.2</ele>
        <time>2021-01-31 12:57:53</time>
      </trkpt>
      <trkpt lat="38.82091" lon="-0.00342">
        <ele>70.2</ele>
        <time>2021-01-31 12:57:54</time>
      </trkpt>
      <trkpt lat="38.82088" lon="-0.00349">
        <ele>69</ele>
        <time>2021-01-31 12:57:55</time>
      </trkpt>
      <trkpt lat="38.82085" lon="-0.00355">
        <ele>69</ele>
        <time>2021-01-31 12:57:56</time>
      </trkpt>
      <trkpt lat="38.82082" lon="-0.0036">
        <ele>69</ele>
        <time>2021-01-31 12:57:57</time>
      </trkpt>
      <trkpt lat="38.8208" lon="-0.00366">
        <ele>69</ele>
        <time>2021-01-31 12:57:58</time>
      </trkpt>
      <trkpt lat="38.82078" lon="-0.00372">
        <ele>69</ele>
        <time>2021-01-31 12:57:59</time>
      </trkpt>
      <trkpt lat="38.82076" lon="-0.00378">
        <ele>69</ele>
        <time>2021-01-31 12:58:00</time>
      </trkpt>
      <trkpt lat="38.82074" lon="-0.00384">
        <ele>69</ele>
        <time>2021-01-31 12:58:01</time>
      </trkpt>
      <trkpt lat="38.82073" lon="-0.00389">
        <ele>69</ele>
        <time>2021-01-31 12:58:02</time>
      </trkpt>
      <trkpt lat="38.82071" lon="-0.00395">
        <ele>70</ele>
        <time>2021-01-31 12:58:03</time>
      </trkpt>
      <trkpt lat="38.8207" lon="-0.004">
        <ele>70</ele>
        <time>2021-01-31 12:58:04</time>
      </trkpt>
      <trkpt lat="38.8207" lon="-0.00405">
        <ele>70</ele>
        <time>2021-01-31 12:58:05</time>
      </trkpt>
      <trkpt lat="38.82069" lon="-0.0041">
        <ele>71</ele>
        <time>2021-01-31 12:58:06</time>
      </trkpt>
      <trkpt lat="38.82068" lon="-0.00414">
        <ele>72</ele>
        <time>2021-01-31 12:58:07</time>
      </trkpt>
      <trkpt lat="38.82067" lon="-0.00419">
        <ele>72</ele>
        <time>2021-01-31 12:58:08</time>
      </trkpt>
      <trkpt lat="38.82067" lon="-0.00424">
        <ele>72</ele>
        <time>2021-01-31 12:58:09</time>
      </trkpt>
      <trkpt lat="38.82066" lon="-0.00428">
        <ele>73</ele>
        <time>2021-01-31 12:58:10</time>
      </trkpt>
      <trkpt lat="38.82066" lon="-0.00433">
        <ele>73.4</ele>
        <time>2021-01-31 12:58:11</time>
      </trkpt>
      <trkpt lat="38.82065" lon="-0.00438">
        <ele>73.4</ele>
        <time>2021-01-31 12:58:12</time>
      </trkpt>
      <trkpt lat="38.82065" lon="-0.00443">
        <ele>73.4</ele>
        <time>2021-01-31 12:58:13</time>
      </trkpt>
      <trkpt lat="38.82064" lon="-0.00447">
        <ele>73.4</ele>
        <time>2021-01-31 12:58:14</time>
      </trkpt>
      <trkpt lat="38.82063" lon="-0.00452">
        <ele>74.2</ele>
        <time>2021-01-31 12:58:15</time>
      </trkpt>
      <trkpt lat="38.82063" lon="-0.00456">
        <ele>74.2</ele>
        <time>2021-01-31 12:58:16</time>
      </trkpt>
      <trkpt lat="38.82062" lon="-0.0046">
        <ele>74.2</ele>
        <time>2021-01-31 12:58:17</time>
      </trkpt>
      <trkpt lat="38.82061" lon="-0.00465">
        <ele>74.8</ele>
        <time>2021-01-31 12:58:18</time>
      </trkpt>
      <trkpt lat="38.82061" lon="-0.00469">
        <ele>75.2</ele>
        <time>2021-01-31 12:58:19</time>
      </trkpt>
      <trkpt lat="38.8206" lon="-0.00473">
        <ele>75.2</ele>
        <time>2021-01-31 12:58:20</time>
      </trkpt>
      <trkpt lat="38.82059" lon="-0.00477">
        <ele>75.2</ele>
        <time>2021-01-31 12:58:21</time>
      </trkpt>
      <trkpt lat="38.8206" lon="-0.00481">
        <ele>75.2</ele>
        <time>2021-01-31 12:58:22</time>
      </trkpt>
      <trkpt lat="38.82059" lon="-0.00486">
        <ele>75.2</ele>
        <time>2021-01-31 12:58:23</time>
      </trkpt>
      <trkpt lat="38.82057" lon="-0.0049">
        <ele>75.2</ele>
        <time>2021-01-31 12:58:24</time>
      </trkpt>
      <trkpt lat="38.82056" lon="-0.00495">
        <ele>75.2</ele>
        <time>2021-01-31 12:58:25</time>
      </trkpt>
      <trkpt lat="38.82054" lon="-0.00499">
        <ele>74.2</ele>
        <time>2021-01-31 12:58:26</time>
      </trkpt>
      <trkpt lat="38.82052" lon="-0.00504">
        <ele>74</ele>
        <time>2021-01-31 12:58:27</time>
      </trkpt>
      <trkpt lat="38.82049" lon="-0.00509">
        <ele>74</ele>
        <time>2021-01-31 12:58:28</time>
      </trkpt>
      <trkpt lat="38.82047" lon="-0.00513">
        <ele>74</ele>
        <time>2021-01-31 12:58:29</time>
      </trkpt>
      <trkpt lat="38.82045" lon="-0.00518">
        <ele>74</ele>
        <time>2021-01-31 12:58:30</time>
      </trkpt>
      <trkpt lat="38.82045" lon="-0.00518">
        <ele>74</ele>
        <time>2021-01-31 12:58:31</time>
      </trkpt>
      <trkpt lat="38.82045" lon="-0.00518">
        <ele>74</ele>
        <time>2021-01-31 12:58:32</time>
      </trkpt>
      <trkpt lat="38.82045" lon="-0.00518">
        <ele>74.6</ele>
        <time>2021-01-31 12:58:33</time>
      </trkpt>
      <trkpt lat="38.82035" lon="-0.00536">
        <ele>75.6</ele>
        <time>2021-01-31 12:58:34</time>
      </trkpt>
      <trkpt lat="38.82033" lon="-0.00541">
        <ele>76</ele>
        <time>2021-01-31 12:58:35</time>
      </trkpt>
      <trkpt lat="38.8203" lon="-0.00545">
        <ele>76</ele>
        <time>2021-01-31 12:58:36</time>
      </trkpt>
      <trkpt lat="38.82028" lon="-0.00549">
        <ele>76</ele>
        <time>2021-01-31 12:58:37</time>
      </trkpt>
      <trkpt lat="38.82028" lon="-0.00549">
        <ele>76</ele>
        <time>2021-01-31 12:58:38</time>
      </trkpt>
      <trkpt lat="38.82028" lon="-0.00549">
        <ele>76</ele>
        <time>2021-01-31 12:58:39</time>
      </trkpt>
      <trkpt lat="38.82028" lon="-0.00549">
        <ele>76.6</ele>
        <time>2021-01-31 12:58:40</time>
      </trkpt>
      <trkpt lat="38.82016" lon="-0.00564">
        <ele>76.6</ele>
        <time>2021-01-31 12:58:41</time>
      </trkpt>
      <trkpt lat="38.82013" lon="-0.00568">
        <ele>76.6</ele>
        <time>2021-01-31 12:58:42</time>
      </trkpt>
      <trkpt lat="38.82009" lon="-0.00571">
        <ele>76.6</ele>
        <time>2021-01-31 12:58:43</time>
      </trkpt>
      <trkpt lat="38.82005" lon="-0.00574">
        <ele>76.6</ele>
        <time>2021-01-31 12:58:44</time>
      </trkpt>
      <trkpt lat="38.82001" lon="-0.00577">
        <ele>76.6</ele>
        <time>2021-01-31 12:58:45</time>
      </trkpt>
      <trkpt lat="38.81998" lon="-0.0058">
        <ele>76.6</ele>
        <time>2021-01-31 12:58:46</time>
      </trkpt>
      <trkpt lat="38.81994" lon="-0.00583">
        <ele>76.8</ele>
        <time>2021-01-31 12:58:47</time>
      </trkpt>
      <trkpt lat="38.8199" lon="-0.00586">
        <ele>76.8</ele>
        <time>2021-01-31 12:58:48</time>
      </trkpt>
      <trkpt lat="38.81987" lon="-0.00589">
        <ele>76.8</ele>
        <time>2021-01-31 12:58:49</time>
      </trkpt>
      <trkpt lat="38.81983" lon="-0.00592">
        <ele>76.6</ele>
        <time>2021-01-31 12:58:50</time>
      </trkpt>
      <trkpt lat="38.81979" lon="-0.00596">
        <ele>76.8</ele>
        <time>2021-01-31 12:58:51</time>
      </trkpt>
      <trkpt lat="38.81975" lon="-0.006">
        <ele>76.8</ele>
        <time>2021-01-31 12:58:52</time>
      </trkpt>
      <trkpt lat="38.81972" lon="-0.00603">
        <ele>76.8</ele>
        <time>2021-01-31 12:58:53</time>
      </trkpt>
      <trkpt lat="38.81968" lon="-0.00607">
        <ele>76.8</ele>
        <time>2021-01-31 12:58:54</time>
      </trkpt>
      <trkpt lat="38.81965" lon="-0.00611">
        <ele>76.6</ele>
        <time>2021-01-31 12:58:55</time>
      </trkpt>
      <trkpt lat="38.81961" lon="-0.00614">
        <ele>76.6</ele>
        <time>2021-01-31 12:58:56</time>
      </trkpt>
      <trkpt lat="38.81958" lon="-0.00618">
        <ele>76.6</ele>
        <time>2021-01-31 12:58:57</time>
      </trkpt>
      <trkpt lat="38.81954" lon="-0.00622">
        <ele>76.6</ele>
        <time>2021-01-31 12:58:58</time>
      </trkpt>
      <trkpt lat="38.81951" lon="-0.00626">
        <ele>77</ele>
        <time>2021-01-31 12:58:59</time>
      </trkpt>
      <trkpt lat="38.81948" lon="-0.0063">
        <ele>77</ele>
        <time>2021-01-31 12:59:00</time>
      </trkpt>
      <trkpt lat="38.81948" lon="-0.0063">
        <ele>77</ele>
        <time>2021-01-31 12:59:01</time>
      </trkpt>
      <trkpt lat="38.81941" lon="-0.00639">
        <ele>77</ele>
        <time>2021-01-31 12:59:02</time>
      </trkpt>
      <trkpt lat="38.81938" lon="-0.00643">
        <ele>76.6</ele>
        <time>2021-01-31 12:59:03</time>
      </trkpt>
      <trkpt lat="38.81935" lon="-0.00647">
        <ele>76.6</ele>
        <time>2021-01-31 12:59:04</time>
      </trkpt>
      <trkpt lat="38.81931" lon="-0.00651">
        <ele>76.6</ele>
        <time>2021-01-31 12:59:05</time>
      </trkpt>
      <trkpt lat="38.81928" lon="-0.00655">
        <ele>76.6</ele>
        <time>2021-01-31 12:59:06</time>
      </trkpt>
      <trkpt lat="38.81925" lon="-0.0066">
        <ele>77.2</ele>
        <time>2021-01-31 12:59:07</time>
      </trkpt>
      <trkpt lat="38.81922" lon="-0.00664">
        <ele>77.2</ele>
        <time>2021-01-31 12:59:08</time>
      </trkpt>
      <trkpt lat="38.81918" lon="-0.00668">
        <ele>77.2</ele>
        <time>2021-01-31 12:59:09</time>
      </trkpt>
      <trkpt lat="38.81915" lon="-0.00672">
        <ele>77.2</ele>
        <time>2021-01-31 12:59:10</time>
      </trkpt>
      <trkpt lat="38.81912" lon="-0.00677">
        <ele>76.8</ele>
        <time>2021-01-31 12:59:11</time>
      </trkpt>
      <trkpt lat="38.81908" lon="-0.00681">
        <ele>76.8</ele>
        <time>2021-01-31 12:59:12</time>
      </trkpt>
      <trkpt lat="38.81905" lon="-0.00685">
        <ele>76.8</ele>
        <time>2021-01-31 12:59:13</time>
      </trkpt>
      <trkpt lat="38.81902" lon="-0.00689">
        <ele>77.4</ele>
        <time>2021-01-31 12:59:14</time>
      </trkpt>
      <trkpt lat="38.81899" lon="-0.00693">
        <ele>77.6</ele>
        <time>2021-01-31 12:59:15</time>
      </trkpt>
      <trkpt lat="38.81896" lon="-0.00698">
        <ele>77.6</ele>
        <time>2021-01-31 12:59:16</time>
      </trkpt>
      <trkpt lat="38.81892" lon="-0.00701">
        <ele>77.6</ele>
        <time>2021-01-31 12:59:17</time>
      </trkpt>
      <trkpt lat="38.81889" lon="-0.00705">
        <ele>77.6</ele>
        <time>2021-01-31 12:59:18</time>
      </trkpt>
      <trkpt lat="38.81886" lon="-0.00709">
        <ele>78.2</ele>
        <time>2021-01-31 12:59:19</time>
      </trkpt>
      <trkpt lat="38.81882" lon="-0.00712">
        <ele>78.2</ele>
        <time>2021-01-31 12:59:20</time>
      </trkpt>
      <trkpt lat="38.81879" lon="-0.00716">
        <ele>78.2</ele>
        <time>2021-01-31 12:59:21</time>
      </trkpt>
      <trkpt lat="38.81875" lon="-0.00719">
        <ele>79.2</ele>
        <time>2021-01-31 12:59:22</time>
      </trkpt>
      <trkpt lat="38.81872" lon="-0.00723">
        <ele>79.2</ele>
        <time>2021-01-31 12:59:23</time>
      </trkpt>
      <trkpt lat="38.81868" lon="-0.00726">
        <ele>79.2</ele>
        <time>2021-01-31 12:59:24</time>
      </trkpt>
      <trkpt lat="38.81864" lon="-0.00729">
        <ele>79.2</ele>
        <time>2021-01-31 12:59:25</time>
      </trkpt>
      <trkpt lat="38.8186" lon="-0.00732">
        <ele>79.2</ele>
        <time>2021-01-31 12:59:26</time>
      </trkpt>
      <trkpt lat="38.81856" lon="-0.00735">
        <ele>79.2</ele>
        <time>2021-01-31 12:59:27</time>
      </trkpt>
      <trkpt lat="38.81851" lon="-0.00739">
        <ele>79.2</ele>
        <time>2021-01-31 12:59:28</time>
      </trkpt>
      <trkpt lat="38.81847" lon="-0.00742">
        <ele>79.2</ele>
        <time>2021-01-31 12:59:29</time>
      </trkpt>
      <trkpt lat="38.81843" lon="-0.00745">
        <ele>79.4</ele>
        <time>2021-01-31 12:59:30</time>
      </trkpt>
      <trkpt lat="38.81838" lon="-0.00748">
        <ele>79.4</ele>
        <time>2021-01-31 12:59:31</time>
      </trkpt>
      <trkpt lat="38.81834" lon="-0.00752">
        <ele>79.4</ele>
        <time>2021-01-31 12:59:32</time>
      </trkpt>
      <trkpt lat="38.8183" lon="-0.00755">
        <ele>79.4</ele>
        <time>2021-01-31 12:59:33</time>
      </trkpt>
      <trkpt lat="38.8183" lon="-0.00755">
        <ele>79.4</ele>
        <time>2021-01-31 12:59:34</time>
      </trkpt>
      <trkpt lat="38.8183" lon="-0.00755">
        <ele>79.4</ele>
        <time>2021-01-31 12:59:35</time>
      </trkpt>
      <trkpt lat="38.8183" lon="-0.00755">
        <ele>80.2</ele>
        <time>2021-01-31 12:59:36</time>
      </trkpt>
      <trkpt lat="38.81814" lon="-0.00767">
        <ele>80.2</ele>
        <time>2021-01-31 12:59:37</time>
      </trkpt>
      <trkpt lat="38.8181" lon="-0.0077">
        <ele>80.2</ele>
        <time>2021-01-31 12:59:38</time>
      </trkpt>
      <trkpt lat="38.81806" lon="-0.00773">
        <ele>81</ele>
        <time>2021-01-31 12:59:39</time>
      </trkpt>
      <trkpt lat="38.81802" lon="-0.00776">
        <ele>81</ele>
        <time>2021-01-31 12:59:40</time>
      </trkpt>
      <trkpt lat="38.81798" lon="-0.0078">
        <ele>81</ele>
        <time>2021-01-31 12:59:41</time>
      </trkpt>
      <trkpt lat="38.81793" lon="-0.00783">
        <ele>80.4</ele>
        <time>2021-01-31 12:59:42</time>
      </trkpt>
      <trkpt lat="38.81789" lon="-0.00786">
        <ele>80.4</ele>
        <time>2021-01-31 12:59:43</time>
      </trkpt>
      <trkpt lat="38.81785" lon="-0.00789">
        <ele>80.4</ele>
        <time>2021-01-31 12:59:44</time>
      </trkpt>
      <trkpt lat="38.81781" lon="-0.00792">
        <ele>80.4</ele>
        <time>2021-01-31 12:59:45</time>
      </trkpt>
      <trkpt lat="38.81777" lon="-0.00795">
        <ele>80.4</ele>
        <time>2021-01-31 12:59:46</time>
      </trkpt>
      <trkpt lat="38.81773" lon="-0.00798">
        <ele>80.8</ele>
        <time>2021-01-31 12:59:47</time>
      </trkpt>
      <trkpt lat="38.81769" lon="-0.00801">
        <ele>80.8</ele>
        <time>2021-01-31 12:59:48</time>
      </trkpt>
      <trkpt lat="38.81764" lon="-0.00805">
        <ele>80.8</ele>
        <time>2021-01-31 12:59:49</time>
      </trkpt>
      <trkpt lat="38.8176" lon="-0.00808">
        <ele>80.8</ele>
        <time>2021-01-31 12:59:50</time>
      </trkpt>
      <trkpt lat="38.81756" lon="-0.00811">
        <ele>80.6</ele>
        <time>2021-01-31 12:59:51</time>
      </trkpt>
      <trkpt lat="38.81752" lon="-0.00815">
        <ele>80.6</ele>
        <time>2021-01-31 12:59:52</time>
      </trkpt>
      <trkpt lat="38.81748" lon="-0.00819">
        <ele>80.6</ele>
        <time>2021-01-31 12:59:53</time>
      </trkpt>
      <trkpt lat="38.81745" lon="-0.00823">
        <ele>80.6</ele>
        <time>2021-01-31 12:59:54</time>
      </trkpt>
      <trkpt lat="38.81741" lon="-0.00827">
        <ele>80.6</ele>
        <time>2021-01-31 12:59:55</time>
      </trkpt>
      <trkpt lat="38.81741" lon="-0.00827">
        <ele>80.6</ele>
        <time>2021-01-31 12:59:56</time>
      </trkpt>
      <trkpt lat="38.81741" lon="-0.00827">
        <ele>80.6</ele>
        <time>2021-01-31 12:59:57</time>
      </trkpt>
      <trkpt lat="38.81741" lon="-0.00827">
        <ele>81</ele>
        <time>2021-01-31 12:59:58</time>
      </trkpt>
      <trkpt lat="38.81726" lon="-0.00846">
        <ele>80.6</ele>
        <time>2021-01-31 12:59:59</time>
      </trkpt>
      <trkpt lat="38.81723" lon="-0.00851">
        <ele>80.6</ele>
        <time>2021-01-31 13:00:00</time>
      </trkpt>
      <trkpt lat="38.8172" lon="-0.00856">
        <ele>80.6</ele>
        <time>2021-01-31 13:00:01</time>
      </trkpt>
      <trkpt lat="38.81716" lon="-0.00861">
        <ele>80.8</ele>
        <time>2021-01-31 13:00:02</time>
      </trkpt>
      <trkpt lat="38.81713" lon="-0.00866">
        <ele>80.4</ele>
        <time>2021-01-31 13:00:03</time>
      </trkpt>
      <trkpt lat="38.8171" lon="-0.00871">
        <ele>80.4</ele>
        <time>2021-01-31 13:00:04</time>
      </trkpt>
      <trkpt lat="38.81707" lon="-0.00876">
        <ele>80.4</ele>
        <time>2021-01-31 13:00:05</time>
      </trkpt>
      <trkpt lat="38.81704" lon="-0.00881">
        <ele>81.2</ele>
        <time>2021-01-31 13:00:06</time>
      </trkpt>
      <trkpt lat="38.81701" lon="-0.00886">
        <ele>81.6</ele>
        <time>2021-01-31 13:00:07</time>
      </trkpt>
      <trkpt lat="38.81698" lon="-0.00892">
        <ele>81.6</ele>
        <time>2021-01-31 13:00:08</time>
      </trkpt>
      <trkpt lat="38.81695" lon="-0.00897">
        <ele>81.6</ele>
        <time>2021-01-31 13:00:09</time>
      </trkpt>
      <trkpt lat="38.81692" lon="-0.00903">
        <ele>81.6</ele>
        <time>2021-01-31 13:00:10</time>
      </trkpt>
      <trkpt lat="38.8169" lon="-0.00909">
        <ele>81.4</ele>
        <time>2021-01-31 13:00:11</time>
      </trkpt>
      <trkpt lat="38.81687" lon="-0.00915">
        <ele>81.4</ele>
        <time>2021-01-31 13:00:12</time>
      </trkpt>
      <trkpt lat="38.81684" lon="-0.00921">
        <ele>81.4</ele>
        <time>2021-01-31 13:00:13</time>
      </trkpt>
      <trkpt lat="38.81682" lon="-0.00926">
        <ele>81.4</ele>
        <time>2021-01-31 13:00:14</time>
      </trkpt>
      <trkpt lat="38.8168" lon="-0.00932">
        <ele>80.6</ele>
        <time>2021-01-31 13:00:15</time>
      </trkpt>
      <trkpt lat="38.81678" lon="-0.00938">
        <ele>80.6</ele>
        <time>2021-01-31 13:00:16</time>
      </trkpt>
      <trkpt lat="38.81676" lon="-0.00943">
        <ele>80.6</ele>
        <time>2021-01-31 13:00:17</time>
      </trkpt>
      <trkpt lat="38.81674" lon="-0.00949">
        <ele>81.6</ele>
        <time>2021-01-31 13:00:18</time>
      </trkpt>
      <trkpt lat="38.81672" lon="-0.00954">
        <ele>81.8</ele>
        <time>2021-01-31 13:00:19</time>
      </trkpt>
      <trkpt lat="38.8167" lon="-0.0096">
        <ele>81.8</ele>
        <time>2021-01-31 13:00:20</time>
      </trkpt>
      <trkpt lat="38.81668" lon="-0.00966">
        <ele>81.8</ele>
        <time>2021-01-31 13:00:21</time>
      </trkpt>
      <trkpt lat="38.81666" lon="-0.00972">
        <ele>80.8</ele>
        <time>2021-01-31 13:00:22</time>
      </trkpt>
      <trkpt lat="38.81664" lon="-0.00979">
        <ele>81</ele>
        <time>2021-01-31 13:00:23</time>
      </trkpt>
      <trkpt lat="38.81662" lon="-0.00986">
        <ele>81</ele>
        <time>2021-01-31 13:00:24</time>
      </trkpt>
      <trkpt lat="38.8166" lon="-0.00994">
        <ele>81</ele>
        <time>2021-01-31 13:00:25</time>
      </trkpt>
      <trkpt lat="38.81659" lon="-0.01001">
        <ele>80</ele>
        <time>2021-01-31 13:00:26</time>
      </trkpt>
      <trkpt lat="38.81658" lon="-0.0101">
        <ele>78.6</ele>
        <time>2021-01-31 13:00:27</time>
      </trkpt>
      <trkpt lat="38.81656" lon="-0.01018">
        <ele>78.6</ele>
        <time>2021-01-31 13:00:28</time>
      </trkpt>
      <trkpt lat="38.81655" lon="-0.01026">
        <ele>78.6</ele>
        <time>2021-01-31 13:00:29</time>
      </trkpt>
      <trkpt lat="38.81654" lon="-0.01035">
        <ele>78</ele>
        <time>2021-01-31 13:00:30</time>
      </trkpt>
      <trkpt lat="38.81654" lon="-0.01043">
        <ele>78.6</ele>
        <time>2021-01-31 13:00:31</time>
      </trkpt>
      <trkpt lat="38.81653" lon="-0.01051">
        <ele>78.6</ele>
        <time>2021-01-31 13:00:32</time>
      </trkpt>
      <trkpt lat="38.81653" lon="-0.01059">
        <ele>78.6</ele>
        <time>2021-01-31 13:00:33</time>
      </trkpt>
      <trkpt lat="38.81653" lon="-0.01067">
        <ele>77.6</ele>
        <time>2021-01-31 13:00:34</time>
      </trkpt>
      <trkpt lat="38.81653" lon="-0.01075">
        <ele>78.2</ele>
        <time>2021-01-31 13:00:35</time>
      </trkpt>
      <trkpt lat="38.81653" lon="-0.01083">
        <ele>78.2</ele>
        <time>2021-01-31 13:00:36</time>
      </trkpt>
      <trkpt lat="38.81653" lon="-0.0109">
        <ele>78.2</ele>
        <time>2021-01-31 13:00:37</time>
      </trkpt>
      <trkpt lat="38.81653" lon="-0.01098">
        <ele>78.8</ele>
        <time>2021-01-31 13:00:38</time>
      </trkpt>
      <trkpt lat="38.81652" lon="-0.01105">
        <ele>78.8</ele>
        <time>2021-01-31 13:00:39</time>
      </trkpt>
      <trkpt lat="38.81652" lon="-0.01105">
        <ele>78.8</ele>
        <time>2021-01-31 13:00:40</time>
      </trkpt>
      <trkpt lat="38.81652" lon="-0.01105">
        <ele>78.8</ele>
        <time>2021-01-31 13:00:41</time>
      </trkpt>
      <trkpt lat="38.81652" lon="-0.01105">
        <ele>81</ele>
        <time>2021-01-31 13:00:42</time>
      </trkpt>
      <trkpt lat="38.8165" lon="-0.0113">
        <ele>81.8</ele>
        <time>2021-01-31 13:00:43</time>
      </trkpt>
      <trkpt lat="38.81649" lon="-0.01136">
        <ele>81.8</ele>
        <time>2021-01-31 13:00:44</time>
      </trkpt>
      <trkpt lat="38.81648" lon="-0.01141">
        <ele>81.8</ele>
        <time>2021-01-31 13:00:45</time>
      </trkpt>
      <trkpt lat="38.81647" lon="-0.01145">
        <ele>81.8</ele>
        <time>2021-01-31 13:00:46</time>
      </trkpt>
      <trkpt lat="38.81646" lon="-0.0115">
        <ele>83.6</ele>
        <time>2021-01-31 13:00:47</time>
      </trkpt>
      <trkpt lat="38.81645" lon="-0.01154">
        <ele>83.6</ele>
        <time>2021-01-31 13:00:48</time>
      </trkpt>
      <trkpt lat="38.81644" lon="-0.01158">
        <ele>83.6</ele>
        <time>2021-01-31 13:00:49</time>
      </trkpt>
      <trkpt lat="38.81643" lon="-0.01161">
        <ele>84.2</ele>
        <time>2021-01-31 13:00:50</time>
      </trkpt>
      <trkpt lat="38.81641" lon="-0.01165">
        <ele>84.6</ele>
        <time>2021-01-31 13:00:51</time>
      </trkpt>
      <trkpt lat="38.8164" lon="-0.01168">
        <ele>84.6</ele>
        <time>2021-01-31 13:00:52</time>
      </trkpt>
      <trkpt lat="38.81638" lon="-0.01172">
        <ele>84.6</ele>
        <time>2021-01-31 13:00:53</time>
      </trkpt>
      <trkpt lat="38.81637" lon="-0.01175">
        <ele>84.8</ele>
        <time>2021-01-31 13:00:54</time>
      </trkpt>
      <trkpt lat="38.81634" lon="-0.01179">
        <ele>84.8</ele>
        <time>2021-01-31 13:00:55</time>
      </trkpt>
      <trkpt lat="38.81632" lon="-0.01182">
        <ele>84.8</ele>
        <time>2021-01-31 13:00:56</time>
      </trkpt>
      <trkpt lat="38.8163" lon="-0.01186">
        <ele>84.8</ele>
        <time>2021-01-31 13:00:57</time>
      </trkpt>
      <trkpt lat="38.81628" lon="-0.0119">
        <ele>85.8</ele>
        <time>2021-01-31 13:00:58</time>
      </trkpt>
      <trkpt lat="38.81625" lon="-0.01194">
        <ele>85.4</ele>
        <time>2021-01-31 13:00:59</time>
      </trkpt>
      <trkpt lat="38.81623" lon="-0.01199">
        <ele>85.4</ele>
        <time>2021-01-31 13:01:00</time>
      </trkpt>
      <trkpt lat="38.8162" lon="-0.01203">
        <ele>85.4</ele>
        <time>2021-01-31 13:01:01</time>
      </trkpt>
      <trkpt lat="38.81617" lon="-0.01207">
        <ele>85.4</ele>
        <time>2021-01-31 13:01:02</time>
      </trkpt>
      <trkpt lat="38.81615" lon="-0.01212">
        <ele>85.4</ele>
        <time>2021-01-31 13:01:03</time>
      </trkpt>
      <trkpt lat="38.81615" lon="-0.01212">
        <ele>85.4</ele>
        <time>2021-01-31 13:01:04</time>
      </trkpt>
      <trkpt lat="38.81615" lon="-0.01212">
        <ele>85.4</ele>
        <time>2021-01-31 13:01:05</time>
      </trkpt>
      <trkpt lat="38.81615" lon="-0.01212">
        <ele>85.4</ele>
        <time>2021-01-31 13:01:06</time>
      </trkpt>
      <trkpt lat="38.81603" lon="-0.01231">
        <ele>85.4</ele>
        <time>2021-01-31 13:01:07</time>
      </trkpt>
      <trkpt lat="38.816" lon="-0.01235">
        <ele>85.4</ele>
        <time>2021-01-31 13:01:08</time>
      </trkpt>
      <trkpt lat="38.81597" lon="-0.0124">
        <ele>85.4</ele>
        <time>2021-01-31 13:01:09</time>
      </trkpt>
      <trkpt lat="38.81594" lon="-0.01245">
        <ele>85.4</ele>
        <time>2021-01-31 13:01:10</time>
      </trkpt>
      <trkpt lat="38.81591" lon="-0.01251">
        <ele>85.4</ele>
        <time>2021-01-31 13:01:11</time>
      </trkpt>
      <trkpt lat="38.81588" lon="-0.01256">
        <ele>85.4</ele>
        <time>2021-01-31 13:01:12</time>
      </trkpt>
      <trkpt lat="38.81585" lon="-0.01261">
        <ele>85.4</ele>
        <time>2021-01-31 13:01:13</time>
      </trkpt>
      <trkpt lat="38.81582" lon="-0.01266">
        <ele>85.4</ele>
        <time>2021-01-31 13:01:14</time>
      </trkpt>
      <trkpt lat="38.81578" lon="-0.01272">
        <ele>84.8</ele>
        <time>2021-01-31 13:01:15</time>
      </trkpt>
      <trkpt lat="38.81575" lon="-0.01277">
        <ele>84.8</ele>
        <time>2021-01-31 13:01:16</time>
      </trkpt>
      <trkpt lat="38.81572" lon="-0.01282">
        <ele>84.8</ele>
        <time>2021-01-31 13:01:17</time>
      </trkpt>
      <trkpt lat="38.81569" lon="-0.01287">
        <ele>84.8</ele>
        <time>2021-01-31 13:01:18</time>
      </trkpt>
      <trkpt lat="38.81566" lon="-0.01292">
        <ele>85.8</ele>
        <time>2021-01-31 13:01:19</time>
      </trkpt>
      <trkpt lat="38.81562" lon="-0.01297">
        <ele>85.8</ele>
        <time>2021-01-31 13:01:20</time>
      </trkpt>
      <trkpt lat="38.81559" lon="-0.01302">
        <ele>85.8</ele>
        <time>2021-01-31 13:01:21</time>
      </trkpt>
      <trkpt lat="38.81556" lon="-0.01308">
        <ele>84.8</ele>
        <time>2021-01-31 13:01:22</time>
      </trkpt>
      <trkpt lat="38.81553" lon="-0.01313">
        <ele>84.8</ele>
        <time>2021-01-31 13:01:23</time>
      </trkpt>
      <trkpt lat="38.8155" lon="-0.01318">
        <ele>84.8</ele>
        <time>2021-01-31 13:01:24</time>
      </trkpt>
      <trkpt lat="38.81547" lon="-0.01323">
        <ele>84.8</ele>
        <time>2021-01-31 13:01:25</time>
      </trkpt>
      <trkpt lat="38.81545" lon="-0.01329">
        <ele>84.8</ele>
        <time>2021-01-31 13:01:26</time>
      </trkpt>
      <trkpt lat="38.81542" lon="-0.01334">
        <ele>85.2</ele>
        <time>2021-01-31 13:01:27</time>
      </trkpt>
      <trkpt lat="38.8154" lon="-0.0134">
        <ele>85.2</ele>
        <time>2021-01-31 13:01:28</time>
      </trkpt>
      <trkpt lat="38.81538" lon="-0.01346">
        <ele>85.2</ele>
        <time>2021-01-31 13:01:29</time>
      </trkpt>
      <trkpt lat="38.81536" lon="-0.01352">
        <ele>85.2</ele>
        <time>2021-01-31 13:01:30</time>
      </trkpt>
      <trkpt lat="38.81534" lon="-0.01358">
        <ele>85.4</ele>
        <time>2021-01-31 13:01:31</time>
      </trkpt>
      <trkpt lat="38.81532" lon="-0.01364">
        <ele>85.4</ele>
        <time>2021-01-31 13:01:32</time>
      </trkpt>
      <trkpt lat="38.81531" lon="-0.0137">
        <ele>85.4</ele>
        <time>2021-01-31 13:01:33</time>
      </trkpt>
      <trkpt lat="38.81529" lon="-0.01376">
        <ele>85.4</ele>
        <time>2021-01-31 13:01:34</time>
      </trkpt>
      <trkpt lat="38.81529" lon="-0.01376">
        <ele>85.4</ele>
        <time>2021-01-31 13:01:35</time>
      </trkpt>
      <trkpt lat="38.81529" lon="-0.01376">
        <ele>85.4</ele>
        <time>2021-01-31 13:01:36</time>
      </trkpt>
      <trkpt lat="38.81529" lon="-0.01376">
        <ele>85.8</ele>
        <time>2021-01-31 13:01:37</time>
      </trkpt>
      <trkpt lat="38.81524" lon="-0.01399">
        <ele>84.8</ele>
        <time>2021-01-31 13:01:38</time>
      </trkpt>
      <trkpt lat="38.81523" lon="-0.01404">
        <ele>85.2</ele>
        <time>2021-01-31 13:01:39</time>
      </trkpt>
      <trkpt lat="38.81521" lon="-0.01409">
        <ele>85.2</ele>
        <time>2021-01-31 13:01:40</time>
      </trkpt>
      <trkpt lat="38.8152" lon="-0.01414">
        <ele>85.2</ele>
        <time>2021-01-31 13:01:41</time>
      </trkpt>
      <trkpt lat="38.81519" lon="-0.01419">
        <ele>86.2</ele>
        <time>2021-01-31 13:01:42</time>
      </trkpt>
      <trkpt lat="38.81518" lon="-0.01424">
        <ele>85.8</ele>
        <time>2021-01-31 13:01:43</time>
      </trkpt>
      <trkpt lat="38.81516" lon="-0.01429">
        <ele>85.8</ele>
        <time>2021-01-31 13:01:44</time>
      </trkpt>
      <trkpt lat="38.81515" lon="-0.01434">
        <ele>85.8</ele>
        <time>2021-01-31 13:01:45</time>
      </trkpt>
      <trkpt lat="38.81514" lon="-0.01439">
        <ele>86</ele>
        <time>2021-01-31 13:01:46</time>
      </trkpt>
      <trkpt lat="38.81513" lon="-0.01444">
        <ele>86.6</ele>
        <time>2021-01-31 13:01:47</time>
      </trkpt>
      <trkpt lat="38.81512" lon="-0.01449">
        <ele>86.6</ele>
        <time>2021-01-31 13:01:48</time>
      </trkpt>
      <trkpt lat="38.8151" lon="-0.01454">
        <ele>86.6</ele>
        <time>2021-01-31 13:01:49</time>
      </trkpt>
      <trkpt lat="38.81509" lon="-0.01459">
        <ele>86.2</ele>
        <time>2021-01-31 13:01:50</time>
      </trkpt>
      <trkpt lat="38.81508" lon="-0.01464">
        <ele>86</ele>
        <time>2021-01-31 13:01:51</time>
      </trkpt>
      <trkpt lat="38.81507" lon="-0.01469">
        <ele>86</ele>
        <time>2021-01-31 13:01:52</time>
      </trkpt>
      <trkpt lat="38.81505" lon="-0.01474">
        <ele>86</ele>
        <time>2021-01-31 13:01:53</time>
      </trkpt>
      <trkpt lat="38.81504" lon="-0.01478">
        <ele>87</ele>
        <time>2021-01-31 13:01:54</time>
      </trkpt>
      <trkpt lat="38.81503" lon="-0.01483">
        <ele>88</ele>
        <time>2021-01-31 13:01:55</time>
      </trkpt>
      <trkpt lat="38.81502" lon="-0.01488">
        <ele>88</ele>
        <time>2021-01-31 13:01:56</time>
      </trkpt>
      <trkpt lat="38.81501" lon="-0.01493">
        <ele>88</ele>
        <time>2021-01-31 13:01:57</time>
      </trkpt>
      <trkpt lat="38.81499" lon="-0.01497">
        <ele>89</ele>
        <time>2021-01-31 13:01:58</time>
      </trkpt>
      <trkpt lat="38.81498" lon="-0.01502">
        <ele>89</ele>
        <time>2021-01-31 13:01:59</time>
      </trkpt>
      <trkpt lat="38.81497" lon="-0.01506">
        <ele>89</ele>
        <time>2021-01-31 13:02:00</time>
      </trkpt>
      <trkpt lat="38.81496" lon="-0.01511">
        <ele>89</ele>
        <time>2021-01-31 13:02:01</time>
      </trkpt>
      <trkpt lat="38.81495" lon="-0.01515">
        <ele>89</ele>
        <time>2021-01-31 13:02:02</time>
      </trkpt>
      <trkpt lat="38.81494" lon="-0.0152">
        <ele>91.2</ele>
        <time>2021-01-31 13:02:03</time>
      </trkpt>
      <trkpt lat="38.81493" lon="-0.01523">
        <ele>91.2</ele>
        <time>2021-01-31 13:02:04</time>
      </trkpt>
      <trkpt lat="38.81492" lon="-0.01526">
        <ele>91.2</ele>
        <time>2021-01-31 13:02:05</time>
      </trkpt>
      <trkpt lat="38.81491" lon="-0.01529">
        <ele>91.2</ele>
        <time>2021-01-31 13:02:06</time>
      </trkpt>
      <trkpt lat="38.81491" lon="-0.01532">
        <ele>92</ele>
        <time>2021-01-31 13:02:07</time>
      </trkpt>
      <trkpt lat="38.8149" lon="-0.01535">
        <ele>92</ele>
        <time>2021-01-31 13:02:08</time>
      </trkpt>
      <trkpt lat="38.81489" lon="-0.01538">
        <ele>92</ele>
        <time>2021-01-31 13:02:09</time>
      </trkpt>
      <trkpt lat="38.81488" lon="-0.01542">
        <ele>91</ele>
        <time>2021-01-31 13:02:10</time>
      </trkpt>
      <trkpt lat="38.81487" lon="-0.01546">
        <ele>90.4</ele>
        <time>2021-01-31 13:02:11</time>
      </trkpt>
      <trkpt lat="38.81486" lon="-0.0155">
        <ele>90.4</ele>
        <time>2021-01-31 13:02:12</time>
      </trkpt>
      <trkpt lat="38.81486" lon="-0.01553">
        <ele>90.4</ele>
        <time>2021-01-31 13:02:13</time>
      </trkpt>
      <trkpt lat="38.81485" lon="-0.01557">
        <ele>90.4</ele>
        <time>2021-01-31 13:02:14</time>
      </trkpt>
      <trkpt lat="38.81484" lon="-0.01561">
        <ele>90.4</ele>
        <time>2021-01-31 13:02:15</time>
      </trkpt>
      <trkpt lat="38.81483" lon="-0.01564">
        <ele>90.4</ele>
        <time>2021-01-31 13:02:16</time>
      </trkpt>
      <trkpt lat="38.81482" lon="-0.01568">
        <ele>90.4</ele>
        <time>2021-01-31 13:02:17</time>
      </trkpt>
      <trkpt lat="38.81481" lon="-0.01572">
        <ele>90.4</ele>
        <time>2021-01-31 13:02:18</time>
      </trkpt>
      <trkpt lat="38.8148" lon="-0.01576">
        <ele>94</ele>
        <time>2021-01-31 13:02:19</time>
      </trkpt>
      <trkpt lat="38.8148" lon="-0.01579">
        <ele>94</ele>
        <time>2021-01-31 13:02:20</time>
      </trkpt>
      <trkpt lat="38.81479" lon="-0.01583">
        <ele>94</ele>
        <time>2021-01-31 13:02:21</time>
      </trkpt>
      <trkpt lat="38.81478" lon="-0.01587">
        <ele>94</ele>
        <time>2021-01-31 13:02:22</time>
      </trkpt>
      <trkpt lat="38.81477" lon="-0.0159">
        <ele>90</ele>
        <time>2021-01-31 13:02:23</time>
      </trkpt>
      <trkpt lat="38.81476" lon="-0.01594">
        <ele>90</ele>
        <time>2021-01-31 13:02:24</time>
      </trkpt>
      <trkpt lat="38.81475" lon="-0.01597">
        <ele>90</ele>
        <time>2021-01-31 13:02:25</time>
      </trkpt>
      <trkpt lat="38.81474" lon="-0.01601">
        <ele>90</ele>
        <time>2021-01-31 13:02:26</time>
      </trkpt>
      <trkpt lat="38.81474" lon="-0.01604">
        <ele>94.4</ele>
        <time>2021-01-31 13:02:27</time>
      </trkpt>
      <trkpt lat="38.81473" lon="-0.01608">
        <ele>94.4</ele>
        <time>2021-01-31 13:02:28</time>
      </trkpt>
      <trkpt lat="38.81472" lon="-0.01611">
        <ele>94.4</ele>
        <time>2021-01-31 13:02:29</time>
      </trkpt>
      <trkpt lat="38.81471" lon="-0.01615">
        <ele>93.4</ele>
        <time>2021-01-31 13:02:30</time>
      </trkpt>
      <trkpt lat="38.8147" lon="-0.01618">
        <ele>93.6</ele>
        <time>2021-01-31 13:02:31</time>
      </trkpt>
      <trkpt lat="38.81469" lon="-0.01622">
        <ele>93.6</ele>
        <time>2021-01-31 13:02:32</time>
      </trkpt>
      <trkpt lat="38.81469" lon="-0.01625">
        <ele>93.6</ele>
        <time>2021-01-31 13:02:33</time>
      </trkpt>
      <trkpt lat="38.81468" lon="-0.01629">
        <ele>93.6</ele>
        <time>2021-01-31 13:02:34</time>
      </trkpt>
      <trkpt lat="38.81467" lon="-0.01632">
        <ele>92.2</ele>
        <time>2021-01-31 13:02:35</time>
      </trkpt>
      <trkpt lat="38.81467" lon="-0.01635">
        <ele>92.2</ele>
        <time>2021-01-31 13:02:36</time>
      </trkpt>
      <trkpt lat="38.81466" lon="-0.01639">
        <ele>92.2</ele>
        <time>2021-01-31 13:02:37</time>
      </trkpt>
      <trkpt lat="38.81465" lon="-0.01642">
        <ele>93.2</ele>
        <time>2021-01-31 13:02:38</time>
      </trkpt>
      <trkpt lat="38.81465" lon="-0.01645">
        <ele>95.6</ele>
        <time>2021-01-31 13:02:39</time>
      </trkpt>
      <trkpt lat="38.81464" lon="-0.01649">
        <ele>95.6</ele>
        <time>2021-01-31 13:02:40</time>
      </trkpt>
      <trkpt lat="38.81463" lon="-0.01652">
        <ele>95.6</ele>
        <time>2021-01-31 13:02:41</time>
      </trkpt>
      <trkpt lat="38.81463" lon="-0.01656">
        <ele>94.6</ele>
        <time>2021-01-31 13:02:42</time>
      </trkpt>
      <trkpt lat="38.81462" lon="-0.0166">
        <ele>94.6</ele>
        <time>2021-01-31 13:02:43</time>
      </trkpt>
      <trkpt lat="38.81462" lon="-0.01663">
        <ele>94.6</ele>
        <time>2021-01-31 13:02:44</time>
      </trkpt>
      <trkpt lat="38.81462" lon="-0.01667">
        <ele>94.6</ele>
        <time>2021-01-31 13:02:45</time>
      </trkpt>
      <trkpt lat="38.81461" lon="-0.0167">
        <ele>94.6</ele>
        <time>2021-01-31 13:02:46</time>
      </trkpt>
      <trkpt lat="38.81461" lon="-0.01674">
        <ele>95.2</ele>
        <time>2021-01-31 13:02:47</time>
      </trkpt>
      <trkpt lat="38.81461" lon="-0.01678">
        <ele>95.2</ele>
        <time>2021-01-31 13:02:48</time>
      </trkpt>
      <trkpt lat="38.81461" lon="-0.01681">
        <ele>95.2</ele>
        <time>2021-01-31 13:02:49</time>
      </trkpt>
      <trkpt lat="38.81461" lon="-0.01685">
        <ele>95.2</ele>
        <time>2021-01-31 13:02:50</time>
      </trkpt>
      <trkpt lat="38.81461" lon="-0.01689">
        <ele>95.6</ele>
        <time>2021-01-31 13:02:51</time>
      </trkpt>
      <trkpt lat="38.81462" lon="-0.01692">
        <ele>95.6</ele>
        <time>2021-01-31 13:02:52</time>
      </trkpt>
      <trkpt lat="38.81461" lon="-0.01696">
        <ele>95.6</ele>
        <time>2021-01-31 13:02:53</time>
      </trkpt>
      <trkpt lat="38.81462" lon="-0.017">
        <ele>96.6</ele>
        <time>2021-01-31 13:02:54</time>
      </trkpt>
      <trkpt lat="38.81462" lon="-0.01703">
        <ele>97.8</ele>
        <time>2021-01-31 13:02:55</time>
      </trkpt>
      <trkpt lat="38.81462" lon="-0.01707">
        <ele>97.8</ele>
        <time>2021-01-31 13:02:56</time>
      </trkpt>
      <trkpt lat="38.81462" lon="-0.01711">
        <ele>97.8</ele>
        <time>2021-01-31 13:02:57</time>
      </trkpt>
      <trkpt lat="38.81462" lon="-0.01716">
        <ele>98.8</ele>
        <time>2021-01-31 13:02:58</time>
      </trkpt>
      <trkpt lat="38.81463" lon="-0.0172">
        <ele>98.6</ele>
        <time>2021-01-31 13:02:59</time>
      </trkpt>
      <trkpt lat="38.81463" lon="-0.01724">
        <ele>98.6</ele>
        <time>2021-01-31 13:03:00</time>
      </trkpt>
      <trkpt lat="38.81463" lon="-0.01729">
        <ele>98.6</ele>
        <time>2021-01-31 13:03:01</time>
      </trkpt>
      <trkpt lat="38.81463" lon="-0.01733">
        <ele>97.6</ele>
        <time>2021-01-31 13:03:02</time>
      </trkpt>
      <trkpt lat="38.81463" lon="-0.01738">
        <ele>98.6</ele>
        <time>2021-01-31 13:03:03</time>
      </trkpt>
      <trkpt lat="38.81463" lon="-0.01742">
        <ele>98.6</ele>
        <time>2021-01-31 13:03:04</time>
      </trkpt>
      <trkpt lat="38.81463" lon="-0.01747">
        <ele>98.6</ele>
        <time>2021-01-31 13:03:05</time>
      </trkpt>
      <trkpt lat="38.81463" lon="-0.01752">
        <ele>98.6</ele>
        <time>2021-01-31 13:03:06</time>
      </trkpt>
      <trkpt lat="38.81462" lon="-0.01756">
        <ele>98.6</ele>
        <time>2021-01-31 13:03:07</time>
      </trkpt>
      <trkpt lat="38.81462" lon="-0.01761">
        <ele>98.6</ele>
        <time>2021-01-31 13:03:08</time>
      </trkpt>
      <trkpt lat="38.81461" lon="-0.01766">
        <ele>98.6</ele>
        <time>2021-01-31 13:03:09</time>
      </trkpt>
      <trkpt lat="38.81461" lon="-0.01771">
        <ele>98.6</ele>
        <time>2021-01-31 13:03:10</time>
      </trkpt>
      <trkpt lat="38.8146" lon="-0.01776">
        <ele>98.6</ele>
        <time>2021-01-31 13:03:11</time>
      </trkpt>
      <trkpt lat="38.8146" lon="-0.01781">
        <ele>98.6</ele>
        <time>2021-01-31 13:03:12</time>
      </trkpt>
      <trkpt lat="38.8146" lon="-0.01786">
        <ele>98.6</ele>
        <time>2021-01-31 13:03:13</time>
      </trkpt>
      <trkpt lat="38.81459" lon="-0.01791">
        <ele>98.6</ele>
        <time>2021-01-31 13:03:14</time>
      </trkpt>
      <trkpt lat="38.81459" lon="-0.01797">
        <ele>98.2</ele>
        <time>2021-01-31 13:03:15</time>
      </trkpt>
      <trkpt lat="38.81458" lon="-0.01802">
        <ele>98.2</ele>
        <time>2021-01-31 13:03:16</time>
      </trkpt>
      <trkpt lat="38.81458" lon="-0.01807">
        <ele>98.2</ele>
        <time>2021-01-31 13:03:17</time>
      </trkpt>
      <trkpt lat="38.81457" lon="-0.01812">
        <ele>98.2</ele>
        <time>2021-01-31 13:03:18</time>
      </trkpt>
      <trkpt lat="38.81457" lon="-0.01817">
        <ele>99.6</ele>
        <time>2021-01-31 13:03:19</time>
      </trkpt>
      <trkpt lat="38.81456" lon="-0.01822">
        <ele>99.6</ele>
        <time>2021-01-31 13:03:20</time>
      </trkpt>
      <trkpt lat="38.81456" lon="-0.01827">
        <ele>99.6</ele>
        <time>2021-01-31 13:03:21</time>
      </trkpt>
      <trkpt lat="38.81455" lon="-0.01832">
        <ele>99.6</ele>
        <time>2021-01-31 13:03:22</time>
      </trkpt>
      <trkpt lat="38.81455" lon="-0.01837">
        <ele>99.6</ele>
        <time>2021-01-31 13:03:23</time>
      </trkpt>
      <trkpt lat="38.81454" lon="-0.01841">
        <ele>99.6</ele>
        <time>2021-01-31 13:03:24</time>
      </trkpt>
      <trkpt lat="38.81453" lon="-0.01846">
        <ele>99.6</ele>
        <time>2021-01-31 13:03:25</time>
      </trkpt>
      <trkpt lat="38.81452" lon="-0.01851">
        <ele>99.6</ele>
        <time>2021-01-31 13:03:26</time>
      </trkpt>
      <trkpt lat="38.8145" lon="-0.01856">
        <ele>99.2</ele>
        <time>2021-01-31 13:03:27</time>
      </trkpt>
      <trkpt lat="38.81449" lon="-0.01861">
        <ele>99.2</ele>
        <time>2021-01-31 13:03:28</time>
      </trkpt>
      <trkpt lat="38.81448" lon="-0.01865">
        <ele>99.2</ele>
        <time>2021-01-31 13:03:29</time>
      </trkpt>
      <trkpt lat="38.81447" lon="-0.0187">
        <ele>99.2</ele>
        <time>2021-01-31 13:03:30</time>
      </trkpt>
      <trkpt lat="38.81446" lon="-0.01874">
        <ele>99.4</ele>
        <time>2021-01-31 13:03:31</time>
      </trkpt>
      <trkpt lat="38.81445" lon="-0.01879">
        <ele>99.4</ele>
        <time>2021-01-31 13:03:32</time>
      </trkpt>
      <trkpt lat="38.81444" lon="-0.01883">
        <ele>99.4</ele>
        <time>2021-01-31 13:03:33</time>
      </trkpt>
      <trkpt lat="38.81443" lon="-0.01888">
        <ele>99.4</ele>
        <time>2021-01-31 13:03:34</time>
      </trkpt>
      <trkpt lat="38.81441" lon="-0.01893">
        <ele>99.6</ele>
        <time>2021-01-31 13:03:35</time>
      </trkpt>
      <trkpt lat="38.8144" lon="-0.01897">
        <ele>99.6</ele>
        <time>2021-01-31 13:03:36</time>
      </trkpt>
      <trkpt lat="38.81439" lon="-0.01902">
        <ele>99.6</ele>
        <time>2021-01-31 13:03:37</time>
      </trkpt>
      <trkpt lat="38.81437" lon="-0.01906">
        <ele>99</ele>
        <time>2021-01-31 13:03:38</time>
      </trkpt>
      <trkpt lat="38.81436" lon="-0.01911">
        <ele>99.6</ele>
        <time>2021-01-31 13:03:39</time>
      </trkpt>
      <trkpt lat="38.81435" lon="-0.01915">
        <ele>99.6</ele>
        <time>2021-01-31 13:03:40</time>
      </trkpt>
      <trkpt lat="38.81434" lon="-0.0192">
        <ele>99.6</ele>
        <time>2021-01-31 13:03:41</time>
      </trkpt>
      <trkpt lat="38.81433" lon="-0.01925">
        <ele>99.6</ele>
        <time>2021-01-31 13:03:42</time>
      </trkpt>
      <trkpt lat="38.81432" lon="-0.0193">
        <ele>98.8</ele>
        <time>2021-01-31 13:03:43</time>
      </trkpt>
      <trkpt lat="38.81431" lon="-0.01935">
        <ele>98.8</ele>
        <time>2021-01-31 13:03:44</time>
      </trkpt>
      <trkpt lat="38.8143" lon="-0.0194">
        <ele>98.8</ele>
        <time>2021-01-31 13:03:45</time>
      </trkpt>
      <trkpt lat="38.81429" lon="-0.01945">
        <ele>98.8</ele>
        <time>2021-01-31 13:03:46</time>
      </trkpt>
      <trkpt lat="38.81428" lon="-0.0195">
        <ele>98.6</ele>
        <time>2021-01-31 13:03:47</time>
      </trkpt>
      <trkpt lat="38.81428" lon="-0.01955">
        <ele>98.6</ele>
        <time>2021-01-31 13:03:48</time>
      </trkpt>
      <trkpt lat="38.81427" lon="-0.01959">
        <ele>98.6</ele>
        <time>2021-01-31 13:03:49</time>
      </trkpt>
      <trkpt lat="38.81427" lon="-0.01964">
        <ele>98.6</ele>
        <time>2021-01-31 13:03:50</time>
      </trkpt>
      <trkpt lat="38.81427" lon="-0.01969">
        <ele>98.6</ele>
        <time>2021-01-31 13:03:51</time>
      </trkpt>
      <trkpt lat="38.81427" lon="-0.01974">
        <ele>98.6</ele>
        <time>2021-01-31 13:03:52</time>
      </trkpt>
      <trkpt lat="38.81427" lon="-0.01979">
        <ele>98.6</ele>
        <time>2021-01-31 13:03:53</time>
      </trkpt>
      <trkpt lat="38.81427" lon="-0.01984">
        <ele>98.4</ele>
        <time>2021-01-31 13:03:54</time>
      </trkpt>
      <trkpt lat="38.81427" lon="-0.0199">
        <ele>97.6</ele>
        <time>2021-01-31 13:03:55</time>
      </trkpt>
      <trkpt lat="38.81428" lon="-0.01995">
        <ele>97.6</ele>
        <time>2021-01-31 13:03:56</time>
      </trkpt>
      <trkpt lat="38.81428" lon="-0.02001">
        <ele>97.6</ele>
        <time>2021-01-31 13:03:57</time>
      </trkpt>
      <trkpt lat="38.81429" lon="-0.02006">
        <ele>97</ele>
        <time>2021-01-31 13:03:58</time>
      </trkpt>
      <trkpt lat="38.81429" lon="-0.02012">
        <ele>97</ele>
        <time>2021-01-31 13:03:59</time>
      </trkpt>
      <trkpt lat="38.8143" lon="-0.02018">
        <ele>97</ele>
        <time>2021-01-31 13:04:00</time>
      </trkpt>
      <trkpt lat="38.81431" lon="-0.02023">
        <ele>97</ele>
        <time>2021-01-31 13:04:01</time>
      </trkpt>
      <trkpt lat="38.81432" lon="-0.02029">
        <ele>97</ele>
        <time>2021-01-31 13:04:02</time>
      </trkpt>
      <trkpt lat="38.81433" lon="-0.02035">
        <ele>97.2</ele>
        <time>2021-01-31 13:04:03</time>
      </trkpt>
      <trkpt lat="38.81435" lon="-0.02041">
        <ele>97.2</ele>
        <time>2021-01-31 13:04:04</time>
      </trkpt>
      <trkpt lat="38.81436" lon="-0.02047">
        <ele>97.2</ele>
        <time>2021-01-31 13:04:05</time>
      </trkpt>
      <trkpt lat="38.81438" lon="-0.02053">
        <ele>97.2</ele>
        <time>2021-01-31 13:04:06</time>
      </trkpt>
      <trkpt lat="38.8144" lon="-0.02059">
        <ele>98.4</ele>
        <time>2021-01-31 13:04:07</time>
      </trkpt>
      <trkpt lat="38.81442" lon="-0.02065">
        <ele>98.4</ele>
        <time>2021-01-31 13:04:08</time>
      </trkpt>
      <trkpt lat="38.81445" lon="-0.02071">
        <ele>98.4</ele>
        <time>2021-01-31 13:04:09</time>
      </trkpt>
      <trkpt lat="38.81447" lon="-0.02077">
        <ele>97.8</ele>
        <time>2021-01-31 13:04:10</time>
      </trkpt>
      <trkpt lat="38.81449" lon="-0.02083">
        <ele>99.4</ele>
        <time>2021-01-31 13:04:11</time>
      </trkpt>
      <trkpt lat="38.81452" lon="-0.02088">
        <ele>99.4</ele>
        <time>2021-01-31 13:04:12</time>
      </trkpt>
      <trkpt lat="38.81455" lon="-0.02094">
        <ele>99.4</ele>
        <time>2021-01-31 13:04:13</time>
      </trkpt>
      <trkpt lat="38.81457" lon="-0.02099">
        <ele>98.4</ele>
        <time>2021-01-31 13:04:14</time>
      </trkpt>
      <trkpt lat="38.8146" lon="-0.02105">
        <ele>98.2</ele>
        <time>2021-01-31 13:04:15</time>
      </trkpt>
      <trkpt lat="38.81463" lon="-0.02112">
        <ele>98.2</ele>
        <time>2021-01-31 13:04:16</time>
      </trkpt>
      <trkpt lat="38.81466" lon="-0.02119">
        <ele>98.2</ele>
        <time>2021-01-31 13:04:17</time>
      </trkpt>
      <trkpt lat="38.81469" lon="-0.02126">
        <ele>97.2</ele>
        <time>2021-01-31 13:04:18</time>
      </trkpt>
      <trkpt lat="38.81472" lon="-0.02133">
        <ele>96.6</ele>
        <time>2021-01-31 13:04:19</time>
      </trkpt>
      <trkpt lat="38.81474" lon="-0.02141">
        <ele>96.6</ele>
        <time>2021-01-31 13:04:20</time>
      </trkpt>
      <trkpt lat="38.81477" lon="-0.0215">
        <ele>96.6</ele>
        <time>2021-01-31 13:04:21</time>
      </trkpt>
      <trkpt lat="38.81479" lon="-0.02158">
        <ele>95.6</ele>
        <time>2021-01-31 13:04:22</time>
      </trkpt>
      <trkpt lat="38.81481" lon="-0.02167">
        <ele>94</ele>
        <time>2021-01-31 13:04:23</time>
      </trkpt>
      <trkpt lat="38.81483" lon="-0.02176">
        <ele>94</ele>
        <time>2021-01-31 13:04:24</time>
      </trkpt>
      <trkpt lat="38.81484" lon="-0.02186">
        <ele>94</ele>
        <time>2021-01-31 13:04:25</time>
      </trkpt>
      <trkpt lat="38.81486" lon="-0.02195">
        <ele>93</ele>
        <time>2021-01-31 13:04:26</time>
      </trkpt>
      <trkpt lat="38.81487" lon="-0.02205">
        <ele>91</ele>
        <time>2021-01-31 13:04:27</time>
      </trkpt>
      <trkpt lat="38.81489" lon="-0.02214">
        <ele>91</ele>
        <time>2021-01-31 13:04:28</time>
      </trkpt>
      <trkpt lat="38.81491" lon="-0.02224">
        <ele>91</ele>
        <time>2021-01-31 13:04:29</time>
      </trkpt>
      <trkpt lat="38.81493" lon="-0.02233">
        <ele>91</ele>
        <time>2021-01-31 13:04:30</time>
      </trkpt>
      <trkpt lat="38.81495" lon="-0.02243">
        <ele>89.6</ele>
        <time>2021-01-31 13:04:31</time>
      </trkpt>
      <trkpt lat="38.81498" lon="-0.02252">
        <ele>89.6</ele>
        <time>2021-01-31 13:04:32</time>
      </trkpt>
      <trkpt lat="38.815" lon="-0.02262">
        <ele>89.6</ele>
        <time>2021-01-31 13:04:33</time>
      </trkpt>
      <trkpt lat="38.81502" lon="-0.02271">
        <ele>89.6</ele>
        <time>2021-01-31 13:04:34</time>
      </trkpt>
      <trkpt lat="38.81505" lon="-0.02281">
        <ele>89.4</ele>
        <time>2021-01-31 13:04:35</time>
      </trkpt>
      <trkpt lat="38.81507" lon="-0.0229">
        <ele>89.4</ele>
        <time>2021-01-31 13:04:36</time>
      </trkpt>
      <trkpt lat="38.8151" lon="-0.02299">
        <ele>89.4</ele>
        <time>2021-01-31 13:04:37</time>
      </trkpt>
      <trkpt lat="38.81512" lon="-0.02308">
        <ele>89.4</ele>
        <time>2021-01-31 13:04:38</time>
      </trkpt>
      <trkpt lat="38.81515" lon="-0.02316">
        <ele>89.6</ele>
        <time>2021-01-31 13:04:39</time>
      </trkpt>
      <trkpt lat="38.81518" lon="-0.02325">
        <ele>89.6</ele>
        <time>2021-01-31 13:04:40</time>
      </trkpt>
      <trkpt lat="38.8152" lon="-0.02333">
        <ele>89.6</ele>
        <time>2021-01-31 13:04:41</time>
      </trkpt>
      <trkpt lat="38.81522" lon="-0.02341">
        <ele>89.6</ele>
        <time>2021-01-31 13:04:42</time>
      </trkpt>
      <trkpt lat="38.81525" lon="-0.02349">
        <ele>90</ele>
        <time>2021-01-31 13:04:43</time>
      </trkpt>
      <trkpt lat="38.81527" lon="-0.02357">
        <ele>90</ele>
        <time>2021-01-31 13:04:44</time>
      </trkpt>
      <trkpt lat="38.81529" lon="-0.02364">
        <ele>90</ele>
        <time>2021-01-31 13:04:45</time>
      </trkpt>
      <trkpt lat="38.81531" lon="-0.02372">
        <ele>90</ele>
        <time>2021-01-31 13:04:46</time>
      </trkpt>
      <trkpt lat="38.81533" lon="-0.02379">
        <ele>91.4</ele>
        <time>2021-01-31 13:04:47</time>
      </trkpt>
      <trkpt lat="38.81535" lon="-0.02387">
        <ele>91.4</ele>
        <time>2021-01-31 13:04:48</time>
      </trkpt>
      <trkpt lat="38.81537" lon="-0.02394">
        <ele>91.4</ele>
        <time>2021-01-31 13:04:49</time>
      </trkpt>
      <trkpt lat="38.81539" lon="-0.02401">
        <ele>91.4</ele>
        <time>2021-01-31 13:04:50</time>
      </trkpt>
      <trkpt lat="38.8154" lon="-0.02408">
        <ele>92</ele>
        <time>2021-01-31 13:04:51</time>
      </trkpt>
      <trkpt lat="38.81542" lon="-0.02415">
        <ele>92</ele>
        <time>2021-01-31 13:04:52</time>
      </trkpt>
      <trkpt lat="38.81543" lon="-0.02423">
        <ele>92</ele>
        <time>2021-01-31 13:04:53</time>
      </trkpt>
      <trkpt lat="38.81544" lon="-0.0243">
        <ele>91</ele>
        <time>2021-01-31 13:04:54</time>
      </trkpt>
      <trkpt lat="38.81544" lon="-0.02437">
        <ele>92.4</ele>
        <time>2021-01-31 13:04:55</time>
      </trkpt>
      <trkpt lat="38.81545" lon="-0.02444">
        <ele>92.4</ele>
        <time>2021-01-31 13:04:56</time>
      </trkpt>
      <trkpt lat="38.81546" lon="-0.02451">
        <ele>92.4</ele>
        <time>2021-01-31 13:04:57</time>
      </trkpt>
      <trkpt lat="38.81547" lon="-0.02458">
        <ele>91.4</ele>
        <time>2021-01-31 13:04:58</time>
      </trkpt>
      <trkpt lat="38.81548" lon="-0.02464">
        <ele>90.4</ele>
        <time>2021-01-31 13:04:59</time>
      </trkpt>
      <trkpt lat="38.81548" lon="-0.02464">
        <ele>90.4</ele>
        <time>2021-01-31 13:05:00</time>
      </trkpt>
      <trkpt lat="38.81549" lon="-0.02477">
        <ele>90.4</ele>
        <time>2021-01-31 13:05:01</time>
      </trkpt>
      <trkpt lat="38.8155" lon="-0.02484">
        <ele>91.4</ele>
        <time>2021-01-31 13:05:02</time>
      </trkpt>
      <trkpt lat="38.8155" lon="-0.02491">
        <ele>92.2</ele>
        <time>2021-01-31 13:05:03</time>
      </trkpt>
      <trkpt lat="38.81551" lon="-0.02497">
        <ele>92.2</ele>
        <time>2021-01-31 13:05:04</time>
      </trkpt>
      <trkpt lat="38.81552" lon="-0.02504">
        <ele>92.2</ele>
        <time>2021-01-31 13:05:05</time>
      </trkpt>
      <trkpt lat="38.81553" lon="-0.0251">
        <ele>93</ele>
        <time>2021-01-31 13:05:06</time>
      </trkpt>
      <trkpt lat="38.81553" lon="-0.0251">
        <ele>92</ele>
        <time>2021-01-31 13:05:07</time>
      </trkpt>
      <trkpt lat="38.81557" lon="-0.02522">
        <ele>92</ele>
        <time>2021-01-31 13:05:08</time>
      </trkpt>
      <trkpt lat="38.81558" lon="-0.02528">
        <ele>92</ele>
        <time>2021-01-31 13:05:09</time>
      </trkpt>
      <trkpt lat="38.8156" lon="-0.02534">
        <ele>92</ele>
        <time>2021-01-31 13:05:10</time>
      </trkpt>
      <trkpt lat="38.81561" lon="-0.0254">
        <ele>92.6</ele>
        <time>2021-01-31 13:05:11</time>
      </trkpt>
      <trkpt lat="38.81563" lon="-0.02546">
        <ele>92.6</ele>
        <time>2021-01-31 13:05:12</time>
      </trkpt>
      <trkpt lat="38.81564" lon="-0.02552">
        <ele>92.6</ele>
        <time>2021-01-31 13:05:13</time>
      </trkpt>
      <trkpt lat="38.81566" lon="-0.02558">
        <ele>92.6</ele>
        <time>2021-01-31 13:05:14</time>
      </trkpt>
      <trkpt lat="38.81567" lon="-0.02564">
        <ele>92.2</ele>
        <time>2021-01-31 13:05:15</time>
      </trkpt>
      <trkpt lat="38.81568" lon="-0.0257">
        <ele>92.2</ele>
        <time>2021-01-31 13:05:16</time>
      </trkpt>
      <trkpt lat="38.8157" lon="-0.02575">
        <ele>92.2</ele>
        <time>2021-01-31 13:05:17</time>
      </trkpt>
      <trkpt lat="38.8157" lon="-0.02575">
        <ele>92.2</ele>
        <time>2021-01-31 13:05:18</time>
      </trkpt>
      <trkpt lat="38.81572" lon="-0.02587">
        <ele>93.8</ele>
        <time>2021-01-31 13:05:19</time>
      </trkpt>
      <trkpt lat="38.81574" lon="-0.02593">
        <ele>93.8</ele>
        <time>2021-01-31 13:05:20</time>
      </trkpt>
      <trkpt lat="38.81575" lon="-0.02599">
        <ele>93.8</ele>
        <time>2021-01-31 13:05:21</time>
      </trkpt>
      <trkpt lat="38.81576" lon="-0.02605">
        <ele>93.6</ele>
        <time>2021-01-31 13:05:22</time>
      </trkpt>
      <trkpt lat="38.81577" lon="-0.02611">
        <ele>93.6</ele>
        <time>2021-01-31 13:05:23</time>
      </trkpt>
      <trkpt lat="38.81577" lon="-0.02611">
        <ele>93.6</ele>
        <time>2021-01-31 13:05:24</time>
      </trkpt>
      <trkpt lat="38.81577" lon="-0.02611">
        <ele>93.6</ele>
        <time>2021-01-31 13:05:25</time>
      </trkpt>
      <trkpt lat="38.81577" lon="-0.02611">
        <ele>92.2</ele>
        <time>2021-01-31 13:05:26</time>
      </trkpt>
      <trkpt lat="38.8158" lon="-0.02636">
        <ele>93</ele>
        <time>2021-01-31 13:05:27</time>
      </trkpt>
      <trkpt lat="38.81581" lon="-0.02642">
        <ele>93</ele>
        <time>2021-01-31 13:05:28</time>
      </trkpt>
      <trkpt lat="38.81581" lon="-0.02648">
        <ele>93</ele>
        <time>2021-01-31 13:05:29</time>
      </trkpt>
      <trkpt lat="38.81582" lon="-0.02654">
        <ele>92.2</ele>
        <time>2021-01-31 13:05:30</time>
      </trkpt>
      <trkpt lat="38.81583" lon="-0.0266">
        <ele>91</ele>
        <time>2021-01-31 13:05:31</time>
      </trkpt>
      <trkpt lat="38.81584" lon="-0.02666">
        <ele>91</ele>
        <time>2021-01-31 13:05:32</time>
      </trkpt>
      <trkpt lat="38.81584" lon="-0.02672">
        <ele>91</ele>
        <time>2021-01-31 13:05:33</time>
      </trkpt>
      <trkpt lat="38.81585" lon="-0.02678">
        <ele>92</ele>
        <time>2021-01-31 13:05:34</time>
      </trkpt>
      <trkpt lat="38.81586" lon="-0.02684">
        <ele>94.2</ele>
        <time>2021-01-31 13:05:35</time>
      </trkpt>
      <trkpt lat="38.81587" lon="-0.02689">
        <ele>94.2</ele>
        <time>2021-01-31 13:05:36</time>
      </trkpt>
      <trkpt lat="38.81588" lon="-0.02694">
        <ele>94.2</ele>
        <time>2021-01-31 13:05:37</time>
      </trkpt>
      <trkpt lat="38.81589" lon="-0.027">
        <ele>94.2</ele>
        <time>2021-01-31 13:05:38</time>
      </trkpt>
      <trkpt lat="38.81591" lon="-0.02706">
        <ele>93</ele>
        <time>2021-01-31 13:05:39</time>
      </trkpt>
      <trkpt lat="38.81592" lon="-0.02711">
        <ele>93</ele>
        <time>2021-01-31 13:05:40</time>
      </trkpt>
      <trkpt lat="38.81594" lon="-0.02716">
        <ele>93</ele>
        <time>2021-01-31 13:05:41</time>
      </trkpt>
      <trkpt lat="38.81595" lon="-0.02722">
        <ele>94</ele>
        <time>2021-01-31 13:05:42</time>
      </trkpt>
      <trkpt lat="38.81596" lon="-0.02727">
        <ele>94</ele>
        <time>2021-01-31 13:05:43</time>
      </trkpt>
      <trkpt lat="38.81598" lon="-0.02732">
        <ele>94</ele>
        <time>2021-01-31 13:05:44</time>
      </trkpt>
      <trkpt lat="38.816" lon="-0.02737">
        <ele>94</ele>
        <time>2021-01-31 13:05:45</time>
      </trkpt>
      <trkpt lat="38.81601" lon="-0.02743">
        <ele>94.4</ele>
        <time>2021-01-31 13:05:46</time>
      </trkpt>
      <trkpt lat="38.81603" lon="-0.02748">
        <ele>94.4</ele>
        <time>2021-01-31 13:05:47</time>
      </trkpt>
      <trkpt lat="38.81603" lon="-0.02748">
        <ele>94.4</ele>
        <time>2021-01-31 13:05:48</time>
      </trkpt>
      <trkpt lat="38.81603" lon="-0.02748">
        <ele>94.4</ele>
        <time>2021-01-31 13:05:49</time>
      </trkpt>
      <trkpt lat="38.81603" lon="-0.02748">
        <ele>94.8</ele>
        <time>2021-01-31 13:05:50</time>
      </trkpt>
      <trkpt lat="38.8161" lon="-0.02767">
        <ele>96</ele>
        <time>2021-01-31 13:05:51</time>
      </trkpt>
      <trkpt lat="38.81611" lon="-0.02772">
        <ele>96</ele>
        <time>2021-01-31 13:05:52</time>
      </trkpt>
      <trkpt lat="38.81613" lon="-0.02777">
        <ele>96</ele>
        <time>2021-01-31 13:05:53</time>
      </trkpt>
      <trkpt lat="38.81614" lon="-0.02782">
        <ele>95</ele>
        <time>2021-01-31 13:05:54</time>
      </trkpt>
      <trkpt lat="38.81616" lon="-0.02786">
        <ele>95.8</ele>
        <time>2021-01-31 13:05:55</time>
      </trkpt>
      <trkpt lat="38.81617" lon="-0.02791">
        <ele>95.8</ele>
        <time>2021-01-31 13:05:56</time>
      </trkpt>
      <trkpt lat="38.81617" lon="-0.02791">
        <ele>95.8</ele>
        <time>2021-01-31 13:05:57</time>
      </trkpt>
      <trkpt lat="38.81617" lon="-0.02791">
        <ele>95.8</ele>
        <time>2021-01-31 13:05:58</time>
      </trkpt>
      <trkpt lat="38.81617" lon="-0.02791">
        <ele>95.6</ele>
        <time>2021-01-31 13:05:59</time>
      </trkpt>
      <trkpt lat="38.81627" lon="-0.02807">
        <ele>95.6</ele>
        <time>2021-01-31 13:06:00</time>
      </trkpt>
      <trkpt lat="38.81631" lon="-0.02811">
        <ele>95.6</ele>
        <time>2021-01-31 13:06:01</time>
      </trkpt>
      <trkpt lat="38.81634" lon="-0.02814">
        <ele>95.8</ele>
        <time>2021-01-31 13:06:02</time>
      </trkpt>
      <trkpt lat="38.81637" lon="-0.02818">
        <ele>96</ele>
        <time>2021-01-31 13:06:03</time>
      </trkpt>
      <trkpt lat="38.8164" lon="-0.02822">
        <ele>96</ele>
        <time>2021-01-31 13:06:04</time>
      </trkpt>
      <trkpt lat="38.81643" lon="-0.02827">
        <ele>96</ele>
        <time>2021-01-31 13:06:05</time>
      </trkpt>
      <trkpt lat="38.81646" lon="-0.02831">
        <ele>96</ele>
        <time>2021-01-31 13:06:06</time>
      </trkpt>
      <trkpt lat="38.81649" lon="-0.02834">
        <ele>96.2</ele>
        <time>2021-01-31 13:06:07</time>
      </trkpt>
      <trkpt lat="38.81651" lon="-0.02838">
        <ele>96.2</ele>
        <time>2021-01-31 13:06:08</time>
      </trkpt>
      <trkpt lat="38.81654" lon="-0.02842">
        <ele>96.2</ele>
        <time>2021-01-31 13:06:09</time>
      </trkpt>
      <trkpt lat="38.81657" lon="-0.02846">
        <ele>96.2</ele>
        <time>2021-01-31 13:06:10</time>
      </trkpt>
      <trkpt lat="38.8166" lon="-0.0285">
        <ele>98.2</ele>
        <time>2021-01-31 13:06:11</time>
      </trkpt>
      <trkpt lat="38.81662" lon="-0.02854">
        <ele>98.2</ele>
        <time>2021-01-31 13:06:12</time>
      </trkpt>
      <trkpt lat="38.81665" lon="-0.02858">
        <ele>98.2</ele>
        <time>2021-01-31 13:06:13</time>
      </trkpt>
      <trkpt lat="38.81668" lon="-0.02863">
        <ele>98.2</ele>
        <time>2021-01-31 13:06:14</time>
      </trkpt>
      <trkpt lat="38.8167" lon="-0.02867">
        <ele>97</ele>
        <time>2021-01-31 13:06:15</time>
      </trkpt>
      <trkpt lat="38.81673" lon="-0.02872">
        <ele>97</ele>
        <time>2021-01-31 13:06:16</time>
      </trkpt>
      <trkpt lat="38.81676" lon="-0.02877">
        <ele>97</ele>
        <time>2021-01-31 13:06:17</time>
      </trkpt>
      <trkpt lat="38.81678" lon="-0.02882">
        <ele>97</ele>
        <time>2021-01-31 13:06:18</time>
      </trkpt>
      <trkpt lat="38.81681" lon="-0.02887">
        <ele>97</ele>
        <time>2021-01-31 13:06:19</time>
      </trkpt>
      <trkpt lat="38.81684" lon="-0.02893">
        <ele>97</ele>
        <time>2021-01-31 13:06:20</time>
      </trkpt>
      <trkpt lat="38.81687" lon="-0.02898">
        <ele>97</ele>
        <time>2021-01-31 13:06:21</time>
      </trkpt>
      <trkpt lat="38.8169" lon="-0.02904">
        <ele>96</ele>
        <time>2021-01-31 13:06:22</time>
      </trkpt>
      <trkpt lat="38.81693" lon="-0.0291">
        <ele>95.6</ele>
        <time>2021-01-31 13:06:23</time>
      </trkpt>
      <trkpt lat="38.81696" lon="-0.02917">
        <ele>95.6</ele>
        <time>2021-01-31 13:06:24</time>
      </trkpt>
      <trkpt lat="38.81699" lon="-0.02922">
        <ele>95.6</ele>
        <time>2021-01-31 13:06:25</time>
      </trkpt>
      <trkpt lat="38.81701" lon="-0.02928">
        <ele>95.2</ele>
        <time>2021-01-31 13:06:26</time>
      </trkpt>
      <trkpt lat="38.81704" lon="-0.02934">
        <ele>94.2</ele>
        <time>2021-01-31 13:06:27</time>
      </trkpt>
      <trkpt lat="38.81706" lon="-0.0294">
        <ele>94.2</ele>
        <time>2021-01-31 13:06:28</time>
      </trkpt>
      <trkpt lat="38.81708" lon="-0.02947">
        <ele>94.2</ele>
        <time>2021-01-31 13:06:29</time>
      </trkpt>
      <trkpt lat="38.81711" lon="-0.02953">
        <ele>94.2</ele>
        <time>2021-01-31 13:06:30</time>
      </trkpt>
      <trkpt lat="38.81713" lon="-0.0296">
        <ele>94.6</ele>
        <time>2021-01-31 13:06:31</time>
      </trkpt>
      <trkpt lat="38.81715" lon="-0.02967">
        <ele>94.6</ele>
        <time>2021-01-31 13:06:32</time>
      </trkpt>
      <trkpt lat="38.81717" lon="-0.02974">
        <ele>94.6</ele>
        <time>2021-01-31 13:06:33</time>
      </trkpt>
      <trkpt lat="38.81719" lon="-0.02981">
        <ele>93.6</ele>
        <time>2021-01-31 13:06:34</time>
      </trkpt>
      <trkpt lat="38.81721" lon="-0.02988">
        <ele>92.2</ele>
        <time>2021-01-31 13:06:35</time>
      </trkpt>
      <trkpt lat="38.81724" lon="-0.02995">
        <ele>92.2</ele>
        <time>2021-01-31 13:06:36</time>
      </trkpt>
      <trkpt lat="38.81726" lon="-0.03003">
        <ele>92.2</ele>
        <time>2021-01-31 13:06:37</time>
      </trkpt>
      <trkpt lat="38.81728" lon="-0.0301">
        <ele>93.2</ele>
        <time>2021-01-31 13:06:38</time>
      </trkpt>
      <trkpt lat="38.81729" lon="-0.03018">
        <ele>94.4</ele>
        <time>2021-01-31 13:06:39</time>
      </trkpt>
      <trkpt lat="38.81731" lon="-0.03025">
        <ele>94.4</ele>
        <time>2021-01-31 13:06:40</time>
      </trkpt>
      <trkpt lat="38.81733" lon="-0.03032">
        <ele>94.4</ele>
        <time>2021-01-31 13:06:41</time>
      </trkpt>
      <trkpt lat="38.81735" lon="-0.0304">
        <ele>93.4</ele>
        <time>2021-01-31 13:06:42</time>
      </trkpt>
      <trkpt lat="38.81737" lon="-0.03047">
        <ele>93.4</ele>
        <time>2021-01-31 13:06:43</time>
      </trkpt>
      <trkpt lat="38.81739" lon="-0.03054">
        <ele>93.4</ele>
        <time>2021-01-31 13:06:44</time>
      </trkpt>
      <trkpt lat="38.81741" lon="-0.03061">
        <ele>93.4</ele>
        <time>2021-01-31 13:06:45</time>
      </trkpt>
      <trkpt lat="38.81743" lon="-0.03067">
        <ele>93.4</ele>
        <time>2021-01-31 13:06:46</time>
      </trkpt>
      <trkpt lat="38.81746" lon="-0.03074">
        <ele>95</ele>
        <time>2021-01-31 13:06:47</time>
      </trkpt>
      <trkpt lat="38.81749" lon="-0.03079">
        <ele>95</ele>
        <time>2021-01-31 13:06:48</time>
      </trkpt>
      <trkpt lat="38.81752" lon="-0.03085">
        <ele>95</ele>
        <time>2021-01-31 13:06:49</time>
      </trkpt>
      <trkpt lat="38.81755" lon="-0.03091">
        <ele>95.4</ele>
        <time>2021-01-31 13:06:50</time>
      </trkpt>
      <trkpt lat="38.81757" lon="-0.03098">
        <ele>95.8</ele>
        <time>2021-01-31 13:06:51</time>
      </trkpt>
      <trkpt lat="38.81758" lon="-0.03104">
        <ele>95.8</ele>
        <time>2021-01-31 13:06:52</time>
      </trkpt>
      <trkpt lat="38.81759" lon="-0.0311">
        <ele>95.8</ele>
        <time>2021-01-31 13:06:53</time>
      </trkpt>
      <trkpt lat="38.8176" lon="-0.03116">
        <ele>95.8</ele>
        <time>2021-01-31 13:06:54</time>
      </trkpt>
      <trkpt lat="38.8176" lon="-0.03116">
        <ele>95.8</ele>
        <time>2021-01-31 13:06:55</time>
      </trkpt>
      <trkpt lat="38.8176" lon="-0.03116">
        <ele>95.8</ele>
        <time>2021-01-31 13:06:56</time>
      </trkpt>
      <trkpt lat="38.8176" lon="-0.03116">
        <ele>96.6</ele>
        <time>2021-01-31 13:06:57</time>
      </trkpt>
      <trkpt lat="38.81766" lon="-0.03138">
        <ele>97.6</ele>
        <time>2021-01-31 13:06:58</time>
      </trkpt>
      <trkpt lat="38.81769" lon="-0.03142">
        <ele>97</ele>
        <time>2021-01-31 13:06:59</time>
      </trkpt>
      <trkpt lat="38.81771" lon="-0.03146">
        <ele>97</ele>
        <time>2021-01-31 13:07:00</time>
      </trkpt>
      <trkpt lat="38.81773" lon="-0.03151">
        <ele>97</ele>
        <time>2021-01-31 13:07:01</time>
      </trkpt>
      <trkpt lat="38.81774" lon="-0.03156">
        <ele>97</ele>
        <time>2021-01-31 13:07:02</time>
      </trkpt>
      <trkpt lat="38.81774" lon="-0.03161">
        <ele>98</ele>
        <time>2021-01-31 13:07:03</time>
      </trkpt>
      <trkpt lat="38.81774" lon="-0.03165">
        <ele>98</ele>
        <time>2021-01-31 13:07:04</time>
      </trkpt>
      <trkpt lat="38.81774" lon="-0.0317">
        <ele>98</ele>
        <time>2021-01-31 13:07:05</time>
      </trkpt>
      <trkpt lat="38.81775" lon="-0.03173">
        <ele>99</ele>
        <time>2021-01-31 13:07:06</time>
      </trkpt>
      <trkpt lat="38.81776" lon="-0.03175">
        <ele>100.6</ele>
        <time>2021-01-31 13:07:07</time>
      </trkpt>
      <trkpt lat="38.81776" lon="-0.03175">
        <ele>100.6</ele>
        <time>2021-01-31 13:07:08</time>
      </trkpt>
      <trkpt lat="38.81775" lon="-0.03178">
        <ele>100.6</ele>
        <time>2021-01-31 13:07:09</time>
      </trkpt>
      <trkpt lat="38.81775" lon="-0.03178">
        <ele>100.6</ele>
        <time>2021-01-31 13:07:10</time>
      </trkpt>
      <trkpt lat="38.81774" lon="-0.03179">
        <ele>100.4</ele>
        <time>2021-01-31 13:07:11</time>
      </trkpt>
      <trkpt lat="38.81774" lon="-0.03179">
        <ele>100.4</ele>
        <time>2021-01-31 13:07:12</time>
      </trkpt>
      <trkpt lat="38.81774" lon="-0.03179">
        <ele>100.8</ele>
        <time>2021-01-31 13:07:13</time>
      </trkpt>
      <trkpt lat="38.81774" lon="-0.03178">
        <ele>99.8</ele>
        <time>2021-01-31 13:07:14</time>
      </trkpt>
      <trkpt lat="38.81774" lon="-0.03178">
        <ele>99.2</ele>
        <time>2021-01-31 13:08:39</time>
      </trkpt>
      <trkpt lat="38.8177" lon="-0.03181">
        <ele>99.2</ele>
        <time>2021-01-31 13:08:40</time>
      </trkpt>
      <trkpt lat="38.81768" lon="-0.03183">
        <ele>99.2</ele>
        <time>2021-01-31 13:08:41</time>
      </trkpt>
      <trkpt lat="38.81767" lon="-0.03185">
        <ele>99.6</ele>
        <time>2021-01-31 13:08:42</time>
      </trkpt>
      <trkpt lat="38.81765" lon="-0.0319">
        <ele>98</ele>
        <time>2021-01-31 13:08:43</time>
      </trkpt>
      <trkpt lat="38.81764" lon="-0.03194">
        <ele>98</ele>
        <time>2021-01-31 13:08:44</time>
      </trkpt>
      <trkpt lat="38.81763" lon="-0.03199">
        <ele>98</ele>
        <time>2021-01-31 13:08:45</time>
      </trkpt>
      <trkpt lat="38.81763" lon="-0.03204">
        <ele>97.4</ele>
        <time>2021-01-31 13:08:46</time>
      </trkpt>
      <trkpt lat="38.81762" lon="-0.03209">
        <ele>96.4</ele>
        <time>2021-01-31 13:08:47</time>
      </trkpt>
      <trkpt lat="38.81762" lon="-0.03214">
        <ele>96.4</ele>
        <time>2021-01-31 13:08:48</time>
      </trkpt>
      <trkpt lat="38.81762" lon="-0.0322">
        <ele>96.4</ele>
        <time>2021-01-31 13:08:49</time>
      </trkpt>
      <trkpt lat="38.81762" lon="-0.03225">
        <ele>96.4</ele>
        <time>2021-01-31 13:08:50</time>
      </trkpt>
      <trkpt lat="38.81763" lon="-0.0323">
        <ele>96</ele>
        <time>2021-01-31 13:08:51</time>
      </trkpt>
      <trkpt lat="38.81763" lon="-0.03235">
        <ele>96</ele>
        <time>2021-01-31 13:08:52</time>
      </trkpt>
      <trkpt lat="38.81763" lon="-0.0324">
        <ele>96</ele>
        <time>2021-01-31 13:08:53</time>
      </trkpt>
      <trkpt lat="38.81764" lon="-0.03245">
        <ele>97</ele>
        <time>2021-01-31 13:08:54</time>
      </trkpt>
      <trkpt lat="38.81764" lon="-0.0325">
        <ele>99.4</ele>
        <time>2021-01-31 13:08:55</time>
      </trkpt>
      <trkpt lat="38.81765" lon="-0.03255">
        <ele>99.4</ele>
        <time>2021-01-31 13:08:56</time>
      </trkpt>
      <trkpt lat="38.81765" lon="-0.0326">
        <ele>99.4</ele>
        <time>2021-01-31 13:08:57</time>
      </trkpt>
      <trkpt lat="38.81766" lon="-0.03265">
        <ele>98.6</ele>
        <time>2021-01-31 13:08:58</time>
      </trkpt>
      <trkpt lat="38.81766" lon="-0.0327">
        <ele>98.8</ele>
        <time>2021-01-31 13:08:59</time>
      </trkpt>
      <trkpt lat="38.81767" lon="-0.03275">
        <ele>98.8</ele>
        <time>2021-01-31 13:09:00</time>
      </trkpt>
      <trkpt lat="38.81767" lon="-0.0328">
        <ele>98.8</ele>
        <time>2021-01-31 13:09:01</time>
      </trkpt>
      <trkpt lat="38.81768" lon="-0.03285">
        <ele>98.8</ele>
        <time>2021-01-31 13:09:02</time>
      </trkpt>
      <trkpt lat="38.81769" lon="-0.03289">
        <ele>99</ele>
        <time>2021-01-31 13:09:03</time>
      </trkpt>
      <trkpt lat="38.81769" lon="-0.03294">
        <ele>99</ele>
        <time>2021-01-31 13:09:04</time>
      </trkpt>
      <trkpt lat="38.8177" lon="-0.03299">
        <ele>99</ele>
        <time>2021-01-31 13:09:05</time>
      </trkpt>
      <trkpt lat="38.81771" lon="-0.03304">
        <ele>99</ele>
        <time>2021-01-31 13:09:06</time>
      </trkpt>
      <trkpt lat="38.81771" lon="-0.03309">
        <ele>100.2</ele>
        <time>2021-01-31 13:09:07</time>
      </trkpt>
      <trkpt lat="38.81772" lon="-0.03314">
        <ele>100.2</ele>
        <time>2021-01-31 13:09:08</time>
      </trkpt>
      <trkpt lat="38.81773" lon="-0.03319">
        <ele>100.2</ele>
        <time>2021-01-31 13:09:09</time>
      </trkpt>
      <trkpt lat="38.81774" lon="-0.03324">
        <ele>100.2</ele>
        <time>2021-01-31 13:09:10</time>
      </trkpt>
      <trkpt lat="38.81775" lon="-0.03329">
        <ele>99</ele>
        <time>2021-01-31 13:09:11</time>
      </trkpt>
      <trkpt lat="38.81776" lon="-0.03333">
        <ele>99</ele>
        <time>2021-01-31 13:09:12</time>
      </trkpt>
      <trkpt lat="38.81777" lon="-0.03338">
        <ele>99</ele>
        <time>2021-01-31 13:09:13</time>
      </trkpt>
      <trkpt lat="38.81777" lon="-0.03343">
        <ele>99</ele>
        <time>2021-01-31 13:09:14</time>
      </trkpt>
      <trkpt lat="38.81777" lon="-0.03343">
        <ele>99.8</ele>
        <time>2021-01-31 13:09:15</time>
      </trkpt>
      <trkpt lat="38.8178" lon="-0.03353">
        <ele>99.8</ele>
        <time>2021-01-31 13:09:16</time>
      </trkpt>
      <trkpt lat="38.81781" lon="-0.03357">
        <ele>99.8</ele>
        <time>2021-01-31 13:09:17</time>
      </trkpt>
      <trkpt lat="38.81782" lon="-0.03362">
        <ele>99.8</ele>
        <time>2021-01-31 13:09:18</time>
      </trkpt>
      <trkpt lat="38.81784" lon="-0.03367">
        <ele>98.2</ele>
        <time>2021-01-31 13:09:19</time>
      </trkpt>
      <trkpt lat="38.81785" lon="-0.03372">
        <ele>98.2</ele>
        <time>2021-01-31 13:09:20</time>
      </trkpt>
      <trkpt lat="38.81787" lon="-0.03377">
        <ele>98.2</ele>
        <time>2021-01-31 13:09:21</time>
      </trkpt>
      <trkpt lat="38.81788" lon="-0.03382">
        <ele>98</ele>
        <time>2021-01-31 13:09:22</time>
      </trkpt>
      <trkpt lat="38.8179" lon="-0.03386">
        <ele>99</ele>
        <time>2021-01-31 13:09:23</time>
      </trkpt>
      <trkpt lat="38.81792" lon="-0.03391">
        <ele>99</ele>
        <time>2021-01-31 13:09:24</time>
      </trkpt>
      <trkpt lat="38.81793" lon="-0.03396">
        <ele>99</ele>
        <time>2021-01-31 13:09:25</time>
      </trkpt>
      <trkpt lat="38.81795" lon="-0.03401">
        <ele>99.6</ele>
        <time>2021-01-31 13:09:26</time>
      </trkpt>
      <trkpt lat="38.81797" lon="-0.03406">
        <ele>100.6</ele>
        <time>2021-01-31 13:09:27</time>
      </trkpt>
      <trkpt lat="38.818" lon="-0.03411">
        <ele>100.6</ele>
        <time>2021-01-31 13:09:28</time>
      </trkpt>
      <trkpt lat="38.81802" lon="-0.03415">
        <ele>100.6</ele>
        <time>2021-01-31 13:09:29</time>
      </trkpt>
      <trkpt lat="38.81804" lon="-0.0342">
        <ele>100.2</ele>
        <time>2021-01-31 13:09:30</time>
      </trkpt>
      <trkpt lat="38.81807" lon="-0.03424">
        <ele>100.4</ele>
        <time>2021-01-31 13:09:31</time>
      </trkpt>
      <trkpt lat="38.81809" lon="-0.03428">
        <ele>100.4</ele>
        <time>2021-01-31 13:09:32</time>
      </trkpt>
      <trkpt lat="38.81812" lon="-0.03433">
        <ele>100.4</ele>
        <time>2021-01-31 13:09:33</time>
      </trkpt>
      <trkpt lat="38.81815" lon="-0.03437">
        <ele>100.4</ele>
        <time>2021-01-31 13:09:34</time>
      </trkpt>
      <trkpt lat="38.81818" lon="-0.03441">
        <ele>99.2</ele>
        <time>2021-01-31 13:09:35</time>
      </trkpt>
      <trkpt lat="38.81821" lon="-0.03445">
        <ele>99.2</ele>
        <time>2021-01-31 13:09:36</time>
      </trkpt>
      <trkpt lat="38.81824" lon="-0.0345">
        <ele>99.2</ele>
        <time>2021-01-31 13:09:37</time>
      </trkpt>
      <trkpt lat="38.81827" lon="-0.03454">
        <ele>99.2</ele>
        <time>2021-01-31 13:09:38</time>
      </trkpt>
      <trkpt lat="38.81831" lon="-0.03458">
        <ele>98.2</ele>
        <time>2021-01-31 13:09:39</time>
      </trkpt>
      <trkpt lat="38.81834" lon="-0.03462">
        <ele>98.2</ele>
        <time>2021-01-31 13:09:40</time>
      </trkpt>
      <trkpt lat="38.81834" lon="-0.03462">
        <ele>98.2</ele>
        <time>2021-01-31 13:09:41</time>
      </trkpt>
      <trkpt lat="38.81841" lon="-0.0347">
        <ele>98.6</ele>
        <time>2021-01-31 13:09:42</time>
      </trkpt>
      <trkpt lat="38.81844" lon="-0.03475">
        <ele>98.8</ele>
        <time>2021-01-31 13:09:43</time>
      </trkpt>
      <trkpt lat="38.81847" lon="-0.03479">
        <ele>98.8</ele>
        <time>2021-01-31 13:09:44</time>
      </trkpt>
      <trkpt lat="38.8185" lon="-0.03484">
        <ele>98.8</ele>
        <time>2021-01-31 13:09:45</time>
      </trkpt>
      <trkpt lat="38.81853" lon="-0.03489">
        <ele>98</ele>
        <time>2021-01-31 13:09:46</time>
      </trkpt>
      <trkpt lat="38.81857" lon="-0.03493">
        <ele>96.8</ele>
        <time>2021-01-31 13:09:47</time>
      </trkpt>
      <trkpt lat="38.8186" lon="-0.03498">
        <ele>96.8</ele>
        <time>2021-01-31 13:09:48</time>
      </trkpt>
      <trkpt lat="38.81863" lon="-0.03503">
        <ele>96.8</ele>
        <time>2021-01-31 13:09:49</time>
      </trkpt>
      <trkpt lat="38.81865" lon="-0.03508">
        <ele>97.8</ele>
        <time>2021-01-31 13:09:50</time>
      </trkpt>
      <trkpt lat="38.81868" lon="-0.03513">
        <ele>98.6</ele>
        <time>2021-01-31 13:09:51</time>
      </trkpt>
      <trkpt lat="38.81871" lon="-0.03518">
        <ele>98.6</ele>
        <time>2021-01-31 13:09:52</time>
      </trkpt>
      <trkpt lat="38.81873" lon="-0.03524">
        <ele>98.6</ele>
        <time>2021-01-31 13:09:53</time>
      </trkpt>
      <trkpt lat="38.81876" lon="-0.03529">
        <ele>98.6</ele>
        <time>2021-01-31 13:09:54</time>
      </trkpt>
      <trkpt lat="38.81878" lon="-0.03534">
        <ele>98</ele>
        <time>2021-01-31 13:09:55</time>
      </trkpt>
      <trkpt lat="38.81881" lon="-0.03539">
        <ele>98</ele>
        <time>2021-01-31 13:09:56</time>
      </trkpt>
      <trkpt lat="38.81883" lon="-0.03545">
        <ele>98</ele>
        <time>2021-01-31 13:09:57</time>
      </trkpt>
      <trkpt lat="38.81885" lon="-0.0355">
        <ele>98</ele>
        <time>2021-01-31 13:09:58</time>
      </trkpt>
      <trkpt lat="38.81887" lon="-0.03556">
        <ele>99.2</ele>
        <time>2021-01-31 13:09:59</time>
      </trkpt>
      <trkpt lat="38.81889" lon="-0.03562">
        <ele>99.2</ele>
        <time>2021-01-31 13:10:00</time>
      </trkpt>
      <trkpt lat="38.81891" lon="-0.03567">
        <ele>99.2</ele>
        <time>2021-01-31 13:10:01</time>
      </trkpt>
      <trkpt lat="38.81893" lon="-0.03573">
        <ele>99.2</ele>
        <time>2021-01-31 13:10:02</time>
      </trkpt>
      <trkpt lat="38.81895" lon="-0.03579">
        <ele>99.4</ele>
        <time>2021-01-31 13:10:03</time>
      </trkpt>
      <trkpt lat="38.81897" lon="-0.03585">
        <ele>99.4</ele>
        <time>2021-01-31 13:10:04</time>
      </trkpt>
      <trkpt lat="38.81898" lon="-0.0359">
        <ele>99.4</ele>
        <time>2021-01-31 13:10:05</time>
      </trkpt>
      <trkpt lat="38.819" lon="-0.03596">
        <ele>98.8</ele>
        <time>2021-01-31 13:10:06</time>
      </trkpt>
      <trkpt lat="38.81901" lon="-0.03602">
        <ele>98.6</ele>
        <time>2021-01-31 13:10:07</time>
      </trkpt>
      <trkpt lat="38.81902" lon="-0.03608">
        <ele>98.6</ele>
        <time>2021-01-31 13:10:08</time>
      </trkpt>
      <trkpt lat="38.81903" lon="-0.03613">
        <ele>98.6</ele>
        <time>2021-01-31 13:10:09</time>
      </trkpt>
      <trkpt lat="38.81905" lon="-0.03619">
        <ele>98.6</ele>
        <time>2021-01-31 13:10:10</time>
      </trkpt>
      <trkpt lat="38.81906" lon="-0.03625">
        <ele>99.4</ele>
        <time>2021-01-31 13:10:11</time>
      </trkpt>
      <trkpt lat="38.81907" lon="-0.03631">
        <ele>99.4</ele>
        <time>2021-01-31 13:10:12</time>
      </trkpt>
      <trkpt lat="38.81908" lon="-0.03637">
        <ele>99.4</ele>
        <time>2021-01-31 13:10:13</time>
      </trkpt>
      <trkpt lat="38.81909" lon="-0.03643">
        <ele>98.6</ele>
        <time>2021-01-31 13:10:14</time>
      </trkpt>
      <trkpt lat="38.81909" lon="-0.03649">
        <ele>99.2</ele>
        <time>2021-01-31 13:10:15</time>
      </trkpt>
      <trkpt lat="38.8191" lon="-0.03655">
        <ele>99.2</ele>
        <time>2021-01-31 13:10:16</time>
      </trkpt>
      <trkpt lat="38.81911" lon="-0.03661">
        <ele>99.2</ele>
        <time>2021-01-31 13:10:17</time>
      </trkpt>
      <trkpt lat="38.81911" lon="-0.03666">
        <ele>98.2</ele>
        <time>2021-01-31 13:10:18</time>
      </trkpt>
      <trkpt lat="38.81912" lon="-0.03672">
        <ele>98</ele>
        <time>2021-01-31 13:10:19</time>
      </trkpt>
      <trkpt lat="38.81912" lon="-0.03678">
        <ele>98</ele>
        <time>2021-01-31 13:10:20</time>
      </trkpt>
      <trkpt lat="38.81913" lon="-0.03684">
        <ele>98</ele>
        <time>2021-01-31 13:10:21</time>
      </trkpt>
      <trkpt lat="38.81914" lon="-0.0369">
        <ele>99</ele>
        <time>2021-01-31 13:10:22</time>
      </trkpt>
      <trkpt lat="38.81914" lon="-0.03696">
        <ele>99</ele>
        <time>2021-01-31 13:10:23</time>
      </trkpt>
      <trkpt lat="38.81915" lon="-0.03702">
        <ele>99</ele>
        <time>2021-01-31 13:10:24</time>
      </trkpt>
      <trkpt lat="38.81916" lon="-0.03707">
        <ele>99</ele>
        <time>2021-01-31 13:10:25</time>
      </trkpt>
      <trkpt lat="38.81916" lon="-0.03713">
        <ele>99.6</ele>
        <time>2021-01-31 13:10:26</time>
      </trkpt>
      <trkpt lat="38.81917" lon="-0.0372">
        <ele>98.8</ele>
        <time>2021-01-31 13:10:27</time>
      </trkpt>
      <trkpt lat="38.81918" lon="-0.03726">
        <ele>98.8</ele>
        <time>2021-01-31 13:10:28</time>
      </trkpt>
      <trkpt lat="38.81918" lon="-0.03732">
        <ele>98.8</ele>
        <time>2021-01-31 13:10:29</time>
      </trkpt>
      <trkpt lat="38.81919" lon="-0.03738">
        <ele>98.8</ele>
        <time>2021-01-31 13:10:30</time>
      </trkpt>
      <trkpt lat="38.8192" lon="-0.03744">
        <ele>99.2</ele>
        <time>2021-01-31 13:10:31</time>
      </trkpt>
      <trkpt lat="38.8192" lon="-0.0375">
        <ele>99.2</ele>
        <time>2021-01-31 13:10:32</time>
      </trkpt>
      <trkpt lat="38.81921" lon="-0.03756">
        <ele>99.2</ele>
        <time>2021-01-31 13:10:33</time>
      </trkpt>
      <trkpt lat="38.81922" lon="-0.03762">
        <ele>100.2</ele>
        <time>2021-01-31 13:10:34</time>
      </trkpt>
      <trkpt lat="38.81923" lon="-0.03768">
        <ele>99</ele>
        <time>2021-01-31 13:10:35</time>
      </trkpt>
      <trkpt lat="38.81924" lon="-0.03774">
        <ele>99</ele>
        <time>2021-01-31 13:10:36</time>
      </trkpt>
      <trkpt lat="38.81926" lon="-0.03779">
        <ele>99</ele>
        <time>2021-01-31 13:10:37</time>
      </trkpt>
      <trkpt lat="38.81927" lon="-0.03785">
        <ele>99</ele>
        <time>2021-01-31 13:10:38</time>
      </trkpt>
      <trkpt lat="38.81928" lon="-0.03791">
        <ele>99.6</ele>
        <time>2021-01-31 13:10:39</time>
      </trkpt>
      <trkpt lat="38.8193" lon="-0.03797">
        <ele>99.6</ele>
        <time>2021-01-31 13:10:40</time>
      </trkpt>
      <trkpt lat="38.81931" lon="-0.03802">
        <ele>99.6</ele>
        <time>2021-01-31 13:10:41</time>
      </trkpt>
      <trkpt lat="38.81933" lon="-0.03808">
        <ele>100.6</ele>
        <time>2021-01-31 13:10:42</time>
      </trkpt>
      <trkpt lat="38.81935" lon="-0.03814">
        <ele>101</ele>
        <time>2021-01-31 13:10:43</time>
      </trkpt>
      <trkpt lat="38.81937" lon="-0.03819">
        <ele>101</ele>
        <time>2021-01-31 13:10:44</time>
      </trkpt>
      <trkpt lat="38.81939" lon="-0.03824">
        <ele>101</ele>
        <time>2021-01-31 13:10:45</time>
      </trkpt>
      <trkpt lat="38.81941" lon="-0.03829">
        <ele>101.2</ele>
        <time>2021-01-31 13:10:46</time>
      </trkpt>
      <trkpt lat="38.81944" lon="-0.03834">
        <ele>101.8</ele>
        <time>2021-01-31 13:10:47</time>
      </trkpt>
      <trkpt lat="38.81947" lon="-0.0384">
        <ele>101.8</ele>
        <time>2021-01-31 13:10:48</time>
      </trkpt>
      <trkpt lat="38.81949" lon="-0.03845">
        <ele>101.8</ele>
        <time>2021-01-31 13:10:49</time>
      </trkpt>
      <trkpt lat="38.81952" lon="-0.03849">
        <ele>101.8</ele>
        <time>2021-01-31 13:10:50</time>
      </trkpt>
      <trkpt lat="38.81952" lon="-0.03849">
        <ele>101.2</ele>
        <time>2021-01-31 13:10:51</time>
      </trkpt>
      <trkpt lat="38.81958" lon="-0.03858">
        <ele>101.2</ele>
        <time>2021-01-31 13:10:52</time>
      </trkpt>
      <trkpt lat="38.81961" lon="-0.03862">
        <ele>101.2</ele>
        <time>2021-01-31 13:10:53</time>
      </trkpt>
      <trkpt lat="38.81964" lon="-0.03866">
        <ele>102.2</ele>
        <time>2021-01-31 13:10:54</time>
      </trkpt>
      <trkpt lat="38.81967" lon="-0.03869">
        <ele>101.8</ele>
        <time>2021-01-31 13:10:55</time>
      </trkpt>
      <trkpt lat="38.8197" lon="-0.03873">
        <ele>101.8</ele>
        <time>2021-01-31 13:10:56</time>
      </trkpt>
      <trkpt lat="38.81973" lon="-0.03876">
        <ele>101.8</ele>
        <time>2021-01-31 13:10:57</time>
      </trkpt>
      <trkpt lat="38.81976" lon="-0.03879">
        <ele>101.8</ele>
        <time>2021-01-31 13:10:58</time>
      </trkpt>
      <trkpt lat="38.8198" lon="-0.03881">
        <ele>102.4</ele>
        <time>2021-01-31 13:10:59</time>
      </trkpt>
      <trkpt lat="38.81983" lon="-0.03884">
        <ele>102.4</ele>
        <time>2021-01-31 13:11:00</time>
      </trkpt>
      <trkpt lat="38.81986" lon="-0.03886">
        <ele>102.4</ele>
        <time>2021-01-31 13:11:01</time>
      </trkpt>
      <trkpt lat="38.81989" lon="-0.03888">
        <ele>103.4</ele>
        <time>2021-01-31 13:11:02</time>
      </trkpt>
      <trkpt lat="38.81993" lon="-0.0389">
        <ele>103.8</ele>
        <time>2021-01-31 13:11:03</time>
      </trkpt>
      <trkpt lat="38.81996" lon="-0.03892">
        <ele>103.8</ele>
        <time>2021-01-31 13:11:04</time>
      </trkpt>
      <trkpt lat="38.81999" lon="-0.03893">
        <ele>103.8</ele>
        <time>2021-01-31 13:11:05</time>
      </trkpt>
      <trkpt lat="38.82002" lon="-0.03895">
        <ele>104</ele>
        <time>2021-01-31 13:11:06</time>
      </trkpt>
      <trkpt lat="38.82005" lon="-0.03896">
        <ele>104.4</ele>
        <time>2021-01-31 13:11:07</time>
      </trkpt>
      <trkpt lat="38.82008" lon="-0.03897">
        <ele>104.4</ele>
        <time>2021-01-31 13:11:08</time>
      </trkpt>
      <trkpt lat="38.82011" lon="-0.03898">
        <ele>104.4</ele>
        <time>2021-01-31 13:11:09</time>
      </trkpt>
      <trkpt lat="38.82014" lon="-0.03899">
        <ele>104.4</ele>
        <time>2021-01-31 13:11:10</time>
      </trkpt>
      <trkpt lat="38.82017" lon="-0.039">
        <ele>104.4</ele>
        <time>2021-01-31 13:11:11</time>
      </trkpt>
      <trkpt lat="38.8202" lon="-0.03901">
        <ele>104.4</ele>
        <time>2021-01-31 13:11:12</time>
      </trkpt>
      <trkpt lat="38.82023" lon="-0.03902">
        <ele>104.4</ele>
        <time>2021-01-31 13:11:13</time>
      </trkpt>
      <trkpt lat="38.82026" lon="-0.03902">
        <ele>104.4</ele>
        <time>2021-01-31 13:11:14</time>
      </trkpt>
      <trkpt lat="38.82028" lon="-0.03903">
        <ele>105</ele>
        <time>2021-01-31 13:11:15</time>
      </trkpt>
      <trkpt lat="38.82031" lon="-0.03903">
        <ele>105</ele>
        <time>2021-01-31 13:11:16</time>
      </trkpt>
      <trkpt lat="38.82034" lon="-0.03904">
        <ele>105</ele>
        <time>2021-01-31 13:11:17</time>
      </trkpt>
      <trkpt lat="38.82037" lon="-0.03904">
        <ele>106</ele>
        <time>2021-01-31 13:11:18</time>
      </trkpt>
      <trkpt lat="38.8204" lon="-0.03904">
        <ele>106.4</ele>
        <time>2021-01-31 13:11:19</time>
      </trkpt>
      <trkpt lat="38.82043" lon="-0.03904">
        <ele>106.4</ele>
        <time>2021-01-31 13:11:20</time>
      </trkpt>
      <trkpt lat="38.82046" lon="-0.03904">
        <ele>106.4</ele>
        <time>2021-01-31 13:11:21</time>
      </trkpt>
      <trkpt lat="38.82049" lon="-0.03904">
        <ele>106.4</ele>
        <time>2021-01-31 13:11:22</time>
      </trkpt>
      <trkpt lat="38.82052" lon="-0.03904">
        <ele>105.8</ele>
        <time>2021-01-31 13:11:23</time>
      </trkpt>
      <trkpt lat="38.82055" lon="-0.03904">
        <ele>105.8</ele>
        <time>2021-01-31 13:11:24</time>
      </trkpt>
      <trkpt lat="38.82058" lon="-0.03904">
        <ele>105.8</ele>
        <time>2021-01-31 13:11:25</time>
      </trkpt>
      <trkpt lat="38.82061" lon="-0.03904">
        <ele>106.8</ele>
        <time>2021-01-31 13:11:26</time>
      </trkpt>
      <trkpt lat="38.82064" lon="-0.03904">
        <ele>106.8</ele>
        <time>2021-01-31 13:11:27</time>
      </trkpt>
      <trkpt lat="38.82067" lon="-0.03904">
        <ele>106.8</ele>
        <time>2021-01-31 13:11:28</time>
      </trkpt>
      <trkpt lat="38.82069" lon="-0.03904">
        <ele>106.8</ele>
        <time>2021-01-31 13:11:29</time>
      </trkpt>
      <trkpt lat="38.82072" lon="-0.03904">
        <ele>106.8</ele>
        <time>2021-01-31 13:11:30</time>
      </trkpt>
      <trkpt lat="38.82075" lon="-0.03903">
        <ele>107.8</ele>
        <time>2021-01-31 13:11:31</time>
      </trkpt>
      <trkpt lat="38.82078" lon="-0.03903">
        <ele>107.8</ele>
        <time>2021-01-31 13:11:32</time>
      </trkpt>
      <trkpt lat="38.82081" lon="-0.03903">
        <ele>107.8</ele>
        <time>2021-01-31 13:11:33</time>
      </trkpt>
      <trkpt lat="38.82084" lon="-0.03902">
        <ele>107.8</ele>
        <time>2021-01-31 13:11:34</time>
      </trkpt>
      <trkpt lat="38.82087" lon="-0.03902">
        <ele>108.8</ele>
        <time>2021-01-31 13:11:35</time>
      </trkpt>
      <trkpt lat="38.8209" lon="-0.03902">
        <ele>108.8</ele>
        <time>2021-01-31 13:11:36</time>
      </trkpt>
      <trkpt lat="38.82092" lon="-0.03901">
        <ele>108.8</ele>
        <time>2021-01-31 13:11:37</time>
      </trkpt>
      <trkpt lat="38.82095" lon="-0.03901">
        <ele>107.8</ele>
        <time>2021-01-31 13:11:38</time>
      </trkpt>
      <trkpt lat="38.82098" lon="-0.039">
        <ele>107.8</ele>
        <time>2021-01-31 13:11:39</time>
      </trkpt>
      <trkpt lat="38.82101" lon="-0.03899">
        <ele>107.8</ele>
        <time>2021-01-31 13:11:40</time>
      </trkpt>
      <trkpt lat="38.82103" lon="-0.03899">
        <ele>107.8</ele>
        <time>2021-01-31 13:11:41</time>
      </trkpt>
      <trkpt lat="38.82106" lon="-0.03897">
        <ele>108.8</ele>
        <time>2021-01-31 13:11:42</time>
      </trkpt>
      <trkpt lat="38.82109" lon="-0.03896">
        <ele>108.8</ele>
        <time>2021-01-31 13:11:43</time>
      </trkpt>
      <trkpt lat="38.82111" lon="-0.03894">
        <ele>108.8</ele>
        <time>2021-01-31 13:11:44</time>
      </trkpt>
      <trkpt lat="38.82113" lon="-0.03892">
        <ele>108.8</ele>
        <time>2021-01-31 13:11:45</time>
      </trkpt>
      <trkpt lat="38.82116" lon="-0.03889">
        <ele>109.8</ele>
        <time>2021-01-31 13:11:46</time>
      </trkpt>
      <trkpt lat="38.82118" lon="-0.03887">
        <ele>110.4</ele>
        <time>2021-01-31 13:11:47</time>
      </trkpt>
      <trkpt lat="38.82121" lon="-0.03885">
        <ele>110.4</ele>
        <time>2021-01-31 13:11:48</time>
      </trkpt>
      <trkpt lat="38.82124" lon="-0.03884">
        <ele>110.4</ele>
        <time>2021-01-31 13:11:49</time>
      </trkpt>
      <trkpt lat="38.82127" lon="-0.03884">
        <ele>110.4</ele>
        <time>2021-01-31 13:11:50</time>
      </trkpt>
      <trkpt lat="38.8213" lon="-0.03884">
        <ele>109.8</ele>
        <time>2021-01-31 13:11:51</time>
      </trkpt>
      <trkpt lat="38.82133" lon="-0.03886">
        <ele>109.8</ele>
        <time>2021-01-31 13:11:52</time>
      </trkpt>
      <trkpt lat="38.82136" lon="-0.03888">
        <ele>109.8</ele>
        <time>2021-01-31 13:11:53</time>
      </trkpt>
      <trkpt lat="38.82138" lon="-0.03892">
        <ele>109.8</ele>
        <time>2021-01-31 13:11:54</time>
      </trkpt>
      <trkpt lat="38.82139" lon="-0.03896">
        <ele>109.2</ele>
        <time>2021-01-31 13:11:55</time>
      </trkpt>
      <trkpt lat="38.8214" lon="-0.03901">
        <ele>109.2</ele>
        <time>2021-01-31 13:11:56</time>
      </trkpt>
      <trkpt lat="38.82139" lon="-0.03905">
        <ele>109.2</ele>
        <time>2021-01-31 13:11:57</time>
      </trkpt>
      <trkpt lat="38.82138" lon="-0.0391">
        <ele>110</ele>
        <time>2021-01-31 13:11:58</time>
      </trkpt>
      <trkpt lat="38.82136" lon="-0.03914">
        <ele>110.4</ele>
        <time>2021-01-31 13:11:59</time>
      </trkpt>
      <trkpt lat="38.82134" lon="-0.03918">
        <ele>110.4</ele>
        <time>2021-01-31 13:12:00</time>
      </trkpt>
      <trkpt lat="38.82133" lon="-0.03922">
        <ele>110.4</ele>
        <time>2021-01-31 13:12:01</time>
      </trkpt>
      <trkpt lat="38.82132" lon="-0.03926">
        <ele>109.8</ele>
        <time>2021-01-31 13:12:02</time>
      </trkpt>
      <trkpt lat="38.82131" lon="-0.03931">
        <ele>109.6</ele>
        <time>2021-01-31 13:12:03</time>
      </trkpt>
      <trkpt lat="38.8213" lon="-0.03936">
        <ele>109.6</ele>
        <time>2021-01-31 13:12:04</time>
      </trkpt>
      <trkpt lat="38.8213" lon="-0.0394">
        <ele>109.6</ele>
        <time>2021-01-31 13:12:05</time>
      </trkpt>
      <trkpt lat="38.8213" lon="-0.03945">
        <ele>108.6</ele>
        <time>2021-01-31 13:12:06</time>
      </trkpt>
      <trkpt lat="38.8213" lon="-0.0395">
        <ele>109.4</ele>
        <time>2021-01-31 13:12:07</time>
      </trkpt>
      <trkpt lat="38.82131" lon="-0.03955">
        <ele>109.4</ele>
        <time>2021-01-31 13:12:08</time>
      </trkpt>
      <trkpt lat="38.82131" lon="-0.03959">
        <ele>109.4</ele>
        <time>2021-01-31 13:12:09</time>
      </trkpt>
      <trkpt lat="38.82132" lon="-0.03963">
        <ele>109.4</ele>
        <time>2021-01-31 13:12:10</time>
      </trkpt>
      <trkpt lat="38.82132" lon="-0.03963">
        <ele>109.4</ele>
        <time>2021-01-31 13:12:11</time>
      </trkpt>
      <trkpt lat="38.82135" lon="-0.03971">
        <ele>109.4</ele>
        <time>2021-01-31 13:12:12</time>
      </trkpt>
      <trkpt lat="38.82137" lon="-0.03975">
        <ele>109.4</ele>
        <time>2021-01-31 13:12:13</time>
      </trkpt>
      <trkpt lat="38.82138" lon="-0.03979">
        <ele>110.2</ele>
        <time>2021-01-31 13:12:14</time>
      </trkpt>
      <trkpt lat="38.8214" lon="-0.03982">
        <ele>110.4</ele>
        <time>2021-01-31 13:12:15</time>
      </trkpt>
      <trkpt lat="38.82141" lon="-0.03986">
        <ele>110.4</ele>
        <time>2021-01-31 13:12:16</time>
      </trkpt>
      <trkpt lat="38.82143" lon="-0.0399">
        <ele>110.4</ele>
        <time>2021-01-31 13:12:17</time>
      </trkpt>
      <trkpt lat="38.82144" lon="-0.03994">
        <ele>110.4</ele>
        <time>2021-01-31 13:12:18</time>
      </trkpt>
      <trkpt lat="38.82145" lon="-0.03998">
        <ele>110</ele>
        <time>2021-01-31 13:12:19</time>
      </trkpt>
      <trkpt lat="38.82147" lon="-0.04002">
        <ele>110</ele>
        <time>2021-01-31 13:12:20</time>
      </trkpt>
      <trkpt lat="38.82148" lon="-0.04006">
        <ele>110</ele>
        <time>2021-01-31 13:12:21</time>
      </trkpt>
      <trkpt lat="38.82149" lon="-0.0401">
        <ele>110</ele>
        <time>2021-01-31 13:12:22</time>
      </trkpt>
      <trkpt lat="38.82151" lon="-0.04013">
        <ele>110.2</ele>
        <time>2021-01-31 13:12:23</time>
      </trkpt>
      <trkpt lat="38.82152" lon="-0.04017">
        <ele>110.2</ele>
        <time>2021-01-31 13:12:24</time>
      </trkpt>
      <trkpt lat="38.82153" lon="-0.0402">
        <ele>110.2</ele>
        <time>2021-01-31 13:12:25</time>
      </trkpt>
      <trkpt lat="38.82154" lon="-0.04024">
        <ele>110.2</ele>
        <time>2021-01-31 13:12:26</time>
      </trkpt>
      <trkpt lat="38.82156" lon="-0.04028">
        <ele>111.2</ele>
        <time>2021-01-31 13:12:27</time>
      </trkpt>
      <trkpt lat="38.82157" lon="-0.04032">
        <ele>111.2</ele>
        <time>2021-01-31 13:12:28</time>
      </trkpt>
      <trkpt lat="38.82158" lon="-0.04036">
        <ele>111.2</ele>
        <time>2021-01-31 13:12:29</time>
      </trkpt>
      <trkpt lat="38.82159" lon="-0.0404">
        <ele>112.2</ele>
        <time>2021-01-31 13:12:30</time>
      </trkpt>
      <trkpt lat="38.8216" lon="-0.04045">
        <ele>112.4</ele>
        <time>2021-01-31 13:12:31</time>
      </trkpt>
      <trkpt lat="38.82162" lon="-0.04049">
        <ele>112.4</ele>
        <time>2021-01-31 13:12:32</time>
      </trkpt>
      <trkpt lat="38.82163" lon="-0.04053">
        <ele>112.4</ele>
        <time>2021-01-31 13:12:33</time>
      </trkpt>
      <trkpt lat="38.82164" lon="-0.04058">
        <ele>111.4</ele>
        <time>2021-01-31 13:12:34</time>
      </trkpt>
      <trkpt lat="38.82165" lon="-0.04062">
        <ele>112</ele>
        <time>2021-01-31 13:12:35</time>
      </trkpt>
      <trkpt lat="38.82166" lon="-0.04067">
        <ele>112</ele>
        <time>2021-01-31 13:12:36</time>
      </trkpt>
      <trkpt lat="38.82167" lon="-0.04071">
        <ele>112</ele>
        <time>2021-01-31 13:12:37</time>
      </trkpt>
      <trkpt lat="38.82168" lon="-0.04075">
        <ele>112.6</ele>
        <time>2021-01-31 13:12:38</time>
      </trkpt>
      <trkpt lat="38.8217" lon="-0.04079">
        <ele>113</ele>
        <time>2021-01-31 13:12:39</time>
      </trkpt>
      <trkpt lat="38.82171" lon="-0.04084">
        <ele>113</ele>
        <time>2021-01-31 13:12:40</time>
      </trkpt>
      <trkpt lat="38.82172" lon="-0.04088">
        <ele>113</ele>
        <time>2021-01-31 13:12:41</time>
      </trkpt>
      <trkpt lat="38.82173" lon="-0.04093">
        <ele>112</ele>
        <time>2021-01-31 13:12:42</time>
      </trkpt>
      <trkpt lat="38.82174" lon="-0.04098">
        <ele>112</ele>
        <time>2021-01-31 13:12:43</time>
      </trkpt>
      <trkpt lat="38.82175" lon="-0.04101">
        <ele>112</ele>
        <time>2021-01-31 13:12:44</time>
      </trkpt>
      <trkpt lat="38.82176" lon="-0.04107">
        <ele>112</ele>
        <time>2021-01-31 13:12:45</time>
      </trkpt>
      <trkpt lat="38.82177" lon="-0.04112">
        <ele>112</ele>
        <time>2021-01-31 13:12:46</time>
      </trkpt>
      <trkpt lat="38.82178" lon="-0.04117">
        <ele>111.6</ele>
        <time>2021-01-31 13:12:47</time>
      </trkpt>
      <trkpt lat="38.82179" lon="-0.04123">
        <ele>111.6</ele>
        <time>2021-01-31 13:12:48</time>
      </trkpt>
      <trkpt lat="38.82179" lon="-0.04127">
        <ele>111.6</ele>
        <time>2021-01-31 13:12:49</time>
      </trkpt>
      <trkpt lat="38.8218" lon="-0.04133">
        <ele>112.6</ele>
        <time>2021-01-31 13:12:50</time>
      </trkpt>
      <trkpt lat="38.82181" lon="-0.04138">
        <ele>112.6</ele>
        <time>2021-01-31 13:12:51</time>
      </trkpt>
      <trkpt lat="38.82181" lon="-0.04143">
        <ele>112.6</ele>
        <time>2021-01-31 13:12:52</time>
      </trkpt>
      <trkpt lat="38.82182" lon="-0.04148">
        <ele>112.6</ele>
        <time>2021-01-31 13:12:53</time>
      </trkpt>
      <trkpt lat="38.82183" lon="-0.04152">
        <ele>113.6</ele>
        <time>2021-01-31 13:12:54</time>
      </trkpt>
      <trkpt lat="38.82184" lon="-0.04157">
        <ele>113.8</ele>
        <time>2021-01-31 13:12:55</time>
      </trkpt>
      <trkpt lat="38.82185" lon="-0.04162">
        <ele>113.8</ele>
        <time>2021-01-31 13:12:56</time>
      </trkpt>
      <trkpt lat="38.82185" lon="-0.04167">
        <ele>113.8</ele>
        <time>2021-01-31 13:12:57</time>
      </trkpt>
      <trkpt lat="38.82186" lon="-0.04172">
        <ele>113.4</ele>
        <time>2021-01-31 13:12:58</time>
      </trkpt>
      <trkpt lat="38.82187" lon="-0.04177">
        <ele>113.4</ele>
        <time>2021-01-31 13:12:59</time>
      </trkpt>
      <trkpt lat="38.82188" lon="-0.04182">
        <ele>113.4</ele>
        <time>2021-01-31 13:13:00</time>
      </trkpt>
      <trkpt lat="38.8219" lon="-0.04186">
        <ele>113.4</ele>
        <time>2021-01-31 13:13:01</time>
      </trkpt>
      <trkpt lat="38.82191" lon="-0.04191">
        <ele>113.4</ele>
        <time>2021-01-31 13:13:02</time>
      </trkpt>
      <trkpt lat="38.82192" lon="-0.04195">
        <ele>113</ele>
        <time>2021-01-31 13:13:03</time>
      </trkpt>
      <trkpt lat="38.82194" lon="-0.04199">
        <ele>113</ele>
        <time>2021-01-31 13:13:04</time>
      </trkpt>
      <trkpt lat="38.82195" lon="-0.04203">
        <ele>113</ele>
        <time>2021-01-31 13:13:05</time>
      </trkpt>
      <trkpt lat="38.82197" lon="-0.04208">
        <ele>112.8</ele>
        <time>2021-01-31 13:13:06</time>
      </trkpt>
      <trkpt lat="38.82198" lon="-0.04212">
        <ele>113.8</ele>
        <time>2021-01-31 13:13:07</time>
      </trkpt>
      <trkpt lat="38.82199" lon="-0.04218">
        <ele>113.8</ele>
        <time>2021-01-31 13:13:08</time>
      </trkpt>
      <trkpt lat="38.822" lon="-0.04223">
        <ele>113.8</ele>
        <time>2021-01-31 13:13:09</time>
      </trkpt>
      <trkpt lat="38.82201" lon="-0.04228">
        <ele>113.8</ele>
        <time>2021-01-31 13:13:10</time>
      </trkpt>
      <trkpt lat="38.82202" lon="-0.04233">
        <ele>115</ele>
        <time>2021-01-31 13:13:11</time>
      </trkpt>
      <trkpt lat="38.82203" lon="-0.04239">
        <ele>115</ele>
        <time>2021-01-31 13:13:12</time>
      </trkpt>
      <trkpt lat="38.82204" lon="-0.04244">
        <ele>115</ele>
        <time>2021-01-31 13:13:13</time>
      </trkpt>
      <trkpt lat="38.82205" lon="-0.0425">
        <ele>115.2</ele>
        <time>2021-01-31 13:13:14</time>
      </trkpt>
      <trkpt lat="38.82207" lon="-0.04255">
        <ele>114.2</ele>
        <time>2021-01-31 13:13:15</time>
      </trkpt>
      <trkpt lat="38.82208" lon="-0.04262">
        <ele>114.2</ele>
        <time>2021-01-31 13:13:16</time>
      </trkpt>
      <trkpt lat="38.8221" lon="-0.04267">
        <ele>114.2</ele>
        <time>2021-01-31 13:13:17</time>
      </trkpt>
      <trkpt lat="38.82211" lon="-0.04272">
        <ele>114.2</ele>
        <time>2021-01-31 13:13:18</time>
      </trkpt>
      <trkpt lat="38.82212" lon="-0.04278">
        <ele>114.2</ele>
        <time>2021-01-31 13:13:19</time>
      </trkpt>
      <trkpt lat="38.82213" lon="-0.04284">
        <ele>114.2</ele>
        <time>2021-01-31 13:13:20</time>
      </trkpt>
      <trkpt lat="38.82214" lon="-0.04289">
        <ele>114.2</ele>
        <time>2021-01-31 13:13:21</time>
      </trkpt>
      <trkpt lat="38.82216" lon="-0.04294">
        <ele>113.2</ele>
        <time>2021-01-31 13:13:22</time>
      </trkpt>
      <trkpt lat="38.82217" lon="-0.04299">
        <ele>114.2</ele>
        <time>2021-01-31 13:13:23</time>
      </trkpt>
      <trkpt lat="38.82218" lon="-0.04304">
        <ele>114.2</ele>
        <time>2021-01-31 13:13:24</time>
      </trkpt>
      <trkpt lat="38.8222" lon="-0.0431">
        <ele>114.2</ele>
        <time>2021-01-31 13:13:25</time>
      </trkpt>
      <trkpt lat="38.82221" lon="-0.04316">
        <ele>113.2</ele>
        <time>2021-01-31 13:13:26</time>
      </trkpt>
      <trkpt lat="38.82223" lon="-0.04323">
        <ele>111.8</ele>
        <time>2021-01-31 13:13:27</time>
      </trkpt>
      <trkpt lat="38.82224" lon="-0.04331">
        <ele>111.8</ele>
        <time>2021-01-31 13:13:28</time>
      </trkpt>
      <trkpt lat="38.82225" lon="-0.04338">
        <ele>111.8</ele>
        <time>2021-01-31 13:13:29</time>
      </trkpt>
      <trkpt lat="38.82227" lon="-0.04345">
        <ele>111.8</ele>
        <time>2021-01-31 13:13:30</time>
      </trkpt>
      <trkpt lat="38.82228" lon="-0.04352">
        <ele>112.2</ele>
        <time>2021-01-31 13:13:31</time>
      </trkpt>
      <trkpt lat="38.82229" lon="-0.04359">
        <ele>112.2</ele>
        <time>2021-01-31 13:13:32</time>
      </trkpt>
      <trkpt lat="38.8223" lon="-0.04366">
        <ele>112.2</ele>
        <time>2021-01-31 13:13:33</time>
      </trkpt>
      <trkpt lat="38.82231" lon="-0.04373">
        <ele>111.6</ele>
        <time>2021-01-31 13:13:34</time>
      </trkpt>
      <trkpt lat="38.82231" lon="-0.0438">
        <ele>111.6</ele>
        <time>2021-01-31 13:13:35</time>
      </trkpt>
      <trkpt lat="38.82231" lon="-0.04388">
        <ele>111.6</ele>
        <time>2021-01-31 13:13:36</time>
      </trkpt>
      <trkpt lat="38.82231" lon="-0.04397">
        <ele>111.6</ele>
        <time>2021-01-31 13:13:37</time>
      </trkpt>
      <trkpt lat="38.82231" lon="-0.04397">
        <ele>110.6</ele>
        <time>2021-01-31 13:13:38</time>
      </trkpt>
      <trkpt lat="38.82232" lon="-0.04414">
        <ele>110.6</ele>
        <time>2021-01-31 13:13:39</time>
      </trkpt>
      <trkpt lat="38.82232" lon="-0.04422">
        <ele>110.6</ele>
        <time>2021-01-31 13:13:40</time>
      </trkpt>
      <trkpt lat="38.82232" lon="-0.04432">
        <ele>110.6</ele>
        <time>2021-01-31 13:13:41</time>
      </trkpt>
      <trkpt lat="38.82231" lon="-0.0444">
        <ele>110.6</ele>
        <time>2021-01-31 13:13:42</time>
      </trkpt>
      <trkpt lat="38.82231" lon="-0.04448">
        <ele>110.6</ele>
        <time>2021-01-31 13:13:43</time>
      </trkpt>
      <trkpt lat="38.82231" lon="-0.04456">
        <ele>110.6</ele>
        <time>2021-01-31 13:13:44</time>
      </trkpt>
      <trkpt lat="38.82231" lon="-0.04464">
        <ele>110.6</ele>
        <time>2021-01-31 13:13:45</time>
      </trkpt>
      <trkpt lat="38.82231" lon="-0.04472">
        <ele>110.6</ele>
        <time>2021-01-31 13:13:46</time>
      </trkpt>
      <trkpt lat="38.82232" lon="-0.04479">
        <ele>111.4</ele>
        <time>2021-01-31 13:13:47</time>
      </trkpt>
      <trkpt lat="38.82232" lon="-0.04486">
        <ele>111.4</ele>
        <time>2021-01-31 13:13:48</time>
      </trkpt>
      <trkpt lat="38.82232" lon="-0.04494">
        <ele>111.4</ele>
        <time>2021-01-31 13:13:49</time>
      </trkpt>
      <trkpt lat="38.82232" lon="-0.04501">
        <ele>111.2</ele>
        <time>2021-01-31 13:13:50</time>
      </trkpt>
      <trkpt lat="38.82232" lon="-0.04509">
        <ele>110.6</ele>
        <time>2021-01-31 13:13:51</time>
      </trkpt>
      <trkpt lat="38.82233" lon="-0.04516">
        <ele>110.6</ele>
        <time>2021-01-31 13:13:52</time>
      </trkpt>
      <trkpt lat="38.82234" lon="-0.04524">
        <ele>110.6</ele>
        <time>2021-01-31 13:13:53</time>
      </trkpt>
      <trkpt lat="38.82235" lon="-0.04531">
        <ele>110.6</ele>
        <time>2021-01-31 13:13:54</time>
      </trkpt>
      <trkpt lat="38.82236" lon="-0.04538">
        <ele>110.4</ele>
        <time>2021-01-31 13:13:55</time>
      </trkpt>
      <trkpt lat="38.82237" lon="-0.04546">
        <ele>110.4</ele>
        <time>2021-01-31 13:13:56</time>
      </trkpt>
      <trkpt lat="38.82238" lon="-0.04553">
        <ele>110.4</ele>
        <time>2021-01-31 13:13:57</time>
      </trkpt>
      <trkpt lat="38.82239" lon="-0.0456">
        <ele>110.4</ele>
        <time>2021-01-31 13:13:58</time>
      </trkpt>
      <trkpt lat="38.8224" lon="-0.04567">
        <ele>111.2</ele>
        <time>2021-01-31 13:13:59</time>
      </trkpt>
      <trkpt lat="38.82242" lon="-0.04574">
        <ele>111.2</ele>
        <time>2021-01-31 13:14:00</time>
      </trkpt>
      <trkpt lat="38.82243" lon="-0.04581">
        <ele>111.2</ele>
        <time>2021-01-31 13:14:01</time>
      </trkpt>
      <trkpt lat="38.82244" lon="-0.04587">
        <ele>111.2</ele>
        <time>2021-01-31 13:14:02</time>
      </trkpt>
      <trkpt lat="38.82245" lon="-0.04594">
        <ele>112</ele>
        <time>2021-01-31 13:14:03</time>
      </trkpt>
      <trkpt lat="38.82245" lon="-0.04601">
        <ele>112</ele>
        <time>2021-01-31 13:14:04</time>
      </trkpt>
      <trkpt lat="38.82245" lon="-0.04607">
        <ele>112</ele>
        <time>2021-01-31 13:14:05</time>
      </trkpt>
      <trkpt lat="38.82245" lon="-0.04613">
        <ele>112</ele>
        <time>2021-01-31 13:14:06</time>
      </trkpt>
      <trkpt lat="38.82245" lon="-0.04619">
        <ele>111.6</ele>
        <time>2021-01-31 13:14:07</time>
      </trkpt>
      <trkpt lat="38.82244" lon="-0.04625">
        <ele>111.6</ele>
        <time>2021-01-31 13:14:08</time>
      </trkpt>
      <trkpt lat="38.82243" lon="-0.04632">
        <ele>111.6</ele>
        <time>2021-01-31 13:14:09</time>
      </trkpt>
      <trkpt lat="38.82242" lon="-0.04638">
        <ele>111.6</ele>
        <time>2021-01-31 13:14:10</time>
      </trkpt>
      <trkpt lat="38.82241" lon="-0.04645">
        <ele>110.2</ele>
        <time>2021-01-31 13:14:11</time>
      </trkpt>
      <trkpt lat="38.8224" lon="-0.04651">
        <ele>110.2</ele>
        <time>2021-01-31 13:14:12</time>
      </trkpt>
      <trkpt lat="38.82239" lon="-0.04658">
        <ele>110.2</ele>
        <time>2021-01-31 13:14:13</time>
      </trkpt>
      <trkpt lat="38.82238" lon="-0.04664">
        <ele>111</ele>
        <time>2021-01-31 13:14:14</time>
      </trkpt>
      <trkpt lat="38.82237" lon="-0.0467">
        <ele>110.6</ele>
        <time>2021-01-31 13:14:15</time>
      </trkpt>
      <trkpt lat="38.82235" lon="-0.04677">
        <ele>110.6</ele>
        <time>2021-01-31 13:14:16</time>
      </trkpt>
      <trkpt lat="38.82234" lon="-0.04683">
        <ele>110.6</ele>
        <time>2021-01-31 13:14:17</time>
      </trkpt>
      <trkpt lat="38.82232" lon="-0.04688">
        <ele>111.6</ele>
        <time>2021-01-31 13:14:18</time>
      </trkpt>
      <trkpt lat="38.82231" lon="-0.04694">
        <ele>112</ele>
        <time>2021-01-31 13:14:19</time>
      </trkpt>
      <trkpt lat="38.82229" lon="-0.047">
        <ele>112</ele>
        <time>2021-01-31 13:14:20</time>
      </trkpt>
      <trkpt lat="38.82227" lon="-0.04705">
        <ele>112</ele>
        <time>2021-01-31 13:14:21</time>
      </trkpt>
      <trkpt lat="38.82225" lon="-0.04711">
        <ele>113</ele>
        <time>2021-01-31 13:14:22</time>
      </trkpt>
      <trkpt lat="38.82223" lon="-0.04716">
        <ele>113.2</ele>
        <time>2021-01-31 13:14:23</time>
      </trkpt>
      <trkpt lat="38.82221" lon="-0.04722">
        <ele>113.2</ele>
        <time>2021-01-31 13:14:24</time>
      </trkpt>
      <trkpt lat="38.82218" lon="-0.04727">
        <ele>113.2</ele>
        <time>2021-01-31 13:14:25</time>
      </trkpt>
      <trkpt lat="38.82216" lon="-0.04732">
        <ele>113.6</ele>
        <time>2021-01-31 13:14:26</time>
      </trkpt>
      <trkpt lat="38.82214" lon="-0.04738">
        <ele>113.8</ele>
        <time>2021-01-31 13:14:27</time>
      </trkpt>
      <trkpt lat="38.82211" lon="-0.04743">
        <ele>113.8</ele>
        <time>2021-01-31 13:14:28</time>
      </trkpt>
      <trkpt lat="38.82209" lon="-0.04748">
        <ele>113.8</ele>
        <time>2021-01-31 13:14:29</time>
      </trkpt>
      <trkpt lat="38.82206" lon="-0.04754">
        <ele>113.2</ele>
        <time>2021-01-31 13:14:30</time>
      </trkpt>
      <trkpt lat="38.82203" lon="-0.04759">
        <ele>114.4</ele>
        <time>2021-01-31 13:14:31</time>
      </trkpt>
      <trkpt lat="38.82201" lon="-0.04765">
        <ele>114.4</ele>
        <time>2021-01-31 13:14:32</time>
      </trkpt>
      <trkpt lat="38.82198" lon="-0.0477">
        <ele>114.4</ele>
        <time>2021-01-31 13:14:33</time>
      </trkpt>
      <trkpt lat="38.82195" lon="-0.04776">
        <ele>113.6</ele>
        <time>2021-01-31 13:14:34</time>
      </trkpt>
      <trkpt lat="38.82193" lon="-0.04781">
        <ele>113.8</ele>
        <time>2021-01-31 13:14:35</time>
      </trkpt>
      <trkpt lat="38.8219" lon="-0.04787">
        <ele>113.8</ele>
        <time>2021-01-31 13:14:36</time>
      </trkpt>
      <trkpt lat="38.82187" lon="-0.04792">
        <ele>113.8</ele>
        <time>2021-01-31 13:14:37</time>
      </trkpt>
      <trkpt lat="38.82185" lon="-0.04798">
        <ele>113.8</ele>
        <time>2021-01-31 13:14:38</time>
      </trkpt>
      <trkpt lat="38.82182" lon="-0.04803">
        <ele>114.8</ele>
        <time>2021-01-31 13:14:39</time>
      </trkpt>
      <trkpt lat="38.8218" lon="-0.04808">
        <ele>114.8</ele>
        <time>2021-01-31 13:14:40</time>
      </trkpt>
      <trkpt lat="38.82178" lon="-0.04813">
        <ele>114.8</ele>
        <time>2021-01-31 13:14:41</time>
      </trkpt>
      <trkpt lat="38.82175" lon="-0.04818">
        <ele>114.8</ele>
        <time>2021-01-31 13:14:42</time>
      </trkpt>
      <trkpt lat="38.82173" lon="-0.04823">
        <ele>115</ele>
        <time>2021-01-31 13:14:43</time>
      </trkpt>
      <trkpt lat="38.82171" lon="-0.04828">
        <ele>115</ele>
        <time>2021-01-31 13:14:44</time>
      </trkpt>
      <trkpt lat="38.82168" lon="-0.04833">
        <ele>115</ele>
        <time>2021-01-31 13:14:45</time>
      </trkpt>
      <trkpt lat="38.82166" lon="-0.04838">
        <ele>115</ele>
        <time>2021-01-31 13:14:46</time>
      </trkpt>
      <trkpt lat="38.82164" lon="-0.04842">
        <ele>115.4</ele>
        <time>2021-01-31 13:14:47</time>
      </trkpt>
      <trkpt lat="38.82161" lon="-0.04848">
        <ele>115.4</ele>
        <time>2021-01-31 13:14:48</time>
      </trkpt>
      <trkpt lat="38.82159" lon="-0.04853">
        <ele>115.4</ele>
        <time>2021-01-31 13:14:49</time>
      </trkpt>
      <trkpt lat="38.82156" lon="-0.04858">
        <ele>115.4</ele>
        <time>2021-01-31 13:14:50</time>
      </trkpt>
      <trkpt lat="38.82154" lon="-0.04863">
        <ele>115.2</ele>
        <time>2021-01-31 13:14:51</time>
      </trkpt>
      <trkpt lat="38.82151" lon="-0.04868">
        <ele>115.2</ele>
        <time>2021-01-31 13:14:52</time>
      </trkpt>
      <trkpt lat="38.82149" lon="-0.04873">
        <ele>115.2</ele>
        <time>2021-01-31 13:14:53</time>
      </trkpt>
      <trkpt lat="38.82146" lon="-0.04878">
        <ele>115.2</ele>
        <time>2021-01-31 13:14:54</time>
      </trkpt>
      <trkpt lat="38.82144" lon="-0.04883">
        <ele>115.8</ele>
        <time>2021-01-31 13:14:55</time>
      </trkpt>
      <trkpt lat="38.82142" lon="-0.04889">
        <ele>115.8</ele>
        <time>2021-01-31 13:14:56</time>
      </trkpt>
      <trkpt lat="38.82139" lon="-0.04894">
        <ele>115.8</ele>
        <time>2021-01-31 13:14:57</time>
      </trkpt>
      <trkpt lat="38.82137" lon="-0.04899">
        <ele>114.8</ele>
        <time>2021-01-31 13:14:58</time>
      </trkpt>
      <trkpt lat="38.82134" lon="-0.04905">
        <ele>115.8</ele>
        <time>2021-01-31 13:14:59</time>
      </trkpt>
      <trkpt lat="38.82132" lon="-0.0491">
        <ele>115.8</ele>
        <time>2021-01-31 13:15:00</time>
      </trkpt>
      <trkpt lat="38.82129" lon="-0.04915">
        <ele>115.8</ele>
        <time>2021-01-31 13:15:01</time>
      </trkpt>
      <trkpt lat="38.82127" lon="-0.04921">
        <ele>115.8</ele>
        <time>2021-01-31 13:15:02</time>
      </trkpt>
      <trkpt lat="38.82124" lon="-0.04926">
        <ele>115.4</ele>
        <time>2021-01-31 13:15:03</time>
      </trkpt>
      <trkpt lat="38.82121" lon="-0.04931">
        <ele>115.4</ele>
        <time>2021-01-31 13:15:04</time>
      </trkpt>
      <trkpt lat="38.82119" lon="-0.04937">
        <ele>115.4</ele>
        <time>2021-01-31 13:15:05</time>
      </trkpt>
      <trkpt lat="38.82117" lon="-0.04942">
        <ele>115.4</ele>
        <time>2021-01-31 13:15:06</time>
      </trkpt>
      <trkpt lat="38.82114" lon="-0.04948">
        <ele>114.6</ele>
        <time>2021-01-31 13:15:07</time>
      </trkpt>
      <trkpt lat="38.82112" lon="-0.04954">
        <ele>114.6</ele>
        <time>2021-01-31 13:15:08</time>
      </trkpt>
      <trkpt lat="38.82112" lon="-0.04954">
        <ele>114.6</ele>
        <time>2021-01-31 13:15:09</time>
      </trkpt>
      <trkpt lat="38.82107" lon="-0.04965">
        <ele>114.6</ele>
        <time>2021-01-31 13:15:10</time>
      </trkpt>
      <trkpt lat="38.82105" lon="-0.0497">
        <ele>114.8</ele>
        <time>2021-01-31 13:15:11</time>
      </trkpt>
      <trkpt lat="38.82102" lon="-0.04976">
        <ele>114.8</ele>
        <time>2021-01-31 13:15:12</time>
      </trkpt>
      <trkpt lat="38.821" lon="-0.04982">
        <ele>114.8</ele>
        <time>2021-01-31 13:15:13</time>
      </trkpt>
      <trkpt lat="38.82098" lon="-0.04988">
        <ele>115</ele>
        <time>2021-01-31 13:15:14</time>
      </trkpt>
      <trkpt lat="38.82095" lon="-0.04994">
        <ele>114.8</ele>
        <time>2021-01-31 13:15:15</time>
      </trkpt>
      <trkpt lat="38.82093" lon="-0.05">
        <ele>114.8</ele>
        <time>2021-01-31 13:15:16</time>
      </trkpt>
      <trkpt lat="38.82091" lon="-0.05006">
        <ele>114.8</ele>
        <time>2021-01-31 13:15:17</time>
      </trkpt>
      <trkpt lat="38.82088" lon="-0.05012">
        <ele>115.8</ele>
        <time>2021-01-31 13:15:18</time>
      </trkpt>
      <trkpt lat="38.82086" lon="-0.05018">
        <ele>115.8</ele>
        <time>2021-01-31 13:15:19</time>
      </trkpt>
      <trkpt lat="38.82084" lon="-0.05024">
        <ele>115.8</ele>
        <time>2021-01-31 13:15:20</time>
      </trkpt>
      <trkpt lat="38.82082" lon="-0.05029">
        <ele>115.8</ele>
        <time>2021-01-31 13:15:21</time>
      </trkpt>
      <trkpt lat="38.82079" lon="-0.05035">
        <ele>115.8</ele>
        <time>2021-01-31 13:15:22</time>
      </trkpt>
      <trkpt lat="38.82077" lon="-0.05041">
        <ele>116.2</ele>
        <time>2021-01-31 13:15:23</time>
      </trkpt>
      <trkpt lat="38.82076" lon="-0.05047">
        <ele>116.2</ele>
        <time>2021-01-31 13:15:24</time>
      </trkpt>
      <trkpt lat="38.82073" lon="-0.05052">
        <ele>116.2</ele>
        <time>2021-01-31 13:15:25</time>
      </trkpt>
      <trkpt lat="38.82072" lon="-0.05058">
        <ele>116.2</ele>
        <time>2021-01-31 13:15:26</time>
      </trkpt>
      <trkpt lat="38.8207" lon="-0.05063">
        <ele>116.8</ele>
        <time>2021-01-31 13:15:27</time>
      </trkpt>
      <trkpt lat="38.82069" lon="-0.05069">
        <ele>116.8</ele>
        <time>2021-01-31 13:15:28</time>
      </trkpt>
      <trkpt lat="38.82066" lon="-0.05074">
        <ele>116.8</ele>
        <time>2021-01-31 13:15:29</time>
      </trkpt>
      <trkpt lat="38.82064" lon="-0.05079">
        <ele>116.8</ele>
        <time>2021-01-31 13:15:30</time>
      </trkpt>
      <trkpt lat="38.82062" lon="-0.05085">
        <ele>116.4</ele>
        <time>2021-01-31 13:15:31</time>
      </trkpt>
      <trkpt lat="38.8206" lon="-0.0509">
        <ele>116.4</ele>
        <time>2021-01-31 13:15:32</time>
      </trkpt>
      <trkpt lat="38.82058" lon="-0.05095">
        <ele>116.4</ele>
        <time>2021-01-31 13:15:33</time>
      </trkpt>
      <trkpt lat="38.82055" lon="-0.05101">
        <ele>116.8</ele>
        <time>2021-01-31 13:15:34</time>
      </trkpt>
      <trkpt lat="38.82053" lon="-0.05106">
        <ele>116.2</ele>
        <time>2021-01-31 13:15:35</time>
      </trkpt>
      <trkpt lat="38.82051" lon="-0.05112">
        <ele>116.2</ele>
        <time>2021-01-31 13:15:36</time>
      </trkpt>
      <trkpt lat="38.82048" lon="-0.05118">
        <ele>116.2</ele>
        <time>2021-01-31 13:15:37</time>
      </trkpt>
      <trkpt lat="38.82046" lon="-0.05124">
        <ele>117.2</ele>
        <time>2021-01-31 13:15:38</time>
      </trkpt>
      <trkpt lat="38.82043" lon="-0.0513">
        <ele>118</ele>
        <time>2021-01-31 13:15:39</time>
      </trkpt>
      <trkpt lat="38.82041" lon="-0.05136">
        <ele>118</ele>
        <time>2021-01-31 13:15:40</time>
      </trkpt>
      <trkpt lat="38.82038" lon="-0.05143">
        <ele>118</ele>
        <time>2021-01-31 13:15:41</time>
      </trkpt>
      <trkpt lat="38.82036" lon="-0.05149">
        <ele>118</ele>
        <time>2021-01-31 13:15:42</time>
      </trkpt>
      <trkpt lat="38.82034" lon="-0.05155">
        <ele>117</ele>
        <time>2021-01-31 13:15:43</time>
      </trkpt>
      <trkpt lat="38.82031" lon="-0.05161">
        <ele>117</ele>
        <time>2021-01-31 13:15:44</time>
      </trkpt>
      <trkpt lat="38.82029" lon="-0.05167">
        <ele>117</ele>
        <time>2021-01-31 13:15:45</time>
      </trkpt>
      <trkpt lat="38.82026" lon="-0.05173">
        <ele>116</ele>
        <time>2021-01-31 13:15:46</time>
      </trkpt>
      <trkpt lat="38.82024" lon="-0.0518">
        <ele>114.4</ele>
        <time>2021-01-31 13:15:47</time>
      </trkpt>
      <trkpt lat="38.82022" lon="-0.05186">
        <ele>114.4</ele>
        <time>2021-01-31 13:15:48</time>
      </trkpt>
      <trkpt lat="38.8202" lon="-0.05192">
        <ele>114.4</ele>
        <time>2021-01-31 13:15:49</time>
      </trkpt>
      <trkpt lat="38.82017" lon="-0.05199">
        <ele>115.4</ele>
        <time>2021-01-31 13:15:50</time>
      </trkpt>
      <trkpt lat="38.82014" lon="-0.05205">
        <ele>115.8</ele>
        <time>2021-01-31 13:15:51</time>
      </trkpt>
      <trkpt lat="38.82012" lon="-0.05211">
        <ele>115.8</ele>
        <time>2021-01-31 13:15:52</time>
      </trkpt>
      <trkpt lat="38.82009" lon="-0.05218">
        <ele>115.8</ele>
        <time>2021-01-31 13:15:53</time>
      </trkpt>
      <trkpt lat="38.82006" lon="-0.05225">
        <ele>115.8</ele>
        <time>2021-01-31 13:15:54</time>
      </trkpt>
      <trkpt lat="38.82004" lon="-0.05231">
        <ele>117</ele>
        <time>2021-01-31 13:15:55</time>
      </trkpt>
      <trkpt lat="38.82001" lon="-0.05238">
        <ele>117</ele>
        <time>2021-01-31 13:15:56</time>
      </trkpt>
      <trkpt lat="38.81998" lon="-0.05244">
        <ele>117</ele>
        <time>2021-01-31 13:15:57</time>
      </trkpt>
      <trkpt lat="38.81995" lon="-0.05251">
        <ele>116</ele>
        <time>2021-01-31 13:15:58</time>
      </trkpt>
      <trkpt lat="38.81992" lon="-0.05257">
        <ele>115.8</ele>
        <time>2021-01-31 13:15:59</time>
      </trkpt>
      <trkpt lat="38.81989" lon="-0.05263">
        <ele>115.8</ele>
        <time>2021-01-31 13:16:00</time>
      </trkpt>
      <trkpt lat="38.81986" lon="-0.0527">
        <ele>115.8</ele>
        <time>2021-01-31 13:16:01</time>
      </trkpt>
      <trkpt lat="38.81983" lon="-0.05276">
        <ele>115.8</ele>
        <time>2021-01-31 13:16:02</time>
      </trkpt>
      <trkpt lat="38.81981" lon="-0.05283">
        <ele>115.8</ele>
        <time>2021-01-31 13:16:03</time>
      </trkpt>
      <trkpt lat="38.81979" lon="-0.05289">
        <ele>115.8</ele>
        <time>2021-01-31 13:16:04</time>
      </trkpt>
      <trkpt lat="38.81977" lon="-0.05296">
        <ele>115.8</ele>
        <time>2021-01-31 13:16:05</time>
      </trkpt>
      <trkpt lat="38.81974" lon="-0.05302">
        <ele>116.4</ele>
        <time>2021-01-31 13:16:06</time>
      </trkpt>
      <trkpt lat="38.81972" lon="-0.05308">
        <ele>116.8</ele>
        <time>2021-01-31 13:16:07</time>
      </trkpt>
      <trkpt lat="38.8197" lon="-0.05314">
        <ele>116.8</ele>
        <time>2021-01-31 13:16:08</time>
      </trkpt>
      <trkpt lat="38.81967" lon="-0.0532">
        <ele>116.8</ele>
        <time>2021-01-31 13:16:09</time>
      </trkpt>
      <trkpt lat="38.81964" lon="-0.05325">
        <ele>116.8</ele>
        <time>2021-01-31 13:16:10</time>
      </trkpt>
      <trkpt lat="38.81961" lon="-0.0533">
        <ele>115.8</ele>
        <time>2021-01-31 13:16:11</time>
      </trkpt>
      <trkpt lat="38.81958" lon="-0.05335">
        <ele>115.8</ele>
        <time>2021-01-31 13:16:12</time>
      </trkpt>
      <trkpt lat="38.81954" lon="-0.0534">
        <ele>115.8</ele>
        <time>2021-01-31 13:16:13</time>
      </trkpt>
      <trkpt lat="38.81951" lon="-0.05345">
        <ele>115.8</ele>
        <time>2021-01-31 13:16:14</time>
      </trkpt>
      <trkpt lat="38.81947" lon="-0.0535">
        <ele>115.8</ele>
        <time>2021-01-31 13:16:15</time>
      </trkpt>
      <trkpt lat="38.81944" lon="-0.05356">
        <ele>115.8</ele>
        <time>2021-01-31 13:16:16</time>
      </trkpt>
      <trkpt lat="38.8194" lon="-0.0536">
        <ele>115.8</ele>
        <time>2021-01-31 13:16:17</time>
      </trkpt>
      <trkpt lat="38.81936" lon="-0.05365">
        <ele>114.8</ele>
        <time>2021-01-31 13:16:18</time>
      </trkpt>
      <trkpt lat="38.81932" lon="-0.0537">
        <ele>113.8</ele>
        <time>2021-01-31 13:16:19</time>
      </trkpt>
      <trkpt lat="38.81928" lon="-0.05375">
        <ele>113.8</ele>
        <time>2021-01-31 13:16:20</time>
      </trkpt>
      <trkpt lat="38.81924" lon="-0.0538">
        <ele>113.8</ele>
        <time>2021-01-31 13:16:21</time>
      </trkpt>
      <trkpt lat="38.8192" lon="-0.05385">
        <ele>113.8</ele>
        <time>2021-01-31 13:16:22</time>
      </trkpt>
      <trkpt lat="38.81916" lon="-0.0539">
        <ele>116</ele>
        <time>2021-01-31 13:16:23</time>
      </trkpt>
      <trkpt lat="38.81912" lon="-0.05395">
        <ele>116</ele>
        <time>2021-01-31 13:16:24</time>
      </trkpt>
      <trkpt lat="38.81908" lon="-0.05401">
        <ele>116</ele>
        <time>2021-01-31 13:16:25</time>
      </trkpt>
      <trkpt lat="38.81903" lon="-0.05406">
        <ele>116</ele>
        <time>2021-01-31 13:16:26</time>
      </trkpt>
      <trkpt lat="38.81898" lon="-0.05411">
        <ele>115.2</ele>
        <time>2021-01-31 13:16:27</time>
      </trkpt>
      <trkpt lat="38.81894" lon="-0.05417">
        <ele>115.2</ele>
        <time>2021-01-31 13:16:28</time>
      </trkpt>
      <trkpt lat="38.81889" lon="-0.05423">
        <ele>115.2</ele>
        <time>2021-01-31 13:16:29</time>
      </trkpt>
      <trkpt lat="38.81884" lon="-0.05429">
        <ele>114.2</ele>
        <time>2021-01-31 13:16:30</time>
      </trkpt>
      <trkpt lat="38.81879" lon="-0.05434">
        <ele>112.6</ele>
        <time>2021-01-31 13:16:31</time>
      </trkpt>
      <trkpt lat="38.81874" lon="-0.05439">
        <ele>112.6</ele>
        <time>2021-01-31 13:16:32</time>
      </trkpt>
      <trkpt lat="38.81868" lon="-0.05444">
        <ele>112.6</ele>
        <time>2021-01-31 13:16:33</time>
      </trkpt>
      <trkpt lat="38.81863" lon="-0.05448">
        <ele>112.6</ele>
        <time>2021-01-31 13:16:34</time>
      </trkpt>
      <trkpt lat="38.81858" lon="-0.05452">
        <ele>112.6</ele>
        <time>2021-01-31 13:16:35</time>
      </trkpt>
      <trkpt lat="38.81852" lon="-0.05456">
        <ele>112.6</ele>
        <time>2021-01-31 13:16:36</time>
      </trkpt>
      <trkpt lat="38.81847" lon="-0.05459">
        <ele>112.6</ele>
        <time>2021-01-31 13:16:37</time>
      </trkpt>
      <trkpt lat="38.81841" lon="-0.05463">
        <ele>112.6</ele>
        <time>2021-01-31 13:16:38</time>
      </trkpt>
      <trkpt lat="38.81836" lon="-0.05466">
        <ele>114.2</ele>
        <time>2021-01-31 13:16:39</time>
      </trkpt>
      <trkpt lat="38.81831" lon="-0.05469">
        <ele>114.2</ele>
        <time>2021-01-31 13:16:40</time>
      </trkpt>
      <trkpt lat="38.81831" lon="-0.05469">
        <ele>114.2</ele>
        <time>2021-01-31 13:16:41</time>
      </trkpt>
      <trkpt lat="38.8182" lon="-0.05475">
        <ele>114.2</ele>
        <time>2021-01-31 13:16:42</time>
      </trkpt>
      <trkpt lat="38.81814" lon="-0.05479">
        <ele>113.6</ele>
        <time>2021-01-31 13:16:43</time>
      </trkpt>
      <trkpt lat="38.81809" lon="-0.05482">
        <ele>113.6</ele>
        <time>2021-01-31 13:16:44</time>
      </trkpt>
      <trkpt lat="38.81804" lon="-0.05485">
        <ele>113.6</ele>
        <time>2021-01-31 13:16:45</time>
      </trkpt>
      <trkpt lat="38.81798" lon="-0.05488">
        <ele>113.8</ele>
        <time>2021-01-31 13:16:46</time>
      </trkpt>
      <trkpt lat="38.81793" lon="-0.05491">
        <ele>113.4</ele>
        <time>2021-01-31 13:16:47</time>
      </trkpt>
      <trkpt lat="38.81788" lon="-0.05494">
        <ele>113.4</ele>
        <time>2021-01-31 13:16:48</time>
      </trkpt>
      <trkpt lat="38.81788" lon="-0.05494">
        <ele>113.4</ele>
        <time>2021-01-31 13:16:49</time>
      </trkpt>
      <trkpt lat="38.81777" lon="-0.055">
        <ele>114.4</ele>
        <time>2021-01-31 13:16:50</time>
      </trkpt>
      <trkpt lat="38.81772" lon="-0.05504">
        <ele>115</ele>
        <time>2021-01-31 13:16:51</time>
      </trkpt>
      <trkpt lat="38.81767" lon="-0.05507">
        <ele>115</ele>
        <time>2021-01-31 13:16:52</time>
      </trkpt>
      <trkpt lat="38.81762" lon="-0.05511">
        <ele>115</ele>
        <time>2021-01-31 13:16:53</time>
      </trkpt>
      <trkpt lat="38.81757" lon="-0.05514">
        <ele>116</ele>
        <time>2021-01-31 13:16:54</time>
      </trkpt>
      <trkpt lat="38.81751" lon="-0.05517">
        <ele>118.4</ele>
        <time>2021-01-31 13:16:55</time>
      </trkpt>
      <trkpt lat="38.81746" lon="-0.05521">
        <ele>118.4</ele>
        <time>2021-01-31 13:16:56</time>
      </trkpt>
      <trkpt lat="38.81741" lon="-0.05524">
        <ele>118.4</ele>
        <time>2021-01-31 13:16:57</time>
      </trkpt>
      <trkpt lat="38.81736" lon="-0.05528">
        <ele>117.4</ele>
        <time>2021-01-31 13:16:58</time>
      </trkpt>
      <trkpt lat="38.81731" lon="-0.05532">
        <ele>115.6</ele>
        <time>2021-01-31 13:16:59</time>
      </trkpt>
      <trkpt lat="38.81726" lon="-0.05537">
        <ele>115.6</ele>
        <time>2021-01-31 13:17:00</time>
      </trkpt>
      <trkpt lat="38.81722" lon="-0.05541">
        <ele>115.6</ele>
        <time>2021-01-31 13:17:01</time>
      </trkpt>
      <trkpt lat="38.81718" lon="-0.05546">
        <ele>115.6</ele>
        <time>2021-01-31 13:17:02</time>
      </trkpt>
      <trkpt lat="38.81713" lon="-0.05551">
        <ele>116.8</ele>
        <time>2021-01-31 13:17:03</time>
      </trkpt>
      <trkpt lat="38.8171" lon="-0.05555">
        <ele>116.8</ele>
        <time>2021-01-31 13:17:04</time>
      </trkpt>
      <trkpt lat="38.81706" lon="-0.0556">
        <ele>116.8</ele>
        <time>2021-01-31 13:17:05</time>
      </trkpt>
      <trkpt lat="38.81702" lon="-0.05565">
        <ele>116.8</ele>
        <time>2021-01-31 13:17:06</time>
      </trkpt>
      <trkpt lat="38.81699" lon="-0.0557">
        <ele>117</ele>
        <time>2021-01-31 13:17:07</time>
      </trkpt>
      <trkpt lat="38.81695" lon="-0.05574">
        <ele>117</ele>
        <time>2021-01-31 13:17:08</time>
      </trkpt>
      <trkpt lat="38.81691" lon="-0.05579">
        <ele>117</ele>
        <time>2021-01-31 13:17:09</time>
      </trkpt>
      <trkpt lat="38.81688" lon="-0.05584">
        <ele>118</ele>
        <time>2021-01-31 13:17:10</time>
      </trkpt>
      <trkpt lat="38.81684" lon="-0.05588">
        <ele>118.4</ele>
        <time>2021-01-31 13:17:11</time>
      </trkpt>
      <trkpt lat="38.8168" lon="-0.05593">
        <ele>118.4</ele>
        <time>2021-01-31 13:17:12</time>
      </trkpt>
      <trkpt lat="38.81677" lon="-0.05599">
        <ele>118.4</ele>
        <time>2021-01-31 13:17:13</time>
      </trkpt>
      <trkpt lat="38.81674" lon="-0.05605">
        <ele>119.4</ele>
        <time>2021-01-31 13:17:14</time>
      </trkpt>
      <trkpt lat="38.81671" lon="-0.05611">
        <ele>119</ele>
        <time>2021-01-31 13:17:15</time>
      </trkpt>
      <trkpt lat="38.81669" lon="-0.05617">
        <ele>119</ele>
        <time>2021-01-31 13:17:16</time>
      </trkpt>
      <trkpt lat="38.81667" lon="-0.05622">
        <ele>119</ele>
        <time>2021-01-31 13:17:17</time>
      </trkpt>
      <trkpt lat="38.81665" lon="-0.05628">
        <ele>118</ele>
        <time>2021-01-31 13:17:18</time>
      </trkpt>
      <trkpt lat="38.81662" lon="-0.05634">
        <ele>116.2</ele>
        <time>2021-01-31 13:17:19</time>
      </trkpt>
      <trkpt lat="38.8166" lon="-0.0564">
        <ele>116.2</ele>
        <time>2021-01-31 13:17:20</time>
      </trkpt>
      <trkpt lat="38.81658" lon="-0.05646">
        <ele>116.2</ele>
        <time>2021-01-31 13:17:21</time>
      </trkpt>
      <trkpt lat="38.81656" lon="-0.05652">
        <ele>117.2</ele>
        <time>2021-01-31 13:17:22</time>
      </trkpt>
      <trkpt lat="38.81654" lon="-0.05658">
        <ele>117.2</ele>
        <time>2021-01-31 13:17:23</time>
      </trkpt>
      <trkpt lat="38.81652" lon="-0.05663">
        <ele>117.2</ele>
        <time>2021-01-31 13:17:24</time>
      </trkpt>
      <trkpt lat="38.8165" lon="-0.05669">
        <ele>117.2</ele>
        <time>2021-01-31 13:17:25</time>
      </trkpt>
      <trkpt lat="38.81648" lon="-0.05675">
        <ele>118.2</ele>
        <time>2021-01-31 13:17:26</time>
      </trkpt>
      <trkpt lat="38.81646" lon="-0.05681">
        <ele>119.6</ele>
        <time>2021-01-31 13:17:27</time>
      </trkpt>
      <trkpt lat="38.81644" lon="-0.05687">
        <ele>119.6</ele>
        <time>2021-01-31 13:17:28</time>
      </trkpt>
      <trkpt lat="38.81642" lon="-0.05693">
        <ele>119.6</ele>
        <time>2021-01-31 13:17:29</time>
      </trkpt>
      <trkpt lat="38.8164" lon="-0.05698">
        <ele>119</ele>
        <time>2021-01-31 13:17:30</time>
      </trkpt>
      <trkpt lat="38.81638" lon="-0.05704">
        <ele>118.8</ele>
        <time>2021-01-31 13:17:31</time>
      </trkpt>
      <trkpt lat="38.81635" lon="-0.0571">
        <ele>118.8</ele>
        <time>2021-01-31 13:17:32</time>
      </trkpt>
      <trkpt lat="38.81633" lon="-0.05716">
        <ele>118.8</ele>
        <time>2021-01-31 13:17:33</time>
      </trkpt>
      <trkpt lat="38.81631" lon="-0.05721">
        <ele>119.4</ele>
        <time>2021-01-31 13:17:34</time>
      </trkpt>
      <trkpt lat="38.81629" lon="-0.05726">
        <ele>120.2</ele>
        <time>2021-01-31 13:17:35</time>
      </trkpt>
      <trkpt lat="38.81626" lon="-0.05731">
        <ele>120.2</ele>
        <time>2021-01-31 13:17:36</time>
      </trkpt>
      <trkpt lat="38.81624" lon="-0.05736">
        <ele>120.2</ele>
        <time>2021-01-31 13:17:37</time>
      </trkpt>
      <trkpt lat="38.81621" lon="-0.05741">
        <ele>120.2</ele>
        <time>2021-01-31 13:17:38</time>
      </trkpt>
      <trkpt lat="38.81618" lon="-0.05745">
        <ele>121</ele>
        <time>2021-01-31 13:17:39</time>
      </trkpt>
      <trkpt lat="38.81615" lon="-0.0575">
        <ele>121</ele>
        <time>2021-01-31 13:17:40</time>
      </trkpt>
      <trkpt lat="38.81611" lon="-0.05754">
        <ele>121</ele>
        <time>2021-01-31 13:17:41</time>
      </trkpt>
      <trkpt lat="38.81608" lon="-0.05758">
        <ele>121</ele>
        <time>2021-01-31 13:17:42</time>
      </trkpt>
      <trkpt lat="38.81604" lon="-0.05763">
        <ele>121.6</ele>
        <time>2021-01-31 13:17:43</time>
      </trkpt>
      <trkpt lat="38.81601" lon="-0.05768">
        <ele>121.6</ele>
        <time>2021-01-31 13:17:44</time>
      </trkpt>
      <trkpt lat="38.81597" lon="-0.05772">
        <ele>121.6</ele>
        <time>2021-01-31 13:17:45</time>
      </trkpt>
      <trkpt lat="38.81594" lon="-0.05777">
        <ele>120.6</ele>
        <time>2021-01-31 13:17:46</time>
      </trkpt>
      <trkpt lat="38.8159" lon="-0.05782">
        <ele>121</ele>
        <time>2021-01-31 13:17:47</time>
      </trkpt>
      <trkpt lat="38.81586" lon="-0.05787">
        <ele>121</ele>
        <time>2021-01-31 13:17:48</time>
      </trkpt>
      <trkpt lat="38.81583" lon="-0.05792">
        <ele>121</ele>
        <time>2021-01-31 13:17:49</time>
      </trkpt>
      <trkpt lat="38.8158" lon="-0.05798">
        <ele>121</ele>
        <time>2021-01-31 13:17:50</time>
      </trkpt>
      <trkpt lat="38.81576" lon="-0.05803">
        <ele>121.2</ele>
        <time>2021-01-31 13:17:51</time>
      </trkpt>
      <trkpt lat="38.81573" lon="-0.05809">
        <ele>121.2</ele>
        <time>2021-01-31 13:17:52</time>
      </trkpt>
      <trkpt lat="38.81569" lon="-0.05814">
        <ele>121.2</ele>
        <time>2021-01-31 13:17:53</time>
      </trkpt>
      <trkpt lat="38.81566" lon="-0.0582">
        <ele>121.2</ele>
        <time>2021-01-31 13:17:54</time>
      </trkpt>
      <trkpt lat="38.81562" lon="-0.05825">
        <ele>120.4</ele>
        <time>2021-01-31 13:17:55</time>
      </trkpt>
      <trkpt lat="38.81559" lon="-0.05831">
        <ele>120.4</ele>
        <time>2021-01-31 13:17:56</time>
      </trkpt>
      <trkpt lat="38.81555" lon="-0.05836">
        <ele>120.4</ele>
        <time>2021-01-31 13:17:57</time>
      </trkpt>
      <trkpt lat="38.81551" lon="-0.05842">
        <ele>120.8</ele>
        <time>2021-01-31 13:17:58</time>
      </trkpt>
      <trkpt lat="38.81548" lon="-0.05848">
        <ele>119.8</ele>
        <time>2021-01-31 13:17:59</time>
      </trkpt>
      <trkpt lat="38.81545" lon="-0.05854">
        <ele>119.8</ele>
        <time>2021-01-31 13:18:00</time>
      </trkpt>
      <trkpt lat="38.81543" lon="-0.0586">
        <ele>119.8</ele>
        <time>2021-01-31 13:18:01</time>
      </trkpt>
      <trkpt lat="38.81539" lon="-0.05866">
        <ele>118.8</ele>
        <time>2021-01-31 13:18:02</time>
      </trkpt>
      <trkpt lat="38.81536" lon="-0.05871">
        <ele>120</ele>
        <time>2021-01-31 13:18:03</time>
      </trkpt>
      <trkpt lat="38.81533" lon="-0.05877">
        <ele>120</ele>
        <time>2021-01-31 13:18:04</time>
      </trkpt>
      <trkpt lat="38.8153" lon="-0.05883">
        <ele>120</ele>
        <time>2021-01-31 13:18:05</time>
      </trkpt>
      <trkpt lat="38.81526" lon="-0.05888">
        <ele>119.4</ele>
        <time>2021-01-31 13:18:06</time>
      </trkpt>
      <trkpt lat="38.81523" lon="-0.05894">
        <ele>120.4</ele>
        <time>2021-01-31 13:18:07</time>
      </trkpt>
      <trkpt lat="38.81519" lon="-0.05899">
        <ele>120.4</ele>
        <time>2021-01-31 13:18:08</time>
      </trkpt>
      <trkpt lat="38.81516" lon="-0.05905">
        <ele>120.4</ele>
        <time>2021-01-31 13:18:09</time>
      </trkpt>
      <trkpt lat="38.81513" lon="-0.05911">
        <ele>120.4</ele>
        <time>2021-01-31 13:18:10</time>
      </trkpt>
      <trkpt lat="38.81509" lon="-0.05917">
        <ele>119.8</ele>
        <time>2021-01-31 13:18:11</time>
      </trkpt>
      <trkpt lat="38.81506" lon="-0.05922">
        <ele>119.8</ele>
        <time>2021-01-31 13:18:12</time>
      </trkpt>
      <trkpt lat="38.81503" lon="-0.05928">
        <ele>119.8</ele>
        <time>2021-01-31 13:18:13</time>
      </trkpt>
      <trkpt lat="38.81499" lon="-0.05934">
        <ele>119.8</ele>
        <time>2021-01-31 13:18:14</time>
      </trkpt>
      <trkpt lat="38.81496" lon="-0.05939">
        <ele>119.4</ele>
        <time>2021-01-31 13:18:15</time>
      </trkpt>
      <trkpt lat="38.81493" lon="-0.05945">
        <ele>119.4</ele>
        <time>2021-01-31 13:18:16</time>
      </trkpt>
      <trkpt lat="38.8149" lon="-0.05951">
        <ele>119.4</ele>
        <time>2021-01-31 13:18:17</time>
      </trkpt>
      <trkpt lat="38.81486" lon="-0.05956">
        <ele>119.4</ele>
        <time>2021-01-31 13:18:18</time>
      </trkpt>
      <trkpt lat="38.81483" lon="-0.05963">
        <ele>118.6</ele>
        <time>2021-01-31 13:18:19</time>
      </trkpt>
      <trkpt lat="38.81481" lon="-0.05969">
        <ele>118.6</ele>
        <time>2021-01-31 13:18:20</time>
      </trkpt>
      <trkpt lat="38.81478" lon="-0.05976">
        <ele>118.6</ele>
        <time>2021-01-31 13:18:21</time>
      </trkpt>
      <trkpt lat="38.81476" lon="-0.05982">
        <ele>118.6</ele>
        <time>2021-01-31 13:18:22</time>
      </trkpt>
      <trkpt lat="38.81473" lon="-0.05989">
        <ele>118.8</ele>
        <time>2021-01-31 13:18:23</time>
      </trkpt>
      <trkpt lat="38.81471" lon="-0.05996">
        <ele>118.8</ele>
        <time>2021-01-31 13:18:24</time>
      </trkpt>
      <trkpt lat="38.81468" lon="-0.06002">
        <ele>118.8</ele>
        <time>2021-01-31 13:18:25</time>
      </trkpt>
      <trkpt lat="38.81466" lon="-0.06009">
        <ele>119.4</ele>
        <time>2021-01-31 13:18:26</time>
      </trkpt>
      <trkpt lat="38.81464" lon="-0.06016">
        <ele>119.2</ele>
        <time>2021-01-31 13:18:27</time>
      </trkpt>
      <trkpt lat="38.81461" lon="-0.06023">
        <ele>119.2</ele>
        <time>2021-01-31 13:18:28</time>
      </trkpt>
      <trkpt lat="38.81459" lon="-0.0603">
        <ele>119.2</ele>
        <time>2021-01-31 13:18:29</time>
      </trkpt>
      <trkpt lat="38.81457" lon="-0.06036">
        <ele>119.2</ele>
        <time>2021-01-31 13:18:30</time>
      </trkpt>
      <trkpt lat="38.81454" lon="-0.06043">
        <ele>119.4</ele>
        <time>2021-01-31 13:18:31</time>
      </trkpt>
      <trkpt lat="38.81452" lon="-0.0605">
        <ele>119.4</ele>
        <time>2021-01-31 13:18:32</time>
      </trkpt>
      <trkpt lat="38.8145" lon="-0.06057">
        <ele>119.4</ele>
        <time>2021-01-31 13:18:33</time>
      </trkpt>
      <trkpt lat="38.81447" lon="-0.06064">
        <ele>119.4</ele>
        <time>2021-01-31 13:18:34</time>
      </trkpt>
      <trkpt lat="38.81445" lon="-0.06071">
        <ele>120</ele>
        <time>2021-01-31 13:18:35</time>
      </trkpt>
      <trkpt lat="38.81443" lon="-0.06077">
        <ele>120</ele>
        <time>2021-01-31 13:18:36</time>
      </trkpt>
      <trkpt lat="38.8144" lon="-0.06084">
        <ele>120</ele>
        <time>2021-01-31 13:18:37</time>
      </trkpt>
      <trkpt lat="38.81438" lon="-0.06091">
        <ele>120</ele>
        <time>2021-01-31 13:18:38</time>
      </trkpt>
      <trkpt lat="38.81435" lon="-0.06098">
        <ele>120</ele>
        <time>2021-01-31 13:18:39</time>
      </trkpt>
      <trkpt lat="38.81433" lon="-0.06105">
        <ele>120</ele>
        <time>2021-01-31 13:18:40</time>
      </trkpt>
      <trkpt lat="38.81431" lon="-0.06112">
        <ele>120</ele>
        <time>2021-01-31 13:18:41</time>
      </trkpt>
      <trkpt lat="38.81429" lon="-0.06119">
        <ele>120</ele>
        <time>2021-01-31 13:18:42</time>
      </trkpt>
      <trkpt lat="38.81428" lon="-0.06126">
        <ele>119.4</ele>
        <time>2021-01-31 13:18:43</time>
      </trkpt>
      <trkpt lat="38.81425" lon="-0.06132">
        <ele>119.4</ele>
        <time>2021-01-31 13:18:44</time>
      </trkpt>
      <trkpt lat="38.81423" lon="-0.06139">
        <ele>119.4</ele>
        <time>2021-01-31 13:18:45</time>
      </trkpt>
      <trkpt lat="38.81421" lon="-0.06145">
        <ele>119.4</ele>
        <time>2021-01-31 13:18:46</time>
      </trkpt>
      <trkpt lat="38.81418" lon="-0.06152">
        <ele>119</ele>
        <time>2021-01-31 13:18:47</time>
      </trkpt>
      <trkpt lat="38.81416" lon="-0.06158">
        <ele>119</ele>
        <time>2021-01-31 13:18:48</time>
      </trkpt>
      <trkpt lat="38.81414" lon="-0.06165">
        <ele>119</ele>
        <time>2021-01-31 13:18:49</time>
      </trkpt>
      <trkpt lat="38.81411" lon="-0.06171">
        <ele>119.6</ele>
        <time>2021-01-31 13:18:50</time>
      </trkpt>
      <trkpt lat="38.81409" lon="-0.06177">
        <ele>119.2</ele>
        <time>2021-01-31 13:18:51</time>
      </trkpt>
      <trkpt lat="38.81406" lon="-0.06183">
        <ele>119.2</ele>
        <time>2021-01-31 13:18:52</time>
      </trkpt>
      <trkpt lat="38.81404" lon="-0.06189">
        <ele>119.2</ele>
        <time>2021-01-31 13:18:53</time>
      </trkpt>
      <trkpt lat="38.81402" lon="-0.06195">
        <ele>119.2</ele>
        <time>2021-01-31 13:18:54</time>
      </trkpt>
      <trkpt lat="38.81402" lon="-0.06195">
        <ele>119.8</ele>
        <time>2021-01-31 13:18:55</time>
      </trkpt>
      <trkpt lat="38.81397" lon="-0.06206">
        <ele>119.8</ele>
        <time>2021-01-31 13:18:56</time>
      </trkpt>
      <trkpt lat="38.81395" lon="-0.06212">
        <ele>119.8</ele>
        <time>2021-01-31 13:18:57</time>
      </trkpt>
      <trkpt lat="38.81392" lon="-0.06217">
        <ele>119.8</ele>
        <time>2021-01-31 13:18:58</time>
      </trkpt>
      <trkpt lat="38.81389" lon="-0.06221">
        <ele>120</ele>
        <time>2021-01-31 13:18:59</time>
      </trkpt>
      <trkpt lat="38.81385" lon="-0.06226">
        <ele>120</ele>
        <time>2021-01-31 13:19:00</time>
      </trkpt>
      <trkpt lat="38.81382" lon="-0.0623">
        <ele>120</ele>
        <time>2021-01-31 13:19:01</time>
      </trkpt>
      <trkpt lat="38.81379" lon="-0.06234">
        <ele>121</ele>
        <time>2021-01-31 13:19:02</time>
      </trkpt>
      <trkpt lat="38.81375" lon="-0.06238">
        <ele>121</ele>
        <time>2021-01-31 13:19:03</time>
      </trkpt>
      <trkpt lat="38.81371" lon="-0.06242">
        <ele>121</ele>
        <time>2021-01-31 13:19:04</time>
      </trkpt>
      <trkpt lat="38.81367" lon="-0.06246">
        <ele>121</ele>
        <time>2021-01-31 13:19:05</time>
      </trkpt>
      <trkpt lat="38.81363" lon="-0.06251">
        <ele>121</ele>
        <time>2021-01-31 13:19:06</time>
      </trkpt>
      <trkpt lat="38.81359" lon="-0.06255">
        <ele>121.2</ele>
        <time>2021-01-31 13:19:07</time>
      </trkpt>
      <trkpt lat="38.81354" lon="-0.0626">
        <ele>121.2</ele>
        <time>2021-01-31 13:19:08</time>
      </trkpt>
      <trkpt lat="38.81349" lon="-0.06264">
        <ele>121.2</ele>
        <time>2021-01-31 13:19:09</time>
      </trkpt>
      <trkpt lat="38.81345" lon="-0.06268">
        <ele>121.2</ele>
        <time>2021-01-31 13:19:10</time>
      </trkpt>
      <trkpt lat="38.8134" lon="-0.06273">
        <ele>121.6</ele>
        <time>2021-01-31 13:19:11</time>
      </trkpt>
      <trkpt lat="38.81336" lon="-0.06277">
        <ele>121.6</ele>
        <time>2021-01-31 13:19:12</time>
      </trkpt>
      <trkpt lat="38.81332" lon="-0.06282">
        <ele>121.6</ele>
        <time>2021-01-31 13:19:13</time>
      </trkpt>
      <trkpt lat="38.81328" lon="-0.06288">
        <ele>121.6</ele>
        <time>2021-01-31 13:19:14</time>
      </trkpt>
      <trkpt lat="38.81325" lon="-0.06293">
        <ele>122</ele>
        <time>2021-01-31 13:19:15</time>
      </trkpt>
      <trkpt lat="38.81321" lon="-0.06297">
        <ele>122</ele>
        <time>2021-01-31 13:19:16</time>
      </trkpt>
      <trkpt lat="38.81317" lon="-0.06301">
        <ele>122</ele>
        <time>2021-01-31 13:19:17</time>
      </trkpt>
      <trkpt lat="38.81313" lon="-0.06305">
        <ele>123</ele>
        <time>2021-01-31 13:19:18</time>
      </trkpt>
      <trkpt lat="38.81308" lon="-0.06307">
        <ele>123</ele>
        <time>2021-01-31 13:19:19</time>
      </trkpt>
      <trkpt lat="38.81303" lon="-0.06309">
        <ele>123</ele>
        <time>2021-01-31 13:19:20</time>
      </trkpt>
      <trkpt lat="38.81298" lon="-0.06311">
        <ele>123</ele>
        <time>2021-01-31 13:19:21</time>
      </trkpt>
      <trkpt lat="38.81294" lon="-0.06313">
        <ele>124</ele>
        <time>2021-01-31 13:19:22</time>
      </trkpt>
      <trkpt lat="38.81289" lon="-0.06315">
        <ele>124.6</ele>
        <time>2021-01-31 13:19:23</time>
      </trkpt>
      <trkpt lat="38.81285" lon="-0.06316">
        <ele>124.6</ele>
        <time>2021-01-31 13:19:24</time>
      </trkpt>
      <trkpt lat="38.81281" lon="-0.06318">
        <ele>124.6</ele>
        <time>2021-01-31 13:19:25</time>
      </trkpt>
      <trkpt lat="38.81277" lon="-0.0632">
        <ele>124.6</ele>
        <time>2021-01-31 13:19:26</time>
      </trkpt>
      <trkpt lat="38.81273" lon="-0.06322">
        <ele>125</ele>
        <time>2021-01-31 13:19:27</time>
      </trkpt>
      <trkpt lat="38.81269" lon="-0.06324">
        <ele>125</ele>
        <time>2021-01-31 13:19:28</time>
      </trkpt>
      <trkpt lat="38.81265" lon="-0.06326">
        <ele>125</ele>
        <time>2021-01-31 13:19:29</time>
      </trkpt>
      <trkpt lat="38.81262" lon="-0.06328">
        <ele>126</ele>
        <time>2021-01-31 13:19:30</time>
      </trkpt>
      <trkpt lat="38.81258" lon="-0.0633">
        <ele>126.2</ele>
        <time>2021-01-31 13:19:31</time>
      </trkpt>
      <trkpt lat="38.81254" lon="-0.06331">
        <ele>126.2</ele>
        <time>2021-01-31 13:19:32</time>
      </trkpt>
      <trkpt lat="38.81251" lon="-0.06332">
        <ele>126.2</ele>
        <time>2021-01-31 13:19:33</time>
      </trkpt>
      <trkpt lat="38.81247" lon="-0.06334">
        <ele>126.2</ele>
        <time>2021-01-31 13:19:34</time>
      </trkpt>
      <trkpt lat="38.81245" lon="-0.06335">
        <ele>125.8</ele>
        <time>2021-01-31 13:19:35</time>
      </trkpt>
      <trkpt lat="38.81242" lon="-0.06337">
        <ele>125.8</ele>
        <time>2021-01-31 13:19:36</time>
      </trkpt>
      <trkpt lat="38.81239" lon="-0.06337">
        <ele>125.8</ele>
        <time>2021-01-31 13:19:37</time>
      </trkpt>
      <trkpt lat="38.81237" lon="-0.06339">
        <ele>126.8</ele>
        <time>2021-01-31 13:19:38</time>
      </trkpt>
      <trkpt lat="38.81234" lon="-0.0634">
        <ele>126</ele>
        <time>2021-01-31 13:19:39</time>
      </trkpt>
      <trkpt lat="38.81231" lon="-0.06342">
        <ele>126</ele>
        <time>2021-01-31 13:19:40</time>
      </trkpt>
      <trkpt lat="38.81228" lon="-0.06343">
        <ele>126</ele>
        <time>2021-01-31 13:19:41</time>
      </trkpt>
      <trkpt lat="38.81225" lon="-0.06346">
        <ele>126</ele>
        <time>2021-01-31 13:19:42</time>
      </trkpt>
      <trkpt lat="38.81223" lon="-0.06348">
        <ele>127.6</ele>
        <time>2021-01-31 13:19:43</time>
      </trkpt>
      <trkpt lat="38.8122" lon="-0.06351">
        <ele>127.6</ele>
        <time>2021-01-31 13:19:44</time>
      </trkpt>
      <trkpt lat="38.81217" lon="-0.06354">
        <ele>127.6</ele>
        <time>2021-01-31 13:19:45</time>
      </trkpt>
      <trkpt lat="38.81215" lon="-0.06357">
        <ele>127.6</ele>
        <time>2021-01-31 13:19:46</time>
      </trkpt>
      <trkpt lat="38.81213" lon="-0.06361">
        <ele>128</ele>
        <time>2021-01-31 13:19:47</time>
      </trkpt>
      <trkpt lat="38.81211" lon="-0.06365">
        <ele>128</ele>
        <time>2021-01-31 13:19:48</time>
      </trkpt>
      <trkpt lat="38.8121" lon="-0.06369">
        <ele>128</ele>
        <time>2021-01-31 13:19:49</time>
      </trkpt>
      <trkpt lat="38.81209" lon="-0.06372">
        <ele>129</ele>
        <time>2021-01-31 13:19:50</time>
      </trkpt>
      <trkpt lat="38.81207" lon="-0.06375">
        <ele>129</ele>
        <time>2021-01-31 13:19:51</time>
      </trkpt>
      <trkpt lat="38.81206" lon="-0.06379">
        <ele>129</ele>
        <time>2021-01-31 13:19:52</time>
      </trkpt>
      <trkpt lat="38.81204" lon="-0.06383">
        <ele>129</ele>
        <time>2021-01-31 13:19:53</time>
      </trkpt>
      <trkpt lat="38.81202" lon="-0.06387">
        <ele>129</ele>
        <time>2021-01-31 13:19:54</time>
      </trkpt>
      <trkpt lat="38.812" lon="-0.06392">
        <ele>129.4</ele>
        <time>2021-01-31 13:19:55</time>
      </trkpt>
      <trkpt lat="38.81197" lon="-0.06396">
        <ele>129.4</ele>
        <time>2021-01-31 13:19:56</time>
      </trkpt>
      <trkpt lat="38.81196" lon="-0.064">
        <ele>129.4</ele>
        <time>2021-01-31 13:19:57</time>
      </trkpt>
      <trkpt lat="38.81194" lon="-0.06404">
        <ele>129.4</ele>
        <time>2021-01-31 13:19:58</time>
      </trkpt>
      <trkpt lat="38.81192" lon="-0.06406">
        <ele>130.4</ele>
        <time>2021-01-31 13:19:59</time>
      </trkpt>
      <trkpt lat="38.81191" lon="-0.06409">
        <ele>130.4</ele>
        <time>2021-01-31 13:20:00</time>
      </trkpt>
      <trkpt lat="38.81188" lon="-0.06412">
        <ele>130.4</ele>
        <time>2021-01-31 13:20:01</time>
      </trkpt>
      <trkpt lat="38.81186" lon="-0.06415">
        <ele>130.2</ele>
        <time>2021-01-31 13:20:02</time>
      </trkpt>
      <trkpt lat="38.81183" lon="-0.06418">
        <ele>131.2</ele>
        <time>2021-01-31 13:20:03</time>
      </trkpt>
      <trkpt lat="38.8118" lon="-0.0642">
        <ele>131.2</ele>
        <time>2021-01-31 13:20:04</time>
      </trkpt>
      <trkpt lat="38.81177" lon="-0.06423">
        <ele>131.2</ele>
        <time>2021-01-31 13:20:05</time>
      </trkpt>
      <trkpt lat="38.81174" lon="-0.06425">
        <ele>130.2</ele>
        <time>2021-01-31 13:20:06</time>
      </trkpt>
      <trkpt lat="38.81171" lon="-0.06427">
        <ele>130.8</ele>
        <time>2021-01-31 13:20:07</time>
      </trkpt>
      <trkpt lat="38.81169" lon="-0.06429">
        <ele>130.8</ele>
        <time>2021-01-31 13:20:08</time>
      </trkpt>
      <trkpt lat="38.81167" lon="-0.0643">
        <ele>130.8</ele>
        <time>2021-01-31 13:20:09</time>
      </trkpt>
      <trkpt lat="38.81167" lon="-0.06431">
        <ele>130.8</ele>
        <time>2021-01-31 13:20:10</time>
      </trkpt>
      <trkpt lat="38.81166" lon="-0.06433">
        <ele>132.4</ele>
        <time>2021-01-31 13:20:11</time>
      </trkpt>
      <trkpt lat="38.81163" lon="-0.06436">
        <ele>132.4</ele>
        <time>2021-01-31 13:20:12</time>
      </trkpt>
      <trkpt lat="38.81159" lon="-0.06438">
        <ele>132.4</ele>
        <time>2021-01-31 13:20:13</time>
      </trkpt>
      <trkpt lat="38.81158" lon="-0.0644">
        <ele>132.4</ele>
        <time>2021-01-31 13:20:14</time>
      </trkpt>
      <trkpt lat="38.81155" lon="-0.06443">
        <ele>132.4</ele>
        <time>2021-01-31 13:20:15</time>
      </trkpt>
      <trkpt lat="38.81154" lon="-0.06445">
        <ele>132.4</ele>
        <time>2021-01-31 13:20:16</time>
      </trkpt>
      <trkpt lat="38.81153" lon="-0.06448">
        <ele>132.4</ele>
        <time>2021-01-31 13:20:17</time>
      </trkpt>
      <trkpt lat="38.81151" lon="-0.0645">
        <ele>132.4</ele>
        <time>2021-01-31 13:20:18</time>
      </trkpt>
      <trkpt lat="38.8115" lon="-0.06452">
        <ele>133.6</ele>
        <time>2021-01-31 13:20:19</time>
      </trkpt>
      <trkpt lat="38.81149" lon="-0.06454">
        <ele>133.6</ele>
        <time>2021-01-31 13:20:20</time>
      </trkpt>
      <trkpt lat="38.81148" lon="-0.06456">
        <ele>133.6</ele>
        <time>2021-01-31 13:20:21</time>
      </trkpt>
      <trkpt lat="38.81148" lon="-0.06456">
        <ele>133.6</ele>
        <time>2021-01-31 13:20:22</time>
      </trkpt>
      <trkpt lat="38.81145" lon="-0.0646">
        <ele>133.8</ele>
        <time>2021-01-31 13:20:23</time>
      </trkpt>
      <trkpt lat="38.81145" lon="-0.0646">
        <ele>133.8</ele>
        <time>2021-01-31 13:20:24</time>
      </trkpt>
      <trkpt lat="38.81145" lon="-0.0646">
        <ele>133.8</ele>
        <time>2021-01-31 13:20:25</time>
      </trkpt>
      <trkpt lat="38.81145" lon="-0.0646">
        <ele>133.8</ele>
        <time>2021-01-31 13:20:26</time>
      </trkpt>
      <trkpt lat="38.81134" lon="-0.0649">
        <ele>134.8</ele>
        <time>2021-01-31 13:20:27</time>
      </trkpt>
      <trkpt lat="38.81134" lon="-0.0649">
        <ele>134.8</ele>
        <time>2021-01-31 13:20:28</time>
      </trkpt>
      <trkpt lat="38.81133" lon="-0.06492">
        <ele>134.8</ele>
        <time>2021-01-31 13:22:17</time>
      </trkpt>
      <trkpt lat="38.81132" lon="-0.06494">
        <ele>134.8</ele>
        <time>2021-01-31 13:22:18</time>
      </trkpt>
      <trkpt lat="38.81132" lon="-0.06496">
        <ele>134.6</ele>
        <time>2021-01-31 13:22:19</time>
      </trkpt>
      <trkpt lat="38.81131" lon="-0.06498">
        <ele>134.6</ele>
        <time>2021-01-31 13:22:20</time>
      </trkpt>
      <trkpt lat="38.8113" lon="-0.065">
        <ele>134.6</ele>
        <time>2021-01-31 13:22:21</time>
      </trkpt>
      <trkpt lat="38.81129" lon="-0.06504">
        <ele>135.6</ele>
        <time>2021-01-31 13:22:22</time>
      </trkpt>
      <trkpt lat="38.81126" lon="-0.06507">
        <ele>135</ele>
        <time>2021-01-31 13:22:23</time>
      </trkpt>
      <trkpt lat="38.81123" lon="-0.0651">
        <ele>135</ele>
        <time>2021-01-31 13:22:24</time>
      </trkpt>
      <trkpt lat="38.81121" lon="-0.06514">
        <ele>135</ele>
        <time>2021-01-31 13:22:25</time>
      </trkpt>
      <trkpt lat="38.81118" lon="-0.06516">
        <ele>136</ele>
        <time>2021-01-31 13:22:26</time>
      </trkpt>
      <trkpt lat="38.81115" lon="-0.06519">
        <ele>136.8</ele>
        <time>2021-01-31 13:22:27</time>
      </trkpt>
      <trkpt lat="38.81113" lon="-0.06522">
        <ele>136.8</ele>
        <time>2021-01-31 13:22:28</time>
      </trkpt>
      <trkpt lat="38.8111" lon="-0.06523">
        <ele>136.8</ele>
        <time>2021-01-31 13:22:29</time>
      </trkpt>
      <trkpt lat="38.81107" lon="-0.06526">
        <ele>137.6</ele>
        <time>2021-01-31 13:22:30</time>
      </trkpt>
      <trkpt lat="38.81105" lon="-0.06528">
        <ele>137.6</ele>
        <time>2021-01-31 13:22:31</time>
      </trkpt>
      <trkpt lat="38.81102" lon="-0.0653">
        <ele>137.6</ele>
        <time>2021-01-31 13:22:32</time>
      </trkpt>
      <trkpt lat="38.811" lon="-0.06532">
        <ele>137.6</ele>
        <time>2021-01-31 13:22:33</time>
      </trkpt>
      <trkpt lat="38.81098" lon="-0.06536">
        <ele>138</ele>
        <time>2021-01-31 13:22:34</time>
      </trkpt>
      <trkpt lat="38.81095" lon="-0.06537">
        <ele>138</ele>
        <time>2021-01-31 13:22:35</time>
      </trkpt>
      <trkpt lat="38.81092" lon="-0.06539">
        <ele>138</ele>
        <time>2021-01-31 13:22:36</time>
      </trkpt>
      <trkpt lat="38.8109" lon="-0.06541">
        <ele>138</ele>
        <time>2021-01-31 13:22:37</time>
      </trkpt>
      <trkpt lat="38.81087" lon="-0.06544">
        <ele>138.6</ele>
        <time>2021-01-31 13:22:38</time>
      </trkpt>
      <trkpt lat="38.81085" lon="-0.06547">
        <ele>138.8</ele>
        <time>2021-01-31 13:22:39</time>
      </trkpt>
      <trkpt lat="38.81083" lon="-0.06549">
        <ele>138.8</ele>
        <time>2021-01-31 13:22:40</time>
      </trkpt>
      <trkpt lat="38.8108" lon="-0.06551">
        <ele>138.8</ele>
        <time>2021-01-31 13:22:41</time>
      </trkpt>
      <trkpt lat="38.81077" lon="-0.06553">
        <ele>139.6</ele>
        <time>2021-01-31 13:22:42</time>
      </trkpt>
      <trkpt lat="38.81075" lon="-0.06555">
        <ele>139.6</ele>
        <time>2021-01-31 13:22:43</time>
      </trkpt>
      <trkpt lat="38.81073" lon="-0.06556">
        <ele>139.6</ele>
        <time>2021-01-31 13:22:44</time>
      </trkpt>
      <trkpt lat="38.8107" lon="-0.06559">
        <ele>139.6</ele>
        <time>2021-01-31 13:22:45</time>
      </trkpt>
      <trkpt lat="38.81068" lon="-0.0656">
        <ele>140.4</ele>
        <time>2021-01-31 13:22:46</time>
      </trkpt>
      <trkpt lat="38.81066" lon="-0.06563">
        <ele>140.6</ele>
        <time>2021-01-31 13:22:47</time>
      </trkpt>
      <trkpt lat="38.81063" lon="-0.06564">
        <ele>140.6</ele>
        <time>2021-01-31 13:22:48</time>
      </trkpt>
      <trkpt lat="38.8106" lon="-0.06566">
        <ele>140.6</ele>
        <time>2021-01-31 13:22:49</time>
      </trkpt>
      <trkpt lat="38.81059" lon="-0.06571">
        <ele>140.6</ele>
        <time>2021-01-31 13:22:50</time>
      </trkpt>
      <trkpt lat="38.81058" lon="-0.06575">
        <ele>141</ele>
        <time>2021-01-31 13:22:51</time>
      </trkpt>
      <trkpt lat="38.81056" lon="-0.06578">
        <ele>141</ele>
        <time>2021-01-31 13:22:52</time>
      </trkpt>
      <trkpt lat="38.81054" lon="-0.06581">
        <ele>141</ele>
        <time>2021-01-31 13:22:53</time>
      </trkpt>
      <trkpt lat="38.81051" lon="-0.06584">
        <ele>141</ele>
        <time>2021-01-31 13:22:54</time>
      </trkpt>
      <trkpt lat="38.81048" lon="-0.06586">
        <ele>141.6</ele>
        <time>2021-01-31 13:22:55</time>
      </trkpt>
      <trkpt lat="38.81046" lon="-0.06589">
        <ele>141.6</ele>
        <time>2021-01-31 13:22:56</time>
      </trkpt>
      <trkpt lat="38.81043" lon="-0.06592">
        <ele>141.6</ele>
        <time>2021-01-31 13:22:57</time>
      </trkpt>
      <trkpt lat="38.81043" lon="-0.06592">
        <ele>142.4</ele>
        <time>2021-01-31 13:22:58</time>
      </trkpt>
      <trkpt lat="38.81039" lon="-0.06596">
        <ele>142.4</ele>
        <time>2021-01-31 13:22:59</time>
      </trkpt>
      <trkpt lat="38.81037" lon="-0.06598">
        <ele>142.4</ele>
        <time>2021-01-31 13:23:00</time>
      </trkpt>
      <trkpt lat="38.81034" lon="-0.06599">
        <ele>142.4</ele>
        <time>2021-01-31 13:23:01</time>
      </trkpt>
      <trkpt lat="38.81032" lon="-0.066">
        <ele>142.6</ele>
        <time>2021-01-31 13:23:02</time>
      </trkpt>
      <trkpt lat="38.81029" lon="-0.06601">
        <ele>142.8</ele>
        <time>2021-01-31 13:23:03</time>
      </trkpt>
      <trkpt lat="38.81026" lon="-0.06602">
        <ele>142.8</ele>
        <time>2021-01-31 13:23:04</time>
      </trkpt>
      <trkpt lat="38.81024" lon="-0.06605">
        <ele>142.8</ele>
        <time>2021-01-31 13:23:05</time>
      </trkpt>
      <trkpt lat="38.81023" lon="-0.06608">
        <ele>142.8</ele>
        <time>2021-01-31 13:23:06</time>
      </trkpt>
      <trkpt lat="38.81023" lon="-0.06612">
        <ele>143.2</ele>
        <time>2021-01-31 13:23:07</time>
      </trkpt>
      <trkpt lat="38.81024" lon="-0.06615">
        <ele>143.2</ele>
        <time>2021-01-31 13:23:08</time>
      </trkpt>
      <trkpt lat="38.81023" lon="-0.06618">
        <ele>143.2</ele>
        <time>2021-01-31 13:23:09</time>
      </trkpt>
      <trkpt lat="38.81023" lon="-0.06618">
        <ele>143.2</ele>
        <time>2021-01-31 13:23:10</time>
      </trkpt>
      <trkpt lat="38.81024" lon="-0.06625">
        <ele>143.6</ele>
        <time>2021-01-31 13:23:11</time>
      </trkpt>
      <trkpt lat="38.81023" lon="-0.06629">
        <ele>143.4</ele>
        <time>2021-01-31 13:23:12</time>
      </trkpt>
      <trkpt lat="38.81024" lon="-0.06632">
        <ele>143.4</ele>
        <time>2021-01-31 13:23:13</time>
      </trkpt>
      <trkpt lat="38.81025" lon="-0.06635">
        <ele>143.4</ele>
        <time>2021-01-31 13:23:14</time>
      </trkpt>
      <trkpt lat="38.81025" lon="-0.06638">
        <ele>144.4</ele>
        <time>2021-01-31 13:23:15</time>
      </trkpt>
      <trkpt lat="38.81024" lon="-0.0664">
        <ele>144.8</ele>
        <time>2021-01-31 13:23:16</time>
      </trkpt>
      <trkpt lat="38.81021" lon="-0.06643">
        <ele>144.8</ele>
        <time>2021-01-31 13:23:17</time>
      </trkpt>
      <trkpt lat="38.8102" lon="-0.06646">
        <ele>144.8</ele>
        <time>2021-01-31 13:23:18</time>
      </trkpt>
      <trkpt lat="38.81019" lon="-0.0665">
        <ele>145.4</ele>
        <time>2021-01-31 13:23:19</time>
      </trkpt>
      <trkpt lat="38.81019" lon="-0.06654">
        <ele>145.4</ele>
        <time>2021-01-31 13:23:20</time>
      </trkpt>
      <trkpt lat="38.81019" lon="-0.06658">
        <ele>145.4</ele>
        <time>2021-01-31 13:23:21</time>
      </trkpt>
      <trkpt lat="38.8102" lon="-0.06661">
        <ele>145.4</ele>
        <time>2021-01-31 13:23:22</time>
      </trkpt>
      <trkpt lat="38.8102" lon="-0.06665">
        <ele>146.4</ele>
        <time>2021-01-31 13:23:23</time>
      </trkpt>
      <trkpt lat="38.81019" lon="-0.06668">
        <ele>147</ele>
        <time>2021-01-31 13:23:24</time>
      </trkpt>
      <trkpt lat="38.81019" lon="-0.06671">
        <ele>147</ele>
        <time>2021-01-31 13:23:25</time>
      </trkpt>
      <trkpt lat="38.8102" lon="-0.06672">
        <ele>147</ele>
        <time>2021-01-31 13:23:26</time>
      </trkpt>
      <trkpt lat="38.81021" lon="-0.06673">
        <ele>147</ele>
        <time>2021-01-31 13:23:27</time>
      </trkpt>
      <trkpt lat="38.81023" lon="-0.06674">
        <ele>146.8</ele>
        <time>2021-01-31 13:23:28</time>
      </trkpt>
      <trkpt lat="38.81026" lon="-0.06674">
        <ele>146.8</ele>
        <time>2021-01-31 13:23:29</time>
      </trkpt>
      <trkpt lat="38.81028" lon="-0.06674">
        <ele>146.8</ele>
        <time>2021-01-31 13:23:30</time>
      </trkpt>
      <trkpt lat="38.81031" lon="-0.06675">
        <ele>146.8</ele>
        <time>2021-01-31 13:23:31</time>
      </trkpt>
      <trkpt lat="38.81034" lon="-0.06676">
        <ele>147.2</ele>
        <time>2021-01-31 13:23:32</time>
      </trkpt>
      <trkpt lat="38.81037" lon="-0.06677">
        <ele>147.2</ele>
        <time>2021-01-31 13:23:33</time>
      </trkpt>
      <trkpt lat="38.81041" lon="-0.06678">
        <ele>147.2</ele>
        <time>2021-01-31 13:23:34</time>
      </trkpt>
      <trkpt lat="38.81044" lon="-0.06679">
        <ele>147.2</ele>
        <time>2021-01-31 13:23:35</time>
      </trkpt>
      <trkpt lat="38.81048" lon="-0.0668">
        <ele>147.2</ele>
        <time>2021-01-31 13:23:36</time>
      </trkpt>
      <trkpt lat="38.81051" lon="-0.06681">
        <ele>147.2</ele>
        <time>2021-01-31 13:23:37</time>
      </trkpt>
      <trkpt lat="38.81054" lon="-0.06682">
        <ele>147.2</ele>
        <time>2021-01-31 13:23:38</time>
      </trkpt>
      <trkpt lat="38.81057" lon="-0.06683">
        <ele>148</ele>
        <time>2021-01-31 13:23:39</time>
      </trkpt>
      <trkpt lat="38.81059" lon="-0.06684">
        <ele>148.6</ele>
        <time>2021-01-31 13:23:40</time>
      </trkpt>
      <trkpt lat="38.81063" lon="-0.06685">
        <ele>148.6</ele>
        <time>2021-01-31 13:23:41</time>
      </trkpt>
      <trkpt lat="38.81066" lon="-0.06686">
        <ele>148.6</ele>
        <time>2021-01-31 13:23:42</time>
      </trkpt>
      <trkpt lat="38.81069" lon="-0.06686">
        <ele>148.6</ele>
        <time>2021-01-31 13:23:43</time>
      </trkpt>
      <trkpt lat="38.81072" lon="-0.06686">
        <ele>148.4</ele>
        <time>2021-01-31 13:23:44</time>
      </trkpt>
      <trkpt lat="38.81075" lon="-0.06686">
        <ele>148.4</ele>
        <time>2021-01-31 13:23:45</time>
      </trkpt>
      <trkpt lat="38.81078" lon="-0.06686">
        <ele>148.4</ele>
        <time>2021-01-31 13:23:46</time>
      </trkpt>
      <trkpt lat="38.81081" lon="-0.06686">
        <ele>148.4</ele>
        <time>2021-01-31 13:23:47</time>
      </trkpt>
      <trkpt lat="38.81085" lon="-0.06685">
        <ele>148.4</ele>
        <time>2021-01-31 13:23:48</time>
      </trkpt>
      <trkpt lat="38.81089" lon="-0.06684">
        <ele>148.4</ele>
        <time>2021-01-31 13:23:49</time>
      </trkpt>
      <trkpt lat="38.81093" lon="-0.06681">
        <ele>148.4</ele>
        <time>2021-01-31 13:23:50</time>
      </trkpt>
      <trkpt lat="38.81097" lon="-0.06678">
        <ele>148</ele>
        <time>2021-01-31 13:23:51</time>
      </trkpt>
      <trkpt lat="38.81101" lon="-0.06674">
        <ele>148.2</ele>
        <time>2021-01-31 13:23:52</time>
      </trkpt>
      <trkpt lat="38.81104" lon="-0.0667">
        <ele>148.2</ele>
        <time>2021-01-31 13:23:53</time>
      </trkpt>
      <trkpt lat="38.81108" lon="-0.06666">
        <ele>148.2</ele>
        <time>2021-01-31 13:23:54</time>
      </trkpt>
      <trkpt lat="38.81112" lon="-0.06662">
        <ele>148.2</ele>
        <time>2021-01-31 13:23:55</time>
      </trkpt>
      <trkpt lat="38.81115" lon="-0.06658">
        <ele>147.8</ele>
        <time>2021-01-31 13:23:56</time>
      </trkpt>
      <trkpt lat="38.81119" lon="-0.06654">
        <ele>147.8</ele>
        <time>2021-01-31 13:23:57</time>
      </trkpt>
      <trkpt lat="38.81122" lon="-0.0665">
        <ele>147.8</ele>
        <time>2021-01-31 13:23:58</time>
      </trkpt>
      <trkpt lat="38.81126" lon="-0.06646">
        <ele>148.2</ele>
        <time>2021-01-31 13:23:59</time>
      </trkpt>
      <trkpt lat="38.8113" lon="-0.06641">
        <ele>147.4</ele>
        <time>2021-01-31 13:24:00</time>
      </trkpt>
      <trkpt lat="38.81134" lon="-0.06637">
        <ele>147.4</ele>
        <time>2021-01-31 13:24:01</time>
      </trkpt>
      <trkpt lat="38.81138" lon="-0.06633">
        <ele>147.4</ele>
        <time>2021-01-31 13:24:02</time>
      </trkpt>
      <trkpt lat="38.81142" lon="-0.06628">
        <ele>147.6</ele>
        <time>2021-01-31 13:24:03</time>
      </trkpt>
      <trkpt lat="38.81146" lon="-0.06623">
        <ele>147.6</ele>
        <time>2021-01-31 13:24:04</time>
      </trkpt>
      <trkpt lat="38.8115" lon="-0.06619">
        <ele>147.6</ele>
        <time>2021-01-31 13:24:05</time>
      </trkpt>
      <trkpt lat="38.81154" lon="-0.06614">
        <ele>147.6</ele>
        <time>2021-01-31 13:24:06</time>
      </trkpt>
      <trkpt lat="38.81158" lon="-0.06609">
        <ele>147.2</ele>
        <time>2021-01-31 13:24:07</time>
      </trkpt>
      <trkpt lat="38.81163" lon="-0.06604">
        <ele>147.8</ele>
        <time>2021-01-31 13:24:08</time>
      </trkpt>
      <trkpt lat="38.81167" lon="-0.066">
        <ele>147.8</ele>
        <time>2021-01-31 13:24:09</time>
      </trkpt>
      <trkpt lat="38.81172" lon="-0.06596">
        <ele>147.8</ele>
        <time>2021-01-31 13:24:10</time>
      </trkpt>
      <trkpt lat="38.81177" lon="-0.06592">
        <ele>147.4</ele>
        <time>2021-01-31 13:24:11</time>
      </trkpt>
      <trkpt lat="38.81182" lon="-0.06589">
        <ele>147.4</ele>
        <time>2021-01-31 13:24:12</time>
      </trkpt>
      <trkpt lat="38.81182" lon="-0.06589">
        <ele>147.4</ele>
        <time>2021-01-31 13:24:13</time>
      </trkpt>
      <trkpt lat="38.81193" lon="-0.06582">
        <ele>147.4</ele>
        <time>2021-01-31 13:24:14</time>
      </trkpt>
      <trkpt lat="38.81198" lon="-0.06578">
        <ele>146.4</ele>
        <time>2021-01-31 13:24:15</time>
      </trkpt>
      <trkpt lat="38.81204" lon="-0.06574">
        <ele>147.2</ele>
        <time>2021-01-31 13:24:16</time>
      </trkpt>
      <trkpt lat="38.8121" lon="-0.0657">
        <ele>147.2</ele>
        <time>2021-01-31 13:24:17</time>
      </trkpt>
      <trkpt lat="38.81215" lon="-0.06567">
        <ele>147.2</ele>
        <time>2021-01-31 13:24:18</time>
      </trkpt>
      <trkpt lat="38.81221" lon="-0.06563">
        <ele>146.8</ele>
        <time>2021-01-31 13:24:19</time>
      </trkpt>
      <trkpt lat="38.81227" lon="-0.06559">
        <ele>146.8</ele>
        <time>2021-01-31 13:24:20</time>
      </trkpt>
      <trkpt lat="38.81233" lon="-0.06555">
        <ele>146.8</ele>
        <time>2021-01-31 13:24:21</time>
      </trkpt>
      <trkpt lat="38.81239" lon="-0.06551">
        <ele>146.8</ele>
        <time>2021-01-31 13:24:22</time>
      </trkpt>
      <trkpt lat="38.81244" lon="-0.06546">
        <ele>146.8</ele>
        <time>2021-01-31 13:24:23</time>
      </trkpt>
      <trkpt lat="38.81251" lon="-0.06542">
        <ele>146.2</ele>
        <time>2021-01-31 13:24:24</time>
      </trkpt>
      <trkpt lat="38.81257" lon="-0.06539">
        <ele>146.2</ele>
        <time>2021-01-31 13:24:25</time>
      </trkpt>
      <trkpt lat="38.81263" lon="-0.06535">
        <ele>146.2</ele>
        <time>2021-01-31 13:24:26</time>
      </trkpt>
      <trkpt lat="38.81269" lon="-0.06531">
        <ele>146.2</ele>
        <time>2021-01-31 13:24:27</time>
      </trkpt>
      <trkpt lat="38.81276" lon="-0.06527">
        <ele>146.2</ele>
        <time>2021-01-31 13:24:28</time>
      </trkpt>
      <trkpt lat="38.81282" lon="-0.06525">
        <ele>146.2</ele>
        <time>2021-01-31 13:24:29</time>
      </trkpt>
      <trkpt lat="38.81289" lon="-0.06523">
        <ele>146.2</ele>
        <time>2021-01-31 13:24:30</time>
      </trkpt>
      <trkpt lat="38.81296" lon="-0.06522">
        <ele>146.2</ele>
        <time>2021-01-31 13:24:31</time>
      </trkpt>
      <trkpt lat="38.81303" lon="-0.06522">
        <ele>146</ele>
        <time>2021-01-31 13:24:32</time>
      </trkpt>
      <trkpt lat="38.8131" lon="-0.06523">
        <ele>146</ele>
        <time>2021-01-31 13:24:33</time>
      </trkpt>
      <trkpt lat="38.81318" lon="-0.06523">
        <ele>146</ele>
        <time>2021-01-31 13:24:34</time>
      </trkpt>
      <trkpt lat="38.81325" lon="-0.06524">
        <ele>145.6</ele>
        <time>2021-01-31 13:24:35</time>
      </trkpt>
      <trkpt lat="38.81332" lon="-0.06525">
        <ele>145.6</ele>
        <time>2021-01-31 13:24:36</time>
      </trkpt>
      <trkpt lat="38.81339" lon="-0.06526">
        <ele>145.6</ele>
        <time>2021-01-31 13:24:37</time>
      </trkpt>
      <trkpt lat="38.81345" lon="-0.06527">
        <ele>145.6</ele>
        <time>2021-01-31 13:24:38</time>
      </trkpt>
      <trkpt lat="38.81352" lon="-0.06527">
        <ele>146.6</ele>
        <time>2021-01-31 13:24:39</time>
      </trkpt>
      <trkpt lat="38.81358" lon="-0.06528">
        <ele>147</ele>
        <time>2021-01-31 13:24:40</time>
      </trkpt>
      <trkpt lat="38.81364" lon="-0.06529">
        <ele>147</ele>
        <time>2021-01-31 13:24:41</time>
      </trkpt>
      <trkpt lat="38.8137" lon="-0.0653">
        <ele>147</ele>
        <time>2021-01-31 13:24:42</time>
      </trkpt>
      <trkpt lat="38.81376" lon="-0.06531">
        <ele>148</ele>
        <time>2021-01-31 13:24:43</time>
      </trkpt>
      <trkpt lat="38.81381" lon="-0.06532">
        <ele>149</ele>
        <time>2021-01-31 13:24:44</time>
      </trkpt>
      <trkpt lat="38.81386" lon="-0.06533">
        <ele>149</ele>
        <time>2021-01-31 13:24:45</time>
      </trkpt>
      <trkpt lat="38.81391" lon="-0.06534">
        <ele>149</ele>
        <time>2021-01-31 13:24:46</time>
      </trkpt>
      <trkpt lat="38.81396" lon="-0.06535">
        <ele>149</ele>
        <time>2021-01-31 13:24:47</time>
      </trkpt>
      <trkpt lat="38.814" lon="-0.06535">
        <ele>149.8</ele>
        <time>2021-01-31 13:24:48</time>
      </trkpt>
      <trkpt lat="38.81405" lon="-0.06536">
        <ele>149.8</ele>
        <time>2021-01-31 13:24:49</time>
      </trkpt>
      <trkpt lat="38.81409" lon="-0.06536">
        <ele>149.8</ele>
        <time>2021-01-31 13:24:50</time>
      </trkpt>
      <trkpt lat="38.81413" lon="-0.06537">
        <ele>150.2</ele>
        <time>2021-01-31 13:24:51</time>
      </trkpt>
      <trkpt lat="38.81417" lon="-0.06538">
        <ele>150.4</ele>
        <time>2021-01-31 13:24:52</time>
      </trkpt>
      <trkpt lat="38.81422" lon="-0.06539">
        <ele>150.4</ele>
        <time>2021-01-31 13:24:53</time>
      </trkpt>
      <trkpt lat="38.81426" lon="-0.0654">
        <ele>150.4</ele>
        <time>2021-01-31 13:24:54</time>
      </trkpt>
      <trkpt lat="38.8143" lon="-0.06541">
        <ele>150.4</ele>
        <time>2021-01-31 13:24:55</time>
      </trkpt>
      <trkpt lat="38.81434" lon="-0.06542">
        <ele>151.2</ele>
        <time>2021-01-31 13:24:56</time>
      </trkpt>
      <trkpt lat="38.81438" lon="-0.06543">
        <ele>151.2</ele>
        <time>2021-01-31 13:24:57</time>
      </trkpt>
      <trkpt lat="38.81442" lon="-0.06545">
        <ele>151.2</ele>
        <time>2021-01-31 13:24:58</time>
      </trkpt>
      <trkpt lat="38.81446" lon="-0.06546">
        <ele>151.2</ele>
        <time>2021-01-31 13:24:59</time>
      </trkpt>
      <trkpt lat="38.8145" lon="-0.06547">
        <ele>150.8</ele>
        <time>2021-01-31 13:25:00</time>
      </trkpt>
      <trkpt lat="38.81454" lon="-0.06548">
        <ele>150.8</ele>
        <time>2021-01-31 13:25:01</time>
      </trkpt>
      <trkpt lat="38.81458" lon="-0.06549">
        <ele>150.8</ele>
        <time>2021-01-31 13:25:02</time>
      </trkpt>
      <trkpt lat="38.81462" lon="-0.0655">
        <ele>151.4</ele>
        <time>2021-01-31 13:25:03</time>
      </trkpt>
      <trkpt lat="38.81466" lon="-0.06552">
        <ele>151.6</ele>
        <time>2021-01-31 13:25:04</time>
      </trkpt>
      <trkpt lat="38.8147" lon="-0.06553">
        <ele>151.6</ele>
        <time>2021-01-31 13:25:05</time>
      </trkpt>
      <trkpt lat="38.81474" lon="-0.06554">
        <ele>151.6</ele>
        <time>2021-01-31 13:25:06</time>
      </trkpt>
      <trkpt lat="38.81477" lon="-0.06555">
        <ele>151.6</ele>
        <time>2021-01-31 13:25:07</time>
      </trkpt>
      <trkpt lat="38.81481" lon="-0.06557">
        <ele>151.8</ele>
        <time>2021-01-31 13:25:08</time>
      </trkpt>
      <trkpt lat="38.81485" lon="-0.06558">
        <ele>151.8</ele>
        <time>2021-01-31 13:25:09</time>
      </trkpt>
      <trkpt lat="38.81485" lon="-0.06558">
        <ele>151.8</ele>
        <time>2021-01-31 13:25:10</time>
      </trkpt>
      <trkpt lat="38.81492" lon="-0.0656">
        <ele>151.8</ele>
        <time>2021-01-31 13:25:11</time>
      </trkpt>
      <trkpt lat="38.81496" lon="-0.06561">
        <ele>152.6</ele>
        <time>2021-01-31 13:25:12</time>
      </trkpt>
      <trkpt lat="38.815" lon="-0.06562">
        <ele>152.6</ele>
        <time>2021-01-31 13:25:13</time>
      </trkpt>
      <trkpt lat="38.81504" lon="-0.06564">
        <ele>152.6</ele>
        <time>2021-01-31 13:25:14</time>
      </trkpt>
      <trkpt lat="38.81508" lon="-0.06565">
        <ele>152</ele>
        <time>2021-01-31 13:25:15</time>
      </trkpt>
      <trkpt lat="38.81511" lon="-0.06567">
        <ele>153</ele>
        <time>2021-01-31 13:25:16</time>
      </trkpt>
      <trkpt lat="38.81515" lon="-0.06568">
        <ele>153</ele>
        <time>2021-01-31 13:25:17</time>
      </trkpt>
      <trkpt lat="38.81519" lon="-0.0657">
        <ele>153</ele>
        <time>2021-01-31 13:25:18</time>
      </trkpt>
      <trkpt lat="38.81522" lon="-0.06572">
        <ele>154</ele>
        <time>2021-01-31 13:25:19</time>
      </trkpt>
      <trkpt lat="38.81526" lon="-0.06573">
        <ele>155.2</ele>
        <time>2021-01-31 13:25:20</time>
      </trkpt>
      <trkpt lat="38.8153" lon="-0.06575">
        <ele>155.2</ele>
        <time>2021-01-31 13:25:21</time>
      </trkpt>
      <trkpt lat="38.81534" lon="-0.06577">
        <ele>155.2</ele>
        <time>2021-01-31 13:25:22</time>
      </trkpt>
      <trkpt lat="38.81538" lon="-0.06579">
        <ele>155.6</ele>
        <time>2021-01-31 13:25:23</time>
      </trkpt>
      <trkpt lat="38.81541" lon="-0.0658">
        <ele>155.8</ele>
        <time>2021-01-31 13:25:24</time>
      </trkpt>
      <trkpt lat="38.81545" lon="-0.06582">
        <ele>155.8</ele>
        <time>2021-01-31 13:25:25</time>
      </trkpt>
      <trkpt lat="38.81549" lon="-0.06584">
        <ele>155.8</ele>
        <time>2021-01-31 13:25:26</time>
      </trkpt>
      <trkpt lat="38.81552" lon="-0.06586">
        <ele>156.2</ele>
        <time>2021-01-31 13:25:27</time>
      </trkpt>
      <trkpt lat="38.81556" lon="-0.06587">
        <ele>156</ele>
        <time>2021-01-31 13:25:28</time>
      </trkpt>
      <trkpt lat="38.8156" lon="-0.06589">
        <ele>156</ele>
        <time>2021-01-31 13:25:29</time>
      </trkpt>
      <trkpt lat="38.81563" lon="-0.0659">
        <ele>156</ele>
        <time>2021-01-31 13:25:30</time>
      </trkpt>
      <trkpt lat="38.81567" lon="-0.06592">
        <ele>156</ele>
        <time>2021-01-31 13:25:31</time>
      </trkpt>
      <trkpt lat="38.81567" lon="-0.06592">
        <ele>156.6</ele>
        <time>2021-01-31 13:25:32</time>
      </trkpt>
      <trkpt lat="38.81574" lon="-0.06595">
        <ele>156.6</ele>
        <time>2021-01-31 13:25:33</time>
      </trkpt>
      <trkpt lat="38.81578" lon="-0.06597">
        <ele>156.6</ele>
        <time>2021-01-31 13:25:34</time>
      </trkpt>
      <trkpt lat="38.81581" lon="-0.06599">
        <ele>157.2</ele>
        <time>2021-01-31 13:25:35</time>
      </trkpt>
      <trkpt lat="38.81585" lon="-0.06601">
        <ele>157.2</ele>
        <time>2021-01-31 13:25:36</time>
      </trkpt>
      <trkpt lat="38.81588" lon="-0.06603">
        <ele>157.2</ele>
        <time>2021-01-31 13:25:37</time>
      </trkpt>
      <trkpt lat="38.81591" lon="-0.06605">
        <ele>157.2</ele>
        <time>2021-01-31 13:25:38</time>
      </trkpt>
      <trkpt lat="38.81595" lon="-0.06607">
        <ele>158.2</ele>
        <time>2021-01-31 13:25:39</time>
      </trkpt>
      <trkpt lat="38.81598" lon="-0.06609">
        <ele>159.6</ele>
        <time>2021-01-31 13:25:40</time>
      </trkpt>
      <trkpt lat="38.81601" lon="-0.06612">
        <ele>159.6</ele>
        <time>2021-01-31 13:25:41</time>
      </trkpt>
      <trkpt lat="38.81604" lon="-0.06615">
        <ele>159.6</ele>
        <time>2021-01-31 13:25:42</time>
      </trkpt>
      <trkpt lat="38.81608" lon="-0.06618">
        <ele>160.6</ele>
        <time>2021-01-31 13:25:43</time>
      </trkpt>
      <trkpt lat="38.81611" lon="-0.06621">
        <ele>161.2</ele>
        <time>2021-01-31 13:25:44</time>
      </trkpt>
      <trkpt lat="38.81614" lon="-0.06624">
        <ele>161.2</ele>
        <time>2021-01-31 13:25:45</time>
      </trkpt>
      <trkpt lat="38.81617" lon="-0.06628">
        <ele>161.2</ele>
        <time>2021-01-31 13:25:46</time>
      </trkpt>
      <trkpt lat="38.8162" lon="-0.06631">
        <ele>161.2</ele>
        <time>2021-01-31 13:25:47</time>
      </trkpt>
      <trkpt lat="38.81623" lon="-0.06634">
        <ele>161.6</ele>
        <time>2021-01-31 13:25:48</time>
      </trkpt>
      <trkpt lat="38.81626" lon="-0.06636">
        <ele>161.6</ele>
        <time>2021-01-31 13:25:49</time>
      </trkpt>
      <trkpt lat="38.81629" lon="-0.06639">
        <ele>161.6</ele>
        <time>2021-01-31 13:25:50</time>
      </trkpt>
      <trkpt lat="38.81632" lon="-0.06642">
        <ele>161.6</ele>
        <time>2021-01-31 13:25:51</time>
      </trkpt>
      <trkpt lat="38.81635" lon="-0.06646">
        <ele>161.8</ele>
        <time>2021-01-31 13:25:52</time>
      </trkpt>
      <trkpt lat="38.81639" lon="-0.06649">
        <ele>161.8</ele>
        <time>2021-01-31 13:25:53</time>
      </trkpt>
      <trkpt lat="38.81642" lon="-0.06652">
        <ele>161.8</ele>
        <time>2021-01-31 13:25:54</time>
      </trkpt>
      <trkpt lat="38.81645" lon="-0.06655">
        <ele>162.6</ele>
        <time>2021-01-31 13:25:55</time>
      </trkpt>
      <trkpt lat="38.81648" lon="-0.06658">
        <ele>163.2</ele>
        <time>2021-01-31 13:25:56</time>
      </trkpt>
      <trkpt lat="38.81651" lon="-0.06661">
        <ele>163.2</ele>
        <time>2021-01-31 13:25:57</time>
      </trkpt>
      <trkpt lat="38.81654" lon="-0.06664">
        <ele>163.2</ele>
        <time>2021-01-31 13:25:58</time>
      </trkpt>
      <trkpt lat="38.81657" lon="-0.06667">
        <ele>163.2</ele>
        <time>2021-01-31 13:25:59</time>
      </trkpt>
      <trkpt lat="38.8166" lon="-0.06671">
        <ele>163.6</ele>
        <time>2021-01-31 13:26:00</time>
      </trkpt>
      <trkpt lat="38.81663" lon="-0.06674">
        <ele>163.6</ele>
        <time>2021-01-31 13:26:01</time>
      </trkpt>
      <trkpt lat="38.81666" lon="-0.06677">
        <ele>163.6</ele>
        <time>2021-01-31 13:26:02</time>
      </trkpt>
      <trkpt lat="38.81669" lon="-0.0668">
        <ele>163.6</ele>
        <time>2021-01-31 13:26:03</time>
      </trkpt>
      <trkpt lat="38.81672" lon="-0.06683">
        <ele>163.4</ele>
        <time>2021-01-31 13:26:04</time>
      </trkpt>
      <trkpt lat="38.81675" lon="-0.06686">
        <ele>163.4</ele>
        <time>2021-01-31 13:26:05</time>
      </trkpt>
      <trkpt lat="38.81679" lon="-0.06689">
        <ele>163.4</ele>
        <time>2021-01-31 13:26:06</time>
      </trkpt>
      <trkpt lat="38.81682" lon="-0.06692">
        <ele>163.8</ele>
        <time>2021-01-31 13:26:07</time>
      </trkpt>
      <trkpt lat="38.81685" lon="-0.06695">
        <ele>164</ele>
        <time>2021-01-31 13:26:08</time>
      </trkpt>
      <trkpt lat="38.81688" lon="-0.06698">
        <ele>164</ele>
        <time>2021-01-31 13:26:09</time>
      </trkpt>
      <trkpt lat="38.81691" lon="-0.06701">
        <ele>164</ele>
        <time>2021-01-31 13:26:10</time>
      </trkpt>
      <trkpt lat="38.81694" lon="-0.06704">
        <ele>164</ele>
        <time>2021-01-31 13:26:11</time>
      </trkpt>
      <trkpt lat="38.81698" lon="-0.06706">
        <ele>164.2</ele>
        <time>2021-01-31 13:26:12</time>
      </trkpt>
      <trkpt lat="38.81701" lon="-0.06709">
        <ele>164.2</ele>
        <time>2021-01-31 13:26:13</time>
      </trkpt>
      <trkpt lat="38.81704" lon="-0.06711">
        <ele>164.2</ele>
        <time>2021-01-31 13:26:14</time>
      </trkpt>
      <trkpt lat="38.81708" lon="-0.06714">
        <ele>165.2</ele>
        <time>2021-01-31 13:26:15</time>
      </trkpt>
      <trkpt lat="38.81711" lon="-0.06716">
        <ele>165.2</ele>
        <time>2021-01-31 13:26:16</time>
      </trkpt>
      <trkpt lat="38.81714" lon="-0.06718">
        <ele>165.2</ele>
        <time>2021-01-31 13:26:17</time>
      </trkpt>
      <trkpt lat="38.81718" lon="-0.06721">
        <ele>165.2</ele>
        <time>2021-01-31 13:26:18</time>
      </trkpt>
      <trkpt lat="38.81721" lon="-0.06723">
        <ele>165.2</ele>
        <time>2021-01-31 13:26:19</time>
      </trkpt>
      <trkpt lat="38.81725" lon="-0.06725">
        <ele>165.8</ele>
        <time>2021-01-31 13:26:20</time>
      </trkpt>
      <trkpt lat="38.81728" lon="-0.06728">
        <ele>165.8</ele>
        <time>2021-01-31 13:26:21</time>
      </trkpt>
      <trkpt lat="38.81732" lon="-0.0673">
        <ele>165.8</ele>
        <time>2021-01-31 13:26:22</time>
      </trkpt>
      <trkpt lat="38.81735" lon="-0.06732">
        <ele>165</ele>
        <time>2021-01-31 13:26:23</time>
      </trkpt>
      <trkpt lat="38.81739" lon="-0.06735">
        <ele>164.6</ele>
        <time>2021-01-31 13:26:24</time>
      </trkpt>
      <trkpt lat="38.81742" lon="-0.06737">
        <ele>164.6</ele>
        <time>2021-01-31 13:26:25</time>
      </trkpt>
      <trkpt lat="38.81746" lon="-0.06739">
        <ele>164.6</ele>
        <time>2021-01-31 13:26:26</time>
      </trkpt>
      <trkpt lat="38.81749" lon="-0.06742">
        <ele>165.6</ele>
        <time>2021-01-31 13:26:27</time>
      </trkpt>
      <trkpt lat="38.81753" lon="-0.06744">
        <ele>166.8</ele>
        <time>2021-01-31 13:26:28</time>
      </trkpt>
      <trkpt lat="38.81756" lon="-0.06746">
        <ele>166.8</ele>
        <time>2021-01-31 13:26:29</time>
      </trkpt>
      <trkpt lat="38.8176" lon="-0.06749">
        <ele>166.8</ele>
        <time>2021-01-31 13:26:30</time>
      </trkpt>
      <trkpt lat="38.81763" lon="-0.06751">
        <ele>166.8</ele>
        <time>2021-01-31 13:26:31</time>
      </trkpt>
      <trkpt lat="38.81766" lon="-0.06754">
        <ele>168</ele>
        <time>2021-01-31 13:26:32</time>
      </trkpt>
      <trkpt lat="38.8177" lon="-0.06757">
        <ele>168</ele>
        <time>2021-01-31 13:26:33</time>
      </trkpt>
      <trkpt lat="38.81773" lon="-0.0676">
        <ele>168</ele>
        <time>2021-01-31 13:26:34</time>
      </trkpt>
      <trkpt lat="38.81776" lon="-0.06763">
        <ele>168</ele>
        <time>2021-01-31 13:26:35</time>
      </trkpt>
      <trkpt lat="38.81779" lon="-0.06766">
        <ele>167.8</ele>
        <time>2021-01-31 13:26:36</time>
      </trkpt>
      <trkpt lat="38.81783" lon="-0.06768">
        <ele>167.8</ele>
        <time>2021-01-31 13:26:37</time>
      </trkpt>
      <trkpt lat="38.81786" lon="-0.06771">
        <ele>167.8</ele>
        <time>2021-01-31 13:26:38</time>
      </trkpt>
      <trkpt lat="38.81789" lon="-0.06774">
        <ele>167.8</ele>
        <time>2021-01-31 13:26:39</time>
      </trkpt>
      <trkpt lat="38.81792" lon="-0.06777">
        <ele>169.2</ele>
        <time>2021-01-31 13:26:40</time>
      </trkpt>
      <trkpt lat="38.81796" lon="-0.0678">
        <ele>169.2</ele>
        <time>2021-01-31 13:26:41</time>
      </trkpt>
      <trkpt lat="38.81799" lon="-0.06783">
        <ele>169.2</ele>
        <time>2021-01-31 13:26:42</time>
      </trkpt>
      <trkpt lat="38.81802" lon="-0.06786">
        <ele>170</ele>
        <time>2021-01-31 13:26:43</time>
      </trkpt>
      <trkpt lat="38.81805" lon="-0.06789">
        <ele>169.8</ele>
        <time>2021-01-31 13:26:44</time>
      </trkpt>
      <trkpt lat="38.81809" lon="-0.06792">
        <ele>169.8</ele>
        <time>2021-01-31 13:26:45</time>
      </trkpt>
      <trkpt lat="38.81812" lon="-0.06795">
        <ele>169.8</ele>
        <time>2021-01-31 13:26:46</time>
      </trkpt>
      <trkpt lat="38.81815" lon="-0.06798">
        <ele>170.4</ele>
        <time>2021-01-31 13:26:47</time>
      </trkpt>
      <trkpt lat="38.81818" lon="-0.06801">
        <ele>170.2</ele>
        <time>2021-01-31 13:26:48</time>
      </trkpt>
      <trkpt lat="38.81821" lon="-0.06804">
        <ele>170.2</ele>
        <time>2021-01-31 13:26:49</time>
      </trkpt>
      <trkpt lat="38.81824" lon="-0.06807">
        <ele>170.2</ele>
        <time>2021-01-31 13:26:50</time>
      </trkpt>
      <trkpt lat="38.81827" lon="-0.0681">
        <ele>171.2</ele>
        <time>2021-01-31 13:26:51</time>
      </trkpt>
      <trkpt lat="38.8183" lon="-0.06812">
        <ele>171.6</ele>
        <time>2021-01-31 13:26:52</time>
      </trkpt>
      <trkpt lat="38.81833" lon="-0.06814">
        <ele>171.6</ele>
        <time>2021-01-31 13:26:53</time>
      </trkpt>
      <trkpt lat="38.81836" lon="-0.06818">
        <ele>171.6</ele>
        <time>2021-01-31 13:26:54</time>
      </trkpt>
      <trkpt lat="38.81838" lon="-0.06821">
        <ele>171.2</ele>
        <time>2021-01-31 13:26:55</time>
      </trkpt>
      <trkpt lat="38.81838" lon="-0.06821">
        <ele>171.8</ele>
        <time>2021-01-31 13:26:56</time>
      </trkpt>
      <trkpt lat="38.81844" lon="-0.06827">
        <ele>171.8</ele>
        <time>2021-01-31 13:26:57</time>
      </trkpt>
      <trkpt lat="38.81846" lon="-0.06831">
        <ele>171.8</ele>
        <time>2021-01-31 13:26:58</time>
      </trkpt>
      <trkpt lat="38.81849" lon="-0.06835">
        <ele>171.8</ele>
        <time>2021-01-31 13:26:59</time>
      </trkpt>
      <trkpt lat="38.81851" lon="-0.06839">
        <ele>171.2</ele>
        <time>2021-01-31 13:27:00</time>
      </trkpt>
      <trkpt lat="38.81853" lon="-0.06843">
        <ele>171.2</ele>
        <time>2021-01-31 13:27:01</time>
      </trkpt>
      <trkpt lat="38.81856" lon="-0.06847">
        <ele>171.2</ele>
        <time>2021-01-31 13:27:02</time>
      </trkpt>
      <trkpt lat="38.81858" lon="-0.0685">
        <ele>170.4</ele>
        <time>2021-01-31 13:27:03</time>
      </trkpt>
      <trkpt lat="38.8186" lon="-0.06854">
        <ele>171</ele>
        <time>2021-01-31 13:27:04</time>
      </trkpt>
      <trkpt lat="38.81862" lon="-0.06857">
        <ele>171</ele>
        <time>2021-01-31 13:27:05</time>
      </trkpt>
      <trkpt lat="38.81864" lon="-0.06861">
        <ele>171</ele>
        <time>2021-01-31 13:27:06</time>
      </trkpt>
      <trkpt lat="38.81866" lon="-0.06864">
        <ele>171.6</ele>
        <time>2021-01-31 13:27:07</time>
      </trkpt>
      <trkpt lat="38.81868" lon="-0.06867">
        <ele>174</ele>
        <time>2021-01-31 13:27:08</time>
      </trkpt>
      <trkpt lat="38.8187" lon="-0.06871">
        <ele>174</ele>
        <time>2021-01-31 13:27:09</time>
      </trkpt>
      <trkpt lat="38.81872" lon="-0.06875">
        <ele>174</ele>
        <time>2021-01-31 13:27:10</time>
      </trkpt>
      <trkpt lat="38.81874" lon="-0.06879">
        <ele>174</ele>
        <time>2021-01-31 13:27:11</time>
      </trkpt>
      <trkpt lat="38.81876" lon="-0.06883">
        <ele>175</ele>
        <time>2021-01-31 13:27:12</time>
      </trkpt>
      <trkpt lat="38.81877" lon="-0.06887">
        <ele>175</ele>
        <time>2021-01-31 13:27:13</time>
      </trkpt>
      <trkpt lat="38.81878" lon="-0.06892">
        <ele>175</ele>
        <time>2021-01-31 13:27:14</time>
      </trkpt>
      <trkpt lat="38.8188" lon="-0.06896">
        <ele>174</ele>
        <time>2021-01-31 13:27:15</time>
      </trkpt>
      <trkpt lat="38.81881" lon="-0.069">
        <ele>170.6</ele>
        <time>2021-01-31 13:27:16</time>
      </trkpt>
      <trkpt lat="38.81882" lon="-0.06905">
        <ele>170.6</ele>
        <time>2021-01-31 13:27:17</time>
      </trkpt>
      <trkpt lat="38.81883" lon="-0.06909">
        <ele>170.6</ele>
        <time>2021-01-31 13:27:18</time>
      </trkpt>
      <trkpt lat="38.81884" lon="-0.06914">
        <ele>171.6</ele>
        <time>2021-01-31 13:27:19</time>
      </trkpt>
      <trkpt lat="38.81885" lon="-0.06918">
        <ele>174.8</ele>
        <time>2021-01-31 13:27:20</time>
      </trkpt>
      <trkpt lat="38.81886" lon="-0.06923">
        <ele>174.8</ele>
        <time>2021-01-31 13:27:21</time>
      </trkpt>
      <trkpt lat="38.81886" lon="-0.06928">
        <ele>174.8</ele>
        <time>2021-01-31 13:27:22</time>
      </trkpt>
      <trkpt lat="38.81887" lon="-0.06933">
        <ele>173.8</ele>
        <time>2021-01-31 13:27:23</time>
      </trkpt>
      <trkpt lat="38.81888" lon="-0.06938">
        <ele>172.8</ele>
        <time>2021-01-31 13:27:24</time>
      </trkpt>
      <trkpt lat="38.81888" lon="-0.06943">
        <ele>172.8</ele>
        <time>2021-01-31 13:27:25</time>
      </trkpt>
      <trkpt lat="38.81889" lon="-0.06947">
        <ele>172.8</ele>
        <time>2021-01-31 13:27:26</time>
      </trkpt>
      <trkpt lat="38.81889" lon="-0.06952">
        <ele>172.8</ele>
        <time>2021-01-31 13:27:27</time>
      </trkpt>
      <trkpt lat="38.81889" lon="-0.06957">
        <ele>173</ele>
        <time>2021-01-31 13:27:28</time>
      </trkpt>
      <trkpt lat="38.81889" lon="-0.06961">
        <ele>173</ele>
        <time>2021-01-31 13:27:29</time>
      </trkpt>
      <trkpt lat="38.8189" lon="-0.06966">
        <ele>173</ele>
        <time>2021-01-31 13:27:30</time>
      </trkpt>
      <trkpt lat="38.8189" lon="-0.0697">
        <ele>174</ele>
        <time>2021-01-31 13:27:31</time>
      </trkpt>
      <trkpt lat="38.8189" lon="-0.06974">
        <ele>176</ele>
        <time>2021-01-31 13:27:32</time>
      </trkpt>
      <trkpt lat="38.8189" lon="-0.06978">
        <ele>176</ele>
        <time>2021-01-31 13:27:33</time>
      </trkpt>
      <trkpt lat="38.8189" lon="-0.06983">
        <ele>176</ele>
        <time>2021-01-31 13:27:34</time>
      </trkpt>
      <trkpt lat="38.8189" lon="-0.06988">
        <ele>175</ele>
        <time>2021-01-31 13:27:35</time>
      </trkpt>
      <trkpt lat="38.81891" lon="-0.06992">
        <ele>176.2</ele>
        <time>2021-01-31 13:27:36</time>
      </trkpt>
      <trkpt lat="38.81891" lon="-0.06997">
        <ele>176.2</ele>
        <time>2021-01-31 13:27:37</time>
      </trkpt>
      <trkpt lat="38.81891" lon="-0.07002">
        <ele>176.2</ele>
        <time>2021-01-31 13:27:38</time>
      </trkpt>
      <trkpt lat="38.81891" lon="-0.07007">
        <ele>176.2</ele>
        <time>2021-01-31 13:27:39</time>
      </trkpt>
      <trkpt lat="38.81892" lon="-0.07011">
        <ele>177.6</ele>
        <time>2021-01-31 13:27:40</time>
      </trkpt>
      <trkpt lat="38.81892" lon="-0.07016">
        <ele>177.6</ele>
        <time>2021-01-31 13:27:41</time>
      </trkpt>
      <trkpt lat="38.81892" lon="-0.07021">
        <ele>177.6</ele>
        <time>2021-01-31 13:27:42</time>
      </trkpt>
      <trkpt lat="38.81892" lon="-0.07026">
        <ele>177.6</ele>
        <time>2021-01-31 13:27:43</time>
      </trkpt>
      <trkpt lat="38.81893" lon="-0.07031">
        <ele>179.6</ele>
        <time>2021-01-31 13:27:44</time>
      </trkpt>
      <trkpt lat="38.81893" lon="-0.07036">
        <ele>179.6</ele>
        <time>2021-01-31 13:27:45</time>
      </trkpt>
      <trkpt lat="38.81893" lon="-0.07042">
        <ele>179.6</ele>
        <time>2021-01-31 13:27:46</time>
      </trkpt>
      <trkpt lat="38.81894" lon="-0.07047">
        <ele>179.6</ele>
        <time>2021-01-31 13:27:47</time>
      </trkpt>
      <trkpt lat="38.81894" lon="-0.07052">
        <ele>180</ele>
        <time>2021-01-31 13:27:48</time>
      </trkpt>
      <trkpt lat="38.81894" lon="-0.07058">
        <ele>180</ele>
        <time>2021-01-31 13:27:49</time>
      </trkpt>
      <trkpt lat="38.81895" lon="-0.07063">
        <ele>180</ele>
        <time>2021-01-31 13:27:50</time>
      </trkpt>
      <trkpt lat="38.81896" lon="-0.07068">
        <ele>179</ele>
        <time>2021-01-31 13:27:51</time>
      </trkpt>
      <trkpt lat="38.81897" lon="-0.07073">
        <ele>178</ele>
        <time>2021-01-31 13:27:52</time>
      </trkpt>
      <trkpt lat="38.81898" lon="-0.07078">
        <ele>178</ele>
        <time>2021-01-31 13:27:53</time>
      </trkpt>
      <trkpt lat="38.81899" lon="-0.07083">
        <ele>178</ele>
        <time>2021-01-31 13:27:54</time>
      </trkpt>
      <trkpt lat="38.81899" lon="-0.07088">
        <ele>178</ele>
        <time>2021-01-31 13:27:55</time>
      </trkpt>
      <trkpt lat="38.81901" lon="-0.07092">
        <ele>178.8</ele>
        <time>2021-01-31 13:27:56</time>
      </trkpt>
      <trkpt lat="38.81902" lon="-0.07097">
        <ele>178.8</ele>
        <time>2021-01-31 13:27:57</time>
      </trkpt>
      <trkpt lat="38.81903" lon="-0.07102">
        <ele>178.8</ele>
        <time>2021-01-31 13:27:58</time>
      </trkpt>
      <trkpt lat="38.81904" lon="-0.07107">
        <ele>178.8</ele>
        <time>2021-01-31 13:27:59</time>
      </trkpt>
      <trkpt lat="38.81905" lon="-0.07111">
        <ele>178.8</ele>
        <time>2021-01-31 13:28:00</time>
      </trkpt>
      <trkpt lat="38.81906" lon="-0.07116">
        <ele>178.8</ele>
        <time>2021-01-31 13:28:01</time>
      </trkpt>
      <trkpt lat="38.81906" lon="-0.07121">
        <ele>178.8</ele>
        <time>2021-01-31 13:28:02</time>
      </trkpt>
      <trkpt lat="38.81907" lon="-0.07126">
        <ele>177.8</ele>
        <time>2021-01-31 13:28:03</time>
      </trkpt>
      <trkpt lat="38.81907" lon="-0.07131">
        <ele>179</ele>
        <time>2021-01-31 13:28:04</time>
      </trkpt>
      <trkpt lat="38.81907" lon="-0.07135">
        <ele>179</ele>
        <time>2021-01-31 13:28:05</time>
      </trkpt>
      <trkpt lat="38.81908" lon="-0.07139">
        <ele>179</ele>
        <time>2021-01-31 13:28:06</time>
      </trkpt>
      <trkpt lat="38.81908" lon="-0.07143">
        <ele>179</ele>
        <time>2021-01-31 13:28:07</time>
      </trkpt>
      <trkpt lat="38.81908" lon="-0.07147">
        <ele>178</ele>
        <time>2021-01-31 13:28:08</time>
      </trkpt>
      <trkpt lat="38.81908" lon="-0.07151">
        <ele>178</ele>
        <time>2021-01-31 13:28:09</time>
      </trkpt>
      <trkpt lat="38.81908" lon="-0.07155">
        <ele>178</ele>
        <time>2021-01-31 13:28:10</time>
      </trkpt>
      <trkpt lat="38.81907" lon="-0.07159">
        <ele>178</ele>
        <time>2021-01-31 13:28:11</time>
      </trkpt>
      <trkpt lat="38.81907" lon="-0.07163">
        <ele>179.2</ele>
        <time>2021-01-31 13:28:12</time>
      </trkpt>
      <trkpt lat="38.81907" lon="-0.07167">
        <ele>179.2</ele>
        <time>2021-01-31 13:28:13</time>
      </trkpt>
      <trkpt lat="38.81907" lon="-0.07171">
        <ele>179.2</ele>
        <time>2021-01-31 13:28:14</time>
      </trkpt>
      <trkpt lat="38.81906" lon="-0.07175">
        <ele>179.2</ele>
        <time>2021-01-31 13:28:15</time>
      </trkpt>
      <trkpt lat="38.81906" lon="-0.07179">
        <ele>180</ele>
        <time>2021-01-31 13:28:16</time>
      </trkpt>
      <trkpt lat="38.81905" lon="-0.07183">
        <ele>180</ele>
        <time>2021-01-31 13:28:17</time>
      </trkpt>
      <trkpt lat="38.81905" lon="-0.07187">
        <ele>180</ele>
        <time>2021-01-31 13:28:18</time>
      </trkpt>
      <trkpt lat="38.81904" lon="-0.07191">
        <ele>180</ele>
        <time>2021-01-31 13:28:19</time>
      </trkpt>
      <trkpt lat="38.81904" lon="-0.07194">
        <ele>179.6</ele>
        <time>2021-01-31 13:28:20</time>
      </trkpt>
      <trkpt lat="38.81903" lon="-0.07198">
        <ele>179.6</ele>
        <time>2021-01-31 13:28:21</time>
      </trkpt>
      <trkpt lat="38.81903" lon="-0.07202">
        <ele>179.6</ele>
        <time>2021-01-31 13:28:22</time>
      </trkpt>
      <trkpt lat="38.81903" lon="-0.07205">
        <ele>178.6</ele>
        <time>2021-01-31 13:28:23</time>
      </trkpt>
      <trkpt lat="38.81902" lon="-0.07209">
        <ele>179.2</ele>
        <time>2021-01-31 13:28:24</time>
      </trkpt>
      <trkpt lat="38.81902" lon="-0.07212">
        <ele>179.2</ele>
        <time>2021-01-31 13:28:25</time>
      </trkpt>
      <trkpt lat="38.81902" lon="-0.07216">
        <ele>179.2</ele>
        <time>2021-01-31 13:28:26</time>
      </trkpt>
      <trkpt lat="38.81903" lon="-0.0722">
        <ele>180.2</ele>
        <time>2021-01-31 13:28:27</time>
      </trkpt>
      <trkpt lat="38.81903" lon="-0.07223">
        <ele>182.4</ele>
        <time>2021-01-31 13:28:28</time>
      </trkpt>
      <trkpt lat="38.81904" lon="-0.07227">
        <ele>182.4</ele>
        <time>2021-01-31 13:28:29</time>
      </trkpt>
      <trkpt lat="38.81904" lon="-0.0723">
        <ele>182.4</ele>
        <time>2021-01-31 13:28:30</time>
      </trkpt>
      <trkpt lat="38.81906" lon="-0.07233">
        <ele>182.6</ele>
        <time>2021-01-31 13:28:31</time>
      </trkpt>
      <trkpt lat="38.81907" lon="-0.07236">
        <ele>183.4</ele>
        <time>2021-01-31 13:28:32</time>
      </trkpt>
      <trkpt lat="38.81908" lon="-0.07239">
        <ele>183.4</ele>
        <time>2021-01-31 13:28:33</time>
      </trkpt>
      <trkpt lat="38.81909" lon="-0.07242">
        <ele>183.4</ele>
        <time>2021-01-31 13:28:34</time>
      </trkpt>
      <trkpt lat="38.8191" lon="-0.07245">
        <ele>183.4</ele>
        <time>2021-01-31 13:28:35</time>
      </trkpt>
      <trkpt lat="38.81912" lon="-0.07248">
        <ele>185.8</ele>
        <time>2021-01-31 13:28:36</time>
      </trkpt>
      <trkpt lat="38.81913" lon="-0.07251">
        <ele>185.8</ele>
        <time>2021-01-31 13:28:37</time>
      </trkpt>
      <trkpt lat="38.81915" lon="-0.07253">
        <ele>185.8</ele>
        <time>2021-01-31 13:28:38</time>
      </trkpt>
      <trkpt lat="38.81916" lon="-0.07256">
        <ele>186.6</ele>
        <time>2021-01-31 13:28:39</time>
      </trkpt>
      <trkpt lat="38.81918" lon="-0.07259">
        <ele>186.4</ele>
        <time>2021-01-31 13:28:40</time>
      </trkpt>
      <trkpt lat="38.81919" lon="-0.07262">
        <ele>186.4</ele>
        <time>2021-01-31 13:28:41</time>
      </trkpt>
      <trkpt lat="38.8192" lon="-0.07265">
        <ele>186.4</ele>
        <time>2021-01-31 13:28:42</time>
      </trkpt>
      <trkpt lat="38.81922" lon="-0.07267">
        <ele>186.4</ele>
        <time>2021-01-31 13:28:43</time>
      </trkpt>
      <trkpt lat="38.81923" lon="-0.0727">
        <ele>185.6</ele>
        <time>2021-01-31 13:28:44</time>
      </trkpt>
      <trkpt lat="38.81925" lon="-0.07273">
        <ele>185.6</ele>
        <time>2021-01-31 13:28:45</time>
      </trkpt>
      <trkpt lat="38.81926" lon="-0.07276">
        <ele>185.6</ele>
        <time>2021-01-31 13:28:46</time>
      </trkpt>
      <trkpt lat="38.81928" lon="-0.07279">
        <ele>185.8</ele>
        <time>2021-01-31 13:28:47</time>
      </trkpt>
      <trkpt lat="38.8193" lon="-0.07282">
        <ele>186</ele>
        <time>2021-01-31 13:28:48</time>
      </trkpt>
      <trkpt lat="38.81931" lon="-0.07285">
        <ele>186</ele>
        <time>2021-01-31 13:28:49</time>
      </trkpt>
      <trkpt lat="38.81933" lon="-0.07288">
        <ele>186</ele>
        <time>2021-01-31 13:28:50</time>
      </trkpt>
      <trkpt lat="38.81934" lon="-0.07291">
        <ele>186</ele>
        <time>2021-01-31 13:28:51</time>
      </trkpt>
      <trkpt lat="38.81936" lon="-0.07295">
        <ele>186.8</ele>
        <time>2021-01-31 13:28:52</time>
      </trkpt>
      <trkpt lat="38.81937" lon="-0.07298">
        <ele>186.8</ele>
        <time>2021-01-31 13:28:53</time>
      </trkpt>
      <trkpt lat="38.81939" lon="-0.07301">
        <ele>186.8</ele>
        <time>2021-01-31 13:28:54</time>
      </trkpt>
      <trkpt lat="38.8194" lon="-0.07304">
        <ele>186.8</ele>
        <time>2021-01-31 13:28:55</time>
      </trkpt>
      <trkpt lat="38.81942" lon="-0.07307">
        <ele>187.4</ele>
        <time>2021-01-31 13:28:56</time>
      </trkpt>
      <trkpt lat="38.81943" lon="-0.07309">
        <ele>187.4</ele>
        <time>2021-01-31 13:28:57</time>
      </trkpt>
      <trkpt lat="38.81945" lon="-0.07312">
        <ele>187.4</ele>
        <time>2021-01-31 13:28:58</time>
      </trkpt>
      <trkpt lat="38.81946" lon="-0.07315">
        <ele>187.4</ele>
        <time>2021-01-31 13:28:59</time>
      </trkpt>
      <trkpt lat="38.81948" lon="-0.07318">
        <ele>188.2</ele>
        <time>2021-01-31 13:29:00</time>
      </trkpt>
      <trkpt lat="38.8195" lon="-0.0732">
        <ele>188.2</ele>
        <time>2021-01-31 13:29:01</time>
      </trkpt>
      <trkpt lat="38.81952" lon="-0.07323">
        <ele>188.2</ele>
        <time>2021-01-31 13:29:02</time>
      </trkpt>
      <trkpt lat="38.81954" lon="-0.07325">
        <ele>188.6</ele>
        <time>2021-01-31 13:29:03</time>
      </trkpt>
      <trkpt lat="38.81956" lon="-0.07326">
        <ele>188.4</ele>
        <time>2021-01-31 13:29:04</time>
      </trkpt>
      <trkpt lat="38.81958" lon="-0.07328">
        <ele>188.4</ele>
        <time>2021-01-31 13:29:05</time>
      </trkpt>
      <trkpt lat="38.8196" lon="-0.0733">
        <ele>188.4</ele>
        <time>2021-01-31 13:29:06</time>
      </trkpt>
      <trkpt lat="38.81963" lon="-0.07332">
        <ele>188.8</ele>
        <time>2021-01-31 13:29:07</time>
      </trkpt>
      <trkpt lat="38.81965" lon="-0.07334">
        <ele>189.6</ele>
        <time>2021-01-31 13:29:08</time>
      </trkpt>
      <trkpt lat="38.81967" lon="-0.07335">
        <ele>189.6</ele>
        <time>2021-01-31 13:29:09</time>
      </trkpt>
      <trkpt lat="38.8197" lon="-0.07336">
        <ele>189.6</ele>
        <time>2021-01-31 13:29:10</time>
      </trkpt>
      <trkpt lat="38.81972" lon="-0.07337">
        <ele>189.4</ele>
        <time>2021-01-31 13:29:11</time>
      </trkpt>
      <trkpt lat="38.81975" lon="-0.07337">
        <ele>189.6</ele>
        <time>2021-01-31 13:29:12</time>
      </trkpt>
      <trkpt lat="38.81977" lon="-0.0734">
        <ele>189.6</ele>
        <time>2021-01-31 13:29:13</time>
      </trkpt>
      <trkpt lat="38.8198" lon="-0.0734">
        <ele>189.6</ele>
        <time>2021-01-31 13:29:14</time>
      </trkpt>
      <trkpt lat="38.81982" lon="-0.07341">
        <ele>190.4</ele>
        <time>2021-01-31 13:29:15</time>
      </trkpt>
      <trkpt lat="38.81985" lon="-0.07341">
        <ele>190.6</ele>
        <time>2021-01-31 13:29:16</time>
      </trkpt>
      <trkpt lat="38.81988" lon="-0.07341">
        <ele>190.6</ele>
        <time>2021-01-31 13:29:17</time>
      </trkpt>
      <trkpt lat="38.8199" lon="-0.07341">
        <ele>190.6</ele>
        <time>2021-01-31 13:29:18</time>
      </trkpt>
      <trkpt lat="38.81993" lon="-0.07341">
        <ele>190.6</ele>
        <time>2021-01-31 13:29:19</time>
      </trkpt>
      <trkpt lat="38.81995" lon="-0.07341">
        <ele>192.2</ele>
        <time>2021-01-31 13:29:20</time>
      </trkpt>
      <trkpt lat="38.81998" lon="-0.0734">
        <ele>192.2</ele>
        <time>2021-01-31 13:29:21</time>
      </trkpt>
      <trkpt lat="38.82001" lon="-0.07339">
        <ele>192.2</ele>
        <time>2021-01-31 13:29:22</time>
      </trkpt>
      <trkpt lat="38.82003" lon="-0.07338">
        <ele>192.2</ele>
        <time>2021-01-31 13:29:23</time>
      </trkpt>
      <trkpt lat="38.82005" lon="-0.07338">
        <ele>192.4</ele>
        <time>2021-01-31 13:29:24</time>
      </trkpt>
      <trkpt lat="38.82008" lon="-0.07337">
        <ele>192.4</ele>
        <time>2021-01-31 13:29:25</time>
      </trkpt>
      <trkpt lat="38.8201" lon="-0.07337">
        <ele>192.4</ele>
        <time>2021-01-31 13:29:26</time>
      </trkpt>
      <trkpt lat="38.82012" lon="-0.07336">
        <ele>193.2</ele>
        <time>2021-01-31 13:29:27</time>
      </trkpt>
      <trkpt lat="38.82015" lon="-0.07335">
        <ele>193.6</ele>
        <time>2021-01-31 13:29:28</time>
      </trkpt>
      <trkpt lat="38.82018" lon="-0.07335">
        <ele>193.6</ele>
        <time>2021-01-31 13:29:29</time>
      </trkpt>
      <trkpt lat="38.8202" lon="-0.07335">
        <ele>193.6</ele>
        <time>2021-01-31 13:29:30</time>
      </trkpt>
      <trkpt lat="38.82023" lon="-0.07334">
        <ele>193.6</ele>
        <time>2021-01-31 13:29:31</time>
      </trkpt>
      <trkpt lat="38.82025" lon="-0.07334">
        <ele>194</ele>
        <time>2021-01-31 13:29:32</time>
      </trkpt>
      <trkpt lat="38.82028" lon="-0.07334">
        <ele>194</ele>
        <time>2021-01-31 13:29:33</time>
      </trkpt>
      <trkpt lat="38.82031" lon="-0.07334">
        <ele>194</ele>
        <time>2021-01-31 13:29:34</time>
      </trkpt>
      <trkpt lat="38.82033" lon="-0.07334">
        <ele>194</ele>
        <time>2021-01-31 13:29:35</time>
      </trkpt>
      <trkpt lat="38.82036" lon="-0.07334">
        <ele>195</ele>
        <time>2021-01-31 13:29:36</time>
      </trkpt>
      <trkpt lat="38.82039" lon="-0.07334">
        <ele>195</ele>
        <time>2021-01-31 13:29:37</time>
      </trkpt>
      <trkpt lat="38.82042" lon="-0.07333">
        <ele>195</ele>
        <time>2021-01-31 13:29:38</time>
      </trkpt>
      <trkpt lat="38.82044" lon="-0.07334">
        <ele>194.8</ele>
        <time>2021-01-31 13:29:39</time>
      </trkpt>
      <trkpt lat="38.82047" lon="-0.07334">
        <ele>194.6</ele>
        <time>2021-01-31 13:29:40</time>
      </trkpt>
      <trkpt lat="38.8205" lon="-0.07335">
        <ele>194.6</ele>
        <time>2021-01-31 13:29:41</time>
      </trkpt>
      <trkpt lat="38.82052" lon="-0.07335">
        <ele>194.6</ele>
        <time>2021-01-31 13:29:42</time>
      </trkpt>
      <trkpt lat="38.82055" lon="-0.07337">
        <ele>194.4</ele>
        <time>2021-01-31 13:29:43</time>
      </trkpt>
      <trkpt lat="38.82057" lon="-0.07339">
        <ele>194.4</ele>
        <time>2021-01-31 13:29:44</time>
      </trkpt>
      <trkpt lat="38.82059" lon="-0.07341">
        <ele>194.4</ele>
        <time>2021-01-31 13:29:45</time>
      </trkpt>
      <trkpt lat="38.82061" lon="-0.07343">
        <ele>194.4</ele>
        <time>2021-01-31 13:29:46</time>
      </trkpt>
      <trkpt lat="38.82063" lon="-0.07345">
        <ele>194.4</ele>
        <time>2021-01-31 13:29:47</time>
      </trkpt>
      <trkpt lat="38.82064" lon="-0.07347">
        <ele>195</ele>
        <time>2021-01-31 13:29:48</time>
      </trkpt>
      <trkpt lat="38.82066" lon="-0.0735">
        <ele>195</ele>
        <time>2021-01-31 13:29:49</time>
      </trkpt>
      <trkpt lat="38.82068" lon="-0.07354">
        <ele>195</ele>
        <time>2021-01-31 13:29:50</time>
      </trkpt>
      <trkpt lat="38.8207" lon="-0.07357">
        <ele>195.4</ele>
        <time>2021-01-31 13:29:51</time>
      </trkpt>
      <trkpt lat="38.82071" lon="-0.07361">
        <ele>195.6</ele>
        <time>2021-01-31 13:29:52</time>
      </trkpt>
      <trkpt lat="38.82073" lon="-0.07364">
        <ele>195.6</ele>
        <time>2021-01-31 13:29:53</time>
      </trkpt>
      <trkpt lat="38.82074" lon="-0.07368">
        <ele>195.6</ele>
        <time>2021-01-31 13:29:54</time>
      </trkpt>
      <trkpt lat="38.82075" lon="-0.07371">
        <ele>196.6</ele>
        <time>2021-01-31 13:29:55</time>
      </trkpt>
      <trkpt lat="38.82076" lon="-0.07375">
        <ele>197.2</ele>
        <time>2021-01-31 13:29:56</time>
      </trkpt>
      <trkpt lat="38.82077" lon="-0.07378">
        <ele>197.2</ele>
        <time>2021-01-31 13:29:57</time>
      </trkpt>
      <trkpt lat="38.82078" lon="-0.07382">
        <ele>197.2</ele>
        <time>2021-01-31 13:29:58</time>
      </trkpt>
      <trkpt lat="38.82079" lon="-0.07386">
        <ele>197.8</ele>
        <time>2021-01-31 13:29:59</time>
      </trkpt>
      <trkpt lat="38.82081" lon="-0.07389">
        <ele>197.6</ele>
        <time>2021-01-31 13:30:00</time>
      </trkpt>
      <trkpt lat="38.82082" lon="-0.07392">
        <ele>197.6</ele>
        <time>2021-01-31 13:30:01</time>
      </trkpt>
      <trkpt lat="38.82083" lon="-0.07394">
        <ele>197.6</ele>
        <time>2021-01-31 13:30:02</time>
      </trkpt>
      <trkpt lat="38.82084" lon="-0.07398">
        <ele>197.6</ele>
        <time>2021-01-31 13:30:03</time>
      </trkpt>
      <trkpt lat="38.82085" lon="-0.074">
        <ele>198.6</ele>
        <time>2021-01-31 13:30:04</time>
      </trkpt>
      <trkpt lat="38.82086" lon="-0.07403">
        <ele>198.6</ele>
        <time>2021-01-31 13:30:05</time>
      </trkpt>
      <trkpt lat="38.82087" lon="-0.07407">
        <ele>198.6</ele>
        <time>2021-01-31 13:30:06</time>
      </trkpt>
      <trkpt lat="38.82088" lon="-0.07411">
        <ele>198.8</ele>
        <time>2021-01-31 13:30:07</time>
      </trkpt>
      <trkpt lat="38.82089" lon="-0.07415">
        <ele>199.2</ele>
        <time>2021-01-31 13:30:08</time>
      </trkpt>
      <trkpt lat="38.8209" lon="-0.07419">
        <ele>199.2</ele>
        <time>2021-01-31 13:30:09</time>
      </trkpt>
      <trkpt lat="38.82091" lon="-0.07422">
        <ele>199.2</ele>
        <time>2021-01-31 13:30:10</time>
      </trkpt>
      <trkpt lat="38.82092" lon="-0.07424">
        <ele>200.2</ele>
        <time>2021-01-31 13:30:11</time>
      </trkpt>
      <trkpt lat="38.82094" lon="-0.07427">
        <ele>201.4</ele>
        <time>2021-01-31 13:30:12</time>
      </trkpt>
      <trkpt lat="38.82095" lon="-0.07429">
        <ele>201.4</ele>
        <time>2021-01-31 13:30:13</time>
      </trkpt>
      <trkpt lat="38.82097" lon="-0.07431">
        <ele>201.4</ele>
        <time>2021-01-31 13:30:14</time>
      </trkpt>
      <trkpt lat="38.82099" lon="-0.07433">
        <ele>200.6</ele>
        <time>2021-01-31 13:30:15</time>
      </trkpt>
      <trkpt lat="38.82101" lon="-0.07434">
        <ele>201</ele>
        <time>2021-01-31 13:30:16</time>
      </trkpt>
      <trkpt lat="38.82103" lon="-0.07435">
        <ele>201</ele>
        <time>2021-01-31 13:30:17</time>
      </trkpt>
      <trkpt lat="38.82105" lon="-0.07436">
        <ele>201</ele>
        <time>2021-01-31 13:30:18</time>
      </trkpt>
      <trkpt lat="38.82107" lon="-0.07436">
        <ele>201</ele>
        <time>2021-01-31 13:30:19</time>
      </trkpt>
      <trkpt lat="38.82109" lon="-0.07437">
        <ele>201.4</ele>
        <time>2021-01-31 13:30:20</time>
      </trkpt>
      <trkpt lat="38.82111" lon="-0.07437">
        <ele>201.4</ele>
        <time>2021-01-31 13:30:21</time>
      </trkpt>
      <trkpt lat="38.82113" lon="-0.07439">
        <ele>201.4</ele>
        <time>2021-01-31 13:30:22</time>
      </trkpt>
      <trkpt lat="38.82116" lon="-0.0744">
        <ele>201.4</ele>
        <time>2021-01-31 13:30:23</time>
      </trkpt>
      <trkpt lat="38.82118" lon="-0.07441">
        <ele>201.8</ele>
        <time>2021-01-31 13:30:24</time>
      </trkpt>
      <trkpt lat="38.82121" lon="-0.07442">
        <ele>201.8</ele>
        <time>2021-01-31 13:30:25</time>
      </trkpt>
      <trkpt lat="38.82123" lon="-0.07444">
        <ele>201.8</ele>
        <time>2021-01-31 13:30:26</time>
      </trkpt>
      <trkpt lat="38.82126" lon="-0.07446">
        <ele>202.8</ele>
        <time>2021-01-31 13:30:27</time>
      </trkpt>
      <trkpt lat="38.82128" lon="-0.07447">
        <ele>203.8</ele>
        <time>2021-01-31 13:30:28</time>
      </trkpt>
      <trkpt lat="38.82131" lon="-0.07448">
        <ele>203.8</ele>
        <time>2021-01-31 13:30:29</time>
      </trkpt>
      <trkpt lat="38.82133" lon="-0.07451">
        <ele>203.8</ele>
        <time>2021-01-31 13:30:30</time>
      </trkpt>
      <trkpt lat="38.82136" lon="-0.07452">
        <ele>203.2</ele>
        <time>2021-01-31 13:30:31</time>
      </trkpt>
      <trkpt lat="38.82138" lon="-0.07453">
        <ele>203.8</ele>
        <time>2021-01-31 13:30:32</time>
      </trkpt>
      <trkpt lat="38.82141" lon="-0.07455">
        <ele>203.8</ele>
        <time>2021-01-31 13:30:33</time>
      </trkpt>
      <trkpt lat="38.82143" lon="-0.07456">
        <ele>203.8</ele>
        <time>2021-01-31 13:30:34</time>
      </trkpt>
      <trkpt lat="38.82146" lon="-0.07458">
        <ele>203.8</ele>
        <time>2021-01-31 13:30:35</time>
      </trkpt>
      <trkpt lat="38.82148" lon="-0.07459">
        <ele>204.8</ele>
        <time>2021-01-31 13:30:36</time>
      </trkpt>
      <trkpt lat="38.82151" lon="-0.0746">
        <ele>204.8</ele>
        <time>2021-01-31 13:30:37</time>
      </trkpt>
      <trkpt lat="38.82154" lon="-0.07461">
        <ele>204.8</ele>
        <time>2021-01-31 13:30:38</time>
      </trkpt>
      <trkpt lat="38.82157" lon="-0.07461">
        <ele>205.8</ele>
        <time>2021-01-31 13:30:39</time>
      </trkpt>
      <trkpt lat="38.82159" lon="-0.07461">
        <ele>206.2</ele>
        <time>2021-01-31 13:30:40</time>
      </trkpt>
      <trkpt lat="38.82162" lon="-0.07461">
        <ele>206.2</ele>
        <time>2021-01-31 13:30:41</time>
      </trkpt>
      <trkpt lat="38.82165" lon="-0.07461">
        <ele>206.2</ele>
        <time>2021-01-31 13:30:42</time>
      </trkpt>
      <trkpt lat="38.82167" lon="-0.07461">
        <ele>207.2</ele>
        <time>2021-01-31 13:30:43</time>
      </trkpt>
      <trkpt lat="38.8217" lon="-0.07461">
        <ele>207</ele>
        <time>2021-01-31 13:30:44</time>
      </trkpt>
      <trkpt lat="38.82173" lon="-0.07461">
        <ele>207</ele>
        <time>2021-01-31 13:30:45</time>
      </trkpt>
      <trkpt lat="38.82175" lon="-0.07461">
        <ele>207</ele>
        <time>2021-01-31 13:30:46</time>
      </trkpt>
      <trkpt lat="38.82178" lon="-0.07461">
        <ele>207</ele>
        <time>2021-01-31 13:30:47</time>
      </trkpt>
      <trkpt lat="38.82181" lon="-0.07461">
        <ele>206.4</ele>
        <time>2021-01-31 13:30:48</time>
      </trkpt>
      <trkpt lat="38.82183" lon="-0.07461">
        <ele>206.4</ele>
        <time>2021-01-31 13:30:49</time>
      </trkpt>
      <trkpt lat="38.82186" lon="-0.0746">
        <ele>206.4</ele>
        <time>2021-01-31 13:30:50</time>
      </trkpt>
      <trkpt lat="38.82189" lon="-0.0746">
        <ele>206.4</ele>
        <time>2021-01-31 13:30:51</time>
      </trkpt>
      <trkpt lat="38.82191" lon="-0.0746">
        <ele>208</ele>
        <time>2021-01-31 13:30:52</time>
      </trkpt>
      <trkpt lat="38.82194" lon="-0.0746">
        <ele>208</ele>
        <time>2021-01-31 13:30:53</time>
      </trkpt>
      <trkpt lat="38.82197" lon="-0.0746">
        <ele>208</ele>
        <time>2021-01-31 13:30:54</time>
      </trkpt>
      <trkpt lat="38.82199" lon="-0.0746">
        <ele>207.6</ele>
        <time>2021-01-31 13:30:55</time>
      </trkpt>
      <trkpt lat="38.82202" lon="-0.07459">
        <ele>206.4</ele>
        <time>2021-01-31 13:30:56</time>
      </trkpt>
      <trkpt lat="38.82205" lon="-0.07459">
        <ele>206.4</ele>
        <time>2021-01-31 13:30:57</time>
      </trkpt>
      <trkpt lat="38.82208" lon="-0.07459">
        <ele>206.4</ele>
        <time>2021-01-31 13:30:58</time>
      </trkpt>
      <trkpt lat="38.8221" lon="-0.07459">
        <ele>207.4</ele>
        <time>2021-01-31 13:30:59</time>
      </trkpt>
      <trkpt lat="38.82213" lon="-0.07459">
        <ele>208.6</ele>
        <time>2021-01-31 13:31:00</time>
      </trkpt>
      <trkpt lat="38.82216" lon="-0.07459">
        <ele>208.6</ele>
        <time>2021-01-31 13:31:01</time>
      </trkpt>
      <trkpt lat="38.82218" lon="-0.07459">
        <ele>208.6</ele>
        <time>2021-01-31 13:31:02</time>
      </trkpt>
      <trkpt lat="38.82221" lon="-0.07459">
        <ele>208.6</ele>
        <time>2021-01-31 13:31:03</time>
      </trkpt>
      <trkpt lat="38.82224" lon="-0.0746">
        <ele>207.6</ele>
        <time>2021-01-31 13:31:04</time>
      </trkpt>
      <trkpt lat="38.82226" lon="-0.0746">
        <ele>207.6</ele>
        <time>2021-01-31 13:31:05</time>
      </trkpt>
      <trkpt lat="38.82229" lon="-0.07459">
        <ele>207.6</ele>
        <time>2021-01-31 13:31:06</time>
      </trkpt>
      <trkpt lat="38.82232" lon="-0.0746">
        <ele>208.6</ele>
        <time>2021-01-31 13:31:07</time>
      </trkpt>
      <trkpt lat="38.82234" lon="-0.07461">
        <ele>210.2</ele>
        <time>2021-01-31 13:31:08</time>
      </trkpt>
      <trkpt lat="38.82237" lon="-0.07462">
        <ele>210.2</ele>
        <time>2021-01-31 13:31:09</time>
      </trkpt>
      <trkpt lat="38.8224" lon="-0.07463">
        <ele>210.2</ele>
        <time>2021-01-31 13:31:10</time>
      </trkpt>
      <trkpt lat="38.82242" lon="-0.07463">
        <ele>210.2</ele>
        <time>2021-01-31 13:31:11</time>
      </trkpt>
      <trkpt lat="38.82245" lon="-0.07464">
        <ele>210.4</ele>
        <time>2021-01-31 13:31:12</time>
      </trkpt>
      <trkpt lat="38.82247" lon="-0.07465">
        <ele>210.4</ele>
        <time>2021-01-31 13:31:13</time>
      </trkpt>
      <trkpt lat="38.8225" lon="-0.07465">
        <ele>210.4</ele>
        <time>2021-01-31 13:31:14</time>
      </trkpt>
      <trkpt lat="38.82253" lon="-0.07465">
        <ele>211</ele>
        <time>2021-01-31 13:31:15</time>
      </trkpt>
      <trkpt lat="38.82255" lon="-0.07465">
        <ele>210.4</ele>
        <time>2021-01-31 13:31:16</time>
      </trkpt>
      <trkpt lat="38.82258" lon="-0.07465">
        <ele>210.4</ele>
        <time>2021-01-31 13:31:17</time>
      </trkpt>
      <trkpt lat="38.8226" lon="-0.07465">
        <ele>210.4</ele>
        <time>2021-01-31 13:31:18</time>
      </trkpt>
      <trkpt lat="38.82263" lon="-0.07464">
        <ele>211.4</ele>
        <time>2021-01-31 13:31:19</time>
      </trkpt>
      <trkpt lat="38.82265" lon="-0.07463">
        <ele>212.6</ele>
        <time>2021-01-31 13:31:20</time>
      </trkpt>
      <trkpt lat="38.82268" lon="-0.07462">
        <ele>212.6</ele>
        <time>2021-01-31 13:31:21</time>
      </trkpt>
      <trkpt lat="38.82271" lon="-0.07461">
        <ele>212.6</ele>
        <time>2021-01-31 13:31:22</time>
      </trkpt>
      <trkpt lat="38.82273" lon="-0.0746">
        <ele>213.6</ele>
        <time>2021-01-31 13:31:23</time>
      </trkpt>
      <trkpt lat="38.82276" lon="-0.07458">
        <ele>214</ele>
        <time>2021-01-31 13:31:24</time>
      </trkpt>
      <trkpt lat="38.82278" lon="-0.07457">
        <ele>214</ele>
        <time>2021-01-31 13:31:25</time>
      </trkpt>
      <trkpt lat="38.82281" lon="-0.07456">
        <ele>214</ele>
        <time>2021-01-31 13:31:26</time>
      </trkpt>
      <trkpt lat="38.82283" lon="-0.07456">
        <ele>214</ele>
        <time>2021-01-31 13:31:27</time>
      </trkpt>
      <trkpt lat="38.82286" lon="-0.07454">
        <ele>214.2</ele>
        <time>2021-01-31 13:31:28</time>
      </trkpt>
      <trkpt lat="38.82288" lon="-0.07454">
        <ele>214.2</ele>
        <time>2021-01-31 13:31:29</time>
      </trkpt>
      <trkpt lat="38.82291" lon="-0.07453">
        <ele>214.2</ele>
        <time>2021-01-31 13:31:30</time>
      </trkpt>
      <trkpt lat="38.82293" lon="-0.07452">
        <ele>214.2</ele>
        <time>2021-01-31 13:31:31</time>
      </trkpt>
      <trkpt lat="38.82296" lon="-0.07451">
        <ele>215.2</ele>
        <time>2021-01-31 13:31:32</time>
      </trkpt>
      <trkpt lat="38.82298" lon="-0.0745">
        <ele>215.2</ele>
        <time>2021-01-31 13:31:33</time>
      </trkpt>
      <trkpt lat="38.82301" lon="-0.07449">
        <ele>215.2</ele>
        <time>2021-01-31 13:31:34</time>
      </trkpt>
      <trkpt lat="38.82304" lon="-0.07447">
        <ele>215.2</ele>
        <time>2021-01-31 13:31:35</time>
      </trkpt>
      <trkpt lat="38.82306" lon="-0.07447">
        <ele>215.6</ele>
        <time>2021-01-31 13:31:36</time>
      </trkpt>
      <trkpt lat="38.82309" lon="-0.07445">
        <ele>215.6</ele>
        <time>2021-01-31 13:31:37</time>
      </trkpt>
      <trkpt lat="38.82311" lon="-0.07444">
        <ele>215.6</ele>
        <time>2021-01-31 13:31:38</time>
      </trkpt>
      <trkpt lat="38.82314" lon="-0.07443">
        <ele>215.6</ele>
        <time>2021-01-31 13:31:39</time>
      </trkpt>
      <trkpt lat="38.82317" lon="-0.07442">
        <ele>215.6</ele>
        <time>2021-01-31 13:31:40</time>
      </trkpt>
      <trkpt lat="38.82319" lon="-0.07441">
        <ele>215.6</ele>
        <time>2021-01-31 13:31:41</time>
      </trkpt>
      <trkpt lat="38.82322" lon="-0.0744">
        <ele>215.6</ele>
        <time>2021-01-31 13:31:42</time>
      </trkpt>
      <trkpt lat="38.82324" lon="-0.07439">
        <ele>215.6</ele>
        <time>2021-01-31 13:31:43</time>
      </trkpt>
      <trkpt lat="38.82327" lon="-0.07438">
        <ele>216</ele>
        <time>2021-01-31 13:31:44</time>
      </trkpt>
      <trkpt lat="38.8233" lon="-0.07438">
        <ele>216</ele>
        <time>2021-01-31 13:31:45</time>
      </trkpt>
      <trkpt lat="38.82332" lon="-0.07437">
        <ele>216</ele>
        <time>2021-01-31 13:31:46</time>
      </trkpt>
      <trkpt lat="38.82335" lon="-0.07436">
        <ele>217</ele>
        <time>2021-01-31 13:31:47</time>
      </trkpt>
      <trkpt lat="38.82337" lon="-0.07436">
        <ele>217.6</ele>
        <time>2021-01-31 13:31:48</time>
      </trkpt>
      <trkpt lat="38.8234" lon="-0.07435">
        <ele>217.6</ele>
        <time>2021-01-31 13:31:49</time>
      </trkpt>
      <trkpt lat="38.82343" lon="-0.07435">
        <ele>217.6</ele>
        <time>2021-01-31 13:31:50</time>
      </trkpt>
      <trkpt lat="38.82346" lon="-0.07435">
        <ele>218.6</ele>
        <time>2021-01-31 13:31:51</time>
      </trkpt>
      <trkpt lat="38.82348" lon="-0.07435">
        <ele>218.6</ele>
        <time>2021-01-31 13:31:52</time>
      </trkpt>
      <trkpt lat="38.82351" lon="-0.07435">
        <ele>218.6</ele>
        <time>2021-01-31 13:31:53</time>
      </trkpt>
      <trkpt lat="38.82354" lon="-0.07436">
        <ele>218.6</ele>
        <time>2021-01-31 13:31:54</time>
      </trkpt>
      <trkpt lat="38.82357" lon="-0.07437">
        <ele>219.6</ele>
        <time>2021-01-31 13:31:55</time>
      </trkpt>
      <trkpt lat="38.8236" lon="-0.07438">
        <ele>220</ele>
        <time>2021-01-31 13:31:56</time>
      </trkpt>
      <trkpt lat="38.82363" lon="-0.07439">
        <ele>220</ele>
        <time>2021-01-31 13:31:57</time>
      </trkpt>
      <trkpt lat="38.82366" lon="-0.0744">
        <ele>220</ele>
        <time>2021-01-31 13:31:58</time>
      </trkpt>
      <trkpt lat="38.82369" lon="-0.07442">
        <ele>221</ele>
        <time>2021-01-31 13:31:59</time>
      </trkpt>
      <trkpt lat="38.82371" lon="-0.07444">
        <ele>222</ele>
        <time>2021-01-31 13:32:00</time>
      </trkpt>
      <trkpt lat="38.82374" lon="-0.07445">
        <ele>222</ele>
        <time>2021-01-31 13:32:01</time>
      </trkpt>
      <trkpt lat="38.82376" lon="-0.07448">
        <ele>222</ele>
        <time>2021-01-31 13:32:02</time>
      </trkpt>
      <trkpt lat="38.82378" lon="-0.07451">
        <ele>222</ele>
        <time>2021-01-31 13:32:03</time>
      </trkpt>
      <trkpt lat="38.8238" lon="-0.07454">
        <ele>222.6</ele>
        <time>2021-01-31 13:32:04</time>
      </trkpt>
      <trkpt lat="38.82381" lon="-0.07458">
        <ele>222.6</ele>
        <time>2021-01-31 13:32:05</time>
      </trkpt>
      <trkpt lat="38.82382" lon="-0.07461">
        <ele>222.6</ele>
        <time>2021-01-31 13:32:06</time>
      </trkpt>
      <trkpt lat="38.82383" lon="-0.07465">
        <ele>223.6</ele>
        <time>2021-01-31 13:32:07</time>
      </trkpt>
      <trkpt lat="38.82383" lon="-0.07469">
        <ele>224</ele>
        <time>2021-01-31 13:32:08</time>
      </trkpt>
      <trkpt lat="38.82383" lon="-0.07474">
        <ele>224</ele>
        <time>2021-01-31 13:32:09</time>
      </trkpt>
      <trkpt lat="38.82383" lon="-0.07478">
        <ele>224</ele>
        <time>2021-01-31 13:32:10</time>
      </trkpt>
      <trkpt lat="38.82383" lon="-0.07482">
        <ele>225</ele>
        <time>2021-01-31 13:32:11</time>
      </trkpt>
      <trkpt lat="38.82382" lon="-0.07486">
        <ele>226</ele>
        <time>2021-01-31 13:32:12</time>
      </trkpt>
      <trkpt lat="38.82382" lon="-0.07489">
        <ele>226</ele>
        <time>2021-01-31 13:32:13</time>
      </trkpt>
      <trkpt lat="38.82382" lon="-0.07493">
        <ele>226</ele>
        <time>2021-01-31 13:32:14</time>
      </trkpt>
      <trkpt lat="38.82381" lon="-0.07497">
        <ele>226</ele>
        <time>2021-01-31 13:32:15</time>
      </trkpt>
      <trkpt lat="38.8238" lon="-0.075">
        <ele>226.2</ele>
        <time>2021-01-31 13:32:16</time>
      </trkpt>
      <trkpt lat="38.82379" lon="-0.07504">
        <ele>226.2</ele>
        <time>2021-01-31 13:32:17</time>
      </trkpt>
      <trkpt lat="38.82378" lon="-0.07507">
        <ele>226.2</ele>
        <time>2021-01-31 13:32:18</time>
      </trkpt>
      <trkpt lat="38.82377" lon="-0.07511">
        <ele>225.8</ele>
        <time>2021-01-31 13:32:19</time>
      </trkpt>
      <trkpt lat="38.82376" lon="-0.07513">
        <ele>225.4</ele>
        <time>2021-01-31 13:32:20</time>
      </trkpt>
      <trkpt lat="38.82376" lon="-0.07517">
        <ele>225.4</ele>
        <time>2021-01-31 13:32:21</time>
      </trkpt>
      <trkpt lat="38.82375" lon="-0.07521">
        <ele>225.4</ele>
        <time>2021-01-31 13:32:22</time>
      </trkpt>
      <trkpt lat="38.82374" lon="-0.07524">
        <ele>225.4</ele>
        <time>2021-01-31 13:32:23</time>
      </trkpt>
      <trkpt lat="38.82373" lon="-0.07527">
        <ele>225.8</ele>
        <time>2021-01-31 13:32:24</time>
      </trkpt>
      <trkpt lat="38.82372" lon="-0.07531">
        <ele>225.8</ele>
        <time>2021-01-31 13:32:25</time>
      </trkpt>
      <trkpt lat="38.82371" lon="-0.07534">
        <ele>225.8</ele>
        <time>2021-01-31 13:32:26</time>
      </trkpt>
      <trkpt lat="38.8237" lon="-0.07538">
        <ele>226.8</ele>
        <time>2021-01-31 13:32:27</time>
      </trkpt>
      <trkpt lat="38.8237" lon="-0.07542">
        <ele>228.2</ele>
        <time>2021-01-31 13:32:28</time>
      </trkpt>
      <trkpt lat="38.82369" lon="-0.07546">
        <ele>228.2</ele>
        <time>2021-01-31 13:32:29</time>
      </trkpt>
      <trkpt lat="38.82368" lon="-0.07549">
        <ele>228.2</ele>
        <time>2021-01-31 13:32:30</time>
      </trkpt>
      <trkpt lat="38.82367" lon="-0.07553">
        <ele>227.8</ele>
        <time>2021-01-31 13:32:31</time>
      </trkpt>
      <trkpt lat="38.82367" lon="-0.07557">
        <ele>228.6</ele>
        <time>2021-01-31 13:32:32</time>
      </trkpt>
      <trkpt lat="38.82366" lon="-0.0756">
        <ele>228.6</ele>
        <time>2021-01-31 13:32:33</time>
      </trkpt>
      <trkpt lat="38.82366" lon="-0.07564">
        <ele>228.6</ele>
        <time>2021-01-31 13:32:34</time>
      </trkpt>
      <trkpt lat="38.82365" lon="-0.07568">
        <ele>228.6</ele>
        <time>2021-01-31 13:32:35</time>
      </trkpt>
      <trkpt lat="38.82365" lon="-0.07571">
        <ele>229.6</ele>
        <time>2021-01-31 13:32:36</time>
      </trkpt>
      <trkpt lat="38.82365" lon="-0.07575">
        <ele>229.6</ele>
        <time>2021-01-31 13:32:37</time>
      </trkpt>
      <trkpt lat="38.82364" lon="-0.07579">
        <ele>229.6</ele>
        <time>2021-01-31 13:32:38</time>
      </trkpt>
      <trkpt lat="38.82364" lon="-0.07583">
        <ele>229.6</ele>
        <time>2021-01-31 13:32:39</time>
      </trkpt>
      <trkpt lat="38.82364" lon="-0.07586">
        <ele>229.8</ele>
        <time>2021-01-31 13:32:40</time>
      </trkpt>
      <trkpt lat="38.82364" lon="-0.0759">
        <ele>229.8</ele>
        <time>2021-01-31 13:32:41</time>
      </trkpt>
      <trkpt lat="38.82364" lon="-0.07594">
        <ele>229.8</ele>
        <time>2021-01-31 13:32:42</time>
      </trkpt>
      <trkpt lat="38.82364" lon="-0.07598">
        <ele>229</ele>
        <time>2021-01-31 13:32:43</time>
      </trkpt>
      <trkpt lat="38.82364" lon="-0.07602">
        <ele>229.6</ele>
        <time>2021-01-31 13:32:44</time>
      </trkpt>
      <trkpt lat="38.82363" lon="-0.07605">
        <ele>229.6</ele>
        <time>2021-01-31 13:32:45</time>
      </trkpt>
      <trkpt lat="38.82363" lon="-0.07609">
        <ele>229.6</ele>
        <time>2021-01-31 13:32:46</time>
      </trkpt>
      <trkpt lat="38.82363" lon="-0.07613">
        <ele>230.6</ele>
        <time>2021-01-31 13:32:47</time>
      </trkpt>
      <trkpt lat="38.82363" lon="-0.07617">
        <ele>231.2</ele>
        <time>2021-01-31 13:32:48</time>
      </trkpt>
      <trkpt lat="38.82363" lon="-0.07621">
        <ele>231.2</ele>
        <time>2021-01-31 13:32:49</time>
      </trkpt>
      <trkpt lat="38.82363" lon="-0.07624">
        <ele>231.2</ele>
        <time>2021-01-31 13:32:50</time>
      </trkpt>
      <trkpt lat="38.82363" lon="-0.07628">
        <ele>231.2</ele>
        <time>2021-01-31 13:32:51</time>
      </trkpt>
      <trkpt lat="38.82362" lon="-0.07632">
        <ele>230.4</ele>
        <time>2021-01-31 13:32:52</time>
      </trkpt>
      <trkpt lat="38.82362" lon="-0.07636">
        <ele>230.4</ele>
        <time>2021-01-31 13:32:53</time>
      </trkpt>
      <trkpt lat="38.82362" lon="-0.0764">
        <ele>230.4</ele>
        <time>2021-01-31 13:32:54</time>
      </trkpt>
      <trkpt lat="38.82362" lon="-0.07644">
        <ele>230.4</ele>
        <time>2021-01-31 13:32:55</time>
      </trkpt>
      <trkpt lat="38.82362" lon="-0.07647">
        <ele>230.6</ele>
        <time>2021-01-31 13:32:56</time>
      </trkpt>
      <trkpt lat="38.82362" lon="-0.07651">
        <ele>230.6</ele>
        <time>2021-01-31 13:32:57</time>
      </trkpt>
      <trkpt lat="38.82362" lon="-0.07655">
        <ele>230.6</ele>
        <time>2021-01-31 13:32:58</time>
      </trkpt>
      <trkpt lat="38.82362" lon="-0.07659">
        <ele>231.6</ele>
        <time>2021-01-31 13:32:59</time>
      </trkpt>
      <trkpt lat="38.82362" lon="-0.07663">
        <ele>233.4</ele>
        <time>2021-01-31 13:33:00</time>
      </trkpt>
      <trkpt lat="38.82362" lon="-0.07667">
        <ele>233.4</ele>
        <time>2021-01-31 13:33:01</time>
      </trkpt>
      <trkpt lat="38.82362" lon="-0.07671">
        <ele>233.4</ele>
        <time>2021-01-31 13:33:02</time>
      </trkpt>
      <trkpt lat="38.82363" lon="-0.07674">
        <ele>233.4</ele>
        <time>2021-01-31 13:33:03</time>
      </trkpt>
      <trkpt lat="38.82363" lon="-0.07678">
        <ele>233.4</ele>
        <time>2021-01-31 13:33:04</time>
      </trkpt>
      <trkpt lat="38.82364" lon="-0.07682">
        <ele>233.4</ele>
        <time>2021-01-31 13:33:05</time>
      </trkpt>
      <trkpt lat="38.82365" lon="-0.07685">
        <ele>233.4</ele>
        <time>2021-01-31 13:33:06</time>
      </trkpt>
      <trkpt lat="38.82366" lon="-0.07689">
        <ele>232.4</ele>
        <time>2021-01-31 13:33:07</time>
      </trkpt>
      <trkpt lat="38.82367" lon="-0.07692">
        <ele>231.6</ele>
        <time>2021-01-31 13:33:08</time>
      </trkpt>
      <trkpt lat="38.82368" lon="-0.07695">
        <ele>231.6</ele>
        <time>2021-01-31 13:33:09</time>
      </trkpt>
      <trkpt lat="38.8237" lon="-0.07698">
        <ele>231.6</ele>
        <time>2021-01-31 13:33:10</time>
      </trkpt>
      <trkpt lat="38.82371" lon="-0.07701">
        <ele>232.6</ele>
        <time>2021-01-31 13:33:11</time>
      </trkpt>
      <trkpt lat="38.82372" lon="-0.07704">
        <ele>235</ele>
        <time>2021-01-31 13:33:12</time>
      </trkpt>
      <trkpt lat="38.82374" lon="-0.07708">
        <ele>235</ele>
        <time>2021-01-31 13:33:13</time>
      </trkpt>
      <trkpt lat="38.82375" lon="-0.07711">
        <ele>235</ele>
        <time>2021-01-31 13:33:14</time>
      </trkpt>
      <trkpt lat="38.82377" lon="-0.07714">
        <ele>235</ele>
        <time>2021-01-31 13:33:15</time>
      </trkpt>
      <trkpt lat="38.82378" lon="-0.07717">
        <ele>233.6</ele>
        <time>2021-01-31 13:33:16</time>
      </trkpt>
      <trkpt lat="38.8238" lon="-0.0772">
        <ele>233.6</ele>
        <time>2021-01-31 13:33:17</time>
      </trkpt>
      <trkpt lat="38.82381" lon="-0.07723">
        <ele>233.6</ele>
        <time>2021-01-31 13:33:18</time>
      </trkpt>
      <trkpt lat="38.82383" lon="-0.07725">
        <ele>234.6</ele>
        <time>2021-01-31 13:33:19</time>
      </trkpt>
      <trkpt lat="38.82384" lon="-0.07728">
        <ele>237</ele>
        <time>2021-01-31 13:33:20</time>
      </trkpt>
      <trkpt lat="38.82386" lon="-0.07731">
        <ele>237</ele>
        <time>2021-01-31 13:33:21</time>
      </trkpt>
      <trkpt lat="38.82387" lon="-0.07733">
        <ele>237</ele>
        <time>2021-01-31 13:33:22</time>
      </trkpt>
      <trkpt lat="38.82388" lon="-0.07736">
        <ele>236</ele>
        <time>2021-01-31 13:33:23</time>
      </trkpt>
      <trkpt lat="38.82389" lon="-0.07739">
        <ele>234.6</ele>
        <time>2021-01-31 13:33:24</time>
      </trkpt>
      <trkpt lat="38.8239" lon="-0.07741">
        <ele>234.6</ele>
        <time>2021-01-31 13:33:25</time>
      </trkpt>
      <trkpt lat="38.82393" lon="-0.07743">
        <ele>234.6</ele>
        <time>2021-01-31 13:33:26</time>
      </trkpt>
      <trkpt lat="38.82394" lon="-0.07746">
        <ele>234.6</ele>
        <time>2021-01-31 13:33:27</time>
      </trkpt>
      <trkpt lat="38.82396" lon="-0.07748">
        <ele>235.4</ele>
        <time>2021-01-31 13:33:28</time>
      </trkpt>
      <trkpt lat="38.82397" lon="-0.07751">
        <ele>235.4</ele>
        <time>2021-01-31 13:33:29</time>
      </trkpt>
      <trkpt lat="38.82399" lon="-0.07753">
        <ele>235.4</ele>
        <time>2021-01-31 13:33:30</time>
      </trkpt>
      <trkpt lat="38.82401" lon="-0.07756">
        <ele>235.4</ele>
        <time>2021-01-31 13:33:31</time>
      </trkpt>
      <trkpt lat="38.82402" lon="-0.07759">
        <ele>233</ele>
        <time>2021-01-31 13:33:32</time>
      </trkpt>
      <trkpt lat="38.82403" lon="-0.07761">
        <ele>233</ele>
        <time>2021-01-31 13:33:33</time>
      </trkpt>
      <trkpt lat="38.82404" lon="-0.07764">
        <ele>233</ele>
        <time>2021-01-31 13:33:34</time>
      </trkpt>
      <trkpt lat="38.82406" lon="-0.07767">
        <ele>234</ele>
        <time>2021-01-31 13:33:35</time>
      </trkpt>
      <trkpt lat="38.82407" lon="-0.07771">
        <ele>236</ele>
        <time>2021-01-31 13:33:36</time>
      </trkpt>
      <trkpt lat="38.82408" lon="-0.07775">
        <ele>236</ele>
        <time>2021-01-31 13:33:37</time>
      </trkpt>
      <trkpt lat="38.8241" lon="-0.0778">
        <ele>236</ele>
        <time>2021-01-31 13:33:38</time>
      </trkpt>
      <trkpt lat="38.82412" lon="-0.07785">
        <ele>235</ele>
        <time>2021-01-31 13:33:39</time>
      </trkpt>
      <trkpt lat="38.82413" lon="-0.0779">
        <ele>232</ele>
        <time>2021-01-31 13:33:40</time>
      </trkpt>
      <trkpt lat="38.82414" lon="-0.07795">
        <ele>232</ele>
        <time>2021-01-31 13:33:41</time>
      </trkpt>
      <trkpt lat="38.82415" lon="-0.07801">
        <ele>232</ele>
        <time>2021-01-31 13:33:42</time>
      </trkpt>
      <trkpt lat="38.82415" lon="-0.07807">
        <ele>232</ele>
        <time>2021-01-31 13:33:43</time>
      </trkpt>
      <trkpt lat="38.82415" lon="-0.07813">
        <ele>231.6</ele>
        <time>2021-01-31 13:33:44</time>
      </trkpt>
      <trkpt lat="38.82414" lon="-0.07819">
        <ele>231.6</ele>
        <time>2021-01-31 13:33:45</time>
      </trkpt>
      <trkpt lat="38.82413" lon="-0.07825">
        <ele>231.6</ele>
        <time>2021-01-31 13:33:46</time>
      </trkpt>
      <trkpt lat="38.82411" lon="-0.07832">
        <ele>230.6</ele>
        <time>2021-01-31 13:33:47</time>
      </trkpt>
      <trkpt lat="38.82409" lon="-0.07839">
        <ele>229.2</ele>
        <time>2021-01-31 13:33:48</time>
      </trkpt>
      <trkpt lat="38.82406" lon="-0.07845">
        <ele>229.2</ele>
        <time>2021-01-31 13:33:49</time>
      </trkpt>
      <trkpt lat="38.82403" lon="-0.07852">
        <ele>229.2</ele>
        <time>2021-01-31 13:33:50</time>
      </trkpt>
      <trkpt lat="38.824" lon="-0.07857">
        <ele>228.4</ele>
        <time>2021-01-31 13:33:51</time>
      </trkpt>
      <trkpt lat="38.82397" lon="-0.07864">
        <ele>228.4</ele>
        <time>2021-01-31 13:33:52</time>
      </trkpt>
      <trkpt lat="38.82394" lon="-0.07871">
        <ele>228.4</ele>
        <time>2021-01-31 13:33:53</time>
      </trkpt>
      <trkpt lat="38.82391" lon="-0.07878">
        <ele>228.4</ele>
        <time>2021-01-31 13:33:54</time>
      </trkpt>
      <trkpt lat="38.82387" lon="-0.07886">
        <ele>228.4</ele>
        <time>2021-01-31 13:33:55</time>
      </trkpt>
      <trkpt lat="38.82384" lon="-0.07894">
        <ele>227.6</ele>
        <time>2021-01-31 13:33:56</time>
      </trkpt>
      <trkpt lat="38.82382" lon="-0.07904">
        <ele>227.6</ele>
        <time>2021-01-31 13:33:57</time>
      </trkpt>
      <trkpt lat="38.82381" lon="-0.07914">
        <ele>227.6</ele>
        <time>2021-01-31 13:33:58</time>
      </trkpt>
      <trkpt lat="38.82382" lon="-0.07925">
        <ele>226.6</ele>
        <time>2021-01-31 13:33:59</time>
      </trkpt>
      <trkpt lat="38.82385" lon="-0.07934">
        <ele>223.8</ele>
        <time>2021-01-31 13:34:00</time>
      </trkpt>
      <trkpt lat="38.82389" lon="-0.07944">
        <ele>223.8</ele>
        <time>2021-01-31 13:34:01</time>
      </trkpt>
      <trkpt lat="38.82392" lon="-0.07953">
        <ele>223.8</ele>
        <time>2021-01-31 13:34:02</time>
      </trkpt>
      <trkpt lat="38.82396" lon="-0.07962">
        <ele>223.8</ele>
        <time>2021-01-31 13:34:03</time>
      </trkpt>
      <trkpt lat="38.82399" lon="-0.07973">
        <ele>220.2</ele>
        <time>2021-01-31 13:34:04</time>
      </trkpt>
      <trkpt lat="38.82402" lon="-0.07983">
        <ele>220.2</ele>
        <time>2021-01-31 13:34:05</time>
      </trkpt>
      <trkpt lat="38.82404" lon="-0.07994">
        <ele>220.2</ele>
        <time>2021-01-31 13:34:06</time>
      </trkpt>
      <trkpt lat="38.82406" lon="-0.08006">
        <ele>220.2</ele>
        <time>2021-01-31 13:34:07</time>
      </trkpt>
      <trkpt lat="38.82406" lon="-0.08019">
        <ele>220.4</ele>
        <time>2021-01-31 13:34:08</time>
      </trkpt>
      <trkpt lat="38.82407" lon="-0.08031">
        <ele>220.4</ele>
        <time>2021-01-31 13:34:09</time>
      </trkpt>
      <trkpt lat="38.82408" lon="-0.08044">
        <ele>220.4</ele>
        <time>2021-01-31 13:34:10</time>
      </trkpt>
      <trkpt lat="38.82408" lon="-0.08044">
        <ele>219.4</ele>
        <time>2021-01-31 13:34:11</time>
      </trkpt>
      <trkpt lat="38.82409" lon="-0.0807">
        <ele>214.4</ele>
        <time>2021-01-31 13:34:12</time>
      </trkpt>
      <trkpt lat="38.8241" lon="-0.08083">
        <ele>214.4</ele>
        <time>2021-01-31 13:34:13</time>
      </trkpt>
      <trkpt lat="38.82411" lon="-0.08097">
        <ele>214.4</ele>
        <time>2021-01-31 13:34:14</time>
      </trkpt>
      <trkpt lat="38.82411" lon="-0.0811">
        <ele>214.4</ele>
        <time>2021-01-31 13:34:15</time>
      </trkpt>
      <trkpt lat="38.82411" lon="-0.0811">
        <ele>213.8</ele>
        <time>2021-01-31 13:34:16</time>
      </trkpt>
      <trkpt lat="38.82411" lon="-0.08139">
        <ele>213.8</ele>
        <time>2021-01-31 13:34:17</time>
      </trkpt>
      <trkpt lat="38.8241" lon="-0.08153">
        <ele>213.8</ele>
        <time>2021-01-31 13:34:18</time>
      </trkpt>
      <trkpt lat="38.8241" lon="-0.08153">
        <ele>212.8</ele>
        <time>2021-01-31 13:34:19</time>
      </trkpt>
      <trkpt lat="38.82407" lon="-0.08181">
        <ele>212.8</ele>
        <time>2021-01-31 13:34:20</time>
      </trkpt>
      <trkpt lat="38.82407" lon="-0.08181">
        <ele>212.8</ele>
        <time>2021-01-31 13:34:21</time>
      </trkpt>
      <trkpt lat="38.82407" lon="-0.08181">
        <ele>212.8</ele>
        <time>2021-01-31 13:34:22</time>
      </trkpt>
      <trkpt lat="38.82398" lon="-0.08223">
        <ele>212.8</ele>
        <time>2021-01-31 13:34:23</time>
      </trkpt>
      <trkpt lat="38.82395" lon="-0.08236">
        <ele>212.4</ele>
        <time>2021-01-31 13:34:24</time>
      </trkpt>
      <trkpt lat="38.82395" lon="-0.0825">
        <ele>212.4</ele>
        <time>2021-01-31 13:34:25</time>
      </trkpt>
      <trkpt lat="38.82398" lon="-0.08265">
        <ele>212.4</ele>
        <time>2021-01-31 13:34:26</time>
      </trkpt>
      <trkpt lat="38.82403" lon="-0.08277">
        <ele>211.4</ele>
        <time>2021-01-31 13:34:27</time>
      </trkpt>
      <trkpt lat="38.82403" lon="-0.08277">
        <ele>207.4</ele>
        <time>2021-01-31 13:34:28</time>
      </trkpt>
      <trkpt lat="38.82417" lon="-0.08301">
        <ele>207.4</ele>
        <time>2021-01-31 13:34:29</time>
      </trkpt>
      <trkpt lat="38.82425" lon="-0.08312">
        <ele>207.4</ele>
        <time>2021-01-31 13:34:30</time>
      </trkpt>
      <trkpt lat="38.82434" lon="-0.08321">
        <ele>207.4</ele>
        <time>2021-01-31 13:34:31</time>
      </trkpt>
      <trkpt lat="38.82445" lon="-0.08328">
        <ele>205.2</ele>
        <time>2021-01-31 13:34:32</time>
      </trkpt>
      <trkpt lat="38.82457" lon="-0.08331">
        <ele>205.2</ele>
        <time>2021-01-31 13:34:33</time>
      </trkpt>
      <trkpt lat="38.82457" lon="-0.08331">
        <ele>205.2</ele>
        <time>2021-01-31 13:34:34</time>
      </trkpt>
      <trkpt lat="38.82481" lon="-0.08327">
        <ele>204.8</ele>
        <time>2021-01-31 13:34:35</time>
      </trkpt>
      <trkpt lat="38.82492" lon="-0.08322">
        <ele>204.6</ele>
        <time>2021-01-31 13:34:36</time>
      </trkpt>
      <trkpt lat="38.82503" lon="-0.08316">
        <ele>204.6</ele>
        <time>2021-01-31 13:34:37</time>
      </trkpt>
      <trkpt lat="38.82514" lon="-0.08311">
        <ele>204.6</ele>
        <time>2021-01-31 13:34:38</time>
      </trkpt>
      <trkpt lat="38.82525" lon="-0.08309">
        <ele>203.6</ele>
        <time>2021-01-31 13:34:39</time>
      </trkpt>
      <trkpt lat="38.82536" lon="-0.08308">
        <ele>203.2</ele>
        <time>2021-01-31 13:34:40</time>
      </trkpt>
      <trkpt lat="38.82545" lon="-0.08311">
        <ele>203.2</ele>
        <time>2021-01-31 13:34:41</time>
      </trkpt>
      <trkpt lat="38.82553" lon="-0.08319">
        <ele>203.2</ele>
        <time>2021-01-31 13:34:42</time>
      </trkpt>
      <trkpt lat="38.82557" lon="-0.08329">
        <ele>202.2</ele>
        <time>2021-01-31 13:34:43</time>
      </trkpt>
      <trkpt lat="38.82559" lon="-0.0834">
        <ele>199.2</ele>
        <time>2021-01-31 13:34:44</time>
      </trkpt>
      <trkpt lat="38.8256" lon="-0.08352">
        <ele>199.2</ele>
        <time>2021-01-31 13:34:45</time>
      </trkpt>
      <trkpt lat="38.82559" lon="-0.08363">
        <ele>199.2</ele>
        <time>2021-01-31 13:34:46</time>
      </trkpt>
      <trkpt lat="38.82558" lon="-0.08375">
        <ele>199.2</ele>
        <time>2021-01-31 13:34:47</time>
      </trkpt>
      <trkpt lat="38.82557" lon="-0.08388">
        <ele>199.4</ele>
        <time>2021-01-31 13:34:48</time>
      </trkpt>
      <trkpt lat="38.82557" lon="-0.08401">
        <ele>199.4</ele>
        <time>2021-01-31 13:34:49</time>
      </trkpt>
      <trkpt lat="38.82557" lon="-0.08414">
        <ele>199.4</ele>
        <time>2021-01-31 13:34:50</time>
      </trkpt>
      <trkpt lat="38.82556" lon="-0.08426">
        <ele>198.4</ele>
        <time>2021-01-31 13:34:51</time>
      </trkpt>
      <trkpt lat="38.82556" lon="-0.08438">
        <ele>197.8</ele>
        <time>2021-01-31 13:34:52</time>
      </trkpt>
      <trkpt lat="38.82555" lon="-0.0845">
        <ele>197.8</ele>
        <time>2021-01-31 13:34:53</time>
      </trkpt>
      <trkpt lat="38.82555" lon="-0.08461">
        <ele>197.8</ele>
        <time>2021-01-31 13:34:54</time>
      </trkpt>
      <trkpt lat="38.82554" lon="-0.08473">
        <ele>196.8</ele>
        <time>2021-01-31 13:34:55</time>
      </trkpt>
      <trkpt lat="38.82553" lon="-0.08485">
        <ele>195.8</ele>
        <time>2021-01-31 13:34:56</time>
      </trkpt>
      <trkpt lat="38.82553" lon="-0.08498">
        <ele>195.8</ele>
        <time>2021-01-31 13:34:57</time>
      </trkpt>
      <trkpt lat="38.82554" lon="-0.08509">
        <ele>195.8</ele>
        <time>2021-01-31 13:34:58</time>
      </trkpt>
      <trkpt lat="38.82555" lon="-0.0852">
        <ele>195.8</ele>
        <time>2021-01-31 13:34:59</time>
      </trkpt>
      <trkpt lat="38.82559" lon="-0.0853">
        <ele>194.4</ele>
        <time>2021-01-31 13:35:00</time>
      </trkpt>
      <trkpt lat="38.82563" lon="-0.08538">
        <ele>194.4</ele>
        <time>2021-01-31 13:35:01</time>
      </trkpt>
      <trkpt lat="38.82566" lon="-0.08549">
        <ele>194.4</ele>
        <time>2021-01-31 13:35:02</time>
      </trkpt>
      <trkpt lat="38.82567" lon="-0.08561">
        <ele>194.4</ele>
        <time>2021-01-31 13:35:03</time>
      </trkpt>
      <trkpt lat="38.82569" lon="-0.08572">
        <ele>194.8</ele>
        <time>2021-01-31 13:35:04</time>
      </trkpt>
      <trkpt lat="38.82571" lon="-0.08583">
        <ele>194.8</ele>
        <time>2021-01-31 13:35:05</time>
      </trkpt>
      <trkpt lat="38.82574" lon="-0.08594">
        <ele>194.8</ele>
        <time>2021-01-31 13:35:06</time>
      </trkpt>
      <trkpt lat="38.82577" lon="-0.08605">
        <ele>193.8</ele>
        <time>2021-01-31 13:35:07</time>
      </trkpt>
      <trkpt lat="38.82582" lon="-0.08615">
        <ele>191.4</ele>
        <time>2021-01-31 13:35:08</time>
      </trkpt>
      <trkpt lat="38.82586" lon="-0.08625">
        <ele>191.4</ele>
        <time>2021-01-31 13:35:09</time>
      </trkpt>
      <trkpt lat="38.8259" lon="-0.08635">
        <ele>191.4</ele>
        <time>2021-01-31 13:35:10</time>
      </trkpt>
      <trkpt lat="38.82595" lon="-0.08645">
        <ele>191.4</ele>
        <time>2021-01-31 13:35:11</time>
      </trkpt>
      <trkpt lat="38.82599" lon="-0.08655">
        <ele>191.8</ele>
        <time>2021-01-31 13:35:12</time>
      </trkpt>
      <trkpt lat="38.82603" lon="-0.08665">
        <ele>191.8</ele>
        <time>2021-01-31 13:35:13</time>
      </trkpt>
      <trkpt lat="38.82606" lon="-0.08676">
        <ele>191.8</ele>
        <time>2021-01-31 13:35:14</time>
      </trkpt>
      <trkpt lat="38.82609" lon="-0.08689">
        <ele>192</ele>
        <time>2021-01-31 13:35:15</time>
      </trkpt>
      <trkpt lat="38.82612" lon="-0.08702">
        <ele>191.6</ele>
        <time>2021-01-31 13:35:16</time>
      </trkpt>
      <trkpt lat="38.82613" lon="-0.08716">
        <ele>191.6</ele>
        <time>2021-01-31 13:35:17</time>
      </trkpt>
      <trkpt lat="38.82614" lon="-0.08729">
        <ele>191.6</ele>
        <time>2021-01-31 13:35:18</time>
      </trkpt>
      <trkpt lat="38.82615" lon="-0.08742">
        <ele>190.6</ele>
        <time>2021-01-31 13:35:19</time>
      </trkpt>
      <trkpt lat="38.82617" lon="-0.08754">
        <ele>189.8</ele>
        <time>2021-01-31 13:35:20</time>
      </trkpt>
      <trkpt lat="38.82618" lon="-0.08766">
        <ele>189.8</ele>
        <time>2021-01-31 13:35:21</time>
      </trkpt>
      <trkpt lat="38.82618" lon="-0.08777">
        <ele>189.8</ele>
        <time>2021-01-31 13:35:22</time>
      </trkpt>
      <trkpt lat="38.82617" lon="-0.08789">
        <ele>188.8</ele>
        <time>2021-01-31 13:35:23</time>
      </trkpt>
      <trkpt lat="38.82614" lon="-0.08799">
        <ele>188.8</ele>
        <time>2021-01-31 13:35:24</time>
      </trkpt>
      <trkpt lat="38.82614" lon="-0.08799">
        <ele>189</ele>
        <time>2021-01-31 13:35:25</time>
      </trkpt>
      <trkpt lat="38.82601" lon="-0.08817">
        <ele>189</ele>
        <time>2021-01-31 13:35:26</time>
      </trkpt>
      <trkpt lat="38.82595" lon="-0.08823">
        <ele>188</ele>
        <time>2021-01-31 13:35:27</time>
      </trkpt>
      <trkpt lat="38.82589" lon="-0.08832">
        <ele>187</ele>
        <time>2021-01-31 13:35:28</time>
      </trkpt>
      <trkpt lat="38.82584" lon="-0.08842">
        <ele>187</ele>
        <time>2021-01-31 13:35:29</time>
      </trkpt>
      <trkpt lat="38.82582" lon="-0.08853">
        <ele>187</ele>
        <time>2021-01-31 13:35:30</time>
      </trkpt>
      <trkpt lat="38.82581" lon="-0.08864">
        <ele>187</ele>
        <time>2021-01-31 13:35:31</time>
      </trkpt>
      <trkpt lat="38.8258" lon="-0.08876">
        <ele>186.8</ele>
        <time>2021-01-31 13:35:32</time>
      </trkpt>
      <trkpt lat="38.82579" lon="-0.08887">
        <ele>186.8</ele>
        <time>2021-01-31 13:35:33</time>
      </trkpt>
      <trkpt lat="38.82578" lon="-0.08899">
        <ele>186.8</ele>
        <time>2021-01-31 13:35:34</time>
      </trkpt>
      <trkpt lat="38.82578" lon="-0.0891">
        <ele>185.8</ele>
        <time>2021-01-31 13:35:35</time>
      </trkpt>
      <trkpt lat="38.82578" lon="-0.08921">
        <ele>183.8</ele>
        <time>2021-01-31 13:35:36</time>
      </trkpt>
      <trkpt lat="38.82576" lon="-0.08934">
        <ele>183.8</ele>
        <time>2021-01-31 13:35:37</time>
      </trkpt>
      <trkpt lat="38.82573" lon="-0.08946">
        <ele>183.8</ele>
        <time>2021-01-31 13:35:38</time>
      </trkpt>
      <trkpt lat="38.8257" lon="-0.08959">
        <ele>182.8</ele>
        <time>2021-01-31 13:35:39</time>
      </trkpt>
      <trkpt lat="38.82566" lon="-0.0897">
        <ele>181.2</ele>
        <time>2021-01-31 13:35:40</time>
      </trkpt>
      <trkpt lat="38.82562" lon="-0.08981">
        <ele>181.2</ele>
        <time>2021-01-31 13:35:41</time>
      </trkpt>
      <trkpt lat="38.82557" lon="-0.08992">
        <ele>181.2</ele>
        <time>2021-01-31 13:35:42</time>
      </trkpt>
      <trkpt lat="38.82553" lon="-0.09004">
        <ele>180.2</ele>
        <time>2021-01-31 13:35:43</time>
      </trkpt>
      <trkpt lat="38.82548" lon="-0.09014">
        <ele>179.6</ele>
        <time>2021-01-31 13:35:44</time>
      </trkpt>
      <trkpt lat="38.82543" lon="-0.09022">
        <ele>179.6</ele>
        <time>2021-01-31 13:35:45</time>
      </trkpt>
      <trkpt lat="38.82537" lon="-0.09032">
        <ele>179.6</ele>
        <time>2021-01-31 13:35:46</time>
      </trkpt>
      <trkpt lat="38.82532" lon="-0.09043">
        <ele>178.6</ele>
        <time>2021-01-31 13:35:47</time>
      </trkpt>
      <trkpt lat="38.82527" lon="-0.09055">
        <ele>176.8</ele>
        <time>2021-01-31 13:35:48</time>
      </trkpt>
      <trkpt lat="38.82523" lon="-0.09065">
        <ele>176.8</ele>
        <time>2021-01-31 13:35:49</time>
      </trkpt>
      <trkpt lat="38.8252" lon="-0.09079">
        <ele>176.8</ele>
        <time>2021-01-31 13:35:50</time>
      </trkpt>
      <trkpt lat="38.82515" lon="-0.09091">
        <ele>175.8</ele>
        <time>2021-01-31 13:35:51</time>
      </trkpt>
      <trkpt lat="38.8251" lon="-0.09102">
        <ele>170.6</ele>
        <time>2021-01-31 13:35:52</time>
      </trkpt>
      <trkpt lat="38.82504" lon="-0.09112">
        <ele>170.6</ele>
        <time>2021-01-31 13:35:53</time>
      </trkpt>
      <trkpt lat="38.82497" lon="-0.09121">
        <ele>170.6</ele>
        <time>2021-01-31 13:35:54</time>
      </trkpt>
      <trkpt lat="38.82489" lon="-0.09129">
        <ele>170.6</ele>
        <time>2021-01-31 13:35:55</time>
      </trkpt>
      <trkpt lat="38.8248" lon="-0.09136">
        <ele>171.6</ele>
        <time>2021-01-31 13:35:56</time>
      </trkpt>
      <trkpt lat="38.82471" lon="-0.09142">
        <ele>171.6</ele>
        <time>2021-01-31 13:35:57</time>
      </trkpt>
      <trkpt lat="38.82462" lon="-0.09148">
        <ele>171.6</ele>
        <time>2021-01-31 13:35:58</time>
      </trkpt>
      <trkpt lat="38.82452" lon="-0.09154">
        <ele>170.6</ele>
        <time>2021-01-31 13:35:59</time>
      </trkpt>
      <trkpt lat="38.82443" lon="-0.0916">
        <ele>167.6</ele>
        <time>2021-01-31 13:36:00</time>
      </trkpt>
      <trkpt lat="38.82434" lon="-0.09166">
        <ele>167.6</ele>
        <time>2021-01-31 13:36:01</time>
      </trkpt>
      <trkpt lat="38.82425" lon="-0.09174">
        <ele>167.6</ele>
        <time>2021-01-31 13:36:02</time>
      </trkpt>
      <trkpt lat="38.82418" lon="-0.09184">
        <ele>166.6</ele>
        <time>2021-01-31 13:36:03</time>
      </trkpt>
      <trkpt lat="38.82412" lon="-0.09195">
        <ele>165.8</ele>
        <time>2021-01-31 13:36:04</time>
      </trkpt>
      <trkpt lat="38.82406" lon="-0.09207">
        <ele>165.8</ele>
        <time>2021-01-31 13:36:05</time>
      </trkpt>
      <trkpt lat="38.82402" lon="-0.09219">
        <ele>165.8</ele>
        <time>2021-01-31 13:36:06</time>
      </trkpt>
      <trkpt lat="38.82397" lon="-0.09231">
        <ele>164.8</ele>
        <time>2021-01-31 13:36:07</time>
      </trkpt>
      <trkpt lat="38.82392" lon="-0.09244">
        <ele>163</ele>
        <time>2021-01-31 13:36:08</time>
      </trkpt>
      <trkpt lat="38.82388" lon="-0.09256">
        <ele>163</ele>
        <time>2021-01-31 13:36:09</time>
      </trkpt>
      <trkpt lat="38.82383" lon="-0.09268">
        <ele>163</ele>
        <time>2021-01-31 13:36:10</time>
      </trkpt>
      <trkpt lat="38.82378" lon="-0.0928">
        <ele>163</ele>
        <time>2021-01-31 13:36:11</time>
      </trkpt>
      <trkpt lat="38.82373" lon="-0.09292">
        <ele>164.4</ele>
        <time>2021-01-31 13:36:12</time>
      </trkpt>
      <trkpt lat="38.82368" lon="-0.09305">
        <ele>164.4</ele>
        <time>2021-01-31 13:36:13</time>
      </trkpt>
      <trkpt lat="38.82364" lon="-0.09317">
        <ele>164.4</ele>
        <time>2021-01-31 13:36:14</time>
      </trkpt>
      <trkpt lat="38.82358" lon="-0.0933">
        <ele>164.4</ele>
        <time>2021-01-31 13:36:15</time>
      </trkpt>
      <trkpt lat="38.82352" lon="-0.09342">
        <ele>164.4</ele>
        <time>2021-01-31 13:36:16</time>
      </trkpt>
      <trkpt lat="38.82352" lon="-0.09342">
        <ele>159.2</ele>
        <time>2021-01-31 13:36:17</time>
      </trkpt>
      <trkpt lat="38.82339" lon="-0.09367">
        <ele>159.2</ele>
        <time>2021-01-31 13:36:18</time>
      </trkpt>
      <trkpt lat="38.82332" lon="-0.09378">
        <ele>158.2</ele>
        <time>2021-01-31 13:36:19</time>
      </trkpt>
      <trkpt lat="38.82325" lon="-0.09389">
        <ele>155.6</ele>
        <time>2021-01-31 13:36:20</time>
      </trkpt>
      <trkpt lat="38.82317" lon="-0.09399">
        <ele>155.6</ele>
        <time>2021-01-31 13:36:21</time>
      </trkpt>
      <trkpt lat="38.8231" lon="-0.09408">
        <ele>155.6</ele>
        <time>2021-01-31 13:36:22</time>
      </trkpt>
      <trkpt lat="38.82303" lon="-0.09417">
        <ele>156.6</ele>
        <time>2021-01-31 13:36:23</time>
      </trkpt>
      <trkpt lat="38.82296" lon="-0.09426">
        <ele>158.4</ele>
        <time>2021-01-31 13:36:24</time>
      </trkpt>
      <trkpt lat="38.82289" lon="-0.09436">
        <ele>158.4</ele>
        <time>2021-01-31 13:36:25</time>
      </trkpt>
      <trkpt lat="38.82282" lon="-0.09444">
        <ele>158.4</ele>
        <time>2021-01-31 13:36:26</time>
      </trkpt>
      <trkpt lat="38.82276" lon="-0.09453">
        <ele>159.4</ele>
        <time>2021-01-31 13:36:27</time>
      </trkpt>
      <trkpt lat="38.8227" lon="-0.0946">
        <ele>160.6</ele>
        <time>2021-01-31 13:36:28</time>
      </trkpt>
      <trkpt lat="38.82265" lon="-0.09467">
        <ele>160.6</ele>
        <time>2021-01-31 13:36:29</time>
      </trkpt>
      <trkpt lat="38.8226" lon="-0.09473">
        <ele>160.6</ele>
        <time>2021-01-31 13:36:30</time>
      </trkpt>
      <trkpt lat="38.82257" lon="-0.09477">
        <ele>160.6</ele>
        <time>2021-01-31 13:36:31</time>
      </trkpt>
      <trkpt lat="38.82257" lon="-0.09477">
        <ele>160.4</ele>
        <time>2021-01-31 13:36:32</time>
      </trkpt>
      <trkpt lat="38.82253" lon="-0.0948">
        <ele>160.4</ele>
        <time>2021-01-31 13:36:33</time>
      </trkpt>
      <trkpt lat="38.82251" lon="-0.09481">
        <ele>160.4</ele>
        <time>2021-01-31 13:36:34</time>
      </trkpt>
      <trkpt lat="38.82251" lon="-0.09481">
        <ele>160.4</ele>
        <time>2021-01-31 13:36:35</time>
      </trkpt>
      <trkpt lat="38.8225" lon="-0.09481">
        <ele>161.2</ele>
        <time>2021-01-31 13:36:36</time>
      </trkpt>
      <trkpt lat="38.8225" lon="-0.09481">
        <ele>161.2</ele>
        <time>2021-01-31 13:36:37</time>
      </trkpt>
      <trkpt lat="38.82248" lon="-0.09481">
        <ele>161.2</ele>
        <time>2021-01-31 13:36:38</time>
      </trkpt>
      <trkpt lat="38.82248" lon="-0.09481">
        <ele>160.6</ele>
        <time>2021-01-31 13:36:39</time>
      </trkpt>
      <trkpt lat="38.82248" lon="-0.09481">
        <ele>160.8</ele>
        <time>2021-01-31 13:36:40</time>
      </trkpt>
      <trkpt lat="38.8225" lon="-0.09482">
        <ele>160</ele>
        <time>2021-01-31 13:36:41</time>
      </trkpt>
      <trkpt lat="38.8225" lon="-0.09482">
        <ele>160</ele>
        <time>2021-01-31 13:36:42</time>
      </trkpt>
      <trkpt lat="38.8225" lon="-0.09482">
        <ele>160</ele>
        <time>2021-01-31 13:41:38</time>
      </trkpt>
      <trkpt lat="38.82253" lon="-0.09486">
        <ele>160</ele>
        <time>2021-01-31 13:41:39</time>
      </trkpt>
      <trkpt lat="38.82253" lon="-0.0949">
        <ele>160.4</ele>
        <time>2021-01-31 13:41:40</time>
      </trkpt>
      <trkpt lat="38.82253" lon="-0.09493">
        <ele>160.4</ele>
        <time>2021-01-31 13:41:41</time>
      </trkpt>
      <trkpt lat="38.82253" lon="-0.09497">
        <ele>160.4</ele>
        <time>2021-01-31 13:41:42</time>
      </trkpt>
      <trkpt lat="38.82253" lon="-0.09501">
        <ele>160.4</ele>
        <time>2021-01-31 13:41:43</time>
      </trkpt>
      <trkpt lat="38.82253" lon="-0.09506">
        <ele>160.2</ele>
        <time>2021-01-31 13:41:44</time>
      </trkpt>
      <trkpt lat="38.82254" lon="-0.09511">
        <ele>160.2</ele>
        <time>2021-01-31 13:41:45</time>
      </trkpt>
      <trkpt lat="38.82255" lon="-0.09516">
        <ele>160.2</ele>
        <time>2021-01-31 13:41:46</time>
      </trkpt>
      <trkpt lat="38.82258" lon="-0.09521">
        <ele>161</ele>
        <time>2021-01-31 13:41:47</time>
      </trkpt>
      <trkpt lat="38.8226" lon="-0.09526">
        <ele>161</ele>
        <time>2021-01-31 13:41:48</time>
      </trkpt>
      <trkpt lat="38.8226" lon="-0.09526">
        <ele>161.2</ele>
        <time>2021-01-31 13:41:49</time>
      </trkpt>
      <trkpt lat="38.82268" lon="-0.09531">
        <ele>161.2</ele>
        <time>2021-01-31 13:41:50</time>
      </trkpt>
      <trkpt lat="38.82272" lon="-0.09532">
        <ele>160.2</ele>
        <time>2021-01-31 13:41:51</time>
      </trkpt>
      <trkpt lat="38.82276" lon="-0.09532">
        <ele>159.6</ele>
        <time>2021-01-31 13:41:52</time>
      </trkpt>
      <trkpt lat="38.8228" lon="-0.09532">
        <ele>159.6</ele>
        <time>2021-01-31 13:41:53</time>
      </trkpt>
      <trkpt lat="38.82284" lon="-0.09532">
        <ele>159.6</ele>
        <time>2021-01-31 13:41:54</time>
      </trkpt>
      <trkpt lat="38.82288" lon="-0.09532">
        <ele>160</ele>
        <time>2021-01-31 13:41:55</time>
      </trkpt>
      <trkpt lat="38.82293" lon="-0.09532">
        <ele>159.8</ele>
        <time>2021-01-31 13:41:56</time>
      </trkpt>
      <trkpt lat="38.82297" lon="-0.09533">
        <ele>159.8</ele>
        <time>2021-01-31 13:41:57</time>
      </trkpt>
      <trkpt lat="38.82303" lon="-0.09533">
        <ele>159.8</ele>
        <time>2021-01-31 13:41:58</time>
      </trkpt>
      <trkpt lat="38.82308" lon="-0.09533">
        <ele>160.2</ele>
        <time>2021-01-31 13:41:59</time>
      </trkpt>
      <trkpt lat="38.82313" lon="-0.09532">
        <ele>160.4</ele>
        <time>2021-01-31 13:42:00</time>
      </trkpt>
      <trkpt lat="38.82318" lon="-0.09532">
        <ele>160.4</ele>
        <time>2021-01-31 13:42:01</time>
      </trkpt>
      <trkpt lat="38.82324" lon="-0.09531">
        <ele>160.4</ele>
        <time>2021-01-31 13:42:02</time>
      </trkpt>
      <trkpt lat="38.82329" lon="-0.09531">
        <ele>160</ele>
        <time>2021-01-31 13:42:03</time>
      </trkpt>
      <trkpt lat="38.82335" lon="-0.09531">
        <ele>159.2</ele>
        <time>2021-01-31 13:42:04</time>
      </trkpt>
      <trkpt lat="38.8234" lon="-0.0953">
        <ele>159.2</ele>
        <time>2021-01-31 13:42:05</time>
      </trkpt>
      <trkpt lat="38.82346" lon="-0.0953">
        <ele>159.2</ele>
        <time>2021-01-31 13:42:06</time>
      </trkpt>
      <trkpt lat="38.82351" lon="-0.0953">
        <ele>158.4</ele>
        <time>2021-01-31 13:42:07</time>
      </trkpt>
      <trkpt lat="38.82357" lon="-0.09529">
        <ele>158.6</ele>
        <time>2021-01-31 13:42:08</time>
      </trkpt>
      <trkpt lat="38.82363" lon="-0.09529">
        <ele>158.6</ele>
        <time>2021-01-31 13:42:09</time>
      </trkpt>
      <trkpt lat="38.82369" lon="-0.09528">
        <ele>158.6</ele>
        <time>2021-01-31 13:42:10</time>
      </trkpt>
      <trkpt lat="38.82376" lon="-0.09527">
        <ele>157.6</ele>
        <time>2021-01-31 13:42:11</time>
      </trkpt>
      <trkpt lat="38.82383" lon="-0.09527">
        <ele>155.8</ele>
        <time>2021-01-31 13:42:12</time>
      </trkpt>
      <trkpt lat="38.82391" lon="-0.09526">
        <ele>155.8</ele>
        <time>2021-01-31 13:42:13</time>
      </trkpt>
      <trkpt lat="38.82398" lon="-0.09525">
        <ele>155.8</ele>
        <time>2021-01-31 13:42:14</time>
      </trkpt>
      <trkpt lat="38.82406" lon="-0.09525">
        <ele>155.8</ele>
        <time>2021-01-31 13:42:15</time>
      </trkpt>
      <trkpt lat="38.82415" lon="-0.09524">
        <ele>156.6</ele>
        <time>2021-01-31 13:42:16</time>
      </trkpt>
      <trkpt lat="38.82423" lon="-0.09523">
        <ele>156.6</ele>
        <time>2021-01-31 13:42:17</time>
      </trkpt>
      <trkpt lat="38.82432" lon="-0.09523">
        <ele>156.6</ele>
        <time>2021-01-31 13:42:18</time>
      </trkpt>
      <trkpt lat="38.82442" lon="-0.09522">
        <ele>155.6</ele>
        <time>2021-01-31 13:42:19</time>
      </trkpt>
      <trkpt lat="38.82451" lon="-0.09522">
        <ele>153.2</ele>
        <time>2021-01-31 13:42:20</time>
      </trkpt>
      <trkpt lat="38.82461" lon="-0.09521">
        <ele>153.2</ele>
        <time>2021-01-31 13:42:21</time>
      </trkpt>
      <trkpt lat="38.82472" lon="-0.0952">
        <ele>153.2</ele>
        <time>2021-01-31 13:42:22</time>
      </trkpt>
      <trkpt lat="38.82482" lon="-0.09519">
        <ele>152.2</ele>
        <time>2021-01-31 13:42:23</time>
      </trkpt>
      <trkpt lat="38.82492" lon="-0.09518">
        <ele>150.4</ele>
        <time>2021-01-31 13:42:24</time>
      </trkpt>
      <trkpt lat="38.82503" lon="-0.09516">
        <ele>150.4</ele>
        <time>2021-01-31 13:42:25</time>
      </trkpt>
      <trkpt lat="38.82513" lon="-0.09512">
        <ele>150.4</ele>
        <time>2021-01-31 13:42:26</time>
      </trkpt>
      <trkpt lat="38.82521" lon="-0.09506">
        <ele>149.4</ele>
        <time>2021-01-31 13:42:27</time>
      </trkpt>
      <trkpt lat="38.82528" lon="-0.09496">
        <ele>149</ele>
        <time>2021-01-31 13:42:28</time>
      </trkpt>
      <trkpt lat="38.82533" lon="-0.09486">
        <ele>149</ele>
        <time>2021-01-31 13:42:29</time>
      </trkpt>
      <trkpt lat="38.82538" lon="-0.09476">
        <ele>149</ele>
        <time>2021-01-31 13:42:30</time>
      </trkpt>
      <trkpt lat="38.82542" lon="-0.09467">
        <ele>150</ele>
        <time>2021-01-31 13:42:31</time>
      </trkpt>
      <trkpt lat="38.82547" lon="-0.09458">
        <ele>151.8</ele>
        <time>2021-01-31 13:42:32</time>
      </trkpt>
      <trkpt lat="38.82552" lon="-0.0945">
        <ele>151.8</ele>
        <time>2021-01-31 13:42:33</time>
      </trkpt>
      <trkpt lat="38.82558" lon="-0.09443">
        <ele>151.8</ele>
        <time>2021-01-31 13:42:34</time>
      </trkpt>
      <trkpt lat="38.82564" lon="-0.09438">
        <ele>152.8</ele>
        <time>2021-01-31 13:42:35</time>
      </trkpt>
      <trkpt lat="38.82571" lon="-0.09434">
        <ele>153.6</ele>
        <time>2021-01-31 13:42:36</time>
      </trkpt>
      <trkpt lat="38.82577" lon="-0.09431">
        <ele>153.6</ele>
        <time>2021-01-31 13:42:37</time>
      </trkpt>
      <trkpt lat="38.82584" lon="-0.09428">
        <ele>153.6</ele>
        <time>2021-01-31 13:42:38</time>
      </trkpt>
      <trkpt lat="38.82591" lon="-0.09426">
        <ele>153.6</ele>
        <time>2021-01-31 13:42:39</time>
      </trkpt>
      <trkpt lat="38.82598" lon="-0.09425">
        <ele>154.2</ele>
        <time>2021-01-31 13:42:40</time>
      </trkpt>
      <trkpt lat="38.82604" lon="-0.09424">
        <ele>154.2</ele>
        <time>2021-01-31 13:42:41</time>
      </trkpt>
      <trkpt lat="38.82611" lon="-0.09423">
        <ele>154.2</ele>
        <time>2021-01-31 13:42:42</time>
      </trkpt>
      <trkpt lat="38.82617" lon="-0.09422">
        <ele>154.2</ele>
        <time>2021-01-31 13:42:43</time>
      </trkpt>
      <trkpt lat="38.82624" lon="-0.09422">
        <ele>154.4</ele>
        <time>2021-01-31 13:42:44</time>
      </trkpt>
      <trkpt lat="38.8263" lon="-0.09422">
        <ele>154.4</ele>
        <time>2021-01-31 13:42:45</time>
      </trkpt>
      <trkpt lat="38.82637" lon="-0.09423">
        <ele>154.4</ele>
        <time>2021-01-31 13:42:46</time>
      </trkpt>
      <trkpt lat="38.82642" lon="-0.09426">
        <ele>154.4</ele>
        <time>2021-01-31 13:42:47</time>
      </trkpt>
      <trkpt lat="38.82647" lon="-0.0943">
        <ele>154.2</ele>
        <time>2021-01-31 13:42:48</time>
      </trkpt>
      <trkpt lat="38.82651" lon="-0.09435">
        <ele>154.2</ele>
        <time>2021-01-31 13:42:49</time>
      </trkpt>
      <trkpt lat="38.82654" lon="-0.09441">
        <ele>154.2</ele>
        <time>2021-01-31 13:42:50</time>
      </trkpt>
      <trkpt lat="38.82656" lon="-0.09447">
        <ele>154.2</ele>
        <time>2021-01-31 13:42:51</time>
      </trkpt>
      <trkpt lat="38.82658" lon="-0.09454">
        <ele>155.4</ele>
        <time>2021-01-31 13:42:52</time>
      </trkpt>
      <trkpt lat="38.8266" lon="-0.0946">
        <ele>155.4</ele>
        <time>2021-01-31 13:42:53</time>
      </trkpt>
      <trkpt lat="38.82662" lon="-0.09466">
        <ele>155.4</ele>
        <time>2021-01-31 13:42:54</time>
      </trkpt>
      <trkpt lat="38.82663" lon="-0.09473">
        <ele>155.2</ele>
        <time>2021-01-31 13:42:55</time>
      </trkpt>
      <trkpt lat="38.82665" lon="-0.0948">
        <ele>154.2</ele>
        <time>2021-01-31 13:42:56</time>
      </trkpt>
      <trkpt lat="38.82666" lon="-0.09487">
        <ele>154.2</ele>
        <time>2021-01-31 13:42:57</time>
      </trkpt>
      <trkpt lat="38.82668" lon="-0.09495">
        <ele>154.2</ele>
        <time>2021-01-31 13:42:58</time>
      </trkpt>
      <trkpt lat="38.82669" lon="-0.09504">
        <ele>153.2</ele>
        <time>2021-01-31 13:42:59</time>
      </trkpt>
      <trkpt lat="38.8267" lon="-0.09513">
        <ele>151.4</ele>
        <time>2021-01-31 13:43:00</time>
      </trkpt>
      <trkpt lat="38.82672" lon="-0.09522">
        <ele>151.4</ele>
        <time>2021-01-31 13:43:01</time>
      </trkpt>
      <trkpt lat="38.82673" lon="-0.09532">
        <ele>151.4</ele>
        <time>2021-01-31 13:43:02</time>
      </trkpt>
      <trkpt lat="38.82674" lon="-0.09543">
        <ele>150.4</ele>
        <time>2021-01-31 13:43:03</time>
      </trkpt>
      <trkpt lat="38.82676" lon="-0.09553">
        <ele>149.2</ele>
        <time>2021-01-31 13:43:04</time>
      </trkpt>
      <trkpt lat="38.82677" lon="-0.09564">
        <ele>149.2</ele>
        <time>2021-01-31 13:43:05</time>
      </trkpt>
      <trkpt lat="38.82678" lon="-0.09575">
        <ele>149.2</ele>
        <time>2021-01-31 13:43:06</time>
      </trkpt>
      <trkpt lat="38.82678" lon="-0.09586">
        <ele>148.2</ele>
        <time>2021-01-31 13:43:07</time>
      </trkpt>
      <trkpt lat="38.82679" lon="-0.09598">
        <ele>147.8</ele>
        <time>2021-01-31 13:43:08</time>
      </trkpt>
      <trkpt lat="38.82679" lon="-0.0961">
        <ele>147.8</ele>
        <time>2021-01-31 13:43:09</time>
      </trkpt>
      <trkpt lat="38.82678" lon="-0.09622">
        <ele>147.8</ele>
        <time>2021-01-31 13:43:10</time>
      </trkpt>
      <trkpt lat="38.82678" lon="-0.09635">
        <ele>146.8</ele>
        <time>2021-01-31 13:43:11</time>
      </trkpt>
      <trkpt lat="38.82677" lon="-0.09648">
        <ele>143.2</ele>
        <time>2021-01-31 13:43:12</time>
      </trkpt>
      <trkpt lat="38.82678" lon="-0.09661">
        <ele>143.2</ele>
        <time>2021-01-31 13:43:13</time>
      </trkpt>
      <trkpt lat="38.82679" lon="-0.09675">
        <ele>143.2</ele>
        <time>2021-01-31 13:43:14</time>
      </trkpt>
      <trkpt lat="38.8268" lon="-0.09688">
        <ele>143.2</ele>
        <time>2021-01-31 13:43:15</time>
      </trkpt>
      <trkpt lat="38.82682" lon="-0.09701">
        <ele>140.4</ele>
        <time>2021-01-31 13:43:16</time>
      </trkpt>
      <trkpt lat="38.82683" lon="-0.09715">
        <ele>140.4</ele>
        <time>2021-01-31 13:43:17</time>
      </trkpt>
      <trkpt lat="38.82685" lon="-0.09728">
        <ele>140.4</ele>
        <time>2021-01-31 13:43:18</time>
      </trkpt>
      <trkpt lat="38.82687" lon="-0.09741">
        <ele>140.4</ele>
        <time>2021-01-31 13:43:19</time>
      </trkpt>
      <trkpt lat="38.82689" lon="-0.09755">
        <ele>140.4</ele>
        <time>2021-01-31 13:43:20</time>
      </trkpt>
      <trkpt lat="38.82689" lon="-0.09755">
        <ele>139</ele>
        <time>2021-01-31 13:43:21</time>
      </trkpt>
      <trkpt lat="38.82692" lon="-0.09782">
        <ele>139</ele>
        <time>2021-01-31 13:43:22</time>
      </trkpt>
      <trkpt lat="38.82693" lon="-0.09795">
        <ele>138</ele>
        <time>2021-01-31 13:43:23</time>
      </trkpt>
      <trkpt lat="38.82694" lon="-0.09808">
        <ele>133.8</ele>
        <time>2021-01-31 13:43:24</time>
      </trkpt>
      <trkpt lat="38.82695" lon="-0.09821">
        <ele>133.8</ele>
        <time>2021-01-31 13:43:25</time>
      </trkpt>
      <trkpt lat="38.82695" lon="-0.09834">
        <ele>133.8</ele>
        <time>2021-01-31 13:43:26</time>
      </trkpt>
      <trkpt lat="38.82694" lon="-0.09847">
        <ele>134.6</ele>
        <time>2021-01-31 13:43:27</time>
      </trkpt>
      <trkpt lat="38.82693" lon="-0.09859">
        <ele>132.8</ele>
        <time>2021-01-31 13:43:28</time>
      </trkpt>
      <trkpt lat="38.82692" lon="-0.09872">
        <ele>132.8</ele>
        <time>2021-01-31 13:43:29</time>
      </trkpt>
      <trkpt lat="38.82691" lon="-0.09884">
        <ele>132.8</ele>
        <time>2021-01-31 13:43:30</time>
      </trkpt>
      <trkpt lat="38.82691" lon="-0.09896">
        <ele>132.8</ele>
        <time>2021-01-31 13:43:31</time>
      </trkpt>
      <trkpt lat="38.82691" lon="-0.09896">
        <ele>134</ele>
        <time>2021-01-31 13:43:32</time>
      </trkpt>
      <trkpt lat="38.82693" lon="-0.0992">
        <ele>134</ele>
        <time>2021-01-31 13:43:33</time>
      </trkpt>
      <trkpt lat="38.82695" lon="-0.09932">
        <ele>134</ele>
        <time>2021-01-31 13:43:34</time>
      </trkpt>
      <trkpt lat="38.82697" lon="-0.09943">
        <ele>134</ele>
        <time>2021-01-31 13:43:35</time>
      </trkpt>
      <trkpt lat="38.827" lon="-0.09954">
        <ele>132.2</ele>
        <time>2021-01-31 13:43:36</time>
      </trkpt>
      <trkpt lat="38.82703" lon="-0.09965">
        <ele>132.2</ele>
        <time>2021-01-31 13:43:37</time>
      </trkpt>
      <trkpt lat="38.82707" lon="-0.09975">
        <ele>132.2</ele>
        <time>2021-01-31 13:43:38</time>
      </trkpt>
      <trkpt lat="38.82712" lon="-0.09985">
        <ele>133.2</ele>
        <time>2021-01-31 13:43:39</time>
      </trkpt>
      <trkpt lat="38.82712" lon="-0.09985">
        <ele>132</ele>
        <time>2021-01-31 13:43:40</time>
      </trkpt>
      <trkpt lat="38.82726" lon="-0.10001">
        <ele>132</ele>
        <time>2021-01-31 13:43:41</time>
      </trkpt>
      <trkpt lat="38.82733" lon="-0.10008">
        <ele>132</ele>
        <time>2021-01-31 13:43:42</time>
      </trkpt>
      <trkpt lat="38.8274" lon="-0.10015">
        <ele>132.8</ele>
        <time>2021-01-31 13:43:43</time>
      </trkpt>
      <trkpt lat="38.82748" lon="-0.1002">
        <ele>133</ele>
        <time>2021-01-31 13:43:44</time>
      </trkpt>
      <trkpt lat="38.82756" lon="-0.10024">
        <ele>133</ele>
        <time>2021-01-31 13:43:45</time>
      </trkpt>
      <trkpt lat="38.82765" lon="-0.10025">
        <ele>133</ele>
        <time>2021-01-31 13:43:46</time>
      </trkpt>
      <trkpt lat="38.82774" lon="-0.10026">
        <ele>133</ele>
        <time>2021-01-31 13:43:47</time>
      </trkpt>
      <trkpt lat="38.82783" lon="-0.10026">
        <ele>134</ele>
        <time>2021-01-31 13:43:48</time>
      </trkpt>
      <trkpt lat="38.82792" lon="-0.10026">
        <ele>134</ele>
        <time>2021-01-31 13:43:49</time>
      </trkpt>
      <trkpt lat="38.82802" lon="-0.10026">
        <ele>134</ele>
        <time>2021-01-31 13:43:50</time>
      </trkpt>
      <trkpt lat="38.82812" lon="-0.10026">
        <ele>133</ele>
        <time>2021-01-31 13:43:51</time>
      </trkpt>
      <trkpt lat="38.82821" lon="-0.10026">
        <ele>129.4</ele>
        <time>2021-01-31 13:43:52</time>
      </trkpt>
      <trkpt lat="38.82831" lon="-0.10026">
        <ele>129.4</ele>
        <time>2021-01-31 13:43:53</time>
      </trkpt>
      <trkpt lat="38.82841" lon="-0.10027">
        <ele>129.4</ele>
        <time>2021-01-31 13:43:54</time>
      </trkpt>
      <trkpt lat="38.82851" lon="-0.10027">
        <ele>128.4</ele>
        <time>2021-01-31 13:43:55</time>
      </trkpt>
      <trkpt lat="38.82861" lon="-0.10027">
        <ele>127.8</ele>
        <time>2021-01-31 13:43:56</time>
      </trkpt>
      <trkpt lat="38.82871" lon="-0.10026">
        <ele>127.8</ele>
        <time>2021-01-31 13:43:57</time>
      </trkpt>
      <trkpt lat="38.82882" lon="-0.10026">
        <ele>127.8</ele>
        <time>2021-01-31 13:43:58</time>
      </trkpt>
      <trkpt lat="38.82892" lon="-0.10026">
        <ele>126.8</ele>
        <time>2021-01-31 13:43:59</time>
      </trkpt>
      <trkpt lat="38.82903" lon="-0.10026">
        <ele>124.6</ele>
        <time>2021-01-31 13:44:00</time>
      </trkpt>
      <trkpt lat="38.82913" lon="-0.10027">
        <ele>124.6</ele>
        <time>2021-01-31 13:44:01</time>
      </trkpt>
      <trkpt lat="38.82924" lon="-0.10027">
        <ele>124.6</ele>
        <time>2021-01-31 13:44:02</time>
      </trkpt>
      <trkpt lat="38.82934" lon="-0.10026">
        <ele>123.6</ele>
        <time>2021-01-31 13:44:03</time>
      </trkpt>
      <trkpt lat="38.82945" lon="-0.10026">
        <ele>122.8</ele>
        <time>2021-01-31 13:44:04</time>
      </trkpt>
      <trkpt lat="38.82956" lon="-0.10028">
        <ele>122.8</ele>
        <time>2021-01-31 13:44:05</time>
      </trkpt>
      <trkpt lat="38.82966" lon="-0.10031">
        <ele>122.8</ele>
        <time>2021-01-31 13:44:06</time>
      </trkpt>
      <trkpt lat="38.82976" lon="-0.10038">
        <ele>121.8</ele>
        <time>2021-01-31 13:44:07</time>
      </trkpt>
      <trkpt lat="38.82984" lon="-0.10047">
        <ele>117.8</ele>
        <time>2021-01-31 13:44:08</time>
      </trkpt>
      <trkpt lat="38.82989" lon="-0.10059">
        <ele>117.8</ele>
        <time>2021-01-31 13:44:09</time>
      </trkpt>
      <trkpt lat="38.82992" lon="-0.1007">
        <ele>117.8</ele>
        <time>2021-01-31 13:44:10</time>
      </trkpt>
      <trkpt lat="38.82995" lon="-0.10083">
        <ele>117.2</ele>
        <time>2021-01-31 13:44:11</time>
      </trkpt>
      <trkpt lat="38.82998" lon="-0.10094">
        <ele>116.8</ele>
        <time>2021-01-31 13:44:12</time>
      </trkpt>
      <trkpt lat="38.83001" lon="-0.10106">
        <ele>116.8</ele>
        <time>2021-01-31 13:44:13</time>
      </trkpt>
      <trkpt lat="38.83004" lon="-0.10117">
        <ele>116.8</ele>
        <time>2021-01-31 13:44:14</time>
      </trkpt>
      <trkpt lat="38.83007" lon="-0.10128">
        <ele>117.8</ele>
        <time>2021-01-31 13:44:15</time>
      </trkpt>
      <trkpt lat="38.83011" lon="-0.10138">
        <ele>119.2</ele>
        <time>2021-01-31 13:44:16</time>
      </trkpt>
      <trkpt lat="38.83015" lon="-0.10148">
        <ele>119.2</ele>
        <time>2021-01-31 13:44:17</time>
      </trkpt>
      <trkpt lat="38.83019" lon="-0.10157">
        <ele>119.2</ele>
        <time>2021-01-31 13:44:18</time>
      </trkpt>
      <trkpt lat="38.83023" lon="-0.10166">
        <ele>119.2</ele>
        <time>2021-01-31 13:44:19</time>
      </trkpt>
      <trkpt lat="38.83027" lon="-0.10174">
        <ele>121</ele>
        <time>2021-01-31 13:44:20</time>
      </trkpt>
      <trkpt lat="38.83032" lon="-0.10183">
        <ele>121</ele>
        <time>2021-01-31 13:44:21</time>
      </trkpt>
      <trkpt lat="38.83036" lon="-0.10191">
        <ele>121</ele>
        <time>2021-01-31 13:44:22</time>
      </trkpt>
      <trkpt lat="38.83041" lon="-0.102">
        <ele>121</ele>
        <time>2021-01-31 13:44:23</time>
      </trkpt>
      <trkpt lat="38.83045" lon="-0.10208">
        <ele>121.8</ele>
        <time>2021-01-31 13:44:24</time>
      </trkpt>
      <trkpt lat="38.8305" lon="-0.10216">
        <ele>121.8</ele>
        <time>2021-01-31 13:44:25</time>
      </trkpt>
      <trkpt lat="38.83054" lon="-0.10225">
        <ele>121.8</ele>
        <time>2021-01-31 13:44:26</time>
      </trkpt>
      <trkpt lat="38.83058" lon="-0.10232">
        <ele>121.8</ele>
        <time>2021-01-31 13:44:27</time>
      </trkpt>
      <trkpt lat="38.83062" lon="-0.1024">
        <ele>122.8</ele>
        <time>2021-01-31 13:44:28</time>
      </trkpt>
      <trkpt lat="38.83066" lon="-0.10248">
        <ele>122.8</ele>
        <time>2021-01-31 13:44:29</time>
      </trkpt>
      <trkpt lat="38.83071" lon="-0.10256">
        <ele>122.8</ele>
        <time>2021-01-31 13:44:30</time>
      </trkpt>
      <trkpt lat="38.83075" lon="-0.10263">
        <ele>121.8</ele>
        <time>2021-01-31 13:44:31</time>
      </trkpt>
      <trkpt lat="38.83079" lon="-0.10271">
        <ele>120.4</ele>
        <time>2021-01-31 13:44:32</time>
      </trkpt>
      <trkpt lat="38.83083" lon="-0.10278">
        <ele>120.4</ele>
        <time>2021-01-31 13:44:33</time>
      </trkpt>
      <trkpt lat="38.83087" lon="-0.10286">
        <ele>120.4</ele>
        <time>2021-01-31 13:44:34</time>
      </trkpt>
      <trkpt lat="38.83091" lon="-0.10293">
        <ele>121</ele>
        <time>2021-01-31 13:44:35</time>
      </trkpt>
      <trkpt lat="38.83095" lon="-0.103">
        <ele>120.8</ele>
        <time>2021-01-31 13:44:36</time>
      </trkpt>
      <trkpt lat="38.83099" lon="-0.10307">
        <ele>120.8</ele>
        <time>2021-01-31 13:44:37</time>
      </trkpt>
      <trkpt lat="38.83103" lon="-0.10314">
        <ele>120.8</ele>
        <time>2021-01-31 13:44:38</time>
      </trkpt>
      <trkpt lat="38.83106" lon="-0.10322">
        <ele>120.8</ele>
        <time>2021-01-31 13:44:39</time>
      </trkpt>
      <trkpt lat="38.8311" lon="-0.10329">
        <ele>120.8</ele>
        <time>2021-01-31 13:44:40</time>
      </trkpt>
      <trkpt lat="38.83114" lon="-0.10336">
        <ele>120.8</ele>
        <time>2021-01-31 13:44:41</time>
      </trkpt>
      <trkpt lat="38.83118" lon="-0.10343">
        <ele>120.8</ele>
        <time>2021-01-31 13:44:42</time>
      </trkpt>
      <trkpt lat="38.83118" lon="-0.10343">
        <ele>121.8</ele>
        <time>2021-01-31 13:44:43</time>
      </trkpt>
      <trkpt lat="38.83126" lon="-0.10357">
        <ele>122.4</ele>
        <time>2021-01-31 13:44:44</time>
      </trkpt>
      <trkpt lat="38.8313" lon="-0.10364">
        <ele>122.4</ele>
        <time>2021-01-31 13:44:45</time>
      </trkpt>
      <trkpt lat="38.83133" lon="-0.10371">
        <ele>122.4</ele>
        <time>2021-01-31 13:44:46</time>
      </trkpt>
      <trkpt lat="38.83133" lon="-0.10371">
        <ele>122.4</ele>
        <time>2021-01-31 13:44:47</time>
      </trkpt>
      <trkpt lat="38.83141" lon="-0.10385">
        <ele>122.4</ele>
        <time>2021-01-31 13:44:48</time>
      </trkpt>
      <trkpt lat="38.83144" lon="-0.10392">
        <ele>122.4</ele>
        <time>2021-01-31 13:44:49</time>
      </trkpt>
      <trkpt lat="38.83148" lon="-0.10399">
        <ele>122.4</ele>
        <time>2021-01-31 13:44:50</time>
      </trkpt>
      <trkpt lat="38.83148" lon="-0.10399">
        <ele>121.4</ele>
        <time>2021-01-31 13:44:51</time>
      </trkpt>
      <trkpt lat="38.83155" lon="-0.10412">
        <ele>120.2</ele>
        <time>2021-01-31 13:44:52</time>
      </trkpt>
      <trkpt lat="38.83159" lon="-0.10419">
        <ele>120.2</ele>
        <time>2021-01-31 13:44:53</time>
      </trkpt>
      <trkpt lat="38.83163" lon="-0.10426">
        <ele>120.2</ele>
        <time>2021-01-31 13:44:54</time>
      </trkpt>
      <trkpt lat="38.83166" lon="-0.10433">
        <ele>120.2</ele>
        <time>2021-01-31 13:44:55</time>
      </trkpt>
      <trkpt lat="38.8317" lon="-0.1044">
        <ele>120.2</ele>
        <time>2021-01-31 13:44:56</time>
      </trkpt>
      <trkpt lat="38.8317" lon="-0.1044">
        <ele>122</ele>
        <time>2021-01-31 13:44:57</time>
      </trkpt>
      <trkpt lat="38.83177" lon="-0.10453">
        <ele>122</ele>
        <time>2021-01-31 13:44:58</time>
      </trkpt>
      <trkpt lat="38.83181" lon="-0.1046">
        <ele>121</ele>
        <time>2021-01-31 13:44:59</time>
      </trkpt>
      <trkpt lat="38.83185" lon="-0.10467">
        <ele>121.4</ele>
        <time>2021-01-31 13:45:00</time>
      </trkpt>
      <trkpt lat="38.83188" lon="-0.10474">
        <ele>121.4</ele>
        <time>2021-01-31 13:45:01</time>
      </trkpt>
      <trkpt lat="38.83192" lon="-0.1048">
        <ele>121.4</ele>
        <time>2021-01-31 13:45:02</time>
      </trkpt>
      <trkpt lat="38.83196" lon="-0.10487">
        <ele>120.4</ele>
        <time>2021-01-31 13:45:03</time>
      </trkpt>
      <trkpt lat="38.832" lon="-0.10494">
        <ele>121</ele>
        <time>2021-01-31 13:45:04</time>
      </trkpt>
      <trkpt lat="38.83203" lon="-0.10501">
        <ele>121</ele>
        <time>2021-01-31 13:45:05</time>
      </trkpt>
      <trkpt lat="38.83207" lon="-0.10508">
        <ele>121</ele>
        <time>2021-01-31 13:45:06</time>
      </trkpt>
      <trkpt lat="38.83211" lon="-0.10515">
        <ele>121</ele>
        <time>2021-01-31 13:45:07</time>
      </trkpt>
      <trkpt lat="38.83214" lon="-0.10521">
        <ele>118.2</ele>
        <time>2021-01-31 13:45:08</time>
      </trkpt>
      <trkpt lat="38.83217" lon="-0.10527">
        <ele>118.2</ele>
        <time>2021-01-31 13:45:09</time>
      </trkpt>
      <trkpt lat="38.83221" lon="-0.10533">
        <ele>118.2</ele>
        <time>2021-01-31 13:45:10</time>
      </trkpt>
      <trkpt lat="38.83224" lon="-0.1054">
        <ele>119.2</ele>
        <time>2021-01-31 13:45:11</time>
      </trkpt>
      <trkpt lat="38.83228" lon="-0.10546">
        <ele>121</ele>
        <time>2021-01-31 13:45:12</time>
      </trkpt>
      <trkpt lat="38.83232" lon="-0.10552">
        <ele>121</ele>
        <time>2021-01-31 13:45:13</time>
      </trkpt>
      <trkpt lat="38.83236" lon="-0.10559">
        <ele>121</ele>
        <time>2021-01-31 13:45:14</time>
      </trkpt>
      <trkpt lat="38.8324" lon="-0.10565">
        <ele>121</ele>
        <time>2021-01-31 13:45:15</time>
      </trkpt>
      <trkpt lat="38.83244" lon="-0.10571">
        <ele>120.4</ele>
        <time>2021-01-31 13:45:16</time>
      </trkpt>
      <trkpt lat="38.83249" lon="-0.10576">
        <ele>120.4</ele>
        <time>2021-01-31 13:45:17</time>
      </trkpt>
      <trkpt lat="38.83254" lon="-0.10582">
        <ele>120.4</ele>
        <time>2021-01-31 13:45:18</time>
      </trkpt>
      <trkpt lat="38.83258" lon="-0.10587">
        <ele>120.4</ele>
        <time>2021-01-31 13:45:19</time>
      </trkpt>
      <trkpt lat="38.83264" lon="-0.10592">
        <ele>120.4</ele>
        <time>2021-01-31 13:45:20</time>
      </trkpt>
      <trkpt lat="38.83269" lon="-0.10596">
        <ele>120.4</ele>
        <time>2021-01-31 13:45:21</time>
      </trkpt>
      <trkpt lat="38.83274" lon="-0.10601">
        <ele>120.4</ele>
        <time>2021-01-31 13:45:22</time>
      </trkpt>
      <trkpt lat="38.83278" lon="-0.10606">
        <ele>120.4</ele>
        <time>2021-01-31 13:45:23</time>
      </trkpt>
      <trkpt lat="38.83283" lon="-0.10611">
        <ele>122</ele>
        <time>2021-01-31 13:45:24</time>
      </trkpt>
      <trkpt lat="38.83288" lon="-0.10616">
        <ele>122</ele>
        <time>2021-01-31 13:45:25</time>
      </trkpt>
      <trkpt lat="38.83292" lon="-0.10621">
        <ele>122</ele>
        <time>2021-01-31 13:45:26</time>
      </trkpt>
      <trkpt lat="38.83297" lon="-0.10626">
        <ele>122</ele>
        <time>2021-01-31 13:45:27</time>
      </trkpt>
      <trkpt lat="38.83301" lon="-0.10631">
        <ele>122</ele>
        <time>2021-01-31 13:45:28</time>
      </trkpt>
      <trkpt lat="38.83306" lon="-0.10636">
        <ele>122</ele>
        <time>2021-01-31 13:45:29</time>
      </trkpt>
      <trkpt lat="38.8331" lon="-0.1064">
        <ele>122</ele>
        <time>2021-01-31 13:45:30</time>
      </trkpt>
      <trkpt lat="38.83314" lon="-0.10645">
        <ele>122</ele>
        <time>2021-01-31 13:45:31</time>
      </trkpt>
      <trkpt lat="38.83318" lon="-0.1065">
        <ele>122.4</ele>
        <time>2021-01-31 13:45:32</time>
      </trkpt>
      <trkpt lat="38.83323" lon="-0.10654">
        <ele>122.4</ele>
        <time>2021-01-31 13:45:33</time>
      </trkpt>
      <trkpt lat="38.83327" lon="-0.10659">
        <ele>122.4</ele>
        <time>2021-01-31 13:45:34</time>
      </trkpt>
      <trkpt lat="38.83331" lon="-0.10663">
        <ele>121.4</ele>
        <time>2021-01-31 13:45:35</time>
      </trkpt>
      <trkpt lat="38.83335" lon="-0.10667">
        <ele>122.6</ele>
        <time>2021-01-31 13:45:36</time>
      </trkpt>
      <trkpt lat="38.83339" lon="-0.10672">
        <ele>122.6</ele>
        <time>2021-01-31 13:45:37</time>
      </trkpt>
      <trkpt lat="38.83343" lon="-0.10677">
        <ele>122.6</ele>
        <time>2021-01-31 13:45:38</time>
      </trkpt>
      <trkpt lat="38.83346" lon="-0.10681">
        <ele>122.6</ele>
        <time>2021-01-31 13:45:39</time>
      </trkpt>
      <trkpt lat="38.8335" lon="-0.10685">
        <ele>123.8</ele>
        <time>2021-01-31 13:45:40</time>
      </trkpt>
      <trkpt lat="38.83354" lon="-0.10689">
        <ele>123.8</ele>
        <time>2021-01-31 13:45:41</time>
      </trkpt>
      <trkpt lat="38.83359" lon="-0.10693">
        <ele>123.8</ele>
        <time>2021-01-31 13:45:42</time>
      </trkpt>
      <trkpt lat="38.83363" lon="-0.10698">
        <ele>124</ele>
        <time>2021-01-31 13:45:43</time>
      </trkpt>
      <trkpt lat="38.83366" lon="-0.10702">
        <ele>124</ele>
        <time>2021-01-31 13:45:44</time>
      </trkpt>
      <trkpt lat="38.8337" lon="-0.10707">
        <ele>124</ele>
        <time>2021-01-31 13:45:45</time>
      </trkpt>
      <trkpt lat="38.83374" lon="-0.10711">
        <ele>124</ele>
        <time>2021-01-31 13:45:46</time>
      </trkpt>
      <trkpt lat="38.83378" lon="-0.10715">
        <ele>124</ele>
        <time>2021-01-31 13:45:47</time>
      </trkpt>
      <trkpt lat="38.83382" lon="-0.10719">
        <ele>124.2</ele>
        <time>2021-01-31 13:45:48</time>
      </trkpt>
      <trkpt lat="38.83386" lon="-0.10723">
        <ele>124.2</ele>
        <time>2021-01-31 13:45:49</time>
      </trkpt>
      <trkpt lat="38.8339" lon="-0.10727">
        <ele>124.2</ele>
        <time>2021-01-31 13:45:50</time>
      </trkpt>
      <trkpt lat="38.83393" lon="-0.10731">
        <ele>124.2</ele>
        <time>2021-01-31 13:45:51</time>
      </trkpt>
      <trkpt lat="38.83397" lon="-0.10735">
        <ele>125.6</ele>
        <time>2021-01-31 13:45:52</time>
      </trkpt>
      <trkpt lat="38.834" lon="-0.10739">
        <ele>125.6</ele>
        <time>2021-01-31 13:45:53</time>
      </trkpt>
      <trkpt lat="38.83404" lon="-0.10743">
        <ele>125.6</ele>
        <time>2021-01-31 13:45:54</time>
      </trkpt>
      <trkpt lat="38.83407" lon="-0.10747">
        <ele>125.6</ele>
        <time>2021-01-31 13:45:55</time>
      </trkpt>
      <trkpt lat="38.83409" lon="-0.1075">
        <ele>125</ele>
        <time>2021-01-31 13:45:56</time>
      </trkpt>
      <trkpt lat="38.83412" lon="-0.10754">
        <ele>125</ele>
        <time>2021-01-31 13:45:57</time>
      </trkpt>
      <trkpt lat="38.83414" lon="-0.10757">
        <ele>125</ele>
        <time>2021-01-31 13:45:58</time>
      </trkpt>
      <trkpt lat="38.83416" lon="-0.10761">
        <ele>125</ele>
        <time>2021-01-31 13:45:59</time>
      </trkpt>
      <trkpt lat="38.83418" lon="-0.10765">
        <ele>125.2</ele>
        <time>2021-01-31 13:46:00</time>
      </trkpt>
      <trkpt lat="38.83418" lon="-0.10769">
        <ele>125.2</ele>
        <time>2021-01-31 13:46:01</time>
      </trkpt>
      <trkpt lat="38.83418" lon="-0.10774">
        <ele>125.2</ele>
        <time>2021-01-31 13:46:02</time>
      </trkpt>
      <trkpt lat="38.83416" lon="-0.10777">
        <ele>124.6</ele>
        <time>2021-01-31 13:46:03</time>
      </trkpt>
      <trkpt lat="38.83414" lon="-0.10781">
        <ele>126.8</ele>
        <time>2021-01-31 13:46:04</time>
      </trkpt>
      <trkpt lat="38.83412" lon="-0.10784">
        <ele>126.8</ele>
        <time>2021-01-31 13:46:05</time>
      </trkpt>
      <trkpt lat="38.83408" lon="-0.10786">
        <ele>126.8</ele>
        <time>2021-01-31 13:46:06</time>
      </trkpt>
      <trkpt lat="38.83406" lon="-0.10787">
        <ele>127.8</ele>
        <time>2021-01-31 13:46:07</time>
      </trkpt>
      <trkpt lat="38.83403" lon="-0.10788">
        <ele>129.8</ele>
        <time>2021-01-31 13:46:08</time>
      </trkpt>
      <trkpt lat="38.83401" lon="-0.10788">
        <ele>129.8</ele>
        <time>2021-01-31 13:46:09</time>
      </trkpt>
      <trkpt lat="38.83398" lon="-0.10789">
        <ele>129.8</ele>
        <time>2021-01-31 13:46:10</time>
      </trkpt>
      <trkpt lat="38.83396" lon="-0.10789">
        <ele>130.8</ele>
        <time>2021-01-31 13:46:11</time>
      </trkpt>
      <trkpt lat="38.83393" lon="-0.1079">
        <ele>130.4</ele>
        <time>2021-01-31 13:46:12</time>
      </trkpt>
      <trkpt lat="38.8339" lon="-0.10791">
        <ele>130.4</ele>
        <time>2021-01-31 13:46:13</time>
      </trkpt>
      <trkpt lat="38.83388" lon="-0.10792">
        <ele>130.4</ele>
        <time>2021-01-31 13:46:14</time>
      </trkpt>
      <trkpt lat="38.83385" lon="-0.10793">
        <ele>131.4</ele>
        <time>2021-01-31 13:46:15</time>
      </trkpt>
      <trkpt lat="38.83382" lon="-0.10794">
        <ele>132.4</ele>
        <time>2021-01-31 13:46:16</time>
      </trkpt>
      <trkpt lat="38.8338" lon="-0.10795">
        <ele>132.4</ele>
        <time>2021-01-31 13:46:17</time>
      </trkpt>
      <trkpt lat="38.83377" lon="-0.10795">
        <ele>132.4</ele>
        <time>2021-01-31 13:46:18</time>
      </trkpt>
      <trkpt lat="38.83374" lon="-0.10796">
        <ele>131.6</ele>
        <time>2021-01-31 13:46:19</time>
      </trkpt>
      <trkpt lat="38.83371" lon="-0.10797">
        <ele>132.4</ele>
        <time>2021-01-31 13:46:20</time>
      </trkpt>
      <trkpt lat="38.83369" lon="-0.10797">
        <ele>132.4</ele>
        <time>2021-01-31 13:46:21</time>
      </trkpt>
      <trkpt lat="38.83366" lon="-0.10798">
        <ele>132.4</ele>
        <time>2021-01-31 13:46:22</time>
      </trkpt>
      <trkpt lat="38.83364" lon="-0.10798">
        <ele>132.4</ele>
        <time>2021-01-31 13:46:23</time>
      </trkpt>
      <trkpt lat="38.83361" lon="-0.10799">
        <ele>132.4</ele>
        <time>2021-01-31 13:46:24</time>
      </trkpt>
      <trkpt lat="38.83358" lon="-0.10799">
        <ele>132.4</ele>
        <time>2021-01-31 13:46:25</time>
      </trkpt>
      <trkpt lat="38.83356" lon="-0.108">
        <ele>132.4</ele>
        <time>2021-01-31 13:46:26</time>
      </trkpt>
      <trkpt lat="38.83353" lon="-0.108">
        <ele>133.4</ele>
        <time>2021-01-31 13:46:27</time>
      </trkpt>
      <trkpt lat="38.83351" lon="-0.10801">
        <ele>133.8</ele>
        <time>2021-01-31 13:46:28</time>
      </trkpt>
      <trkpt lat="38.83348" lon="-0.10802">
        <ele>133.8</ele>
        <time>2021-01-31 13:46:29</time>
      </trkpt>
      <trkpt lat="38.83346" lon="-0.10802">
        <ele>133.8</ele>
        <time>2021-01-31 13:46:30</time>
      </trkpt>
      <trkpt lat="38.83343" lon="-0.10803">
        <ele>133.8</ele>
        <time>2021-01-31 13:46:31</time>
      </trkpt>
      <trkpt lat="38.83341" lon="-0.10803">
        <ele>133.6</ele>
        <time>2021-01-31 13:46:32</time>
      </trkpt>
      <trkpt lat="38.83338" lon="-0.10804">
        <ele>133.6</ele>
        <time>2021-01-31 13:46:33</time>
      </trkpt>
      <trkpt lat="38.83336" lon="-0.10804">
        <ele>133.6</ele>
        <time>2021-01-31 13:46:34</time>
      </trkpt>
      <trkpt lat="38.83334" lon="-0.10805">
        <ele>134.2</ele>
        <time>2021-01-31 13:46:35</time>
      </trkpt>
      <trkpt lat="38.83331" lon="-0.10805">
        <ele>134</ele>
        <time>2021-01-31 13:46:36</time>
      </trkpt>
      <trkpt lat="38.83329" lon="-0.10806">
        <ele>134</ele>
        <time>2021-01-31 13:46:37</time>
      </trkpt>
      <trkpt lat="38.83326" lon="-0.10807">
        <ele>134</ele>
        <time>2021-01-31 13:46:38</time>
      </trkpt>
      <trkpt lat="38.83324" lon="-0.10807">
        <ele>134.6</ele>
        <time>2021-01-31 13:46:39</time>
      </trkpt>
      <trkpt lat="38.83321" lon="-0.10808">
        <ele>134.6</ele>
        <time>2021-01-31 13:46:40</time>
      </trkpt>
      <trkpt lat="38.83319" lon="-0.10809">
        <ele>134.6</ele>
        <time>2021-01-31 13:46:41</time>
      </trkpt>
      <trkpt lat="38.83317" lon="-0.10809">
        <ele>134.6</ele>
        <time>2021-01-31 13:46:42</time>
      </trkpt>
      <trkpt lat="38.83314" lon="-0.10809">
        <ele>135.6</ele>
        <time>2021-01-31 13:46:43</time>
      </trkpt>
      <trkpt lat="38.83312" lon="-0.1081">
        <ele>136.4</ele>
        <time>2021-01-31 13:46:44</time>
      </trkpt>
      <trkpt lat="38.8331" lon="-0.10812">
        <ele>136.4</ele>
        <time>2021-01-31 13:46:45</time>
      </trkpt>
      <trkpt lat="38.83308" lon="-0.10814">
        <ele>136.4</ele>
        <time>2021-01-31 13:46:46</time>
      </trkpt>
      <trkpt lat="38.83307" lon="-0.10816">
        <ele>135.4</ele>
        <time>2021-01-31 13:46:47</time>
      </trkpt>
      <trkpt lat="38.83306" lon="-0.10818">
        <ele>134.4</ele>
        <time>2021-01-31 13:46:48</time>
      </trkpt>
      <trkpt lat="38.83305" lon="-0.10821">
        <ele>134.4</ele>
        <time>2021-01-31 13:46:49</time>
      </trkpt>
      <trkpt lat="38.83305" lon="-0.10824">
        <ele>134.4</ele>
        <time>2021-01-31 13:46:50</time>
      </trkpt>
      <trkpt lat="38.83305" lon="-0.10827">
        <ele>135.4</ele>
        <time>2021-01-31 13:46:51</time>
      </trkpt>
      <trkpt lat="38.83304" lon="-0.1083">
        <ele>135.8</ele>
        <time>2021-01-31 13:46:52</time>
      </trkpt>
      <trkpt lat="38.83304" lon="-0.10832">
        <ele>135.8</ele>
        <time>2021-01-31 13:46:53</time>
      </trkpt>
      <trkpt lat="38.83305" lon="-0.10835">
        <ele>135.8</ele>
        <time>2021-01-31 13:46:54</time>
      </trkpt>
      <trkpt lat="38.83305" lon="-0.10838">
        <ele>134.8</ele>
        <time>2021-01-31 13:46:55</time>
      </trkpt>
      <trkpt lat="38.83304" lon="-0.10841">
        <ele>136.4</ele>
        <time>2021-01-31 13:46:56</time>
      </trkpt>
      <trkpt lat="38.83304" lon="-0.10841">
        <ele>136.4</ele>
        <time>2021-01-31 13:46:57</time>
      </trkpt>
      <trkpt lat="38.83304" lon="-0.10841">
        <ele>136.4</ele>
        <time>2021-01-31 13:46:58</time>
      </trkpt>
      <trkpt lat="38.83304" lon="-0.10849">
        <ele>137</ele>
        <time>2021-01-31 13:46:59</time>
      </trkpt>
      <trkpt lat="38.83304" lon="-0.10851">
        <ele>137.6</ele>
        <time>2021-01-31 13:47:00</time>
      </trkpt>
      <trkpt lat="38.83304" lon="-0.10854">
        <ele>137.6</ele>
        <time>2021-01-31 13:47:01</time>
      </trkpt>
      <trkpt lat="38.83304" lon="-0.10857">
        <ele>137.6</ele>
        <time>2021-01-31 13:47:02</time>
      </trkpt>
      <trkpt lat="38.83304" lon="-0.10857">
        <ele>137.6</ele>
        <time>2021-01-31 13:47:03</time>
      </trkpt>
      <trkpt lat="38.83304" lon="-0.10862">
        <ele>137.4</ele>
        <time>2021-01-31 13:47:04</time>
      </trkpt>
      <trkpt lat="38.83304" lon="-0.10865">
        <ele>137.4</ele>
        <time>2021-01-31 13:47:05</time>
      </trkpt>
      <trkpt lat="38.83304" lon="-0.10867">
        <ele>137.4</ele>
        <time>2021-01-31 13:47:06</time>
      </trkpt>
      <trkpt lat="38.83304" lon="-0.1087">
        <ele>138.4</ele>
        <time>2021-01-31 13:47:07</time>
      </trkpt>
      <trkpt lat="38.83304" lon="-0.10873">
        <ele>141.8</ele>
        <time>2021-01-31 13:47:08</time>
      </trkpt>
      <trkpt lat="38.83304" lon="-0.10873">
        <ele>141.8</ele>
        <time>2021-01-31 13:47:09</time>
      </trkpt>
      <trkpt lat="38.83303" lon="-0.10878">
        <ele>141.8</ele>
        <time>2021-01-31 13:47:10</time>
      </trkpt>
      <trkpt lat="38.83303" lon="-0.10881">
        <ele>140.8</ele>
        <time>2021-01-31 13:47:11</time>
      </trkpt>
      <trkpt lat="38.83303" lon="-0.10884">
        <ele>138.8</ele>
        <time>2021-01-31 13:47:12</time>
      </trkpt>
      <trkpt lat="38.83303" lon="-0.10884">
        <ele>138.8</ele>
        <time>2021-01-31 13:47:13</time>
      </trkpt>
      <trkpt lat="38.83303" lon="-0.10884">
        <ele>138.8</ele>
        <time>2021-01-31 13:47:14</time>
      </trkpt>
      <trkpt lat="38.83303" lon="-0.10893">
        <ele>137.8</ele>
        <time>2021-01-31 13:47:15</time>
      </trkpt>
      <trkpt lat="38.83303" lon="-0.10896">
        <ele>136.4</ele>
        <time>2021-01-31 13:47:16</time>
      </trkpt>
      <trkpt lat="38.83303" lon="-0.10896">
        <ele>136.4</ele>
        <time>2021-01-31 13:47:17</time>
      </trkpt>
      <trkpt lat="38.83302" lon="-0.10902">
        <ele>136.4</ele>
        <time>2021-01-31 13:47:18</time>
      </trkpt>
      <trkpt lat="38.83302" lon="-0.10905">
        <ele>137.4</ele>
        <time>2021-01-31 13:47:19</time>
      </trkpt>
      <trkpt lat="38.83301" lon="-0.10908">
        <ele>138.4</ele>
        <time>2021-01-31 13:47:20</time>
      </trkpt>
      <trkpt lat="38.83301" lon="-0.10908">
        <ele>138.4</ele>
        <time>2021-01-31 13:47:21</time>
      </trkpt>
      <trkpt lat="38.833" lon="-0.10914">
        <ele>138.4</ele>
        <time>2021-01-31 13:47:22</time>
      </trkpt>
      <trkpt lat="38.83299" lon="-0.10917">
        <ele>137.4</ele>
        <time>2021-01-31 13:47:23</time>
      </trkpt>
      <trkpt lat="38.83298" lon="-0.1092">
        <ele>130.2</ele>
        <time>2021-01-31 13:47:24</time>
      </trkpt>
      <trkpt lat="38.83298" lon="-0.10922">
        <ele>130.2</ele>
        <time>2021-01-31 13:47:25</time>
      </trkpt>
      <trkpt lat="38.83297" lon="-0.10925">
        <ele>130.2</ele>
        <time>2021-01-31 13:47:26</time>
      </trkpt>
      <trkpt lat="38.83296" lon="-0.10929">
        <ele>130.2</ele>
        <time>2021-01-31 13:47:27</time>
      </trkpt>
      <trkpt lat="38.83296" lon="-0.10929">
        <ele>130.2</ele>
        <time>2021-01-31 13:47:28</time>
      </trkpt>
      <trkpt lat="38.83296" lon="-0.10929">
        <ele>130.2</ele>
        <time>2021-01-31 13:47:29</time>
      </trkpt>
      <trkpt lat="38.83296" lon="-0.10929">
        <ele>140.4</ele>
        <time>2021-01-31 13:47:30</time>
      </trkpt>
      <trkpt lat="38.83288" lon="-0.10941">
        <ele>139.4</ele>
        <time>2021-01-31 13:47:31</time>
      </trkpt>
      <trkpt lat="38.83286" lon="-0.10945">
        <ele>138.4</ele>
        <time>2021-01-31 13:47:32</time>
      </trkpt>
      <trkpt lat="38.83284" lon="-0.10948">
        <ele>138.4</ele>
        <time>2021-01-31 13:47:33</time>
      </trkpt>
      <trkpt lat="38.83282" lon="-0.10951">
        <ele>138.4</ele>
        <time>2021-01-31 13:47:34</time>
      </trkpt>
      <trkpt lat="38.8328" lon="-0.10954">
        <ele>138.4</ele>
        <time>2021-01-31 13:47:35</time>
      </trkpt>
      <trkpt lat="38.83279" lon="-0.10957">
        <ele>140.6</ele>
        <time>2021-01-31 13:47:36</time>
      </trkpt>
      <trkpt lat="38.83277" lon="-0.1096">
        <ele>140.6</ele>
        <time>2021-01-31 13:47:37</time>
      </trkpt>
      <trkpt lat="38.83275" lon="-0.10963">
        <ele>140.6</ele>
        <time>2021-01-31 13:47:38</time>
      </trkpt>
      <trkpt lat="38.83273" lon="-0.10966">
        <ele>140.6</ele>
        <time>2021-01-31 13:47:39</time>
      </trkpt>
      <trkpt lat="38.83272" lon="-0.10969">
        <ele>140.8</ele>
        <time>2021-01-31 13:47:40</time>
      </trkpt>
      <trkpt lat="38.83271" lon="-0.10973">
        <ele>140.8</ele>
        <time>2021-01-31 13:47:41</time>
      </trkpt>
      <trkpt lat="38.83269" lon="-0.10977">
        <ele>140.8</ele>
        <time>2021-01-31 13:47:42</time>
      </trkpt>
      <trkpt lat="38.83268" lon="-0.10981">
        <ele>140.8</ele>
        <time>2021-01-31 13:47:43</time>
      </trkpt>
      <trkpt lat="38.83267" lon="-0.10984">
        <ele>141.4</ele>
        <time>2021-01-31 13:47:44</time>
      </trkpt>
      <trkpt lat="38.83266" lon="-0.10988">
        <ele>141.4</ele>
        <time>2021-01-31 13:47:45</time>
      </trkpt>
      <trkpt lat="38.83266" lon="-0.10988">
        <ele>141.4</ele>
        <time>2021-01-31 13:47:46</time>
      </trkpt>
      <trkpt lat="38.83266" lon="-0.10988">
        <ele>141.4</ele>
        <time>2021-01-31 13:47:47</time>
      </trkpt>
      <trkpt lat="38.83266" lon="-0.10988">
        <ele>142.6</ele>
        <time>2021-01-31 13:47:48</time>
      </trkpt>
      <trkpt lat="38.83265" lon="-0.11004">
        <ele>142.6</ele>
        <time>2021-01-31 13:47:49</time>
      </trkpt>
      <trkpt lat="38.83265" lon="-0.11008">
        <ele>142.6</ele>
        <time>2021-01-31 13:47:50</time>
      </trkpt>
      <trkpt lat="38.83265" lon="-0.11012">
        <ele>142.6</ele>
        <time>2021-01-31 13:47:51</time>
      </trkpt>
      <trkpt lat="38.83265" lon="-0.11015">
        <ele>143.4</ele>
        <time>2021-01-31 13:47:52</time>
      </trkpt>
      <trkpt lat="38.83265" lon="-0.11019">
        <ele>143.4</ele>
        <time>2021-01-31 13:47:53</time>
      </trkpt>
      <trkpt lat="38.83265" lon="-0.11023">
        <ele>143.4</ele>
        <time>2021-01-31 13:47:54</time>
      </trkpt>
      <trkpt lat="38.83266" lon="-0.11027">
        <ele>143.4</ele>
        <time>2021-01-31 13:47:55</time>
      </trkpt>
      <trkpt lat="38.83266" lon="-0.11031">
        <ele>144</ele>
        <time>2021-01-31 13:47:56</time>
      </trkpt>
      <trkpt lat="38.83267" lon="-0.11035">
        <ele>144</ele>
        <time>2021-01-31 13:47:57</time>
      </trkpt>
      <trkpt lat="38.83268" lon="-0.11039">
        <ele>144</ele>
        <time>2021-01-31 13:47:58</time>
      </trkpt>
      <trkpt lat="38.83268" lon="-0.11042">
        <ele>144</ele>
        <time>2021-01-31 13:47:59</time>
      </trkpt>
      <trkpt lat="38.83269" lon="-0.11046">
        <ele>145</ele>
        <time>2021-01-31 13:48:00</time>
      </trkpt>
      <trkpt lat="38.8327" lon="-0.1105">
        <ele>145</ele>
        <time>2021-01-31 13:48:01</time>
      </trkpt>
      <trkpt lat="38.8327" lon="-0.11053">
        <ele>145</ele>
        <time>2021-01-31 13:48:02</time>
      </trkpt>
      <trkpt lat="38.83271" lon="-0.11057">
        <ele>145.8</ele>
        <time>2021-01-31 13:48:03</time>
      </trkpt>
      <trkpt lat="38.83272" lon="-0.11061">
        <ele>145.6</ele>
        <time>2021-01-31 13:48:04</time>
      </trkpt>
      <trkpt lat="38.83272" lon="-0.11061">
        <ele>145.6</ele>
        <time>2021-01-31 13:48:05</time>
      </trkpt>
      <trkpt lat="38.83273" lon="-0.11068">
        <ele>145.6</ele>
        <time>2021-01-31 13:48:06</time>
      </trkpt>
      <trkpt lat="38.83273" lon="-0.11072">
        <ele>145.6</ele>
        <time>2021-01-31 13:48:07</time>
      </trkpt>
      <trkpt lat="38.83274" lon="-0.11076">
        <ele>146.6</ele>
        <time>2021-01-31 13:48:08</time>
      </trkpt>
      <trkpt lat="38.83275" lon="-0.11079">
        <ele>146.6</ele>
        <time>2021-01-31 13:48:09</time>
      </trkpt>
      <trkpt lat="38.83275" lon="-0.11083">
        <ele>146.6</ele>
        <time>2021-01-31 13:48:10</time>
      </trkpt>
      <trkpt lat="38.83275" lon="-0.11087">
        <ele>146.6</ele>
        <time>2021-01-31 13:48:11</time>
      </trkpt>
      <trkpt lat="38.83276" lon="-0.11091">
        <ele>147</ele>
        <time>2021-01-31 13:48:12</time>
      </trkpt>
      <trkpt lat="38.83276" lon="-0.11094">
        <ele>147</ele>
        <time>2021-01-31 13:48:13</time>
      </trkpt>
      <trkpt lat="38.83276" lon="-0.11098">
        <ele>147</ele>
        <time>2021-01-31 13:48:14</time>
      </trkpt>
      <trkpt lat="38.83275" lon="-0.11102">
        <ele>147.8</ele>
        <time>2021-01-31 13:48:15</time>
      </trkpt>
      <trkpt lat="38.83274" lon="-0.11105">
        <ele>148.4</ele>
        <time>2021-01-31 13:48:16</time>
      </trkpt>
      <trkpt lat="38.83272" lon="-0.11108">
        <ele>148.4</ele>
        <time>2021-01-31 13:48:17</time>
      </trkpt>
      <trkpt lat="38.83269" lon="-0.1111">
        <ele>148.4</ele>
        <time>2021-01-31 13:48:18</time>
      </trkpt>
      <trkpt lat="38.83269" lon="-0.1111">
        <ele>149.4</ele>
        <time>2021-01-31 13:48:19</time>
      </trkpt>
      <trkpt lat="38.83264" lon="-0.11114">
        <ele>149.8</ele>
        <time>2021-01-31 13:48:20</time>
      </trkpt>
      <trkpt lat="38.83261" lon="-0.11114">
        <ele>149.8</ele>
        <time>2021-01-31 13:48:21</time>
      </trkpt>
      <trkpt lat="38.83258" lon="-0.11114">
        <ele>149.8</ele>
        <time>2021-01-31 13:48:22</time>
      </trkpt>
      <trkpt lat="38.83255" lon="-0.11113">
        <ele>150.4</ele>
        <time>2021-01-31 13:48:23</time>
      </trkpt>
      <trkpt lat="38.83253" lon="-0.11112">
        <ele>151</ele>
        <time>2021-01-31 13:48:24</time>
      </trkpt>
      <trkpt lat="38.83251" lon="-0.1111">
        <ele>151</ele>
        <time>2021-01-31 13:48:25</time>
      </trkpt>
      <trkpt lat="38.83249" lon="-0.11107">
        <ele>151</ele>
        <time>2021-01-31 13:48:26</time>
      </trkpt>
      <trkpt lat="38.83247" lon="-0.11104">
        <ele>151.8</ele>
        <time>2021-01-31 13:48:27</time>
      </trkpt>
      <trkpt lat="38.83246" lon="-0.11101">
        <ele>151.8</ele>
        <time>2021-01-31 13:48:28</time>
      </trkpt>
      <trkpt lat="38.83245" lon="-0.11097">
        <ele>151.8</ele>
        <time>2021-01-31 13:48:29</time>
      </trkpt>
      <trkpt lat="38.83245" lon="-0.11094">
        <ele>151.8</ele>
        <time>2021-01-31 13:48:30</time>
      </trkpt>
      <trkpt lat="38.83244" lon="-0.1109">
        <ele>152.4</ele>
        <time>2021-01-31 13:48:31</time>
      </trkpt>
      <trkpt lat="38.83243" lon="-0.11086">
        <ele>152.2</ele>
        <time>2021-01-31 13:48:32</time>
      </trkpt>
      <trkpt lat="38.83243" lon="-0.11081">
        <ele>152.2</ele>
        <time>2021-01-31 13:48:33</time>
      </trkpt>
      <trkpt lat="38.83242" lon="-0.11076">
        <ele>152.2</ele>
        <time>2021-01-31 13:48:34</time>
      </trkpt>
      <trkpt lat="38.83241" lon="-0.11072">
        <ele>152.8</ele>
        <time>2021-01-31 13:48:35</time>
      </trkpt>
      <trkpt lat="38.8324" lon="-0.11067">
        <ele>153.4</ele>
        <time>2021-01-31 13:48:36</time>
      </trkpt>
      <trkpt lat="38.83239" lon="-0.11062">
        <ele>153.4</ele>
        <time>2021-01-31 13:48:37</time>
      </trkpt>
      <trkpt lat="38.83238" lon="-0.11058">
        <ele>153.4</ele>
        <time>2021-01-31 13:48:38</time>
      </trkpt>
      <trkpt lat="38.83237" lon="-0.11053">
        <ele>153.4</ele>
        <time>2021-01-31 13:48:39</time>
      </trkpt>
      <trkpt lat="38.83235" lon="-0.11048">
        <ele>153.4</ele>
        <time>2021-01-31 13:48:40</time>
      </trkpt>
      <trkpt lat="38.83234" lon="-0.11043">
        <ele>153.4</ele>
        <time>2021-01-31 13:48:41</time>
      </trkpt>
      <trkpt lat="38.83232" lon="-0.11038">
        <ele>153.4</ele>
        <time>2021-01-31 13:48:42</time>
      </trkpt>
      <trkpt lat="38.8323" lon="-0.11033">
        <ele>153.4</ele>
        <time>2021-01-31 13:48:43</time>
      </trkpt>
      <trkpt lat="38.83229" lon="-0.11028">
        <ele>154</ele>
        <time>2021-01-31 13:48:44</time>
      </trkpt>
      <trkpt lat="38.83227" lon="-0.11023">
        <ele>154</ele>
        <time>2021-01-31 13:48:45</time>
      </trkpt>
      <trkpt lat="38.83226" lon="-0.11018">
        <ele>154</ele>
        <time>2021-01-31 13:48:46</time>
      </trkpt>
      <trkpt lat="38.83224" lon="-0.11012">
        <ele>154</ele>
        <time>2021-01-31 13:48:47</time>
      </trkpt>
      <trkpt lat="38.83223" lon="-0.11007">
        <ele>154.6</ele>
        <time>2021-01-31 13:48:48</time>
      </trkpt>
      <trkpt lat="38.83222" lon="-0.11002">
        <ele>154.6</ele>
        <time>2021-01-31 13:48:49</time>
      </trkpt>
      <trkpt lat="38.83221" lon="-0.10996">
        <ele>154.6</ele>
        <time>2021-01-31 13:48:50</time>
      </trkpt>
      <trkpt lat="38.8322" lon="-0.1099">
        <ele>155.2</ele>
        <time>2021-01-31 13:48:51</time>
      </trkpt>
      <trkpt lat="38.8322" lon="-0.10985">
        <ele>155.6</ele>
        <time>2021-01-31 13:48:52</time>
      </trkpt>
      <trkpt lat="38.8322" lon="-0.10979">
        <ele>155.6</ele>
        <time>2021-01-31 13:48:53</time>
      </trkpt>
      <trkpt lat="38.8322" lon="-0.10973">
        <ele>155.6</ele>
        <time>2021-01-31 13:48:54</time>
      </trkpt>
      <trkpt lat="38.83219" lon="-0.10968">
        <ele>156.4</ele>
        <time>2021-01-31 13:48:55</time>
      </trkpt>
      <trkpt lat="38.83218" lon="-0.10962">
        <ele>156.8</ele>
        <time>2021-01-31 13:48:56</time>
      </trkpt>
      <trkpt lat="38.83218" lon="-0.10957">
        <ele>156.8</ele>
        <time>2021-01-31 13:48:57</time>
      </trkpt>
      <trkpt lat="38.83216" lon="-0.10952">
        <ele>156.8</ele>
        <time>2021-01-31 13:48:58</time>
      </trkpt>
      <trkpt lat="38.83215" lon="-0.10948">
        <ele>157.6</ele>
        <time>2021-01-31 13:48:59</time>
      </trkpt>
      <trkpt lat="38.83213" lon="-0.10944">
        <ele>157.8</ele>
        <time>2021-01-31 13:49:00</time>
      </trkpt>
      <trkpt lat="38.83211" lon="-0.10941">
        <ele>157.8</ele>
        <time>2021-01-31 13:49:01</time>
      </trkpt>
      <trkpt lat="38.83209" lon="-0.10937">
        <ele>157.8</ele>
        <time>2021-01-31 13:49:02</time>
      </trkpt>
      <trkpt lat="38.83207" lon="-0.10934">
        <ele>158.6</ele>
        <time>2021-01-31 13:49:03</time>
      </trkpt>
      <trkpt lat="38.83205" lon="-0.10931">
        <ele>158.8</ele>
        <time>2021-01-31 13:49:04</time>
      </trkpt>
      <trkpt lat="38.83204" lon="-0.10927">
        <ele>158.8</ele>
        <time>2021-01-31 13:49:05</time>
      </trkpt>
      <trkpt lat="38.83202" lon="-0.10924">
        <ele>158.8</ele>
        <time>2021-01-31 13:49:06</time>
      </trkpt>
      <trkpt lat="38.832" lon="-0.10921">
        <ele>158.8</ele>
        <time>2021-01-31 13:49:07</time>
      </trkpt>
      <trkpt lat="38.83198" lon="-0.10917">
        <ele>159.4</ele>
        <time>2021-01-31 13:49:08</time>
      </trkpt>
      <trkpt lat="38.83196" lon="-0.10914">
        <ele>159.4</ele>
        <time>2021-01-31 13:49:09</time>
      </trkpt>
      <trkpt lat="38.83194" lon="-0.10911">
        <ele>159.4</ele>
        <time>2021-01-31 13:49:10</time>
      </trkpt>
      <trkpt lat="38.83191" lon="-0.10909">
        <ele>160.4</ele>
        <time>2021-01-31 13:49:11</time>
      </trkpt>
      <trkpt lat="38.83189" lon="-0.10906">
        <ele>160.8</ele>
        <time>2021-01-31 13:49:12</time>
      </trkpt>
      <trkpt lat="38.83186" lon="-0.10904">
        <ele>160.8</ele>
        <time>2021-01-31 13:49:13</time>
      </trkpt>
      <trkpt lat="38.83184" lon="-0.10902">
        <ele>160.8</ele>
        <time>2021-01-31 13:49:14</time>
      </trkpt>
      <trkpt lat="38.83181" lon="-0.109">
        <ele>161.6</ele>
        <time>2021-01-31 13:49:15</time>
      </trkpt>
      <trkpt lat="38.83178" lon="-0.10898">
        <ele>161.6</ele>
        <time>2021-01-31 13:49:16</time>
      </trkpt>
      <trkpt lat="38.83175" lon="-0.10896">
        <ele>161.6</ele>
        <time>2021-01-31 13:49:17</time>
      </trkpt>
      <trkpt lat="38.83172" lon="-0.10894">
        <ele>161.6</ele>
        <time>2021-01-31 13:49:18</time>
      </trkpt>
      <trkpt lat="38.83169" lon="-0.10893">
        <ele>162.2</ele>
        <time>2021-01-31 13:49:19</time>
      </trkpt>
      <trkpt lat="38.83166" lon="-0.10891">
        <ele>162.6</ele>
        <time>2021-01-31 13:49:20</time>
      </trkpt>
      <trkpt lat="38.83163" lon="-0.1089">
        <ele>162.6</ele>
        <time>2021-01-31 13:49:21</time>
      </trkpt>
      <trkpt lat="38.8316" lon="-0.10888">
        <ele>162.6</ele>
        <time>2021-01-31 13:49:22</time>
      </trkpt>
      <trkpt lat="38.83157" lon="-0.10886">
        <ele>162</ele>
        <time>2021-01-31 13:49:23</time>
      </trkpt>
      <trkpt lat="38.83154" lon="-0.10884">
        <ele>162.4</ele>
        <time>2021-01-31 13:49:24</time>
      </trkpt>
      <trkpt lat="38.83151" lon="-0.10882">
        <ele>162.4</ele>
        <time>2021-01-31 13:49:25</time>
      </trkpt>
      <trkpt lat="38.83148" lon="-0.10879">
        <ele>162.4</ele>
        <time>2021-01-31 13:49:26</time>
      </trkpt>
      <trkpt lat="38.83145" lon="-0.10877">
        <ele>162.8</ele>
        <time>2021-01-31 13:49:27</time>
      </trkpt>
      <trkpt lat="38.83142" lon="-0.10874">
        <ele>162.8</ele>
        <time>2021-01-31 13:49:28</time>
      </trkpt>
      <trkpt lat="38.83139" lon="-0.10871">
        <ele>162.8</ele>
        <time>2021-01-31 13:49:29</time>
      </trkpt>
      <trkpt lat="38.83137" lon="-0.10868">
        <ele>162.8</ele>
        <time>2021-01-31 13:49:30</time>
      </trkpt>
      <trkpt lat="38.83134" lon="-0.10864">
        <ele>162.8</ele>
        <time>2021-01-31 13:49:31</time>
      </trkpt>
      <trkpt lat="38.83131" lon="-0.10861">
        <ele>163.4</ele>
        <time>2021-01-31 13:49:32</time>
      </trkpt>
      <trkpt lat="38.83129" lon="-0.10858">
        <ele>163.4</ele>
        <time>2021-01-31 13:49:33</time>
      </trkpt>
      <trkpt lat="38.83126" lon="-0.10855">
        <ele>163.4</ele>
        <time>2021-01-31 13:49:34</time>
      </trkpt>
      <trkpt lat="38.83124" lon="-0.10851">
        <ele>164</ele>
        <time>2021-01-31 13:49:35</time>
      </trkpt>
      <trkpt lat="38.83122" lon="-0.10848">
        <ele>164.2</ele>
        <time>2021-01-31 13:49:36</time>
      </trkpt>
      <trkpt lat="38.8312" lon="-0.10844">
        <ele>164.2</ele>
        <time>2021-01-31 13:49:37</time>
      </trkpt>
      <trkpt lat="38.83118" lon="-0.1084">
        <ele>164.2</ele>
        <time>2021-01-31 13:49:38</time>
      </trkpt>
      <trkpt lat="38.83117" lon="-0.10837">
        <ele>165</ele>
        <time>2021-01-31 13:49:39</time>
      </trkpt>
      <trkpt lat="38.83115" lon="-0.10834">
        <ele>165</ele>
        <time>2021-01-31 13:49:40</time>
      </trkpt>
      <trkpt lat="38.83114" lon="-0.10831">
        <ele>165</ele>
        <time>2021-01-31 13:49:41</time>
      </trkpt>
      <trkpt lat="38.83113" lon="-0.10827">
        <ele>165</ele>
        <time>2021-01-31 13:49:42</time>
      </trkpt>
      <trkpt lat="38.83111" lon="-0.10824">
        <ele>166</ele>
        <time>2021-01-31 13:49:43</time>
      </trkpt>
      <trkpt lat="38.8311" lon="-0.10821">
        <ele>166.4</ele>
        <time>2021-01-31 13:49:44</time>
      </trkpt>
      <trkpt lat="38.83109" lon="-0.10818">
        <ele>166.4</ele>
        <time>2021-01-31 13:49:45</time>
      </trkpt>
      <trkpt lat="38.83107" lon="-0.10814">
        <ele>166.4</ele>
        <time>2021-01-31 13:49:46</time>
      </trkpt>
      <trkpt lat="38.83106" lon="-0.10811">
        <ele>166.4</ele>
        <time>2021-01-31 13:49:47</time>
      </trkpt>
      <trkpt lat="38.83105" lon="-0.10808">
        <ele>167</ele>
        <time>2021-01-31 13:49:48</time>
      </trkpt>
      <trkpt lat="38.83104" lon="-0.10805">
        <ele>167</ele>
        <time>2021-01-31 13:49:49</time>
      </trkpt>
      <trkpt lat="38.83103" lon="-0.10801">
        <ele>167</ele>
        <time>2021-01-31 13:49:50</time>
      </trkpt>
      <trkpt lat="38.83102" lon="-0.10798">
        <ele>168</ele>
        <time>2021-01-31 13:49:51</time>
      </trkpt>
      <trkpt lat="38.83101" lon="-0.10795">
        <ele>168.6</ele>
        <time>2021-01-31 13:49:52</time>
      </trkpt>
      <trkpt lat="38.831" lon="-0.10792">
        <ele>168.6</ele>
        <time>2021-01-31 13:49:53</time>
      </trkpt>
      <trkpt lat="38.83099" lon="-0.10789">
        <ele>168.6</ele>
        <time>2021-01-31 13:49:54</time>
      </trkpt>
      <trkpt lat="38.83098" lon="-0.10786">
        <ele>169</ele>
        <time>2021-01-31 13:49:55</time>
      </trkpt>
      <trkpt lat="38.83097" lon="-0.10783">
        <ele>169.8</ele>
        <time>2021-01-31 13:49:56</time>
      </trkpt>
      <trkpt lat="38.83096" lon="-0.1078">
        <ele>169.8</ele>
        <time>2021-01-31 13:49:57</time>
      </trkpt>
      <trkpt lat="38.83095" lon="-0.10776">
        <ele>169.8</ele>
        <time>2021-01-31 13:49:58</time>
      </trkpt>
      <trkpt lat="38.83094" lon="-0.10773">
        <ele>170.4</ele>
        <time>2021-01-31 13:49:59</time>
      </trkpt>
      <trkpt lat="38.83093" lon="-0.1077">
        <ele>170.6</ele>
        <time>2021-01-31 13:50:00</time>
      </trkpt>
      <trkpt lat="38.83093" lon="-0.10766">
        <ele>170.6</ele>
        <time>2021-01-31 13:50:01</time>
      </trkpt>
      <trkpt lat="38.83092" lon="-0.10763">
        <ele>170.6</ele>
        <time>2021-01-31 13:50:02</time>
      </trkpt>
      <trkpt lat="38.83091" lon="-0.10759">
        <ele>171.2</ele>
        <time>2021-01-31 13:50:03</time>
      </trkpt>
      <trkpt lat="38.8309" lon="-0.10755">
        <ele>171.2</ele>
        <time>2021-01-31 13:50:04</time>
      </trkpt>
      <trkpt lat="38.83089" lon="-0.10752">
        <ele>171.2</ele>
        <time>2021-01-31 13:50:05</time>
      </trkpt>
      <trkpt lat="38.83087" lon="-0.10748">
        <ele>171.2</ele>
        <time>2021-01-31 13:50:06</time>
      </trkpt>
      <trkpt lat="38.83086" lon="-0.10745">
        <ele>171.4</ele>
        <time>2021-01-31 13:50:07</time>
      </trkpt>
      <trkpt lat="38.83084" lon="-0.10742">
        <ele>171.6</ele>
        <time>2021-01-31 13:50:08</time>
      </trkpt>
      <trkpt lat="38.83082" lon="-0.10739">
        <ele>171.6</ele>
        <time>2021-01-31 13:50:09</time>
      </trkpt>
      <trkpt lat="38.8308" lon="-0.10735">
        <ele>171.6</ele>
        <time>2021-01-31 13:50:10</time>
      </trkpt>
      <trkpt lat="38.83078" lon="-0.10733">
        <ele>172.4</ele>
        <time>2021-01-31 13:50:11</time>
      </trkpt>
      <trkpt lat="38.83076" lon="-0.10731">
        <ele>172.8</ele>
        <time>2021-01-31 13:50:12</time>
      </trkpt>
      <trkpt lat="38.83073" lon="-0.10729">
        <ele>172.8</ele>
        <time>2021-01-31 13:50:13</time>
      </trkpt>
      <trkpt lat="38.83071" lon="-0.10727">
        <ele>172.8</ele>
        <time>2021-01-31 13:50:14</time>
      </trkpt>
      <trkpt lat="38.83069" lon="-0.10725">
        <ele>173.8</ele>
        <time>2021-01-31 13:50:15</time>
      </trkpt>
      <trkpt lat="38.83067" lon="-0.10723">
        <ele>174.6</ele>
        <time>2021-01-31 13:50:16</time>
      </trkpt>
      <trkpt lat="38.83064" lon="-0.10722">
        <ele>174.6</ele>
        <time>2021-01-31 13:50:17</time>
      </trkpt>
      <trkpt lat="38.83062" lon="-0.10721">
        <ele>174.6</ele>
        <time>2021-01-31 13:50:18</time>
      </trkpt>
      <trkpt lat="38.8306" lon="-0.1072">
        <ele>174.6</ele>
        <time>2021-01-31 13:50:19</time>
      </trkpt>
      <trkpt lat="38.83057" lon="-0.10718">
        <ele>175</ele>
        <time>2021-01-31 13:50:20</time>
      </trkpt>
      <trkpt lat="38.83055" lon="-0.10717">
        <ele>175</ele>
        <time>2021-01-31 13:50:21</time>
      </trkpt>
      <trkpt lat="38.83053" lon="-0.10716">
        <ele>175</ele>
        <time>2021-01-31 13:50:22</time>
      </trkpt>
      <trkpt lat="38.8305" lon="-0.10715">
        <ele>175.2</ele>
        <time>2021-01-31 13:50:23</time>
      </trkpt>
      <trkpt lat="38.83048" lon="-0.10713">
        <ele>176.2</ele>
        <time>2021-01-31 13:50:24</time>
      </trkpt>
      <trkpt lat="38.83046" lon="-0.10712">
        <ele>176.2</ele>
        <time>2021-01-31 13:50:25</time>
      </trkpt>
      <trkpt lat="38.83043" lon="-0.1071">
        <ele>176.2</ele>
        <time>2021-01-31 13:50:26</time>
      </trkpt>
      <trkpt lat="38.83041" lon="-0.10709">
        <ele>176.2</ele>
        <time>2021-01-31 13:50:27</time>
      </trkpt>
      <trkpt lat="38.83039" lon="-0.10707">
        <ele>176.8</ele>
        <time>2021-01-31 13:50:28</time>
      </trkpt>
      <trkpt lat="38.83036" lon="-0.10705">
        <ele>176.8</ele>
        <time>2021-01-31 13:50:29</time>
      </trkpt>
      <trkpt lat="38.83034" lon="-0.10703">
        <ele>176.8</ele>
        <time>2021-01-31 13:50:30</time>
      </trkpt>
      <trkpt lat="38.83032" lon="-0.10701">
        <ele>176.6</ele>
        <time>2021-01-31 13:50:31</time>
      </trkpt>
      <trkpt lat="38.8303" lon="-0.10699">
        <ele>177.4</ele>
        <time>2021-01-31 13:50:32</time>
      </trkpt>
      <trkpt lat="38.83027" lon="-0.10696">
        <ele>177.4</ele>
        <time>2021-01-31 13:50:33</time>
      </trkpt>
      <trkpt lat="38.83025" lon="-0.10694">
        <ele>177.4</ele>
        <time>2021-01-31 13:50:34</time>
      </trkpt>
      <trkpt lat="38.83023" lon="-0.10692">
        <ele>177.4</ele>
        <time>2021-01-31 13:50:35</time>
      </trkpt>
      <trkpt lat="38.83021" lon="-0.10689">
        <ele>177.6</ele>
        <time>2021-01-31 13:50:36</time>
      </trkpt>
      <trkpt lat="38.83019" lon="-0.10687">
        <ele>177.6</ele>
        <time>2021-01-31 13:50:37</time>
      </trkpt>
      <trkpt lat="38.83017" lon="-0.10685">
        <ele>177.6</ele>
        <time>2021-01-31 13:50:38</time>
      </trkpt>
      <trkpt lat="38.83015" lon="-0.10682">
        <ele>177.6</ele>
        <time>2021-01-31 13:50:39</time>
      </trkpt>
      <trkpt lat="38.83013" lon="-0.1068">
        <ele>178</ele>
        <time>2021-01-31 13:50:40</time>
      </trkpt>
      <trkpt lat="38.83011" lon="-0.10677">
        <ele>178</ele>
        <time>2021-01-31 13:50:41</time>
      </trkpt>
      <trkpt lat="38.83009" lon="-0.10675">
        <ele>178</ele>
        <time>2021-01-31 13:50:42</time>
      </trkpt>
      <trkpt lat="38.83007" lon="-0.10672">
        <ele>178</ele>
        <time>2021-01-31 13:50:43</time>
      </trkpt>
      <trkpt lat="38.83005" lon="-0.1067">
        <ele>178.8</ele>
        <time>2021-01-31 13:50:44</time>
      </trkpt>
      <trkpt lat="38.83003" lon="-0.10667">
        <ele>178.8</ele>
        <time>2021-01-31 13:50:45</time>
      </trkpt>
      <trkpt lat="38.83002" lon="-0.10665">
        <ele>178.8</ele>
        <time>2021-01-31 13:50:46</time>
      </trkpt>
      <trkpt lat="38.83" lon="-0.10663">
        <ele>179</ele>
        <time>2021-01-31 13:50:47</time>
      </trkpt>
      <trkpt lat="38.82998" lon="-0.10661">
        <ele>179.2</ele>
        <time>2021-01-31 13:50:48</time>
      </trkpt>
      <trkpt lat="38.82996" lon="-0.1066">
        <ele>179.2</ele>
        <time>2021-01-31 13:50:49</time>
      </trkpt>
      <trkpt lat="38.82996" lon="-0.1066">
        <ele>179.2</ele>
        <time>2021-01-31 13:50:50</time>
      </trkpt>
      <trkpt lat="38.82996" lon="-0.1066">
        <ele>179.2</ele>
        <time>2021-01-31 13:50:51</time>
      </trkpt>
      <trkpt lat="38.82996" lon="-0.1066">
        <ele>180.2</ele>
        <time>2021-01-31 13:50:52</time>
      </trkpt>
      <trkpt lat="38.82988" lon="-0.10652">
        <ele>180.2</ele>
        <time>2021-01-31 13:50:53</time>
      </trkpt>
      <trkpt lat="38.82986" lon="-0.10651">
        <ele>180.2</ele>
        <time>2021-01-31 13:50:54</time>
      </trkpt>
      <trkpt lat="38.82983" lon="-0.1065">
        <ele>180.8</ele>
        <time>2021-01-31 13:50:55</time>
      </trkpt>
      <trkpt lat="38.82981" lon="-0.10649">
        <ele>180.8</ele>
        <time>2021-01-31 13:50:56</time>
      </trkpt>
      <trkpt lat="38.82979" lon="-0.10646">
        <ele>180.8</ele>
        <time>2021-01-31 13:50:57</time>
      </trkpt>
      <trkpt lat="38.82977" lon="-0.10644">
        <ele>180.8</ele>
        <time>2021-01-31 13:50:58</time>
      </trkpt>
      <trkpt lat="38.82975" lon="-0.10642">
        <ele>180.8</ele>
        <time>2021-01-31 13:50:59</time>
      </trkpt>
      <trkpt lat="38.82973" lon="-0.1064">
        <ele>181.8</ele>
        <time>2021-01-31 13:51:00</time>
      </trkpt>
      <trkpt lat="38.82971" lon="-0.10637">
        <ele>181.8</ele>
        <time>2021-01-31 13:51:01</time>
      </trkpt>
      <trkpt lat="38.8297" lon="-0.10634">
        <ele>181.8</ele>
        <time>2021-01-31 13:51:02</time>
      </trkpt>
      <trkpt lat="38.82968" lon="-0.10631">
        <ele>182.4</ele>
        <time>2021-01-31 13:51:03</time>
      </trkpt>
      <trkpt lat="38.82966" lon="-0.10629">
        <ele>182.6</ele>
        <time>2021-01-31 13:51:04</time>
      </trkpt>
      <trkpt lat="38.82964" lon="-0.10627">
        <ele>182.6</ele>
        <time>2021-01-31 13:51:05</time>
      </trkpt>
      <trkpt lat="38.82962" lon="-0.10625">
        <ele>182.6</ele>
        <time>2021-01-31 13:51:06</time>
      </trkpt>
      <trkpt lat="38.8296" lon="-0.10623">
        <ele>183.2</ele>
        <time>2021-01-31 13:51:07</time>
      </trkpt>
      <trkpt lat="38.82957" lon="-0.10621">
        <ele>183</ele>
        <time>2021-01-31 13:51:08</time>
      </trkpt>
      <trkpt lat="38.82955" lon="-0.1062">
        <ele>183</ele>
        <time>2021-01-31 13:51:09</time>
      </trkpt>
      <trkpt lat="38.82953" lon="-0.10618">
        <ele>183</ele>
        <time>2021-01-31 13:51:10</time>
      </trkpt>
      <trkpt lat="38.82951" lon="-0.10616">
        <ele>184</ele>
        <time>2021-01-31 13:51:11</time>
      </trkpt>
      <trkpt lat="38.82949" lon="-0.10615">
        <ele>183.4</ele>
        <time>2021-01-31 13:51:12</time>
      </trkpt>
      <trkpt lat="38.82947" lon="-0.10613">
        <ele>183.4</ele>
        <time>2021-01-31 13:51:13</time>
      </trkpt>
      <trkpt lat="38.82945" lon="-0.10611">
        <ele>183.4</ele>
        <time>2021-01-31 13:51:14</time>
      </trkpt>
      <trkpt lat="38.82943" lon="-0.10609">
        <ele>184.4</ele>
        <time>2021-01-31 13:51:15</time>
      </trkpt>
      <trkpt lat="38.82941" lon="-0.10608">
        <ele>185.2</ele>
        <time>2021-01-31 13:51:16</time>
      </trkpt>
      <trkpt lat="38.82939" lon="-0.10606">
        <ele>185.2</ele>
        <time>2021-01-31 13:51:17</time>
      </trkpt>
      <trkpt lat="38.82937" lon="-0.10604">
        <ele>185.2</ele>
        <time>2021-01-31 13:51:18</time>
      </trkpt>
      <trkpt lat="38.82934" lon="-0.10601">
        <ele>185.2</ele>
        <time>2021-01-31 13:51:19</time>
      </trkpt>
      <trkpt lat="38.82932" lon="-0.106">
        <ele>185.8</ele>
        <time>2021-01-31 13:51:20</time>
      </trkpt>
      <trkpt lat="38.8293" lon="-0.10598">
        <ele>185.8</ele>
        <time>2021-01-31 13:51:21</time>
      </trkpt>
      <trkpt lat="38.82928" lon="-0.10596">
        <ele>185.8</ele>
        <time>2021-01-31 13:51:22</time>
      </trkpt>
      <trkpt lat="38.82926" lon="-0.10594">
        <ele>186.2</ele>
        <time>2021-01-31 13:51:23</time>
      </trkpt>
      <trkpt lat="38.82925" lon="-0.10592">
        <ele>186.2</ele>
        <time>2021-01-31 13:51:24</time>
      </trkpt>
      <trkpt lat="38.82923" lon="-0.1059">
        <ele>186.2</ele>
        <time>2021-01-31 13:51:25</time>
      </trkpt>
      <trkpt lat="38.82921" lon="-0.10587">
        <ele>186.2</ele>
        <time>2021-01-31 13:51:26</time>
      </trkpt>
      <trkpt lat="38.82919" lon="-0.10585">
        <ele>186.6</ele>
        <time>2021-01-31 13:51:27</time>
      </trkpt>
      <trkpt lat="38.82917" lon="-0.10582">
        <ele>187</ele>
        <time>2021-01-31 13:51:28</time>
      </trkpt>
      <trkpt lat="38.82915" lon="-0.1058">
        <ele>187</ele>
        <time>2021-01-31 13:51:29</time>
      </trkpt>
      <trkpt lat="38.82914" lon="-0.10578">
        <ele>187</ele>
        <time>2021-01-31 13:51:30</time>
      </trkpt>
      <trkpt lat="38.82912" lon="-0.10575">
        <ele>187</ele>
        <time>2021-01-31 13:51:31</time>
      </trkpt>
      <trkpt lat="38.8291" lon="-0.10573">
        <ele>187.4</ele>
        <time>2021-01-31 13:51:32</time>
      </trkpt>
      <trkpt lat="38.82908" lon="-0.10572">
        <ele>187.4</ele>
        <time>2021-01-31 13:51:33</time>
      </trkpt>
      <trkpt lat="38.82906" lon="-0.1057">
        <ele>187.4</ele>
        <time>2021-01-31 13:51:34</time>
      </trkpt>
      <trkpt lat="38.82904" lon="-0.10568">
        <ele>188.4</ele>
        <time>2021-01-31 13:51:35</time>
      </trkpt>
      <trkpt lat="38.82903" lon="-0.10566">
        <ele>188.8</ele>
        <time>2021-01-31 13:51:36</time>
      </trkpt>
      <trkpt lat="38.82901" lon="-0.10564">
        <ele>188.8</ele>
        <time>2021-01-31 13:51:37</time>
      </trkpt>
      <trkpt lat="38.82899" lon="-0.10562">
        <ele>188.8</ele>
        <time>2021-01-31 13:51:38</time>
      </trkpt>
      <trkpt lat="38.82897" lon="-0.1056">
        <ele>188.8</ele>
        <time>2021-01-31 13:51:39</time>
      </trkpt>
      <trkpt lat="38.82896" lon="-0.10558">
        <ele>189.6</ele>
        <time>2021-01-31 13:51:40</time>
      </trkpt>
      <trkpt lat="38.82894" lon="-0.10556">
        <ele>189.6</ele>
        <time>2021-01-31 13:51:41</time>
      </trkpt>
      <trkpt lat="38.82892" lon="-0.10555">
        <ele>189.6</ele>
        <time>2021-01-31 13:51:42</time>
      </trkpt>
      <trkpt lat="38.82891" lon="-0.10553">
        <ele>190</ele>
        <time>2021-01-31 13:51:43</time>
      </trkpt>
      <trkpt lat="38.82889" lon="-0.10552">
        <ele>190.2</ele>
        <time>2021-01-31 13:51:44</time>
      </trkpt>
      <trkpt lat="38.82887" lon="-0.1055">
        <ele>190.2</ele>
        <time>2021-01-31 13:51:45</time>
      </trkpt>
      <trkpt lat="38.82885" lon="-0.10548">
        <ele>190.2</ele>
        <time>2021-01-31 13:51:46</time>
      </trkpt>
      <trkpt lat="38.82883" lon="-0.10547">
        <ele>190.2</ele>
        <time>2021-01-31 13:51:47</time>
      </trkpt>
      <trkpt lat="38.82881" lon="-0.10545">
        <ele>190.4</ele>
        <time>2021-01-31 13:51:48</time>
      </trkpt>
      <trkpt lat="38.82879" lon="-0.10542">
        <ele>190.4</ele>
        <time>2021-01-31 13:51:49</time>
      </trkpt>
      <trkpt lat="38.82876" lon="-0.1054">
        <ele>190.4</ele>
        <time>2021-01-31 13:51:50</time>
      </trkpt>
      <trkpt lat="38.82874" lon="-0.10539">
        <ele>190.4</ele>
        <time>2021-01-31 13:51:51</time>
      </trkpt>
      <trkpt lat="38.82872" lon="-0.10537">
        <ele>190.6</ele>
        <time>2021-01-31 13:51:52</time>
      </trkpt>
      <trkpt lat="38.82869" lon="-0.10536">
        <ele>190.6</ele>
        <time>2021-01-31 13:51:53</time>
      </trkpt>
      <trkpt lat="38.82867" lon="-0.10534">
        <ele>190.6</ele>
        <time>2021-01-31 13:51:54</time>
      </trkpt>
      <trkpt lat="38.82864" lon="-0.10533">
        <ele>191.4</ele>
        <time>2021-01-31 13:51:55</time>
      </trkpt>
      <trkpt lat="38.82862" lon="-0.10531">
        <ele>191.2</ele>
        <time>2021-01-31 13:51:56</time>
      </trkpt>
      <trkpt lat="38.82859" lon="-0.1053">
        <ele>191.2</ele>
        <time>2021-01-31 13:51:57</time>
      </trkpt>
      <trkpt lat="38.82856" lon="-0.10529">
        <ele>191.2</ele>
        <time>2021-01-31 13:51:58</time>
      </trkpt>
      <trkpt lat="38.82854" lon="-0.10529">
        <ele>191.2</ele>
        <time>2021-01-31 13:51:59</time>
      </trkpt>
      <trkpt lat="38.82851" lon="-0.10529">
        <ele>192.2</ele>
        <time>2021-01-31 13:52:00</time>
      </trkpt>
      <trkpt lat="38.82848" lon="-0.10529">
        <ele>192.2</ele>
        <time>2021-01-31 13:52:01</time>
      </trkpt>
      <trkpt lat="38.82845" lon="-0.10529">
        <ele>192.2</ele>
        <time>2021-01-31 13:52:02</time>
      </trkpt>
      <trkpt lat="38.82843" lon="-0.1053">
        <ele>192.8</ele>
        <time>2021-01-31 13:52:03</time>
      </trkpt>
      <trkpt lat="38.8284" lon="-0.10531">
        <ele>193.4</ele>
        <time>2021-01-31 13:52:04</time>
      </trkpt>
      <trkpt lat="38.82838" lon="-0.10532">
        <ele>193.4</ele>
        <time>2021-01-31 13:52:05</time>
      </trkpt>
      <trkpt lat="38.82835" lon="-0.10533">
        <ele>193.4</ele>
        <time>2021-01-31 13:52:06</time>
      </trkpt>
      <trkpt lat="38.82833" lon="-0.10535">
        <ele>194.2</ele>
        <time>2021-01-31 13:52:07</time>
      </trkpt>
      <trkpt lat="38.82831" lon="-0.10536">
        <ele>194.4</ele>
        <time>2021-01-31 13:52:08</time>
      </trkpt>
      <trkpt lat="38.82828" lon="-0.10538">
        <ele>194.4</ele>
        <time>2021-01-31 13:52:09</time>
      </trkpt>
      <trkpt lat="38.82826" lon="-0.1054">
        <ele>194.4</ele>
        <time>2021-01-31 13:52:10</time>
      </trkpt>
      <trkpt lat="38.82824" lon="-0.10542">
        <ele>194.4</ele>
        <time>2021-01-31 13:52:11</time>
      </trkpt>
      <trkpt lat="38.82822" lon="-0.10544">
        <ele>195</ele>
        <time>2021-01-31 13:52:12</time>
      </trkpt>
      <trkpt lat="38.8282" lon="-0.10546">
        <ele>195</ele>
        <time>2021-01-31 13:52:13</time>
      </trkpt>
      <trkpt lat="38.82818" lon="-0.10549">
        <ele>195</ele>
        <time>2021-01-31 13:52:14</time>
      </trkpt>
      <trkpt lat="38.82816" lon="-0.10551">
        <ele>195.6</ele>
        <time>2021-01-31 13:52:15</time>
      </trkpt>
      <trkpt lat="38.82814" lon="-0.10554">
        <ele>195.6</ele>
        <time>2021-01-31 13:52:16</time>
      </trkpt>
      <trkpt lat="38.82811" lon="-0.10556">
        <ele>195.6</ele>
        <time>2021-01-31 13:52:17</time>
      </trkpt>
      <trkpt lat="38.82809" lon="-0.10558">
        <ele>195.6</ele>
        <time>2021-01-31 13:52:18</time>
      </trkpt>
      <trkpt lat="38.82807" lon="-0.10561">
        <ele>195.6</ele>
        <time>2021-01-31 13:52:19</time>
      </trkpt>
      <trkpt lat="38.82805" lon="-0.10563">
        <ele>196.4</ele>
        <time>2021-01-31 13:52:20</time>
      </trkpt>
      <trkpt lat="38.82803" lon="-0.10566">
        <ele>196.4</ele>
        <time>2021-01-31 13:52:21</time>
      </trkpt>
      <trkpt lat="38.828" lon="-0.10569">
        <ele>196.4</ele>
        <time>2021-01-31 13:52:22</time>
      </trkpt>
      <trkpt lat="38.82799" lon="-0.10572">
        <ele>197.2</ele>
        <time>2021-01-31 13:52:23</time>
      </trkpt>
      <trkpt lat="38.82797" lon="-0.10575">
        <ele>197.2</ele>
        <time>2021-01-31 13:52:24</time>
      </trkpt>
      <trkpt lat="38.82797" lon="-0.10578">
        <ele>197.2</ele>
        <time>2021-01-31 13:52:25</time>
      </trkpt>
      <trkpt lat="38.82796" lon="-0.10581">
        <ele>197.2</ele>
        <time>2021-01-31 13:52:26</time>
      </trkpt>
      <trkpt lat="38.82796" lon="-0.10585">
        <ele>197.8</ele>
        <time>2021-01-31 13:52:27</time>
      </trkpt>
      <trkpt lat="38.82795" lon="-0.10588">
        <ele>198</ele>
        <time>2021-01-31 13:52:28</time>
      </trkpt>
      <trkpt lat="38.82794" lon="-0.10591">
        <ele>198</ele>
        <time>2021-01-31 13:52:29</time>
      </trkpt>
      <trkpt lat="38.82793" lon="-0.10594">
        <ele>198</ele>
        <time>2021-01-31 13:52:30</time>
      </trkpt>
      <trkpt lat="38.82792" lon="-0.10597">
        <ele>198.8</ele>
        <time>2021-01-31 13:52:31</time>
      </trkpt>
      <trkpt lat="38.82792" lon="-0.10599">
        <ele>198.8</ele>
        <time>2021-01-31 13:52:32</time>
      </trkpt>
      <trkpt lat="38.82791" lon="-0.10602">
        <ele>198.8</ele>
        <time>2021-01-31 13:52:33</time>
      </trkpt>
      <trkpt lat="38.8279" lon="-0.10605">
        <ele>198.8</ele>
        <time>2021-01-31 13:52:34</time>
      </trkpt>
      <trkpt lat="38.8279" lon="-0.10608">
        <ele>199.8</ele>
        <time>2021-01-31 13:52:35</time>
      </trkpt>
      <trkpt lat="38.82789" lon="-0.1061">
        <ele>200.2</ele>
        <time>2021-01-31 13:52:36</time>
      </trkpt>
      <trkpt lat="38.82789" lon="-0.10613">
        <ele>200.2</ele>
        <time>2021-01-31 13:52:37</time>
      </trkpt>
      <trkpt lat="38.82788" lon="-0.10616">
        <ele>200.2</ele>
        <time>2021-01-31 13:52:38</time>
      </trkpt>
      <trkpt lat="38.82787" lon="-0.10619">
        <ele>201</ele>
        <time>2021-01-31 13:52:39</time>
      </trkpt>
      <trkpt lat="38.82787" lon="-0.10622">
        <ele>201.2</ele>
        <time>2021-01-31 13:52:40</time>
      </trkpt>
      <trkpt lat="38.82786" lon="-0.10624">
        <ele>201.2</ele>
        <time>2021-01-31 13:52:41</time>
      </trkpt>
      <trkpt lat="38.82786" lon="-0.10627">
        <ele>201.2</ele>
        <time>2021-01-31 13:52:42</time>
      </trkpt>
      <trkpt lat="38.82785" lon="-0.1063">
        <ele>201.6</ele>
        <time>2021-01-31 13:52:43</time>
      </trkpt>
      <trkpt lat="38.82785" lon="-0.10634">
        <ele>202</ele>
        <time>2021-01-31 13:52:44</time>
      </trkpt>
      <trkpt lat="38.82785" lon="-0.10636">
        <ele>202</ele>
        <time>2021-01-31 13:52:45</time>
      </trkpt>
      <trkpt lat="38.82784" lon="-0.10639">
        <ele>202</ele>
        <time>2021-01-31 13:52:46</time>
      </trkpt>
      <trkpt lat="38.82784" lon="-0.10642">
        <ele>202.2</ele>
        <time>2021-01-31 13:52:47</time>
      </trkpt>
      <trkpt lat="38.82783" lon="-0.10645">
        <ele>202.4</ele>
        <time>2021-01-31 13:52:48</time>
      </trkpt>
      <trkpt lat="38.82783" lon="-0.10647">
        <ele>202.4</ele>
        <time>2021-01-31 13:52:49</time>
      </trkpt>
      <trkpt lat="38.82782" lon="-0.1065">
        <ele>202.4</ele>
        <time>2021-01-31 13:52:50</time>
      </trkpt>
      <trkpt lat="38.82782" lon="-0.10652">
        <ele>202.4</ele>
        <time>2021-01-31 13:52:51</time>
      </trkpt>
      <trkpt lat="38.82781" lon="-0.10655">
        <ele>203.2</ele>
        <time>2021-01-31 13:52:52</time>
      </trkpt>
      <trkpt lat="38.82781" lon="-0.10658">
        <ele>203.2</ele>
        <time>2021-01-31 13:52:53</time>
      </trkpt>
      <trkpt lat="38.82781" lon="-0.10661">
        <ele>203.2</ele>
        <time>2021-01-31 13:52:54</time>
      </trkpt>
      <trkpt lat="38.8278" lon="-0.10664">
        <ele>204.2</ele>
        <time>2021-01-31 13:52:55</time>
      </trkpt>
      <trkpt lat="38.8278" lon="-0.10666">
        <ele>204.2</ele>
        <time>2021-01-31 13:52:56</time>
      </trkpt>
      <trkpt lat="38.8278" lon="-0.10669">
        <ele>204.2</ele>
        <time>2021-01-31 13:52:57</time>
      </trkpt>
      <trkpt lat="38.82779" lon="-0.10672">
        <ele>204.2</ele>
        <time>2021-01-31 13:52:58</time>
      </trkpt>
      <trkpt lat="38.82779" lon="-0.10675">
        <ele>204.4</ele>
        <time>2021-01-31 13:52:59</time>
      </trkpt>
      <trkpt lat="38.82779" lon="-0.10678">
        <ele>204.8</ele>
        <time>2021-01-31 13:53:00</time>
      </trkpt>
      <trkpt lat="38.82779" lon="-0.1068">
        <ele>204.8</ele>
        <time>2021-01-31 13:53:01</time>
      </trkpt>
      <trkpt lat="38.82779" lon="-0.10683">
        <ele>204.8</ele>
        <time>2021-01-31 13:53:02</time>
      </trkpt>
      <trkpt lat="38.82779" lon="-0.10686">
        <ele>205.6</ele>
        <time>2021-01-31 13:53:03</time>
      </trkpt>
      <trkpt lat="38.82779" lon="-0.10688">
        <ele>206.2</ele>
        <time>2021-01-31 13:53:04</time>
      </trkpt>
      <trkpt lat="38.82779" lon="-0.10691">
        <ele>206.2</ele>
        <time>2021-01-31 13:53:05</time>
      </trkpt>
      <trkpt lat="38.82779" lon="-0.10694">
        <ele>206.2</ele>
        <time>2021-01-31 13:53:06</time>
      </trkpt>
      <trkpt lat="38.82779" lon="-0.10697">
        <ele>206.6</ele>
        <time>2021-01-31 13:53:07</time>
      </trkpt>
      <trkpt lat="38.82779" lon="-0.10699">
        <ele>206.6</ele>
        <time>2021-01-31 13:53:08</time>
      </trkpt>
      <trkpt lat="38.82779" lon="-0.10701">
        <ele>206.6</ele>
        <time>2021-01-31 13:53:09</time>
      </trkpt>
      <trkpt lat="38.82778" lon="-0.10704">
        <ele>206.6</ele>
        <time>2021-01-31 13:53:10</time>
      </trkpt>
      <trkpt lat="38.82778" lon="-0.10706">
        <ele>207.6</ele>
        <time>2021-01-31 13:53:11</time>
      </trkpt>
      <trkpt lat="38.82778" lon="-0.10709">
        <ele>207.8</ele>
        <time>2021-01-31 13:53:12</time>
      </trkpt>
      <trkpt lat="38.82777" lon="-0.10712">
        <ele>207.8</ele>
        <time>2021-01-31 13:53:13</time>
      </trkpt>
      <trkpt lat="38.82777" lon="-0.10715">
        <ele>207.8</ele>
        <time>2021-01-31 13:53:14</time>
      </trkpt>
      <trkpt lat="38.82776" lon="-0.10718">
        <ele>208.8</ele>
        <time>2021-01-31 13:53:15</time>
      </trkpt>
      <trkpt lat="38.82776" lon="-0.10722">
        <ele>209</ele>
        <time>2021-01-31 13:53:16</time>
      </trkpt>
      <trkpt lat="38.82775" lon="-0.10725">
        <ele>209</ele>
        <time>2021-01-31 13:53:17</time>
      </trkpt>
      <trkpt lat="38.82775" lon="-0.10727">
        <ele>209</ele>
        <time>2021-01-31 13:53:18</time>
      </trkpt>
      <trkpt lat="38.82774" lon="-0.1073">
        <ele>209</ele>
        <time>2021-01-31 13:53:19</time>
      </trkpt>
      <trkpt lat="38.82773" lon="-0.10733">
        <ele>209.4</ele>
        <time>2021-01-31 13:53:20</time>
      </trkpt>
      <trkpt lat="38.82773" lon="-0.10736">
        <ele>209.4</ele>
        <time>2021-01-31 13:53:21</time>
      </trkpt>
      <trkpt lat="38.82772" lon="-0.10739">
        <ele>209.4</ele>
        <time>2021-01-31 13:53:22</time>
      </trkpt>
      <trkpt lat="38.82771" lon="-0.10742">
        <ele>209.6</ele>
        <time>2021-01-31 13:53:23</time>
      </trkpt>
      <trkpt lat="38.8277" lon="-0.10745">
        <ele>210.2</ele>
        <time>2021-01-31 13:53:24</time>
      </trkpt>
      <trkpt lat="38.82769" lon="-0.10747">
        <ele>210.2</ele>
        <time>2021-01-31 13:53:25</time>
      </trkpt>
      <trkpt lat="38.82768" lon="-0.1075">
        <ele>210.2</ele>
        <time>2021-01-31 13:53:26</time>
      </trkpt>
      <trkpt lat="38.82767" lon="-0.10753">
        <ele>210.2</ele>
        <time>2021-01-31 13:53:27</time>
      </trkpt>
      <trkpt lat="38.82766" lon="-0.10755">
        <ele>210.2</ele>
        <time>2021-01-31 13:53:28</time>
      </trkpt>
      <trkpt lat="38.82765" lon="-0.10758">
        <ele>210.2</ele>
        <time>2021-01-31 13:53:29</time>
      </trkpt>
      <trkpt lat="38.82764" lon="-0.1076">
        <ele>210.2</ele>
        <time>2021-01-31 13:53:30</time>
      </trkpt>
      <trkpt lat="38.82763" lon="-0.10762">
        <ele>210.2</ele>
        <time>2021-01-31 13:53:31</time>
      </trkpt>
      <trkpt lat="38.82762" lon="-0.10765">
        <ele>211.2</ele>
        <time>2021-01-31 13:53:32</time>
      </trkpt>
      <trkpt lat="38.82761" lon="-0.10767">
        <ele>211.2</ele>
        <time>2021-01-31 13:53:33</time>
      </trkpt>
      <trkpt lat="38.8276" lon="-0.1077">
        <ele>211.2</ele>
        <time>2021-01-31 13:53:34</time>
      </trkpt>
      <trkpt lat="38.82759" lon="-0.10773">
        <ele>211.2</ele>
        <time>2021-01-31 13:53:35</time>
      </trkpt>
      <trkpt lat="38.82758" lon="-0.10775">
        <ele>212.4</ele>
        <time>2021-01-31 13:53:36</time>
      </trkpt>
      <trkpt lat="38.82757" lon="-0.10778">
        <ele>212.4</ele>
        <time>2021-01-31 13:53:37</time>
      </trkpt>
      <trkpt lat="38.82756" lon="-0.1078">
        <ele>212.4</ele>
        <time>2021-01-31 13:53:38</time>
      </trkpt>
      <trkpt lat="38.82755" lon="-0.10782">
        <ele>213.4</ele>
        <time>2021-01-31 13:53:39</time>
      </trkpt>
      <trkpt lat="38.82754" lon="-0.10784">
        <ele>214</ele>
        <time>2021-01-31 13:53:40</time>
      </trkpt>
      <trkpt lat="38.82753" lon="-0.10787">
        <ele>214</ele>
        <time>2021-01-31 13:53:41</time>
      </trkpt>
      <trkpt lat="38.82752" lon="-0.10789">
        <ele>214</ele>
        <time>2021-01-31 13:53:42</time>
      </trkpt>
      <trkpt lat="38.82751" lon="-0.10792">
        <ele>213.4</ele>
        <time>2021-01-31 13:53:43</time>
      </trkpt>
      <trkpt lat="38.8275" lon="-0.10795">
        <ele>213.2</ele>
        <time>2021-01-31 13:53:44</time>
      </trkpt>
      <trkpt lat="38.82749" lon="-0.10797">
        <ele>213.2</ele>
        <time>2021-01-31 13:53:45</time>
      </trkpt>
      <trkpt lat="38.82749" lon="-0.108">
        <ele>213.2</ele>
        <time>2021-01-31 13:53:46</time>
      </trkpt>
      <trkpt lat="38.82748" lon="-0.10803">
        <ele>213.2</ele>
        <time>2021-01-31 13:53:47</time>
      </trkpt>
      <trkpt lat="38.82748" lon="-0.10805">
        <ele>213.8</ele>
        <time>2021-01-31 13:53:48</time>
      </trkpt>
      <trkpt lat="38.82748" lon="-0.10808">
        <ele>213.8</ele>
        <time>2021-01-31 13:53:49</time>
      </trkpt>
      <trkpt lat="38.82747" lon="-0.1081">
        <ele>213.8</ele>
        <time>2021-01-31 13:53:50</time>
      </trkpt>
      <trkpt lat="38.82747" lon="-0.10812">
        <ele>214.8</ele>
        <time>2021-01-31 13:53:51</time>
      </trkpt>
      <trkpt lat="38.82746" lon="-0.10815">
        <ele>215.4</ele>
        <time>2021-01-31 13:53:52</time>
      </trkpt>
      <trkpt lat="38.82746" lon="-0.10818">
        <ele>215.4</ele>
        <time>2021-01-31 13:53:53</time>
      </trkpt>
      <trkpt lat="38.82745" lon="-0.10821">
        <ele>215.4</ele>
        <time>2021-01-31 13:53:54</time>
      </trkpt>
      <trkpt lat="38.82745" lon="-0.10824">
        <ele>216.2</ele>
        <time>2021-01-31 13:53:55</time>
      </trkpt>
      <trkpt lat="38.82745" lon="-0.10827">
        <ele>216.6</ele>
        <time>2021-01-31 13:53:56</time>
      </trkpt>
      <trkpt lat="38.82744" lon="-0.1083">
        <ele>216.6</ele>
        <time>2021-01-31 13:53:57</time>
      </trkpt>
      <trkpt lat="38.82744" lon="-0.10832">
        <ele>216.6</ele>
        <time>2021-01-31 13:53:58</time>
      </trkpt>
      <trkpt lat="38.82744" lon="-0.10835">
        <ele>217</ele>
        <time>2021-01-31 13:53:59</time>
      </trkpt>
      <trkpt lat="38.82743" lon="-0.10838">
        <ele>217.4</ele>
        <time>2021-01-31 13:54:00</time>
      </trkpt>
      <trkpt lat="38.82743" lon="-0.10841">
        <ele>217.4</ele>
        <time>2021-01-31 13:54:01</time>
      </trkpt>
      <trkpt lat="38.82743" lon="-0.10844">
        <ele>217.4</ele>
        <time>2021-01-31 13:54:02</time>
      </trkpt>
      <trkpt lat="38.82742" lon="-0.10847">
        <ele>217.4</ele>
        <time>2021-01-31 13:54:03</time>
      </trkpt>
      <trkpt lat="38.82742" lon="-0.10849">
        <ele>218.4</ele>
        <time>2021-01-31 13:54:04</time>
      </trkpt>
      <trkpt lat="38.82742" lon="-0.10852">
        <ele>218.4</ele>
        <time>2021-01-31 13:54:05</time>
      </trkpt>
      <trkpt lat="38.82741" lon="-0.10855">
        <ele>218.4</ele>
        <time>2021-01-31 13:54:06</time>
      </trkpt>
      <trkpt lat="38.82741" lon="-0.10858">
        <ele>219</ele>
        <time>2021-01-31 13:54:07</time>
      </trkpt>
      <trkpt lat="38.8274" lon="-0.10861">
        <ele>219</ele>
        <time>2021-01-31 13:54:08</time>
      </trkpt>
      <trkpt lat="38.8274" lon="-0.10863">
        <ele>219</ele>
        <time>2021-01-31 13:54:09</time>
      </trkpt>
      <trkpt lat="38.82739" lon="-0.10866">
        <ele>219</ele>
        <time>2021-01-31 13:54:10</time>
      </trkpt>
      <trkpt lat="38.82738" lon="-0.10869">
        <ele>219.6</ele>
        <time>2021-01-31 13:54:11</time>
      </trkpt>
      <trkpt lat="38.82737" lon="-0.10871">
        <ele>219.6</ele>
        <time>2021-01-31 13:54:12</time>
      </trkpt>
      <trkpt lat="38.82736" lon="-0.10874">
        <ele>219.6</ele>
        <time>2021-01-31 13:54:13</time>
      </trkpt>
      <trkpt lat="38.82735" lon="-0.10876">
        <ele>219.6</ele>
        <time>2021-01-31 13:54:14</time>
      </trkpt>
      <trkpt lat="38.82734" lon="-0.10879">
        <ele>220.2</ele>
        <time>2021-01-31 13:54:15</time>
      </trkpt>
      <trkpt lat="38.82732" lon="-0.10882">
        <ele>220.2</ele>
        <time>2021-01-31 13:54:16</time>
      </trkpt>
      <trkpt lat="38.8273" lon="-0.10884">
        <ele>220.2</ele>
        <time>2021-01-31 13:54:17</time>
      </trkpt>
      <trkpt lat="38.82728" lon="-0.10886">
        <ele>220.2</ele>
        <time>2021-01-31 13:54:18</time>
      </trkpt>
      <trkpt lat="38.82726" lon="-0.10888">
        <ele>221.2</ele>
        <time>2021-01-31 13:54:19</time>
      </trkpt>
      <trkpt lat="38.82723" lon="-0.10889">
        <ele>222</ele>
        <time>2021-01-31 13:54:20</time>
      </trkpt>
      <trkpt lat="38.82721" lon="-0.1089">
        <ele>222</ele>
        <time>2021-01-31 13:54:21</time>
      </trkpt>
      <trkpt lat="38.82718" lon="-0.1089">
        <ele>222</ele>
        <time>2021-01-31 13:54:22</time>
      </trkpt>
      <trkpt lat="38.82715" lon="-0.1089">
        <ele>222</ele>
        <time>2021-01-31 13:54:23</time>
      </trkpt>
      <trkpt lat="38.82713" lon="-0.1089">
        <ele>222.2</ele>
        <time>2021-01-31 13:54:24</time>
      </trkpt>
      <trkpt lat="38.82711" lon="-0.10889">
        <ele>222.2</ele>
        <time>2021-01-31 13:54:25</time>
      </trkpt>
      <trkpt lat="38.82709" lon="-0.10888">
        <ele>222.2</ele>
        <time>2021-01-31 13:54:26</time>
      </trkpt>
      <trkpt lat="38.82707" lon="-0.10887">
        <ele>223</ele>
        <time>2021-01-31 13:54:27</time>
      </trkpt>
      <trkpt lat="38.82705" lon="-0.10886">
        <ele>222.8</ele>
        <time>2021-01-31 13:54:28</time>
      </trkpt>
      <trkpt lat="38.82704" lon="-0.10884">
        <ele>222.8</ele>
        <time>2021-01-31 13:54:29</time>
      </trkpt>
      <trkpt lat="38.82702" lon="-0.10882">
        <ele>222.8</ele>
        <time>2021-01-31 13:54:30</time>
      </trkpt>
      <trkpt lat="38.82701" lon="-0.1088">
        <ele>223.2</ele>
        <time>2021-01-31 13:54:31</time>
      </trkpt>
      <trkpt lat="38.827" lon="-0.10878">
        <ele>224</ele>
        <time>2021-01-31 13:54:32</time>
      </trkpt>
      <trkpt lat="38.82699" lon="-0.10877">
        <ele>224</ele>
        <time>2021-01-31 13:54:33</time>
      </trkpt>
      <trkpt lat="38.82697" lon="-0.10876">
        <ele>224</ele>
        <time>2021-01-31 13:54:34</time>
      </trkpt>
      <trkpt lat="38.82696" lon="-0.10875">
        <ele>224</ele>
        <time>2021-01-31 13:54:35</time>
      </trkpt>
      <trkpt lat="38.82695" lon="-0.10874">
        <ele>224.8</ele>
        <time>2021-01-31 13:54:36</time>
      </trkpt>
      <trkpt lat="38.82693" lon="-0.10872">
        <ele>224.8</ele>
        <time>2021-01-31 13:54:37</time>
      </trkpt>
      <trkpt lat="38.82691" lon="-0.1087">
        <ele>224.8</ele>
        <time>2021-01-31 13:54:38</time>
      </trkpt>
      <trkpt lat="38.8269" lon="-0.1087">
        <ele>224.8</ele>
        <time>2021-01-31 13:54:39</time>
      </trkpt>
      <trkpt lat="38.82688" lon="-0.1087">
        <ele>225.8</ele>
        <time>2021-01-31 13:54:40</time>
      </trkpt>
      <trkpt lat="38.82687" lon="-0.10871">
        <ele>225.8</ele>
        <time>2021-01-31 13:54:41</time>
      </trkpt>
      <trkpt lat="38.82687" lon="-0.10873">
        <ele>225.8</ele>
        <time>2021-01-31 13:54:42</time>
      </trkpt>
      <trkpt lat="38.82687" lon="-0.10874">
        <ele>226.8</ele>
        <time>2021-01-31 13:54:43</time>
      </trkpt>
      <trkpt lat="38.82687" lon="-0.10875">
        <ele>227</ele>
        <time>2021-01-31 13:54:44</time>
      </trkpt>
      <trkpt lat="38.82688" lon="-0.10877">
        <ele>227</ele>
        <time>2021-01-31 13:54:45</time>
      </trkpt>
      <trkpt lat="38.82689" lon="-0.10879">
        <ele>227</ele>
        <time>2021-01-31 13:54:46</time>
      </trkpt>
      <trkpt lat="38.82689" lon="-0.10882">
        <ele>227.4</ele>
        <time>2021-01-31 13:54:47</time>
      </trkpt>
      <trkpt lat="38.82691" lon="-0.10883">
        <ele>227.6</ele>
        <time>2021-01-31 13:54:48</time>
      </trkpt>
      <trkpt lat="38.82692" lon="-0.10885">
        <ele>227.6</ele>
        <time>2021-01-31 13:54:49</time>
      </trkpt>
      <trkpt lat="38.82693" lon="-0.10888">
        <ele>227.6</ele>
        <time>2021-01-31 13:54:50</time>
      </trkpt>
      <trkpt lat="38.82694" lon="-0.1089">
        <ele>228</ele>
        <time>2021-01-31 13:54:51</time>
      </trkpt>
      <trkpt lat="38.82695" lon="-0.10891">
        <ele>228.2</ele>
        <time>2021-01-31 13:54:52</time>
      </trkpt>
      <trkpt lat="38.82696" lon="-0.10893">
        <ele>228.2</ele>
        <time>2021-01-31 13:54:53</time>
      </trkpt>
      <trkpt lat="38.82698" lon="-0.10895">
        <ele>228.2</ele>
        <time>2021-01-31 13:54:54</time>
      </trkpt>
      <trkpt lat="38.82699" lon="-0.10897">
        <ele>229</ele>
        <time>2021-01-31 13:54:55</time>
      </trkpt>
      <trkpt lat="38.827" lon="-0.10899">
        <ele>229.4</ele>
        <time>2021-01-31 13:54:56</time>
      </trkpt>
      <trkpt lat="38.82701" lon="-0.10902">
        <ele>229.4</ele>
        <time>2021-01-31 13:54:57</time>
      </trkpt>
      <trkpt lat="38.82702" lon="-0.10904">
        <ele>229.4</ele>
        <time>2021-01-31 13:54:58</time>
      </trkpt>
      <trkpt lat="38.82703" lon="-0.10906">
        <ele>229.4</ele>
        <time>2021-01-31 13:54:59</time>
      </trkpt>
      <trkpt lat="38.82704" lon="-0.10908">
        <ele>230.4</ele>
        <time>2021-01-31 13:55:00</time>
      </trkpt>
      <trkpt lat="38.82705" lon="-0.10909">
        <ele>230.4</ele>
        <time>2021-01-31 13:55:01</time>
      </trkpt>
      <trkpt lat="38.82706" lon="-0.10911">
        <ele>230.4</ele>
        <time>2021-01-31 13:55:02</time>
      </trkpt>
      <trkpt lat="38.82707" lon="-0.10913">
        <ele>231.4</ele>
        <time>2021-01-31 13:55:03</time>
      </trkpt>
      <trkpt lat="38.82708" lon="-0.10915">
        <ele>231.8</ele>
        <time>2021-01-31 13:55:04</time>
      </trkpt>
      <trkpt lat="38.82709" lon="-0.10919">
        <ele>231.8</ele>
        <time>2021-01-31 13:55:05</time>
      </trkpt>
      <trkpt lat="38.8271" lon="-0.10921">
        <ele>231.8</ele>
        <time>2021-01-31 13:55:06</time>
      </trkpt>
      <trkpt lat="38.82711" lon="-0.10924">
        <ele>231.8</ele>
        <time>2021-01-31 13:55:07</time>
      </trkpt>
      <trkpt lat="38.82712" lon="-0.10926">
        <ele>232</ele>
        <time>2021-01-31 13:55:08</time>
      </trkpt>
      <trkpt lat="38.82713" lon="-0.10929">
        <ele>232</ele>
        <time>2021-01-31 13:55:09</time>
      </trkpt>
      <trkpt lat="38.82714" lon="-0.10932">
        <ele>232</ele>
        <time>2021-01-31 13:55:10</time>
      </trkpt>
      <trkpt lat="38.82715" lon="-0.10935">
        <ele>232</ele>
        <time>2021-01-31 13:55:11</time>
      </trkpt>
      <trkpt lat="38.82717" lon="-0.10938">
        <ele>232.6</ele>
        <time>2021-01-31 13:55:12</time>
      </trkpt>
      <trkpt lat="38.82719" lon="-0.10941">
        <ele>232.6</ele>
        <time>2021-01-31 13:55:13</time>
      </trkpt>
      <trkpt lat="38.82721" lon="-0.10943">
        <ele>232.6</ele>
        <time>2021-01-31 13:55:14</time>
      </trkpt>
      <trkpt lat="38.82723" lon="-0.10944">
        <ele>233.6</ele>
        <time>2021-01-31 13:55:15</time>
      </trkpt>
      <trkpt lat="38.82726" lon="-0.10945">
        <ele>233.6</ele>
        <time>2021-01-31 13:55:16</time>
      </trkpt>
      <trkpt lat="38.82728" lon="-0.10944">
        <ele>233.6</ele>
        <time>2021-01-31 13:55:17</time>
      </trkpt>
      <trkpt lat="38.8273" lon="-0.10943">
        <ele>233.6</ele>
        <time>2021-01-31 13:55:18</time>
      </trkpt>
      <trkpt lat="38.82731" lon="-0.10941">
        <ele>233.8</ele>
        <time>2021-01-31 13:55:19</time>
      </trkpt>
      <trkpt lat="38.82732" lon="-0.10939">
        <ele>234.2</ele>
        <time>2021-01-31 13:55:20</time>
      </trkpt>
      <trkpt lat="38.82733" lon="-0.10937">
        <ele>234.2</ele>
        <time>2021-01-31 13:55:21</time>
      </trkpt>
      <trkpt lat="38.82734" lon="-0.10935">
        <ele>234.2</ele>
        <time>2021-01-31 13:55:22</time>
      </trkpt>
      <trkpt lat="38.82735" lon="-0.10933">
        <ele>234.2</ele>
        <time>2021-01-31 13:55:23</time>
      </trkpt>
      <trkpt lat="38.82737" lon="-0.10931">
        <ele>234.8</ele>
        <time>2021-01-31 13:55:24</time>
      </trkpt>
      <trkpt lat="38.82738" lon="-0.10928">
        <ele>234.8</ele>
        <time>2021-01-31 13:55:25</time>
      </trkpt>
      <trkpt lat="38.82739" lon="-0.10926">
        <ele>234.8</ele>
        <time>2021-01-31 13:55:26</time>
      </trkpt>
      <trkpt lat="38.8274" lon="-0.10923">
        <ele>235.8</ele>
        <time>2021-01-31 13:55:27</time>
      </trkpt>
      <trkpt lat="38.82741" lon="-0.1092">
        <ele>235.6</ele>
        <time>2021-01-31 13:55:28</time>
      </trkpt>
      <trkpt lat="38.82742" lon="-0.10917">
        <ele>235.6</ele>
        <time>2021-01-31 13:55:29</time>
      </trkpt>
      <trkpt lat="38.82744" lon="-0.10914">
        <ele>235.6</ele>
        <time>2021-01-31 13:55:30</time>
      </trkpt>
      <trkpt lat="38.82745" lon="-0.10911">
        <ele>235.8</ele>
        <time>2021-01-31 13:55:31</time>
      </trkpt>
      <trkpt lat="38.82746" lon="-0.10908">
        <ele>236.6</ele>
        <time>2021-01-31 13:55:32</time>
      </trkpt>
      <trkpt lat="38.82747" lon="-0.10905">
        <ele>236.6</ele>
        <time>2021-01-31 13:55:33</time>
      </trkpt>
      <trkpt lat="38.82748" lon="-0.10902">
        <ele>236.6</ele>
        <time>2021-01-31 13:55:34</time>
      </trkpt>
      <trkpt lat="38.82749" lon="-0.10899">
        <ele>236.8</ele>
        <time>2021-01-31 13:55:35</time>
      </trkpt>
      <trkpt lat="38.8275" lon="-0.10897">
        <ele>236.8</ele>
        <time>2021-01-31 13:55:36</time>
      </trkpt>
      <trkpt lat="38.82751" lon="-0.10894">
        <ele>236.8</ele>
        <time>2021-01-31 13:55:37</time>
      </trkpt>
      <trkpt lat="38.82752" lon="-0.10891">
        <ele>236.8</ele>
        <time>2021-01-31 13:55:38</time>
      </trkpt>
      <trkpt lat="38.82754" lon="-0.10888">
        <ele>236.8</ele>
        <time>2021-01-31 13:55:39</time>
      </trkpt>
      <trkpt lat="38.82755" lon="-0.10886">
        <ele>237</ele>
        <time>2021-01-31 13:55:40</time>
      </trkpt>
      <trkpt lat="38.82757" lon="-0.10884">
        <ele>237</ele>
        <time>2021-01-31 13:55:41</time>
      </trkpt>
      <trkpt lat="38.82759" lon="-0.10882">
        <ele>237</ele>
        <time>2021-01-31 13:55:42</time>
      </trkpt>
      <trkpt lat="38.82762" lon="-0.10882">
        <ele>237</ele>
        <time>2021-01-31 13:55:43</time>
      </trkpt>
      <trkpt lat="38.82764" lon="-0.10881">
        <ele>238.4</ele>
        <time>2021-01-31 13:55:44</time>
      </trkpt>
      <trkpt lat="38.82766" lon="-0.10881">
        <ele>238.4</ele>
        <time>2021-01-31 13:55:45</time>
      </trkpt>
      <trkpt lat="38.82768" lon="-0.10882">
        <ele>238.4</ele>
        <time>2021-01-31 13:55:46</time>
      </trkpt>
      <trkpt lat="38.82769" lon="-0.10884">
        <ele>238.4</ele>
        <time>2021-01-31 13:55:47</time>
      </trkpt>
      <trkpt lat="38.82771" lon="-0.10886">
        <ele>239.8</ele>
        <time>2021-01-31 13:55:48</time>
      </trkpt>
      <trkpt lat="38.82771" lon="-0.10889">
        <ele>239.8</ele>
        <time>2021-01-31 13:55:49</time>
      </trkpt>
      <trkpt lat="38.82772" lon="-0.10892">
        <ele>239.8</ele>
        <time>2021-01-31 13:55:50</time>
      </trkpt>
      <trkpt lat="38.82772" lon="-0.10895">
        <ele>239.8</ele>
        <time>2021-01-31 13:55:51</time>
      </trkpt>
      <trkpt lat="38.82772" lon="-0.10898">
        <ele>239.8</ele>
        <time>2021-01-31 13:55:52</time>
      </trkpt>
      <trkpt lat="38.82772" lon="-0.10902">
        <ele>239.8</ele>
        <time>2021-01-31 13:55:53</time>
      </trkpt>
      <trkpt lat="38.82771" lon="-0.10905">
        <ele>239.8</ele>
        <time>2021-01-31 13:55:54</time>
      </trkpt>
      <trkpt lat="38.8277" lon="-0.10907">
        <ele>239.8</ele>
        <time>2021-01-31 13:55:55</time>
      </trkpt>
      <trkpt lat="38.8277" lon="-0.1091">
        <ele>240.6</ele>
        <time>2021-01-31 13:55:56</time>
      </trkpt>
      <trkpt lat="38.82768" lon="-0.10913">
        <ele>240.6</ele>
        <time>2021-01-31 13:55:57</time>
      </trkpt>
      <trkpt lat="38.82767" lon="-0.10916">
        <ele>240.6</ele>
        <time>2021-01-31 13:55:58</time>
      </trkpt>
      <trkpt lat="38.82766" lon="-0.10918">
        <ele>240.4</ele>
        <time>2021-01-31 13:55:59</time>
      </trkpt>
      <trkpt lat="38.82765" lon="-0.10921">
        <ele>241.2</ele>
        <time>2021-01-31 13:56:00</time>
      </trkpt>
      <trkpt lat="38.82764" lon="-0.10924">
        <ele>241.2</ele>
        <time>2021-01-31 13:56:01</time>
      </trkpt>
      <trkpt lat="38.82762" lon="-0.10927">
        <ele>241.2</ele>
        <time>2021-01-31 13:56:02</time>
      </trkpt>
      <trkpt lat="38.82761" lon="-0.10929">
        <ele>242.2</ele>
        <time>2021-01-31 13:56:03</time>
      </trkpt>
      <trkpt lat="38.82759" lon="-0.10932">
        <ele>243</ele>
        <time>2021-01-31 13:56:04</time>
      </trkpt>
      <trkpt lat="38.82758" lon="-0.10934">
        <ele>243</ele>
        <time>2021-01-31 13:56:05</time>
      </trkpt>
      <trkpt lat="38.82756" lon="-0.10937">
        <ele>243</ele>
        <time>2021-01-31 13:56:06</time>
      </trkpt>
      <trkpt lat="38.82755" lon="-0.10939">
        <ele>242.6</ele>
        <time>2021-01-31 13:56:07</time>
      </trkpt>
      <trkpt lat="38.82753" lon="-0.10942">
        <ele>243.4</ele>
        <time>2021-01-31 13:56:08</time>
      </trkpt>
      <trkpt lat="38.82752" lon="-0.10945">
        <ele>243.4</ele>
        <time>2021-01-31 13:56:09</time>
      </trkpt>
      <trkpt lat="38.82751" lon="-0.10947">
        <ele>243.4</ele>
        <time>2021-01-31 13:56:10</time>
      </trkpt>
      <trkpt lat="38.82749" lon="-0.1095">
        <ele>244</ele>
        <time>2021-01-31 13:56:11</time>
      </trkpt>
      <trkpt lat="38.82748" lon="-0.10953">
        <ele>243</ele>
        <time>2021-01-31 13:56:12</time>
      </trkpt>
      <trkpt lat="38.82747" lon="-0.10956">
        <ele>243</ele>
        <time>2021-01-31 13:56:13</time>
      </trkpt>
      <trkpt lat="38.82746" lon="-0.1096">
        <ele>243</ele>
        <time>2021-01-31 13:56:14</time>
      </trkpt>
      <trkpt lat="38.82746" lon="-0.10963">
        <ele>243</ele>
        <time>2021-01-31 13:56:15</time>
      </trkpt>
      <trkpt lat="38.82745" lon="-0.10966">
        <ele>243.2</ele>
        <time>2021-01-31 13:56:16</time>
      </trkpt>
      <trkpt lat="38.82744" lon="-0.1097">
        <ele>243.2</ele>
        <time>2021-01-31 13:56:17</time>
      </trkpt>
      <trkpt lat="38.82744" lon="-0.10973">
        <ele>243.2</ele>
        <time>2021-01-31 13:56:18</time>
      </trkpt>
      <trkpt lat="38.82743" lon="-0.10976">
        <ele>243.2</ele>
        <time>2021-01-31 13:56:19</time>
      </trkpt>
      <trkpt lat="38.82742" lon="-0.10979">
        <ele>245.8</ele>
        <time>2021-01-31 13:56:20</time>
      </trkpt>
      <trkpt lat="38.82742" lon="-0.10982">
        <ele>245.8</ele>
        <time>2021-01-31 13:56:21</time>
      </trkpt>
      <trkpt lat="38.82742" lon="-0.10985">
        <ele>245.8</ele>
        <time>2021-01-31 13:56:22</time>
      </trkpt>
      <trkpt lat="38.82742" lon="-0.10989">
        <ele>245.2</ele>
        <time>2021-01-31 13:56:23</time>
      </trkpt>
      <trkpt lat="38.82741" lon="-0.10992">
        <ele>245.8</ele>
        <time>2021-01-31 13:56:24</time>
      </trkpt>
      <trkpt lat="38.82741" lon="-0.10995">
        <ele>245.8</ele>
        <time>2021-01-31 13:56:25</time>
      </trkpt>
      <trkpt lat="38.8274" lon="-0.10998">
        <ele>245.8</ele>
        <time>2021-01-31 13:56:26</time>
      </trkpt>
      <trkpt lat="38.8274" lon="-0.11001">
        <ele>245.8</ele>
        <time>2021-01-31 13:56:27</time>
      </trkpt>
      <trkpt lat="38.8274" lon="-0.11004">
        <ele>244</ele>
        <time>2021-01-31 13:56:28</time>
      </trkpt>
      <trkpt lat="38.82739" lon="-0.11008">
        <ele>244</ele>
        <time>2021-01-31 13:56:29</time>
      </trkpt>
      <trkpt lat="38.82739" lon="-0.11011">
        <ele>244</ele>
        <time>2021-01-31 13:56:30</time>
      </trkpt>
      <trkpt lat="38.82739" lon="-0.11014">
        <ele>245</ele>
        <time>2021-01-31 13:56:31</time>
      </trkpt>
      <trkpt lat="38.82739" lon="-0.11017">
        <ele>246.4</ele>
        <time>2021-01-31 13:56:32</time>
      </trkpt>
      <trkpt lat="38.82738" lon="-0.1102">
        <ele>246.4</ele>
        <time>2021-01-31 13:56:33</time>
      </trkpt>
      <trkpt lat="38.82737" lon="-0.11023">
        <ele>246.4</ele>
        <time>2021-01-31 13:56:34</time>
      </trkpt>
      <trkpt lat="38.82736" lon="-0.11026">
        <ele>246.4</ele>
        <time>2021-01-31 13:56:35</time>
      </trkpt>
      <trkpt lat="38.82735" lon="-0.11029">
        <ele>248.4</ele>
        <time>2021-01-31 13:56:36</time>
      </trkpt>
      <trkpt lat="38.82733" lon="-0.11032">
        <ele>248.4</ele>
        <time>2021-01-31 13:56:37</time>
      </trkpt>
      <trkpt lat="38.82731" lon="-0.11035">
        <ele>248.4</ele>
        <time>2021-01-31 13:56:38</time>
      </trkpt>
      <trkpt lat="38.82729" lon="-0.11037">
        <ele>248.4</ele>
        <time>2021-01-31 13:56:39</time>
      </trkpt>
      <trkpt lat="38.82726" lon="-0.11039">
        <ele>248.6</ele>
        <time>2021-01-31 13:56:40</time>
      </trkpt>
      <trkpt lat="38.82723" lon="-0.11041">
        <ele>248.6</ele>
        <time>2021-01-31 13:56:41</time>
      </trkpt>
      <trkpt lat="38.8272" lon="-0.11041">
        <ele>248.6</ele>
        <time>2021-01-31 13:56:42</time>
      </trkpt>
      <trkpt lat="38.82717" lon="-0.11042">
        <ele>249.2</ele>
        <time>2021-01-31 13:56:43</time>
      </trkpt>
      <trkpt lat="38.82715" lon="-0.11043">
        <ele>250.2</ele>
        <time>2021-01-31 13:56:44</time>
      </trkpt>
      <trkpt lat="38.82712" lon="-0.11043">
        <ele>250.2</ele>
        <time>2021-01-31 13:56:45</time>
      </trkpt>
      <trkpt lat="38.8271" lon="-0.11042">
        <ele>250.2</ele>
        <time>2021-01-31 13:56:46</time>
      </trkpt>
      <trkpt lat="38.82708" lon="-0.1104">
        <ele>250.2</ele>
        <time>2021-01-31 13:56:47</time>
      </trkpt>
      <trkpt lat="38.82706" lon="-0.11039">
        <ele>251.2</ele>
        <time>2021-01-31 13:56:48</time>
      </trkpt>
      <trkpt lat="38.82703" lon="-0.11037">
        <ele>251.2</ele>
        <time>2021-01-31 13:56:49</time>
      </trkpt>
      <trkpt lat="38.82702" lon="-0.11035">
        <ele>251.2</ele>
        <time>2021-01-31 13:56:50</time>
      </trkpt>
      <trkpt lat="38.827" lon="-0.11033">
        <ele>251.2</ele>
        <time>2021-01-31 13:56:51</time>
      </trkpt>
      <trkpt lat="38.82699" lon="-0.11031">
        <ele>251.4</ele>
        <time>2021-01-31 13:56:52</time>
      </trkpt>
      <trkpt lat="38.82697" lon="-0.11029">
        <ele>251.4</ele>
        <time>2021-01-31 13:56:53</time>
      </trkpt>
      <trkpt lat="38.82695" lon="-0.11027">
        <ele>251.4</ele>
        <time>2021-01-31 13:56:54</time>
      </trkpt>
      <trkpt lat="38.82694" lon="-0.11025">
        <ele>251.4</ele>
        <time>2021-01-31 13:56:55</time>
      </trkpt>
      <trkpt lat="38.82693" lon="-0.11023">
        <ele>251.4</ele>
        <time>2021-01-31 13:56:56</time>
      </trkpt>
      <trkpt lat="38.82692" lon="-0.11021">
        <ele>251.4</ele>
        <time>2021-01-31 13:56:57</time>
      </trkpt>
      <trkpt lat="38.82691" lon="-0.11019">
        <ele>251.4</ele>
        <time>2021-01-31 13:56:58</time>
      </trkpt>
      <trkpt lat="38.8269" lon="-0.11018">
        <ele>252.2</ele>
        <time>2021-01-31 13:56:59</time>
      </trkpt>
      <trkpt lat="38.82689" lon="-0.11016">
        <ele>252.4</ele>
        <time>2021-01-31 13:57:00</time>
      </trkpt>
      <trkpt lat="38.82688" lon="-0.11014">
        <ele>252.4</ele>
        <time>2021-01-31 13:57:01</time>
      </trkpt>
      <trkpt lat="38.82686" lon="-0.11012">
        <ele>252.4</ele>
        <time>2021-01-31 13:57:02</time>
      </trkpt>
      <trkpt lat="38.82687" lon="-0.11009">
        <ele>252.4</ele>
        <time>2021-01-31 13:57:03</time>
      </trkpt>
      <trkpt lat="38.82685" lon="-0.11006">
        <ele>252.8</ele>
        <time>2021-01-31 13:57:04</time>
      </trkpt>
      <trkpt lat="38.82684" lon="-0.11003">
        <ele>252.8</ele>
        <time>2021-01-31 13:57:05</time>
      </trkpt>
      <trkpt lat="38.82683" lon="-0.11">
        <ele>252.8</ele>
        <time>2021-01-31 13:57:06</time>
      </trkpt>
      <trkpt lat="38.82682" lon="-0.10998">
        <ele>252.8</ele>
        <time>2021-01-31 13:57:07</time>
      </trkpt>
      <trkpt lat="38.82681" lon="-0.10995">
        <ele>253</ele>
        <time>2021-01-31 13:57:08</time>
      </trkpt>
      <trkpt lat="38.8268" lon="-0.10993">
        <ele>253</ele>
        <time>2021-01-31 13:57:09</time>
      </trkpt>
      <trkpt lat="38.8268" lon="-0.1099">
        <ele>253</ele>
        <time>2021-01-31 13:57:10</time>
      </trkpt>
      <trkpt lat="38.82678" lon="-0.10988">
        <ele>253.2</ele>
        <time>2021-01-31 13:57:11</time>
      </trkpt>
      <trkpt lat="38.82678" lon="-0.10985">
        <ele>253.8</ele>
        <time>2021-01-31 13:57:12</time>
      </trkpt>
      <trkpt lat="38.82677" lon="-0.10982">
        <ele>253.8</ele>
        <time>2021-01-31 13:57:13</time>
      </trkpt>
      <trkpt lat="38.82677" lon="-0.10978">
        <ele>253.8</ele>
        <time>2021-01-31 13:57:14</time>
      </trkpt>
      <trkpt lat="38.82676" lon="-0.10975">
        <ele>254.2</ele>
        <time>2021-01-31 13:57:15</time>
      </trkpt>
      <trkpt lat="38.82675" lon="-0.10972">
        <ele>254.6</ele>
        <time>2021-01-31 13:57:16</time>
      </trkpt>
      <trkpt lat="38.82673" lon="-0.1097">
        <ele>254.6</ele>
        <time>2021-01-31 13:57:17</time>
      </trkpt>
      <trkpt lat="38.82672" lon="-0.10966">
        <ele>254.6</ele>
        <time>2021-01-31 13:57:18</time>
      </trkpt>
      <trkpt lat="38.8267" lon="-0.10964">
        <ele>255.4</ele>
        <time>2021-01-31 13:57:19</time>
      </trkpt>
      <trkpt lat="38.82668" lon="-0.10961">
        <ele>255.2</ele>
        <time>2021-01-31 13:57:20</time>
      </trkpt>
      <trkpt lat="38.82666" lon="-0.10958">
        <ele>255.2</ele>
        <time>2021-01-31 13:57:21</time>
      </trkpt>
      <trkpt lat="38.82664" lon="-0.10956">
        <ele>255.2</ele>
        <time>2021-01-31 13:57:22</time>
      </trkpt>
      <trkpt lat="38.82662" lon="-0.10953">
        <ele>256.2</ele>
        <time>2021-01-31 13:57:23</time>
      </trkpt>
      <trkpt lat="38.82659" lon="-0.10951">
        <ele>256.2</ele>
        <time>2021-01-31 13:57:24</time>
      </trkpt>
      <trkpt lat="38.82657" lon="-0.10949">
        <ele>256.2</ele>
        <time>2021-01-31 13:57:25</time>
      </trkpt>
      <trkpt lat="38.82655" lon="-0.10947">
        <ele>256.2</ele>
        <time>2021-01-31 13:57:26</time>
      </trkpt>
      <trkpt lat="38.82654" lon="-0.10946">
        <ele>257</ele>
        <time>2021-01-31 13:57:27</time>
      </trkpt>
      <trkpt lat="38.82652" lon="-0.10944">
        <ele>257</ele>
        <time>2021-01-31 13:57:28</time>
      </trkpt>
      <trkpt lat="38.82651" lon="-0.10943">
        <ele>257</ele>
        <time>2021-01-31 13:57:29</time>
      </trkpt>
      <trkpt lat="38.82649" lon="-0.10941">
        <ele>257</ele>
        <time>2021-01-31 13:57:30</time>
      </trkpt>
      <trkpt lat="38.82648" lon="-0.10938">
        <ele>258</ele>
        <time>2021-01-31 13:57:31</time>
      </trkpt>
      <trkpt lat="38.82646" lon="-0.10935">
        <ele>258</ele>
        <time>2021-01-31 13:57:32</time>
      </trkpt>
      <trkpt lat="38.82644" lon="-0.10933">
        <ele>258</ele>
        <time>2021-01-31 13:57:33</time>
      </trkpt>
      <trkpt lat="38.82643" lon="-0.10932">
        <ele>258</ele>
        <time>2021-01-31 13:57:34</time>
      </trkpt>
      <trkpt lat="38.82642" lon="-0.10928">
        <ele>258</ele>
        <time>2021-01-31 13:57:35</time>
      </trkpt>
      <trkpt lat="38.82641" lon="-0.10925">
        <ele>258</ele>
        <time>2021-01-31 13:57:36</time>
      </trkpt>
      <trkpt lat="38.8264" lon="-0.10921">
        <ele>258</ele>
        <time>2021-01-31 13:57:37</time>
      </trkpt>
      <trkpt lat="38.82639" lon="-0.10916">
        <ele>258</ele>
        <time>2021-01-31 13:57:38</time>
      </trkpt>
      <trkpt lat="38.82638" lon="-0.10911">
        <ele>258.2</ele>
        <time>2021-01-31 13:57:39</time>
      </trkpt>
      <trkpt lat="38.82637" lon="-0.10907">
        <ele>258.4</ele>
        <time>2021-01-31 13:57:40</time>
      </trkpt>
      <trkpt lat="38.82636" lon="-0.10903">
        <ele>258.4</ele>
        <time>2021-01-31 13:57:41</time>
      </trkpt>
      <trkpt lat="38.82636" lon="-0.10898">
        <ele>258.4</ele>
        <time>2021-01-31 13:57:42</time>
      </trkpt>
      <trkpt lat="38.82634" lon="-0.10894">
        <ele>258.4</ele>
        <time>2021-01-31 13:57:43</time>
      </trkpt>
      <trkpt lat="38.82633" lon="-0.10888">
        <ele>257.8</ele>
        <time>2021-01-31 13:57:44</time>
      </trkpt>
      <trkpt lat="38.82633" lon="-0.10883">
        <ele>257.8</ele>
        <time>2021-01-31 13:57:45</time>
      </trkpt>
      <trkpt lat="38.82631" lon="-0.10878">
        <ele>257.8</ele>
        <time>2021-01-31 13:57:46</time>
      </trkpt>
      <trkpt lat="38.8263" lon="-0.10873">
        <ele>257.8</ele>
        <time>2021-01-31 13:57:47</time>
      </trkpt>
      <trkpt lat="38.8263" lon="-0.10867">
        <ele>258</ele>
        <time>2021-01-31 13:57:48</time>
      </trkpt>
      <trkpt lat="38.82629" lon="-0.10862">
        <ele>258</ele>
        <time>2021-01-31 13:57:49</time>
      </trkpt>
      <trkpt lat="38.82628" lon="-0.10858">
        <ele>258</ele>
        <time>2021-01-31 13:57:50</time>
      </trkpt>
      <trkpt lat="38.82627" lon="-0.10853">
        <ele>258</ele>
        <time>2021-01-31 13:57:51</time>
      </trkpt>
      <trkpt lat="38.82625" lon="-0.10848">
        <ele>258.2</ele>
        <time>2021-01-31 13:57:52</time>
      </trkpt>
      <trkpt lat="38.82623" lon="-0.10843">
        <ele>258.2</ele>
        <time>2021-01-31 13:57:53</time>
      </trkpt>
      <trkpt lat="38.82622" lon="-0.1084">
        <ele>258.2</ele>
        <time>2021-01-31 13:57:54</time>
      </trkpt>
      <trkpt lat="38.82619" lon="-0.10834">
        <ele>258.2</ele>
        <time>2021-01-31 13:57:55</time>
      </trkpt>
      <trkpt lat="38.82618" lon="-0.1083">
        <ele>258.8</ele>
        <time>2021-01-31 13:57:56</time>
      </trkpt>
      <trkpt lat="38.82617" lon="-0.10825">
        <ele>258.8</ele>
        <time>2021-01-31 13:57:57</time>
      </trkpt>
      <trkpt lat="38.82614" lon="-0.10821">
        <ele>258.8</ele>
        <time>2021-01-31 13:57:58</time>
      </trkpt>
      <trkpt lat="38.82612" lon="-0.10816">
        <ele>258.8</ele>
        <time>2021-01-31 13:57:59</time>
      </trkpt>
      <trkpt lat="38.82611" lon="-0.10812">
        <ele>258.4</ele>
        <time>2021-01-31 13:58:00</time>
      </trkpt>
      <trkpt lat="38.82608" lon="-0.10809">
        <ele>258.4</ele>
        <time>2021-01-31 13:58:01</time>
      </trkpt>
      <trkpt lat="38.82603" lon="-0.10807">
        <ele>258.4</ele>
        <time>2021-01-31 13:58:02</time>
      </trkpt>
      <trkpt lat="38.82599" lon="-0.10806">
        <ele>259.4</ele>
        <time>2021-01-31 13:58:03</time>
      </trkpt>
      <trkpt lat="38.82597" lon="-0.10804">
        <ele>260.8</ele>
        <time>2021-01-31 13:58:04</time>
      </trkpt>
      <trkpt lat="38.82594" lon="-0.10806">
        <ele>260.8</ele>
        <time>2021-01-31 13:58:05</time>
      </trkpt>
      <trkpt lat="38.82594" lon="-0.10809">
        <ele>260.8</ele>
        <time>2021-01-31 13:58:06</time>
      </trkpt>
      <trkpt lat="38.82595" lon="-0.10811">
        <ele>261.8</ele>
        <time>2021-01-31 13:58:07</time>
      </trkpt>
      <trkpt lat="38.82595" lon="-0.10813">
        <ele>263.4</ele>
        <time>2021-01-31 13:58:08</time>
      </trkpt>
      <trkpt lat="38.82594" lon="-0.10815">
        <ele>263.4</ele>
        <time>2021-01-31 13:58:09</time>
      </trkpt>
      <trkpt lat="38.82595" lon="-0.10815">
        <ele>263.4</ele>
        <time>2021-01-31 13:58:10</time>
      </trkpt>
      <trkpt lat="38.82595" lon="-0.10817">
        <ele>264.2</ele>
        <time>2021-01-31 13:58:11</time>
      </trkpt>
      <trkpt lat="38.82596" lon="-0.10818">
        <ele>264.2</ele>
        <time>2021-01-31 13:58:12</time>
      </trkpt>
      <trkpt lat="38.82597" lon="-0.10819">
        <ele>264.2</ele>
        <time>2021-01-31 13:58:13</time>
      </trkpt>
      <trkpt lat="38.82598" lon="-0.1082">
        <ele>264.2</ele>
        <time>2021-01-31 13:58:14</time>
      </trkpt>
      <trkpt lat="38.82599" lon="-0.10821">
        <ele>263.2</ele>
        <time>2021-01-31 13:58:15</time>
      </trkpt>
      <trkpt lat="38.82601" lon="-0.10823">
        <ele>263.4</ele>
        <time>2021-01-31 13:58:16</time>
      </trkpt>
      <trkpt lat="38.82602" lon="-0.10822">
        <ele>263.4</ele>
        <time>2021-01-31 13:58:17</time>
      </trkpt>
      <trkpt lat="38.82604" lon="-0.10823">
        <ele>263.4</ele>
        <time>2021-01-31 13:58:18</time>
      </trkpt>
      <trkpt lat="38.82606" lon="-0.10824">
        <ele>264</ele>
        <time>2021-01-31 13:58:19</time>
      </trkpt>
      <trkpt lat="38.82608" lon="-0.10826">
        <ele>264.4</ele>
        <time>2021-01-31 13:58:20</time>
      </trkpt>
      <trkpt lat="38.82609" lon="-0.10826">
        <ele>264.4</ele>
        <time>2021-01-31 13:58:21</time>
      </trkpt>
      <trkpt lat="38.82611" lon="-0.10828">
        <ele>264.4</ele>
        <time>2021-01-31 13:58:22</time>
      </trkpt>
      <trkpt lat="38.82612" lon="-0.10829">
        <ele>264.4</ele>
        <time>2021-01-31 13:58:23</time>
      </trkpt>
      <trkpt lat="38.82614" lon="-0.10829">
        <ele>266.2</ele>
        <time>2021-01-31 13:58:24</time>
      </trkpt>
      <trkpt lat="38.82615" lon="-0.1083">
        <ele>266.2</ele>
        <time>2021-01-31 13:58:25</time>
      </trkpt>
      <trkpt lat="38.82617" lon="-0.10832">
        <ele>266.2</ele>
        <time>2021-01-31 13:58:26</time>
      </trkpt>
      <trkpt lat="38.82619" lon="-0.10833">
        <ele>266.4</ele>
        <time>2021-01-31 13:58:27</time>
      </trkpt>
      <trkpt lat="38.8262" lon="-0.10834">
        <ele>267</ele>
        <time>2021-01-31 13:58:28</time>
      </trkpt>
      <trkpt lat="38.82621" lon="-0.10836">
        <ele>267</ele>
        <time>2021-01-31 13:58:29</time>
      </trkpt>
      <trkpt lat="38.82623" lon="-0.10839">
        <ele>267</ele>
        <time>2021-01-31 13:58:30</time>
      </trkpt>
      <trkpt lat="38.82624" lon="-0.10842">
        <ele>266.6</ele>
        <time>2021-01-31 13:58:31</time>
      </trkpt>
      <trkpt lat="38.82625" lon="-0.10843">
        <ele>266.8</ele>
        <time>2021-01-31 13:58:32</time>
      </trkpt>
      <trkpt lat="38.82625" lon="-0.10846">
        <ele>266.8</ele>
        <time>2021-01-31 13:58:33</time>
      </trkpt>
      <trkpt lat="38.82626" lon="-0.10847">
        <ele>266.8</ele>
        <time>2021-01-31 13:58:34</time>
      </trkpt>
      <trkpt lat="38.82626" lon="-0.1085">
        <ele>266.8</ele>
        <time>2021-01-31 13:58:35</time>
      </trkpt>
      <trkpt lat="38.82627" lon="-0.10851">
        <ele>267.4</ele>
        <time>2021-01-31 13:58:36</time>
      </trkpt>
      <trkpt lat="38.82628" lon="-0.10855">
        <ele>267.4</ele>
        <time>2021-01-31 13:58:37</time>
      </trkpt>
      <trkpt lat="38.82627" lon="-0.10857">
        <ele>267.4</ele>
        <time>2021-01-31 13:58:38</time>
      </trkpt>
      <trkpt lat="38.82627" lon="-0.1086">
        <ele>268.4</ele>
        <time>2021-01-31 13:58:39</time>
      </trkpt>
      <trkpt lat="38.82628" lon="-0.1086">
        <ele>269.6</ele>
        <time>2021-01-31 13:58:40</time>
      </trkpt>
      <trkpt lat="38.82629" lon="-0.10861">
        <ele>269.6</ele>
        <time>2021-01-31 13:58:41</time>
      </trkpt>
      <trkpt lat="38.82629" lon="-0.10864">
        <ele>269.6</ele>
        <time>2021-01-31 13:58:42</time>
      </trkpt>
      <trkpt lat="38.82628" lon="-0.10867">
        <ele>269.6</ele>
        <time>2021-01-31 13:58:43</time>
      </trkpt>
      <trkpt lat="38.82628" lon="-0.10869">
        <ele>267.2</ele>
        <time>2021-01-31 13:58:44</time>
      </trkpt>
      <trkpt lat="38.82628" lon="-0.10872">
        <ele>267.2</ele>
        <time>2021-01-31 13:58:45</time>
      </trkpt>
      <trkpt lat="38.82629" lon="-0.10875">
        <ele>267.2</ele>
        <time>2021-01-31 13:58:46</time>
      </trkpt>
      <trkpt lat="38.82629" lon="-0.10879">
        <ele>268.2</ele>
        <time>2021-01-31 13:58:47</time>
      </trkpt>
      <trkpt lat="38.82629" lon="-0.10881">
        <ele>271.2</ele>
        <time>2021-01-31 13:58:48</time>
      </trkpt>
      <trkpt lat="38.82629" lon="-0.10884">
        <ele>271.2</ele>
        <time>2021-01-31 13:58:49</time>
      </trkpt>
      <trkpt lat="38.8263" lon="-0.10887">
        <ele>271.2</ele>
        <time>2021-01-31 13:58:50</time>
      </trkpt>
      <trkpt lat="38.8263" lon="-0.1089">
        <ele>271.2</ele>
        <time>2021-01-31 13:58:51</time>
      </trkpt>
      <trkpt lat="38.8263" lon="-0.10893">
        <ele>272.2</ele>
        <time>2021-01-31 13:58:52</time>
      </trkpt>
      <trkpt lat="38.82631" lon="-0.10896">
        <ele>272.2</ele>
        <time>2021-01-31 13:58:53</time>
      </trkpt>
      <trkpt lat="38.82632" lon="-0.10898">
        <ele>272.2</ele>
        <time>2021-01-31 13:58:54</time>
      </trkpt>
      <trkpt lat="38.82633" lon="-0.10901">
        <ele>272.2</ele>
        <time>2021-01-31 13:58:55</time>
      </trkpt>
      <trkpt lat="38.82633" lon="-0.10904">
        <ele>270.4</ele>
        <time>2021-01-31 13:58:56</time>
      </trkpt>
      <trkpt lat="38.82634" lon="-0.10907">
        <ele>270.4</ele>
        <time>2021-01-31 13:58:57</time>
      </trkpt>
      <trkpt lat="38.82635" lon="-0.1091">
        <ele>270.4</ele>
        <time>2021-01-31 13:58:58</time>
      </trkpt>
      <trkpt lat="38.82635" lon="-0.10914">
        <ele>270.4</ele>
        <time>2021-01-31 13:58:59</time>
      </trkpt>
      <trkpt lat="38.82636" lon="-0.10916">
        <ele>271</ele>
        <time>2021-01-31 13:59:00</time>
      </trkpt>
      <trkpt lat="38.82635" lon="-0.10918">
        <ele>271</ele>
        <time>2021-01-31 13:59:01</time>
      </trkpt>
      <trkpt lat="38.82635" lon="-0.10921">
        <ele>271</ele>
        <time>2021-01-31 13:59:02</time>
      </trkpt>
      <trkpt lat="38.82635" lon="-0.10924">
        <ele>271</ele>
        <time>2021-01-31 13:59:03</time>
      </trkpt>
      <trkpt lat="38.82636" lon="-0.10928">
        <ele>277.2</ele>
        <time>2021-01-31 13:59:04</time>
      </trkpt>
      <trkpt lat="38.82636" lon="-0.10931">
        <ele>277.2</ele>
        <time>2021-01-31 13:59:05</time>
      </trkpt>
      <trkpt lat="38.82637" lon="-0.10934">
        <ele>277.2</ele>
        <time>2021-01-31 13:59:06</time>
      </trkpt>
      <trkpt lat="38.82637" lon="-0.10937">
        <ele>277.2</ele>
        <time>2021-01-31 13:59:07</time>
      </trkpt>
      <trkpt lat="38.82636" lon="-0.1094">
        <ele>276.4</ele>
        <time>2021-01-31 13:59:08</time>
      </trkpt>
      <trkpt lat="38.82636" lon="-0.10943">
        <ele>276.4</ele>
        <time>2021-01-31 13:59:09</time>
      </trkpt>
      <trkpt lat="38.82636" lon="-0.10946">
        <ele>276.4</ele>
        <time>2021-01-31 13:59:10</time>
      </trkpt>
      <trkpt lat="38.82636" lon="-0.10949">
        <ele>275.4</ele>
        <time>2021-01-31 13:59:11</time>
      </trkpt>
      <trkpt lat="38.82636" lon="-0.10952">
        <ele>274</ele>
        <time>2021-01-31 13:59:12</time>
      </trkpt>
      <trkpt lat="38.82635" lon="-0.10954">
        <ele>274</ele>
        <time>2021-01-31 13:59:13</time>
      </trkpt>
      <trkpt lat="38.82635" lon="-0.10957">
        <ele>274</ele>
        <time>2021-01-31 13:59:14</time>
      </trkpt>
      <trkpt lat="38.82635" lon="-0.1096">
        <ele>275</ele>
        <time>2021-01-31 13:59:15</time>
      </trkpt>
      <trkpt lat="38.82635" lon="-0.10963">
        <ele>278.4</ele>
        <time>2021-01-31 13:59:16</time>
      </trkpt>
      <trkpt lat="38.82635" lon="-0.10966">
        <ele>278.4</ele>
        <time>2021-01-31 13:59:17</time>
      </trkpt>
      <trkpt lat="38.82635" lon="-0.1097">
        <ele>278.4</ele>
        <time>2021-01-31 13:59:18</time>
      </trkpt>
      <trkpt lat="38.82634" lon="-0.10973">
        <ele>278.4</ele>
        <time>2021-01-31 13:59:19</time>
      </trkpt>
      <trkpt lat="38.82634" lon="-0.10977">
        <ele>275.4</ele>
        <time>2021-01-31 13:59:20</time>
      </trkpt>
      <trkpt lat="38.82634" lon="-0.1098">
        <ele>275.4</ele>
        <time>2021-01-31 13:59:21</time>
      </trkpt>
      <trkpt lat="38.82634" lon="-0.10983">
        <ele>275.4</ele>
        <time>2021-01-31 13:59:22</time>
      </trkpt>
      <trkpt lat="38.82634" lon="-0.10986">
        <ele>276.4</ele>
        <time>2021-01-31 13:59:23</time>
      </trkpt>
      <trkpt lat="38.82634" lon="-0.10989">
        <ele>276.4</ele>
        <time>2021-01-31 13:59:24</time>
      </trkpt>
      <trkpt lat="38.82633" lon="-0.10991">
        <ele>276.4</ele>
        <time>2021-01-31 13:59:25</time>
      </trkpt>
      <trkpt lat="38.82633" lon="-0.10995">
        <ele>276.4</ele>
        <time>2021-01-31 13:59:26</time>
      </trkpt>
      <trkpt lat="38.82632" lon="-0.10998">
        <ele>276.4</ele>
        <time>2021-01-31 13:59:27</time>
      </trkpt>
      <trkpt lat="38.82631" lon="-0.11001">
        <ele>279.4</ele>
        <time>2021-01-31 13:59:28</time>
      </trkpt>
      <trkpt lat="38.8263" lon="-0.11004">
        <ele>279.4</ele>
        <time>2021-01-31 13:59:29</time>
      </trkpt>
      <trkpt lat="38.8263" lon="-0.11007">
        <ele>279.4</ele>
        <time>2021-01-31 13:59:30</time>
      </trkpt>
      <trkpt lat="38.8263" lon="-0.1101">
        <ele>278.4</ele>
        <time>2021-01-31 13:59:31</time>
      </trkpt>
      <trkpt lat="38.8263" lon="-0.11013">
        <ele>280.4</ele>
        <time>2021-01-31 13:59:32</time>
      </trkpt>
      <trkpt lat="38.82629" lon="-0.11017">
        <ele>280.4</ele>
        <time>2021-01-31 13:59:33</time>
      </trkpt>
      <trkpt lat="38.82629" lon="-0.11019">
        <ele>280.4</ele>
        <time>2021-01-31 13:59:34</time>
      </trkpt>
      <trkpt lat="38.8263" lon="-0.11023">
        <ele>281.4</ele>
        <time>2021-01-31 13:59:35</time>
      </trkpt>
      <trkpt lat="38.82631" lon="-0.11025">
        <ele>281.8</ele>
        <time>2021-01-31 13:59:36</time>
      </trkpt>
      <trkpt lat="38.82631" lon="-0.11029">
        <ele>281.8</ele>
        <time>2021-01-31 13:59:37</time>
      </trkpt>
      <trkpt lat="38.82631" lon="-0.11032">
        <ele>281.8</ele>
        <time>2021-01-31 13:59:38</time>
      </trkpt>
      <trkpt lat="38.82631" lon="-0.11034">
        <ele>280.8</ele>
        <time>2021-01-31 13:59:39</time>
      </trkpt>
      <trkpt lat="38.82632" lon="-0.11038">
        <ele>280.8</ele>
        <time>2021-01-31 13:59:40</time>
      </trkpt>
      <trkpt lat="38.82633" lon="-0.11041">
        <ele>280.8</ele>
        <time>2021-01-31 13:59:41</time>
      </trkpt>
      <trkpt lat="38.82634" lon="-0.11045">
        <ele>280.8</ele>
        <time>2021-01-31 13:59:42</time>
      </trkpt>
      <trkpt lat="38.82635" lon="-0.11048">
        <ele>281.8</ele>
        <time>2021-01-31 13:59:43</time>
      </trkpt>
      <trkpt lat="38.82636" lon="-0.11051">
        <ele>282</ele>
        <time>2021-01-31 13:59:44</time>
      </trkpt>
      <trkpt lat="38.82636" lon="-0.11053">
        <ele>282</ele>
        <time>2021-01-31 13:59:45</time>
      </trkpt>
      <trkpt lat="38.82636" lon="-0.11055">
        <ele>282</ele>
        <time>2021-01-31 13:59:46</time>
      </trkpt>
      <trkpt lat="38.82637" lon="-0.11058">
        <ele>281</ele>
        <time>2021-01-31 13:59:47</time>
      </trkpt>
      <trkpt lat="38.82637" lon="-0.11061">
        <ele>282.6</ele>
        <time>2021-01-31 13:59:48</time>
      </trkpt>
      <trkpt lat="38.82637" lon="-0.11064">
        <ele>282.6</ele>
        <time>2021-01-31 13:59:49</time>
      </trkpt>
      <trkpt lat="38.82637" lon="-0.11067">
        <ele>282.6</ele>
        <time>2021-01-31 13:59:50</time>
      </trkpt>
      <trkpt lat="38.82637" lon="-0.11071">
        <ele>283.4</ele>
        <time>2021-01-31 13:59:51</time>
      </trkpt>
      <trkpt lat="38.82636" lon="-0.11075">
        <ele>283.4</ele>
        <time>2021-01-31 13:59:52</time>
      </trkpt>
      <trkpt lat="38.82635" lon="-0.11078">
        <ele>283.4</ele>
        <time>2021-01-31 13:59:53</time>
      </trkpt>
      <trkpt lat="38.82635" lon="-0.11081">
        <ele>283.4</ele>
        <time>2021-01-31 13:59:54</time>
      </trkpt>
      <trkpt lat="38.82635" lon="-0.11085">
        <ele>282.4</ele>
        <time>2021-01-31 13:59:55</time>
      </trkpt>
      <trkpt lat="38.82635" lon="-0.11089">
        <ele>283.6</ele>
        <time>2021-01-31 13:59:56</time>
      </trkpt>
      <trkpt lat="38.82634" lon="-0.11093">
        <ele>283.6</ele>
        <time>2021-01-31 13:59:57</time>
      </trkpt>
      <trkpt lat="38.82634" lon="-0.11097">
        <ele>283.6</ele>
        <time>2021-01-31 13:59:58</time>
      </trkpt>
      <trkpt lat="38.82633" lon="-0.111">
        <ele>283.6</ele>
        <time>2021-01-31 13:59:59</time>
      </trkpt>
      <trkpt lat="38.82634" lon="-0.11104">
        <ele>282.2</ele>
        <time>2021-01-31 14:00:00</time>
      </trkpt>
      <trkpt lat="38.82633" lon="-0.11108">
        <ele>282.2</ele>
        <time>2021-01-31 14:00:01</time>
      </trkpt>
      <trkpt lat="38.82632" lon="-0.11112">
        <ele>282.2</ele>
        <time>2021-01-31 14:00:02</time>
      </trkpt>
      <trkpt lat="38.82632" lon="-0.11117">
        <ele>282.2</ele>
        <time>2021-01-31 14:00:03</time>
      </trkpt>
      <trkpt lat="38.82631" lon="-0.11121">
        <ele>282</ele>
        <time>2021-01-31 14:00:04</time>
      </trkpt>
      <trkpt lat="38.8263" lon="-0.11124">
        <ele>282</ele>
        <time>2021-01-31 14:00:05</time>
      </trkpt>
      <trkpt lat="38.8263" lon="-0.11128">
        <ele>282</ele>
        <time>2021-01-31 14:00:06</time>
      </trkpt>
      <trkpt lat="38.82629" lon="-0.11131">
        <ele>282.6</ele>
        <time>2021-01-31 14:00:07</time>
      </trkpt>
      <trkpt lat="38.82629" lon="-0.11134">
        <ele>282.6</ele>
        <time>2021-01-31 14:00:08</time>
      </trkpt>
      <trkpt lat="38.82628" lon="-0.11137">
        <ele>282.6</ele>
        <time>2021-01-31 14:00:09</time>
      </trkpt>
      <trkpt lat="38.82628" lon="-0.11141">
        <ele>282.6</ele>
        <time>2021-01-31 14:00:10</time>
      </trkpt>
      <trkpt lat="38.82628" lon="-0.11144">
        <ele>282.6</ele>
        <time>2021-01-31 14:00:11</time>
      </trkpt>
      <trkpt lat="38.82628" lon="-0.11147">
        <ele>283.4</ele>
        <time>2021-01-31 14:00:12</time>
      </trkpt>
      <trkpt lat="38.82628" lon="-0.1115">
        <ele>283.4</ele>
        <time>2021-01-31 14:00:13</time>
      </trkpt>
      <trkpt lat="38.82628" lon="-0.11153">
        <ele>283.4</ele>
        <time>2021-01-31 14:00:14</time>
      </trkpt>
      <trkpt lat="38.82628" lon="-0.11156">
        <ele>284.4</ele>
        <time>2021-01-31 14:00:15</time>
      </trkpt>
      <trkpt lat="38.82628" lon="-0.11159">
        <ele>286.6</ele>
        <time>2021-01-31 14:00:16</time>
      </trkpt>
      <trkpt lat="38.82627" lon="-0.11163">
        <ele>286.6</ele>
        <time>2021-01-31 14:00:17</time>
      </trkpt>
      <trkpt lat="38.82627" lon="-0.11165">
        <ele>286.6</ele>
        <time>2021-01-31 14:00:18</time>
      </trkpt>
      <trkpt lat="38.82626" lon="-0.11169">
        <ele>286.6</ele>
        <time>2021-01-31 14:00:19</time>
      </trkpt>
      <trkpt lat="38.82625" lon="-0.11171">
        <ele>286.6</ele>
        <time>2021-01-31 14:00:20</time>
      </trkpt>
      <trkpt lat="38.82625" lon="-0.11175">
        <ele>286.6</ele>
        <time>2021-01-31 14:00:21</time>
      </trkpt>
      <trkpt lat="38.82624" lon="-0.11178">
        <ele>286.6</ele>
        <time>2021-01-31 14:00:22</time>
      </trkpt>
      <trkpt lat="38.82622" lon="-0.11181">
        <ele>286.6</ele>
        <time>2021-01-31 14:00:23</time>
      </trkpt>
      <trkpt lat="38.82621" lon="-0.11183">
        <ele>286.4</ele>
        <time>2021-01-31 14:00:24</time>
      </trkpt>
      <trkpt lat="38.8262" lon="-0.11185">
        <ele>286.4</ele>
        <time>2021-01-31 14:00:25</time>
      </trkpt>
      <trkpt lat="38.82619" lon="-0.11188">
        <ele>286.4</ele>
        <time>2021-01-31 14:00:26</time>
      </trkpt>
      <trkpt lat="38.82618" lon="-0.11191">
        <ele>285.4</ele>
        <time>2021-01-31 14:00:27</time>
      </trkpt>
      <trkpt lat="38.82617" lon="-0.11194">
        <ele>286.2</ele>
        <time>2021-01-31 14:00:28</time>
      </trkpt>
      <trkpt lat="38.82616" lon="-0.11196">
        <ele>286.2</ele>
        <time>2021-01-31 14:00:29</time>
      </trkpt>
      <trkpt lat="38.82616" lon="-0.11199">
        <ele>286.2</ele>
        <time>2021-01-31 14:00:30</time>
      </trkpt>
      <trkpt lat="38.82614" lon="-0.11201">
        <ele>286.6</ele>
        <time>2021-01-31 14:00:31</time>
      </trkpt>
      <trkpt lat="38.82613" lon="-0.11204">
        <ele>286.8</ele>
        <time>2021-01-31 14:00:32</time>
      </trkpt>
      <trkpt lat="38.82611" lon="-0.11208">
        <ele>286.8</ele>
        <time>2021-01-31 14:00:33</time>
      </trkpt>
      <trkpt lat="38.8261" lon="-0.11211">
        <ele>286.8</ele>
        <time>2021-01-31 14:00:34</time>
      </trkpt>
      <trkpt lat="38.82609" lon="-0.11214">
        <ele>286.8</ele>
        <time>2021-01-31 14:00:35</time>
      </trkpt>
      <trkpt lat="38.82608" lon="-0.11217">
        <ele>287.2</ele>
        <time>2021-01-31 14:00:36</time>
      </trkpt>
      <trkpt lat="38.82606" lon="-0.1122">
        <ele>287.2</ele>
        <time>2021-01-31 14:00:37</time>
      </trkpt>
      <trkpt lat="38.82605" lon="-0.11223">
        <ele>287.2</ele>
        <time>2021-01-31 14:00:38</time>
      </trkpt>
      <trkpt lat="38.82604" lon="-0.11226">
        <ele>287.8</ele>
        <time>2021-01-31 14:00:39</time>
      </trkpt>
      <trkpt lat="38.82602" lon="-0.11228">
        <ele>288.2</ele>
        <time>2021-01-31 14:00:40</time>
      </trkpt>
      <trkpt lat="38.82601" lon="-0.11231">
        <ele>288.2</ele>
        <time>2021-01-31 14:00:41</time>
      </trkpt>
      <trkpt lat="38.826" lon="-0.11235">
        <ele>288.2</ele>
        <time>2021-01-31 14:00:42</time>
      </trkpt>
      <trkpt lat="38.82598" lon="-0.11238">
        <ele>288.2</ele>
        <time>2021-01-31 14:00:43</time>
      </trkpt>
      <trkpt lat="38.82597" lon="-0.11241">
        <ele>286.6</ele>
        <time>2021-01-31 14:00:44</time>
      </trkpt>
      <trkpt lat="38.82596" lon="-0.11243">
        <ele>286.6</ele>
        <time>2021-01-31 14:00:45</time>
      </trkpt>
      <trkpt lat="38.82594" lon="-0.11246">
        <ele>286.6</ele>
        <time>2021-01-31 14:00:46</time>
      </trkpt>
      <trkpt lat="38.82593" lon="-0.11249">
        <ele>286.6</ele>
        <time>2021-01-31 14:00:47</time>
      </trkpt>
      <trkpt lat="38.82591" lon="-0.11253">
        <ele>288.6</ele>
        <time>2021-01-31 14:00:48</time>
      </trkpt>
      <trkpt lat="38.82589" lon="-0.11256">
        <ele>288.6</ele>
        <time>2021-01-31 14:00:49</time>
      </trkpt>
      <trkpt lat="38.82588" lon="-0.11259">
        <ele>288.6</ele>
        <time>2021-01-31 14:00:50</time>
      </trkpt>
      <trkpt lat="38.82586" lon="-0.11262">
        <ele>289.6</ele>
        <time>2021-01-31 14:00:51</time>
      </trkpt>
      <trkpt lat="38.82585" lon="-0.11265">
        <ele>288</ele>
        <time>2021-01-31 14:00:52</time>
      </trkpt>
      <trkpt lat="38.82583" lon="-0.1127">
        <ele>288</ele>
        <time>2021-01-31 14:00:53</time>
      </trkpt>
      <trkpt lat="38.82581" lon="-0.11276">
        <ele>288</ele>
        <time>2021-01-31 14:00:54</time>
      </trkpt>
      <trkpt lat="38.82579" lon="-0.1128">
        <ele>288.8</ele>
        <time>2021-01-31 14:00:55</time>
      </trkpt>
      <trkpt lat="38.82578" lon="-0.11283">
        <ele>288.6</ele>
        <time>2021-01-31 14:00:56</time>
      </trkpt>
      <trkpt lat="38.82577" lon="-0.11287">
        <ele>288.6</ele>
        <time>2021-01-31 14:00:57</time>
      </trkpt>
      <trkpt lat="38.82576" lon="-0.11291">
        <ele>288.6</ele>
        <time>2021-01-31 14:00:58</time>
      </trkpt>
      <trkpt lat="38.82574" lon="-0.11294">
        <ele>287.8</ele>
        <time>2021-01-31 14:00:59</time>
      </trkpt>
      <trkpt lat="38.82573" lon="-0.11297">
        <ele>286.4</ele>
        <time>2021-01-31 14:01:00</time>
      </trkpt>
      <trkpt lat="38.82572" lon="-0.113">
        <ele>286.4</ele>
        <time>2021-01-31 14:01:01</time>
      </trkpt>
      <trkpt lat="38.82571" lon="-0.11303">
        <ele>286.4</ele>
        <time>2021-01-31 14:01:02</time>
      </trkpt>
      <trkpt lat="38.8257" lon="-0.11305">
        <ele>287.4</ele>
        <time>2021-01-31 14:01:03</time>
      </trkpt>
      <trkpt lat="38.82569" lon="-0.11308">
        <ele>290</ele>
        <time>2021-01-31 14:01:04</time>
      </trkpt>
      <trkpt lat="38.82567" lon="-0.11311">
        <ele>290</ele>
        <time>2021-01-31 14:01:05</time>
      </trkpt>
      <trkpt lat="38.82566" lon="-0.11314">
        <ele>290</ele>
        <time>2021-01-31 14:01:06</time>
      </trkpt>
      <trkpt lat="38.82565" lon="-0.11317">
        <ele>290</ele>
        <time>2021-01-31 14:01:07</time>
      </trkpt>
      <trkpt lat="38.82563" lon="-0.11319">
        <ele>291.2</ele>
        <time>2021-01-31 14:01:08</time>
      </trkpt>
      <trkpt lat="38.82562" lon="-0.11322">
        <ele>291.2</ele>
        <time>2021-01-31 14:01:09</time>
      </trkpt>
      <trkpt lat="38.82561" lon="-0.11324">
        <ele>291.2</ele>
        <time>2021-01-31 14:01:10</time>
      </trkpt>
      <trkpt lat="38.82559" lon="-0.11327">
        <ele>291.2</ele>
        <time>2021-01-31 14:01:11</time>
      </trkpt>
      <trkpt lat="38.82558" lon="-0.11329">
        <ele>291.2</ele>
        <time>2021-01-31 14:01:12</time>
      </trkpt>
      <trkpt lat="38.82556" lon="-0.11332">
        <ele>291.2</ele>
        <time>2021-01-31 14:01:13</time>
      </trkpt>
      <trkpt lat="38.82554" lon="-0.11334">
        <ele>291.2</ele>
        <time>2021-01-31 14:01:14</time>
      </trkpt>
      <trkpt lat="38.82552" lon="-0.11336">
        <ele>292</ele>
        <time>2021-01-31 14:01:15</time>
      </trkpt>
      <trkpt lat="38.82551" lon="-0.11337">
        <ele>292.2</ele>
        <time>2021-01-31 14:01:16</time>
      </trkpt>
      <trkpt lat="38.82548" lon="-0.11339">
        <ele>292.2</ele>
        <time>2021-01-31 14:01:17</time>
      </trkpt>
      <trkpt lat="38.82546" lon="-0.1134">
        <ele>292.2</ele>
        <time>2021-01-31 14:01:18</time>
      </trkpt>
      <trkpt lat="38.82544" lon="-0.11342">
        <ele>292.2</ele>
        <time>2021-01-31 14:01:19</time>
      </trkpt>
      <trkpt lat="38.82543" lon="-0.11343">
        <ele>290.8</ele>
        <time>2021-01-31 14:01:20</time>
      </trkpt>
      <trkpt lat="38.82541" lon="-0.11345">
        <ele>290.8</ele>
        <time>2021-01-31 14:01:21</time>
      </trkpt>
      <trkpt lat="38.82538" lon="-0.11346">
        <ele>290.8</ele>
        <time>2021-01-31 14:01:22</time>
      </trkpt>
      <trkpt lat="38.82536" lon="-0.11347">
        <ele>290.8</ele>
        <time>2021-01-31 14:01:23</time>
      </trkpt>
      <trkpt lat="38.82534" lon="-0.11349">
        <ele>294</ele>
        <time>2021-01-31 14:01:24</time>
      </trkpt>
      <trkpt lat="38.82532" lon="-0.1135">
        <ele>294</ele>
        <time>2021-01-31 14:01:25</time>
      </trkpt>
      <trkpt lat="38.8253" lon="-0.11352">
        <ele>294</ele>
        <time>2021-01-31 14:01:26</time>
      </trkpt>
      <trkpt lat="38.82528" lon="-0.11355">
        <ele>294</ele>
        <time>2021-01-31 14:01:27</time>
      </trkpt>
      <trkpt lat="38.82526" lon="-0.11358">
        <ele>295</ele>
        <time>2021-01-31 14:01:28</time>
      </trkpt>
      <trkpt lat="38.82525" lon="-0.1136">
        <ele>295</ele>
        <time>2021-01-31 14:01:29</time>
      </trkpt>
      <trkpt lat="38.82523" lon="-0.11362">
        <ele>295</ele>
        <time>2021-01-31 14:01:30</time>
      </trkpt>
      <trkpt lat="38.82522" lon="-0.11365">
        <ele>295</ele>
        <time>2021-01-31 14:01:31</time>
      </trkpt>
      <trkpt lat="38.82521" lon="-0.11367">
        <ele>296</ele>
        <time>2021-01-31 14:01:32</time>
      </trkpt>
      <trkpt lat="38.82519" lon="-0.1137">
        <ele>296</ele>
        <time>2021-01-31 14:01:33</time>
      </trkpt>
      <trkpt lat="38.82518" lon="-0.11373">
        <ele>296</ele>
        <time>2021-01-31 14:01:34</time>
      </trkpt>
      <trkpt lat="38.82517" lon="-0.11375">
        <ele>296</ele>
        <time>2021-01-31 14:01:35</time>
      </trkpt>
      <trkpt lat="38.82516" lon="-0.11377">
        <ele>296.4</ele>
        <time>2021-01-31 14:01:36</time>
      </trkpt>
      <trkpt lat="38.82514" lon="-0.1138">
        <ele>296.4</ele>
        <time>2021-01-31 14:01:37</time>
      </trkpt>
      <trkpt lat="38.82513" lon="-0.11382">
        <ele>296.4</ele>
        <time>2021-01-31 14:01:38</time>
      </trkpt>
      <trkpt lat="38.82511" lon="-0.11384">
        <ele>295.4</ele>
        <time>2021-01-31 14:01:39</time>
      </trkpt>
      <trkpt lat="38.82509" lon="-0.11385">
        <ele>296.6</ele>
        <time>2021-01-31 14:01:40</time>
      </trkpt>
      <trkpt lat="38.82507" lon="-0.11387">
        <ele>296.6</ele>
        <time>2021-01-31 14:01:41</time>
      </trkpt>
      <trkpt lat="38.82505" lon="-0.11388">
        <ele>296.6</ele>
        <time>2021-01-31 14:01:42</time>
      </trkpt>
      <trkpt lat="38.82502" lon="-0.11389">
        <ele>297.4</ele>
        <time>2021-01-31 14:01:43</time>
      </trkpt>
      <trkpt lat="38.825" lon="-0.1139">
        <ele>297.6</ele>
        <time>2021-01-31 14:01:44</time>
      </trkpt>
      <trkpt lat="38.82498" lon="-0.1139">
        <ele>297.6</ele>
        <time>2021-01-31 14:01:45</time>
      </trkpt>
      <trkpt lat="38.82496" lon="-0.1139">
        <ele>297.6</ele>
        <time>2021-01-31 14:01:46</time>
      </trkpt>
      <trkpt lat="38.82493" lon="-0.11389">
        <ele>297.4</ele>
        <time>2021-01-31 14:01:47</time>
      </trkpt>
      <trkpt lat="38.82491" lon="-0.11389">
        <ele>298.2</ele>
        <time>2021-01-31 14:01:48</time>
      </trkpt>
      <trkpt lat="38.82489" lon="-0.11388">
        <ele>298.2</ele>
        <time>2021-01-31 14:01:49</time>
      </trkpt>
      <trkpt lat="38.82487" lon="-0.11386">
        <ele>298.2</ele>
        <time>2021-01-31 14:01:50</time>
      </trkpt>
      <trkpt lat="38.82485" lon="-0.11385">
        <ele>298.2</ele>
        <time>2021-01-31 14:01:51</time>
      </trkpt>
      <trkpt lat="38.82483" lon="-0.11382">
        <ele>299.2</ele>
        <time>2021-01-31 14:01:52</time>
      </trkpt>
      <trkpt lat="38.82482" lon="-0.1138">
        <ele>299.2</ele>
        <time>2021-01-31 14:01:53</time>
      </trkpt>
      <trkpt lat="38.82481" lon="-0.11377">
        <ele>299.2</ele>
        <time>2021-01-31 14:01:54</time>
      </trkpt>
      <trkpt lat="38.82481" lon="-0.11374">
        <ele>299.6</ele>
        <time>2021-01-31 14:01:55</time>
      </trkpt>
      <trkpt lat="38.82481" lon="-0.11371">
        <ele>300</ele>
        <time>2021-01-31 14:01:56</time>
      </trkpt>
      <trkpt lat="38.82482" lon="-0.11368">
        <ele>300</ele>
        <time>2021-01-31 14:01:57</time>
      </trkpt>
      <trkpt lat="38.82482" lon="-0.11366">
        <ele>300</ele>
        <time>2021-01-31 14:01:58</time>
      </trkpt>
      <trkpt lat="38.82483" lon="-0.11363">
        <ele>300.4</ele>
        <time>2021-01-31 14:01:59</time>
      </trkpt>
      <trkpt lat="38.82484" lon="-0.11361">
        <ele>300.6</ele>
        <time>2021-01-31 14:02:00</time>
      </trkpt>
      <trkpt lat="38.82485" lon="-0.11358">
        <ele>300.6</ele>
        <time>2021-01-31 14:02:01</time>
      </trkpt>
      <trkpt lat="38.82487" lon="-0.11356">
        <ele>300.6</ele>
        <time>2021-01-31 14:02:02</time>
      </trkpt>
      <trkpt lat="38.82488" lon="-0.11354">
        <ele>300.6</ele>
        <time>2021-01-31 14:02:03</time>
      </trkpt>
      <trkpt lat="38.8249" lon="-0.11352">
        <ele>301.4</ele>
        <time>2021-01-31 14:02:04</time>
      </trkpt>
      <trkpt lat="38.82492" lon="-0.11349">
        <ele>301.4</ele>
        <time>2021-01-31 14:02:05</time>
      </trkpt>
      <trkpt lat="38.82494" lon="-0.11347">
        <ele>301.4</ele>
        <time>2021-01-31 14:02:06</time>
      </trkpt>
      <trkpt lat="38.82496" lon="-0.11345">
        <ele>301.6</ele>
        <time>2021-01-31 14:02:07</time>
      </trkpt>
      <trkpt lat="38.82498" lon="-0.11343">
        <ele>301.8</ele>
        <time>2021-01-31 14:02:08</time>
      </trkpt>
      <trkpt lat="38.825" lon="-0.11341">
        <ele>301.8</ele>
        <time>2021-01-31 14:02:09</time>
      </trkpt>
      <trkpt lat="38.82502" lon="-0.11339">
        <ele>301.8</ele>
        <time>2021-01-31 14:02:10</time>
      </trkpt>
      <trkpt lat="38.82505" lon="-0.11337">
        <ele>301.8</ele>
        <time>2021-01-31 14:02:11</time>
      </trkpt>
      <trkpt lat="38.82507" lon="-0.11335">
        <ele>301.2</ele>
        <time>2021-01-31 14:02:12</time>
      </trkpt>
      <trkpt lat="38.82509" lon="-0.11333">
        <ele>301.2</ele>
        <time>2021-01-31 14:02:13</time>
      </trkpt>
      <trkpt lat="38.82512" lon="-0.11331">
        <ele>301.2</ele>
        <time>2021-01-31 14:02:14</time>
      </trkpt>
      <trkpt lat="38.82514" lon="-0.11329">
        <ele>301.2</ele>
        <time>2021-01-31 14:02:15</time>
      </trkpt>
      <trkpt lat="38.82517" lon="-0.11327">
        <ele>303.4</ele>
        <time>2021-01-31 14:02:16</time>
      </trkpt>
      <trkpt lat="38.82519" lon="-0.11325">
        <ele>303.4</ele>
        <time>2021-01-31 14:02:17</time>
      </trkpt>
      <trkpt lat="38.82522" lon="-0.11323">
        <ele>303.4</ele>
        <time>2021-01-31 14:02:18</time>
      </trkpt>
      <trkpt lat="38.82524" lon="-0.11321">
        <ele>303.4</ele>
        <time>2021-01-31 14:02:19</time>
      </trkpt>
      <trkpt lat="38.82527" lon="-0.11319">
        <ele>304.4</ele>
        <time>2021-01-31 14:02:20</time>
      </trkpt>
      <trkpt lat="38.82529" lon="-0.11317">
        <ele>304.4</ele>
        <time>2021-01-31 14:02:21</time>
      </trkpt>
      <trkpt lat="38.82531" lon="-0.11315">
        <ele>304.4</ele>
        <time>2021-01-31 14:02:22</time>
      </trkpt>
      <trkpt lat="38.82533" lon="-0.11313">
        <ele>305.4</ele>
        <time>2021-01-31 14:02:23</time>
      </trkpt>
      <trkpt lat="38.82535" lon="-0.1131">
        <ele>306.8</ele>
        <time>2021-01-31 14:02:24</time>
      </trkpt>
      <trkpt lat="38.82536" lon="-0.11307">
        <ele>306.8</ele>
        <time>2021-01-31 14:02:25</time>
      </trkpt>
      <trkpt lat="38.82538" lon="-0.11304">
        <ele>306.8</ele>
        <time>2021-01-31 14:02:26</time>
      </trkpt>
      <trkpt lat="38.82539" lon="-0.11301">
        <ele>306.8</ele>
        <time>2021-01-31 14:02:27</time>
      </trkpt>
      <trkpt lat="38.8254" lon="-0.11297">
        <ele>305.6</ele>
        <time>2021-01-31 14:02:28</time>
      </trkpt>
      <trkpt lat="38.82541" lon="-0.11294">
        <ele>305.6</ele>
        <time>2021-01-31 14:02:29</time>
      </trkpt>
      <trkpt lat="38.82542" lon="-0.11291">
        <ele>305.6</ele>
        <time>2021-01-31 14:02:30</time>
      </trkpt>
      <trkpt lat="38.82543" lon="-0.11288">
        <ele>305.6</ele>
        <time>2021-01-31 14:02:31</time>
      </trkpt>
      <trkpt lat="38.82545" lon="-0.11285">
        <ele>306.4</ele>
        <time>2021-01-31 14:02:32</time>
      </trkpt>
      <trkpt lat="38.82546" lon="-0.11282">
        <ele>306.4</ele>
        <time>2021-01-31 14:02:33</time>
      </trkpt>
      <trkpt lat="38.82547" lon="-0.11279">
        <ele>306.4</ele>
        <time>2021-01-31 14:02:34</time>
      </trkpt>
      <trkpt lat="38.82548" lon="-0.11276">
        <ele>307.4</ele>
        <time>2021-01-31 14:02:35</time>
      </trkpt>
      <trkpt lat="38.82549" lon="-0.11273">
        <ele>307.6</ele>
        <time>2021-01-31 14:02:36</time>
      </trkpt>
      <trkpt lat="38.8255" lon="-0.1127">
        <ele>307.6</ele>
        <time>2021-01-31 14:02:37</time>
      </trkpt>
      <trkpt lat="38.8255" lon="-0.11266">
        <ele>307.6</ele>
        <time>2021-01-31 14:02:38</time>
      </trkpt>
      <trkpt lat="38.82551" lon="-0.11263">
        <ele>308.6</ele>
        <time>2021-01-31 14:02:39</time>
      </trkpt>
      <trkpt lat="38.82552" lon="-0.11259">
        <ele>309.4</ele>
        <time>2021-01-31 14:02:40</time>
      </trkpt>
      <trkpt lat="38.82552" lon="-0.11256">
        <ele>309.4</ele>
        <time>2021-01-31 14:02:41</time>
      </trkpt>
      <trkpt lat="38.82552" lon="-0.11252">
        <ele>309.4</ele>
        <time>2021-01-31 14:02:42</time>
      </trkpt>
      <trkpt lat="38.82553" lon="-0.11249">
        <ele>310.4</ele>
        <time>2021-01-31 14:02:43</time>
      </trkpt>
      <trkpt lat="38.82553" lon="-0.11245">
        <ele>311.4</ele>
        <time>2021-01-31 14:02:44</time>
      </trkpt>
      <trkpt lat="38.82553" lon="-0.11242">
        <ele>311.4</ele>
        <time>2021-01-31 14:02:45</time>
      </trkpt>
      <trkpt lat="38.82554" lon="-0.11238">
        <ele>311.4</ele>
        <time>2021-01-31 14:02:46</time>
      </trkpt>
      <trkpt lat="38.82554" lon="-0.11234">
        <ele>312.4</ele>
        <time>2021-01-31 14:02:47</time>
      </trkpt>
      <trkpt lat="38.82554" lon="-0.11231">
        <ele>313.4</ele>
        <time>2021-01-31 14:02:48</time>
      </trkpt>
      <trkpt lat="38.82555" lon="-0.11228">
        <ele>313.4</ele>
        <time>2021-01-31 14:02:49</time>
      </trkpt>
      <trkpt lat="38.82555" lon="-0.11224">
        <ele>313.4</ele>
        <time>2021-01-31 14:02:50</time>
      </trkpt>
      <trkpt lat="38.82554" lon="-0.11221">
        <ele>314.2</ele>
        <time>2021-01-31 14:02:51</time>
      </trkpt>
      <trkpt lat="38.82554" lon="-0.11218">
        <ele>314.6</ele>
        <time>2021-01-31 14:02:52</time>
      </trkpt>
      <trkpt lat="38.82554" lon="-0.11215">
        <ele>314.6</ele>
        <time>2021-01-31 14:02:53</time>
      </trkpt>
      <trkpt lat="38.82553" lon="-0.11212">
        <ele>314.6</ele>
        <time>2021-01-31 14:02:54</time>
      </trkpt>
      <trkpt lat="38.82553" lon="-0.11209">
        <ele>315.2</ele>
        <time>2021-01-31 14:02:55</time>
      </trkpt>
      <trkpt lat="38.82552" lon="-0.11205">
        <ele>315.2</ele>
        <time>2021-01-31 14:02:56</time>
      </trkpt>
      <trkpt lat="38.82552" lon="-0.11202">
        <ele>315.2</ele>
        <time>2021-01-31 14:02:57</time>
      </trkpt>
      <trkpt lat="38.82551" lon="-0.11199">
        <ele>315.2</ele>
        <time>2021-01-31 14:02:58</time>
      </trkpt>
      <trkpt lat="38.82551" lon="-0.11196">
        <ele>316.2</ele>
        <time>2021-01-31 14:02:59</time>
      </trkpt>
      <trkpt lat="38.8255" lon="-0.11193">
        <ele>315.2</ele>
        <time>2021-01-31 14:03:00</time>
      </trkpt>
      <trkpt lat="38.82549" lon="-0.11189">
        <ele>315.2</ele>
        <time>2021-01-31 14:03:01</time>
      </trkpt>
      <trkpt lat="38.82549" lon="-0.11185">
        <ele>315.2</ele>
        <time>2021-01-31 14:03:02</time>
      </trkpt>
      <trkpt lat="38.82548" lon="-0.11181">
        <ele>315.2</ele>
        <time>2021-01-31 14:03:03</time>
      </trkpt>
      <trkpt lat="38.82547" lon="-0.11177">
        <ele>316</ele>
        <time>2021-01-31 14:03:04</time>
      </trkpt>
      <trkpt lat="38.82546" lon="-0.11174">
        <ele>316</ele>
        <time>2021-01-31 14:03:05</time>
      </trkpt>
      <trkpt lat="38.82545" lon="-0.1117">
        <ele>316</ele>
        <time>2021-01-31 14:03:06</time>
      </trkpt>
      <trkpt lat="38.82545" lon="-0.11166">
        <ele>317</ele>
        <time>2021-01-31 14:03:07</time>
      </trkpt>
      <trkpt lat="38.82545" lon="-0.11163">
        <ele>317.6</ele>
        <time>2021-01-31 14:03:08</time>
      </trkpt>
      <trkpt lat="38.82545" lon="-0.11159">
        <ele>317.6</ele>
        <time>2021-01-31 14:03:09</time>
      </trkpt>
      <trkpt lat="38.82545" lon="-0.11155">
        <ele>317.6</ele>
        <time>2021-01-31 14:03:10</time>
      </trkpt>
      <trkpt lat="38.82545" lon="-0.11152">
        <ele>317.6</ele>
        <time>2021-01-31 14:03:11</time>
      </trkpt>
      <trkpt lat="38.82544" lon="-0.11148">
        <ele>319.2</ele>
        <time>2021-01-31 14:03:12</time>
      </trkpt>
      <trkpt lat="38.82543" lon="-0.11145">
        <ele>319.2</ele>
        <time>2021-01-31 14:03:13</time>
      </trkpt>
      <trkpt lat="38.82543" lon="-0.11141">
        <ele>319.2</ele>
        <time>2021-01-31 14:03:14</time>
      </trkpt>
      <trkpt lat="38.82543" lon="-0.11138">
        <ele>318.8</ele>
        <time>2021-01-31 14:03:15</time>
      </trkpt>
      <trkpt lat="38.82544" lon="-0.11134">
        <ele>319.8</ele>
        <time>2021-01-31 14:03:16</time>
      </trkpt>
      <trkpt lat="38.82543" lon="-0.11131">
        <ele>319.8</ele>
        <time>2021-01-31 14:03:17</time>
      </trkpt>
      <trkpt lat="38.82543" lon="-0.11128">
        <ele>319.8</ele>
        <time>2021-01-31 14:03:18</time>
      </trkpt>
      <trkpt lat="38.82543" lon="-0.11125">
        <ele>319.8</ele>
        <time>2021-01-31 14:03:19</time>
      </trkpt>
      <trkpt lat="38.82544" lon="-0.11122">
        <ele>319.8</ele>
        <time>2021-01-31 14:03:20</time>
      </trkpt>
      <trkpt lat="38.82544" lon="-0.11119">
        <ele>319.8</ele>
        <time>2021-01-31 14:03:21</time>
      </trkpt>
      <trkpt lat="38.82544" lon="-0.11115">
        <ele>319.8</ele>
        <time>2021-01-31 14:03:22</time>
      </trkpt>
      <trkpt lat="38.82544" lon="-0.11111">
        <ele>319.8</ele>
        <time>2021-01-31 14:03:23</time>
      </trkpt>
      <trkpt lat="38.82544" lon="-0.11108">
        <ele>320.8</ele>
        <time>2021-01-31 14:03:24</time>
      </trkpt>
      <trkpt lat="38.82543" lon="-0.11104">
        <ele>320.8</ele>
        <time>2021-01-31 14:03:25</time>
      </trkpt>
      <trkpt lat="38.82543" lon="-0.111">
        <ele>320.8</ele>
        <time>2021-01-31 14:03:26</time>
      </trkpt>
      <trkpt lat="38.82543" lon="-0.11097">
        <ele>321.8</ele>
        <time>2021-01-31 14:03:27</time>
      </trkpt>
      <trkpt lat="38.82543" lon="-0.11094">
        <ele>323</ele>
        <time>2021-01-31 14:03:28</time>
      </trkpt>
      <trkpt lat="38.82543" lon="-0.11091">
        <ele>323</ele>
        <time>2021-01-31 14:03:29</time>
      </trkpt>
      <trkpt lat="38.82543" lon="-0.11087">
        <ele>323</ele>
        <time>2021-01-31 14:03:30</time>
      </trkpt>
      <trkpt lat="38.82543" lon="-0.11084">
        <ele>323.2</ele>
        <time>2021-01-31 14:03:31</time>
      </trkpt>
      <trkpt lat="38.82543" lon="-0.1108">
        <ele>323.2</ele>
        <time>2021-01-31 14:03:32</time>
      </trkpt>
      <trkpt lat="38.82543" lon="-0.11077">
        <ele>323.2</ele>
        <time>2021-01-31 14:03:33</time>
      </trkpt>
      <trkpt lat="38.82543" lon="-0.11074">
        <ele>323.2</ele>
        <time>2021-01-31 14:03:34</time>
      </trkpt>
      <trkpt lat="38.82543" lon="-0.11071">
        <ele>323.4</ele>
        <time>2021-01-31 14:03:35</time>
      </trkpt>
      <trkpt lat="38.82542" lon="-0.11067">
        <ele>324.2</ele>
        <time>2021-01-31 14:03:36</time>
      </trkpt>
      <trkpt lat="38.82542" lon="-0.11064">
        <ele>324.2</ele>
        <time>2021-01-31 14:03:37</time>
      </trkpt>
      <trkpt lat="38.82542" lon="-0.11061">
        <ele>324.2</ele>
        <time>2021-01-31 14:03:38</time>
      </trkpt>
      <trkpt lat="38.82541" lon="-0.11058">
        <ele>325.2</ele>
        <time>2021-01-31 14:03:39</time>
      </trkpt>
      <trkpt lat="38.82541" lon="-0.11054">
        <ele>324.8</ele>
        <time>2021-01-31 14:03:40</time>
      </trkpt>
      <trkpt lat="38.8254" lon="-0.11051">
        <ele>324.8</ele>
        <time>2021-01-31 14:03:41</time>
      </trkpt>
      <trkpt lat="38.8254" lon="-0.11048">
        <ele>324.8</ele>
        <time>2021-01-31 14:03:42</time>
      </trkpt>
      <trkpt lat="38.82539" lon="-0.11045">
        <ele>324</ele>
        <time>2021-01-31 14:03:43</time>
      </trkpt>
      <trkpt lat="38.82539" lon="-0.11041">
        <ele>324.2</ele>
        <time>2021-01-31 14:03:44</time>
      </trkpt>
      <trkpt lat="38.82538" lon="-0.11038">
        <ele>324.2</ele>
        <time>2021-01-31 14:03:45</time>
      </trkpt>
      <trkpt lat="38.82537" lon="-0.11034">
        <ele>324.2</ele>
        <time>2021-01-31 14:03:46</time>
      </trkpt>
      <trkpt lat="38.82537" lon="-0.11031">
        <ele>325.2</ele>
        <time>2021-01-31 14:03:47</time>
      </trkpt>
      <trkpt lat="38.82536" lon="-0.11029">
        <ele>326</ele>
        <time>2021-01-31 14:03:48</time>
      </trkpt>
      <trkpt lat="38.82535" lon="-0.11026">
        <ele>326</ele>
        <time>2021-01-31 14:03:49</time>
      </trkpt>
      <trkpt lat="38.82535" lon="-0.11023">
        <ele>326</ele>
        <time>2021-01-31 14:03:50</time>
      </trkpt>
      <trkpt lat="38.82534" lon="-0.11021">
        <ele>326</ele>
        <time>2021-01-31 14:03:51</time>
      </trkpt>
      <trkpt lat="38.82533" lon="-0.11017">
        <ele>326.4</ele>
        <time>2021-01-31 14:03:52</time>
      </trkpt>
      <trkpt lat="38.82533" lon="-0.11014">
        <ele>326.4</ele>
        <time>2021-01-31 14:03:53</time>
      </trkpt>
      <trkpt lat="38.82532" lon="-0.11011">
        <ele>326.4</ele>
        <time>2021-01-31 14:03:54</time>
      </trkpt>
      <trkpt lat="38.82531" lon="-0.11008">
        <ele>326.4</ele>
        <time>2021-01-31 14:03:55</time>
      </trkpt>
      <trkpt lat="38.8253" lon="-0.11005">
        <ele>327</ele>
        <time>2021-01-31 14:03:56</time>
      </trkpt>
      <trkpt lat="38.82529" lon="-0.11001">
        <ele>327</ele>
        <time>2021-01-31 14:03:57</time>
      </trkpt>
      <trkpt lat="38.82528" lon="-0.10998">
        <ele>327</ele>
        <time>2021-01-31 14:03:58</time>
      </trkpt>
      <trkpt lat="38.82527" lon="-0.10994">
        <ele>327</ele>
        <time>2021-01-31 14:03:59</time>
      </trkpt>
      <trkpt lat="38.82525" lon="-0.10991">
        <ele>327.6</ele>
        <time>2021-01-31 14:04:00</time>
      </trkpt>
      <trkpt lat="38.82524" lon="-0.10988">
        <ele>327.6</ele>
        <time>2021-01-31 14:04:01</time>
      </trkpt>
      <trkpt lat="38.82523" lon="-0.10984">
        <ele>327.6</ele>
        <time>2021-01-31 14:04:02</time>
      </trkpt>
      <trkpt lat="38.82522" lon="-0.10981">
        <ele>327.6</ele>
        <time>2021-01-31 14:04:03</time>
      </trkpt>
      <trkpt lat="38.82521" lon="-0.10978">
        <ele>328.8</ele>
        <time>2021-01-31 14:04:04</time>
      </trkpt>
      <trkpt lat="38.8252" lon="-0.10974">
        <ele>328.8</ele>
        <time>2021-01-31 14:04:05</time>
      </trkpt>
      <trkpt lat="38.82519" lon="-0.10971">
        <ele>328.8</ele>
        <time>2021-01-31 14:04:06</time>
      </trkpt>
      <trkpt lat="38.82518" lon="-0.10967">
        <ele>328</ele>
        <time>2021-01-31 14:04:07</time>
      </trkpt>
      <trkpt lat="38.82516" lon="-0.10963">
        <ele>328.2</ele>
        <time>2021-01-31 14:04:08</time>
      </trkpt>
      <trkpt lat="38.82515" lon="-0.1096">
        <ele>328.2</ele>
        <time>2021-01-31 14:04:09</time>
      </trkpt>
      <trkpt lat="38.82515" lon="-0.10957">
        <ele>328.2</ele>
        <time>2021-01-31 14:04:10</time>
      </trkpt>
      <trkpt lat="38.82514" lon="-0.10953">
        <ele>328.8</ele>
        <time>2021-01-31 14:04:11</time>
      </trkpt>
      <trkpt lat="38.82513" lon="-0.1095">
        <ele>328.6</ele>
        <time>2021-01-31 14:04:12</time>
      </trkpt>
      <trkpt lat="38.82512" lon="-0.10946">
        <ele>328.6</ele>
        <time>2021-01-31 14:04:13</time>
      </trkpt>
      <trkpt lat="38.82511" lon="-0.10942">
        <ele>328.6</ele>
        <time>2021-01-31 14:04:14</time>
      </trkpt>
      <trkpt lat="38.8251" lon="-0.10938">
        <ele>328.8</ele>
        <time>2021-01-31 14:04:15</time>
      </trkpt>
      <trkpt lat="38.8251" lon="-0.10934">
        <ele>329</ele>
        <time>2021-01-31 14:04:16</time>
      </trkpt>
      <trkpt lat="38.8251" lon="-0.1093">
        <ele>329</ele>
        <time>2021-01-31 14:04:17</time>
      </trkpt>
      <trkpt lat="38.8251" lon="-0.10926">
        <ele>329</ele>
        <time>2021-01-31 14:04:18</time>
      </trkpt>
      <trkpt lat="38.82509" lon="-0.10921">
        <ele>329</ele>
        <time>2021-01-31 14:04:19</time>
      </trkpt>
      <trkpt lat="38.82509" lon="-0.10917">
        <ele>330.6</ele>
        <time>2021-01-31 14:04:20</time>
      </trkpt>
      <trkpt lat="38.82509" lon="-0.10913">
        <ele>330.6</ele>
        <time>2021-01-31 14:04:21</time>
      </trkpt>
      <trkpt lat="38.82509" lon="-0.10909">
        <ele>330.6</ele>
        <time>2021-01-31 14:04:22</time>
      </trkpt>
      <trkpt lat="38.8251" lon="-0.10904">
        <ele>331</ele>
        <time>2021-01-31 14:04:23</time>
      </trkpt>
      <trkpt lat="38.8251" lon="-0.109">
        <ele>331.2</ele>
        <time>2021-01-31 14:04:24</time>
      </trkpt>
      <trkpt lat="38.8251" lon="-0.10896">
        <ele>331.2</ele>
        <time>2021-01-31 14:04:25</time>
      </trkpt>
      <trkpt lat="38.82509" lon="-0.10892">
        <ele>331.2</ele>
        <time>2021-01-31 14:04:26</time>
      </trkpt>
      <trkpt lat="38.82508" lon="-0.10888">
        <ele>332</ele>
        <time>2021-01-31 14:04:27</time>
      </trkpt>
      <trkpt lat="38.82507" lon="-0.10884">
        <ele>332.4</ele>
        <time>2021-01-31 14:04:28</time>
      </trkpt>
      <trkpt lat="38.82506" lon="-0.1088">
        <ele>332.4</ele>
        <time>2021-01-31 14:04:29</time>
      </trkpt>
      <trkpt lat="38.82504" lon="-0.10876">
        <ele>332.4</ele>
        <time>2021-01-31 14:04:30</time>
      </trkpt>
      <trkpt lat="38.82502" lon="-0.10873">
        <ele>333.4</ele>
        <time>2021-01-31 14:04:31</time>
      </trkpt>
      <trkpt lat="38.825" lon="-0.1087">
        <ele>334.2</ele>
        <time>2021-01-31 14:04:32</time>
      </trkpt>
      <trkpt lat="38.82498" lon="-0.10867">
        <ele>334.2</ele>
        <time>2021-01-31 14:04:33</time>
      </trkpt>
      <trkpt lat="38.82496" lon="-0.10864">
        <ele>334.2</ele>
        <time>2021-01-31 14:04:34</time>
      </trkpt>
      <trkpt lat="38.82494" lon="-0.10861">
        <ele>333.6</ele>
        <time>2021-01-31 14:04:35</time>
      </trkpt>
      <trkpt lat="38.82492" lon="-0.10858">
        <ele>333.8</ele>
        <time>2021-01-31 14:04:36</time>
      </trkpt>
      <trkpt lat="38.8249" lon="-0.10855">
        <ele>333.8</ele>
        <time>2021-01-31 14:04:37</time>
      </trkpt>
      <trkpt lat="38.82488" lon="-0.10852">
        <ele>333.8</ele>
        <time>2021-01-31 14:04:38</time>
      </trkpt>
      <trkpt lat="38.82486" lon="-0.10849">
        <ele>334.6</ele>
        <time>2021-01-31 14:04:39</time>
      </trkpt>
      <trkpt lat="38.82484" lon="-0.10846">
        <ele>334.8</ele>
        <time>2021-01-31 14:04:40</time>
      </trkpt>
      <trkpt lat="38.82482" lon="-0.10843">
        <ele>334.8</ele>
        <time>2021-01-31 14:04:41</time>
      </trkpt>
      <trkpt lat="38.8248" lon="-0.1084">
        <ele>334.8</ele>
        <time>2021-01-31 14:04:42</time>
      </trkpt>
      <trkpt lat="38.82478" lon="-0.10837">
        <ele>335.8</ele>
        <time>2021-01-31 14:04:43</time>
      </trkpt>
      <trkpt lat="38.82475" lon="-0.10835">
        <ele>335.8</ele>
        <time>2021-01-31 14:04:44</time>
      </trkpt>
      <trkpt lat="38.82473" lon="-0.10832">
        <ele>335.8</ele>
        <time>2021-01-31 14:04:45</time>
      </trkpt>
      <trkpt lat="38.8247" lon="-0.1083">
        <ele>335.8</ele>
        <time>2021-01-31 14:04:46</time>
      </trkpt>
      <trkpt lat="38.82468" lon="-0.10827">
        <ele>334.8</ele>
        <time>2021-01-31 14:04:47</time>
      </trkpt>
      <trkpt lat="38.82465" lon="-0.10825">
        <ele>335.2</ele>
        <time>2021-01-31 14:04:48</time>
      </trkpt>
      <trkpt lat="38.82463" lon="-0.10823">
        <ele>335.2</ele>
        <time>2021-01-31 14:04:49</time>
      </trkpt>
      <trkpt lat="38.8246" lon="-0.10822">
        <ele>335.2</ele>
        <time>2021-01-31 14:04:50</time>
      </trkpt>
      <trkpt lat="38.82457" lon="-0.1082">
        <ele>335.8</ele>
        <time>2021-01-31 14:04:51</time>
      </trkpt>
      <trkpt lat="38.82454" lon="-0.10819">
        <ele>334.8</ele>
        <time>2021-01-31 14:04:52</time>
      </trkpt>
      <trkpt lat="38.82451" lon="-0.10818">
        <ele>334.8</ele>
        <time>2021-01-31 14:04:53</time>
      </trkpt>
      <trkpt lat="38.82448" lon="-0.10817">
        <ele>334.8</ele>
        <time>2021-01-31 14:04:54</time>
      </trkpt>
      <trkpt lat="38.82444" lon="-0.10817">
        <ele>334.8</ele>
        <time>2021-01-31 14:04:55</time>
      </trkpt>
      <trkpt lat="38.82441" lon="-0.10817">
        <ele>335.4</ele>
        <time>2021-01-31 14:04:56</time>
      </trkpt>
      <trkpt lat="38.82437" lon="-0.10817">
        <ele>335.4</ele>
        <time>2021-01-31 14:04:57</time>
      </trkpt>
      <trkpt lat="38.82433" lon="-0.10818">
        <ele>335.4</ele>
        <time>2021-01-31 14:04:58</time>
      </trkpt>
      <trkpt lat="38.8243" lon="-0.10818">
        <ele>335.4</ele>
        <time>2021-01-31 14:04:59</time>
      </trkpt>
      <trkpt lat="38.82426" lon="-0.10818">
        <ele>335.4</ele>
        <time>2021-01-31 14:05:00</time>
      </trkpt>
      <trkpt lat="38.82422" lon="-0.10818">
        <ele>335.4</ele>
        <time>2021-01-31 14:05:01</time>
      </trkpt>
      <trkpt lat="38.82419" lon="-0.10818">
        <ele>335.4</ele>
        <time>2021-01-31 14:05:02</time>
      </trkpt>
      <trkpt lat="38.82416" lon="-0.10819">
        <ele>336</ele>
        <time>2021-01-31 14:05:03</time>
      </trkpt>
      <trkpt lat="38.82412" lon="-0.10819">
        <ele>335.4</ele>
        <time>2021-01-31 14:05:04</time>
      </trkpt>
      <trkpt lat="38.82409" lon="-0.10819">
        <ele>335.4</ele>
        <time>2021-01-31 14:05:05</time>
      </trkpt>
      <trkpt lat="38.82405" lon="-0.10819">
        <ele>335.4</ele>
        <time>2021-01-31 14:05:06</time>
      </trkpt>
      <trkpt lat="38.82402" lon="-0.10819">
        <ele>335.6</ele>
        <time>2021-01-31 14:05:07</time>
      </trkpt>
      <trkpt lat="38.82399" lon="-0.10819">
        <ele>336.2</ele>
        <time>2021-01-31 14:05:08</time>
      </trkpt>
      <trkpt lat="38.82395" lon="-0.10819">
        <ele>336.2</ele>
        <time>2021-01-31 14:05:09</time>
      </trkpt>
      <trkpt lat="38.82392" lon="-0.1082">
        <ele>336.2</ele>
        <time>2021-01-31 14:05:10</time>
      </trkpt>
      <trkpt lat="38.82388" lon="-0.1082">
        <ele>335.4</ele>
        <time>2021-01-31 14:05:11</time>
      </trkpt>
      <trkpt lat="38.82384" lon="-0.10821">
        <ele>335.6</ele>
        <time>2021-01-31 14:05:12</time>
      </trkpt>
      <trkpt lat="38.8238" lon="-0.10821">
        <ele>335.6</ele>
        <time>2021-01-31 14:05:13</time>
      </trkpt>
      <trkpt lat="38.82376" lon="-0.10822">
        <ele>335.6</ele>
        <time>2021-01-31 14:05:14</time>
      </trkpt>
      <trkpt lat="38.82371" lon="-0.10822">
        <ele>335.6</ele>
        <time>2021-01-31 14:05:15</time>
      </trkpt>
      <trkpt lat="38.82367" lon="-0.10823">
        <ele>335.8</ele>
        <time>2021-01-31 14:05:16</time>
      </trkpt>
      <trkpt lat="38.82362" lon="-0.10823">
        <ele>335.8</ele>
        <time>2021-01-31 14:05:17</time>
      </trkpt>
      <trkpt lat="38.82358" lon="-0.10824">
        <ele>335.8</ele>
        <time>2021-01-31 14:05:18</time>
      </trkpt>
      <trkpt lat="38.82354" lon="-0.10825">
        <ele>335.8</ele>
        <time>2021-01-31 14:05:19</time>
      </trkpt>
      <trkpt lat="38.82349" lon="-0.10826">
        <ele>334.2</ele>
        <time>2021-01-31 14:05:20</time>
      </trkpt>
      <trkpt lat="38.82344" lon="-0.10827">
        <ele>334.2</ele>
        <time>2021-01-31 14:05:21</time>
      </trkpt>
      <trkpt lat="38.82339" lon="-0.10829">
        <ele>334.2</ele>
        <time>2021-01-31 14:05:22</time>
      </trkpt>
      <trkpt lat="38.82334" lon="-0.1083">
        <ele>335</ele>
        <time>2021-01-31 14:05:23</time>
      </trkpt>
      <trkpt lat="38.82329" lon="-0.10831">
        <ele>334.8</ele>
        <time>2021-01-31 14:05:24</time>
      </trkpt>
      <trkpt lat="38.82324" lon="-0.10833">
        <ele>334.8</ele>
        <time>2021-01-31 14:05:25</time>
      </trkpt>
      <trkpt lat="38.82319" lon="-0.10835">
        <ele>334.8</ele>
        <time>2021-01-31 14:05:26</time>
      </trkpt>
      <trkpt lat="38.82313" lon="-0.10836">
        <ele>335.8</ele>
        <time>2021-01-31 14:05:27</time>
      </trkpt>
      <trkpt lat="38.82308" lon="-0.10838">
        <ele>335.4</ele>
        <time>2021-01-31 14:05:28</time>
      </trkpt>
      <trkpt lat="38.82303" lon="-0.1084">
        <ele>335.4</ele>
        <time>2021-01-31 14:05:29</time>
      </trkpt>
      <trkpt lat="38.82297" lon="-0.10843">
        <ele>335.4</ele>
        <time>2021-01-31 14:05:30</time>
      </trkpt>
      <trkpt lat="38.82292" lon="-0.10846">
        <ele>335.4</ele>
        <time>2021-01-31 14:05:31</time>
      </trkpt>
      <trkpt lat="38.82288" lon="-0.10851">
        <ele>332.4</ele>
        <time>2021-01-31 14:05:32</time>
      </trkpt>
      <trkpt lat="38.82284" lon="-0.10856">
        <ele>332.4</ele>
        <time>2021-01-31 14:05:33</time>
      </trkpt>
      <trkpt lat="38.82281" lon="-0.10861">
        <ele>332.4</ele>
        <time>2021-01-31 14:05:34</time>
      </trkpt>
      <trkpt lat="38.82278" lon="-0.10866">
        <ele>333.4</ele>
        <time>2021-01-31 14:05:35</time>
      </trkpt>
      <trkpt lat="38.82275" lon="-0.10871">
        <ele>335.6</ele>
        <time>2021-01-31 14:05:36</time>
      </trkpt>
      <trkpt lat="38.82273" lon="-0.10877">
        <ele>335.6</ele>
        <time>2021-01-31 14:05:37</time>
      </trkpt>
      <trkpt lat="38.8227" lon="-0.10882">
        <ele>335.6</ele>
        <time>2021-01-31 14:05:38</time>
      </trkpt>
      <trkpt lat="38.82267" lon="-0.10886">
        <ele>334.8</ele>
        <time>2021-01-31 14:05:39</time>
      </trkpt>
      <trkpt lat="38.82262" lon="-0.1089">
        <ele>334</ele>
        <time>2021-01-31 14:05:40</time>
      </trkpt>
      <trkpt lat="38.82258" lon="-0.10891">
        <ele>334</ele>
        <time>2021-01-31 14:05:41</time>
      </trkpt>
      <trkpt lat="38.82252" lon="-0.10891">
        <ele>334</ele>
        <time>2021-01-31 14:05:42</time>
      </trkpt>
      <trkpt lat="38.82247" lon="-0.10889">
        <ele>335</ele>
        <time>2021-01-31 14:05:43</time>
      </trkpt>
      <trkpt lat="38.82242" lon="-0.10885">
        <ele>336.8</ele>
        <time>2021-01-31 14:05:44</time>
      </trkpt>
      <trkpt lat="38.82238" lon="-0.1088">
        <ele>336.8</ele>
        <time>2021-01-31 14:05:45</time>
      </trkpt>
      <trkpt lat="38.82234" lon="-0.10875">
        <ele>336.8</ele>
        <time>2021-01-31 14:05:46</time>
      </trkpt>
      <trkpt lat="38.82231" lon="-0.10869">
        <ele>336.8</ele>
        <time>2021-01-31 14:05:47</time>
      </trkpt>
      <trkpt lat="38.82228" lon="-0.10862">
        <ele>337</ele>
        <time>2021-01-31 14:05:48</time>
      </trkpt>
      <trkpt lat="38.82225" lon="-0.10855">
        <ele>337</ele>
        <time>2021-01-31 14:05:49</time>
      </trkpt>
      <trkpt lat="38.82222" lon="-0.10848">
        <ele>337</ele>
        <time>2021-01-31 14:05:50</time>
      </trkpt>
      <trkpt lat="38.8222" lon="-0.1084">
        <ele>336</ele>
        <time>2021-01-31 14:05:51</time>
      </trkpt>
      <trkpt lat="38.82218" lon="-0.10832">
        <ele>335.4</ele>
        <time>2021-01-31 14:05:52</time>
      </trkpt>
      <trkpt lat="38.82216" lon="-0.10824">
        <ele>335.4</ele>
        <time>2021-01-31 14:05:53</time>
      </trkpt>
      <trkpt lat="38.82215" lon="-0.10816">
        <ele>335.4</ele>
        <time>2021-01-31 14:05:54</time>
      </trkpt>
      <trkpt lat="38.82214" lon="-0.10809">
        <ele>335.4</ele>
        <time>2021-01-31 14:05:55</time>
      </trkpt>
      <trkpt lat="38.82213" lon="-0.10801">
        <ele>336.6</ele>
        <time>2021-01-31 14:05:56</time>
      </trkpt>
      <trkpt lat="38.82212" lon="-0.10794">
        <ele>336.6</ele>
        <time>2021-01-31 14:05:57</time>
      </trkpt>
      <trkpt lat="38.82211" lon="-0.10787">
        <ele>336.6</ele>
        <time>2021-01-31 14:05:58</time>
      </trkpt>
      <trkpt lat="38.8221" lon="-0.10781">
        <ele>337.6</ele>
        <time>2021-01-31 14:05:59</time>
      </trkpt>
      <trkpt lat="38.8221" lon="-0.10775">
        <ele>338.6</ele>
        <time>2021-01-31 14:06:00</time>
      </trkpt>
      <trkpt lat="38.82209" lon="-0.10769">
        <ele>338.6</ele>
        <time>2021-01-31 14:06:01</time>
      </trkpt>
      <trkpt lat="38.82208" lon="-0.10764">
        <ele>338.6</ele>
        <time>2021-01-31 14:06:02</time>
      </trkpt>
      <trkpt lat="38.82206" lon="-0.10759">
        <ele>339</ele>
        <time>2021-01-31 14:06:03</time>
      </trkpt>
      <trkpt lat="38.82204" lon="-0.10755">
        <ele>339</ele>
        <time>2021-01-31 14:06:04</time>
      </trkpt>
      <trkpt lat="38.82201" lon="-0.10751">
        <ele>339</ele>
        <time>2021-01-31 14:06:05</time>
      </trkpt>
      <trkpt lat="38.82197" lon="-0.1075">
        <ele>339</ele>
        <time>2021-01-31 14:06:06</time>
      </trkpt>
      <trkpt lat="38.82193" lon="-0.1075">
        <ele>339.8</ele>
        <time>2021-01-31 14:06:07</time>
      </trkpt>
      <trkpt lat="38.8219" lon="-0.10752">
        <ele>340.2</ele>
        <time>2021-01-31 14:06:08</time>
      </trkpt>
      <trkpt lat="38.82187" lon="-0.10755">
        <ele>340.2</ele>
        <time>2021-01-31 14:06:09</time>
      </trkpt>
      <trkpt lat="38.82184" lon="-0.10758">
        <ele>340.2</ele>
        <time>2021-01-31 14:06:10</time>
      </trkpt>
      <trkpt lat="38.82182" lon="-0.10761">
        <ele>341.2</ele>
        <time>2021-01-31 14:06:11</time>
      </trkpt>
      <trkpt lat="38.8218" lon="-0.10765">
        <ele>342</ele>
        <time>2021-01-31 14:06:12</time>
      </trkpt>
      <trkpt lat="38.82178" lon="-0.10768">
        <ele>342</ele>
        <time>2021-01-31 14:06:13</time>
      </trkpt>
      <trkpt lat="38.82177" lon="-0.10772">
        <ele>342</ele>
        <time>2021-01-31 14:06:14</time>
      </trkpt>
      <trkpt lat="38.82176" lon="-0.10775">
        <ele>342</ele>
        <time>2021-01-31 14:06:15</time>
      </trkpt>
      <trkpt lat="38.82175" lon="-0.10778">
        <ele>342</ele>
        <time>2021-01-31 14:06:16</time>
      </trkpt>
      <trkpt lat="38.82174" lon="-0.10781">
        <ele>342</ele>
        <time>2021-01-31 14:06:17</time>
      </trkpt>
      <trkpt lat="38.82173" lon="-0.10784">
        <ele>342</ele>
        <time>2021-01-31 14:06:18</time>
      </trkpt>
      <trkpt lat="38.82172" lon="-0.10788">
        <ele>343</ele>
        <time>2021-01-31 14:06:19</time>
      </trkpt>
      <trkpt lat="38.82171" lon="-0.10791">
        <ele>343.2</ele>
        <time>2021-01-31 14:06:20</time>
      </trkpt>
      <trkpt lat="38.8217" lon="-0.10794">
        <ele>343.2</ele>
        <time>2021-01-31 14:06:21</time>
      </trkpt>
      <trkpt lat="38.82169" lon="-0.10797">
        <ele>343.2</ele>
        <time>2021-01-31 14:06:22</time>
      </trkpt>
      <trkpt lat="38.82168" lon="-0.108">
        <ele>344</ele>
        <time>2021-01-31 14:06:23</time>
      </trkpt>
      <trkpt lat="38.82167" lon="-0.10803">
        <ele>343.8</ele>
        <time>2021-01-31 14:06:24</time>
      </trkpt>
      <trkpt lat="38.82166" lon="-0.10807">
        <ele>343.8</ele>
        <time>2021-01-31 14:06:25</time>
      </trkpt>
      <trkpt lat="38.82165" lon="-0.1081">
        <ele>343.8</ele>
        <time>2021-01-31 14:06:26</time>
      </trkpt>
      <trkpt lat="38.82164" lon="-0.10813">
        <ele>343.8</ele>
        <time>2021-01-31 14:06:27</time>
      </trkpt>
      <trkpt lat="38.82163" lon="-0.10816">
        <ele>344.4</ele>
        <time>2021-01-31 14:06:28</time>
      </trkpt>
      <trkpt lat="38.82162" lon="-0.10819">
        <ele>344.4</ele>
        <time>2021-01-31 14:06:29</time>
      </trkpt>
      <trkpt lat="38.82161" lon="-0.10821">
        <ele>344.4</ele>
        <time>2021-01-31 14:06:30</time>
      </trkpt>
      <trkpt lat="38.82159" lon="-0.10824">
        <ele>343.6</ele>
        <time>2021-01-31 14:06:31</time>
      </trkpt>
      <trkpt lat="38.82158" lon="-0.10827">
        <ele>344.2</ele>
        <time>2021-01-31 14:06:32</time>
      </trkpt>
      <trkpt lat="38.82156" lon="-0.1083">
        <ele>344.2</ele>
        <time>2021-01-31 14:06:33</time>
      </trkpt>
      <trkpt lat="38.82155" lon="-0.10833">
        <ele>344.2</ele>
        <time>2021-01-31 14:06:34</time>
      </trkpt>
      <trkpt lat="38.82154" lon="-0.10836">
        <ele>344.2</ele>
        <time>2021-01-31 14:06:35</time>
      </trkpt>
      <trkpt lat="38.82152" lon="-0.10839">
        <ele>345</ele>
        <time>2021-01-31 14:06:36</time>
      </trkpt>
      <trkpt lat="38.82151" lon="-0.10842">
        <ele>345</ele>
        <time>2021-01-31 14:06:37</time>
      </trkpt>
      <trkpt lat="38.82149" lon="-0.10845">
        <ele>345</ele>
        <time>2021-01-31 14:06:38</time>
      </trkpt>
      <trkpt lat="38.82148" lon="-0.10848">
        <ele>345</ele>
        <time>2021-01-31 14:06:39</time>
      </trkpt>
      <trkpt lat="38.82147" lon="-0.1085">
        <ele>345.4</ele>
        <time>2021-01-31 14:06:40</time>
      </trkpt>
      <trkpt lat="38.82146" lon="-0.10853">
        <ele>345.4</ele>
        <time>2021-01-31 14:06:41</time>
      </trkpt>
      <trkpt lat="38.82144" lon="-0.10856">
        <ele>345.4</ele>
        <time>2021-01-31 14:06:42</time>
      </trkpt>
      <trkpt lat="38.82143" lon="-0.10859">
        <ele>345.4</ele>
        <time>2021-01-31 14:06:43</time>
      </trkpt>
      <trkpt lat="38.82142" lon="-0.10862">
        <ele>346.2</ele>
        <time>2021-01-31 14:06:44</time>
      </trkpt>
      <trkpt lat="38.82141" lon="-0.10865">
        <ele>346.2</ele>
        <time>2021-01-31 14:06:45</time>
      </trkpt>
      <trkpt lat="38.82139" lon="-0.10868">
        <ele>346.2</ele>
        <time>2021-01-31 14:06:46</time>
      </trkpt>
      <trkpt lat="38.82138" lon="-0.10871">
        <ele>346</ele>
        <time>2021-01-31 14:06:47</time>
      </trkpt>
      <trkpt lat="38.82137" lon="-0.10875">
        <ele>345</ele>
        <time>2021-01-31 14:06:48</time>
      </trkpt>
      <trkpt lat="38.82136" lon="-0.10878">
        <ele>345</ele>
        <time>2021-01-31 14:06:49</time>
      </trkpt>
      <trkpt lat="38.82136" lon="-0.10881">
        <ele>345</ele>
        <time>2021-01-31 14:06:50</time>
      </trkpt>
      <trkpt lat="38.82135" lon="-0.10884">
        <ele>346</ele>
        <time>2021-01-31 14:06:51</time>
      </trkpt>
      <trkpt lat="38.82134" lon="-0.10887">
        <ele>347.6</ele>
        <time>2021-01-31 14:06:52</time>
      </trkpt>
      <trkpt lat="38.82134" lon="-0.10891">
        <ele>347.6</ele>
        <time>2021-01-31 14:06:53</time>
      </trkpt>
      <trkpt lat="38.82134" lon="-0.10894">
        <ele>347.6</ele>
        <time>2021-01-31 14:06:54</time>
      </trkpt>
      <trkpt lat="38.82134" lon="-0.10897">
        <ele>347.6</ele>
        <time>2021-01-31 14:06:55</time>
      </trkpt>
      <trkpt lat="38.82133" lon="-0.109">
        <ele>348.6</ele>
        <time>2021-01-31 14:06:56</time>
      </trkpt>
      <trkpt lat="38.82133" lon="-0.10903">
        <ele>348.6</ele>
        <time>2021-01-31 14:06:57</time>
      </trkpt>
      <trkpt lat="38.82132" lon="-0.10907">
        <ele>348.6</ele>
        <time>2021-01-31 14:06:58</time>
      </trkpt>
      <trkpt lat="38.82132" lon="-0.1091">
        <ele>349.2</ele>
        <time>2021-01-31 14:06:59</time>
      </trkpt>
      <trkpt lat="38.82132" lon="-0.10913">
        <ele>350.4</ele>
        <time>2021-01-31 14:07:00</time>
      </trkpt>
      <trkpt lat="38.82131" lon="-0.10916">
        <ele>350.4</ele>
        <time>2021-01-31 14:07:01</time>
      </trkpt>
      <trkpt lat="38.82131" lon="-0.1092">
        <ele>350.4</ele>
        <time>2021-01-31 14:07:02</time>
      </trkpt>
      <trkpt lat="38.82131" lon="-0.10923">
        <ele>350.4</ele>
        <time>2021-01-31 14:07:03</time>
      </trkpt>
      <trkpt lat="38.8213" lon="-0.10926">
        <ele>351.2</ele>
        <time>2021-01-31 14:07:04</time>
      </trkpt>
      <trkpt lat="38.8213" lon="-0.1093">
        <ele>351.2</ele>
        <time>2021-01-31 14:07:05</time>
      </trkpt>
      <trkpt lat="38.8213" lon="-0.10933">
        <ele>351.2</ele>
        <time>2021-01-31 14:07:06</time>
      </trkpt>
      <trkpt lat="38.82129" lon="-0.10936">
        <ele>351.4</ele>
        <time>2021-01-31 14:07:07</time>
      </trkpt>
      <trkpt lat="38.82129" lon="-0.10939">
        <ele>351.6</ele>
        <time>2021-01-31 14:07:08</time>
      </trkpt>
      <trkpt lat="38.82129" lon="-0.10943">
        <ele>351.6</ele>
        <time>2021-01-31 14:07:09</time>
      </trkpt>
      <trkpt lat="38.82129" lon="-0.10946">
        <ele>351.6</ele>
        <time>2021-01-31 14:07:10</time>
      </trkpt>
      <trkpt lat="38.82129" lon="-0.10949">
        <ele>351.6</ele>
        <time>2021-01-31 14:07:11</time>
      </trkpt>
      <trkpt lat="38.8213" lon="-0.10952">
        <ele>351.6</ele>
        <time>2021-01-31 14:07:12</time>
      </trkpt>
      <trkpt lat="38.8213" lon="-0.10956">
        <ele>351.6</ele>
        <time>2021-01-31 14:07:13</time>
      </trkpt>
      <trkpt lat="38.82131" lon="-0.10959">
        <ele>351.6</ele>
        <time>2021-01-31 14:07:14</time>
      </trkpt>
      <trkpt lat="38.82131" lon="-0.10962">
        <ele>351.6</ele>
        <time>2021-01-31 14:07:15</time>
      </trkpt>
      <trkpt lat="38.82132" lon="-0.10965">
        <ele>352</ele>
        <time>2021-01-31 14:07:16</time>
      </trkpt>
      <trkpt lat="38.82133" lon="-0.10968">
        <ele>352</ele>
        <time>2021-01-31 14:07:17</time>
      </trkpt>
      <trkpt lat="38.82133" lon="-0.10972">
        <ele>352</ele>
        <time>2021-01-31 14:07:18</time>
      </trkpt>
      <trkpt lat="38.82133" lon="-0.10975">
        <ele>351</ele>
        <time>2021-01-31 14:07:19</time>
      </trkpt>
      <trkpt lat="38.82133" lon="-0.10978">
        <ele>352.2</ele>
        <time>2021-01-31 14:07:20</time>
      </trkpt>
      <trkpt lat="38.82133" lon="-0.10981">
        <ele>352.2</ele>
        <time>2021-01-31 14:07:21</time>
      </trkpt>
      <trkpt lat="38.82133" lon="-0.10984">
        <ele>352.2</ele>
        <time>2021-01-31 14:07:22</time>
      </trkpt>
      <trkpt lat="38.82132" lon="-0.10987">
        <ele>352.2</ele>
        <time>2021-01-31 14:07:23</time>
      </trkpt>
      <trkpt lat="38.82131" lon="-0.1099">
        <ele>352.4</ele>
        <time>2021-01-31 14:07:24</time>
      </trkpt>
      <trkpt lat="38.8213" lon="-0.10993">
        <ele>352.4</ele>
        <time>2021-01-31 14:07:25</time>
      </trkpt>
      <trkpt lat="38.82128" lon="-0.10996">
        <ele>352.4</ele>
        <time>2021-01-31 14:07:26</time>
      </trkpt>
      <trkpt lat="38.82127" lon="-0.10998">
        <ele>353.4</ele>
        <time>2021-01-31 14:07:27</time>
      </trkpt>
      <trkpt lat="38.82125" lon="-0.11">
        <ele>356.4</ele>
        <time>2021-01-31 14:07:28</time>
      </trkpt>
      <trkpt lat="38.82123" lon="-0.11002">
        <ele>356.4</ele>
        <time>2021-01-31 14:07:29</time>
      </trkpt>
      <trkpt lat="38.8212" lon="-0.11004">
        <ele>356.4</ele>
        <time>2021-01-31 14:07:30</time>
      </trkpt>
      <trkpt lat="38.82117" lon="-0.11005">
        <ele>355.4</ele>
        <time>2021-01-31 14:07:31</time>
      </trkpt>
      <trkpt lat="38.82114" lon="-0.11006">
        <ele>355.2</ele>
        <time>2021-01-31 14:07:32</time>
      </trkpt>
      <trkpt lat="38.82112" lon="-0.11008">
        <ele>355.2</ele>
        <time>2021-01-31 14:07:33</time>
      </trkpt>
      <trkpt lat="38.82109" lon="-0.11009">
        <ele>355.2</ele>
        <time>2021-01-31 14:07:34</time>
      </trkpt>
      <trkpt lat="38.82107" lon="-0.1101">
        <ele>356.2</ele>
        <time>2021-01-31 14:07:35</time>
      </trkpt>
      <trkpt lat="38.82104" lon="-0.11012">
        <ele>357.6</ele>
        <time>2021-01-31 14:07:36</time>
      </trkpt>
      <trkpt lat="38.82102" lon="-0.11013">
        <ele>357.6</ele>
        <time>2021-01-31 14:07:37</time>
      </trkpt>
      <trkpt lat="38.82099" lon="-0.11015">
        <ele>357.6</ele>
        <time>2021-01-31 14:07:38</time>
      </trkpt>
      <trkpt lat="38.82097" lon="-0.11017">
        <ele>357.6</ele>
        <time>2021-01-31 14:07:39</time>
      </trkpt>
      <trkpt lat="38.82095" lon="-0.11018">
        <ele>359</ele>
        <time>2021-01-31 14:07:40</time>
      </trkpt>
      <trkpt lat="38.82092" lon="-0.11019">
        <ele>359</ele>
        <time>2021-01-31 14:07:41</time>
      </trkpt>
      <trkpt lat="38.8209" lon="-0.11021">
        <ele>359</ele>
        <time>2021-01-31 14:07:42</time>
      </trkpt>
      <trkpt lat="38.82088" lon="-0.11023">
        <ele>358.8</ele>
        <time>2021-01-31 14:07:43</time>
      </trkpt>
      <trkpt lat="38.82086" lon="-0.11025">
        <ele>358.4</ele>
        <time>2021-01-31 14:07:44</time>
      </trkpt>
      <trkpt lat="38.82084" lon="-0.11027">
        <ele>358.4</ele>
        <time>2021-01-31 14:07:45</time>
      </trkpt>
      <trkpt lat="38.82082" lon="-0.11029">
        <ele>358.4</ele>
        <time>2021-01-31 14:07:46</time>
      </trkpt>
      <trkpt lat="38.8208" lon="-0.11031">
        <ele>358.4</ele>
        <time>2021-01-31 14:07:47</time>
      </trkpt>
      <trkpt lat="38.82079" lon="-0.11034">
        <ele>358.6</ele>
        <time>2021-01-31 14:07:48</time>
      </trkpt>
      <trkpt lat="38.82077" lon="-0.11036">
        <ele>358.6</ele>
        <time>2021-01-31 14:07:49</time>
      </trkpt>
      <trkpt lat="38.82074" lon="-0.11038">
        <ele>358.6</ele>
        <time>2021-01-31 14:07:50</time>
      </trkpt>
      <trkpt lat="38.82072" lon="-0.11039">
        <ele>359.6</ele>
        <time>2021-01-31 14:07:51</time>
      </trkpt>
      <trkpt lat="38.8207" lon="-0.11041">
        <ele>360</ele>
        <time>2021-01-31 14:07:52</time>
      </trkpt>
      <trkpt lat="38.82068" lon="-0.11043">
        <ele>360</ele>
        <time>2021-01-31 14:07:53</time>
      </trkpt>
      <trkpt lat="38.82066" lon="-0.11045">
        <ele>360</ele>
        <time>2021-01-31 14:07:54</time>
      </trkpt>
      <trkpt lat="38.82064" lon="-0.11047">
        <ele>360</ele>
        <time>2021-01-31 14:07:55</time>
      </trkpt>
      <trkpt lat="38.82062" lon="-0.11049">
        <ele>358.6</ele>
        <time>2021-01-31 14:07:56</time>
      </trkpt>
      <trkpt lat="38.8206" lon="-0.11052">
        <ele>358.6</ele>
        <time>2021-01-31 14:07:57</time>
      </trkpt>
      <trkpt lat="38.82058" lon="-0.11054">
        <ele>358.6</ele>
        <time>2021-01-31 14:07:58</time>
      </trkpt>
      <trkpt lat="38.82056" lon="-0.11056">
        <ele>359.6</ele>
        <time>2021-01-31 14:07:59</time>
      </trkpt>
      <trkpt lat="38.82054" lon="-0.11058">
        <ele>359.4</ele>
        <time>2021-01-31 14:08:00</time>
      </trkpt>
      <trkpt lat="38.82053" lon="-0.1106">
        <ele>359.4</ele>
        <time>2021-01-31 14:08:01</time>
      </trkpt>
      <trkpt lat="38.82051" lon="-0.11062">
        <ele>359.4</ele>
        <time>2021-01-31 14:08:02</time>
      </trkpt>
      <trkpt lat="38.8205" lon="-0.11065">
        <ele>360.4</ele>
        <time>2021-01-31 14:08:03</time>
      </trkpt>
      <trkpt lat="38.82049" lon="-0.11067">
        <ele>361.2</ele>
        <time>2021-01-31 14:08:04</time>
      </trkpt>
      <trkpt lat="38.82047" lon="-0.11069">
        <ele>361.2</ele>
        <time>2021-01-31 14:08:05</time>
      </trkpt>
      <trkpt lat="38.82046" lon="-0.11071">
        <ele>361.2</ele>
        <time>2021-01-31 14:08:06</time>
      </trkpt>
      <trkpt lat="38.82045" lon="-0.11074">
        <ele>361.8</ele>
        <time>2021-01-31 14:08:07</time>
      </trkpt>
      <trkpt lat="38.82043" lon="-0.11076">
        <ele>362.2</ele>
        <time>2021-01-31 14:08:08</time>
      </trkpt>
      <trkpt lat="38.82042" lon="-0.11078">
        <ele>362.2</ele>
        <time>2021-01-31 14:08:09</time>
      </trkpt>
      <trkpt lat="38.8204" lon="-0.1108">
        <ele>362.2</ele>
        <time>2021-01-31 14:08:10</time>
      </trkpt>
      <trkpt lat="38.82038" lon="-0.11082">
        <ele>363.2</ele>
        <time>2021-01-31 14:08:11</time>
      </trkpt>
      <trkpt lat="38.82037" lon="-0.11084">
        <ele>362.8</ele>
        <time>2021-01-31 14:08:12</time>
      </trkpt>
      <trkpt lat="38.82035" lon="-0.11086">
        <ele>362.8</ele>
        <time>2021-01-31 14:08:13</time>
      </trkpt>
      <trkpt lat="38.82033" lon="-0.11088">
        <ele>362.8</ele>
        <time>2021-01-31 14:08:14</time>
      </trkpt>
      <trkpt lat="38.82031" lon="-0.1109">
        <ele>362.8</ele>
        <time>2021-01-31 14:08:15</time>
      </trkpt>
      <trkpt lat="38.8203" lon="-0.11092">
        <ele>363.4</ele>
        <time>2021-01-31 14:08:16</time>
      </trkpt>
      <trkpt lat="38.82028" lon="-0.11094">
        <ele>363.4</ele>
        <time>2021-01-31 14:08:17</time>
      </trkpt>
      <trkpt lat="38.82026" lon="-0.11096">
        <ele>363.4</ele>
        <time>2021-01-31 14:08:18</time>
      </trkpt>
      <trkpt lat="38.82024" lon="-0.11097">
        <ele>363.4</ele>
        <time>2021-01-31 14:08:19</time>
      </trkpt>
      <trkpt lat="38.82022" lon="-0.11099">
        <ele>364.8</ele>
        <time>2021-01-31 14:08:20</time>
      </trkpt>
      <trkpt lat="38.8202" lon="-0.11101">
        <ele>364.8</ele>
        <time>2021-01-31 14:08:21</time>
      </trkpt>
      <trkpt lat="38.82019" lon="-0.11103">
        <ele>364.8</ele>
        <time>2021-01-31 14:08:22</time>
      </trkpt>
      <trkpt lat="38.82017" lon="-0.11105">
        <ele>364.8</ele>
        <time>2021-01-31 14:08:23</time>
      </trkpt>
      <trkpt lat="38.82015" lon="-0.11106">
        <ele>365.4</ele>
        <time>2021-01-31 14:08:24</time>
      </trkpt>
      <trkpt lat="38.82014" lon="-0.11108">
        <ele>365.4</ele>
        <time>2021-01-31 14:08:25</time>
      </trkpt>
      <trkpt lat="38.82012" lon="-0.11111">
        <ele>365.4</ele>
        <time>2021-01-31 14:08:26</time>
      </trkpt>
      <trkpt lat="38.82011" lon="-0.11113">
        <ele>366.4</ele>
        <time>2021-01-31 14:08:27</time>
      </trkpt>
      <trkpt lat="38.82009" lon="-0.11115">
        <ele>367.2</ele>
        <time>2021-01-31 14:08:28</time>
      </trkpt>
      <trkpt lat="38.82008" lon="-0.11117">
        <ele>367.2</ele>
        <time>2021-01-31 14:08:29</time>
      </trkpt>
      <trkpt lat="38.82007" lon="-0.1112">
        <ele>367.2</ele>
        <time>2021-01-31 14:08:30</time>
      </trkpt>
      <trkpt lat="38.82006" lon="-0.11123">
        <ele>367.2</ele>
        <time>2021-01-31 14:08:31</time>
      </trkpt>
      <trkpt lat="38.82006" lon="-0.11126">
        <ele>367.6</ele>
        <time>2021-01-31 14:08:32</time>
      </trkpt>
      <trkpt lat="38.82005" lon="-0.11128">
        <ele>367.6</ele>
        <time>2021-01-31 14:08:33</time>
      </trkpt>
      <trkpt lat="38.82005" lon="-0.11131">
        <ele>367.6</ele>
        <time>2021-01-31 14:08:34</time>
      </trkpt>
      <trkpt lat="38.82004" lon="-0.11134">
        <ele>368.6</ele>
        <time>2021-01-31 14:08:35</time>
      </trkpt>
      <trkpt lat="38.82004" lon="-0.11137">
        <ele>368.6</ele>
        <time>2021-01-31 14:08:36</time>
      </trkpt>
      <trkpt lat="38.82004" lon="-0.1114">
        <ele>368.6</ele>
        <time>2021-01-31 14:08:37</time>
      </trkpt>
      <trkpt lat="38.82003" lon="-0.11143">
        <ele>368.6</ele>
        <time>2021-01-31 14:08:38</time>
      </trkpt>
      <trkpt lat="38.82003" lon="-0.11146">
        <ele>368.6</ele>
        <time>2021-01-31 14:08:39</time>
      </trkpt>
      <trkpt lat="38.82003" lon="-0.11149">
        <ele>368.4</ele>
        <time>2021-01-31 14:08:40</time>
      </trkpt>
      <trkpt lat="38.82003" lon="-0.11151">
        <ele>368.4</ele>
        <time>2021-01-31 14:08:41</time>
      </trkpt>
      <trkpt lat="38.82002" lon="-0.11154">
        <ele>368.4</ele>
        <time>2021-01-31 14:08:42</time>
      </trkpt>
      <trkpt lat="38.82002" lon="-0.11157">
        <ele>368.4</ele>
        <time>2021-01-31 14:08:43</time>
      </trkpt>
      <trkpt lat="38.82002" lon="-0.1116">
        <ele>368</ele>
        <time>2021-01-31 14:08:44</time>
      </trkpt>
      <trkpt lat="38.82003" lon="-0.11163">
        <ele>368</ele>
        <time>2021-01-31 14:08:45</time>
      </trkpt>
      <trkpt lat="38.82003" lon="-0.11166">
        <ele>368</ele>
        <time>2021-01-31 14:08:46</time>
      </trkpt>
      <trkpt lat="38.82003" lon="-0.11168">
        <ele>368.6</ele>
        <time>2021-01-31 14:08:47</time>
      </trkpt>
      <trkpt lat="38.82003" lon="-0.11171">
        <ele>368.8</ele>
        <time>2021-01-31 14:08:48</time>
      </trkpt>
      <trkpt lat="38.82004" lon="-0.11174">
        <ele>368.8</ele>
        <time>2021-01-31 14:08:49</time>
      </trkpt>
      <trkpt lat="38.82004" lon="-0.11177">
        <ele>368.8</ele>
        <time>2021-01-31 14:08:50</time>
      </trkpt>
      <trkpt lat="38.82005" lon="-0.1118">
        <ele>369.8</ele>
        <time>2021-01-31 14:08:51</time>
      </trkpt>
      <trkpt lat="38.82005" lon="-0.11183">
        <ele>371.2</ele>
        <time>2021-01-31 14:08:52</time>
      </trkpt>
      <trkpt lat="38.82006" lon="-0.11186">
        <ele>371.2</ele>
        <time>2021-01-31 14:08:53</time>
      </trkpt>
      <trkpt lat="38.82006" lon="-0.11189">
        <ele>371.2</ele>
        <time>2021-01-31 14:08:54</time>
      </trkpt>
      <trkpt lat="38.82007" lon="-0.11191">
        <ele>372.2</ele>
        <time>2021-01-31 14:08:55</time>
      </trkpt>
      <trkpt lat="38.82007" lon="-0.11194">
        <ele>373</ele>
        <time>2021-01-31 14:08:56</time>
      </trkpt>
      <trkpt lat="38.82007" lon="-0.11197">
        <ele>373</ele>
        <time>2021-01-31 14:08:57</time>
      </trkpt>
      <trkpt lat="38.82006" lon="-0.112">
        <ele>373</ele>
        <time>2021-01-31 14:08:58</time>
      </trkpt>
      <trkpt lat="38.82006" lon="-0.11203">
        <ele>373.4</ele>
        <time>2021-01-31 14:08:59</time>
      </trkpt>
      <trkpt lat="38.82005" lon="-0.11206">
        <ele>372.8</ele>
        <time>2021-01-31 14:09:00</time>
      </trkpt>
      <trkpt lat="38.82004" lon="-0.1121">
        <ele>372.8</ele>
        <time>2021-01-31 14:09:01</time>
      </trkpt>
      <trkpt lat="38.82003" lon="-0.11213">
        <ele>372.8</ele>
        <time>2021-01-31 14:09:02</time>
      </trkpt>
      <trkpt lat="38.82002" lon="-0.11216">
        <ele>372.8</ele>
        <time>2021-01-31 14:09:03</time>
      </trkpt>
      <trkpt lat="38.82001" lon="-0.11219">
        <ele>372.8</ele>
        <time>2021-01-31 14:09:04</time>
      </trkpt>
      <trkpt lat="38.82" lon="-0.11222">
        <ele>372.8</ele>
        <time>2021-01-31 14:09:05</time>
      </trkpt>
      <trkpt lat="38.81999" lon="-0.11225">
        <ele>372.8</ele>
        <time>2021-01-31 14:09:06</time>
      </trkpt>
      <trkpt lat="38.81997" lon="-0.11228">
        <ele>373.8</ele>
        <time>2021-01-31 14:09:07</time>
      </trkpt>
      <trkpt lat="38.81996" lon="-0.1123">
        <ele>375</ele>
        <time>2021-01-31 14:09:08</time>
      </trkpt>
      <trkpt lat="38.81995" lon="-0.11233">
        <ele>375</ele>
        <time>2021-01-31 14:09:09</time>
      </trkpt>
      <trkpt lat="38.81993" lon="-0.11236">
        <ele>375</ele>
        <time>2021-01-31 14:09:10</time>
      </trkpt>
      <trkpt lat="38.81992" lon="-0.11239">
        <ele>375</ele>
        <time>2021-01-31 14:09:11</time>
      </trkpt>
      <trkpt lat="38.8199" lon="-0.11242">
        <ele>375.6</ele>
        <time>2021-01-31 14:09:12</time>
      </trkpt>
      <trkpt lat="38.81989" lon="-0.11244">
        <ele>375.6</ele>
        <time>2021-01-31 14:09:13</time>
      </trkpt>
      <trkpt lat="38.81988" lon="-0.11248">
        <ele>375.6</ele>
        <time>2021-01-31 14:09:14</time>
      </trkpt>
      <trkpt lat="38.81987" lon="-0.11251">
        <ele>375.6</ele>
        <time>2021-01-31 14:09:15</time>
      </trkpt>
      <trkpt lat="38.81987" lon="-0.11254">
        <ele>376.4</ele>
        <time>2021-01-31 14:09:16</time>
      </trkpt>
      <trkpt lat="38.81987" lon="-0.11257">
        <ele>376.4</ele>
        <time>2021-01-31 14:09:17</time>
      </trkpt>
      <trkpt lat="38.81987" lon="-0.1126">
        <ele>376.4</ele>
        <time>2021-01-31 14:09:18</time>
      </trkpt>
      <trkpt lat="38.81987" lon="-0.11263">
        <ele>376.4</ele>
        <time>2021-01-31 14:09:19</time>
      </trkpt>
      <trkpt lat="38.81987" lon="-0.11265">
        <ele>377</ele>
        <time>2021-01-31 14:09:20</time>
      </trkpt>
      <trkpt lat="38.81988" lon="-0.11268">
        <ele>377</ele>
        <time>2021-01-31 14:09:21</time>
      </trkpt>
      <trkpt lat="38.81989" lon="-0.11271">
        <ele>377</ele>
        <time>2021-01-31 14:09:22</time>
      </trkpt>
      <trkpt lat="38.81989" lon="-0.11273">
        <ele>377</ele>
        <time>2021-01-31 14:09:23</time>
      </trkpt>
      <trkpt lat="38.8199" lon="-0.11276">
        <ele>376</ele>
        <time>2021-01-31 14:09:24</time>
      </trkpt>
      <trkpt lat="38.81991" lon="-0.11279">
        <ele>376</ele>
        <time>2021-01-31 14:09:25</time>
      </trkpt>
      <trkpt lat="38.81991" lon="-0.11281">
        <ele>376</ele>
        <time>2021-01-31 14:09:26</time>
      </trkpt>
      <trkpt lat="38.81992" lon="-0.11284">
        <ele>377</ele>
        <time>2021-01-31 14:09:27</time>
      </trkpt>
      <trkpt lat="38.81992" lon="-0.11287">
        <ele>377.8</ele>
        <time>2021-01-31 14:09:28</time>
      </trkpt>
      <trkpt lat="38.81993" lon="-0.1129">
        <ele>377.8</ele>
        <time>2021-01-31 14:09:29</time>
      </trkpt>
      <trkpt lat="38.81993" lon="-0.11292">
        <ele>377.8</ele>
        <time>2021-01-31 14:09:30</time>
      </trkpt>
      <trkpt lat="38.81993" lon="-0.11295">
        <ele>377.2</ele>
        <time>2021-01-31 14:09:31</time>
      </trkpt>
      <trkpt lat="38.81993" lon="-0.11298">
        <ele>377.4</ele>
        <time>2021-01-31 14:09:32</time>
      </trkpt>
      <trkpt lat="38.81993" lon="-0.11301">
        <ele>377.4</ele>
        <time>2021-01-31 14:09:33</time>
      </trkpt>
      <trkpt lat="38.81992" lon="-0.11304">
        <ele>377.4</ele>
        <time>2021-01-31 14:09:34</time>
      </trkpt>
      <trkpt lat="38.81992" lon="-0.11307">
        <ele>378.2</ele>
        <time>2021-01-31 14:09:35</time>
      </trkpt>
      <trkpt lat="38.81991" lon="-0.1131">
        <ele>377.4</ele>
        <time>2021-01-31 14:09:36</time>
      </trkpt>
      <trkpt lat="38.81991" lon="-0.11313">
        <ele>377.4</ele>
        <time>2021-01-31 14:09:37</time>
      </trkpt>
      <trkpt lat="38.8199" lon="-0.11316">
        <ele>377.4</ele>
        <time>2021-01-31 14:09:38</time>
      </trkpt>
      <trkpt lat="38.8199" lon="-0.11319">
        <ele>378.4</ele>
        <time>2021-01-31 14:09:39</time>
      </trkpt>
      <trkpt lat="38.81989" lon="-0.11322">
        <ele>379.2</ele>
        <time>2021-01-31 14:09:40</time>
      </trkpt>
      <trkpt lat="38.81988" lon="-0.11325">
        <ele>379.2</ele>
        <time>2021-01-31 14:09:41</time>
      </trkpt>
      <trkpt lat="38.81988" lon="-0.11327">
        <ele>379.2</ele>
        <time>2021-01-31 14:09:42</time>
      </trkpt>
      <trkpt lat="38.81987" lon="-0.1133">
        <ele>380.2</ele>
        <time>2021-01-31 14:09:43</time>
      </trkpt>
      <trkpt lat="38.81986" lon="-0.11333">
        <ele>380</ele>
        <time>2021-01-31 14:09:44</time>
      </trkpt>
      <trkpt lat="38.81985" lon="-0.11336">
        <ele>380</ele>
        <time>2021-01-31 14:09:45</time>
      </trkpt>
      <trkpt lat="38.81984" lon="-0.11339">
        <ele>380</ele>
        <time>2021-01-31 14:09:46</time>
      </trkpt>
      <trkpt lat="38.81983" lon="-0.11342">
        <ele>380.2</ele>
        <time>2021-01-31 14:09:47</time>
      </trkpt>
      <trkpt lat="38.81982" lon="-0.11345">
        <ele>380.6</ele>
        <time>2021-01-31 14:09:48</time>
      </trkpt>
      <trkpt lat="38.8198" lon="-0.11348">
        <ele>380.6</ele>
        <time>2021-01-31 14:09:49</time>
      </trkpt>
      <trkpt lat="38.81979" lon="-0.11351">
        <ele>380.6</ele>
        <time>2021-01-31 14:09:50</time>
      </trkpt>
      <trkpt lat="38.81977" lon="-0.11354">
        <ele>381.6</ele>
        <time>2021-01-31 14:09:51</time>
      </trkpt>
      <trkpt lat="38.81975" lon="-0.11357">
        <ele>383.4</ele>
        <time>2021-01-31 14:09:52</time>
      </trkpt>
      <trkpt lat="38.81973" lon="-0.1136">
        <ele>383.4</ele>
        <time>2021-01-31 14:09:53</time>
      </trkpt>
      <trkpt lat="38.8197" lon="-0.11363">
        <ele>383.4</ele>
        <time>2021-01-31 14:09:54</time>
      </trkpt>
      <trkpt lat="38.81968" lon="-0.11366">
        <ele>383.4</ele>
        <time>2021-01-31 14:09:55</time>
      </trkpt>
      <trkpt lat="38.81966" lon="-0.11369">
        <ele>382.6</ele>
        <time>2021-01-31 14:09:56</time>
      </trkpt>
      <trkpt lat="38.81964" lon="-0.11371">
        <ele>382.6</ele>
        <time>2021-01-31 14:09:57</time>
      </trkpt>
      <trkpt lat="38.81962" lon="-0.11374">
        <ele>382.6</ele>
        <time>2021-01-31 14:09:58</time>
      </trkpt>
      <trkpt lat="38.81959" lon="-0.11377">
        <ele>382.6</ele>
        <time>2021-01-31 14:09:59</time>
      </trkpt>
      <trkpt lat="38.81957" lon="-0.11379">
        <ele>383.6</ele>
        <time>2021-01-31 14:10:00</time>
      </trkpt>
      <trkpt lat="38.81956" lon="-0.11383">
        <ele>383.6</ele>
        <time>2021-01-31 14:10:01</time>
      </trkpt>
      <trkpt lat="38.81956" lon="-0.11387">
        <ele>383.6</ele>
        <time>2021-01-31 14:10:02</time>
      </trkpt>
      <trkpt lat="38.81955" lon="-0.1139">
        <ele>383.6</ele>
        <time>2021-01-31 14:10:03</time>
      </trkpt>
      <trkpt lat="38.81955" lon="-0.11393">
        <ele>384.4</ele>
        <time>2021-01-31 14:10:04</time>
      </trkpt>
      <trkpt lat="38.81954" lon="-0.11396">
        <ele>384.4</ele>
        <time>2021-01-31 14:10:05</time>
      </trkpt>
      <trkpt lat="38.81954" lon="-0.11399">
        <ele>384.4</ele>
        <time>2021-01-31 14:10:06</time>
      </trkpt>
      <trkpt lat="38.81954" lon="-0.11402">
        <ele>384.4</ele>
        <time>2021-01-31 14:10:07</time>
      </trkpt>
      <trkpt lat="38.81954" lon="-0.11405">
        <ele>385</ele>
        <time>2021-01-31 14:10:08</time>
      </trkpt>
      <trkpt lat="38.81955" lon="-0.11407">
        <ele>385</ele>
        <time>2021-01-31 14:10:09</time>
      </trkpt>
      <trkpt lat="38.81955" lon="-0.1141">
        <ele>385</ele>
        <time>2021-01-31 14:10:10</time>
      </trkpt>
      <trkpt lat="38.81955" lon="-0.11413">
        <ele>385</ele>
        <time>2021-01-31 14:10:11</time>
      </trkpt>
      <trkpt lat="38.81955" lon="-0.11416">
        <ele>384</ele>
        <time>2021-01-31 14:10:12</time>
      </trkpt>
      <trkpt lat="38.81955" lon="-0.11419">
        <ele>384</ele>
        <time>2021-01-31 14:10:13</time>
      </trkpt>
      <trkpt lat="38.81955" lon="-0.11422">
        <ele>384</ele>
        <time>2021-01-31 14:10:14</time>
      </trkpt>
      <trkpt lat="38.81955" lon="-0.11425">
        <ele>385</ele>
        <time>2021-01-31 14:10:15</time>
      </trkpt>
      <trkpt lat="38.81955" lon="-0.11428">
        <ele>386.2</ele>
        <time>2021-01-31 14:10:16</time>
      </trkpt>
      <trkpt lat="38.81955" lon="-0.11431">
        <ele>386.2</ele>
        <time>2021-01-31 14:10:17</time>
      </trkpt>
      <trkpt lat="38.81954" lon="-0.11434">
        <ele>386.2</ele>
        <time>2021-01-31 14:10:18</time>
      </trkpt>
      <trkpt lat="38.81953" lon="-0.11438">
        <ele>386.2</ele>
        <time>2021-01-31 14:10:19</time>
      </trkpt>
      <trkpt lat="38.81952" lon="-0.1144">
        <ele>387</ele>
        <time>2021-01-31 14:10:20</time>
      </trkpt>
      <trkpt lat="38.81952" lon="-0.11443">
        <ele>387</ele>
        <time>2021-01-31 14:10:21</time>
      </trkpt>
      <trkpt lat="38.81951" lon="-0.11447">
        <ele>387</ele>
        <time>2021-01-31 14:10:22</time>
      </trkpt>
      <trkpt lat="38.8195" lon="-0.11449">
        <ele>387</ele>
        <time>2021-01-31 14:10:23</time>
      </trkpt>
      <trkpt lat="38.81949" lon="-0.11452">
        <ele>387.8</ele>
        <time>2021-01-31 14:10:24</time>
      </trkpt>
      <trkpt lat="38.81948" lon="-0.11455">
        <ele>387.8</ele>
        <time>2021-01-31 14:10:25</time>
      </trkpt>
      <trkpt lat="38.81947" lon="-0.11458">
        <ele>387.8</ele>
        <time>2021-01-31 14:10:26</time>
      </trkpt>
      <trkpt lat="38.81945" lon="-0.11461">
        <ele>387.8</ele>
        <time>2021-01-31 14:10:27</time>
      </trkpt>
      <trkpt lat="38.81944" lon="-0.11464">
        <ele>387</ele>
        <time>2021-01-31 14:10:28</time>
      </trkpt>
      <trkpt lat="38.81943" lon="-0.11466">
        <ele>387</ele>
        <time>2021-01-31 14:10:29</time>
      </trkpt>
      <trkpt lat="38.81942" lon="-0.11469">
        <ele>387</ele>
        <time>2021-01-31 14:10:30</time>
      </trkpt>
      <trkpt lat="38.81941" lon="-0.11472">
        <ele>388</ele>
        <time>2021-01-31 14:10:31</time>
      </trkpt>
      <trkpt lat="38.8194" lon="-0.11475">
        <ele>389.8</ele>
        <time>2021-01-31 14:10:32</time>
      </trkpt>
      <trkpt lat="38.81939" lon="-0.11478">
        <ele>389.8</ele>
        <time>2021-01-31 14:10:33</time>
      </trkpt>
      <trkpt lat="38.81938" lon="-0.11481">
        <ele>389.8</ele>
        <time>2021-01-31 14:10:34</time>
      </trkpt>
      <trkpt lat="38.81938" lon="-0.11484">
        <ele>389.8</ele>
        <time>2021-01-31 14:10:35</time>
      </trkpt>
      <trkpt lat="38.81938" lon="-0.11487">
        <ele>391.4</ele>
        <time>2021-01-31 14:10:36</time>
      </trkpt>
      <trkpt lat="38.81938" lon="-0.1149">
        <ele>391.4</ele>
        <time>2021-01-31 14:10:37</time>
      </trkpt>
      <trkpt lat="38.81938" lon="-0.11493">
        <ele>391.4</ele>
        <time>2021-01-31 14:10:38</time>
      </trkpt>
      <trkpt lat="38.81939" lon="-0.11496">
        <ele>390.4</ele>
        <time>2021-01-31 14:10:39</time>
      </trkpt>
      <trkpt lat="38.8194" lon="-0.11498">
        <ele>390</ele>
        <time>2021-01-31 14:10:40</time>
      </trkpt>
      <trkpt lat="38.8194" lon="-0.11501">
        <ele>390</ele>
        <time>2021-01-31 14:10:41</time>
      </trkpt>
      <trkpt lat="38.81941" lon="-0.11504">
        <ele>390</ele>
        <time>2021-01-31 14:10:42</time>
      </trkpt>
      <trkpt lat="38.81941" lon="-0.11507">
        <ele>391</ele>
        <time>2021-01-31 14:10:43</time>
      </trkpt>
      <trkpt lat="38.81942" lon="-0.1151">
        <ele>391.6</ele>
        <time>2021-01-31 14:10:44</time>
      </trkpt>
      <trkpt lat="38.81942" lon="-0.11514">
        <ele>391.6</ele>
        <time>2021-01-31 14:10:45</time>
      </trkpt>
      <trkpt lat="38.81942" lon="-0.11517">
        <ele>391.6</ele>
        <time>2021-01-31 14:10:46</time>
      </trkpt>
      <trkpt lat="38.81942" lon="-0.1152">
        <ele>391.4</ele>
        <time>2021-01-31 14:10:47</time>
      </trkpt>
      <trkpt lat="38.81942" lon="-0.11523">
        <ele>391</ele>
        <time>2021-01-31 14:10:48</time>
      </trkpt>
      <trkpt lat="38.81941" lon="-0.11527">
        <ele>391</ele>
        <time>2021-01-31 14:10:49</time>
      </trkpt>
      <trkpt lat="38.81941" lon="-0.1153">
        <ele>391</ele>
        <time>2021-01-31 14:10:50</time>
      </trkpt>
      <trkpt lat="38.81941" lon="-0.11533">
        <ele>391</ele>
        <time>2021-01-31 14:10:51</time>
      </trkpt>
      <trkpt lat="38.8194" lon="-0.11536">
        <ele>391.6</ele>
        <time>2021-01-31 14:10:52</time>
      </trkpt>
      <trkpt lat="38.8194" lon="-0.11539">
        <ele>391.6</ele>
        <time>2021-01-31 14:10:53</time>
      </trkpt>
      <trkpt lat="38.8194" lon="-0.11542">
        <ele>391.6</ele>
        <time>2021-01-31 14:10:54</time>
      </trkpt>
      <trkpt lat="38.81939" lon="-0.11545">
        <ele>392.6</ele>
        <time>2021-01-31 14:10:55</time>
      </trkpt>
      <trkpt lat="38.81939" lon="-0.11548">
        <ele>393.2</ele>
        <time>2021-01-31 14:10:56</time>
      </trkpt>
      <trkpt lat="38.81939" lon="-0.11551">
        <ele>393.2</ele>
        <time>2021-01-31 14:10:57</time>
      </trkpt>
      <trkpt lat="38.81939" lon="-0.11555">
        <ele>393.2</ele>
        <time>2021-01-31 14:10:58</time>
      </trkpt>
      <trkpt lat="38.81938" lon="-0.11558">
        <ele>392.4</ele>
        <time>2021-01-31 14:10:59</time>
      </trkpt>
      <trkpt lat="38.81938" lon="-0.11561">
        <ele>393.2</ele>
        <time>2021-01-31 14:11:00</time>
      </trkpt>
      <trkpt lat="38.81938" lon="-0.11564">
        <ele>393.2</ele>
        <time>2021-01-31 14:11:01</time>
      </trkpt>
      <trkpt lat="38.81938" lon="-0.11567">
        <ele>393.2</ele>
        <time>2021-01-31 14:11:02</time>
      </trkpt>
      <trkpt lat="38.81939" lon="-0.1157">
        <ele>393.2</ele>
        <time>2021-01-31 14:11:03</time>
      </trkpt>
      <trkpt lat="38.81939" lon="-0.11573">
        <ele>395.2</ele>
        <time>2021-01-31 14:11:04</time>
      </trkpt>
      <trkpt lat="38.8194" lon="-0.11576">
        <ele>395.2</ele>
        <time>2021-01-31 14:11:05</time>
      </trkpt>
      <trkpt lat="38.81941" lon="-0.11579">
        <ele>395.2</ele>
        <time>2021-01-31 14:11:06</time>
      </trkpt>
      <trkpt lat="38.81943" lon="-0.11581">
        <ele>395.2</ele>
        <time>2021-01-31 14:11:07</time>
      </trkpt>
      <trkpt lat="38.81944" lon="-0.11583">
        <ele>392.6</ele>
        <time>2021-01-31 14:11:08</time>
      </trkpt>
      <trkpt lat="38.81946" lon="-0.11585">
        <ele>392.6</ele>
        <time>2021-01-31 14:11:09</time>
      </trkpt>
      <trkpt lat="38.81948" lon="-0.11587">
        <ele>392.6</ele>
        <time>2021-01-31 14:11:10</time>
      </trkpt>
      <trkpt lat="38.81949" lon="-0.11589">
        <ele>393.6</ele>
        <time>2021-01-31 14:11:11</time>
      </trkpt>
      <trkpt lat="38.81951" lon="-0.1159">
        <ele>395.2</ele>
        <time>2021-01-31 14:11:12</time>
      </trkpt>
      <trkpt lat="38.81953" lon="-0.11593">
        <ele>395.2</ele>
        <time>2021-01-31 14:11:13</time>
      </trkpt>
      <trkpt lat="38.81955" lon="-0.11595">
        <ele>395.2</ele>
        <time>2021-01-31 14:11:14</time>
      </trkpt>
      <trkpt lat="38.81957" lon="-0.11597">
        <ele>395.2</ele>
        <time>2021-01-31 14:11:15</time>
      </trkpt>
      <trkpt lat="38.81958" lon="-0.11599">
        <ele>396.6</ele>
        <time>2021-01-31 14:11:16</time>
      </trkpt>
      <trkpt lat="38.8196" lon="-0.11601">
        <ele>396.6</ele>
        <time>2021-01-31 14:11:17</time>
      </trkpt>
      <trkpt lat="38.81962" lon="-0.11603">
        <ele>396.6</ele>
        <time>2021-01-31 14:11:18</time>
      </trkpt>
      <trkpt lat="38.81963" lon="-0.11606">
        <ele>396.8</ele>
        <time>2021-01-31 14:11:19</time>
      </trkpt>
      <trkpt lat="38.81964" lon="-0.11608">
        <ele>395.8</ele>
        <time>2021-01-31 14:11:20</time>
      </trkpt>
      <trkpt lat="38.81965" lon="-0.1161">
        <ele>395.8</ele>
        <time>2021-01-31 14:11:21</time>
      </trkpt>
      <trkpt lat="38.81966" lon="-0.11613">
        <ele>395.8</ele>
        <time>2021-01-31 14:11:22</time>
      </trkpt>
      <trkpt lat="38.81967" lon="-0.11616">
        <ele>396.8</ele>
        <time>2021-01-31 14:11:23</time>
      </trkpt>
      <trkpt lat="38.81968" lon="-0.11619">
        <ele>397.4</ele>
        <time>2021-01-31 14:11:24</time>
      </trkpt>
      <trkpt lat="38.81969" lon="-0.11622">
        <ele>397.4</ele>
        <time>2021-01-31 14:11:25</time>
      </trkpt>
      <trkpt lat="38.8197" lon="-0.11625">
        <ele>397.4</ele>
        <time>2021-01-31 14:11:26</time>
      </trkpt>
      <trkpt lat="38.81971" lon="-0.11627">
        <ele>396.4</ele>
        <time>2021-01-31 14:11:27</time>
      </trkpt>
      <trkpt lat="38.81972" lon="-0.1163">
        <ele>396</ele>
        <time>2021-01-31 14:11:28</time>
      </trkpt>
      <trkpt lat="38.81973" lon="-0.11633">
        <ele>396</ele>
        <time>2021-01-31 14:11:29</time>
      </trkpt>
      <trkpt lat="38.81974" lon="-0.11636">
        <ele>396</ele>
        <time>2021-01-31 14:11:30</time>
      </trkpt>
      <trkpt lat="38.81974" lon="-0.11638">
        <ele>397</ele>
        <time>2021-01-31 14:11:31</time>
      </trkpt>
      <trkpt lat="38.81975" lon="-0.11641">
        <ele>397.8</ele>
        <time>2021-01-31 14:11:32</time>
      </trkpt>
      <trkpt lat="38.81976" lon="-0.11644">
        <ele>397.8</ele>
        <time>2021-01-31 14:11:33</time>
      </trkpt>
      <trkpt lat="38.81977" lon="-0.11647">
        <ele>397.8</ele>
        <time>2021-01-31 14:11:34</time>
      </trkpt>
      <trkpt lat="38.81978" lon="-0.1165">
        <ele>398.8</ele>
        <time>2021-01-31 14:11:35</time>
      </trkpt>
      <trkpt lat="38.81978" lon="-0.11652">
        <ele>398.6</ele>
        <time>2021-01-31 14:11:36</time>
      </trkpt>
      <trkpt lat="38.81979" lon="-0.11655">
        <ele>398.6</ele>
        <time>2021-01-31 14:11:37</time>
      </trkpt>
      <trkpt lat="38.8198" lon="-0.11658">
        <ele>398.6</ele>
        <time>2021-01-31 14:11:38</time>
      </trkpt>
      <trkpt lat="38.8198" lon="-0.11661">
        <ele>399.6</ele>
        <time>2021-01-31 14:11:39</time>
      </trkpt>
      <trkpt lat="38.81981" lon="-0.11664">
        <ele>399.4</ele>
        <time>2021-01-31 14:11:40</time>
      </trkpt>
      <trkpt lat="38.81981" lon="-0.11668">
        <ele>399.4</ele>
        <time>2021-01-31 14:11:41</time>
      </trkpt>
      <trkpt lat="38.81982" lon="-0.11671">
        <ele>399.4</ele>
        <time>2021-01-31 14:11:42</time>
      </trkpt>
      <trkpt lat="38.81982" lon="-0.11674">
        <ele>399.4</ele>
        <time>2021-01-31 14:11:43</time>
      </trkpt>
      <trkpt lat="38.81982" lon="-0.11678">
        <ele>400.2</ele>
        <time>2021-01-31 14:11:44</time>
      </trkpt>
      <trkpt lat="38.81983" lon="-0.11681">
        <ele>400.2</ele>
        <time>2021-01-31 14:11:45</time>
      </trkpt>
      <trkpt lat="38.81983" lon="-0.11685">
        <ele>400.2</ele>
        <time>2021-01-31 14:11:46</time>
      </trkpt>
      <trkpt lat="38.81983" lon="-0.11688">
        <ele>400.2</ele>
        <time>2021-01-31 14:11:47</time>
      </trkpt>
      <trkpt lat="38.81984" lon="-0.11692">
        <ele>399.8</ele>
        <time>2021-01-31 14:11:48</time>
      </trkpt>
      <trkpt lat="38.81984" lon="-0.11696">
        <ele>399.8</ele>
        <time>2021-01-31 14:11:49</time>
      </trkpt>
      <trkpt lat="38.81984" lon="-0.11699">
        <ele>399.8</ele>
        <time>2021-01-31 14:11:50</time>
      </trkpt>
      <trkpt lat="38.81984" lon="-0.11703">
        <ele>400.8</ele>
        <time>2021-01-31 14:11:51</time>
      </trkpt>
      <trkpt lat="38.81985" lon="-0.11706">
        <ele>401.2</ele>
        <time>2021-01-31 14:11:52</time>
      </trkpt>
      <trkpt lat="38.81985" lon="-0.1171">
        <ele>401.2</ele>
        <time>2021-01-31 14:11:53</time>
      </trkpt>
      <trkpt lat="38.81985" lon="-0.11713">
        <ele>401.2</ele>
        <time>2021-01-31 14:11:54</time>
      </trkpt>
      <trkpt lat="38.81985" lon="-0.11717">
        <ele>401.2</ele>
        <time>2021-01-31 14:11:55</time>
      </trkpt>
      <trkpt lat="38.81986" lon="-0.1172">
        <ele>402</ele>
        <time>2021-01-31 14:11:56</time>
      </trkpt>
      <trkpt lat="38.81986" lon="-0.11724">
        <ele>402</ele>
        <time>2021-01-31 14:11:57</time>
      </trkpt>
      <trkpt lat="38.81986" lon="-0.11727">
        <ele>402</ele>
        <time>2021-01-31 14:11:58</time>
      </trkpt>
      <trkpt lat="38.81987" lon="-0.1173">
        <ele>402</ele>
        <time>2021-01-31 14:11:59</time>
      </trkpt>
      <trkpt lat="38.81987" lon="-0.11734">
        <ele>402.8</ele>
        <time>2021-01-31 14:12:00</time>
      </trkpt>
      <trkpt lat="38.81988" lon="-0.11737">
        <ele>402.8</ele>
        <time>2021-01-31 14:12:01</time>
      </trkpt>
      <trkpt lat="38.81989" lon="-0.1174">
        <ele>402.8</ele>
        <time>2021-01-31 14:12:02</time>
      </trkpt>
      <trkpt lat="38.8199" lon="-0.11743">
        <ele>403</ele>
        <time>2021-01-31 14:12:03</time>
      </trkpt>
      <trkpt lat="38.81991" lon="-0.11746">
        <ele>402.6</ele>
        <time>2021-01-31 14:12:04</time>
      </trkpt>
      <trkpt lat="38.81992" lon="-0.11749">
        <ele>402.6</ele>
        <time>2021-01-31 14:12:05</time>
      </trkpt>
      <trkpt lat="38.81993" lon="-0.11752">
        <ele>402.6</ele>
        <time>2021-01-31 14:12:06</time>
      </trkpt>
      <trkpt lat="38.81994" lon="-0.11754">
        <ele>402.6</ele>
        <time>2021-01-31 14:12:07</time>
      </trkpt>
      <trkpt lat="38.81995" lon="-0.11758">
        <ele>404.2</ele>
        <time>2021-01-31 14:12:08</time>
      </trkpt>
      <trkpt lat="38.81996" lon="-0.11761">
        <ele>404.2</ele>
        <time>2021-01-31 14:12:09</time>
      </trkpt>
      <trkpt lat="38.81998" lon="-0.11764">
        <ele>404.2</ele>
        <time>2021-01-31 14:12:10</time>
      </trkpt>
      <trkpt lat="38.81999" lon="-0.11767">
        <ele>403.4</ele>
        <time>2021-01-31 14:12:11</time>
      </trkpt>
      <trkpt lat="38.82" lon="-0.1177">
        <ele>403</ele>
        <time>2021-01-31 14:12:12</time>
      </trkpt>
      <trkpt lat="38.82001" lon="-0.11773">
        <ele>403</ele>
        <time>2021-01-31 14:12:13</time>
      </trkpt>
      <trkpt lat="38.82003" lon="-0.11775">
        <ele>403</ele>
        <time>2021-01-31 14:12:14</time>
      </trkpt>
      <trkpt lat="38.82004" lon="-0.11778">
        <ele>403</ele>
        <time>2021-01-31 14:12:15</time>
      </trkpt>
      <trkpt lat="38.82005" lon="-0.11781">
        <ele>403.8</ele>
        <time>2021-01-31 14:12:16</time>
      </trkpt>
      <trkpt lat="38.82006" lon="-0.11784">
        <ele>403.8</ele>
        <time>2021-01-31 14:12:17</time>
      </trkpt>
      <trkpt lat="38.82007" lon="-0.11787">
        <ele>403.8</ele>
        <time>2021-01-31 14:12:18</time>
      </trkpt>
      <trkpt lat="38.82008" lon="-0.1179">
        <ele>404.8</ele>
        <time>2021-01-31 14:12:19</time>
      </trkpt>
      <trkpt lat="38.82009" lon="-0.11793">
        <ele>404.4</ele>
        <time>2021-01-31 14:12:20</time>
      </trkpt>
      <trkpt lat="38.82011" lon="-0.11796">
        <ele>404.4</ele>
        <time>2021-01-31 14:12:21</time>
      </trkpt>
      <trkpt lat="38.82012" lon="-0.11799">
        <ele>404.4</ele>
        <time>2021-01-31 14:12:22</time>
      </trkpt>
      <trkpt lat="38.82013" lon="-0.11802">
        <ele>405.4</ele>
        <time>2021-01-31 14:12:23</time>
      </trkpt>
      <trkpt lat="38.82014" lon="-0.11804">
        <ele>406</ele>
        <time>2021-01-31 14:12:24</time>
      </trkpt>
      <trkpt lat="38.82015" lon="-0.11807">
        <ele>406</ele>
        <time>2021-01-31 14:12:25</time>
      </trkpt>
      <trkpt lat="38.82017" lon="-0.1181">
        <ele>406</ele>
        <time>2021-01-31 14:12:26</time>
      </trkpt>
      <trkpt lat="38.82018" lon="-0.11813">
        <ele>405</ele>
        <time>2021-01-31 14:12:27</time>
      </trkpt>
      <trkpt lat="38.82019" lon="-0.11815">
        <ele>406.2</ele>
        <time>2021-01-31 14:12:28</time>
      </trkpt>
      <trkpt lat="38.8202" lon="-0.11818">
        <ele>406.2</ele>
        <time>2021-01-31 14:12:29</time>
      </trkpt>
      <trkpt lat="38.82021" lon="-0.11821">
        <ele>406.2</ele>
        <time>2021-01-31 14:12:30</time>
      </trkpt>
      <trkpt lat="38.82022" lon="-0.11824">
        <ele>407</ele>
        <time>2021-01-31 14:12:31</time>
      </trkpt>
      <trkpt lat="38.82023" lon="-0.11827">
        <ele>406.2</ele>
        <time>2021-01-31 14:12:32</time>
      </trkpt>
      <trkpt lat="38.82024" lon="-0.1183">
        <ele>406.2</ele>
        <time>2021-01-31 14:12:33</time>
      </trkpt>
      <trkpt lat="38.82025" lon="-0.11832">
        <ele>406.2</ele>
        <time>2021-01-31 14:12:34</time>
      </trkpt>
      <trkpt lat="38.82026" lon="-0.11835">
        <ele>406.2</ele>
        <time>2021-01-31 14:12:35</time>
      </trkpt>
      <trkpt lat="38.82027" lon="-0.11838">
        <ele>407</ele>
        <time>2021-01-31 14:12:36</time>
      </trkpt>
      <trkpt lat="38.82028" lon="-0.11841">
        <ele>407</ele>
        <time>2021-01-31 14:12:37</time>
      </trkpt>
      <trkpt lat="38.82029" lon="-0.11844">
        <ele>407</ele>
        <time>2021-01-31 14:12:38</time>
      </trkpt>
      <trkpt lat="38.8203" lon="-0.11847">
        <ele>408</ele>
        <time>2021-01-31 14:12:39</time>
      </trkpt>
      <trkpt lat="38.82031" lon="-0.1185">
        <ele>407.6</ele>
        <time>2021-01-31 14:12:40</time>
      </trkpt>
      <trkpt lat="38.82032" lon="-0.11853">
        <ele>407.6</ele>
        <time>2021-01-31 14:12:41</time>
      </trkpt>
      <trkpt lat="38.82032" lon="-0.11856">
        <ele>407.6</ele>
        <time>2021-01-31 14:12:42</time>
      </trkpt>
      <trkpt lat="38.82033" lon="-0.11859">
        <ele>408.6</ele>
        <time>2021-01-31 14:12:43</time>
      </trkpt>
      <trkpt lat="38.82034" lon="-0.11863">
        <ele>408.6</ele>
        <time>2021-01-31 14:12:44</time>
      </trkpt>
      <trkpt lat="38.82035" lon="-0.11865">
        <ele>408.6</ele>
        <time>2021-01-31 14:12:45</time>
      </trkpt>
      <trkpt lat="38.82036" lon="-0.11868">
        <ele>408.6</ele>
        <time>2021-01-31 14:12:46</time>
      </trkpt>
      <trkpt lat="38.82036" lon="-0.11871">
        <ele>409</ele>
        <time>2021-01-31 14:12:47</time>
      </trkpt>
      <trkpt lat="38.82037" lon="-0.11874">
        <ele>410</ele>
        <time>2021-01-31 14:12:48</time>
      </trkpt>
      <trkpt lat="38.82038" lon="-0.11877">
        <ele>410</ele>
        <time>2021-01-31 14:12:49</time>
      </trkpt>
      <trkpt lat="38.82039" lon="-0.1188">
        <ele>410</ele>
        <time>2021-01-31 14:12:50</time>
      </trkpt>
      <trkpt lat="38.82039" lon="-0.11883">
        <ele>409.6</ele>
        <time>2021-01-31 14:12:51</time>
      </trkpt>
      <trkpt lat="38.8204" lon="-0.11886">
        <ele>409.8</ele>
        <time>2021-01-31 14:12:52</time>
      </trkpt>
      <trkpt lat="38.82041" lon="-0.11889">
        <ele>409.8</ele>
        <time>2021-01-31 14:12:53</time>
      </trkpt>
      <trkpt lat="38.82042" lon="-0.11892">
        <ele>409.8</ele>
        <time>2021-01-31 14:12:54</time>
      </trkpt>
      <trkpt lat="38.82042" lon="-0.11896">
        <ele>409.8</ele>
        <time>2021-01-31 14:12:55</time>
      </trkpt>
      <trkpt lat="38.82043" lon="-0.11899">
        <ele>410.6</ele>
        <time>2021-01-31 14:12:56</time>
      </trkpt>
      <trkpt lat="38.82044" lon="-0.11902">
        <ele>410.6</ele>
        <time>2021-01-31 14:12:57</time>
      </trkpt>
      <trkpt lat="38.82044" lon="-0.11906">
        <ele>410.6</ele>
        <time>2021-01-31 14:12:58</time>
      </trkpt>
      <trkpt lat="38.82045" lon="-0.11909">
        <ele>410.6</ele>
        <time>2021-01-31 14:12:59</time>
      </trkpt>
      <trkpt lat="38.82045" lon="-0.11912">
        <ele>410.6</ele>
        <time>2021-01-31 14:13:00</time>
      </trkpt>
      <trkpt lat="38.82046" lon="-0.11915">
        <ele>410.6</ele>
        <time>2021-01-31 14:13:01</time>
      </trkpt>
      <trkpt lat="38.82046" lon="-0.11918">
        <ele>410.6</ele>
        <time>2021-01-31 14:13:02</time>
      </trkpt>
      <trkpt lat="38.82046" lon="-0.11921">
        <ele>411.6</ele>
        <time>2021-01-31 14:13:03</time>
      </trkpt>
      <trkpt lat="38.82046" lon="-0.11924">
        <ele>412</ele>
        <time>2021-01-31 14:13:04</time>
      </trkpt>
      <trkpt lat="38.82046" lon="-0.11927">
        <ele>412</ele>
        <time>2021-01-31 14:13:05</time>
      </trkpt>
      <trkpt lat="38.82046" lon="-0.1193">
        <ele>412</ele>
        <time>2021-01-31 14:13:06</time>
      </trkpt>
      <trkpt lat="38.82046" lon="-0.11933">
        <ele>413</ele>
        <time>2021-01-31 14:13:07</time>
      </trkpt>
      <trkpt lat="38.82046" lon="-0.11936">
        <ele>413.2</ele>
        <time>2021-01-31 14:13:08</time>
      </trkpt>
      <trkpt lat="38.82045" lon="-0.11939">
        <ele>413.2</ele>
        <time>2021-01-31 14:13:09</time>
      </trkpt>
      <trkpt lat="38.82045" lon="-0.11942">
        <ele>413.2</ele>
        <time>2021-01-31 14:13:10</time>
      </trkpt>
      <trkpt lat="38.82045" lon="-0.11945">
        <ele>413.2</ele>
        <time>2021-01-31 14:13:11</time>
      </trkpt>
      <trkpt lat="38.82044" lon="-0.11948">
        <ele>414</ele>
        <time>2021-01-31 14:13:12</time>
      </trkpt>
      <trkpt lat="38.82043" lon="-0.11952">
        <ele>414</ele>
        <time>2021-01-31 14:13:13</time>
      </trkpt>
      <trkpt lat="38.82042" lon="-0.11955">
        <ele>414</ele>
        <time>2021-01-31 14:13:14</time>
      </trkpt>
      <trkpt lat="38.82042" lon="-0.11958">
        <ele>414</ele>
        <time>2021-01-31 14:13:15</time>
      </trkpt>
      <trkpt lat="38.8204" lon="-0.11961">
        <ele>413.4</ele>
        <time>2021-01-31 14:13:16</time>
      </trkpt>
      <trkpt lat="38.8204" lon="-0.11964">
        <ele>413.4</ele>
        <time>2021-01-31 14:13:17</time>
      </trkpt>
      <trkpt lat="38.82039" lon="-0.11968">
        <ele>413.4</ele>
        <time>2021-01-31 14:13:18</time>
      </trkpt>
      <trkpt lat="38.82038" lon="-0.11971">
        <ele>413.4</ele>
        <time>2021-01-31 14:13:19</time>
      </trkpt>
      <trkpt lat="38.82037" lon="-0.11974">
        <ele>415.4</ele>
        <time>2021-01-31 14:13:20</time>
      </trkpt>
      <trkpt lat="38.82036" lon="-0.11978">
        <ele>415.4</ele>
        <time>2021-01-31 14:13:21</time>
      </trkpt>
      <trkpt lat="38.82035" lon="-0.11981">
        <ele>415.4</ele>
        <time>2021-01-31 14:13:22</time>
      </trkpt>
      <trkpt lat="38.82034" lon="-0.11984">
        <ele>415.4</ele>
        <time>2021-01-31 14:13:23</time>
      </trkpt>
      <trkpt lat="38.82033" lon="-0.11988">
        <ele>415.2</ele>
        <time>2021-01-31 14:13:24</time>
      </trkpt>
      <trkpt lat="38.82032" lon="-0.11991">
        <ele>415.2</ele>
        <time>2021-01-31 14:13:25</time>
      </trkpt>
      <trkpt lat="38.82031" lon="-0.11994">
        <ele>415.2</ele>
        <time>2021-01-31 14:13:26</time>
      </trkpt>
      <trkpt lat="38.8203" lon="-0.11997">
        <ele>415.2</ele>
        <time>2021-01-31 14:13:27</time>
      </trkpt>
      <trkpt lat="38.82029" lon="-0.12001">
        <ele>416.2</ele>
        <time>2021-01-31 14:13:28</time>
      </trkpt>
      <trkpt lat="38.82029" lon="-0.12004">
        <ele>416.2</ele>
        <time>2021-01-31 14:13:29</time>
      </trkpt>
      <trkpt lat="38.82029" lon="-0.12007">
        <ele>416.2</ele>
        <time>2021-01-31 14:13:30</time>
      </trkpt>
      <trkpt lat="38.8203" lon="-0.12011">
        <ele>416.2</ele>
        <time>2021-01-31 14:13:31</time>
      </trkpt>
      <trkpt lat="38.8203" lon="-0.12014">
        <ele>416.6</ele>
        <time>2021-01-31 14:13:32</time>
      </trkpt>
      <trkpt lat="38.82031" lon="-0.12017">
        <ele>416.6</ele>
        <time>2021-01-31 14:13:33</time>
      </trkpt>
      <trkpt lat="38.82032" lon="-0.12021">
        <ele>416.6</ele>
        <time>2021-01-31 14:13:34</time>
      </trkpt>
      <trkpt lat="38.82032" lon="-0.12024">
        <ele>417.6</ele>
        <time>2021-01-31 14:13:35</time>
      </trkpt>
      <trkpt lat="38.82034" lon="-0.12028">
        <ele>418.4</ele>
        <time>2021-01-31 14:13:36</time>
      </trkpt>
      <trkpt lat="38.82035" lon="-0.12031">
        <ele>418.4</ele>
        <time>2021-01-31 14:13:37</time>
      </trkpt>
      <trkpt lat="38.82036" lon="-0.12035">
        <ele>418.4</ele>
        <time>2021-01-31 14:13:38</time>
      </trkpt>
      <trkpt lat="38.82036" lon="-0.12038">
        <ele>419.4</ele>
        <time>2021-01-31 14:13:39</time>
      </trkpt>
      <trkpt lat="38.82037" lon="-0.12041">
        <ele>419</ele>
        <time>2021-01-31 14:13:40</time>
      </trkpt>
      <trkpt lat="38.82037" lon="-0.12044">
        <ele>419</ele>
        <time>2021-01-31 14:13:41</time>
      </trkpt>
      <trkpt lat="38.82037" lon="-0.12048">
        <ele>419</ele>
        <time>2021-01-31 14:13:42</time>
      </trkpt>
      <trkpt lat="38.82037" lon="-0.12052">
        <ele>419</ele>
        <time>2021-01-31 14:13:43</time>
      </trkpt>
      <trkpt lat="38.82036" lon="-0.12055">
        <ele>418.4</ele>
        <time>2021-01-31 14:13:44</time>
      </trkpt>
      <trkpt lat="38.82035" lon="-0.12059">
        <ele>418.4</ele>
        <time>2021-01-31 14:13:45</time>
      </trkpt>
      <trkpt lat="38.82034" lon="-0.12062">
        <ele>418.4</ele>
        <time>2021-01-31 14:13:46</time>
      </trkpt>
      <trkpt lat="38.82032" lon="-0.12066">
        <ele>419.4</ele>
        <time>2021-01-31 14:13:47</time>
      </trkpt>
      <trkpt lat="38.8203" lon="-0.12069">
        <ele>419.6</ele>
        <time>2021-01-31 14:13:48</time>
      </trkpt>
      <trkpt lat="38.82028" lon="-0.12072">
        <ele>419.6</ele>
        <time>2021-01-31 14:13:49</time>
      </trkpt>
      <trkpt lat="38.82026" lon="-0.12075">
        <ele>419.6</ele>
        <time>2021-01-31 14:13:50</time>
      </trkpt>
      <trkpt lat="38.82023" lon="-0.12077">
        <ele>419.6</ele>
        <time>2021-01-31 14:13:51</time>
      </trkpt>
      <trkpt lat="38.82021" lon="-0.1208">
        <ele>420.2</ele>
        <time>2021-01-31 14:13:52</time>
      </trkpt>
      <trkpt lat="38.82018" lon="-0.12082">
        <ele>420.2</ele>
        <time>2021-01-31 14:13:53</time>
      </trkpt>
      <trkpt lat="38.82015" lon="-0.12084">
        <ele>420.2</ele>
        <time>2021-01-31 14:13:54</time>
      </trkpt>
      <trkpt lat="38.82012" lon="-0.12086">
        <ele>421.2</ele>
        <time>2021-01-31 14:13:55</time>
      </trkpt>
      <trkpt lat="38.82009" lon="-0.12088">
        <ele>422.2</ele>
        <time>2021-01-31 14:13:56</time>
      </trkpt>
      <trkpt lat="38.82007" lon="-0.1209">
        <ele>422.2</ele>
        <time>2021-01-31 14:13:57</time>
      </trkpt>
      <trkpt lat="38.82004" lon="-0.12092">
        <ele>422.2</ele>
        <time>2021-01-31 14:13:58</time>
      </trkpt>
      <trkpt lat="38.82002" lon="-0.12094">
        <ele>422.2</ele>
        <time>2021-01-31 14:13:59</time>
      </trkpt>
      <trkpt lat="38.81999" lon="-0.12097">
        <ele>424</ele>
        <time>2021-01-31 14:14:00</time>
      </trkpt>
      <trkpt lat="38.81997" lon="-0.121">
        <ele>424</ele>
        <time>2021-01-31 14:14:01</time>
      </trkpt>
      <trkpt lat="38.81995" lon="-0.12102">
        <ele>424</ele>
        <time>2021-01-31 14:14:02</time>
      </trkpt>
      <trkpt lat="38.81994" lon="-0.12105">
        <ele>424</ele>
        <time>2021-01-31 14:14:03</time>
      </trkpt>
      <trkpt lat="38.81992" lon="-0.12108">
        <ele>422.2</ele>
        <time>2021-01-31 14:14:04</time>
      </trkpt>
      <trkpt lat="38.81991" lon="-0.12111">
        <ele>422.2</ele>
        <time>2021-01-31 14:14:05</time>
      </trkpt>
      <trkpt lat="38.8199" lon="-0.12114">
        <ele>422.2</ele>
        <time>2021-01-31 14:14:06</time>
      </trkpt>
      <trkpt lat="38.81989" lon="-0.12116">
        <ele>422</ele>
        <time>2021-01-31 14:14:07</time>
      </trkpt>
      <trkpt lat="38.81988" lon="-0.12119">
        <ele>422.8</ele>
        <time>2021-01-31 14:14:08</time>
      </trkpt>
      <trkpt lat="38.81987" lon="-0.12122">
        <ele>422.8</ele>
        <time>2021-01-31 14:14:09</time>
      </trkpt>
      <trkpt lat="38.81986" lon="-0.12124">
        <ele>422.8</ele>
        <time>2021-01-31 14:14:10</time>
      </trkpt>
      <trkpt lat="38.81985" lon="-0.12127">
        <ele>423.6</ele>
        <time>2021-01-31 14:14:11</time>
      </trkpt>
      <trkpt lat="38.81984" lon="-0.12129">
        <ele>423.4</ele>
        <time>2021-01-31 14:14:12</time>
      </trkpt>
      <trkpt lat="38.81982" lon="-0.12131">
        <ele>423.4</ele>
        <time>2021-01-31 14:14:13</time>
      </trkpt>
      <trkpt lat="38.81981" lon="-0.12133">
        <ele>423.4</ele>
        <time>2021-01-31 14:14:14</time>
      </trkpt>
      <trkpt lat="38.81979" lon="-0.12135">
        <ele>424.2</ele>
        <time>2021-01-31 14:14:15</time>
      </trkpt>
      <trkpt lat="38.81978" lon="-0.12137">
        <ele>424</ele>
        <time>2021-01-31 14:14:16</time>
      </trkpt>
      <trkpt lat="38.81976" lon="-0.12139">
        <ele>424</ele>
        <time>2021-01-31 14:14:17</time>
      </trkpt>
      <trkpt lat="38.81974" lon="-0.12141">
        <ele>424</ele>
        <time>2021-01-31 14:14:18</time>
      </trkpt>
      <trkpt lat="38.81972" lon="-0.12142">
        <ele>425</ele>
        <time>2021-01-31 14:14:19</time>
      </trkpt>
      <trkpt lat="38.8197" lon="-0.12144">
        <ele>424.8</ele>
        <time>2021-01-31 14:14:20</time>
      </trkpt>
      <trkpt lat="38.81968" lon="-0.12146">
        <ele>424.8</ele>
        <time>2021-01-31 14:14:21</time>
      </trkpt>
      <trkpt lat="38.81966" lon="-0.12147">
        <ele>424.8</ele>
        <time>2021-01-31 14:14:22</time>
      </trkpt>
      <trkpt lat="38.81965" lon="-0.12149">
        <ele>424.8</ele>
        <time>2021-01-31 14:14:23</time>
      </trkpt>
      <trkpt lat="38.81963" lon="-0.1215">
        <ele>425.8</ele>
        <time>2021-01-31 14:14:24</time>
      </trkpt>
      <trkpt lat="38.81961" lon="-0.12152">
        <ele>425.8</ele>
        <time>2021-01-31 14:14:25</time>
      </trkpt>
      <trkpt lat="38.81959" lon="-0.12153">
        <ele>425.8</ele>
        <time>2021-01-31 14:14:26</time>
      </trkpt>
      <trkpt lat="38.81958" lon="-0.12155">
        <ele>425.8</ele>
        <time>2021-01-31 14:14:27</time>
      </trkpt>
      <trkpt lat="38.81956" lon="-0.12157">
        <ele>426.6</ele>
        <time>2021-01-31 14:14:28</time>
      </trkpt>
      <trkpt lat="38.81954" lon="-0.12158">
        <ele>426.6</ele>
        <time>2021-01-31 14:14:29</time>
      </trkpt>
      <trkpt lat="38.81952" lon="-0.1216">
        <ele>426.6</ele>
        <time>2021-01-31 14:14:30</time>
      </trkpt>
      <trkpt lat="38.8195" lon="-0.12161">
        <ele>426.6</ele>
        <time>2021-01-31 14:14:31</time>
      </trkpt>
      <trkpt lat="38.81948" lon="-0.12162">
        <ele>426.8</ele>
        <time>2021-01-31 14:14:32</time>
      </trkpt>
      <trkpt lat="38.81945" lon="-0.12163">
        <ele>426.8</ele>
        <time>2021-01-31 14:14:33</time>
      </trkpt>
      <trkpt lat="38.81943" lon="-0.12163">
        <ele>426.8</ele>
        <time>2021-01-31 14:14:34</time>
      </trkpt>
      <trkpt lat="38.81941" lon="-0.12164">
        <ele>425.8</ele>
        <time>2021-01-31 14:14:35</time>
      </trkpt>
      <trkpt lat="38.81939" lon="-0.12164">
        <ele>425.2</ele>
        <time>2021-01-31 14:14:36</time>
      </trkpt>
      <trkpt lat="38.81937" lon="-0.12165">
        <ele>425.2</ele>
        <time>2021-01-31 14:14:37</time>
      </trkpt>
      <trkpt lat="38.81934" lon="-0.12166">
        <ele>425.2</ele>
        <time>2021-01-31 14:14:38</time>
      </trkpt>
      <trkpt lat="38.81932" lon="-0.12166">
        <ele>425.4</ele>
        <time>2021-01-31 14:14:39</time>
      </trkpt>
      <trkpt lat="38.8193" lon="-0.12167">
        <ele>425.8</ele>
        <time>2021-01-31 14:14:40</time>
      </trkpt>
      <trkpt lat="38.81928" lon="-0.12167">
        <ele>425.8</ele>
        <time>2021-01-31 14:14:41</time>
      </trkpt>
      <trkpt lat="38.81926" lon="-0.12168">
        <ele>425.8</ele>
        <time>2021-01-31 14:14:42</time>
      </trkpt>
      <trkpt lat="38.81923" lon="-0.12168">
        <ele>426.8</ele>
        <time>2021-01-31 14:14:43</time>
      </trkpt>
      <trkpt lat="38.81921" lon="-0.12169">
        <ele>426.2</ele>
        <time>2021-01-31 14:14:44</time>
      </trkpt>
      <trkpt lat="38.81919" lon="-0.12169">
        <ele>426.2</ele>
        <time>2021-01-31 14:14:45</time>
      </trkpt>
      <trkpt lat="38.81917" lon="-0.1217">
        <ele>426.2</ele>
        <time>2021-01-31 14:14:46</time>
      </trkpt>
      <trkpt lat="38.81914" lon="-0.1217">
        <ele>426.2</ele>
        <time>2021-01-31 14:14:47</time>
      </trkpt>
      <trkpt lat="38.81912" lon="-0.1217">
        <ele>428.4</ele>
        <time>2021-01-31 14:14:48</time>
      </trkpt>
      <trkpt lat="38.81909" lon="-0.12171">
        <ele>428.4</ele>
        <time>2021-01-31 14:14:49</time>
      </trkpt>
      <trkpt lat="38.81907" lon="-0.12171">
        <ele>428.4</ele>
        <time>2021-01-31 14:14:50</time>
      </trkpt>
      <trkpt lat="38.81905" lon="-0.12172">
        <ele>428.6</ele>
        <time>2021-01-31 14:14:51</time>
      </trkpt>
      <trkpt lat="38.81902" lon="-0.12172">
        <ele>428.6</ele>
        <time>2021-01-31 14:14:52</time>
      </trkpt>
      <trkpt lat="38.819" lon="-0.12173">
        <ele>428.6</ele>
        <time>2021-01-31 14:14:53</time>
      </trkpt>
      <trkpt lat="38.81897" lon="-0.12174">
        <ele>428.6</ele>
        <time>2021-01-31 14:14:54</time>
      </trkpt>
      <trkpt lat="38.81895" lon="-0.12174">
        <ele>428.6</ele>
        <time>2021-01-31 14:14:55</time>
      </trkpt>
      <trkpt lat="38.81893" lon="-0.12175">
        <ele>429.2</ele>
        <time>2021-01-31 14:14:56</time>
      </trkpt>
      <trkpt lat="38.8189" lon="-0.12175">
        <ele>429.2</ele>
        <time>2021-01-31 14:14:57</time>
      </trkpt>
      <trkpt lat="38.81888" lon="-0.12176">
        <ele>429.2</ele>
        <time>2021-01-31 14:14:58</time>
      </trkpt>
      <trkpt lat="38.81886" lon="-0.12176">
        <ele>429.2</ele>
        <time>2021-01-31 14:14:59</time>
      </trkpt>
      <trkpt lat="38.81884" lon="-0.12177">
        <ele>429.2</ele>
        <time>2021-01-31 14:15:00</time>
      </trkpt>
      <trkpt lat="38.81881" lon="-0.12177">
        <ele>429.2</ele>
        <time>2021-01-31 14:15:01</time>
      </trkpt>
      <trkpt lat="38.81879" lon="-0.12177">
        <ele>429.2</ele>
        <time>2021-01-31 14:15:02</time>
      </trkpt>
      <trkpt lat="38.81876" lon="-0.12177">
        <ele>430.2</ele>
        <time>2021-01-31 14:15:03</time>
      </trkpt>
      <trkpt lat="38.81874" lon="-0.12177">
        <ele>430.8</ele>
        <time>2021-01-31 14:15:04</time>
      </trkpt>
      <trkpt lat="38.81872" lon="-0.12177">
        <ele>430.8</ele>
        <time>2021-01-31 14:15:05</time>
      </trkpt>
      <trkpt lat="38.81869" lon="-0.12177">
        <ele>430.8</ele>
        <time>2021-01-31 14:15:06</time>
      </trkpt>
      <trkpt lat="38.81867" lon="-0.12177">
        <ele>431.4</ele>
        <time>2021-01-31 14:15:07</time>
      </trkpt>
      <trkpt lat="38.81864" lon="-0.12177">
        <ele>432.2</ele>
        <time>2021-01-31 14:15:08</time>
      </trkpt>
      <trkpt lat="38.81862" lon="-0.12177">
        <ele>432.2</ele>
        <time>2021-01-31 14:15:09</time>
      </trkpt>
      <trkpt lat="38.81859" lon="-0.12177">
        <ele>432.2</ele>
        <time>2021-01-31 14:15:10</time>
      </trkpt>
      <trkpt lat="38.81857" lon="-0.12177">
        <ele>431.8</ele>
        <time>2021-01-31 14:15:11</time>
      </trkpt>
      <trkpt lat="38.81854" lon="-0.12178">
        <ele>431.8</ele>
        <time>2021-01-31 14:15:12</time>
      </trkpt>
      <trkpt lat="38.81852" lon="-0.12179">
        <ele>431.8</ele>
        <time>2021-01-31 14:15:13</time>
      </trkpt>
      <trkpt lat="38.8185" lon="-0.1218">
        <ele>431.8</ele>
        <time>2021-01-31 14:15:14</time>
      </trkpt>
      <trkpt lat="38.81848" lon="-0.12181">
        <ele>431.8</ele>
        <time>2021-01-31 14:15:15</time>
      </trkpt>
      <trkpt lat="38.81846" lon="-0.12183">
        <ele>432.6</ele>
        <time>2021-01-31 14:15:16</time>
      </trkpt>
      <trkpt lat="38.81844" lon="-0.12185">
        <ele>432.6</ele>
        <time>2021-01-31 14:15:17</time>
      </trkpt>
      <trkpt lat="38.81842" lon="-0.12188">
        <ele>432.6</ele>
        <time>2021-01-31 14:15:18</time>
      </trkpt>
      <trkpt lat="38.81841" lon="-0.1219">
        <ele>433.6</ele>
        <time>2021-01-31 14:15:19</time>
      </trkpt>
      <trkpt lat="38.8184" lon="-0.12193">
        <ele>433.4</ele>
        <time>2021-01-31 14:15:20</time>
      </trkpt>
      <trkpt lat="38.81838" lon="-0.12195">
        <ele>433.4</ele>
        <time>2021-01-31 14:15:21</time>
      </trkpt>
      <trkpt lat="38.81837" lon="-0.12198">
        <ele>433.4</ele>
        <time>2021-01-31 14:15:22</time>
      </trkpt>
      <trkpt lat="38.81836" lon="-0.122">
        <ele>433.4</ele>
        <time>2021-01-31 14:15:23</time>
      </trkpt>
      <trkpt lat="38.81835" lon="-0.12203">
        <ele>432.8</ele>
        <time>2021-01-31 14:15:24</time>
      </trkpt>
      <trkpt lat="38.81834" lon="-0.12206">
        <ele>432.8</ele>
        <time>2021-01-31 14:15:25</time>
      </trkpt>
      <trkpt lat="38.81834" lon="-0.12209">
        <ele>432.8</ele>
        <time>2021-01-31 14:15:26</time>
      </trkpt>
      <trkpt lat="38.81833" lon="-0.12211">
        <ele>433.8</ele>
        <time>2021-01-31 14:15:27</time>
      </trkpt>
      <trkpt lat="38.81832" lon="-0.12214">
        <ele>434.8</ele>
        <time>2021-01-31 14:15:28</time>
      </trkpt>
      <trkpt lat="38.81831" lon="-0.12217">
        <ele>434.8</ele>
        <time>2021-01-31 14:15:29</time>
      </trkpt>
      <trkpt lat="38.8183" lon="-0.1222">
        <ele>434.8</ele>
        <time>2021-01-31 14:15:30</time>
      </trkpt>
      <trkpt lat="38.81829" lon="-0.12223">
        <ele>435.4</ele>
        <time>2021-01-31 14:15:31</time>
      </trkpt>
      <trkpt lat="38.81828" lon="-0.12226">
        <ele>436.2</ele>
        <time>2021-01-31 14:15:32</time>
      </trkpt>
      <trkpt lat="38.81827" lon="-0.12228">
        <ele>436.2</ele>
        <time>2021-01-31 14:15:33</time>
      </trkpt>
      <trkpt lat="38.81826" lon="-0.12231">
        <ele>436.2</ele>
        <time>2021-01-31 14:15:34</time>
      </trkpt>
      <trkpt lat="38.81825" lon="-0.12233">
        <ele>436.2</ele>
        <time>2021-01-31 14:15:35</time>
      </trkpt>
      <trkpt lat="38.81824" lon="-0.12236">
        <ele>436.2</ele>
        <time>2021-01-31 14:15:36</time>
      </trkpt>
      <trkpt lat="38.81823" lon="-0.12239">
        <ele>436.2</ele>
        <time>2021-01-31 14:15:37</time>
      </trkpt>
      <trkpt lat="38.81822" lon="-0.12242">
        <ele>436.2</ele>
        <time>2021-01-31 14:15:38</time>
      </trkpt>
      <trkpt lat="38.81821" lon="-0.12245">
        <ele>436.2</ele>
        <time>2021-01-31 14:15:39</time>
      </trkpt>
      <trkpt lat="38.81819" lon="-0.12249">
        <ele>436.2</ele>
        <time>2021-01-31 14:15:40</time>
      </trkpt>
      <trkpt lat="38.81818" lon="-0.12252">
        <ele>436.2</ele>
        <time>2021-01-31 14:15:41</time>
      </trkpt>
      <trkpt lat="38.81817" lon="-0.12255">
        <ele>436.2</ele>
        <time>2021-01-31 14:15:42</time>
      </trkpt>
      <trkpt lat="38.81815" lon="-0.12259">
        <ele>436.6</ele>
        <time>2021-01-31 14:15:43</time>
      </trkpt>
      <trkpt lat="38.81813" lon="-0.12261">
        <ele>437.2</ele>
        <time>2021-01-31 14:15:44</time>
      </trkpt>
      <trkpt lat="38.81812" lon="-0.12264">
        <ele>437.2</ele>
        <time>2021-01-31 14:15:45</time>
      </trkpt>
      <trkpt lat="38.81809" lon="-0.12267">
        <ele>437.2</ele>
        <time>2021-01-31 14:15:46</time>
      </trkpt>
      <trkpt lat="38.81807" lon="-0.1227">
        <ele>437.2</ele>
        <time>2021-01-31 14:15:47</time>
      </trkpt>
      <trkpt lat="38.81805" lon="-0.12273">
        <ele>437.6</ele>
        <time>2021-01-31 14:15:48</time>
      </trkpt>
      <trkpt lat="38.81802" lon="-0.12275">
        <ele>437.6</ele>
        <time>2021-01-31 14:15:49</time>
      </trkpt>
      <trkpt lat="38.81799" lon="-0.12276">
        <ele>437.6</ele>
        <time>2021-01-31 14:15:50</time>
      </trkpt>
      <trkpt lat="38.81795" lon="-0.12276">
        <ele>437.6</ele>
        <time>2021-01-31 14:15:51</time>
      </trkpt>
      <trkpt lat="38.81792" lon="-0.12276">
        <ele>437.6</ele>
        <time>2021-01-31 14:15:52</time>
      </trkpt>
      <trkpt lat="38.81789" lon="-0.12274">
        <ele>437.6</ele>
        <time>2021-01-31 14:15:53</time>
      </trkpt>
      <trkpt lat="38.81786" lon="-0.12271">
        <ele>437.6</ele>
        <time>2021-01-31 14:15:54</time>
      </trkpt>
      <trkpt lat="38.81783" lon="-0.12267">
        <ele>437.6</ele>
        <time>2021-01-31 14:15:55</time>
      </trkpt>
      <trkpt lat="38.81781" lon="-0.12263">
        <ele>438.2</ele>
        <time>2021-01-31 14:15:56</time>
      </trkpt>
      <trkpt lat="38.8178" lon="-0.12259">
        <ele>438.2</ele>
        <time>2021-01-31 14:15:57</time>
      </trkpt>
      <trkpt lat="38.8178" lon="-0.12254">
        <ele>438.2</ele>
        <time>2021-01-31 14:15:58</time>
      </trkpt>
      <trkpt lat="38.8178" lon="-0.12249">
        <ele>438.8</ele>
        <time>2021-01-31 14:15:59</time>
      </trkpt>
      <trkpt lat="38.8178" lon="-0.12245">
        <ele>439</ele>
        <time>2021-01-31 14:16:00</time>
      </trkpt>
      <trkpt lat="38.81781" lon="-0.12241">
        <ele>439</ele>
        <time>2021-01-31 14:16:01</time>
      </trkpt>
      <trkpt lat="38.81782" lon="-0.12237">
        <ele>439</ele>
        <time>2021-01-31 14:16:02</time>
      </trkpt>
      <trkpt lat="38.81784" lon="-0.12233">
        <ele>440</ele>
        <time>2021-01-31 14:16:03</time>
      </trkpt>
      <trkpt lat="38.81785" lon="-0.12229">
        <ele>439.8</ele>
        <time>2021-01-31 14:16:04</time>
      </trkpt>
      <trkpt lat="38.81786" lon="-0.12226">
        <ele>439.8</ele>
        <time>2021-01-31 14:16:05</time>
      </trkpt>
      <trkpt lat="38.81787" lon="-0.12223">
        <ele>439.8</ele>
        <time>2021-01-31 14:16:06</time>
      </trkpt>
      <trkpt lat="38.81788" lon="-0.12219">
        <ele>440.4</ele>
        <time>2021-01-31 14:16:07</time>
      </trkpt>
      <trkpt lat="38.81789" lon="-0.12215">
        <ele>440.8</ele>
        <time>2021-01-31 14:16:08</time>
      </trkpt>
      <trkpt lat="38.8179" lon="-0.12212">
        <ele>440.8</ele>
        <time>2021-01-31 14:16:09</time>
      </trkpt>
      <trkpt lat="38.81791" lon="-0.12208">
        <ele>440.8</ele>
        <time>2021-01-31 14:16:10</time>
      </trkpt>
      <trkpt lat="38.81792" lon="-0.12204">
        <ele>440.6</ele>
        <time>2021-01-31 14:16:11</time>
      </trkpt>
      <trkpt lat="38.81792" lon="-0.122">
        <ele>441.2</ele>
        <time>2021-01-31 14:16:12</time>
      </trkpt>
      <trkpt lat="38.81792" lon="-0.12196">
        <ele>441.2</ele>
        <time>2021-01-31 14:16:13</time>
      </trkpt>
      <trkpt lat="38.81792" lon="-0.12193">
        <ele>441.2</ele>
        <time>2021-01-31 14:16:14</time>
      </trkpt>
      <trkpt lat="38.81791" lon="-0.12189">
        <ele>442.2</ele>
        <time>2021-01-31 14:16:15</time>
      </trkpt>
      <trkpt lat="38.8179" lon="-0.12186">
        <ele>442</ele>
        <time>2021-01-31 14:16:16</time>
      </trkpt>
      <trkpt lat="38.81788" lon="-0.12183">
        <ele>442</ele>
        <time>2021-01-31 14:16:17</time>
      </trkpt>
      <trkpt lat="38.81787" lon="-0.12181">
        <ele>442</ele>
        <time>2021-01-31 14:16:18</time>
      </trkpt>
      <trkpt lat="38.81785" lon="-0.12179">
        <ele>442</ele>
        <time>2021-01-31 14:16:19</time>
      </trkpt>
      <trkpt lat="38.81783" lon="-0.12177">
        <ele>442.8</ele>
        <time>2021-01-31 14:16:20</time>
      </trkpt>
      <trkpt lat="38.81781" lon="-0.12175">
        <ele>442.8</ele>
        <time>2021-01-31 14:16:21</time>
      </trkpt>
      <trkpt lat="38.81779" lon="-0.12173">
        <ele>442.8</ele>
        <time>2021-01-31 14:16:22</time>
      </trkpt>
      <trkpt lat="38.81777" lon="-0.12171">
        <ele>443.8</ele>
        <time>2021-01-31 14:16:23</time>
      </trkpt>
      <trkpt lat="38.81775" lon="-0.1217">
        <ele>444.2</ele>
        <time>2021-01-31 14:16:24</time>
      </trkpt>
      <trkpt lat="38.81773" lon="-0.12168">
        <ele>444.2</ele>
        <time>2021-01-31 14:16:25</time>
      </trkpt>
      <trkpt lat="38.81771" lon="-0.12167">
        <ele>444.2</ele>
        <time>2021-01-31 14:16:26</time>
      </trkpt>
      <trkpt lat="38.81769" lon="-0.12165">
        <ele>444.6</ele>
        <time>2021-01-31 14:16:27</time>
      </trkpt>
      <trkpt lat="38.81767" lon="-0.12164">
        <ele>444.6</ele>
        <time>2021-01-31 14:16:28</time>
      </trkpt>
      <trkpt lat="38.81765" lon="-0.12162">
        <ele>444.6</ele>
        <time>2021-01-31 14:16:29</time>
      </trkpt>
      <trkpt lat="38.81763" lon="-0.1216">
        <ele>444.6</ele>
        <time>2021-01-31 14:16:30</time>
      </trkpt>
      <trkpt lat="38.81761" lon="-0.12158">
        <ele>445.2</ele>
        <time>2021-01-31 14:16:31</time>
      </trkpt>
      <trkpt lat="38.8176" lon="-0.12156">
        <ele>445.6</ele>
        <time>2021-01-31 14:16:32</time>
      </trkpt>
      <trkpt lat="38.81758" lon="-0.12154">
        <ele>445.6</ele>
        <time>2021-01-31 14:16:33</time>
      </trkpt>
      <trkpt lat="38.81756" lon="-0.12153">
        <ele>445.6</ele>
        <time>2021-01-31 14:16:34</time>
      </trkpt>
      <trkpt lat="38.81755" lon="-0.12151">
        <ele>446.2</ele>
        <time>2021-01-31 14:16:35</time>
      </trkpt>
      <trkpt lat="38.81754" lon="-0.12149">
        <ele>446.4</ele>
        <time>2021-01-31 14:16:36</time>
      </trkpt>
      <trkpt lat="38.81752" lon="-0.12146">
        <ele>446.4</ele>
        <time>2021-01-31 14:16:37</time>
      </trkpt>
      <trkpt lat="38.81751" lon="-0.12144">
        <ele>446.4</ele>
        <time>2021-01-31 14:16:38</time>
      </trkpt>
      <trkpt lat="38.8175" lon="-0.12141">
        <ele>447</ele>
        <time>2021-01-31 14:16:39</time>
      </trkpt>
      <trkpt lat="38.81749" lon="-0.12138">
        <ele>446.4</ele>
        <time>2021-01-31 14:16:40</time>
      </trkpt>
      <trkpt lat="38.81749" lon="-0.12133">
        <ele>446.4</ele>
        <time>2021-01-31 14:16:41</time>
      </trkpt>
      <trkpt lat="38.81749" lon="-0.12129">
        <ele>446.4</ele>
        <time>2021-01-31 14:16:42</time>
      </trkpt>
      <trkpt lat="38.8175" lon="-0.12124">
        <ele>446.4</ele>
        <time>2021-01-31 14:16:43</time>
      </trkpt>
      <trkpt lat="38.81752" lon="-0.1212">
        <ele>446.8</ele>
        <time>2021-01-31 14:16:44</time>
      </trkpt>
      <trkpt lat="38.81754" lon="-0.12117">
        <ele>446.8</ele>
        <time>2021-01-31 14:16:45</time>
      </trkpt>
      <trkpt lat="38.81757" lon="-0.12115">
        <ele>446.8</ele>
        <time>2021-01-31 14:16:46</time>
      </trkpt>
      <trkpt lat="38.8176" lon="-0.12113">
        <ele>445.8</ele>
        <time>2021-01-31 14:16:47</time>
      </trkpt>
      <trkpt lat="38.81763" lon="-0.12112">
        <ele>445.4</ele>
        <time>2021-01-31 14:16:48</time>
      </trkpt>
      <trkpt lat="38.81766" lon="-0.12111">
        <ele>445.4</ele>
        <time>2021-01-31 14:16:49</time>
      </trkpt>
      <trkpt lat="38.81769" lon="-0.12111">
        <ele>445.4</ele>
        <time>2021-01-31 14:16:50</time>
      </trkpt>
      <trkpt lat="38.81772" lon="-0.12112">
        <ele>445.4</ele>
        <time>2021-01-31 14:16:51</time>
      </trkpt>
      <trkpt lat="38.81776" lon="-0.12112">
        <ele>445.2</ele>
        <time>2021-01-31 14:16:52</time>
      </trkpt>
      <trkpt lat="38.81779" lon="-0.12113">
        <ele>445.2</ele>
        <time>2021-01-31 14:16:53</time>
      </trkpt>
      <trkpt lat="38.81783" lon="-0.12113">
        <ele>445.2</ele>
        <time>2021-01-31 14:16:54</time>
      </trkpt>
      <trkpt lat="38.81786" lon="-0.12114">
        <ele>446.2</ele>
        <time>2021-01-31 14:16:55</time>
      </trkpt>
      <trkpt lat="38.8179" lon="-0.12114">
        <ele>446.6</ele>
        <time>2021-01-31 14:16:56</time>
      </trkpt>
      <trkpt lat="38.81794" lon="-0.12115">
        <ele>446.6</ele>
        <time>2021-01-31 14:16:57</time>
      </trkpt>
      <trkpt lat="38.81798" lon="-0.12115">
        <ele>446.6</ele>
        <time>2021-01-31 14:16:58</time>
      </trkpt>
      <trkpt lat="38.81802" lon="-0.12115">
        <ele>446.4</ele>
        <time>2021-01-31 14:16:59</time>
      </trkpt>
      <trkpt lat="38.81806" lon="-0.12115">
        <ele>447.2</ele>
        <time>2021-01-31 14:17:00</time>
      </trkpt>
      <trkpt lat="38.8181" lon="-0.12115">
        <ele>447.2</ele>
        <time>2021-01-31 14:17:01</time>
      </trkpt>
      <trkpt lat="38.81815" lon="-0.12114">
        <ele>447.2</ele>
        <time>2021-01-31 14:17:02</time>
      </trkpt>
      <trkpt lat="38.81819" lon="-0.12113">
        <ele>448.2</ele>
        <time>2021-01-31 14:17:03</time>
      </trkpt>
      <trkpt lat="38.81823" lon="-0.12112">
        <ele>448</ele>
        <time>2021-01-31 14:17:04</time>
      </trkpt>
      <trkpt lat="38.81827" lon="-0.1211">
        <ele>448</ele>
        <time>2021-01-31 14:17:05</time>
      </trkpt>
      <trkpt lat="38.81831" lon="-0.12108">
        <ele>448</ele>
        <time>2021-01-31 14:17:06</time>
      </trkpt>
      <trkpt lat="38.81835" lon="-0.12106">
        <ele>448.8</ele>
        <time>2021-01-31 14:17:07</time>
      </trkpt>
      <trkpt lat="38.81839" lon="-0.12103">
        <ele>448.8</ele>
        <time>2021-01-31 14:17:08</time>
      </trkpt>
      <trkpt lat="38.81842" lon="-0.121">
        <ele>448.8</ele>
        <time>2021-01-31 14:17:09</time>
      </trkpt>
      <trkpt lat="38.81845" lon="-0.12097">
        <ele>448.8</ele>
        <time>2021-01-31 14:17:10</time>
      </trkpt>
      <trkpt lat="38.81849" lon="-0.12094">
        <ele>449.8</ele>
        <time>2021-01-31 14:17:11</time>
      </trkpt>
      <trkpt lat="38.81852" lon="-0.1209">
        <ele>449.8</ele>
        <time>2021-01-31 14:17:12</time>
      </trkpt>
      <trkpt lat="38.81855" lon="-0.12087">
        <ele>449.8</ele>
        <time>2021-01-31 14:17:13</time>
      </trkpt>
      <trkpt lat="38.81858" lon="-0.12084">
        <ele>449.8</ele>
        <time>2021-01-31 14:17:14</time>
      </trkpt>
      <trkpt lat="38.81861" lon="-0.1208">
        <ele>450.2</ele>
        <time>2021-01-31 14:17:15</time>
      </trkpt>
      <trkpt lat="38.81863" lon="-0.12077">
        <ele>450.2</ele>
        <time>2021-01-31 14:17:16</time>
      </trkpt>
      <trkpt lat="38.81866" lon="-0.12074">
        <ele>450.2</ele>
        <time>2021-01-31 14:17:17</time>
      </trkpt>
      <trkpt lat="38.81869" lon="-0.12071">
        <ele>450.2</ele>
        <time>2021-01-31 14:17:18</time>
      </trkpt>
      <trkpt lat="38.81872" lon="-0.12068">
        <ele>451.2</ele>
        <time>2021-01-31 14:17:19</time>
      </trkpt>
      <trkpt lat="38.81875" lon="-0.12065">
        <ele>452.4</ele>
        <time>2021-01-31 14:17:20</time>
      </trkpt>
      <trkpt lat="38.81878" lon="-0.12062">
        <ele>452.4</ele>
        <time>2021-01-31 14:17:21</time>
      </trkpt>
      <trkpt lat="38.81881" lon="-0.12059">
        <ele>452.4</ele>
        <time>2021-01-31 14:17:22</time>
      </trkpt>
      <trkpt lat="38.81884" lon="-0.12055">
        <ele>453.4</ele>
        <time>2021-01-31 14:17:23</time>
      </trkpt>
      <trkpt lat="38.81887" lon="-0.12052">
        <ele>453.6</ele>
        <time>2021-01-31 14:17:24</time>
      </trkpt>
      <trkpt lat="38.8189" lon="-0.12049">
        <ele>453.6</ele>
        <time>2021-01-31 14:17:25</time>
      </trkpt>
      <trkpt lat="38.81892" lon="-0.12045">
        <ele>453.6</ele>
        <time>2021-01-31 14:17:26</time>
      </trkpt>
      <trkpt lat="38.81894" lon="-0.12041">
        <ele>453.6</ele>
        <time>2021-01-31 14:17:27</time>
      </trkpt>
      <trkpt lat="38.81895" lon="-0.12037">
        <ele>456.8</ele>
        <time>2021-01-31 14:17:28</time>
      </trkpt>
      <trkpt lat="38.81896" lon="-0.12033">
        <ele>456.8</ele>
        <time>2021-01-31 14:17:29</time>
      </trkpt>
      <trkpt lat="38.81896" lon="-0.12029">
        <ele>456.8</ele>
        <time>2021-01-31 14:17:30</time>
      </trkpt>
      <trkpt lat="38.81895" lon="-0.12025">
        <ele>456.8</ele>
        <time>2021-01-31 14:17:31</time>
      </trkpt>
      <trkpt lat="38.81894" lon="-0.12021">
        <ele>456.2</ele>
        <time>2021-01-31 14:17:32</time>
      </trkpt>
      <trkpt lat="38.81892" lon="-0.12018">
        <ele>456.2</ele>
        <time>2021-01-31 14:17:33</time>
      </trkpt>
      <trkpt lat="38.8189" lon="-0.12016">
        <ele>456.2</ele>
        <time>2021-01-31 14:17:34</time>
      </trkpt>
      <trkpt lat="38.81888" lon="-0.12013">
        <ele>456.2</ele>
        <time>2021-01-31 14:17:35</time>
      </trkpt>
      <trkpt lat="38.81885" lon="-0.12011">
        <ele>456.8</ele>
        <time>2021-01-31 14:17:36</time>
      </trkpt>
      <trkpt lat="38.81883" lon="-0.12008">
        <ele>456.8</ele>
        <time>2021-01-31 14:17:37</time>
      </trkpt>
      <trkpt lat="38.81881" lon="-0.12006">
        <ele>456.8</ele>
        <time>2021-01-31 14:17:38</time>
      </trkpt>
      <trkpt lat="38.81879" lon="-0.12003">
        <ele>457.6</ele>
        <time>2021-01-31 14:17:39</time>
      </trkpt>
      <trkpt lat="38.81876" lon="-0.12001">
        <ele>457</ele>
        <time>2021-01-31 14:17:40</time>
      </trkpt>
      <trkpt lat="38.81874" lon="-0.11999">
        <ele>457</ele>
        <time>2021-01-31 14:17:41</time>
      </trkpt>
      <trkpt lat="38.81872" lon="-0.11996">
        <ele>457</ele>
        <time>2021-01-31 14:17:42</time>
      </trkpt>
      <trkpt lat="38.8187" lon="-0.11993">
        <ele>457.8</ele>
        <time>2021-01-31 14:17:43</time>
      </trkpt>
      <trkpt lat="38.81868" lon="-0.1199">
        <ele>457.8</ele>
        <time>2021-01-31 14:17:44</time>
      </trkpt>
      <trkpt lat="38.81866" lon="-0.11987">
        <ele>457.8</ele>
        <time>2021-01-31 14:17:45</time>
      </trkpt>
      <trkpt lat="38.81864" lon="-0.11984">
        <ele>457.8</ele>
        <time>2021-01-31 14:17:46</time>
      </trkpt>
      <trkpt lat="38.81863" lon="-0.11981">
        <ele>457.8</ele>
        <time>2021-01-31 14:17:47</time>
      </trkpt>
      <trkpt lat="38.81861" lon="-0.11978">
        <ele>458</ele>
        <time>2021-01-31 14:17:48</time>
      </trkpt>
      <trkpt lat="38.81859" lon="-0.11975">
        <ele>458</ele>
        <time>2021-01-31 14:17:49</time>
      </trkpt>
      <trkpt lat="38.81858" lon="-0.11972">
        <ele>458</ele>
        <time>2021-01-31 14:17:50</time>
      </trkpt>
      <trkpt lat="38.81857" lon="-0.11968">
        <ele>458.4</ele>
        <time>2021-01-31 14:17:51</time>
      </trkpt>
      <trkpt lat="38.81856" lon="-0.11965">
        <ele>458.6</ele>
        <time>2021-01-31 14:17:52</time>
      </trkpt>
      <trkpt lat="38.81855" lon="-0.11961">
        <ele>458.6</ele>
        <time>2021-01-31 14:17:53</time>
      </trkpt>
      <trkpt lat="38.81855" lon="-0.11957">
        <ele>458.6</ele>
        <time>2021-01-31 14:17:54</time>
      </trkpt>
      <trkpt lat="38.81854" lon="-0.11954">
        <ele>458.4</ele>
        <time>2021-01-31 14:17:55</time>
      </trkpt>
      <trkpt lat="38.81853" lon="-0.1195">
        <ele>458</ele>
        <time>2021-01-31 14:17:56</time>
      </trkpt>
      <trkpt lat="38.81852" lon="-0.11946">
        <ele>458</ele>
        <time>2021-01-31 14:17:57</time>
      </trkpt>
      <trkpt lat="38.81852" lon="-0.11943">
        <ele>458</ele>
        <time>2021-01-31 14:17:58</time>
      </trkpt>
      <trkpt lat="38.81852" lon="-0.11939">
        <ele>459</ele>
        <time>2021-01-31 14:17:59</time>
      </trkpt>
      <trkpt lat="38.81851" lon="-0.11935">
        <ele>458.8</ele>
        <time>2021-01-31 14:18:00</time>
      </trkpt>
      <trkpt lat="38.81851" lon="-0.11932">
        <ele>458.8</ele>
        <time>2021-01-31 14:18:01</time>
      </trkpt>
      <trkpt lat="38.8185" lon="-0.11928">
        <ele>458.8</ele>
        <time>2021-01-31 14:18:02</time>
      </trkpt>
      <trkpt lat="38.8185" lon="-0.11925">
        <ele>459.6</ele>
        <time>2021-01-31 14:18:03</time>
      </trkpt>
      <trkpt lat="38.8185" lon="-0.11921">
        <ele>459.2</ele>
        <time>2021-01-31 14:18:04</time>
      </trkpt>
      <trkpt lat="38.81849" lon="-0.11917">
        <ele>459.2</ele>
        <time>2021-01-31 14:18:05</time>
      </trkpt>
      <trkpt lat="38.81849" lon="-0.11914">
        <ele>459.2</ele>
        <time>2021-01-31 14:18:06</time>
      </trkpt>
      <trkpt lat="38.81849" lon="-0.1191">
        <ele>460.2</ele>
        <time>2021-01-31 14:18:07</time>
      </trkpt>
      <trkpt lat="38.81848" lon="-0.11906">
        <ele>459.8</ele>
        <time>2021-01-31 14:18:08</time>
      </trkpt>
      <trkpt lat="38.81848" lon="-0.11902">
        <ele>459.8</ele>
        <time>2021-01-31 14:18:09</time>
      </trkpt>
      <trkpt lat="38.81847" lon="-0.11898">
        <ele>459.8</ele>
        <time>2021-01-31 14:18:10</time>
      </trkpt>
      <trkpt lat="38.81846" lon="-0.11895">
        <ele>460.8</ele>
        <time>2021-01-31 14:18:11</time>
      </trkpt>
      <trkpt lat="38.81846" lon="-0.11891">
        <ele>461.4</ele>
        <time>2021-01-31 14:18:12</time>
      </trkpt>
      <trkpt lat="38.81845" lon="-0.11887">
        <ele>461.4</ele>
        <time>2021-01-31 14:18:13</time>
      </trkpt>
      <trkpt lat="38.81844" lon="-0.11884">
        <ele>461.4</ele>
        <time>2021-01-31 14:18:14</time>
      </trkpt>
      <trkpt lat="38.81844" lon="-0.1188">
        <ele>461.4</ele>
        <time>2021-01-31 14:18:15</time>
      </trkpt>
      <trkpt lat="38.81843" lon="-0.11876">
        <ele>462</ele>
        <time>2021-01-31 14:18:16</time>
      </trkpt>
      <trkpt lat="38.81842" lon="-0.11873">
        <ele>462</ele>
        <time>2021-01-31 14:18:17</time>
      </trkpt>
      <trkpt lat="38.8184" lon="-0.11869">
        <ele>462</ele>
        <time>2021-01-31 14:18:18</time>
      </trkpt>
      <trkpt lat="38.81839" lon="-0.11866">
        <ele>463</ele>
        <time>2021-01-31 14:18:19</time>
      </trkpt>
      <trkpt lat="38.81838" lon="-0.11862">
        <ele>463.8</ele>
        <time>2021-01-31 14:18:20</time>
      </trkpt>
      <trkpt lat="38.81836" lon="-0.1186">
        <ele>463.8</ele>
        <time>2021-01-31 14:18:21</time>
      </trkpt>
      <trkpt lat="38.81835" lon="-0.11856">
        <ele>463.8</ele>
        <time>2021-01-31 14:18:22</time>
      </trkpt>
      <trkpt lat="38.81834" lon="-0.11853">
        <ele>464.8</ele>
        <time>2021-01-31 14:18:23</time>
      </trkpt>
      <trkpt lat="38.81833" lon="-0.1185">
        <ele>464.8</ele>
        <time>2021-01-31 14:18:24</time>
      </trkpt>
      <trkpt lat="38.81831" lon="-0.11847">
        <ele>464.8</ele>
        <time>2021-01-31 14:18:25</time>
      </trkpt>
      <trkpt lat="38.8183" lon="-0.11844">
        <ele>464.8</ele>
        <time>2021-01-31 14:18:26</time>
      </trkpt>
      <trkpt lat="38.81828" lon="-0.11842">
        <ele>465.6</ele>
        <time>2021-01-31 14:18:27</time>
      </trkpt>
      <trkpt lat="38.81827" lon="-0.11839">
        <ele>465.8</ele>
        <time>2021-01-31 14:18:28</time>
      </trkpt>
      <trkpt lat="38.81825" lon="-0.11836">
        <ele>465.8</ele>
        <time>2021-01-31 14:18:29</time>
      </trkpt>
      <trkpt lat="38.81823" lon="-0.11833">
        <ele>465.8</ele>
        <time>2021-01-31 14:18:30</time>
      </trkpt>
      <trkpt lat="38.81821" lon="-0.11831">
        <ele>466.6</ele>
        <time>2021-01-31 14:18:31</time>
      </trkpt>
      <trkpt lat="38.8182" lon="-0.11828">
        <ele>466.6</ele>
        <time>2021-01-31 14:18:32</time>
      </trkpt>
      <trkpt lat="38.81818" lon="-0.11826">
        <ele>466.6</ele>
        <time>2021-01-31 14:18:33</time>
      </trkpt>
      <trkpt lat="38.81816" lon="-0.11823">
        <ele>466.6</ele>
        <time>2021-01-31 14:18:34</time>
      </trkpt>
      <trkpt lat="38.81814" lon="-0.1182">
        <ele>467.2</ele>
        <time>2021-01-31 14:18:35</time>
      </trkpt>
      <trkpt lat="38.81813" lon="-0.11818">
        <ele>467.4</ele>
        <time>2021-01-31 14:18:36</time>
      </trkpt>
      <trkpt lat="38.81811" lon="-0.11815">
        <ele>467.4</ele>
        <time>2021-01-31 14:18:37</time>
      </trkpt>
      <trkpt lat="38.81809" lon="-0.11812">
        <ele>467.4</ele>
        <time>2021-01-31 14:18:38</time>
      </trkpt>
      <trkpt lat="38.81807" lon="-0.1181">
        <ele>467.4</ele>
        <time>2021-01-31 14:18:39</time>
      </trkpt>
      <trkpt lat="38.81805" lon="-0.11807">
        <ele>468</ele>
        <time>2021-01-31 14:18:40</time>
      </trkpt>
      <trkpt lat="38.81803" lon="-0.11804">
        <ele>468</ele>
        <time>2021-01-31 14:18:41</time>
      </trkpt>
      <trkpt lat="38.81801" lon="-0.11801">
        <ele>468</ele>
        <time>2021-01-31 14:18:42</time>
      </trkpt>
      <trkpt lat="38.818" lon="-0.11798">
        <ele>468.8</ele>
        <time>2021-01-31 14:18:43</time>
      </trkpt>
      <trkpt lat="38.81798" lon="-0.11795">
        <ele>469</ele>
        <time>2021-01-31 14:18:44</time>
      </trkpt>
      <trkpt lat="38.81796" lon="-0.11792">
        <ele>469</ele>
        <time>2021-01-31 14:18:45</time>
      </trkpt>
      <trkpt lat="38.81794" lon="-0.11789">
        <ele>469</ele>
        <time>2021-01-31 14:18:46</time>
      </trkpt>
      <trkpt lat="38.81792" lon="-0.11786">
        <ele>469</ele>
        <time>2021-01-31 14:18:47</time>
      </trkpt>
      <trkpt lat="38.81791" lon="-0.11783">
        <ele>468.8</ele>
        <time>2021-01-31 14:18:48</time>
      </trkpt>
      <trkpt lat="38.81789" lon="-0.11781">
        <ele>468.8</ele>
        <time>2021-01-31 14:18:49</time>
      </trkpt>
      <trkpt lat="38.81787" lon="-0.11778">
        <ele>468.8</ele>
        <time>2021-01-31 14:18:50</time>
      </trkpt>
      <trkpt lat="38.81785" lon="-0.11775">
        <ele>469.8</ele>
        <time>2021-01-31 14:18:51</time>
      </trkpt>
      <trkpt lat="38.81783" lon="-0.11772">
        <ele>469.8</ele>
        <time>2021-01-31 14:18:52</time>
      </trkpt>
      <trkpt lat="38.81782" lon="-0.11769">
        <ele>469.8</ele>
        <time>2021-01-31 14:18:53</time>
      </trkpt>
      <trkpt lat="38.8178" lon="-0.11767">
        <ele>469.8</ele>
        <time>2021-01-31 14:18:54</time>
      </trkpt>
      <trkpt lat="38.81778" lon="-0.11764">
        <ele>470.4</ele>
        <time>2021-01-31 14:18:55</time>
      </trkpt>
      <trkpt lat="38.81777" lon="-0.11762">
        <ele>470.6</ele>
        <time>2021-01-31 14:18:56</time>
      </trkpt>
      <trkpt lat="38.81775" lon="-0.11759">
        <ele>470.6</ele>
        <time>2021-01-31 14:18:57</time>
      </trkpt>
      <trkpt lat="38.81773" lon="-0.11756">
        <ele>470.6</ele>
        <time>2021-01-31 14:18:58</time>
      </trkpt>
      <trkpt lat="38.81771" lon="-0.11753">
        <ele>471.4</ele>
        <time>2021-01-31 14:18:59</time>
      </trkpt>
      <trkpt lat="38.81769" lon="-0.1175">
        <ele>471.6</ele>
        <time>2021-01-31 14:19:00</time>
      </trkpt>
      <trkpt lat="38.81767" lon="-0.11747">
        <ele>471.6</ele>
        <time>2021-01-31 14:19:01</time>
      </trkpt>
      <trkpt lat="38.81765" lon="-0.11744">
        <ele>471.6</ele>
        <time>2021-01-31 14:19:02</time>
      </trkpt>
      <trkpt lat="38.81763" lon="-0.11741">
        <ele>471.8</ele>
        <time>2021-01-31 14:19:03</time>
      </trkpt>
      <trkpt lat="38.81761" lon="-0.11738">
        <ele>472.2</ele>
        <time>2021-01-31 14:19:04</time>
      </trkpt>
      <trkpt lat="38.81759" lon="-0.11735">
        <ele>472.2</ele>
        <time>2021-01-31 14:19:05</time>
      </trkpt>
      <trkpt lat="38.81756" lon="-0.11733">
        <ele>472.2</ele>
        <time>2021-01-31 14:19:06</time>
      </trkpt>
      <trkpt lat="38.81754" lon="-0.1173">
        <ele>472.8</ele>
        <time>2021-01-31 14:19:07</time>
      </trkpt>
      <trkpt lat="38.81751" lon="-0.11727">
        <ele>473</ele>
        <time>2021-01-31 14:19:08</time>
      </trkpt>
      <trkpt lat="38.81749" lon="-0.11725">
        <ele>473</ele>
        <time>2021-01-31 14:19:09</time>
      </trkpt>
      <trkpt lat="38.81746" lon="-0.11723">
        <ele>473</ele>
        <time>2021-01-31 14:19:10</time>
      </trkpt>
      <trkpt lat="38.81743" lon="-0.11722">
        <ele>473.8</ele>
        <time>2021-01-31 14:19:11</time>
      </trkpt>
      <trkpt lat="38.81741" lon="-0.1172">
        <ele>474.6</ele>
        <time>2021-01-31 14:19:12</time>
      </trkpt>
      <trkpt lat="38.81738" lon="-0.11719">
        <ele>474.6</ele>
        <time>2021-01-31 14:19:13</time>
      </trkpt>
      <trkpt lat="38.81735" lon="-0.11718">
        <ele>474.6</ele>
        <time>2021-01-31 14:19:14</time>
      </trkpt>
      <trkpt lat="38.81732" lon="-0.11717">
        <ele>474.2</ele>
        <time>2021-01-31 14:19:15</time>
      </trkpt>
      <trkpt lat="38.8173" lon="-0.11716">
        <ele>474.8</ele>
        <time>2021-01-31 14:19:16</time>
      </trkpt>
      <trkpt lat="38.81727" lon="-0.11715">
        <ele>474.8</ele>
        <time>2021-01-31 14:19:17</time>
      </trkpt>
      <trkpt lat="38.81724" lon="-0.11715">
        <ele>474.8</ele>
        <time>2021-01-31 14:19:18</time>
      </trkpt>
      <trkpt lat="38.81721" lon="-0.11715">
        <ele>474.8</ele>
        <time>2021-01-31 14:19:19</time>
      </trkpt>
      <trkpt lat="38.81718" lon="-0.11715">
        <ele>475.4</ele>
        <time>2021-01-31 14:19:20</time>
      </trkpt>
      <trkpt lat="38.81715" lon="-0.11715">
        <ele>475.4</ele>
        <time>2021-01-31 14:19:21</time>
      </trkpt>
      <trkpt lat="38.81712" lon="-0.11715">
        <ele>475.4</ele>
        <time>2021-01-31 14:19:22</time>
      </trkpt>
      <trkpt lat="38.8171" lon="-0.11716">
        <ele>476.4</ele>
        <time>2021-01-31 14:19:23</time>
      </trkpt>
      <trkpt lat="38.81707" lon="-0.11717">
        <ele>476.4</ele>
        <time>2021-01-31 14:19:24</time>
      </trkpt>
      <trkpt lat="38.81705" lon="-0.11718">
        <ele>476.4</ele>
        <time>2021-01-31 14:19:25</time>
      </trkpt>
      <trkpt lat="38.81703" lon="-0.1172">
        <ele>476.4</ele>
        <time>2021-01-31 14:19:26</time>
      </trkpt>
      <trkpt lat="38.817" lon="-0.11721">
        <ele>476.4</ele>
        <time>2021-01-31 14:19:27</time>
      </trkpt>
      <trkpt lat="38.81698" lon="-0.11723">
        <ele>477.2</ele>
        <time>2021-01-31 14:19:28</time>
      </trkpt>
      <trkpt lat="38.81696" lon="-0.11725">
        <ele>477.2</ele>
        <time>2021-01-31 14:19:29</time>
      </trkpt>
      <trkpt lat="38.81694" lon="-0.11727">
        <ele>477.2</ele>
        <time>2021-01-31 14:19:30</time>
      </trkpt>
      <trkpt lat="38.81692" lon="-0.11729">
        <ele>478.2</ele>
        <time>2021-01-31 14:19:31</time>
      </trkpt>
      <trkpt lat="38.8169" lon="-0.11731">
        <ele>478.2</ele>
        <time>2021-01-31 14:19:32</time>
      </trkpt>
      <trkpt lat="38.81688" lon="-0.11733">
        <ele>478.2</ele>
        <time>2021-01-31 14:19:33</time>
      </trkpt>
      <trkpt lat="38.81686" lon="-0.11736">
        <ele>478.2</ele>
        <time>2021-01-31 14:19:34</time>
      </trkpt>
      <trkpt lat="38.81685" lon="-0.11738">
        <ele>478.2</ele>
        <time>2021-01-31 14:19:35</time>
      </trkpt>
      <trkpt lat="38.81683" lon="-0.11741">
        <ele>479.6</ele>
        <time>2021-01-31 14:19:36</time>
      </trkpt>
      <trkpt lat="38.81681" lon="-0.11743">
        <ele>479.6</ele>
        <time>2021-01-31 14:19:37</time>
      </trkpt>
      <trkpt lat="38.8168" lon="-0.11746">
        <ele>479.6</ele>
        <time>2021-01-31 14:19:38</time>
      </trkpt>
      <trkpt lat="38.81679" lon="-0.11749">
        <ele>479.6</ele>
        <time>2021-01-31 14:19:39</time>
      </trkpt>
      <trkpt lat="38.81677" lon="-0.11751">
        <ele>480</ele>
        <time>2021-01-31 14:19:40</time>
      </trkpt>
      <trkpt lat="38.81676" lon="-0.11753">
        <ele>480</ele>
        <time>2021-01-31 14:19:41</time>
      </trkpt>
      <trkpt lat="38.81674" lon="-0.11756">
        <ele>480</ele>
        <time>2021-01-31 14:19:42</time>
      </trkpt>
      <trkpt lat="38.81673" lon="-0.11758">
        <ele>480.6</ele>
        <time>2021-01-31 14:19:43</time>
      </trkpt>
      <trkpt lat="38.81672" lon="-0.11761">
        <ele>480.4</ele>
        <time>2021-01-31 14:19:44</time>
      </trkpt>
      <trkpt lat="38.8167" lon="-0.11764">
        <ele>480.4</ele>
        <time>2021-01-31 14:19:45</time>
      </trkpt>
      <trkpt lat="38.81669" lon="-0.11766">
        <ele>480.4</ele>
        <time>2021-01-31 14:19:46</time>
      </trkpt>
      <trkpt lat="38.81667" lon="-0.11769">
        <ele>481.4</ele>
        <time>2021-01-31 14:19:47</time>
      </trkpt>
      <trkpt lat="38.81665" lon="-0.11772">
        <ele>480.8</ele>
        <time>2021-01-31 14:19:48</time>
      </trkpt>
      <trkpt lat="38.81664" lon="-0.11774">
        <ele>480.8</ele>
        <time>2021-01-31 14:19:49</time>
      </trkpt>
      <trkpt lat="38.81662" lon="-0.11777">
        <ele>480.8</ele>
        <time>2021-01-31 14:19:50</time>
      </trkpt>
      <trkpt lat="38.81661" lon="-0.1178">
        <ele>481.8</ele>
        <time>2021-01-31 14:19:51</time>
      </trkpt>
      <trkpt lat="38.81659" lon="-0.11783">
        <ele>483.6</ele>
        <time>2021-01-31 14:19:52</time>
      </trkpt>
      <trkpt lat="38.81658" lon="-0.11786">
        <ele>483.6</ele>
        <time>2021-01-31 14:19:53</time>
      </trkpt>
      <trkpt lat="38.81656" lon="-0.11788">
        <ele>483.6</ele>
        <time>2021-01-31 14:19:54</time>
      </trkpt>
      <trkpt lat="38.81655" lon="-0.11791">
        <ele>483.6</ele>
        <time>2021-01-31 14:19:55</time>
      </trkpt>
      <trkpt lat="38.81653" lon="-0.11794">
        <ele>483.6</ele>
        <time>2021-01-31 14:19:56</time>
      </trkpt>
      <trkpt lat="38.81652" lon="-0.11796">
        <ele>483.6</ele>
        <time>2021-01-31 14:19:57</time>
      </trkpt>
      <trkpt lat="38.8165" lon="-0.11799">
        <ele>483.6</ele>
        <time>2021-01-31 14:19:58</time>
      </trkpt>
      <trkpt lat="38.81649" lon="-0.11802">
        <ele>483.2</ele>
        <time>2021-01-31 14:19:59</time>
      </trkpt>
      <trkpt lat="38.81647" lon="-0.11804">
        <ele>483.4</ele>
        <time>2021-01-31 14:20:00</time>
      </trkpt>
      <trkpt lat="38.81646" lon="-0.11807">
        <ele>483.4</ele>
        <time>2021-01-31 14:20:01</time>
      </trkpt>
      <trkpt lat="38.81644" lon="-0.1181">
        <ele>483.4</ele>
        <time>2021-01-31 14:20:02</time>
      </trkpt>
      <trkpt lat="38.81643" lon="-0.11812">
        <ele>483.8</ele>
        <time>2021-01-31 14:20:03</time>
      </trkpt>
      <trkpt lat="38.81642" lon="-0.11815">
        <ele>483.6</ele>
        <time>2021-01-31 14:20:04</time>
      </trkpt>
      <trkpt lat="38.8164" lon="-0.11818">
        <ele>483.6</ele>
        <time>2021-01-31 14:20:05</time>
      </trkpt>
      <trkpt lat="38.81639" lon="-0.1182">
        <ele>483.6</ele>
        <time>2021-01-31 14:20:06</time>
      </trkpt>
      <trkpt lat="38.81638" lon="-0.11823">
        <ele>484.4</ele>
        <time>2021-01-31 14:20:07</time>
      </trkpt>
      <trkpt lat="38.81637" lon="-0.11826">
        <ele>484.8</ele>
        <time>2021-01-31 14:20:08</time>
      </trkpt>
      <trkpt lat="38.81636" lon="-0.11829">
        <ele>484.8</ele>
        <time>2021-01-31 14:20:09</time>
      </trkpt>
      <trkpt lat="38.81635" lon="-0.11832">
        <ele>484.8</ele>
        <time>2021-01-31 14:20:10</time>
      </trkpt>
      <trkpt lat="38.81634" lon="-0.11835">
        <ele>484.8</ele>
        <time>2021-01-31 14:20:11</time>
      </trkpt>
      <trkpt lat="38.81633" lon="-0.11839">
        <ele>485.8</ele>
        <time>2021-01-31 14:20:12</time>
      </trkpt>
      <trkpt lat="38.81633" lon="-0.11842">
        <ele>485.8</ele>
        <time>2021-01-31 14:20:13</time>
      </trkpt>
      <trkpt lat="38.81632" lon="-0.11845">
        <ele>485.8</ele>
        <time>2021-01-31 14:20:14</time>
      </trkpt>
      <trkpt lat="38.81632" lon="-0.11848">
        <ele>485.8</ele>
        <time>2021-01-31 14:20:15</time>
      </trkpt>
      <trkpt lat="38.81632" lon="-0.11852">
        <ele>486.6</ele>
        <time>2021-01-31 14:20:16</time>
      </trkpt>
      <trkpt lat="38.81632" lon="-0.11855">
        <ele>486.6</ele>
        <time>2021-01-31 14:20:17</time>
      </trkpt>
      <trkpt lat="38.81632" lon="-0.11859">
        <ele>486.6</ele>
        <time>2021-01-31 14:20:18</time>
      </trkpt>
      <trkpt lat="38.81632" lon="-0.11862">
        <ele>486.6</ele>
        <time>2021-01-31 14:20:19</time>
      </trkpt>
      <trkpt lat="38.81632" lon="-0.11866">
        <ele>487.2</ele>
        <time>2021-01-31 14:20:20</time>
      </trkpt>
      <trkpt lat="38.81632" lon="-0.1187">
        <ele>487.2</ele>
        <time>2021-01-31 14:20:21</time>
      </trkpt>
      <trkpt lat="38.81632" lon="-0.11874">
        <ele>487.2</ele>
        <time>2021-01-31 14:20:22</time>
      </trkpt>
      <trkpt lat="38.81631" lon="-0.11878">
        <ele>487</ele>
        <time>2021-01-31 14:20:23</time>
      </trkpt>
      <trkpt lat="38.81631" lon="-0.11882">
        <ele>488</ele>
        <time>2021-01-31 14:20:24</time>
      </trkpt>
      <trkpt lat="38.81631" lon="-0.11887">
        <ele>488</ele>
        <time>2021-01-31 14:20:25</time>
      </trkpt>
      <trkpt lat="38.81631" lon="-0.11891">
        <ele>488</ele>
        <time>2021-01-31 14:20:26</time>
      </trkpt>
      <trkpt lat="38.8163" lon="-0.11896">
        <ele>488</ele>
        <time>2021-01-31 14:20:27</time>
      </trkpt>
      <trkpt lat="38.81629" lon="-0.119">
        <ele>487.8</ele>
        <time>2021-01-31 14:20:28</time>
      </trkpt>
      <trkpt lat="38.81629" lon="-0.11905">
        <ele>487.8</ele>
        <time>2021-01-31 14:20:29</time>
      </trkpt>
      <trkpt lat="38.81628" lon="-0.11909">
        <ele>487.8</ele>
        <time>2021-01-31 14:20:30</time>
      </trkpt>
      <trkpt lat="38.81627" lon="-0.11913">
        <ele>488.8</ele>
        <time>2021-01-31 14:20:31</time>
      </trkpt>
      <trkpt lat="38.81626" lon="-0.11917">
        <ele>489.8</ele>
        <time>2021-01-31 14:20:32</time>
      </trkpt>
      <trkpt lat="38.81626" lon="-0.11921">
        <ele>489.8</ele>
        <time>2021-01-31 14:20:33</time>
      </trkpt>
      <trkpt lat="38.81625" lon="-0.11925">
        <ele>489.8</ele>
        <time>2021-01-31 14:20:34</time>
      </trkpt>
      <trkpt lat="38.81624" lon="-0.1193">
        <ele>490.6</ele>
        <time>2021-01-31 14:20:35</time>
      </trkpt>
      <trkpt lat="38.81623" lon="-0.11934">
        <ele>489.4</ele>
        <time>2021-01-31 14:20:36</time>
      </trkpt>
      <trkpt lat="38.81623" lon="-0.11938">
        <ele>489.4</ele>
        <time>2021-01-31 14:20:37</time>
      </trkpt>
      <trkpt lat="38.81622" lon="-0.11943">
        <ele>489.4</ele>
        <time>2021-01-31 14:20:38</time>
      </trkpt>
      <trkpt lat="38.81621" lon="-0.11947">
        <ele>490.4</ele>
        <time>2021-01-31 14:20:39</time>
      </trkpt>
      <trkpt lat="38.81621" lon="-0.11952">
        <ele>491.2</ele>
        <time>2021-01-31 14:20:40</time>
      </trkpt>
      <trkpt lat="38.81621" lon="-0.11956">
        <ele>491.2</ele>
        <time>2021-01-31 14:20:41</time>
      </trkpt>
      <trkpt lat="38.8162" lon="-0.11961">
        <ele>491.2</ele>
        <time>2021-01-31 14:20:42</time>
      </trkpt>
      <trkpt lat="38.8162" lon="-0.11965">
        <ele>491</ele>
        <time>2021-01-31 14:20:43</time>
      </trkpt>
      <trkpt lat="38.8162" lon="-0.1197">
        <ele>490.4</ele>
        <time>2021-01-31 14:20:44</time>
      </trkpt>
      <trkpt lat="38.8162" lon="-0.11975">
        <ele>490.4</ele>
        <time>2021-01-31 14:20:45</time>
      </trkpt>
      <trkpt lat="38.8162" lon="-0.11979">
        <ele>490.4</ele>
        <time>2021-01-31 14:20:46</time>
      </trkpt>
      <trkpt lat="38.81621" lon="-0.11984">
        <ele>490.4</ele>
        <time>2021-01-31 14:20:47</time>
      </trkpt>
      <trkpt lat="38.81621" lon="-0.11988">
        <ele>491.2</ele>
        <time>2021-01-31 14:20:48</time>
      </trkpt>
      <trkpt lat="38.81622" lon="-0.11992">
        <ele>491.2</ele>
        <time>2021-01-31 14:20:49</time>
      </trkpt>
      <trkpt lat="38.81623" lon="-0.11997">
        <ele>491.2</ele>
        <time>2021-01-31 14:20:50</time>
      </trkpt>
      <trkpt lat="38.81623" lon="-0.12001">
        <ele>491.2</ele>
        <time>2021-01-31 14:20:51</time>
      </trkpt>
      <trkpt lat="38.81624" lon="-0.12005">
        <ele>490.4</ele>
        <time>2021-01-31 14:20:52</time>
      </trkpt>
      <trkpt lat="38.81625" lon="-0.1201">
        <ele>490.4</ele>
        <time>2021-01-31 14:20:53</time>
      </trkpt>
      <trkpt lat="38.81626" lon="-0.12014">
        <ele>490.4</ele>
        <time>2021-01-31 14:20:54</time>
      </trkpt>
      <trkpt lat="38.81627" lon="-0.12018">
        <ele>491.4</ele>
        <time>2021-01-31 14:20:55</time>
      </trkpt>
      <trkpt lat="38.81628" lon="-0.12022">
        <ele>493</ele>
        <time>2021-01-31 14:20:56</time>
      </trkpt>
      <trkpt lat="38.81629" lon="-0.12026">
        <ele>493</ele>
        <time>2021-01-31 14:20:57</time>
      </trkpt>
      <trkpt lat="38.8163" lon="-0.12031">
        <ele>493</ele>
        <time>2021-01-31 14:20:58</time>
      </trkpt>
      <trkpt lat="38.8163" lon="-0.12031">
        <ele>492</ele>
        <time>2021-01-31 14:20:59</time>
      </trkpt>
      <trkpt lat="38.81631" lon="-0.12039">
        <ele>491</ele>
        <time>2021-01-31 14:21:00</time>
      </trkpt>
      <trkpt lat="38.81632" lon="-0.12044">
        <ele>491</ele>
        <time>2021-01-31 14:21:01</time>
      </trkpt>
      <trkpt lat="38.81633" lon="-0.12048">
        <ele>491</ele>
        <time>2021-01-31 14:21:02</time>
      </trkpt>
      <trkpt lat="38.81634" lon="-0.12052">
        <ele>492</ele>
        <time>2021-01-31 14:21:03</time>
      </trkpt>
      <trkpt lat="38.81635" lon="-0.12056">
        <ele>493.8</ele>
        <time>2021-01-31 14:21:04</time>
      </trkpt>
      <trkpt lat="38.81636" lon="-0.1206">
        <ele>493.8</ele>
        <time>2021-01-31 14:21:05</time>
      </trkpt>
      <trkpt lat="38.81637" lon="-0.12064">
        <ele>493.8</ele>
        <time>2021-01-31 14:21:06</time>
      </trkpt>
      <trkpt lat="38.81638" lon="-0.12068">
        <ele>493.8</ele>
        <time>2021-01-31 14:21:07</time>
      </trkpt>
      <trkpt lat="38.81638" lon="-0.12072">
        <ele>493.2</ele>
        <time>2021-01-31 14:21:08</time>
      </trkpt>
      <trkpt lat="38.81639" lon="-0.12076">
        <ele>493.2</ele>
        <time>2021-01-31 14:21:09</time>
      </trkpt>
      <trkpt lat="38.8164" lon="-0.1208">
        <ele>493.2</ele>
        <time>2021-01-31 14:21:10</time>
      </trkpt>
      <trkpt lat="38.81641" lon="-0.12084">
        <ele>493.2</ele>
        <time>2021-01-31 14:21:11</time>
      </trkpt>
      <trkpt lat="38.81642" lon="-0.12088">
        <ele>493.2</ele>
        <time>2021-01-31 14:21:12</time>
      </trkpt>
      <trkpt lat="38.81642" lon="-0.12092">
        <ele>493.2</ele>
        <time>2021-01-31 14:21:13</time>
      </trkpt>
      <trkpt lat="38.81643" lon="-0.12096">
        <ele>493.2</ele>
        <time>2021-01-31 14:21:14</time>
      </trkpt>
      <trkpt lat="38.81643" lon="-0.121">
        <ele>494.2</ele>
        <time>2021-01-31 14:21:15</time>
      </trkpt>
      <trkpt lat="38.81644" lon="-0.12104">
        <ele>494.2</ele>
        <time>2021-01-31 14:21:16</time>
      </trkpt>
      <trkpt lat="38.81644" lon="-0.12108">
        <ele>494.2</ele>
        <time>2021-01-31 14:21:17</time>
      </trkpt>
      <trkpt lat="38.81644" lon="-0.12112">
        <ele>494.2</ele>
        <time>2021-01-31 14:21:18</time>
      </trkpt>
      <trkpt lat="38.81644" lon="-0.12116">
        <ele>495.2</ele>
        <time>2021-01-31 14:21:19</time>
      </trkpt>
      <trkpt lat="38.81644" lon="-0.1212">
        <ele>494.6</ele>
        <time>2021-01-31 14:21:20</time>
      </trkpt>
      <trkpt lat="38.81643" lon="-0.12124">
        <ele>494.6</ele>
        <time>2021-01-31 14:21:21</time>
      </trkpt>
      <trkpt lat="38.81642" lon="-0.12127">
        <ele>494.6</ele>
        <time>2021-01-31 14:21:22</time>
      </trkpt>
      <trkpt lat="38.81641" lon="-0.12131">
        <ele>495.6</ele>
        <time>2021-01-31 14:21:23</time>
      </trkpt>
      <trkpt lat="38.8164" lon="-0.12135">
        <ele>495.6</ele>
        <time>2021-01-31 14:21:24</time>
      </trkpt>
      <trkpt lat="38.81639" lon="-0.12139">
        <ele>495.6</ele>
        <time>2021-01-31 14:21:25</time>
      </trkpt>
      <trkpt lat="38.81638" lon="-0.12142">
        <ele>495.6</ele>
        <time>2021-01-31 14:21:26</time>
      </trkpt>
      <trkpt lat="38.81636" lon="-0.12146">
        <ele>495.6</ele>
        <time>2021-01-31 14:21:27</time>
      </trkpt>
      <trkpt lat="38.81635" lon="-0.1215">
        <ele>496</ele>
        <time>2021-01-31 14:21:28</time>
      </trkpt>
      <trkpt lat="38.81633" lon="-0.12153">
        <ele>496</ele>
        <time>2021-01-31 14:21:29</time>
      </trkpt>
      <trkpt lat="38.81632" lon="-0.12157">
        <ele>496</ele>
        <time>2021-01-31 14:21:30</time>
      </trkpt>
      <trkpt lat="38.8163" lon="-0.1216">
        <ele>496</ele>
        <time>2021-01-31 14:21:31</time>
      </trkpt>
      <trkpt lat="38.81629" lon="-0.12163">
        <ele>493.4</ele>
        <time>2021-01-31 14:21:32</time>
      </trkpt>
      <trkpt lat="38.81627" lon="-0.12167">
        <ele>493.4</ele>
        <time>2021-01-31 14:21:33</time>
      </trkpt>
      <trkpt lat="38.81626" lon="-0.1217">
        <ele>493.4</ele>
        <time>2021-01-31 14:21:34</time>
      </trkpt>
      <trkpt lat="38.81624" lon="-0.12173">
        <ele>494.4</ele>
        <time>2021-01-31 14:21:35</time>
      </trkpt>
      <trkpt lat="38.81623" lon="-0.12176">
        <ele>494</ele>
        <time>2021-01-31 14:21:36</time>
      </trkpt>
      <trkpt lat="38.81621" lon="-0.12179">
        <ele>494</ele>
        <time>2021-01-31 14:21:37</time>
      </trkpt>
      <trkpt lat="38.81619" lon="-0.12182">
        <ele>494</ele>
        <time>2021-01-31 14:21:38</time>
      </trkpt>
      <trkpt lat="38.81618" lon="-0.12184">
        <ele>495</ele>
        <time>2021-01-31 14:21:39</time>
      </trkpt>
      <trkpt lat="38.81616" lon="-0.12187">
        <ele>495</ele>
        <time>2021-01-31 14:21:40</time>
      </trkpt>
      <trkpt lat="38.81614" lon="-0.1219">
        <ele>495</ele>
        <time>2021-01-31 14:21:41</time>
      </trkpt>
      <trkpt lat="38.81612" lon="-0.12193">
        <ele>495</ele>
        <time>2021-01-31 14:21:42</time>
      </trkpt>
      <trkpt lat="38.81611" lon="-0.12195">
        <ele>495</ele>
        <time>2021-01-31 14:21:43</time>
      </trkpt>
      <trkpt lat="38.81608" lon="-0.12198">
        <ele>495.2</ele>
        <time>2021-01-31 14:21:44</time>
      </trkpt>
      <trkpt lat="38.81606" lon="-0.12201">
        <ele>495.2</ele>
        <time>2021-01-31 14:21:45</time>
      </trkpt>
      <trkpt lat="38.81604" lon="-0.12203">
        <ele>495.2</ele>
        <time>2021-01-31 14:21:46</time>
      </trkpt>
      <trkpt lat="38.81602" lon="-0.12206">
        <ele>496.2</ele>
        <time>2021-01-31 14:21:47</time>
      </trkpt>
      <trkpt lat="38.816" lon="-0.12209">
        <ele>497.2</ele>
        <time>2021-01-31 14:21:48</time>
      </trkpt>
      <trkpt lat="38.81598" lon="-0.12211">
        <ele>497.2</ele>
        <time>2021-01-31 14:21:49</time>
      </trkpt>
      <trkpt lat="38.81596" lon="-0.12213">
        <ele>497.2</ele>
        <time>2021-01-31 14:21:50</time>
      </trkpt>
      <trkpt lat="38.81594" lon="-0.12216">
        <ele>496.4</ele>
        <time>2021-01-31 14:21:51</time>
      </trkpt>
      <trkpt lat="38.81591" lon="-0.12218">
        <ele>496.4</ele>
        <time>2021-01-31 14:21:52</time>
      </trkpt>
      <trkpt lat="38.81589" lon="-0.1222">
        <ele>496.4</ele>
        <time>2021-01-31 14:21:53</time>
      </trkpt>
      <trkpt lat="38.81587" lon="-0.12222">
        <ele>496.4</ele>
        <time>2021-01-31 14:21:54</time>
      </trkpt>
      <trkpt lat="38.81584" lon="-0.12224">
        <ele>497.4</ele>
        <time>2021-01-31 14:21:55</time>
      </trkpt>
      <trkpt lat="38.81582" lon="-0.12226">
        <ele>498.2</ele>
        <time>2021-01-31 14:21:56</time>
      </trkpt>
      <trkpt lat="38.81579" lon="-0.12228">
        <ele>498.2</ele>
        <time>2021-01-31 14:21:57</time>
      </trkpt>
      <trkpt lat="38.81577" lon="-0.1223">
        <ele>498.2</ele>
        <time>2021-01-31 14:21:58</time>
      </trkpt>
      <trkpt lat="38.81575" lon="-0.12231">
        <ele>498.2</ele>
        <time>2021-01-31 14:21:59</time>
      </trkpt>
      <trkpt lat="38.81572" lon="-0.12232">
        <ele>497.6</ele>
        <time>2021-01-31 14:22:00</time>
      </trkpt>
      <trkpt lat="38.81569" lon="-0.12233">
        <ele>497.6</ele>
        <time>2021-01-31 14:22:01</time>
      </trkpt>
      <trkpt lat="38.81566" lon="-0.12234">
        <ele>497.6</ele>
        <time>2021-01-31 14:22:02</time>
      </trkpt>
      <trkpt lat="38.81564" lon="-0.12234">
        <ele>498.6</ele>
        <time>2021-01-31 14:22:03</time>
      </trkpt>
      <trkpt lat="38.81561" lon="-0.12235">
        <ele>500.6</ele>
        <time>2021-01-31 14:22:04</time>
      </trkpt>
      <trkpt lat="38.81558" lon="-0.12236">
        <ele>500.6</ele>
        <time>2021-01-31 14:22:05</time>
      </trkpt>
      <trkpt lat="38.81555" lon="-0.12237">
        <ele>500.6</ele>
        <time>2021-01-31 14:22:06</time>
      </trkpt>
      <trkpt lat="38.81553" lon="-0.12237">
        <ele>499.6</ele>
        <time>2021-01-31 14:22:07</time>
      </trkpt>
      <trkpt lat="38.8155" lon="-0.12238">
        <ele>499.8</ele>
        <time>2021-01-31 14:22:08</time>
      </trkpt>
      <trkpt lat="38.81548" lon="-0.12239">
        <ele>499.8</ele>
        <time>2021-01-31 14:22:09</time>
      </trkpt>
      <trkpt lat="38.81545" lon="-0.1224">
        <ele>499.8</ele>
        <time>2021-01-31 14:22:10</time>
      </trkpt>
      <trkpt lat="38.81543" lon="-0.12241">
        <ele>499.8</ele>
        <time>2021-01-31 14:22:11</time>
      </trkpt>
      <trkpt lat="38.8154" lon="-0.12242">
        <ele>500</ele>
        <time>2021-01-31 14:22:12</time>
      </trkpt>
      <trkpt lat="38.81537" lon="-0.12243">
        <ele>500</ele>
        <time>2021-01-31 14:22:13</time>
      </trkpt>
      <trkpt lat="38.81534" lon="-0.12244">
        <ele>500</ele>
        <time>2021-01-31 14:22:14</time>
      </trkpt>
      <trkpt lat="38.81532" lon="-0.12245">
        <ele>501</ele>
        <time>2021-01-31 14:22:15</time>
      </trkpt>
      <trkpt lat="38.81529" lon="-0.12246">
        <ele>502.2</ele>
        <time>2021-01-31 14:22:16</time>
      </trkpt>
      <trkpt lat="38.81526" lon="-0.12247">
        <ele>502.2</ele>
        <time>2021-01-31 14:22:17</time>
      </trkpt>
      <trkpt lat="38.81524" lon="-0.12248">
        <ele>502.2</ele>
        <time>2021-01-31 14:22:18</time>
      </trkpt>
      <trkpt lat="38.81521" lon="-0.1225">
        <ele>502.6</ele>
        <time>2021-01-31 14:22:19</time>
      </trkpt>
      <trkpt lat="38.81519" lon="-0.12251">
        <ele>502.6</ele>
        <time>2021-01-31 14:22:20</time>
      </trkpt>
      <trkpt lat="38.81516" lon="-0.12253">
        <ele>502.6</ele>
        <time>2021-01-31 14:22:21</time>
      </trkpt>
      <trkpt lat="38.81514" lon="-0.12254">
        <ele>502.6</ele>
        <time>2021-01-31 14:22:22</time>
      </trkpt>
      <trkpt lat="38.81511" lon="-0.12256">
        <ele>503.6</ele>
        <time>2021-01-31 14:22:23</time>
      </trkpt>
      <trkpt lat="38.81508" lon="-0.12258">
        <ele>504.6</ele>
        <time>2021-01-31 14:22:24</time>
      </trkpt>
      <trkpt lat="38.81506" lon="-0.1226">
        <ele>504.6</ele>
        <time>2021-01-31 14:22:25</time>
      </trkpt>
      <trkpt lat="38.81503" lon="-0.12262">
        <ele>504.6</ele>
        <time>2021-01-31 14:22:26</time>
      </trkpt>
      <trkpt lat="38.815" lon="-0.12264">
        <ele>504.8</ele>
        <time>2021-01-31 14:22:27</time>
      </trkpt>
      <trkpt lat="38.81498" lon="-0.12266">
        <ele>505</ele>
        <time>2021-01-31 14:22:28</time>
      </trkpt>
      <trkpt lat="38.81495" lon="-0.12268">
        <ele>505</ele>
        <time>2021-01-31 14:22:29</time>
      </trkpt>
      <trkpt lat="38.81493" lon="-0.1227">
        <ele>505</ele>
        <time>2021-01-31 14:22:30</time>
      </trkpt>
      <trkpt lat="38.8149" lon="-0.12272">
        <ele>505.8</ele>
        <time>2021-01-31 14:22:31</time>
      </trkpt>
      <trkpt lat="38.81487" lon="-0.12274">
        <ele>506.2</ele>
        <time>2021-01-31 14:22:32</time>
      </trkpt>
      <trkpt lat="38.81484" lon="-0.12277">
        <ele>506.2</ele>
        <time>2021-01-31 14:22:33</time>
      </trkpt>
      <trkpt lat="38.81481" lon="-0.12279">
        <ele>506.2</ele>
        <time>2021-01-31 14:22:34</time>
      </trkpt>
      <trkpt lat="38.81479" lon="-0.12282">
        <ele>507.2</ele>
        <time>2021-01-31 14:22:35</time>
      </trkpt>
      <trkpt lat="38.81476" lon="-0.12284">
        <ele>507.8</ele>
        <time>2021-01-31 14:22:36</time>
      </trkpt>
      <trkpt lat="38.81473" lon="-0.12287">
        <ele>507.8</ele>
        <time>2021-01-31 14:22:37</time>
      </trkpt>
      <trkpt lat="38.8147" lon="-0.12289">
        <ele>507.8</ele>
        <time>2021-01-31 14:22:38</time>
      </trkpt>
      <trkpt lat="38.81468" lon="-0.12291">
        <ele>508.6</ele>
        <time>2021-01-31 14:22:39</time>
      </trkpt>
      <trkpt lat="38.81465" lon="-0.12294">
        <ele>509.4</ele>
        <time>2021-01-31 14:22:40</time>
      </trkpt>
      <trkpt lat="38.81462" lon="-0.12296">
        <ele>509.4</ele>
        <time>2021-01-31 14:22:41</time>
      </trkpt>
      <trkpt lat="38.8146" lon="-0.12299">
        <ele>509.4</ele>
        <time>2021-01-31 14:22:42</time>
      </trkpt>
      <trkpt lat="38.81457" lon="-0.12302">
        <ele>510</ele>
        <time>2021-01-31 14:22:43</time>
      </trkpt>
      <trkpt lat="38.81455" lon="-0.12305">
        <ele>509.2</ele>
        <time>2021-01-31 14:22:44</time>
      </trkpt>
      <trkpt lat="38.81452" lon="-0.12308">
        <ele>509.2</ele>
        <time>2021-01-31 14:22:45</time>
      </trkpt>
      <trkpt lat="38.81451" lon="-0.12313">
        <ele>509.2</ele>
        <time>2021-01-31 14:22:46</time>
      </trkpt>
      <trkpt lat="38.8145" lon="-0.12319">
        <ele>508.6</ele>
        <time>2021-01-31 14:22:47</time>
      </trkpt>
      <trkpt lat="38.81451" lon="-0.12324">
        <ele>507.8</ele>
        <time>2021-01-31 14:22:48</time>
      </trkpt>
      <trkpt lat="38.81453" lon="-0.12329">
        <ele>507.8</ele>
        <time>2021-01-31 14:22:49</time>
      </trkpt>
      <trkpt lat="38.81456" lon="-0.12333">
        <ele>507.8</ele>
        <time>2021-01-31 14:22:50</time>
      </trkpt>
      <trkpt lat="38.8146" lon="-0.12336">
        <ele>507.8</ele>
        <time>2021-01-31 14:22:51</time>
      </trkpt>
      <trkpt lat="38.81464" lon="-0.12338">
        <ele>508.6</ele>
        <time>2021-01-31 14:22:52</time>
      </trkpt>
      <trkpt lat="38.81468" lon="-0.12339">
        <ele>508.6</ele>
        <time>2021-01-31 14:22:53</time>
      </trkpt>
      <trkpt lat="38.81472" lon="-0.1234">
        <ele>508.6</ele>
        <time>2021-01-31 14:22:54</time>
      </trkpt>
      <trkpt lat="38.81476" lon="-0.12341">
        <ele>508.6</ele>
        <time>2021-01-31 14:22:55</time>
      </trkpt>
      <trkpt lat="38.8148" lon="-0.12341">
        <ele>510.8</ele>
        <time>2021-01-31 14:22:56</time>
      </trkpt>
      <trkpt lat="38.81484" lon="-0.12342">
        <ele>510.8</ele>
        <time>2021-01-31 14:22:57</time>
      </trkpt>
      <trkpt lat="38.81487" lon="-0.12342">
        <ele>510.8</ele>
        <time>2021-01-31 14:22:58</time>
      </trkpt>
      <trkpt lat="38.81491" lon="-0.12343">
        <ele>510.8</ele>
        <time>2021-01-31 14:22:59</time>
      </trkpt>
      <trkpt lat="38.81494" lon="-0.12343">
        <ele>509.8</ele>
        <time>2021-01-31 14:23:00</time>
      </trkpt>
      <trkpt lat="38.81497" lon="-0.12343">
        <ele>509.8</ele>
        <time>2021-01-31 14:23:01</time>
      </trkpt>
      <trkpt lat="38.815" lon="-0.12343">
        <ele>509.8</ele>
        <time>2021-01-31 14:23:02</time>
      </trkpt>
      <trkpt lat="38.81503" lon="-0.12344">
        <ele>510.6</ele>
        <time>2021-01-31 14:23:03</time>
      </trkpt>
      <trkpt lat="38.81506" lon="-0.12345">
        <ele>511.4</ele>
        <time>2021-01-31 14:23:04</time>
      </trkpt>
      <trkpt lat="38.81508" lon="-0.12346">
        <ele>511.4</ele>
        <time>2021-01-31 14:23:05</time>
      </trkpt>
      <trkpt lat="38.81511" lon="-0.12347">
        <ele>511.4</ele>
        <time>2021-01-31 14:23:06</time>
      </trkpt>
      <trkpt lat="38.81514" lon="-0.12348">
        <ele>512.4</ele>
        <time>2021-01-31 14:23:07</time>
      </trkpt>
      <trkpt lat="38.81517" lon="-0.12349">
        <ele>512.6</ele>
        <time>2021-01-31 14:23:08</time>
      </trkpt>
      <trkpt lat="38.81519" lon="-0.12351">
        <ele>512.6</ele>
        <time>2021-01-31 14:23:09</time>
      </trkpt>
      <trkpt lat="38.81522" lon="-0.12352">
        <ele>512.6</ele>
        <time>2021-01-31 14:23:10</time>
      </trkpt>
      <trkpt lat="38.81525" lon="-0.12353">
        <ele>512.6</ele>
        <time>2021-01-31 14:23:11</time>
      </trkpt>
      <trkpt lat="38.81527" lon="-0.12354">
        <ele>513.4</ele>
        <time>2021-01-31 14:23:12</time>
      </trkpt>
      <trkpt lat="38.81529" lon="-0.12356">
        <ele>513.4</ele>
        <time>2021-01-31 14:23:13</time>
      </trkpt>
      <trkpt lat="38.81532" lon="-0.12357">
        <ele>513.4</ele>
        <time>2021-01-31 14:23:14</time>
      </trkpt>
      <trkpt lat="38.81534" lon="-0.12359">
        <ele>512.4</ele>
        <time>2021-01-31 14:23:15</time>
      </trkpt>
      <trkpt lat="38.81537" lon="-0.1236">
        <ele>513.6</ele>
        <time>2021-01-31 14:23:16</time>
      </trkpt>
      <trkpt lat="38.81539" lon="-0.12362">
        <ele>513.6</ele>
        <time>2021-01-31 14:23:17</time>
      </trkpt>
      <trkpt lat="38.81541" lon="-0.12364">
        <ele>513.6</ele>
        <time>2021-01-31 14:23:18</time>
      </trkpt>
      <trkpt lat="38.81543" lon="-0.12366">
        <ele>513.6</ele>
        <time>2021-01-31 14:23:19</time>
      </trkpt>
      <trkpt lat="38.81545" lon="-0.12368">
        <ele>513.4</ele>
        <time>2021-01-31 14:23:20</time>
      </trkpt>
      <trkpt lat="38.81547" lon="-0.1237">
        <ele>513.4</ele>
        <time>2021-01-31 14:23:21</time>
      </trkpt>
      <trkpt lat="38.8155" lon="-0.12373">
        <ele>513.4</ele>
        <time>2021-01-31 14:23:22</time>
      </trkpt>
      <trkpt lat="38.81552" lon="-0.12375">
        <ele>513.4</ele>
        <time>2021-01-31 14:23:23</time>
      </trkpt>
      <trkpt lat="38.81554" lon="-0.12377">
        <ele>514.8</ele>
        <time>2021-01-31 14:23:24</time>
      </trkpt>
      <trkpt lat="38.81555" lon="-0.1238">
        <ele>514.8</ele>
        <time>2021-01-31 14:23:25</time>
      </trkpt>
      <trkpt lat="38.81557" lon="-0.12382">
        <ele>514.8</ele>
        <time>2021-01-31 14:23:26</time>
      </trkpt>
      <trkpt lat="38.81559" lon="-0.12385">
        <ele>514.8</ele>
        <time>2021-01-31 14:23:27</time>
      </trkpt>
      <trkpt lat="38.81561" lon="-0.12387">
        <ele>515.6</ele>
        <time>2021-01-31 14:23:28</time>
      </trkpt>
      <trkpt lat="38.81562" lon="-0.1239">
        <ele>515.6</ele>
        <time>2021-01-31 14:23:29</time>
      </trkpt>
      <trkpt lat="38.81564" lon="-0.12393">
        <ele>515.6</ele>
        <time>2021-01-31 14:23:30</time>
      </trkpt>
      <trkpt lat="38.81565" lon="-0.12396">
        <ele>515.6</ele>
        <time>2021-01-31 14:23:31</time>
      </trkpt>
      <trkpt lat="38.81567" lon="-0.12399">
        <ele>515.2</ele>
        <time>2021-01-31 14:23:32</time>
      </trkpt>
      <trkpt lat="38.81568" lon="-0.12402">
        <ele>515.2</ele>
        <time>2021-01-31 14:23:33</time>
      </trkpt>
      <trkpt lat="38.81569" lon="-0.12405">
        <ele>515.2</ele>
        <time>2021-01-31 14:23:34</time>
      </trkpt>
      <trkpt lat="38.8157" lon="-0.12408">
        <ele>516.2</ele>
        <time>2021-01-31 14:23:35</time>
      </trkpt>
      <trkpt lat="38.81571" lon="-0.12411">
        <ele>518.8</ele>
        <time>2021-01-31 14:23:36</time>
      </trkpt>
      <trkpt lat="38.81572" lon="-0.12415">
        <ele>518.8</ele>
        <time>2021-01-31 14:23:37</time>
      </trkpt>
      <trkpt lat="38.81573" lon="-0.12418">
        <ele>518.8</ele>
        <time>2021-01-31 14:23:38</time>
      </trkpt>
      <trkpt lat="38.81573" lon="-0.12422">
        <ele>518.8</ele>
        <time>2021-01-31 14:23:39</time>
      </trkpt>
      <trkpt lat="38.81574" lon="-0.12425">
        <ele>520</ele>
        <time>2021-01-31 14:23:40</time>
      </trkpt>
      <trkpt lat="38.81574" lon="-0.12429">
        <ele>520</ele>
        <time>2021-01-31 14:23:41</time>
      </trkpt>
      <trkpt lat="38.81575" lon="-0.12433">
        <ele>520</ele>
        <time>2021-01-31 14:23:42</time>
      </trkpt>
      <trkpt lat="38.81575" lon="-0.12437">
        <ele>520</ele>
        <time>2021-01-31 14:23:43</time>
      </trkpt>
      <trkpt lat="38.81575" lon="-0.12441">
        <ele>519.2</ele>
        <time>2021-01-31 14:23:44</time>
      </trkpt>
      <trkpt lat="38.81576" lon="-0.12444">
        <ele>519.2</ele>
        <time>2021-01-31 14:23:45</time>
      </trkpt>
      <trkpt lat="38.81576" lon="-0.12448">
        <ele>519.2</ele>
        <time>2021-01-31 14:23:46</time>
      </trkpt>
      <trkpt lat="38.81576" lon="-0.12452">
        <ele>520.2</ele>
        <time>2021-01-31 14:23:47</time>
      </trkpt>
      <trkpt lat="38.81576" lon="-0.12455">
        <ele>521.2</ele>
        <time>2021-01-31 14:23:48</time>
      </trkpt>
      <trkpt lat="38.81577" lon="-0.12459">
        <ele>521.2</ele>
        <time>2021-01-31 14:23:49</time>
      </trkpt>
      <trkpt lat="38.81577" lon="-0.12463">
        <ele>521.2</ele>
        <time>2021-01-31 14:23:50</time>
      </trkpt>
      <trkpt lat="38.81577" lon="-0.12466">
        <ele>521.2</ele>
        <time>2021-01-31 14:23:51</time>
      </trkpt>
      <trkpt lat="38.81578" lon="-0.1247">
        <ele>521</ele>
        <time>2021-01-31 14:23:52</time>
      </trkpt>
      <trkpt lat="38.81578" lon="-0.12474">
        <ele>521</ele>
        <time>2021-01-31 14:23:53</time>
      </trkpt>
      <trkpt lat="38.81578" lon="-0.12477">
        <ele>521</ele>
        <time>2021-01-31 14:23:54</time>
      </trkpt>
      <trkpt lat="38.81579" lon="-0.12481">
        <ele>521</ele>
        <time>2021-01-31 14:23:55</time>
      </trkpt>
      <trkpt lat="38.81579" lon="-0.12485">
        <ele>520.8</ele>
        <time>2021-01-31 14:23:56</time>
      </trkpt>
      <trkpt lat="38.8158" lon="-0.12488">
        <ele>520.8</ele>
        <time>2021-01-31 14:23:57</time>
      </trkpt>
      <trkpt lat="38.8158" lon="-0.12491">
        <ele>520.8</ele>
        <time>2021-01-31 14:23:58</time>
      </trkpt>
      <trkpt lat="38.8158" lon="-0.12495">
        <ele>520.8</ele>
        <time>2021-01-31 14:23:59</time>
      </trkpt>
      <trkpt lat="38.81581" lon="-0.12498">
        <ele>522.2</ele>
        <time>2021-01-31 14:24:00</time>
      </trkpt>
      <trkpt lat="38.81581" lon="-0.12502">
        <ele>522.2</ele>
        <time>2021-01-31 14:24:01</time>
      </trkpt>
      <trkpt lat="38.81581" lon="-0.12505">
        <ele>522.2</ele>
        <time>2021-01-31 14:24:02</time>
      </trkpt>
      <trkpt lat="38.81582" lon="-0.12509">
        <ele>522.2</ele>
        <time>2021-01-31 14:24:03</time>
      </trkpt>
      <trkpt lat="38.81582" lon="-0.12512">
        <ele>524.2</ele>
        <time>2021-01-31 14:24:04</time>
      </trkpt>
      <trkpt lat="38.81583" lon="-0.12515">
        <ele>524.2</ele>
        <time>2021-01-31 14:24:05</time>
      </trkpt>
      <trkpt lat="38.81583" lon="-0.12519">
        <ele>524.2</ele>
        <time>2021-01-31 14:24:06</time>
      </trkpt>
      <trkpt lat="38.81583" lon="-0.12522">
        <ele>525.2</ele>
        <time>2021-01-31 14:24:07</time>
      </trkpt>
      <trkpt lat="38.81583" lon="-0.12526">
        <ele>525.4</ele>
        <time>2021-01-31 14:24:08</time>
      </trkpt>
      <trkpt lat="38.81584" lon="-0.12529">
        <ele>525.4</ele>
        <time>2021-01-31 14:24:09</time>
      </trkpt>
      <trkpt lat="38.81584" lon="-0.12533">
        <ele>525.4</ele>
        <time>2021-01-31 14:24:10</time>
      </trkpt>
      <trkpt lat="38.81585" lon="-0.12537">
        <ele>525.4</ele>
        <time>2021-01-31 14:24:11</time>
      </trkpt>
      <trkpt lat="38.81585" lon="-0.1254">
        <ele>525.6</ele>
        <time>2021-01-31 14:24:12</time>
      </trkpt>
      <trkpt lat="38.81586" lon="-0.12544">
        <ele>525.6</ele>
        <time>2021-01-31 14:24:13</time>
      </trkpt>
      <trkpt lat="38.81586" lon="-0.12547">
        <ele>525.6</ele>
        <time>2021-01-31 14:24:14</time>
      </trkpt>
      <trkpt lat="38.81587" lon="-0.12551">
        <ele>525.6</ele>
        <time>2021-01-31 14:24:15</time>
      </trkpt>
      <trkpt lat="38.81588" lon="-0.12554">
        <ele>523.8</ele>
        <time>2021-01-31 14:24:16</time>
      </trkpt>
      <trkpt lat="38.81588" lon="-0.12557">
        <ele>523.8</ele>
        <time>2021-01-31 14:24:17</time>
      </trkpt>
      <trkpt lat="38.81589" lon="-0.12561">
        <ele>523.8</ele>
        <time>2021-01-31 14:24:18</time>
      </trkpt>
      <trkpt lat="38.81589" lon="-0.12564">
        <ele>523.8</ele>
        <time>2021-01-31 14:24:19</time>
      </trkpt>
      <trkpt lat="38.8159" lon="-0.12567">
        <ele>527.8</ele>
        <time>2021-01-31 14:24:20</time>
      </trkpt>
      <trkpt lat="38.81591" lon="-0.12571">
        <ele>527.8</ele>
        <time>2021-01-31 14:24:21</time>
      </trkpt>
      <trkpt lat="38.81591" lon="-0.12574">
        <ele>527.8</ele>
        <time>2021-01-31 14:24:22</time>
      </trkpt>
      <trkpt lat="38.81592" lon="-0.12577">
        <ele>527.6</ele>
        <time>2021-01-31 14:24:23</time>
      </trkpt>
      <trkpt lat="38.81593" lon="-0.1258">
        <ele>527.8</ele>
        <time>2021-01-31 14:24:24</time>
      </trkpt>
      <trkpt lat="38.81593" lon="-0.12584">
        <ele>527.8</ele>
        <time>2021-01-31 14:24:25</time>
      </trkpt>
      <trkpt lat="38.81594" lon="-0.12587">
        <ele>527.8</ele>
        <time>2021-01-31 14:24:26</time>
      </trkpt>
      <trkpt lat="38.81595" lon="-0.1259">
        <ele>527.8</ele>
        <time>2021-01-31 14:24:27</time>
      </trkpt>
      <trkpt lat="38.81595" lon="-0.12593">
        <ele>529.4</ele>
        <time>2021-01-31 14:24:28</time>
      </trkpt>
      <trkpt lat="38.81596" lon="-0.12596">
        <ele>529.4</ele>
        <time>2021-01-31 14:24:29</time>
      </trkpt>
      <trkpt lat="38.81597" lon="-0.12599">
        <ele>529.4</ele>
        <time>2021-01-31 14:24:30</time>
      </trkpt>
      <trkpt lat="38.81598" lon="-0.12603">
        <ele>529.4</ele>
        <time>2021-01-31 14:24:31</time>
      </trkpt>
      <trkpt lat="38.816" lon="-0.12605">
        <ele>530</ele>
        <time>2021-01-31 14:24:32</time>
      </trkpt>
      <trkpt lat="38.81601" lon="-0.12608">
        <ele>530</ele>
        <time>2021-01-31 14:24:33</time>
      </trkpt>
      <trkpt lat="38.81603" lon="-0.12611">
        <ele>530</ele>
        <time>2021-01-31 14:24:34</time>
      </trkpt>
      <trkpt lat="38.81605" lon="-0.12613">
        <ele>531</ele>
        <time>2021-01-31 14:24:35</time>
      </trkpt>
      <trkpt lat="38.81607" lon="-0.12616">
        <ele>533.2</ele>
        <time>2021-01-31 14:24:36</time>
      </trkpt>
      <trkpt lat="38.81609" lon="-0.12618">
        <ele>533.2</ele>
        <time>2021-01-31 14:24:37</time>
      </trkpt>
      <trkpt lat="38.81611" lon="-0.1262">
        <ele>533.2</ele>
        <time>2021-01-31 14:24:38</time>
      </trkpt>
      <trkpt lat="38.81613" lon="-0.12623">
        <ele>533.8</ele>
        <time>2021-01-31 14:24:39</time>
      </trkpt>
      <trkpt lat="38.81615" lon="-0.12625">
        <ele>533.2</ele>
        <time>2021-01-31 14:24:40</time>
      </trkpt>
      <trkpt lat="38.81617" lon="-0.12627">
        <ele>533.2</ele>
        <time>2021-01-31 14:24:41</time>
      </trkpt>
      <trkpt lat="38.81619" lon="-0.1263">
        <ele>533.2</ele>
        <time>2021-01-31 14:24:42</time>
      </trkpt>
      <trkpt lat="38.81622" lon="-0.12632">
        <ele>533.2</ele>
        <time>2021-01-31 14:24:43</time>
      </trkpt>
      <trkpt lat="38.81624" lon="-0.12634">
        <ele>534.2</ele>
        <time>2021-01-31 14:24:44</time>
      </trkpt>
      <trkpt lat="38.81626" lon="-0.12636">
        <ele>534.2</ele>
        <time>2021-01-31 14:24:45</time>
      </trkpt>
      <trkpt lat="38.81628" lon="-0.12638">
        <ele>534.2</ele>
        <time>2021-01-31 14:24:46</time>
      </trkpt>
      <trkpt lat="38.81631" lon="-0.12641">
        <ele>534.2</ele>
        <time>2021-01-31 14:24:47</time>
      </trkpt>
      <trkpt lat="38.81633" lon="-0.12643">
        <ele>535.4</ele>
        <time>2021-01-31 14:24:48</time>
      </trkpt>
      <trkpt lat="38.81635" lon="-0.12646">
        <ele>535.4</ele>
        <time>2021-01-31 14:24:49</time>
      </trkpt>
      <trkpt lat="38.81637" lon="-0.12648">
        <ele>535.4</ele>
        <time>2021-01-31 14:24:50</time>
      </trkpt>
      <trkpt lat="38.8164" lon="-0.1265">
        <ele>535.4</ele>
        <time>2021-01-31 14:24:51</time>
      </trkpt>
      <trkpt lat="38.81642" lon="-0.12652">
        <ele>536.8</ele>
        <time>2021-01-31 14:24:52</time>
      </trkpt>
      <trkpt lat="38.81645" lon="-0.12654">
        <ele>536.8</ele>
        <time>2021-01-31 14:24:53</time>
      </trkpt>
      <trkpt lat="38.81647" lon="-0.12655">
        <ele>536.8</ele>
        <time>2021-01-31 14:24:54</time>
      </trkpt>
      <trkpt lat="38.8165" lon="-0.12656">
        <ele>536.8</ele>
        <time>2021-01-31 14:24:55</time>
      </trkpt>
      <trkpt lat="38.81653" lon="-0.12657">
        <ele>537</ele>
        <time>2021-01-31 14:24:56</time>
      </trkpt>
      <trkpt lat="38.81656" lon="-0.12658">
        <ele>537</ele>
        <time>2021-01-31 14:24:57</time>
      </trkpt>
      <trkpt lat="38.81659" lon="-0.12659">
        <ele>537</ele>
        <time>2021-01-31 14:24:58</time>
      </trkpt>
      <trkpt lat="38.81661" lon="-0.12659">
        <ele>537</ele>
        <time>2021-01-31 14:24:59</time>
      </trkpt>
      <trkpt lat="38.81664" lon="-0.1266">
        <ele>538.8</ele>
        <time>2021-01-31 14:25:00</time>
      </trkpt>
      <trkpt lat="38.81667" lon="-0.12661">
        <ele>538.8</ele>
        <time>2021-01-31 14:25:01</time>
      </trkpt>
      <trkpt lat="38.81671" lon="-0.12662">
        <ele>538.8</ele>
        <time>2021-01-31 14:25:02</time>
      </trkpt>
      <trkpt lat="38.81674" lon="-0.12664">
        <ele>538.8</ele>
        <time>2021-01-31 14:25:03</time>
      </trkpt>
      <trkpt lat="38.81676" lon="-0.12666">
        <ele>539.2</ele>
        <time>2021-01-31 14:25:04</time>
      </trkpt>
      <trkpt lat="38.81679" lon="-0.12669">
        <ele>539.2</ele>
        <time>2021-01-31 14:25:05</time>
      </trkpt>
      <trkpt lat="38.81681" lon="-0.12672">
        <ele>539.2</ele>
        <time>2021-01-31 14:25:06</time>
      </trkpt>
      <trkpt lat="38.81683" lon="-0.12675">
        <ele>539.2</ele>
        <time>2021-01-31 14:25:07</time>
      </trkpt>
      <trkpt lat="38.81685" lon="-0.12679">
        <ele>539.4</ele>
        <time>2021-01-31 14:25:08</time>
      </trkpt>
      <trkpt lat="38.81686" lon="-0.12682">
        <ele>539.4</ele>
        <time>2021-01-31 14:25:09</time>
      </trkpt>
      <trkpt lat="38.81688" lon="-0.12685">
        <ele>539.4</ele>
        <time>2021-01-31 14:25:10</time>
      </trkpt>
      <trkpt lat="38.8169" lon="-0.12689">
        <ele>539.4</ele>
        <time>2021-01-31 14:25:11</time>
      </trkpt>
      <trkpt lat="38.81692" lon="-0.12692">
        <ele>541</ele>
        <time>2021-01-31 14:25:12</time>
      </trkpt>
      <trkpt lat="38.81695" lon="-0.12695">
        <ele>541</ele>
        <time>2021-01-31 14:25:13</time>
      </trkpt>
      <trkpt lat="38.81698" lon="-0.12696">
        <ele>541</ele>
        <time>2021-01-31 14:25:14</time>
      </trkpt>
      <trkpt lat="38.81701" lon="-0.12697">
        <ele>542</ele>
        <time>2021-01-31 14:25:15</time>
      </trkpt>
      <trkpt lat="38.81705" lon="-0.12698">
        <ele>542</ele>
        <time>2021-01-31 14:25:16</time>
      </trkpt>
      <trkpt lat="38.81708" lon="-0.12697">
        <ele>542</ele>
        <time>2021-01-31 14:25:17</time>
      </trkpt>
      <trkpt lat="38.81712" lon="-0.12696">
        <ele>542</ele>
        <time>2021-01-31 14:25:18</time>
      </trkpt>
      <trkpt lat="38.81715" lon="-0.12695">
        <ele>542</ele>
        <time>2021-01-31 14:25:19</time>
      </trkpt>
      <trkpt lat="38.81718" lon="-0.12694">
        <ele>543</ele>
        <time>2021-01-31 14:25:20</time>
      </trkpt>
      <trkpt lat="38.81721" lon="-0.12692">
        <ele>543</ele>
        <time>2021-01-31 14:25:21</time>
      </trkpt>
      <trkpt lat="38.81724" lon="-0.12691">
        <ele>543</ele>
        <time>2021-01-31 14:25:22</time>
      </trkpt>
      <trkpt lat="38.81727" lon="-0.12689">
        <ele>542</ele>
        <time>2021-01-31 14:25:23</time>
      </trkpt>
      <trkpt lat="38.81729" lon="-0.12687">
        <ele>544.2</ele>
        <time>2021-01-31 14:25:24</time>
      </trkpt>
      <trkpt lat="38.81732" lon="-0.12686">
        <ele>544.2</ele>
        <time>2021-01-31 14:25:25</time>
      </trkpt>
      <trkpt lat="38.81735" lon="-0.12684">
        <ele>544.2</ele>
        <time>2021-01-31 14:25:26</time>
      </trkpt>
      <trkpt lat="38.81738" lon="-0.12683">
        <ele>544.6</ele>
        <time>2021-01-31 14:25:27</time>
      </trkpt>
      <trkpt lat="38.81741" lon="-0.12682">
        <ele>543.8</ele>
        <time>2021-01-31 14:25:28</time>
      </trkpt>
      <trkpt lat="38.81744" lon="-0.12681">
        <ele>543.8</ele>
        <time>2021-01-31 14:25:29</time>
      </trkpt>
      <trkpt lat="38.81747" lon="-0.12681">
        <ele>543.8</ele>
        <time>2021-01-31 14:25:30</time>
      </trkpt>
      <trkpt lat="38.8175" lon="-0.12681">
        <ele>543.8</ele>
        <time>2021-01-31 14:25:31</time>
      </trkpt>
      <trkpt lat="38.81753" lon="-0.12682">
        <ele>545.6</ele>
        <time>2021-01-31 14:25:32</time>
      </trkpt>
      <trkpt lat="38.81756" lon="-0.12683">
        <ele>545.6</ele>
        <time>2021-01-31 14:25:33</time>
      </trkpt>
      <trkpt lat="38.81759" lon="-0.12685">
        <ele>545.6</ele>
        <time>2021-01-31 14:25:34</time>
      </trkpt>
      <trkpt lat="38.81762" lon="-0.12686">
        <ele>545.6</ele>
        <time>2021-01-31 14:25:35</time>
      </trkpt>
      <trkpt lat="38.81765" lon="-0.12688">
        <ele>547.2</ele>
        <time>2021-01-31 14:25:36</time>
      </trkpt>
      <trkpt lat="38.81768" lon="-0.1269">
        <ele>547.2</ele>
        <time>2021-01-31 14:25:37</time>
      </trkpt>
      <trkpt lat="38.81771" lon="-0.12692">
        <ele>547.2</ele>
        <time>2021-01-31 14:25:38</time>
      </trkpt>
      <trkpt lat="38.81773" lon="-0.12694">
        <ele>546.6</ele>
        <time>2021-01-31 14:25:39</time>
      </trkpt>
      <trkpt lat="38.81776" lon="-0.12696">
        <ele>546.6</ele>
        <time>2021-01-31 14:25:40</time>
      </trkpt>
      <trkpt lat="38.81779" lon="-0.12698">
        <ele>546.6</ele>
        <time>2021-01-31 14:25:41</time>
      </trkpt>
      <trkpt lat="38.81781" lon="-0.127">
        <ele>546.6</ele>
        <time>2021-01-31 14:25:42</time>
      </trkpt>
      <trkpt lat="38.81784" lon="-0.12703">
        <ele>546.6</ele>
        <time>2021-01-31 14:25:43</time>
      </trkpt>
      <trkpt lat="38.81786" lon="-0.12705">
        <ele>548.2</ele>
        <time>2021-01-31 14:25:44</time>
      </trkpt>
      <trkpt lat="38.81789" lon="-0.12708">
        <ele>548.2</ele>
        <time>2021-01-31 14:25:45</time>
      </trkpt>
      <trkpt lat="38.81791" lon="-0.1271">
        <ele>548.2</ele>
        <time>2021-01-31 14:25:46</time>
      </trkpt>
      <trkpt lat="38.81793" lon="-0.12713">
        <ele>549.2</ele>
        <time>2021-01-31 14:25:47</time>
      </trkpt>
      <trkpt lat="38.81796" lon="-0.12715">
        <ele>550.8</ele>
        <time>2021-01-31 14:25:48</time>
      </trkpt>
      <trkpt lat="38.81798" lon="-0.12718">
        <ele>550.8</ele>
        <time>2021-01-31 14:25:49</time>
      </trkpt>
      <trkpt lat="38.81801" lon="-0.12721">
        <ele>550.8</ele>
        <time>2021-01-31 14:25:50</time>
      </trkpt>
      <trkpt lat="38.81802" lon="-0.12724">
        <ele>550.8</ele>
        <time>2021-01-31 14:25:51</time>
      </trkpt>
      <trkpt lat="38.81804" lon="-0.12727">
        <ele>551</ele>
        <time>2021-01-31 14:25:52</time>
      </trkpt>
      <trkpt lat="38.81806" lon="-0.1273">
        <ele>551</ele>
        <time>2021-01-31 14:25:53</time>
      </trkpt>
      <trkpt lat="38.81808" lon="-0.12734">
        <ele>551</ele>
        <time>2021-01-31 14:25:54</time>
      </trkpt>
      <trkpt lat="38.8181" lon="-0.12737">
        <ele>552</ele>
        <time>2021-01-31 14:25:55</time>
      </trkpt>
      <trkpt lat="38.81811" lon="-0.12741">
        <ele>554.6</ele>
        <time>2021-01-31 14:25:56</time>
      </trkpt>
      <trkpt lat="38.81812" lon="-0.12745">
        <ele>554.6</ele>
        <time>2021-01-31 14:25:57</time>
      </trkpt>
      <trkpt lat="38.81813" lon="-0.12749">
        <ele>554.6</ele>
        <time>2021-01-31 14:25:58</time>
      </trkpt>
      <trkpt lat="38.81814" lon="-0.12753">
        <ele>554.6</ele>
        <time>2021-01-31 14:25:59</time>
      </trkpt>
      <trkpt lat="38.81815" lon="-0.12757">
        <ele>556.8</ele>
        <time>2021-01-31 14:26:00</time>
      </trkpt>
      <trkpt lat="38.81815" lon="-0.12761">
        <ele>556.8</ele>
        <time>2021-01-31 14:26:01</time>
      </trkpt>
      <trkpt lat="38.81814" lon="-0.12764">
        <ele>556.8</ele>
        <time>2021-01-31 14:26:02</time>
      </trkpt>
      <trkpt lat="38.81813" lon="-0.12768">
        <ele>556.8</ele>
        <time>2021-01-31 14:26:03</time>
      </trkpt>
      <trkpt lat="38.81811" lon="-0.12772">
        <ele>553.6</ele>
        <time>2021-01-31 14:26:04</time>
      </trkpt>
      <trkpt lat="38.81809" lon="-0.12775">
        <ele>553.6</ele>
        <time>2021-01-31 14:26:05</time>
      </trkpt>
      <trkpt lat="38.81807" lon="-0.12778">
        <ele>553.6</ele>
        <time>2021-01-31 14:26:06</time>
      </trkpt>
      <trkpt lat="38.81805" lon="-0.1278">
        <ele>554.6</ele>
        <time>2021-01-31 14:26:07</time>
      </trkpt>
      <trkpt lat="38.81802" lon="-0.12783">
        <ele>555.4</ele>
        <time>2021-01-31 14:26:08</time>
      </trkpt>
      <trkpt lat="38.818" lon="-0.12785">
        <ele>555.4</ele>
        <time>2021-01-31 14:26:09</time>
      </trkpt>
      <trkpt lat="38.81797" lon="-0.12786">
        <ele>555.4</ele>
        <time>2021-01-31 14:26:10</time>
      </trkpt>
      <trkpt lat="38.81795" lon="-0.12788">
        <ele>554.6</ele>
        <time>2021-01-31 14:26:11</time>
      </trkpt>
      <trkpt lat="38.81792" lon="-0.12789">
        <ele>555.4</ele>
        <time>2021-01-31 14:26:12</time>
      </trkpt>
      <trkpt lat="38.81789" lon="-0.1279">
        <ele>555.4</ele>
        <time>2021-01-31 14:26:13</time>
      </trkpt>
      <trkpt lat="38.81787" lon="-0.12791">
        <ele>555.4</ele>
        <time>2021-01-31 14:26:14</time>
      </trkpt>
      <trkpt lat="38.81784" lon="-0.12792">
        <ele>556.4</ele>
        <time>2021-01-31 14:26:15</time>
      </trkpt>
      <trkpt lat="38.8178" lon="-0.12794">
        <ele>558.2</ele>
        <time>2021-01-31 14:26:16</time>
      </trkpt>
      <trkpt lat="38.81777" lon="-0.12795">
        <ele>558.2</ele>
        <time>2021-01-31 14:26:17</time>
      </trkpt>
      <trkpt lat="38.81774" lon="-0.12796">
        <ele>558.2</ele>
        <time>2021-01-31 14:26:18</time>
      </trkpt>
      <trkpt lat="38.81771" lon="-0.12797">
        <ele>558.2</ele>
        <time>2021-01-31 14:26:19</time>
      </trkpt>
      <trkpt lat="38.81768" lon="-0.12798">
        <ele>557.4</ele>
        <time>2021-01-31 14:26:20</time>
      </trkpt>
      <trkpt lat="38.81764" lon="-0.128">
        <ele>557.4</ele>
        <time>2021-01-31 14:26:21</time>
      </trkpt>
      <trkpt lat="38.81761" lon="-0.12801">
        <ele>557.4</ele>
        <time>2021-01-31 14:26:22</time>
      </trkpt>
      <trkpt lat="38.81758" lon="-0.12803">
        <ele>558.4</ele>
        <time>2021-01-31 14:26:23</time>
      </trkpt>
      <trkpt lat="38.81755" lon="-0.12804">
        <ele>560.4</ele>
        <time>2021-01-31 14:26:24</time>
      </trkpt>
      <trkpt lat="38.81752" lon="-0.12806">
        <ele>560.4</ele>
        <time>2021-01-31 14:26:25</time>
      </trkpt>
      <trkpt lat="38.81749" lon="-0.12807">
        <ele>560.4</ele>
        <time>2021-01-31 14:26:26</time>
      </trkpt>
      <trkpt lat="38.81746" lon="-0.12808">
        <ele>560.4</ele>
        <time>2021-01-31 14:26:27</time>
      </trkpt>
      <trkpt lat="38.81743" lon="-0.1281">
        <ele>558</ele>
        <time>2021-01-31 14:26:28</time>
      </trkpt>
      <trkpt lat="38.8174" lon="-0.12811">
        <ele>558</ele>
        <time>2021-01-31 14:26:29</time>
      </trkpt>
      <trkpt lat="38.81737" lon="-0.12813">
        <ele>558</ele>
        <time>2021-01-31 14:26:30</time>
      </trkpt>
      <trkpt lat="38.81734" lon="-0.12814">
        <ele>559</ele>
        <time>2021-01-31 14:26:31</time>
      </trkpt>
      <trkpt lat="38.81731" lon="-0.12816">
        <ele>561</ele>
        <time>2021-01-31 14:26:32</time>
      </trkpt>
      <trkpt lat="38.81728" lon="-0.12817">
        <ele>561</ele>
        <time>2021-01-31 14:26:33</time>
      </trkpt>
      <trkpt lat="38.81725" lon="-0.12819">
        <ele>561</ele>
        <time>2021-01-31 14:26:34</time>
      </trkpt>
      <trkpt lat="38.81722" lon="-0.1282">
        <ele>561.8</ele>
        <time>2021-01-31 14:26:35</time>
      </trkpt>
      <trkpt lat="38.81719" lon="-0.12822">
        <ele>562.4</ele>
        <time>2021-01-31 14:26:36</time>
      </trkpt>
      <trkpt lat="38.81716" lon="-0.12824">
        <ele>562.4</ele>
        <time>2021-01-31 14:26:37</time>
      </trkpt>
      <trkpt lat="38.81713" lon="-0.12825">
        <ele>562.4</ele>
        <time>2021-01-31 14:26:38</time>
      </trkpt>
      <trkpt lat="38.8171" lon="-0.12827">
        <ele>562.4</ele>
        <time>2021-01-31 14:26:39</time>
      </trkpt>
      <trkpt lat="38.81707" lon="-0.12828">
        <ele>562.8</ele>
        <time>2021-01-31 14:26:40</time>
      </trkpt>
      <trkpt lat="38.81704" lon="-0.12829">
        <ele>562.8</ele>
        <time>2021-01-31 14:26:41</time>
      </trkpt>
      <trkpt lat="38.81701" lon="-0.12831">
        <ele>562.8</ele>
        <time>2021-01-31 14:26:42</time>
      </trkpt>
      <trkpt lat="38.81697" lon="-0.12832">
        <ele>562.8</ele>
        <time>2021-01-31 14:26:43</time>
      </trkpt>
      <trkpt lat="38.81694" lon="-0.12833">
        <ele>561.6</ele>
        <time>2021-01-31 14:26:44</time>
      </trkpt>
      <trkpt lat="38.81691" lon="-0.12835">
        <ele>561.6</ele>
        <time>2021-01-31 14:26:45</time>
      </trkpt>
      <trkpt lat="38.81688" lon="-0.12836">
        <ele>561.6</ele>
        <time>2021-01-31 14:26:46</time>
      </trkpt>
      <trkpt lat="38.81685" lon="-0.12838">
        <ele>562.6</ele>
        <time>2021-01-31 14:26:47</time>
      </trkpt>
      <trkpt lat="38.81682" lon="-0.12839">
        <ele>564</ele>
        <time>2021-01-31 14:26:48</time>
      </trkpt>
      <trkpt lat="38.81679" lon="-0.12841">
        <ele>564</ele>
        <time>2021-01-31 14:26:49</time>
      </trkpt>
      <trkpt lat="38.81677" lon="-0.12843">
        <ele>564</ele>
        <time>2021-01-31 14:26:50</time>
      </trkpt>
      <trkpt lat="38.81674" lon="-0.12845">
        <ele>563.2</ele>
        <time>2021-01-31 14:26:51</time>
      </trkpt>
      <trkpt lat="38.81672" lon="-0.12848">
        <ele>562.6</ele>
        <time>2021-01-31 14:26:52</time>
      </trkpt>
      <trkpt lat="38.81669" lon="-0.12851">
        <ele>562.6</ele>
        <time>2021-01-31 14:26:53</time>
      </trkpt>
      <trkpt lat="38.81668" lon="-0.12854">
        <ele>562.6</ele>
        <time>2021-01-31 14:26:54</time>
      </trkpt>
      <trkpt lat="38.81666" lon="-0.12856">
        <ele>562.6</ele>
        <time>2021-01-31 14:26:55</time>
      </trkpt>
      <trkpt lat="38.81665" lon="-0.1286">
        <ele>562.4</ele>
        <time>2021-01-31 14:26:56</time>
      </trkpt>
      <trkpt lat="38.81664" lon="-0.12863">
        <ele>562.4</ele>
        <time>2021-01-31 14:26:57</time>
      </trkpt>
      <trkpt lat="38.81663" lon="-0.12866">
        <ele>562.4</ele>
        <time>2021-01-31 14:26:58</time>
      </trkpt>
      <trkpt lat="38.81662" lon="-0.12869">
        <ele>562.2</ele>
        <time>2021-01-31 14:26:59</time>
      </trkpt>
      <trkpt lat="38.81661" lon="-0.12872">
        <ele>564</ele>
        <time>2021-01-31 14:27:00</time>
      </trkpt>
      <trkpt lat="38.8166" lon="-0.12876">
        <ele>564</ele>
        <time>2021-01-31 14:27:01</time>
      </trkpt>
      <trkpt lat="38.81659" lon="-0.12879">
        <ele>564</ele>
        <time>2021-01-31 14:27:02</time>
      </trkpt>
      <trkpt lat="38.81658" lon="-0.12883">
        <ele>563.6</ele>
        <time>2021-01-31 14:27:03</time>
      </trkpt>
      <trkpt lat="38.81657" lon="-0.12886">
        <ele>563.4</ele>
        <time>2021-01-31 14:27:04</time>
      </trkpt>
      <trkpt lat="38.81657" lon="-0.1289">
        <ele>563.4</ele>
        <time>2021-01-31 14:27:05</time>
      </trkpt>
      <trkpt lat="38.81656" lon="-0.12893">
        <ele>563.4</ele>
        <time>2021-01-31 14:27:06</time>
      </trkpt>
      <trkpt lat="38.81654" lon="-0.12896">
        <ele>564.4</ele>
        <time>2021-01-31 14:27:07</time>
      </trkpt>
      <trkpt lat="38.81653" lon="-0.12899">
        <ele>563.2</ele>
        <time>2021-01-31 14:27:08</time>
      </trkpt>
      <trkpt lat="38.81652" lon="-0.12903">
        <ele>563.2</ele>
        <time>2021-01-31 14:27:09</time>
      </trkpt>
      <trkpt lat="38.81651" lon="-0.12906">
        <ele>563.2</ele>
        <time>2021-01-31 14:27:10</time>
      </trkpt>
      <trkpt lat="38.8165" lon="-0.12909">
        <ele>564.2</ele>
        <time>2021-01-31 14:27:11</time>
      </trkpt>
      <trkpt lat="38.81649" lon="-0.12913">
        <ele>566</ele>
        <time>2021-01-31 14:27:12</time>
      </trkpt>
      <trkpt lat="38.81647" lon="-0.12916">
        <ele>566</ele>
        <time>2021-01-31 14:27:13</time>
      </trkpt>
      <trkpt lat="38.81646" lon="-0.12919">
        <ele>566</ele>
        <time>2021-01-31 14:27:14</time>
      </trkpt>
      <trkpt lat="38.81645" lon="-0.12922">
        <ele>566</ele>
        <time>2021-01-31 14:27:15</time>
      </trkpt>
      <trkpt lat="38.81643" lon="-0.12926">
        <ele>566.2</ele>
        <time>2021-01-31 14:27:16</time>
      </trkpt>
      <trkpt lat="38.81642" lon="-0.1293">
        <ele>566.2</ele>
        <time>2021-01-31 14:27:17</time>
      </trkpt>
      <trkpt lat="38.81641" lon="-0.12933">
        <ele>566.2</ele>
        <time>2021-01-31 14:27:18</time>
      </trkpt>
      <trkpt lat="38.81639" lon="-0.12937">
        <ele>566</ele>
        <time>2021-01-31 14:27:19</time>
      </trkpt>
      <trkpt lat="38.81638" lon="-0.1294">
        <ele>566.2</ele>
        <time>2021-01-31 14:27:20</time>
      </trkpt>
      <trkpt lat="38.81637" lon="-0.12943">
        <ele>566.2</ele>
        <time>2021-01-31 14:27:21</time>
      </trkpt>
      <trkpt lat="38.81636" lon="-0.12947">
        <ele>566.2</ele>
        <time>2021-01-31 14:27:22</time>
      </trkpt>
      <trkpt lat="38.81635" lon="-0.1295">
        <ele>566.2</ele>
        <time>2021-01-31 14:27:23</time>
      </trkpt>
      <trkpt lat="38.81634" lon="-0.12953">
        <ele>567</ele>
        <time>2021-01-31 14:27:24</time>
      </trkpt>
      <trkpt lat="38.81633" lon="-0.12956">
        <ele>567</ele>
        <time>2021-01-31 14:27:25</time>
      </trkpt>
      <trkpt lat="38.81632" lon="-0.12959">
        <ele>567</ele>
        <time>2021-01-31 14:27:26</time>
      </trkpt>
      <trkpt lat="38.81631" lon="-0.12963">
        <ele>568</ele>
        <time>2021-01-31 14:27:27</time>
      </trkpt>
      <trkpt lat="38.8163" lon="-0.12966">
        <ele>568.2</ele>
        <time>2021-01-31 14:27:28</time>
      </trkpt>
      <trkpt lat="38.81629" lon="-0.12969">
        <ele>568.2</ele>
        <time>2021-01-31 14:27:29</time>
      </trkpt>
      <trkpt lat="38.81628" lon="-0.12972">
        <ele>568.2</ele>
        <time>2021-01-31 14:27:30</time>
      </trkpt>
      <trkpt lat="38.81626" lon="-0.12975">
        <ele>568.4</ele>
        <time>2021-01-31 14:27:31</time>
      </trkpt>
      <trkpt lat="38.81625" lon="-0.12978">
        <ele>568.8</ele>
        <time>2021-01-31 14:27:32</time>
      </trkpt>
      <trkpt lat="38.81624" lon="-0.12981">
        <ele>568.8</ele>
        <time>2021-01-31 14:27:33</time>
      </trkpt>
      <trkpt lat="38.81622" lon="-0.12984">
        <ele>568.8</ele>
        <time>2021-01-31 14:27:34</time>
      </trkpt>
      <trkpt lat="38.81621" lon="-0.12987">
        <ele>569.8</ele>
        <time>2021-01-31 14:27:35</time>
      </trkpt>
      <trkpt lat="38.8162" lon="-0.1299">
        <ele>570.2</ele>
        <time>2021-01-31 14:27:36</time>
      </trkpt>
      <trkpt lat="38.81618" lon="-0.12993">
        <ele>570.2</ele>
        <time>2021-01-31 14:27:37</time>
      </trkpt>
      <trkpt lat="38.81617" lon="-0.12995">
        <ele>570.2</ele>
        <time>2021-01-31 14:27:38</time>
      </trkpt>
      <trkpt lat="38.81615" lon="-0.12998">
        <ele>571.2</ele>
        <time>2021-01-31 14:27:39</time>
      </trkpt>
      <trkpt lat="38.81613" lon="-0.13">
        <ele>571.4</ele>
        <time>2021-01-31 14:27:40</time>
      </trkpt>
      <trkpt lat="38.81611" lon="-0.13002">
        <ele>571.4</ele>
        <time>2021-01-31 14:27:41</time>
      </trkpt>
      <trkpt lat="38.81608" lon="-0.13004">
        <ele>571.4</ele>
        <time>2021-01-31 14:27:42</time>
      </trkpt>
      <trkpt lat="38.81606" lon="-0.13006">
        <ele>572</ele>
        <time>2021-01-31 14:27:43</time>
      </trkpt>
      <trkpt lat="38.81604" lon="-0.13008">
        <ele>572.6</ele>
        <time>2021-01-31 14:27:44</time>
      </trkpt>
      <trkpt lat="38.81601" lon="-0.1301">
        <ele>572.6</ele>
        <time>2021-01-31 14:27:45</time>
      </trkpt>
      <trkpt lat="38.81599" lon="-0.13011">
        <ele>572.6</ele>
        <time>2021-01-31 14:27:46</time>
      </trkpt>
      <trkpt lat="38.81596" lon="-0.13013">
        <ele>572.6</ele>
        <time>2021-01-31 14:27:47</time>
      </trkpt>
      <trkpt lat="38.81593" lon="-0.13015">
        <ele>573</ele>
        <time>2021-01-31 14:27:48</time>
      </trkpt>
      <trkpt lat="38.81591" lon="-0.13016">
        <ele>573</ele>
        <time>2021-01-31 14:27:49</time>
      </trkpt>
      <trkpt lat="38.81588" lon="-0.13018">
        <ele>573</ele>
        <time>2021-01-31 14:27:50</time>
      </trkpt>
      <trkpt lat="38.81585" lon="-0.13019">
        <ele>573</ele>
        <time>2021-01-31 14:27:51</time>
      </trkpt>
      <trkpt lat="38.81583" lon="-0.13021">
        <ele>573.6</ele>
        <time>2021-01-31 14:27:52</time>
      </trkpt>
      <trkpt lat="38.8158" lon="-0.13023">
        <ele>573.6</ele>
        <time>2021-01-31 14:27:53</time>
      </trkpt>
      <trkpt lat="38.81578" lon="-0.13023">
        <ele>573.6</ele>
        <time>2021-01-31 14:27:54</time>
      </trkpt>
      <trkpt lat="38.81576" lon="-0.13024">
        <ele>573.6</ele>
        <time>2021-01-31 14:27:55</time>
      </trkpt>
      <trkpt lat="38.81575" lon="-0.13023">
        <ele>573.8</ele>
        <time>2021-01-31 14:27:56</time>
      </trkpt>
      <trkpt lat="38.81575" lon="-0.13021">
        <ele>573.8</ele>
        <time>2021-01-31 14:27:57</time>
      </trkpt>
      <trkpt lat="38.81576" lon="-0.13019">
        <ele>573.8</ele>
        <time>2021-01-31 14:27:58</time>
      </trkpt>
      <trkpt lat="38.81578" lon="-0.13018">
        <ele>573.8</ele>
        <time>2021-01-31 14:27:59</time>
      </trkpt>
      <trkpt lat="38.8158" lon="-0.13018">
        <ele>573.6</ele>
        <time>2021-01-31 14:28:00</time>
      </trkpt>
      <trkpt lat="38.81582" lon="-0.13017">
        <ele>573.6</ele>
        <time>2021-01-31 14:28:01</time>
      </trkpt>
      <trkpt lat="38.81584" lon="-0.13016">
        <ele>573.6</ele>
        <time>2021-01-31 14:28:02</time>
      </trkpt>
      <trkpt lat="38.81587" lon="-0.13015">
        <ele>573.6</ele>
        <time>2021-01-31 14:28:03</time>
      </trkpt>
      <trkpt lat="38.8159" lon="-0.13014">
        <ele>572.4</ele>
        <time>2021-01-31 14:28:04</time>
      </trkpt>
      <trkpt lat="38.81593" lon="-0.13013">
        <ele>572.4</ele>
        <time>2021-01-31 14:28:05</time>
      </trkpt>
      <trkpt lat="38.81595" lon="-0.13012">
        <ele>572.4</ele>
        <time>2021-01-31 14:28:06</time>
      </trkpt>
      <trkpt lat="38.81598" lon="-0.13012">
        <ele>572.6</ele>
        <time>2021-01-31 14:28:07</time>
      </trkpt>
      <trkpt lat="38.816" lon="-0.13012">
        <ele>571.8</ele>
        <time>2021-01-31 14:28:08</time>
      </trkpt>
      <trkpt lat="38.81601" lon="-0.13012">
        <ele>571.8</ele>
        <time>2021-01-31 14:28:09</time>
      </trkpt>
      <trkpt lat="38.81601" lon="-0.13012">
        <ele>571.8</ele>
        <time>2021-01-31 14:28:10</time>
      </trkpt>
      <trkpt lat="38.81602" lon="-0.13012">
        <ele>572.4</ele>
        <time>2021-01-31 14:28:11</time>
      </trkpt>
      <trkpt lat="38.81602" lon="-0.13012">
        <ele>572.6</ele>
        <time>2021-01-31 14:28:12</time>
      </trkpt>
      <trkpt lat="38.81598" lon="-0.13014">
        <ele>573</ele>
        <time>2021-01-31 14:28:13</time>
      </trkpt>
      <trkpt lat="38.81594" lon="-0.13015">
        <ele>573</ele>
        <time>2021-01-31 14:28:14</time>
      </trkpt>
      <trkpt lat="38.81593" lon="-0.13016">
        <ele>573</ele>
        <time>2021-01-31 14:33:15</time>
      </trkpt>
      <trkpt lat="38.81591" lon="-0.13017">
        <ele>573.4</ele>
        <time>2021-01-31 14:33:16</time>
      </trkpt>
      <trkpt lat="38.81589" lon="-0.13018">
        <ele>573.4</ele>
        <time>2021-01-31 14:33:17</time>
      </trkpt>
      <trkpt lat="38.81587" lon="-0.13019">
        <ele>573.4</ele>
        <time>2021-01-31 14:33:18</time>
      </trkpt>
      <trkpt lat="38.81585" lon="-0.1302">
        <ele>573.2</ele>
        <time>2021-01-31 14:33:19</time>
      </trkpt>
      <trkpt lat="38.81583" lon="-0.13021">
        <ele>573</ele>
        <time>2021-01-31 14:33:20</time>
      </trkpt>
      <trkpt lat="38.8158" lon="-0.13022">
        <ele>573</ele>
        <time>2021-01-31 14:33:21</time>
      </trkpt>
      <trkpt lat="38.81578" lon="-0.13022">
        <ele>573</ele>
        <time>2021-01-31 14:33:22</time>
      </trkpt>
      <trkpt lat="38.81576" lon="-0.13023">
        <ele>573</ele>
        <time>2021-01-31 14:33:23</time>
      </trkpt>
      <trkpt lat="38.81573" lon="-0.13024">
        <ele>573</ele>
        <time>2021-01-31 14:33:24</time>
      </trkpt>
      <trkpt lat="38.8157" lon="-0.13025">
        <ele>573</ele>
        <time>2021-01-31 14:33:25</time>
      </trkpt>
      <trkpt lat="38.81568" lon="-0.13026">
        <ele>573</ele>
        <time>2021-01-31 14:33:26</time>
      </trkpt>
      <trkpt lat="38.81565" lon="-0.13027">
        <ele>572.8</ele>
        <time>2021-01-31 14:33:27</time>
      </trkpt>
      <trkpt lat="38.81561" lon="-0.13028">
        <ele>572.4</ele>
        <time>2021-01-31 14:33:28</time>
      </trkpt>
      <trkpt lat="38.81558" lon="-0.13029">
        <ele>572.4</ele>
        <time>2021-01-31 14:33:29</time>
      </trkpt>
      <trkpt lat="38.81554" lon="-0.13031">
        <ele>572.4</ele>
        <time>2021-01-31 14:33:30</time>
      </trkpt>
      <trkpt lat="38.8155" lon="-0.13033">
        <ele>572</ele>
        <time>2021-01-31 14:33:31</time>
      </trkpt>
      <trkpt lat="38.81546" lon="-0.13034">
        <ele>571.6</ele>
        <time>2021-01-31 14:33:32</time>
      </trkpt>
      <trkpt lat="38.81542" lon="-0.13036">
        <ele>571.6</ele>
        <time>2021-01-31 14:33:33</time>
      </trkpt>
      <trkpt lat="38.81538" lon="-0.13038">
        <ele>571.6</ele>
        <time>2021-01-31 14:33:34</time>
      </trkpt>
      <trkpt lat="38.81533" lon="-0.1304">
        <ele>571.6</ele>
        <time>2021-01-31 14:33:35</time>
      </trkpt>
      <trkpt lat="38.81528" lon="-0.13042">
        <ele>570.2</ele>
        <time>2021-01-31 14:33:36</time>
      </trkpt>
      <trkpt lat="38.81523" lon="-0.13044">
        <ele>570.2</ele>
        <time>2021-01-31 14:33:37</time>
      </trkpt>
      <trkpt lat="38.81518" lon="-0.13046">
        <ele>570.2</ele>
        <time>2021-01-31 14:33:38</time>
      </trkpt>
      <trkpt lat="38.81512" lon="-0.13048">
        <ele>570.6</ele>
        <time>2021-01-31 14:33:39</time>
      </trkpt>
      <trkpt lat="38.81507" lon="-0.1305">
        <ele>569.8</ele>
        <time>2021-01-31 14:33:40</time>
      </trkpt>
      <trkpt lat="38.81501" lon="-0.13053">
        <ele>569.8</ele>
        <time>2021-01-31 14:33:41</time>
      </trkpt>
      <trkpt lat="38.81496" lon="-0.13055">
        <ele>569.8</ele>
        <time>2021-01-31 14:33:42</time>
      </trkpt>
      <trkpt lat="38.8149" lon="-0.13058">
        <ele>569.8</ele>
        <time>2021-01-31 14:33:43</time>
      </trkpt>
      <trkpt lat="38.81484" lon="-0.13061">
        <ele>569.2</ele>
        <time>2021-01-31 14:33:44</time>
      </trkpt>
      <trkpt lat="38.81479" lon="-0.13064">
        <ele>569.2</ele>
        <time>2021-01-31 14:33:45</time>
      </trkpt>
      <trkpt lat="38.81473" lon="-0.13067">
        <ele>569.2</ele>
        <time>2021-01-31 14:33:46</time>
      </trkpt>
      <trkpt lat="38.81468" lon="-0.13071">
        <ele>568.4</ele>
        <time>2021-01-31 14:33:47</time>
      </trkpt>
      <trkpt lat="38.81462" lon="-0.13075">
        <ele>568</ele>
        <time>2021-01-31 14:33:48</time>
      </trkpt>
      <trkpt lat="38.81457" lon="-0.13079">
        <ele>568</ele>
        <time>2021-01-31 14:33:49</time>
      </trkpt>
      <trkpt lat="38.81451" lon="-0.13083">
        <ele>568</ele>
        <time>2021-01-31 14:33:50</time>
      </trkpt>
      <trkpt lat="38.81445" lon="-0.13087">
        <ele>567.6</ele>
        <time>2021-01-31 14:33:51</time>
      </trkpt>
      <trkpt lat="38.8144" lon="-0.13091">
        <ele>566.6</ele>
        <time>2021-01-31 14:33:52</time>
      </trkpt>
      <trkpt lat="38.81434" lon="-0.13096">
        <ele>566.6</ele>
        <time>2021-01-31 14:33:53</time>
      </trkpt>
      <trkpt lat="38.81428" lon="-0.131">
        <ele>566.6</ele>
        <time>2021-01-31 14:33:54</time>
      </trkpt>
      <trkpt lat="38.81422" lon="-0.13104">
        <ele>567.6</ele>
        <time>2021-01-31 14:33:55</time>
      </trkpt>
      <trkpt lat="38.81416" lon="-0.13108">
        <ele>566.6</ele>
        <time>2021-01-31 14:33:56</time>
      </trkpt>
      <trkpt lat="38.8141" lon="-0.13113">
        <ele>566.6</ele>
        <time>2021-01-31 14:33:57</time>
      </trkpt>
      <trkpt lat="38.81403" lon="-0.13117">
        <ele>566.6</ele>
        <time>2021-01-31 14:33:58</time>
      </trkpt>
      <trkpt lat="38.81397" lon="-0.13121">
        <ele>565.6</ele>
        <time>2021-01-31 14:33:59</time>
      </trkpt>
      <trkpt lat="38.81391" lon="-0.13126">
        <ele>565.2</ele>
        <time>2021-01-31 14:34:00</time>
      </trkpt>
      <trkpt lat="38.81385" lon="-0.13131">
        <ele>565.2</ele>
        <time>2021-01-31 14:34:01</time>
      </trkpt>
      <trkpt lat="38.81378" lon="-0.13135">
        <ele>565.2</ele>
        <time>2021-01-31 14:34:02</time>
      </trkpt>
      <trkpt lat="38.81372" lon="-0.1314">
        <ele>565.2</ele>
        <time>2021-01-31 14:34:03</time>
      </trkpt>
      <trkpt lat="38.81366" lon="-0.13145">
        <ele>565.4</ele>
        <time>2021-01-31 14:34:04</time>
      </trkpt>
      <trkpt lat="38.81359" lon="-0.1315">
        <ele>565.4</ele>
        <time>2021-01-31 14:34:05</time>
      </trkpt>
      <trkpt lat="38.81352" lon="-0.13154">
        <ele>565.4</ele>
        <time>2021-01-31 14:34:06</time>
      </trkpt>
      <trkpt lat="38.81345" lon="-0.13158">
        <ele>564.8</ele>
        <time>2021-01-31 14:34:07</time>
      </trkpt>
      <trkpt lat="38.81338" lon="-0.13163">
        <ele>564.2</ele>
        <time>2021-01-31 14:34:08</time>
      </trkpt>
      <trkpt lat="38.81331" lon="-0.13169">
        <ele>564.2</ele>
        <time>2021-01-31 14:34:09</time>
      </trkpt>
      <trkpt lat="38.81323" lon="-0.13174">
        <ele>564.2</ele>
        <time>2021-01-31 14:34:10</time>
      </trkpt>
      <trkpt lat="38.81316" lon="-0.1318">
        <ele>563.2</ele>
        <time>2021-01-31 14:34:11</time>
      </trkpt>
      <trkpt lat="38.81308" lon="-0.13186">
        <ele>561.6</ele>
        <time>2021-01-31 14:34:12</time>
      </trkpt>
      <trkpt lat="38.813" lon="-0.13193">
        <ele>561.6</ele>
        <time>2021-01-31 14:34:13</time>
      </trkpt>
      <trkpt lat="38.81293" lon="-0.13202">
        <ele>561.6</ele>
        <time>2021-01-31 14:34:14</time>
      </trkpt>
      <trkpt lat="38.81288" lon="-0.13213">
        <ele>560.6</ele>
        <time>2021-01-31 14:34:15</time>
      </trkpt>
      <trkpt lat="38.81285" lon="-0.13226">
        <ele>558.2</ele>
        <time>2021-01-31 14:34:16</time>
      </trkpt>
      <trkpt lat="38.81285" lon="-0.13239">
        <ele>558.2</ele>
        <time>2021-01-31 14:34:17</time>
      </trkpt>
      <trkpt lat="38.81283" lon="-0.13251">
        <ele>558.2</ele>
        <time>2021-01-31 14:34:18</time>
      </trkpt>
      <trkpt lat="38.81279" lon="-0.13263">
        <ele>557.2</ele>
        <time>2021-01-31 14:34:19</time>
      </trkpt>
      <trkpt lat="38.81273" lon="-0.13271">
        <ele>556.6</ele>
        <time>2021-01-31 14:34:20</time>
      </trkpt>
      <trkpt lat="38.81264" lon="-0.13278">
        <ele>556.6</ele>
        <time>2021-01-31 14:34:21</time>
      </trkpt>
      <trkpt lat="38.81254" lon="-0.1328">
        <ele>556.6</ele>
        <time>2021-01-31 14:34:22</time>
      </trkpt>
      <trkpt lat="38.81243" lon="-0.13281">
        <ele>556.6</ele>
        <time>2021-01-31 14:34:23</time>
      </trkpt>
      <trkpt lat="38.81233" lon="-0.13286">
        <ele>553.2</ele>
        <time>2021-01-31 14:34:24</time>
      </trkpt>
      <trkpt lat="38.81223" lon="-0.13294">
        <ele>553.2</ele>
        <time>2021-01-31 14:34:25</time>
      </trkpt>
      <trkpt lat="38.81215" lon="-0.13304">
        <ele>553.2</ele>
        <time>2021-01-31 14:34:26</time>
      </trkpt>
      <trkpt lat="38.81206" lon="-0.13314">
        <ele>552.2</ele>
        <time>2021-01-31 14:34:27</time>
      </trkpt>
      <trkpt lat="38.81196" lon="-0.13323">
        <ele>545</ele>
        <time>2021-01-31 14:34:28</time>
      </trkpt>
      <trkpt lat="38.81187" lon="-0.13331">
        <ele>545</ele>
        <time>2021-01-31 14:34:29</time>
      </trkpt>
      <trkpt lat="38.81177" lon="-0.13339">
        <ele>545</ele>
        <time>2021-01-31 14:34:30</time>
      </trkpt>
      <trkpt lat="38.81168" lon="-0.13344">
        <ele>545</ele>
        <time>2021-01-31 14:34:31</time>
      </trkpt>
      <trkpt lat="38.81157" lon="-0.13346">
        <ele>543.2</ele>
        <time>2021-01-31 14:34:32</time>
      </trkpt>
      <trkpt lat="38.81147" lon="-0.13348">
        <ele>543.2</ele>
        <time>2021-01-31 14:34:33</time>
      </trkpt>
      <trkpt lat="38.81138" lon="-0.13352">
        <ele>543.2</ele>
        <time>2021-01-31 14:34:34</time>
      </trkpt>
      <trkpt lat="38.8113" lon="-0.13358">
        <ele>543.2</ele>
        <time>2021-01-31 14:34:35</time>
      </trkpt>
      <trkpt lat="38.81122" lon="-0.13366">
        <ele>541.8</ele>
        <time>2021-01-31 14:34:36</time>
      </trkpt>
      <trkpt lat="38.81116" lon="-0.13374">
        <ele>541.8</ele>
        <time>2021-01-31 14:34:37</time>
      </trkpt>
      <trkpt lat="38.81109" lon="-0.13383">
        <ele>541.8</ele>
        <time>2021-01-31 14:34:38</time>
      </trkpt>
      <trkpt lat="38.81103" lon="-0.13392">
        <ele>540.8</ele>
        <time>2021-01-31 14:34:39</time>
      </trkpt>
      <trkpt lat="38.81096" lon="-0.13401">
        <ele>533.8</ele>
        <time>2021-01-31 14:34:40</time>
      </trkpt>
      <trkpt lat="38.81091" lon="-0.13411">
        <ele>533.8</ele>
        <time>2021-01-31 14:34:41</time>
      </trkpt>
      <trkpt lat="38.81086" lon="-0.13422">
        <ele>533.8</ele>
        <time>2021-01-31 14:34:42</time>
      </trkpt>
      <trkpt lat="38.81084" lon="-0.13435">
        <ele>533.8</ele>
        <time>2021-01-31 14:34:43</time>
      </trkpt>
      <trkpt lat="38.81083" lon="-0.13448">
        <ele>530.4</ele>
        <time>2021-01-31 14:34:44</time>
      </trkpt>
      <trkpt lat="38.81083" lon="-0.13462">
        <ele>530.4</ele>
        <time>2021-01-31 14:34:45</time>
      </trkpt>
      <trkpt lat="38.81084" lon="-0.13475">
        <ele>530.4</ele>
        <time>2021-01-31 14:34:46</time>
      </trkpt>
      <trkpt lat="38.81085" lon="-0.13489">
        <ele>530.4</ele>
        <time>2021-01-31 14:34:47</time>
      </trkpt>
      <trkpt lat="38.81087" lon="-0.13503">
        <ele>528</ele>
        <time>2021-01-31 14:34:48</time>
      </trkpt>
      <trkpt lat="38.81089" lon="-0.13516">
        <ele>528</ele>
        <time>2021-01-31 14:34:49</time>
      </trkpt>
      <trkpt lat="38.81091" lon="-0.1353">
        <ele>528</ele>
        <time>2021-01-31 14:34:50</time>
      </trkpt>
      <trkpt lat="38.81093" lon="-0.13543">
        <ele>527</ele>
        <time>2021-01-31 14:34:51</time>
      </trkpt>
      <trkpt lat="38.81094" lon="-0.13557">
        <ele>522.4</ele>
        <time>2021-01-31 14:34:52</time>
      </trkpt>
      <trkpt lat="38.81095" lon="-0.13571">
        <ele>522.4</ele>
        <time>2021-01-31 14:34:53</time>
      </trkpt>
      <trkpt lat="38.81094" lon="-0.13584">
        <ele>522.4</ele>
        <time>2021-01-31 14:34:54</time>
      </trkpt>
      <trkpt lat="38.8109" lon="-0.13596">
        <ele>522.4</ele>
        <time>2021-01-31 14:34:55</time>
      </trkpt>
      <trkpt lat="38.81084" lon="-0.13606">
        <ele>526</ele>
        <time>2021-01-31 14:34:56</time>
      </trkpt>
      <trkpt lat="38.81077" lon="-0.13615">
        <ele>526</ele>
        <time>2021-01-31 14:34:57</time>
      </trkpt>
      <trkpt lat="38.81069" lon="-0.13622">
        <ele>526</ele>
        <time>2021-01-31 14:34:58</time>
      </trkpt>
      <trkpt lat="38.81061" lon="-0.13629">
        <ele>526</ele>
        <time>2021-01-31 14:34:59</time>
      </trkpt>
      <trkpt lat="38.81054" lon="-0.13635">
        <ele>529.8</ele>
        <time>2021-01-31 14:35:00</time>
      </trkpt>
      <trkpt lat="38.81047" lon="-0.13641">
        <ele>529.8</ele>
        <time>2021-01-31 14:35:01</time>
      </trkpt>
      <trkpt lat="38.8104" lon="-0.13646">
        <ele>529.8</ele>
        <time>2021-01-31 14:35:02</time>
      </trkpt>
      <trkpt lat="38.81034" lon="-0.13652">
        <ele>528.8</ele>
        <time>2021-01-31 14:35:03</time>
      </trkpt>
      <trkpt lat="38.81028" lon="-0.13657">
        <ele>527.4</ele>
        <time>2021-01-31 14:35:04</time>
      </trkpt>
      <trkpt lat="38.81022" lon="-0.13663">
        <ele>527.4</ele>
        <time>2021-01-31 14:35:05</time>
      </trkpt>
      <trkpt lat="38.81016" lon="-0.13668">
        <ele>527.4</ele>
        <time>2021-01-31 14:35:06</time>
      </trkpt>
      <trkpt lat="38.81009" lon="-0.13674">
        <ele>527.4</ele>
        <time>2021-01-31 14:35:07</time>
      </trkpt>
      <trkpt lat="38.81003" lon="-0.13679">
        <ele>527.8</ele>
        <time>2021-01-31 14:35:08</time>
      </trkpt>
      <trkpt lat="38.80998" lon="-0.13686">
        <ele>527.8</ele>
        <time>2021-01-31 14:35:09</time>
      </trkpt>
      <trkpt lat="38.80993" lon="-0.13693">
        <ele>527.8</ele>
        <time>2021-01-31 14:35:10</time>
      </trkpt>
      <trkpt lat="38.8099" lon="-0.13701">
        <ele>526.8</ele>
        <time>2021-01-31 14:35:11</time>
      </trkpt>
      <trkpt lat="38.80987" lon="-0.1371">
        <ele>524.8</ele>
        <time>2021-01-31 14:35:12</time>
      </trkpt>
      <trkpt lat="38.80985" lon="-0.13719">
        <ele>524.8</ele>
        <time>2021-01-31 14:35:13</time>
      </trkpt>
      <trkpt lat="38.80983" lon="-0.13728">
        <ele>524.8</ele>
        <time>2021-01-31 14:35:14</time>
      </trkpt>
      <trkpt lat="38.80982" lon="-0.13737">
        <ele>524</ele>
        <time>2021-01-31 14:35:15</time>
      </trkpt>
      <trkpt lat="38.80981" lon="-0.13746">
        <ele>522.2</ele>
        <time>2021-01-31 14:35:16</time>
      </trkpt>
      <trkpt lat="38.80979" lon="-0.13755">
        <ele>522.2</ele>
        <time>2021-01-31 14:35:17</time>
      </trkpt>
      <trkpt lat="38.80978" lon="-0.13764">
        <ele>522.2</ele>
        <time>2021-01-31 14:35:18</time>
      </trkpt>
      <trkpt lat="38.80977" lon="-0.13773">
        <ele>522.2</ele>
        <time>2021-01-31 14:35:19</time>
      </trkpt>
      <trkpt lat="38.80976" lon="-0.13782">
        <ele>521.8</ele>
        <time>2021-01-31 14:35:20</time>
      </trkpt>
      <trkpt lat="38.80974" lon="-0.13792">
        <ele>521.8</ele>
        <time>2021-01-31 14:35:21</time>
      </trkpt>
      <trkpt lat="38.80973" lon="-0.13801">
        <ele>521.8</ele>
        <time>2021-01-31 14:35:22</time>
      </trkpt>
      <trkpt lat="38.80972" lon="-0.1381">
        <ele>521.8</ele>
        <time>2021-01-31 14:35:23</time>
      </trkpt>
      <trkpt lat="38.8097" lon="-0.13819">
        <ele>521</ele>
        <time>2021-01-31 14:35:24</time>
      </trkpt>
      <trkpt lat="38.80968" lon="-0.13827">
        <ele>521</ele>
        <time>2021-01-31 14:35:25</time>
      </trkpt>
      <trkpt lat="38.80965" lon="-0.13834">
        <ele>521</ele>
        <time>2021-01-31 14:35:26</time>
      </trkpt>
      <trkpt lat="38.80962" lon="-0.13841">
        <ele>520.8</ele>
        <time>2021-01-31 14:35:27</time>
      </trkpt>
      <trkpt lat="38.80959" lon="-0.13847">
        <ele>519.4</ele>
        <time>2021-01-31 14:35:28</time>
      </trkpt>
      <trkpt lat="38.80956" lon="-0.13853">
        <ele>519.4</ele>
        <time>2021-01-31 14:35:29</time>
      </trkpt>
      <trkpt lat="38.80955" lon="-0.13859">
        <ele>519.4</ele>
        <time>2021-01-31 14:35:30</time>
      </trkpt>
      <trkpt lat="38.80957" lon="-0.13866">
        <ele>519.4</ele>
        <time>2021-01-31 14:35:31</time>
      </trkpt>
      <trkpt lat="38.80961" lon="-0.13871">
        <ele>518.8</ele>
        <time>2021-01-31 14:35:32</time>
      </trkpt>
      <trkpt lat="38.80966" lon="-0.13873">
        <ele>518.8</ele>
        <time>2021-01-31 14:35:33</time>
      </trkpt>
      <trkpt lat="38.80972" lon="-0.1387">
        <ele>518.8</ele>
        <time>2021-01-31 14:35:34</time>
      </trkpt>
      <trkpt lat="38.80976" lon="-0.13863">
        <ele>519.2</ele>
        <time>2021-01-31 14:35:35</time>
      </trkpt>
      <trkpt lat="38.80978" lon="-0.13855">
        <ele>519.4</ele>
        <time>2021-01-31 14:35:36</time>
      </trkpt>
      <trkpt lat="38.80982" lon="-0.13846">
        <ele>519.4</ele>
        <time>2021-01-31 14:35:37</time>
      </trkpt>
      <trkpt lat="38.80987" lon="-0.13838">
        <ele>519.4</ele>
        <time>2021-01-31 14:35:38</time>
      </trkpt>
      <trkpt lat="38.80996" lon="-0.13833">
        <ele>518.4</ele>
        <time>2021-01-31 14:35:39</time>
      </trkpt>
      <trkpt lat="38.81004" lon="-0.1383">
        <ele>512.6</ele>
        <time>2021-01-31 14:35:40</time>
      </trkpt>
      <trkpt lat="38.81013" lon="-0.13826">
        <ele>512.6</ele>
        <time>2021-01-31 14:35:41</time>
      </trkpt>
      <trkpt lat="38.81022" lon="-0.13823">
        <ele>512.6</ele>
        <time>2021-01-31 14:35:42</time>
      </trkpt>
      <trkpt lat="38.81033" lon="-0.1382">
        <ele>512.6</ele>
        <time>2021-01-31 14:35:43</time>
      </trkpt>
      <trkpt lat="38.81045" lon="-0.13818">
        <ele>509.8</ele>
        <time>2021-01-31 14:35:44</time>
      </trkpt>
      <trkpt lat="38.81055" lon="-0.13817">
        <ele>509.8</ele>
        <time>2021-01-31 14:35:45</time>
      </trkpt>
      <trkpt lat="38.81066" lon="-0.13818">
        <ele>509.8</ele>
        <time>2021-01-31 14:35:46</time>
      </trkpt>
      <trkpt lat="38.81074" lon="-0.13817">
        <ele>509</ele>
        <time>2021-01-31 14:35:47</time>
      </trkpt>
      <trkpt lat="38.81082" lon="-0.13813">
        <ele>510.8</ele>
        <time>2021-01-31 14:35:48</time>
      </trkpt>
      <trkpt lat="38.81088" lon="-0.13806">
        <ele>510.8</ele>
        <time>2021-01-31 14:35:49</time>
      </trkpt>
      <trkpt lat="38.81092" lon="-0.13796">
        <ele>510.8</ele>
        <time>2021-01-31 14:35:50</time>
      </trkpt>
      <trkpt lat="38.81095" lon="-0.13785">
        <ele>510.8</ele>
        <time>2021-01-31 14:35:51</time>
      </trkpt>
      <trkpt lat="38.81098" lon="-0.13773">
        <ele>506.8</ele>
        <time>2021-01-31 14:35:52</time>
      </trkpt>
      <trkpt lat="38.81101" lon="-0.13761">
        <ele>506.8</ele>
        <time>2021-01-31 14:35:53</time>
      </trkpt>
      <trkpt lat="38.81104" lon="-0.13749">
        <ele>506.8</ele>
        <time>2021-01-31 14:35:54</time>
      </trkpt>
      <trkpt lat="38.81109" lon="-0.13737">
        <ele>505.8</ele>
        <time>2021-01-31 14:35:55</time>
      </trkpt>
      <trkpt lat="38.81113" lon="-0.13725">
        <ele>502.6</ele>
        <time>2021-01-31 14:35:56</time>
      </trkpt>
      <trkpt lat="38.81119" lon="-0.13714">
        <ele>502.6</ele>
        <time>2021-01-31 14:35:57</time>
      </trkpt>
      <trkpt lat="38.81123" lon="-0.13705">
        <ele>502.6</ele>
        <time>2021-01-31 14:35:58</time>
      </trkpt>
      <trkpt lat="38.81128" lon="-0.13697">
        <ele>502.6</ele>
        <time>2021-01-31 14:35:59</time>
      </trkpt>
      <trkpt lat="38.81134" lon="-0.13694">
        <ele>503.4</ele>
        <time>2021-01-31 14:36:00</time>
      </trkpt>
      <trkpt lat="38.81141" lon="-0.13693">
        <ele>503.4</ele>
        <time>2021-01-31 14:36:01</time>
      </trkpt>
      <trkpt lat="38.81148" lon="-0.13698">
        <ele>503.4</ele>
        <time>2021-01-31 14:36:02</time>
      </trkpt>
      <trkpt lat="38.81154" lon="-0.13704">
        <ele>503.4</ele>
        <time>2021-01-31 14:36:03</time>
      </trkpt>
      <trkpt lat="38.81154" lon="-0.13714">
        <ele>500.6</ele>
        <time>2021-01-31 14:36:04</time>
      </trkpt>
      <trkpt lat="38.81153" lon="-0.13723">
        <ele>500.6</ele>
        <time>2021-01-31 14:36:05</time>
      </trkpt>
      <trkpt lat="38.8115" lon="-0.13733">
        <ele>500.6</ele>
        <time>2021-01-31 14:36:06</time>
      </trkpt>
      <trkpt lat="38.81148" lon="-0.13743">
        <ele>499.6</ele>
        <time>2021-01-31 14:36:07</time>
      </trkpt>
      <trkpt lat="38.81146" lon="-0.13754">
        <ele>493.2</ele>
        <time>2021-01-31 14:36:08</time>
      </trkpt>
      <trkpt lat="38.81145" lon="-0.13765">
        <ele>493.2</ele>
        <time>2021-01-31 14:36:09</time>
      </trkpt>
      <trkpt lat="38.81144" lon="-0.13776">
        <ele>493.2</ele>
        <time>2021-01-31 14:36:10</time>
      </trkpt>
      <trkpt lat="38.81143" lon="-0.13787">
        <ele>492.2</ele>
        <time>2021-01-31 14:36:11</time>
      </trkpt>
      <trkpt lat="38.81142" lon="-0.13797">
        <ele>488.4</ele>
        <time>2021-01-31 14:36:12</time>
      </trkpt>
      <trkpt lat="38.81142" lon="-0.13808">
        <ele>488.4</ele>
        <time>2021-01-31 14:36:13</time>
      </trkpt>
      <trkpt lat="38.81141" lon="-0.13818">
        <ele>488.4</ele>
        <time>2021-01-31 14:36:14</time>
      </trkpt>
      <trkpt lat="38.81141" lon="-0.13829">
        <ele>487.4</ele>
        <time>2021-01-31 14:36:15</time>
      </trkpt>
      <trkpt lat="38.81141" lon="-0.13839">
        <ele>486.2</ele>
        <time>2021-01-31 14:36:16</time>
      </trkpt>
      <trkpt lat="38.81142" lon="-0.13849">
        <ele>486.2</ele>
        <time>2021-01-31 14:36:17</time>
      </trkpt>
      <trkpt lat="38.81143" lon="-0.1386">
        <ele>486.2</ele>
        <time>2021-01-31 14:36:18</time>
      </trkpt>
      <trkpt lat="38.81145" lon="-0.13871">
        <ele>486.2</ele>
        <time>2021-01-31 14:36:19</time>
      </trkpt>
      <trkpt lat="38.81147" lon="-0.13883">
        <ele>483.8</ele>
        <time>2021-01-31 14:36:20</time>
      </trkpt>
      <trkpt lat="38.81149" lon="-0.13895">
        <ele>483.8</ele>
        <time>2021-01-31 14:36:21</time>
      </trkpt>
      <trkpt lat="38.81151" lon="-0.13906">
        <ele>483.8</ele>
        <time>2021-01-31 14:36:22</time>
      </trkpt>
      <trkpt lat="38.81152" lon="-0.13918">
        <ele>482.8</ele>
        <time>2021-01-31 14:36:23</time>
      </trkpt>
      <trkpt lat="38.81151" lon="-0.1393">
        <ele>479.2</ele>
        <time>2021-01-31 14:36:24</time>
      </trkpt>
      <trkpt lat="38.81151" lon="-0.13942">
        <ele>479.2</ele>
        <time>2021-01-31 14:36:25</time>
      </trkpt>
      <trkpt lat="38.81153" lon="-0.13953">
        <ele>479.2</ele>
        <time>2021-01-31 14:36:26</time>
      </trkpt>
      <trkpt lat="38.81156" lon="-0.13964">
        <ele>479.2</ele>
        <time>2021-01-31 14:36:27</time>
      </trkpt>
      <trkpt lat="38.8116" lon="-0.13974">
        <ele>477.2</ele>
        <time>2021-01-31 14:36:28</time>
      </trkpt>
      <trkpt lat="38.81165" lon="-0.13985">
        <ele>477.2</ele>
        <time>2021-01-31 14:36:29</time>
      </trkpt>
      <trkpt lat="38.8117" lon="-0.13995">
        <ele>477.2</ele>
        <time>2021-01-31 14:36:30</time>
      </trkpt>
      <trkpt lat="38.81175" lon="-0.14005">
        <ele>477</ele>
        <time>2021-01-31 14:36:31</time>
      </trkpt>
      <trkpt lat="38.8118" lon="-0.14014">
        <ele>476</ele>
        <time>2021-01-31 14:36:32</time>
      </trkpt>
      <trkpt lat="38.81183" lon="-0.14023">
        <ele>476</ele>
        <time>2021-01-31 14:36:33</time>
      </trkpt>
      <trkpt lat="38.81184" lon="-0.14033">
        <ele>476</ele>
        <time>2021-01-31 14:36:34</time>
      </trkpt>
      <trkpt lat="38.81181" lon="-0.14044">
        <ele>476</ele>
        <time>2021-01-31 14:36:35</time>
      </trkpt>
      <trkpt lat="38.81176" lon="-0.14053">
        <ele>477.4</ele>
        <time>2021-01-31 14:36:36</time>
      </trkpt>
      <trkpt lat="38.8117" lon="-0.1406">
        <ele>477.4</ele>
        <time>2021-01-31 14:36:37</time>
      </trkpt>
      <trkpt lat="38.81163" lon="-0.14066">
        <ele>477.4</ele>
        <time>2021-01-31 14:36:38</time>
      </trkpt>
      <trkpt lat="38.81155" lon="-0.14071">
        <ele>476.4</ele>
        <time>2021-01-31 14:36:39</time>
      </trkpt>
      <trkpt lat="38.81149" lon="-0.14079">
        <ele>472</ele>
        <time>2021-01-31 14:36:40</time>
      </trkpt>
      <trkpt lat="38.81145" lon="-0.14088">
        <ele>472</ele>
        <time>2021-01-31 14:36:41</time>
      </trkpt>
      <trkpt lat="38.81143" lon="-0.14098">
        <ele>472</ele>
        <time>2021-01-31 14:36:42</time>
      </trkpt>
      <trkpt lat="38.81143" lon="-0.14109">
        <ele>471</ele>
        <time>2021-01-31 14:36:43</time>
      </trkpt>
      <trkpt lat="38.81142" lon="-0.1412">
        <ele>468.2</ele>
        <time>2021-01-31 14:36:44</time>
      </trkpt>
      <trkpt lat="38.81142" lon="-0.1413">
        <ele>468.2</ele>
        <time>2021-01-31 14:36:45</time>
      </trkpt>
      <trkpt lat="38.81141" lon="-0.14141">
        <ele>468.2</ele>
        <time>2021-01-31 14:36:46</time>
      </trkpt>
      <trkpt lat="38.81141" lon="-0.14152">
        <ele>468.2</ele>
        <time>2021-01-31 14:36:47</time>
      </trkpt>
      <trkpt lat="38.81141" lon="-0.14162">
        <ele>467.6</ele>
        <time>2021-01-31 14:36:48</time>
      </trkpt>
      <trkpt lat="38.81141" lon="-0.14172">
        <ele>467.6</ele>
        <time>2021-01-31 14:36:49</time>
      </trkpt>
      <trkpt lat="38.81142" lon="-0.14182">
        <ele>467.6</ele>
        <time>2021-01-31 14:36:50</time>
      </trkpt>
      <trkpt lat="38.81145" lon="-0.14192">
        <ele>467.6</ele>
        <time>2021-01-31 14:36:51</time>
      </trkpt>
      <trkpt lat="38.81149" lon="-0.14201">
        <ele>463.4</ele>
        <time>2021-01-31 14:36:52</time>
      </trkpt>
      <trkpt lat="38.81155" lon="-0.14209">
        <ele>463.4</ele>
        <time>2021-01-31 14:36:53</time>
      </trkpt>
      <trkpt lat="38.8116" lon="-0.14218">
        <ele>463.4</ele>
        <time>2021-01-31 14:36:54</time>
      </trkpt>
      <trkpt lat="38.81165" lon="-0.14228">
        <ele>463.4</ele>
        <time>2021-01-31 14:36:55</time>
      </trkpt>
      <trkpt lat="38.81168" lon="-0.1424">
        <ele>462.6</ele>
        <time>2021-01-31 14:36:56</time>
      </trkpt>
      <trkpt lat="38.81171" lon="-0.14252">
        <ele>462.6</ele>
        <time>2021-01-31 14:36:57</time>
      </trkpt>
      <trkpt lat="38.81175" lon="-0.14263">
        <ele>462.6</ele>
        <time>2021-01-31 14:36:58</time>
      </trkpt>
      <trkpt lat="38.81181" lon="-0.14273">
        <ele>462.6</ele>
        <time>2021-01-31 14:36:59</time>
      </trkpt>
      <trkpt lat="38.81186" lon="-0.14282">
        <ele>461.6</ele>
        <time>2021-01-31 14:37:00</time>
      </trkpt>
      <trkpt lat="38.8119" lon="-0.14293">
        <ele>461.6</ele>
        <time>2021-01-31 14:37:01</time>
      </trkpt>
      <trkpt lat="38.81191" lon="-0.14305">
        <ele>461.6</ele>
        <time>2021-01-31 14:37:02</time>
      </trkpt>
      <trkpt lat="38.81188" lon="-0.14316">
        <ele>461.6</ele>
        <time>2021-01-31 14:37:03</time>
      </trkpt>
      <trkpt lat="38.81182" lon="-0.14326">
        <ele>460.6</ele>
        <time>2021-01-31 14:37:04</time>
      </trkpt>
      <trkpt lat="38.81174" lon="-0.14333">
        <ele>460.6</ele>
        <time>2021-01-31 14:37:05</time>
      </trkpt>
      <trkpt lat="38.81163" lon="-0.14337">
        <ele>460.6</ele>
        <time>2021-01-31 14:37:06</time>
      </trkpt>
      <trkpt lat="38.81154" lon="-0.14341">
        <ele>459.6</ele>
        <time>2021-01-31 14:37:07</time>
      </trkpt>
      <trkpt lat="38.81145" lon="-0.14348">
        <ele>452.4</ele>
        <time>2021-01-31 14:37:08</time>
      </trkpt>
      <trkpt lat="38.81138" lon="-0.14357">
        <ele>452.4</ele>
        <time>2021-01-31 14:37:09</time>
      </trkpt>
      <trkpt lat="38.81132" lon="-0.14367">
        <ele>452.4</ele>
        <time>2021-01-31 14:37:10</time>
      </trkpt>
      <trkpt lat="38.81126" lon="-0.14377">
        <ele>451.4</ele>
        <time>2021-01-31 14:37:11</time>
      </trkpt>
      <trkpt lat="38.8112" lon="-0.14388">
        <ele>448.8</ele>
        <time>2021-01-31 14:37:12</time>
      </trkpt>
      <trkpt lat="38.81115" lon="-0.14399">
        <ele>448.8</ele>
        <time>2021-01-31 14:37:13</time>
      </trkpt>
      <trkpt lat="38.81111" lon="-0.14411">
        <ele>448.8</ele>
        <time>2021-01-31 14:37:14</time>
      </trkpt>
      <trkpt lat="38.81108" lon="-0.14422">
        <ele>448.6</ele>
        <time>2021-01-31 14:37:15</time>
      </trkpt>
      <trkpt lat="38.81106" lon="-0.14434">
        <ele>448.8</ele>
        <time>2021-01-31 14:37:16</time>
      </trkpt>
      <trkpt lat="38.81105" lon="-0.14446">
        <ele>448.8</ele>
        <time>2021-01-31 14:37:17</time>
      </trkpt>
      <trkpt lat="38.81106" lon="-0.14457">
        <ele>448.8</ele>
        <time>2021-01-31 14:37:18</time>
      </trkpt>
      <trkpt lat="38.81105" lon="-0.14469">
        <ele>448.8</ele>
        <time>2021-01-31 14:37:19</time>
      </trkpt>
      <trkpt lat="38.81104" lon="-0.1448">
        <ele>447.8</ele>
        <time>2021-01-31 14:37:20</time>
      </trkpt>
      <trkpt lat="38.81102" lon="-0.14491">
        <ele>447.8</ele>
        <time>2021-01-31 14:37:21</time>
      </trkpt>
      <trkpt lat="38.81099" lon="-0.14502">
        <ele>447.8</ele>
        <time>2021-01-31 14:37:22</time>
      </trkpt>
      <trkpt lat="38.81096" lon="-0.14513">
        <ele>447</ele>
        <time>2021-01-31 14:37:23</time>
      </trkpt>
      <trkpt lat="38.81092" lon="-0.14524">
        <ele>447.6</ele>
        <time>2021-01-31 14:37:24</time>
      </trkpt>
      <trkpt lat="38.81088" lon="-0.14535">
        <ele>447.6</ele>
        <time>2021-01-31 14:37:25</time>
      </trkpt>
      <trkpt lat="38.81085" lon="-0.14546">
        <ele>447.6</ele>
        <time>2021-01-31 14:37:26</time>
      </trkpt>
      <trkpt lat="38.81081" lon="-0.14557">
        <ele>446.6</ele>
        <time>2021-01-31 14:37:27</time>
      </trkpt>
      <trkpt lat="38.81078" lon="-0.14567">
        <ele>445</ele>
        <time>2021-01-31 14:37:28</time>
      </trkpt>
      <trkpt lat="38.81077" lon="-0.14578">
        <ele>445</ele>
        <time>2021-01-31 14:37:29</time>
      </trkpt>
      <trkpt lat="38.81076" lon="-0.14588">
        <ele>445</ele>
        <time>2021-01-31 14:37:30</time>
      </trkpt>
      <trkpt lat="38.81076" lon="-0.14598">
        <ele>445</ele>
        <time>2021-01-31 14:37:31</time>
      </trkpt>
      <trkpt lat="38.81077" lon="-0.14608">
        <ele>446.6</ele>
        <time>2021-01-31 14:37:32</time>
      </trkpt>
      <trkpt lat="38.81078" lon="-0.14618">
        <ele>446.6</ele>
        <time>2021-01-31 14:37:33</time>
      </trkpt>
      <trkpt lat="38.8108" lon="-0.14628">
        <ele>446.6</ele>
        <time>2021-01-31 14:37:34</time>
      </trkpt>
      <trkpt lat="38.81082" lon="-0.14637">
        <ele>446.6</ele>
        <time>2021-01-31 14:37:35</time>
      </trkpt>
      <trkpt lat="38.81085" lon="-0.14647">
        <ele>444.2</ele>
        <time>2021-01-31 14:37:36</time>
      </trkpt>
      <trkpt lat="38.81087" lon="-0.14657">
        <ele>444.2</ele>
        <time>2021-01-31 14:37:37</time>
      </trkpt>
      <trkpt lat="38.81088" lon="-0.14668">
        <ele>444.2</ele>
        <time>2021-01-31 14:37:38</time>
      </trkpt>
      <trkpt lat="38.81088" lon="-0.14679">
        <ele>444.2</ele>
        <time>2021-01-31 14:37:39</time>
      </trkpt>
      <trkpt lat="38.81086" lon="-0.1469">
        <ele>439.6</ele>
        <time>2021-01-31 14:37:40</time>
      </trkpt>
      <trkpt lat="38.81084" lon="-0.14702">
        <ele>439.6</ele>
        <time>2021-01-31 14:37:41</time>
      </trkpt>
      <trkpt lat="38.81082" lon="-0.14713">
        <ele>439.6</ele>
        <time>2021-01-31 14:37:42</time>
      </trkpt>
      <trkpt lat="38.81082" lon="-0.14725">
        <ele>438.6</ele>
        <time>2021-01-31 14:37:43</time>
      </trkpt>
      <trkpt lat="38.81081" lon="-0.14737">
        <ele>440.2</ele>
        <time>2021-01-31 14:37:44</time>
      </trkpt>
      <trkpt lat="38.81081" lon="-0.14749">
        <ele>440.2</ele>
        <time>2021-01-31 14:37:45</time>
      </trkpt>
      <trkpt lat="38.81082" lon="-0.14761">
        <ele>440.2</ele>
        <time>2021-01-31 14:37:46</time>
      </trkpt>
      <trkpt lat="38.81082" lon="-0.14773">
        <ele>439.2</ele>
        <time>2021-01-31 14:37:47</time>
      </trkpt>
      <trkpt lat="38.81083" lon="-0.14785">
        <ele>435.6</ele>
        <time>2021-01-31 14:37:48</time>
      </trkpt>
      <trkpt lat="38.81083" lon="-0.14796">
        <ele>435.6</ele>
        <time>2021-01-31 14:37:49</time>
      </trkpt>
      <trkpt lat="38.81083" lon="-0.14807">
        <ele>435.6</ele>
        <time>2021-01-31 14:37:50</time>
      </trkpt>
      <trkpt lat="38.81083" lon="-0.14819">
        <ele>435.6</ele>
        <time>2021-01-31 14:37:51</time>
      </trkpt>
      <trkpt lat="38.81082" lon="-0.1483">
        <ele>432.6</ele>
        <time>2021-01-31 14:37:52</time>
      </trkpt>
      <trkpt lat="38.81082" lon="-0.14841">
        <ele>432.6</ele>
        <time>2021-01-31 14:37:53</time>
      </trkpt>
      <trkpt lat="38.81081" lon="-0.14851">
        <ele>432.6</ele>
        <time>2021-01-31 14:37:54</time>
      </trkpt>
      <trkpt lat="38.8108" lon="-0.14862">
        <ele>433.6</ele>
        <time>2021-01-31 14:37:55</time>
      </trkpt>
      <trkpt lat="38.81079" lon="-0.14872">
        <ele>437.2</ele>
        <time>2021-01-31 14:37:56</time>
      </trkpt>
      <trkpt lat="38.81078" lon="-0.14883">
        <ele>437.2</ele>
        <time>2021-01-31 14:37:57</time>
      </trkpt>
      <trkpt lat="38.81077" lon="-0.14894">
        <ele>437.2</ele>
        <time>2021-01-31 14:37:58</time>
      </trkpt>
      <trkpt lat="38.81076" lon="-0.14905">
        <ele>437.2</ele>
        <time>2021-01-31 14:37:59</time>
      </trkpt>
      <trkpt lat="38.81075" lon="-0.14915">
        <ele>430.8</ele>
        <time>2021-01-31 14:38:00</time>
      </trkpt>
      <trkpt lat="38.81075" lon="-0.14926">
        <ele>430.8</ele>
        <time>2021-01-31 14:38:01</time>
      </trkpt>
      <trkpt lat="38.81075" lon="-0.14926">
        <ele>430.8</ele>
        <time>2021-01-31 14:38:02</time>
      </trkpt>
      <trkpt lat="38.81073" lon="-0.14947">
        <ele>430.8</ele>
        <time>2021-01-31 14:38:03</time>
      </trkpt>
      <trkpt lat="38.81072" lon="-0.14958">
        <ele>429.4</ele>
        <time>2021-01-31 14:38:04</time>
      </trkpt>
      <trkpt lat="38.81071" lon="-0.14969">
        <ele>429.4</ele>
        <time>2021-01-31 14:38:05</time>
      </trkpt>
      <trkpt lat="38.8107" lon="-0.14979">
        <ele>429.4</ele>
        <time>2021-01-31 14:38:06</time>
      </trkpt>
      <trkpt lat="38.81069" lon="-0.14989">
        <ele>428.4</ele>
        <time>2021-01-31 14:38:07</time>
      </trkpt>
      <trkpt lat="38.81068" lon="-0.15">
        <ele>430.4</ele>
        <time>2021-01-31 14:38:08</time>
      </trkpt>
      <trkpt lat="38.81067" lon="-0.1501">
        <ele>430.4</ele>
        <time>2021-01-31 14:38:09</time>
      </trkpt>
      <trkpt lat="38.81066" lon="-0.1502">
        <ele>430.4</ele>
        <time>2021-01-31 14:38:10</time>
      </trkpt>
      <trkpt lat="38.81064" lon="-0.15031">
        <ele>430.4</ele>
        <time>2021-01-31 14:38:11</time>
      </trkpt>
      <trkpt lat="38.81062" lon="-0.15041">
        <ele>427.8</ele>
        <time>2021-01-31 14:38:12</time>
      </trkpt>
      <trkpt lat="38.81059" lon="-0.1505">
        <ele>427.8</ele>
        <time>2021-01-31 14:38:13</time>
      </trkpt>
      <trkpt lat="38.81055" lon="-0.15059">
        <ele>427.8</ele>
        <time>2021-01-31 14:38:14</time>
      </trkpt>
      <trkpt lat="38.81051" lon="-0.15068">
        <ele>427.8</ele>
        <time>2021-01-31 14:38:15</time>
      </trkpt>
      <trkpt lat="38.81048" lon="-0.15077">
        <ele>425.2</ele>
        <time>2021-01-31 14:38:16</time>
      </trkpt>
      <trkpt lat="38.81044" lon="-0.15086">
        <ele>425.2</ele>
        <time>2021-01-31 14:38:17</time>
      </trkpt>
      <trkpt lat="38.8104" lon="-0.15094">
        <ele>425.2</ele>
        <time>2021-01-31 14:38:18</time>
      </trkpt>
      <trkpt lat="38.81036" lon="-0.15102">
        <ele>426.2</ele>
        <time>2021-01-31 14:38:19</time>
      </trkpt>
      <trkpt lat="38.81033" lon="-0.1511">
        <ele>428.6</ele>
        <time>2021-01-31 14:38:20</time>
      </trkpt>
      <trkpt lat="38.81029" lon="-0.15118">
        <ele>428.6</ele>
        <time>2021-01-31 14:38:21</time>
      </trkpt>
      <trkpt lat="38.81025" lon="-0.15127">
        <ele>428.6</ele>
        <time>2021-01-31 14:38:22</time>
      </trkpt>
      <trkpt lat="38.81021" lon="-0.15135">
        <ele>427.6</ele>
        <time>2021-01-31 14:38:23</time>
      </trkpt>
      <trkpt lat="38.81017" lon="-0.15143">
        <ele>427.6</ele>
        <time>2021-01-31 14:38:24</time>
      </trkpt>
      <trkpt lat="38.81014" lon="-0.15151">
        <ele>427.6</ele>
        <time>2021-01-31 14:38:25</time>
      </trkpt>
      <trkpt lat="38.8101" lon="-0.15159">
        <ele>427.6</ele>
        <time>2021-01-31 14:38:26</time>
      </trkpt>
      <trkpt lat="38.81006" lon="-0.15167">
        <ele>426.6</ele>
        <time>2021-01-31 14:38:27</time>
      </trkpt>
      <trkpt lat="38.81003" lon="-0.15175">
        <ele>427.2</ele>
        <time>2021-01-31 14:38:28</time>
      </trkpt>
      <trkpt lat="38.80999" lon="-0.15183">
        <ele>427.2</ele>
        <time>2021-01-31 14:38:29</time>
      </trkpt>
      <trkpt lat="38.80996" lon="-0.15191">
        <ele>427.2</ele>
        <time>2021-01-31 14:38:30</time>
      </trkpt>
      <trkpt lat="38.80992" lon="-0.15199">
        <ele>426.4</ele>
        <time>2021-01-31 14:38:31</time>
      </trkpt>
      <trkpt lat="38.80988" lon="-0.15207">
        <ele>426.4</ele>
        <time>2021-01-31 14:38:32</time>
      </trkpt>
      <trkpt lat="38.80985" lon="-0.15215">
        <ele>426.4</ele>
        <time>2021-01-31 14:38:33</time>
      </trkpt>
      <trkpt lat="38.80981" lon="-0.15223">
        <ele>426.4</ele>
        <time>2021-01-31 14:38:34</time>
      </trkpt>
      <trkpt lat="38.80977" lon="-0.15231">
        <ele>426.4</ele>
        <time>2021-01-31 14:38:35</time>
      </trkpt>
      <trkpt lat="38.80974" lon="-0.15239">
        <ele>425</ele>
        <time>2021-01-31 14:38:36</time>
      </trkpt>
      <trkpt lat="38.8097" lon="-0.15247">
        <ele>425</ele>
        <time>2021-01-31 14:38:37</time>
      </trkpt>
      <trkpt lat="38.80967" lon="-0.15256">
        <ele>425</ele>
        <time>2021-01-31 14:38:38</time>
      </trkpt>
      <trkpt lat="38.80964" lon="-0.15265">
        <ele>424</ele>
        <time>2021-01-31 14:38:39</time>
      </trkpt>
      <trkpt lat="38.80961" lon="-0.15273">
        <ele>416.6</ele>
        <time>2021-01-31 14:38:40</time>
      </trkpt>
      <trkpt lat="38.8096" lon="-0.15283">
        <ele>416.6</ele>
        <time>2021-01-31 14:38:41</time>
      </trkpt>
      <trkpt lat="38.80959" lon="-0.15292">
        <ele>416.6</ele>
        <time>2021-01-31 14:38:42</time>
      </trkpt>
      <trkpt lat="38.80958" lon="-0.15301">
        <ele>416.6</ele>
        <time>2021-01-31 14:38:43</time>
      </trkpt>
      <trkpt lat="38.80957" lon="-0.1531">
        <ele>415.8</ele>
        <time>2021-01-31 14:38:44</time>
      </trkpt>
      <trkpt lat="38.80956" lon="-0.15319">
        <ele>415.8</ele>
        <time>2021-01-31 14:38:45</time>
      </trkpt>
      <trkpt lat="38.80956" lon="-0.15329">
        <ele>415.8</ele>
        <time>2021-01-31 14:38:46</time>
      </trkpt>
      <trkpt lat="38.80955" lon="-0.15338">
        <ele>415</ele>
        <time>2021-01-31 14:38:47</time>
      </trkpt>
      <trkpt lat="38.80954" lon="-0.15347">
        <ele>413</ele>
        <time>2021-01-31 14:38:48</time>
      </trkpt>
      <trkpt lat="38.80954" lon="-0.15356">
        <ele>413</ele>
        <time>2021-01-31 14:38:49</time>
      </trkpt>
      <trkpt lat="38.80953" lon="-0.15365">
        <ele>413</ele>
        <time>2021-01-31 14:38:50</time>
      </trkpt>
      <trkpt lat="38.80953" lon="-0.15374">
        <ele>414</ele>
        <time>2021-01-31 14:38:51</time>
      </trkpt>
      <trkpt lat="38.80952" lon="-0.15384">
        <ele>412.8</ele>
        <time>2021-01-31 14:38:52</time>
      </trkpt>
      <trkpt lat="38.80951" lon="-0.15393">
        <ele>412.8</ele>
        <time>2021-01-31 14:38:53</time>
      </trkpt>
      <trkpt lat="38.8095" lon="-0.15403">
        <ele>412.8</ele>
        <time>2021-01-31 14:38:54</time>
      </trkpt>
      <trkpt lat="38.80949" lon="-0.15413">
        <ele>412.8</ele>
        <time>2021-01-31 14:38:55</time>
      </trkpt>
      <trkpt lat="38.80947" lon="-0.15422">
        <ele>413</ele>
        <time>2021-01-31 14:38:56</time>
      </trkpt>
      <trkpt lat="38.80944" lon="-0.15432">
        <ele>413</ele>
        <time>2021-01-31 14:38:57</time>
      </trkpt>
      <trkpt lat="38.8094" lon="-0.15442">
        <ele>413</ele>
        <time>2021-01-31 14:38:58</time>
      </trkpt>
      <trkpt lat="38.80936" lon="-0.15451">
        <ele>412</ele>
        <time>2021-01-31 14:38:59</time>
      </trkpt>
      <trkpt lat="38.80931" lon="-0.1546">
        <ele>411.4</ele>
        <time>2021-01-31 14:39:00</time>
      </trkpt>
      <trkpt lat="38.80927" lon="-0.1547">
        <ele>411.4</ele>
        <time>2021-01-31 14:39:01</time>
      </trkpt>
      <trkpt lat="38.80922" lon="-0.15478">
        <ele>411.4</ele>
        <time>2021-01-31 14:39:02</time>
      </trkpt>
      <trkpt lat="38.80918" lon="-0.15487">
        <ele>412</ele>
        <time>2021-01-31 14:39:03</time>
      </trkpt>
      <trkpt lat="38.80914" lon="-0.15495">
        <ele>413</ele>
        <time>2021-01-31 14:39:04</time>
      </trkpt>
      <trkpt lat="38.8091" lon="-0.15503">
        <ele>413</ele>
        <time>2021-01-31 14:39:05</time>
      </trkpt>
      <trkpt lat="38.80906" lon="-0.15511">
        <ele>413</ele>
        <time>2021-01-31 14:39:06</time>
      </trkpt>
      <trkpt lat="38.80902" lon="-0.15519">
        <ele>412</ele>
        <time>2021-01-31 14:39:07</time>
      </trkpt>
      <trkpt lat="38.80898" lon="-0.15527">
        <ele>412.4</ele>
        <time>2021-01-31 14:39:08</time>
      </trkpt>
      <trkpt lat="38.80894" lon="-0.15535">
        <ele>412.4</ele>
        <time>2021-01-31 14:39:09</time>
      </trkpt>
      <trkpt lat="38.8089" lon="-0.15542">
        <ele>412.4</ele>
        <time>2021-01-31 14:39:10</time>
      </trkpt>
      <trkpt lat="38.80887" lon="-0.1555">
        <ele>413</ele>
        <time>2021-01-31 14:39:11</time>
      </trkpt>
      <trkpt lat="38.80883" lon="-0.15557">
        <ele>412.6</ele>
        <time>2021-01-31 14:39:12</time>
      </trkpt>
      <trkpt lat="38.80879" lon="-0.15565">
        <ele>412.6</ele>
        <time>2021-01-31 14:39:13</time>
      </trkpt>
      <trkpt lat="38.80876" lon="-0.15572">
        <ele>412.6</ele>
        <time>2021-01-31 14:39:14</time>
      </trkpt>
      <trkpt lat="38.80872" lon="-0.15579">
        <ele>411.6</ele>
        <time>2021-01-31 14:39:15</time>
      </trkpt>
      <trkpt lat="38.80868" lon="-0.15587">
        <ele>411.4</ele>
        <time>2021-01-31 14:39:16</time>
      </trkpt>
      <trkpt lat="38.80865" lon="-0.15594">
        <ele>411.4</ele>
        <time>2021-01-31 14:39:17</time>
      </trkpt>
      <trkpt lat="38.80861" lon="-0.15601">
        <ele>411.4</ele>
        <time>2021-01-31 14:39:18</time>
      </trkpt>
      <trkpt lat="38.80857" lon="-0.15608">
        <ele>410.4</ele>
        <time>2021-01-31 14:39:19</time>
      </trkpt>
      <trkpt lat="38.80854" lon="-0.15615">
        <ele>409.6</ele>
        <time>2021-01-31 14:39:20</time>
      </trkpt>
      <trkpt lat="38.8085" lon="-0.15622">
        <ele>409.6</ele>
        <time>2021-01-31 14:39:21</time>
      </trkpt>
      <trkpt lat="38.80847" lon="-0.1563">
        <ele>409.6</ele>
        <time>2021-01-31 14:39:22</time>
      </trkpt>
      <trkpt lat="38.80843" lon="-0.15637">
        <ele>409.6</ele>
        <time>2021-01-31 14:39:23</time>
      </trkpt>
      <trkpt lat="38.8084" lon="-0.15644">
        <ele>410.6</ele>
        <time>2021-01-31 14:39:24</time>
      </trkpt>
      <trkpt lat="38.80836" lon="-0.15651">
        <ele>410.6</ele>
        <time>2021-01-31 14:39:25</time>
      </trkpt>
      <trkpt lat="38.80833" lon="-0.15658">
        <ele>410.6</ele>
        <time>2021-01-31 14:39:26</time>
      </trkpt>
      <trkpt lat="38.80829" lon="-0.15665">
        <ele>411.2</ele>
        <time>2021-01-31 14:39:27</time>
      </trkpt>
      <trkpt lat="38.80825" lon="-0.15672">
        <ele>410.8</ele>
        <time>2021-01-31 14:39:28</time>
      </trkpt>
      <trkpt lat="38.80821" lon="-0.15679">
        <ele>410.8</ele>
        <time>2021-01-31 14:39:29</time>
      </trkpt>
      <trkpt lat="38.80816" lon="-0.15685">
        <ele>410.8</ele>
        <time>2021-01-31 14:39:30</time>
      </trkpt>
      <trkpt lat="38.8081" lon="-0.1569">
        <ele>410.8</ele>
        <time>2021-01-31 14:39:31</time>
      </trkpt>
      <trkpt lat="38.80805" lon="-0.15694">
        <ele>411</ele>
        <time>2021-01-31 14:39:32</time>
      </trkpt>
      <trkpt lat="38.80798" lon="-0.15697">
        <ele>411</ele>
        <time>2021-01-31 14:39:33</time>
      </trkpt>
      <trkpt lat="38.80792" lon="-0.15699">
        <ele>411</ele>
        <time>2021-01-31 14:39:34</time>
      </trkpt>
      <trkpt lat="38.80785" lon="-0.157">
        <ele>411</ele>
        <time>2021-01-31 14:39:35</time>
      </trkpt>
      <trkpt lat="38.80779" lon="-0.157">
        <ele>412.2</ele>
        <time>2021-01-31 14:39:36</time>
      </trkpt>
      <trkpt lat="38.80773" lon="-0.157">
        <ele>412.2</ele>
        <time>2021-01-31 14:39:37</time>
      </trkpt>
      <trkpt lat="38.80767" lon="-0.157">
        <ele>412.2</ele>
        <time>2021-01-31 14:39:38</time>
      </trkpt>
      <trkpt lat="38.80767" lon="-0.157">
        <ele>412.2</ele>
        <time>2021-01-31 14:39:39</time>
      </trkpt>
      <trkpt lat="38.80756" lon="-0.157">
        <ele>413.4</ele>
        <time>2021-01-31 14:39:40</time>
      </trkpt>
      <trkpt lat="38.8075" lon="-0.15701">
        <ele>413.4</ele>
        <time>2021-01-31 14:39:41</time>
      </trkpt>
      <trkpt lat="38.80745" lon="-0.15702">
        <ele>413.4</ele>
        <time>2021-01-31 14:39:42</time>
      </trkpt>
      <trkpt lat="38.80741" lon="-0.15703">
        <ele>413.4</ele>
        <time>2021-01-31 14:39:43</time>
      </trkpt>
      <trkpt lat="38.80736" lon="-0.15703">
        <ele>411.6</ele>
        <time>2021-01-31 14:39:44</time>
      </trkpt>
      <trkpt lat="38.80732" lon="-0.15703">
        <ele>411.6</ele>
        <time>2021-01-31 14:39:45</time>
      </trkpt>
      <trkpt lat="38.80728" lon="-0.15703">
        <ele>411.6</ele>
        <time>2021-01-31 14:39:46</time>
      </trkpt>
      <trkpt lat="38.80724" lon="-0.15703">
        <ele>411.6</ele>
        <time>2021-01-31 14:39:47</time>
      </trkpt>
      <trkpt lat="38.8072" lon="-0.15702">
        <ele>412</ele>
        <time>2021-01-31 14:39:48</time>
      </trkpt>
      <trkpt lat="38.80716" lon="-0.15702">
        <ele>412</ele>
        <time>2021-01-31 14:39:49</time>
      </trkpt>
      <trkpt lat="38.80713" lon="-0.15702">
        <ele>412</ele>
        <time>2021-01-31 14:39:50</time>
      </trkpt>
      <trkpt lat="38.8071" lon="-0.15702">
        <ele>413</ele>
        <time>2021-01-31 14:39:51</time>
      </trkpt>
      <trkpt lat="38.80706" lon="-0.15703">
        <ele>413</ele>
        <time>2021-01-31 14:39:52</time>
      </trkpt>
      <trkpt lat="38.80703" lon="-0.15703">
        <ele>413</ele>
        <time>2021-01-31 14:39:53</time>
      </trkpt>
      <trkpt lat="38.80701" lon="-0.15703">
        <ele>413</ele>
        <time>2021-01-31 14:39:54</time>
      </trkpt>
      <trkpt lat="38.80701" lon="-0.15703">
        <ele>414</ele>
        <time>2021-01-31 14:39:55</time>
      </trkpt>
      <trkpt lat="38.80696" lon="-0.15704">
        <ele>415.2</ele>
        <time>2021-01-31 14:39:56</time>
      </trkpt>
      <trkpt lat="38.80693" lon="-0.15704">
        <ele>415.2</ele>
        <time>2021-01-31 14:39:57</time>
      </trkpt>
      <trkpt lat="38.8069" lon="-0.15705">
        <ele>415.2</ele>
        <time>2021-01-31 14:39:58</time>
      </trkpt>
      <trkpt lat="38.80688" lon="-0.15705">
        <ele>415.2</ele>
        <time>2021-01-31 14:39:59</time>
      </trkpt>
      <trkpt lat="38.80729" lon="-0.15698">
        <ele>412.6</ele>
        <time>2021-01-31 14:40:00</time>
      </trkpt>
      <trkpt lat="38.80729" lon="-0.15698">
        <ele>413</ele>
        <time>2021-01-31 14:40:01</time>
      </trkpt>
      <trkpt lat="38.80733" lon="-0.15701">
        <ele>413</ele>
        <time>2021-01-31 14:42:09</time>
      </trkpt>
      <trkpt lat="38.80736" lon="-0.15705">
        <ele>413</ele>
        <time>2021-01-31 14:42:10</time>
      </trkpt>
      <trkpt lat="38.80738" lon="-0.15709">
        <ele>412</ele>
        <time>2021-01-31 14:42:11</time>
      </trkpt>
      <trkpt lat="38.80739" lon="-0.15713">
        <ele>409.4</ele>
        <time>2021-01-31 14:42:12</time>
      </trkpt>
      <trkpt lat="38.80741" lon="-0.15718">
        <ele>409.4</ele>
        <time>2021-01-31 14:42:13</time>
      </trkpt>
      <trkpt lat="38.80743" lon="-0.15724">
        <ele>409.4</ele>
        <time>2021-01-31 14:42:14</time>
      </trkpt>
      <trkpt lat="38.80744" lon="-0.1573">
        <ele>409.4</ele>
        <time>2021-01-31 14:42:15</time>
      </trkpt>
      <trkpt lat="38.80746" lon="-0.15735">
        <ele>408.8</ele>
        <time>2021-01-31 14:42:16</time>
      </trkpt>
      <trkpt lat="38.80747" lon="-0.15741">
        <ele>408.8</ele>
        <time>2021-01-31 14:42:17</time>
      </trkpt>
      <trkpt lat="38.80748" lon="-0.15748">
        <ele>408.8</ele>
        <time>2021-01-31 14:42:18</time>
      </trkpt>
      <trkpt lat="38.8075" lon="-0.15754">
        <ele>408.8</ele>
        <time>2021-01-31 14:42:19</time>
      </trkpt>
      <trkpt lat="38.80751" lon="-0.1576">
        <ele>408.2</ele>
        <time>2021-01-31 14:42:20</time>
      </trkpt>
      <trkpt lat="38.80752" lon="-0.15766">
        <ele>408.2</ele>
        <time>2021-01-31 14:42:21</time>
      </trkpt>
      <trkpt lat="38.80754" lon="-0.15772">
        <ele>408.2</ele>
        <time>2021-01-31 14:42:22</time>
      </trkpt>
      <trkpt lat="38.80755" lon="-0.15777">
        <ele>408.2</ele>
        <time>2021-01-31 14:42:23</time>
      </trkpt>
      <trkpt lat="38.80756" lon="-0.15783">
        <ele>410.4</ele>
        <time>2021-01-31 14:42:24</time>
      </trkpt>
      <trkpt lat="38.80757" lon="-0.15788">
        <ele>410.4</ele>
        <time>2021-01-31 14:42:25</time>
      </trkpt>
      <trkpt lat="38.80758" lon="-0.15793">
        <ele>410.4</ele>
        <time>2021-01-31 14:42:26</time>
      </trkpt>
      <trkpt lat="38.80759" lon="-0.15798">
        <ele>410.8</ele>
        <time>2021-01-31 14:42:27</time>
      </trkpt>
      <trkpt lat="38.8076" lon="-0.15804">
        <ele>410.4</ele>
        <time>2021-01-31 14:42:28</time>
      </trkpt>
      <trkpt lat="38.80761" lon="-0.1581">
        <ele>410.4</ele>
        <time>2021-01-31 14:42:29</time>
      </trkpt>
      <trkpt lat="38.80762" lon="-0.15816">
        <ele>410.4</ele>
        <time>2021-01-31 14:42:30</time>
      </trkpt>
      <trkpt lat="38.80762" lon="-0.15816">
        <ele>410.4</ele>
        <time>2021-01-31 14:42:31</time>
      </trkpt>
      <trkpt lat="38.80762" lon="-0.15816">
        <ele>410.4</ele>
        <time>2021-01-31 14:42:32</time>
      </trkpt>
      <trkpt lat="38.80762" lon="-0.15816">
        <ele>408</ele>
        <time>2021-01-31 14:42:33</time>
      </trkpt>
      <trkpt lat="38.80765" lon="-0.15841">
        <ele>408</ele>
        <time>2021-01-31 14:42:34</time>
      </trkpt>
      <trkpt lat="38.80765" lon="-0.15848">
        <ele>409</ele>
        <time>2021-01-31 14:42:35</time>
      </trkpt>
      <trkpt lat="38.80765" lon="-0.15855">
        <ele>408.8</ele>
        <time>2021-01-31 14:42:36</time>
      </trkpt>
      <trkpt lat="38.80764" lon="-0.15861">
        <ele>408.8</ele>
        <time>2021-01-31 14:42:37</time>
      </trkpt>
      <trkpt lat="38.80764" lon="-0.15867">
        <ele>408.8</ele>
        <time>2021-01-31 14:42:38</time>
      </trkpt>
      <trkpt lat="38.80764" lon="-0.15873">
        <ele>408.8</ele>
        <time>2021-01-31 14:42:39</time>
      </trkpt>
      <trkpt lat="38.80763" lon="-0.1588">
        <ele>410</ele>
        <time>2021-01-31 14:42:40</time>
      </trkpt>
      <trkpt lat="38.80762" lon="-0.15886">
        <ele>410</ele>
        <time>2021-01-31 14:42:41</time>
      </trkpt>
      <trkpt lat="38.80761" lon="-0.15892">
        <ele>410</ele>
        <time>2021-01-31 14:42:42</time>
      </trkpt>
      <trkpt lat="38.80761" lon="-0.15892">
        <ele>410</ele>
        <time>2021-01-31 14:42:43</time>
      </trkpt>
      <trkpt lat="38.80761" lon="-0.15892">
        <ele>410</ele>
        <time>2021-01-31 14:42:44</time>
      </trkpt>
      <trkpt lat="38.80761" lon="-0.15892">
        <ele>410.8</ele>
        <time>2021-01-31 14:42:45</time>
      </trkpt>
      <trkpt lat="38.80753" lon="-0.15915">
        <ele>410.8</ele>
        <time>2021-01-31 14:42:46</time>
      </trkpt>
      <trkpt lat="38.8075" lon="-0.1592">
        <ele>410.8</ele>
        <time>2021-01-31 14:42:47</time>
      </trkpt>
      <trkpt lat="38.80747" lon="-0.15925">
        <ele>411.2</ele>
        <time>2021-01-31 14:42:48</time>
      </trkpt>
      <trkpt lat="38.80744" lon="-0.1593">
        <ele>411.2</ele>
        <time>2021-01-31 14:42:49</time>
      </trkpt>
      <trkpt lat="38.80744" lon="-0.1593">
        <ele>411.2</ele>
        <time>2021-01-31 14:42:50</time>
      </trkpt>
      <trkpt lat="38.80744" lon="-0.1593">
        <ele>411.2</ele>
        <time>2021-01-31 14:42:51</time>
      </trkpt>
      <trkpt lat="38.80744" lon="-0.1593">
        <ele>410.2</ele>
        <time>2021-01-31 14:42:52</time>
      </trkpt>
      <trkpt lat="38.8073" lon="-0.15948">
        <ele>410.2</ele>
        <time>2021-01-31 14:42:53</time>
      </trkpt>
      <trkpt lat="38.80727" lon="-0.15952">
        <ele>410.2</ele>
        <time>2021-01-31 14:42:54</time>
      </trkpt>
      <trkpt lat="38.80724" lon="-0.15956">
        <ele>410.2</ele>
        <time>2021-01-31 14:42:55</time>
      </trkpt>
      <trkpt lat="38.8072" lon="-0.15961">
        <ele>411.2</ele>
        <time>2021-01-31 14:42:56</time>
      </trkpt>
      <trkpt lat="38.80717" lon="-0.15965">
        <ele>411.2</ele>
        <time>2021-01-31 14:42:57</time>
      </trkpt>
      <trkpt lat="38.80714" lon="-0.1597">
        <ele>411.2</ele>
        <time>2021-01-31 14:42:58</time>
      </trkpt>
      <trkpt lat="38.80711" lon="-0.15974">
        <ele>410.4</ele>
        <time>2021-01-31 14:42:59</time>
      </trkpt>
      <trkpt lat="38.80707" lon="-0.15979">
        <ele>410.6</ele>
        <time>2021-01-31 14:43:00</time>
      </trkpt>
      <trkpt lat="38.80703" lon="-0.15982">
        <ele>410.6</ele>
        <time>2021-01-31 14:43:01</time>
      </trkpt>
      <trkpt lat="38.80698" lon="-0.15986">
        <ele>410.6</ele>
        <time>2021-01-31 14:43:02</time>
      </trkpt>
      <trkpt lat="38.80695" lon="-0.15991">
        <ele>410.6</ele>
        <time>2021-01-31 14:43:03</time>
      </trkpt>
      <trkpt lat="38.8069" lon="-0.15995">
        <ele>410.4</ele>
        <time>2021-01-31 14:43:04</time>
      </trkpt>
      <trkpt lat="38.80685" lon="-0.15999">
        <ele>410.4</ele>
        <time>2021-01-31 14:43:05</time>
      </trkpt>
      <trkpt lat="38.80682" lon="-0.16004">
        <ele>410.4</ele>
        <time>2021-01-31 14:43:06</time>
      </trkpt>
      <trkpt lat="38.80678" lon="-0.16009">
        <ele>410.4</ele>
        <time>2021-01-31 14:43:07</time>
      </trkpt>
      <trkpt lat="38.80673" lon="-0.16013">
        <ele>411.8</ele>
        <time>2021-01-31 14:43:08</time>
      </trkpt>
      <trkpt lat="38.80669" lon="-0.16017">
        <ele>411.8</ele>
        <time>2021-01-31 14:43:09</time>
      </trkpt>
      <trkpt lat="38.80664" lon="-0.16021">
        <ele>411.8</ele>
        <time>2021-01-31 14:43:10</time>
      </trkpt>
      <trkpt lat="38.80664" lon="-0.16021">
        <ele>411.8</ele>
        <time>2021-01-31 14:43:11</time>
      </trkpt>
      <trkpt lat="38.80656" lon="-0.16028">
        <ele>411.8</ele>
        <time>2021-01-31 14:43:12</time>
      </trkpt>
      <trkpt lat="38.80651" lon="-0.16032">
        <ele>411.8</ele>
        <time>2021-01-31 14:43:13</time>
      </trkpt>
      <trkpt lat="38.80651" lon="-0.16032">
        <ele>411.8</ele>
        <time>2021-01-31 14:43:14</time>
      </trkpt>
      <trkpt lat="38.80642" lon="-0.1604">
        <ele>411.8</ele>
        <time>2021-01-31 14:43:15</time>
      </trkpt>
      <trkpt lat="38.80638" lon="-0.16044">
        <ele>411</ele>
        <time>2021-01-31 14:43:16</time>
      </trkpt>
      <trkpt lat="38.80635" lon="-0.16048">
        <ele>411</ele>
        <time>2021-01-31 14:43:17</time>
      </trkpt>
      <trkpt lat="38.80631" lon="-0.16052">
        <ele>411</ele>
        <time>2021-01-31 14:43:18</time>
      </trkpt>
      <trkpt lat="38.80627" lon="-0.16056">
        <ele>411.2</ele>
        <time>2021-01-31 14:43:19</time>
      </trkpt>
      <trkpt lat="38.80622" lon="-0.1606">
        <ele>411.6</ele>
        <time>2021-01-31 14:43:20</time>
      </trkpt>
      <trkpt lat="38.80618" lon="-0.16063">
        <ele>411.6</ele>
        <time>2021-01-31 14:43:21</time>
      </trkpt>
      <trkpt lat="38.80613" lon="-0.16067">
        <ele>411.6</ele>
        <time>2021-01-31 14:43:22</time>
      </trkpt>
      <trkpt lat="38.80608" lon="-0.1607">
        <ele>411.6</ele>
        <time>2021-01-31 14:43:23</time>
      </trkpt>
      <trkpt lat="38.80604" lon="-0.16073">
        <ele>412</ele>
        <time>2021-01-31 14:43:24</time>
      </trkpt>
      <trkpt lat="38.806" lon="-0.16077">
        <ele>412</ele>
        <time>2021-01-31 14:43:25</time>
      </trkpt>
      <trkpt lat="38.80596" lon="-0.16079">
        <ele>412</ele>
        <time>2021-01-31 14:43:26</time>
      </trkpt>
      <trkpt lat="38.80592" lon="-0.16082">
        <ele>413</ele>
        <time>2021-01-31 14:43:27</time>
      </trkpt>
      <trkpt lat="38.80587" lon="-0.16085">
        <ele>413.4</ele>
        <time>2021-01-31 14:43:28</time>
      </trkpt>
      <trkpt lat="38.80583" lon="-0.16087">
        <ele>413.4</ele>
        <time>2021-01-31 14:43:29</time>
      </trkpt>
      <trkpt lat="38.80579" lon="-0.16089">
        <ele>413.4</ele>
        <time>2021-01-31 14:43:30</time>
      </trkpt>
      <trkpt lat="38.80575" lon="-0.16089">
        <ele>414</ele>
        <time>2021-01-31 14:43:31</time>
      </trkpt>
      <trkpt lat="38.8057" lon="-0.16089">
        <ele>413.6</ele>
        <time>2021-01-31 14:43:32</time>
      </trkpt>
      <trkpt lat="38.80566" lon="-0.16088">
        <ele>413.6</ele>
        <time>2021-01-31 14:43:33</time>
      </trkpt>
      <trkpt lat="38.80562" lon="-0.16087">
        <ele>413.6</ele>
        <time>2021-01-31 14:43:34</time>
      </trkpt>
      <trkpt lat="38.80558" lon="-0.16085">
        <ele>414.4</ele>
        <time>2021-01-31 14:43:35</time>
      </trkpt>
      <trkpt lat="38.80554" lon="-0.16082">
        <ele>414.8</ele>
        <time>2021-01-31 14:43:36</time>
      </trkpt>
      <trkpt lat="38.80551" lon="-0.1608">
        <ele>414.8</ele>
        <time>2021-01-31 14:43:37</time>
      </trkpt>
      <trkpt lat="38.80548" lon="-0.16079">
        <ele>414.8</ele>
        <time>2021-01-31 14:43:38</time>
      </trkpt>
      <trkpt lat="38.80544" lon="-0.1608">
        <ele>414.8</ele>
        <time>2021-01-31 14:43:39</time>
      </trkpt>
      <trkpt lat="38.80544" lon="-0.1608">
        <ele>414.8</ele>
        <time>2021-01-31 14:43:40</time>
      </trkpt>
      <trkpt lat="38.80544" lon="-0.1608">
        <ele>414.8</ele>
        <time>2021-01-31 14:43:41</time>
      </trkpt>
      <trkpt lat="38.80544" lon="-0.1608">
        <ele>414</ele>
        <time>2021-01-31 14:43:42</time>
      </trkpt>
      <trkpt lat="38.8053" lon="-0.16087">
        <ele>414.6</ele>
        <time>2021-01-31 14:43:43</time>
      </trkpt>
      <trkpt lat="38.80527" lon="-0.16089">
        <ele>415</ele>
        <time>2021-01-31 14:43:44</time>
      </trkpt>
      <trkpt lat="38.80523" lon="-0.16091">
        <ele>415</ele>
        <time>2021-01-31 14:43:45</time>
      </trkpt>
      <trkpt lat="38.8052" lon="-0.16093">
        <ele>415</ele>
        <time>2021-01-31 14:43:46</time>
      </trkpt>
      <trkpt lat="38.80516" lon="-0.16095">
        <ele>414</ele>
        <time>2021-01-31 14:43:47</time>
      </trkpt>
      <trkpt lat="38.80512" lon="-0.16097">
        <ele>414.6</ele>
        <time>2021-01-31 14:43:48</time>
      </trkpt>
      <trkpt lat="38.80508" lon="-0.16099">
        <ele>414.6</ele>
        <time>2021-01-31 14:43:49</time>
      </trkpt>
      <trkpt lat="38.80503" lon="-0.16099">
        <ele>414.6</ele>
        <time>2021-01-31 14:43:50</time>
      </trkpt>
      <trkpt lat="38.80499" lon="-0.16098">
        <ele>415.6</ele>
        <time>2021-01-31 14:43:51</time>
      </trkpt>
      <trkpt lat="38.80495" lon="-0.16096">
        <ele>415.8</ele>
        <time>2021-01-31 14:43:52</time>
      </trkpt>
      <trkpt lat="38.80491" lon="-0.16094">
        <ele>415.8</ele>
        <time>2021-01-31 14:43:53</time>
      </trkpt>
      <trkpt lat="38.80488" lon="-0.16092">
        <ele>415.8</ele>
        <time>2021-01-31 14:43:54</time>
      </trkpt>
      <trkpt lat="38.80485" lon="-0.16091">
        <ele>415.8</ele>
        <time>2021-01-31 14:43:55</time>
      </trkpt>
      <trkpt lat="38.80482" lon="-0.16089">
        <ele>416.4</ele>
        <time>2021-01-31 14:43:56</time>
      </trkpt>
      <trkpt lat="38.80479" lon="-0.16088">
        <ele>416.4</ele>
        <time>2021-01-31 14:43:57</time>
      </trkpt>
      <trkpt lat="38.80477" lon="-0.16087">
        <ele>416.4</ele>
        <time>2021-01-31 14:43:58</time>
      </trkpt>
      <trkpt lat="38.80475" lon="-0.16085">
        <ele>417</ele>
        <time>2021-01-31 14:43:59</time>
      </trkpt>
      <trkpt lat="38.80473" lon="-0.16083">
        <ele>417.2</ele>
        <time>2021-01-31 14:44:00</time>
      </trkpt>
      <trkpt lat="38.80471" lon="-0.16081">
        <ele>417.2</ele>
        <time>2021-01-31 14:44:01</time>
      </trkpt>
      <trkpt lat="38.80469" lon="-0.16079">
        <ele>417.2</ele>
        <time>2021-01-31 14:44:02</time>
      </trkpt>
      <trkpt lat="38.80467" lon="-0.16077">
        <ele>418.2</ele>
        <time>2021-01-31 14:44:03</time>
      </trkpt>
      <trkpt lat="38.80464" lon="-0.16075">
        <ele>418.4</ele>
        <time>2021-01-31 14:44:04</time>
      </trkpt>
      <trkpt lat="38.80462" lon="-0.16073">
        <ele>418.4</ele>
        <time>2021-01-31 14:44:05</time>
      </trkpt>
      <trkpt lat="38.8046" lon="-0.1607">
        <ele>418.4</ele>
        <time>2021-01-31 14:44:06</time>
      </trkpt>
      <trkpt lat="38.80457" lon="-0.16068">
        <ele>418.4</ele>
        <time>2021-01-31 14:44:07</time>
      </trkpt>
      <trkpt lat="38.80455" lon="-0.16066">
        <ele>419</ele>
        <time>2021-01-31 14:44:08</time>
      </trkpt>
      <trkpt lat="38.80453" lon="-0.16062">
        <ele>419</ele>
        <time>2021-01-31 14:44:09</time>
      </trkpt>
      <trkpt lat="38.80451" lon="-0.16059">
        <ele>419</ele>
        <time>2021-01-31 14:44:10</time>
      </trkpt>
      <trkpt lat="38.80449" lon="-0.16056">
        <ele>419</ele>
        <time>2021-01-31 14:44:11</time>
      </trkpt>
      <trkpt lat="38.80447" lon="-0.16054">
        <ele>419</ele>
        <time>2021-01-31 14:44:12</time>
      </trkpt>
      <trkpt lat="38.80442" lon="-0.16051">
        <ele>419</ele>
        <time>2021-01-31 14:44:13</time>
      </trkpt>
      <trkpt lat="38.80438" lon="-0.16049">
        <ele>419</ele>
        <time>2021-01-31 14:44:14</time>
      </trkpt>
      <trkpt lat="38.80434" lon="-0.16047">
        <ele>419</ele>
        <time>2021-01-31 14:44:15</time>
      </trkpt>
      <trkpt lat="38.80429" lon="-0.16046">
        <ele>418.2</ele>
        <time>2021-01-31 14:44:16</time>
      </trkpt>
      <trkpt lat="38.80425" lon="-0.16046">
        <ele>418.2</ele>
        <time>2021-01-31 14:44:17</time>
      </trkpt>
      <trkpt lat="38.8042" lon="-0.16046">
        <ele>418.2</ele>
        <time>2021-01-31 14:44:18</time>
      </trkpt>
      <trkpt lat="38.80416" lon="-0.16045">
        <ele>418.2</ele>
        <time>2021-01-31 14:44:19</time>
      </trkpt>
      <trkpt lat="38.80411" lon="-0.16044">
        <ele>417.6</ele>
        <time>2021-01-31 14:44:20</time>
      </trkpt>
      <trkpt lat="38.80406" lon="-0.16043">
        <ele>417.6</ele>
        <time>2021-01-31 14:44:21</time>
      </trkpt>
      <trkpt lat="38.80401" lon="-0.16042">
        <ele>417.6</ele>
        <time>2021-01-31 14:44:22</time>
      </trkpt>
      <trkpt lat="38.80397" lon="-0.16041">
        <ele>418.6</ele>
        <time>2021-01-31 14:44:23</time>
      </trkpt>
      <trkpt lat="38.80394" lon="-0.1604">
        <ele>419.6</ele>
        <time>2021-01-31 14:44:24</time>
      </trkpt>
      <trkpt lat="38.8039" lon="-0.16039">
        <ele>419.6</ele>
        <time>2021-01-31 14:44:25</time>
      </trkpt>
      <trkpt lat="38.80386" lon="-0.16038">
        <ele>419.6</ele>
        <time>2021-01-31 14:44:26</time>
      </trkpt>
      <trkpt lat="38.80382" lon="-0.16037">
        <ele>420.6</ele>
        <time>2021-01-31 14:44:27</time>
      </trkpt>
      <trkpt lat="38.80379" lon="-0.16036">
        <ele>421</ele>
        <time>2021-01-31 14:44:28</time>
      </trkpt>
      <trkpt lat="38.80376" lon="-0.16035">
        <ele>421</ele>
        <time>2021-01-31 14:44:29</time>
      </trkpt>
      <trkpt lat="38.80373" lon="-0.16035">
        <ele>421</ele>
        <time>2021-01-31 14:44:30</time>
      </trkpt>
      <trkpt lat="38.80371" lon="-0.16034">
        <ele>421.8</ele>
        <time>2021-01-31 14:44:31</time>
      </trkpt>
      <trkpt lat="38.80371" lon="-0.16034">
        <ele>422</ele>
        <time>2021-01-31 14:44:32</time>
      </trkpt>
      <trkpt lat="38.80369" lon="-0.16033">
        <ele>422</ele>
        <time>2021-01-31 14:44:33</time>
      </trkpt>
      <trkpt lat="38.80369" lon="-0.16033">
        <ele>422</ele>
        <time>2021-01-31 14:44:34</time>
      </trkpt>
      <trkpt lat="38.80369" lon="-0.16033">
        <ele>422</ele>
        <time>2021-01-31 14:44:35</time>
      </trkpt>
      <trkpt lat="38.80369" lon="-0.16033">
        <ele>421.6</ele>
        <time>2021-01-31 14:44:36</time>
      </trkpt>
      <trkpt lat="38.8037" lon="-0.16029">
        <ele>421.6</ele>
        <time>2021-01-31 14:44:37</time>
      </trkpt>
      <trkpt lat="38.8037" lon="-0.16029">
        <ele>421.6</ele>
        <time>2021-01-31 14:44:38</time>
      </trkpt>
      <trkpt lat="38.8037" lon="-0.16028">
        <ele>421.6</ele>
        <time>2021-01-31 14:44:39</time>
      </trkpt>
      <trkpt lat="38.8037" lon="-0.16028">
        <ele>421.2</ele>
        <time>2021-01-31 14:44:40</time>
      </trkpt>
      <trkpt lat="38.8037" lon="-0.16026">
        <ele>421.2</ele>
        <time>2021-01-31 14:44:41</time>
      </trkpt>
      <trkpt lat="38.8037" lon="-0.16026">
        <ele>421.2</ele>
        <time>2021-01-31 14:44:42</time>
      </trkpt>
      <trkpt lat="38.80371" lon="-0.16026">
        <ele>421</ele>
        <time>2021-01-31 14:44:43</time>
      </trkpt>
      <trkpt lat="38.80371" lon="-0.16026">
        <ele>420.4</ele>
        <time>2021-01-31 14:44:44</time>
      </trkpt>
      <trkpt lat="38.80373" lon="-0.16025">
        <ele>420.4</ele>
        <time>2021-01-31 14:44:45</time>
      </trkpt>
      <trkpt lat="38.80373" lon="-0.16025">
        <ele>420.4</ele>
        <time>2021-01-31 14:44:46</time>
      </trkpt>
      <trkpt lat="38.80375" lon="-0.16024">
        <ele>420.4</ele>
        <time>2021-01-31 14:44:47</time>
      </trkpt>
      <trkpt lat="38.80376" lon="-0.16025">
        <ele>419.8</ele>
        <time>2021-01-31 14:44:48</time>
      </trkpt>
      <trkpt lat="38.80376" lon="-0.16027">
        <ele>419.8</ele>
        <time>2021-01-31 14:44:49</time>
      </trkpt>
      <trkpt lat="38.80374" lon="-0.16028">
        <ele>419.8</ele>
        <time>2021-01-31 14:44:50</time>
      </trkpt>
      <trkpt lat="38.80374" lon="-0.16028">
        <ele>420.8</ele>
        <time>2021-01-31 14:44:51</time>
      </trkpt>
      <trkpt lat="38.80372" lon="-0.16028">
        <ele>421.2</ele>
        <time>2021-01-31 14:44:52</time>
      </trkpt>
      <trkpt lat="38.8037" lon="-0.16028">
        <ele>421.2</ele>
        <time>2021-01-31 14:44:53</time>
      </trkpt>
      <trkpt lat="38.80368" lon="-0.16029">
        <ele>421.2</ele>
        <time>2021-01-31 14:44:54</time>
      </trkpt>
      <trkpt lat="38.80366" lon="-0.16029">
        <ele>421.6</ele>
        <time>2021-01-31 14:44:55</time>
      </trkpt>
      <trkpt lat="38.80363" lon="-0.1603">
        <ele>421.8</ele>
        <time>2021-01-31 14:44:56</time>
      </trkpt>
      <trkpt lat="38.80361" lon="-0.1603">
        <ele>421.8</ele>
        <time>2021-01-31 14:44:57</time>
      </trkpt>
      <trkpt lat="38.80358" lon="-0.16031">
        <ele>421.8</ele>
        <time>2021-01-31 14:44:58</time>
      </trkpt>
      <trkpt lat="38.80356" lon="-0.16032">
        <ele>421.8</ele>
        <time>2021-01-31 14:44:59</time>
      </trkpt>
      <trkpt lat="38.80354" lon="-0.16033">
        <ele>422.6</ele>
        <time>2021-01-31 14:45:00</time>
      </trkpt>
      <trkpt lat="38.80351" lon="-0.16035">
        <ele>422.6</ele>
        <time>2021-01-31 14:45:01</time>
      </trkpt>
      <trkpt lat="38.80349" lon="-0.16037">
        <ele>422.6</ele>
        <time>2021-01-31 14:45:02</time>
      </trkpt>
      <trkpt lat="38.80347" lon="-0.16038">
        <ele>423</ele>
        <time>2021-01-31 14:45:03</time>
      </trkpt>
      <trkpt lat="38.80345" lon="-0.1604">
        <ele>423</ele>
        <time>2021-01-31 14:45:04</time>
      </trkpt>
      <trkpt lat="38.80344" lon="-0.16042">
        <ele>423</ele>
        <time>2021-01-31 14:45:05</time>
      </trkpt>
      <trkpt lat="38.80342" lon="-0.16044">
        <ele>423</ele>
        <time>2021-01-31 14:45:06</time>
      </trkpt>
      <trkpt lat="38.8034" lon="-0.16046">
        <ele>423</ele>
        <time>2021-01-31 14:45:07</time>
      </trkpt>
      <trkpt lat="38.80338" lon="-0.16048">
        <ele>424</ele>
        <time>2021-01-31 14:45:08</time>
      </trkpt>
      <trkpt lat="38.80335" lon="-0.1605">
        <ele>424</ele>
        <time>2021-01-31 14:45:09</time>
      </trkpt>
      <trkpt lat="38.80334" lon="-0.16052">
        <ele>424</ele>
        <time>2021-01-31 14:45:10</time>
      </trkpt>
      <trkpt lat="38.80333" lon="-0.16055">
        <ele>424.8</ele>
        <time>2021-01-31 14:45:11</time>
      </trkpt>
      <trkpt lat="38.80331" lon="-0.16056">
        <ele>424.8</ele>
        <time>2021-01-31 14:45:12</time>
      </trkpt>
      <trkpt lat="38.8033" lon="-0.16058">
        <ele>424.8</ele>
        <time>2021-01-31 14:45:13</time>
      </trkpt>
      <trkpt lat="38.80329" lon="-0.16061">
        <ele>424.8</ele>
        <time>2021-01-31 14:45:14</time>
      </trkpt>
      <trkpt lat="38.80327" lon="-0.16064">
        <ele>425.4</ele>
        <time>2021-01-31 14:45:15</time>
      </trkpt>
      <trkpt lat="38.80325" lon="-0.16067">
        <ele>426.4</ele>
        <time>2021-01-31 14:45:16</time>
      </trkpt>
      <trkpt lat="38.80324" lon="-0.16069">
        <ele>426.4</ele>
        <time>2021-01-31 14:45:17</time>
      </trkpt>
      <trkpt lat="38.80323" lon="-0.16072">
        <ele>426.4</ele>
        <time>2021-01-31 14:45:18</time>
      </trkpt>
      <trkpt lat="38.80323" lon="-0.16075">
        <ele>426.4</ele>
        <time>2021-01-31 14:45:19</time>
      </trkpt>
      <trkpt lat="38.80323" lon="-0.16079">
        <ele>426.6</ele>
        <time>2021-01-31 14:45:20</time>
      </trkpt>
      <trkpt lat="38.80323" lon="-0.16081">
        <ele>426.6</ele>
        <time>2021-01-31 14:45:21</time>
      </trkpt>
      <trkpt lat="38.80324" lon="-0.16084">
        <ele>426.6</ele>
        <time>2021-01-31 14:45:22</time>
      </trkpt>
      <trkpt lat="38.80325" lon="-0.16087">
        <ele>427.4</ele>
        <time>2021-01-31 14:45:23</time>
      </trkpt>
      <trkpt lat="38.80326" lon="-0.16089">
        <ele>427.6</ele>
        <time>2021-01-31 14:45:24</time>
      </trkpt>
      <trkpt lat="38.80327" lon="-0.16092">
        <ele>427.6</ele>
        <time>2021-01-31 14:45:25</time>
      </trkpt>
      <trkpt lat="38.80328" lon="-0.16095">
        <ele>427.6</ele>
        <time>2021-01-31 14:45:26</time>
      </trkpt>
      <trkpt lat="38.80329" lon="-0.16099">
        <ele>428.4</ele>
        <time>2021-01-31 14:45:27</time>
      </trkpt>
      <trkpt lat="38.80329" lon="-0.16102">
        <ele>428.2</ele>
        <time>2021-01-31 14:45:28</time>
      </trkpt>
      <trkpt lat="38.8033" lon="-0.16106">
        <ele>428.2</ele>
        <time>2021-01-31 14:45:29</time>
      </trkpt>
      <trkpt lat="38.8033" lon="-0.16109">
        <ele>428.2</ele>
        <time>2021-01-31 14:45:30</time>
      </trkpt>
      <trkpt lat="38.8033" lon="-0.16113">
        <ele>428.2</ele>
        <time>2021-01-31 14:45:31</time>
      </trkpt>
      <trkpt lat="38.8033" lon="-0.16117">
        <ele>428.2</ele>
        <time>2021-01-31 14:45:32</time>
      </trkpt>
      <trkpt lat="38.80331" lon="-0.16121">
        <ele>428.2</ele>
        <time>2021-01-31 14:45:33</time>
      </trkpt>
      <trkpt lat="38.80331" lon="-0.16125">
        <ele>428.2</ele>
        <time>2021-01-31 14:45:34</time>
      </trkpt>
      <trkpt lat="38.80331" lon="-0.16129">
        <ele>429.2</ele>
        <time>2021-01-31 14:45:35</time>
      </trkpt>
      <trkpt lat="38.80332" lon="-0.16132">
        <ele>429</ele>
        <time>2021-01-31 14:45:36</time>
      </trkpt>
      <trkpt lat="38.80331" lon="-0.16136">
        <ele>429</ele>
        <time>2021-01-31 14:45:37</time>
      </trkpt>
      <trkpt lat="38.80331" lon="-0.1614">
        <ele>429</ele>
        <time>2021-01-31 14:45:38</time>
      </trkpt>
      <trkpt lat="38.8033" lon="-0.16144">
        <ele>429</ele>
        <time>2021-01-31 14:45:39</time>
      </trkpt>
      <trkpt lat="38.8033" lon="-0.16147">
        <ele>429.8</ele>
        <time>2021-01-31 14:45:40</time>
      </trkpt>
      <trkpt lat="38.8033" lon="-0.16151">
        <ele>429.8</ele>
        <time>2021-01-31 14:45:41</time>
      </trkpt>
      <trkpt lat="38.80329" lon="-0.16154">
        <ele>429.8</ele>
        <time>2021-01-31 14:45:42</time>
      </trkpt>
      <trkpt lat="38.80328" lon="-0.16157">
        <ele>429.8</ele>
        <time>2021-01-31 14:45:43</time>
      </trkpt>
      <trkpt lat="38.80327" lon="-0.1616">
        <ele>430.6</ele>
        <time>2021-01-31 14:45:44</time>
      </trkpt>
      <trkpt lat="38.80326" lon="-0.16163">
        <ele>430.6</ele>
        <time>2021-01-31 14:45:45</time>
      </trkpt>
      <trkpt lat="38.80324" lon="-0.16166">
        <ele>430.6</ele>
        <time>2021-01-31 14:45:46</time>
      </trkpt>
      <trkpt lat="38.80322" lon="-0.16169">
        <ele>430.6</ele>
        <time>2021-01-31 14:45:47</time>
      </trkpt>
      <trkpt lat="38.80321" lon="-0.16172">
        <ele>431</ele>
        <time>2021-01-31 14:45:48</time>
      </trkpt>
      <trkpt lat="38.80319" lon="-0.16175">
        <ele>431</ele>
        <time>2021-01-31 14:45:49</time>
      </trkpt>
      <trkpt lat="38.80317" lon="-0.16177">
        <ele>431</ele>
        <time>2021-01-31 14:45:50</time>
      </trkpt>
      <trkpt lat="38.80314" lon="-0.1618">
        <ele>431.8</ele>
        <time>2021-01-31 14:45:51</time>
      </trkpt>
      <trkpt lat="38.80312" lon="-0.16183">
        <ele>432.2</ele>
        <time>2021-01-31 14:45:52</time>
      </trkpt>
      <trkpt lat="38.8031" lon="-0.16185">
        <ele>432.2</ele>
        <time>2021-01-31 14:45:53</time>
      </trkpt>
      <trkpt lat="38.80308" lon="-0.16187">
        <ele>432.2</ele>
        <time>2021-01-31 14:45:54</time>
      </trkpt>
      <trkpt lat="38.80306" lon="-0.16189">
        <ele>433</ele>
        <time>2021-01-31 14:45:55</time>
      </trkpt>
      <trkpt lat="38.80303" lon="-0.16191">
        <ele>433.2</ele>
        <time>2021-01-31 14:45:56</time>
      </trkpt>
      <trkpt lat="38.80301" lon="-0.16193">
        <ele>433.2</ele>
        <time>2021-01-31 14:45:57</time>
      </trkpt>
      <trkpt lat="38.80298" lon="-0.16196">
        <ele>433.2</ele>
        <time>2021-01-31 14:45:58</time>
      </trkpt>
      <trkpt lat="38.80296" lon="-0.16198">
        <ele>434.2</ele>
        <time>2021-01-31 14:45:59</time>
      </trkpt>
      <trkpt lat="38.80293" lon="-0.16199">
        <ele>434.2</ele>
        <time>2021-01-31 14:46:00</time>
      </trkpt>
      <trkpt lat="38.8029" lon="-0.16201">
        <ele>434.2</ele>
        <time>2021-01-31 14:46:01</time>
      </trkpt>
      <trkpt lat="38.80288" lon="-0.16202">
        <ele>434.2</ele>
        <time>2021-01-31 14:46:02</time>
      </trkpt>
      <trkpt lat="38.80285" lon="-0.16203">
        <ele>434.4</ele>
        <time>2021-01-31 14:46:03</time>
      </trkpt>
      <trkpt lat="38.80283" lon="-0.16205">
        <ele>435.4</ele>
        <time>2021-01-31 14:46:04</time>
      </trkpt>
      <trkpt lat="38.8028" lon="-0.16206">
        <ele>435.4</ele>
        <time>2021-01-31 14:46:05</time>
      </trkpt>
      <trkpt lat="38.80277" lon="-0.16207">
        <ele>435.4</ele>
        <time>2021-01-31 14:46:06</time>
      </trkpt>
      <trkpt lat="38.80275" lon="-0.16208">
        <ele>435.4</ele>
        <time>2021-01-31 14:46:07</time>
      </trkpt>
      <trkpt lat="38.80272" lon="-0.1621">
        <ele>435.4</ele>
        <time>2021-01-31 14:46:08</time>
      </trkpt>
      <trkpt lat="38.8027" lon="-0.16211">
        <ele>435.4</ele>
        <time>2021-01-31 14:46:09</time>
      </trkpt>
      <trkpt lat="38.80268" lon="-0.16212">
        <ele>435.4</ele>
        <time>2021-01-31 14:46:10</time>
      </trkpt>
      <trkpt lat="38.80265" lon="-0.16214">
        <ele>435.4</ele>
        <time>2021-01-31 14:46:11</time>
      </trkpt>
      <trkpt lat="38.80263" lon="-0.16215">
        <ele>436.4</ele>
        <time>2021-01-31 14:46:12</time>
      </trkpt>
      <trkpt lat="38.80261" lon="-0.16216">
        <ele>436.4</ele>
        <time>2021-01-31 14:46:13</time>
      </trkpt>
      <trkpt lat="38.80259" lon="-0.16217">
        <ele>436.4</ele>
        <time>2021-01-31 14:46:14</time>
      </trkpt>
      <trkpt lat="38.80256" lon="-0.16218">
        <ele>437.2</ele>
        <time>2021-01-31 14:46:15</time>
      </trkpt>
      <trkpt lat="38.80254" lon="-0.16219">
        <ele>437</ele>
        <time>2021-01-31 14:46:16</time>
      </trkpt>
      <trkpt lat="38.80252" lon="-0.1622">
        <ele>437</ele>
        <time>2021-01-31 14:46:17</time>
      </trkpt>
      <trkpt lat="38.8025" lon="-0.16221">
        <ele>437</ele>
        <time>2021-01-31 14:46:18</time>
      </trkpt>
      <trkpt lat="38.80247" lon="-0.16223">
        <ele>437</ele>
        <time>2021-01-31 14:46:19</time>
      </trkpt>
      <trkpt lat="38.80245" lon="-0.16223">
        <ele>437.8</ele>
        <time>2021-01-31 14:46:20</time>
      </trkpt>
      <trkpt lat="38.80243" lon="-0.16224">
        <ele>437.8</ele>
        <time>2021-01-31 14:46:21</time>
      </trkpt>
      <trkpt lat="38.80241" lon="-0.16225">
        <ele>437.8</ele>
        <time>2021-01-31 14:46:22</time>
      </trkpt>
      <trkpt lat="38.80238" lon="-0.16226">
        <ele>438.8</ele>
        <time>2021-01-31 14:46:23</time>
      </trkpt>
      <trkpt lat="38.80236" lon="-0.16227">
        <ele>439.6</ele>
        <time>2021-01-31 14:46:24</time>
      </trkpt>
      <trkpt lat="38.80234" lon="-0.16228">
        <ele>439.6</ele>
        <time>2021-01-31 14:46:25</time>
      </trkpt>
      <trkpt lat="38.80232" lon="-0.16229">
        <ele>439.6</ele>
        <time>2021-01-31 14:46:26</time>
      </trkpt>
      <trkpt lat="38.8023" lon="-0.1623">
        <ele>439.6</ele>
        <time>2021-01-31 14:46:27</time>
      </trkpt>
      <trkpt lat="38.80228" lon="-0.16231">
        <ele>440.4</ele>
        <time>2021-01-31 14:46:28</time>
      </trkpt>
      <trkpt lat="38.80226" lon="-0.16232">
        <ele>440.4</ele>
        <time>2021-01-31 14:46:29</time>
      </trkpt>
      <trkpt lat="38.80224" lon="-0.16233">
        <ele>440.4</ele>
        <time>2021-01-31 14:46:30</time>
      </trkpt>
      <trkpt lat="38.80222" lon="-0.16235">
        <ele>441.2</ele>
        <time>2021-01-31 14:46:31</time>
      </trkpt>
      <trkpt lat="38.8022" lon="-0.16236">
        <ele>441.4</ele>
        <time>2021-01-31 14:46:32</time>
      </trkpt>
      <trkpt lat="38.80218" lon="-0.16237">
        <ele>441.4</ele>
        <time>2021-01-31 14:46:33</time>
      </trkpt>
      <trkpt lat="38.80216" lon="-0.16238">
        <ele>441.4</ele>
        <time>2021-01-31 14:46:34</time>
      </trkpt>
      <trkpt lat="38.80214" lon="-0.1624">
        <ele>442.2</ele>
        <time>2021-01-31 14:46:35</time>
      </trkpt>
      <trkpt lat="38.80213" lon="-0.16242">
        <ele>441.8</ele>
        <time>2021-01-31 14:46:36</time>
      </trkpt>
      <trkpt lat="38.80211" lon="-0.16244">
        <ele>441.8</ele>
        <time>2021-01-31 14:46:37</time>
      </trkpt>
      <trkpt lat="38.8021" lon="-0.16245">
        <ele>441.8</ele>
        <time>2021-01-31 14:46:38</time>
      </trkpt>
      <trkpt lat="38.80208" lon="-0.16247">
        <ele>442.8</ele>
        <time>2021-01-31 14:46:39</time>
      </trkpt>
      <trkpt lat="38.80206" lon="-0.16249">
        <ele>443.8</ele>
        <time>2021-01-31 14:46:40</time>
      </trkpt>
      <trkpt lat="38.80205" lon="-0.1625">
        <ele>443.8</ele>
        <time>2021-01-31 14:46:41</time>
      </trkpt>
      <trkpt lat="38.80203" lon="-0.16252">
        <ele>443.8</ele>
        <time>2021-01-31 14:46:42</time>
      </trkpt>
      <trkpt lat="38.80202" lon="-0.16254">
        <ele>443.8</ele>
        <time>2021-01-31 14:46:43</time>
      </trkpt>
      <trkpt lat="38.802" lon="-0.16257">
        <ele>444</ele>
        <time>2021-01-31 14:46:44</time>
      </trkpt>
      <trkpt lat="38.80199" lon="-0.16259">
        <ele>444</ele>
        <time>2021-01-31 14:46:45</time>
      </trkpt>
      <trkpt lat="38.80198" lon="-0.16261">
        <ele>444</ele>
        <time>2021-01-31 14:46:46</time>
      </trkpt>
      <trkpt lat="38.80197" lon="-0.16263">
        <ele>444.6</ele>
        <time>2021-01-31 14:46:47</time>
      </trkpt>
      <trkpt lat="38.80195" lon="-0.16265">
        <ele>444.6</ele>
        <time>2021-01-31 14:46:48</time>
      </trkpt>
      <trkpt lat="38.80194" lon="-0.16267">
        <ele>444.6</ele>
        <time>2021-01-31 14:46:49</time>
      </trkpt>
      <trkpt lat="38.80193" lon="-0.16269">
        <ele>444.6</ele>
        <time>2021-01-31 14:46:50</time>
      </trkpt>
      <trkpt lat="38.80191" lon="-0.16271">
        <ele>445.6</ele>
        <time>2021-01-31 14:46:51</time>
      </trkpt>
      <trkpt lat="38.8019" lon="-0.16273">
        <ele>446.2</ele>
        <time>2021-01-31 14:46:52</time>
      </trkpt>
      <trkpt lat="38.80188" lon="-0.16275">
        <ele>446.2</ele>
        <time>2021-01-31 14:46:53</time>
      </trkpt>
      <trkpt lat="38.80186" lon="-0.16276">
        <ele>446.2</ele>
        <time>2021-01-31 14:46:54</time>
      </trkpt>
      <trkpt lat="38.80184" lon="-0.16278">
        <ele>446.2</ele>
        <time>2021-01-31 14:46:55</time>
      </trkpt>
      <trkpt lat="38.80182" lon="-0.16279">
        <ele>446.6</ele>
        <time>2021-01-31 14:46:56</time>
      </trkpt>
      <trkpt lat="38.80181" lon="-0.1628">
        <ele>446.6</ele>
        <time>2021-01-31 14:46:57</time>
      </trkpt>
      <trkpt lat="38.80179" lon="-0.16282">
        <ele>446.6</ele>
        <time>2021-01-31 14:46:58</time>
      </trkpt>
      <trkpt lat="38.80177" lon="-0.16283">
        <ele>447.2</ele>
        <time>2021-01-31 14:46:59</time>
      </trkpt>
      <trkpt lat="38.80175" lon="-0.16284">
        <ele>447.4</ele>
        <time>2021-01-31 14:47:00</time>
      </trkpt>
      <trkpt lat="38.80173" lon="-0.16285">
        <ele>447.4</ele>
        <time>2021-01-31 14:47:01</time>
      </trkpt>
      <trkpt lat="38.80171" lon="-0.16286">
        <ele>447.4</ele>
        <time>2021-01-31 14:47:02</time>
      </trkpt>
      <trkpt lat="38.80169" lon="-0.16287">
        <ele>448.2</ele>
        <time>2021-01-31 14:47:03</time>
      </trkpt>
      <trkpt lat="38.80167" lon="-0.16288">
        <ele>448</ele>
        <time>2021-01-31 14:47:04</time>
      </trkpt>
      <trkpt lat="38.80164" lon="-0.16288">
        <ele>448</ele>
        <time>2021-01-31 14:47:05</time>
      </trkpt>
      <trkpt lat="38.80162" lon="-0.16289">
        <ele>448</ele>
        <time>2021-01-31 14:47:06</time>
      </trkpt>
      <trkpt lat="38.8016" lon="-0.16289">
        <ele>449</ele>
        <time>2021-01-31 14:47:07</time>
      </trkpt>
      <trkpt lat="38.80158" lon="-0.1629">
        <ele>448.8</ele>
        <time>2021-01-31 14:47:08</time>
      </trkpt>
      <trkpt lat="38.80156" lon="-0.1629">
        <ele>448.8</ele>
        <time>2021-01-31 14:47:09</time>
      </trkpt>
      <trkpt lat="38.80154" lon="-0.1629">
        <ele>448.8</ele>
        <time>2021-01-31 14:47:10</time>
      </trkpt>
      <trkpt lat="38.80152" lon="-0.1629">
        <ele>449.8</ele>
        <time>2021-01-31 14:47:11</time>
      </trkpt>
      <trkpt lat="38.8015" lon="-0.16291">
        <ele>450.4</ele>
        <time>2021-01-31 14:47:12</time>
      </trkpt>
      <trkpt lat="38.80148" lon="-0.16291">
        <ele>450.4</ele>
        <time>2021-01-31 14:47:13</time>
      </trkpt>
      <trkpt lat="38.80145" lon="-0.16291">
        <ele>450.4</ele>
        <time>2021-01-31 14:47:14</time>
      </trkpt>
      <trkpt lat="38.80143" lon="-0.16291">
        <ele>451</ele>
        <time>2021-01-31 14:47:15</time>
      </trkpt>
      <trkpt lat="38.80141" lon="-0.16291">
        <ele>451.6</ele>
        <time>2021-01-31 14:47:16</time>
      </trkpt>
      <trkpt lat="38.80139" lon="-0.16291">
        <ele>451.6</ele>
        <time>2021-01-31 14:47:17</time>
      </trkpt>
      <trkpt lat="38.80138" lon="-0.16291">
        <ele>451.6</ele>
        <time>2021-01-31 14:47:18</time>
      </trkpt>
      <trkpt lat="38.80138" lon="-0.16291">
        <ele>451.8</ele>
        <time>2021-01-31 14:47:19</time>
      </trkpt>
      <trkpt lat="38.80135" lon="-0.16291">
        <ele>452</ele>
        <time>2021-01-31 14:47:20</time>
      </trkpt>
      <trkpt lat="38.80135" lon="-0.16291">
        <ele>452</ele>
        <time>2021-01-31 14:47:21</time>
      </trkpt>
      <trkpt lat="38.80132" lon="-0.16292">
        <ele>452</ele>
        <time>2021-01-31 14:47:22</time>
      </trkpt>
      <trkpt lat="38.8013" lon="-0.16292">
        <ele>452.4</ele>
        <time>2021-01-31 14:47:23</time>
      </trkpt>
      <trkpt lat="38.80128" lon="-0.16292">
        <ele>452.8</ele>
        <time>2021-01-31 14:47:24</time>
      </trkpt>
      <trkpt lat="38.80127" lon="-0.16292">
        <ele>452.8</ele>
        <time>2021-01-31 14:47:25</time>
      </trkpt>
      <trkpt lat="38.80126" lon="-0.16292">
        <ele>452.8</ele>
        <time>2021-01-31 14:47:26</time>
      </trkpt>
      <trkpt lat="38.80124" lon="-0.16292">
        <ele>453.2</ele>
        <time>2021-01-31 14:47:27</time>
      </trkpt>
      <trkpt lat="38.80123" lon="-0.16292">
        <ele>453.6</ele>
        <time>2021-01-31 14:47:28</time>
      </trkpt>
      <trkpt lat="38.80121" lon="-0.16293">
        <ele>453.6</ele>
        <time>2021-01-31 14:47:29</time>
      </trkpt>
      <trkpt lat="38.8012" lon="-0.16293">
        <ele>453.6</ele>
        <time>2021-01-31 14:47:30</time>
      </trkpt>
      <trkpt lat="38.8012" lon="-0.16293">
        <ele>454.6</ele>
        <time>2021-01-31 14:47:31</time>
      </trkpt>
      <trkpt lat="38.80117" lon="-0.16293">
        <ele>454.6</ele>
        <time>2021-01-31 14:47:32</time>
      </trkpt>
      <trkpt lat="38.80117" lon="-0.16293">
        <ele>454.6</ele>
        <time>2021-01-31 14:47:33</time>
      </trkpt>
      <trkpt lat="38.80114" lon="-0.16294">
        <ele>454.6</ele>
        <time>2021-01-31 14:47:34</time>
      </trkpt>
      <trkpt lat="38.80113" lon="-0.16295">
        <ele>455.2</ele>
        <time>2021-01-31 14:47:35</time>
      </trkpt>
      <trkpt lat="38.80113" lon="-0.16295">
        <ele>455.4</ele>
        <time>2021-01-31 14:47:36</time>
      </trkpt>
      <trkpt lat="38.8011" lon="-0.16295">
        <ele>455.4</ele>
        <time>2021-01-31 14:47:37</time>
      </trkpt>
      <trkpt lat="38.8011" lon="-0.16295">
        <ele>455.4</ele>
        <time>2021-01-31 14:47:38</time>
      </trkpt>
      <trkpt lat="38.80108" lon="-0.16297">
        <ele>456.4</ele>
        <time>2021-01-31 14:47:39</time>
      </trkpt>
      <trkpt lat="38.80108" lon="-0.16297">
        <ele>456.8</ele>
        <time>2021-01-31 14:47:40</time>
      </trkpt>
      <trkpt lat="38.80106" lon="-0.16299">
        <ele>456.8</ele>
        <time>2021-01-31 14:47:41</time>
      </trkpt>
      <trkpt lat="38.80106" lon="-0.16299">
        <ele>456.8</ele>
        <time>2021-01-31 14:47:42</time>
      </trkpt>
      <trkpt lat="38.80106" lon="-0.16301">
        <ele>456.8</ele>
        <time>2021-01-31 14:47:43</time>
      </trkpt>
      <trkpt lat="38.80106" lon="-0.16301">
        <ele>457.6</ele>
        <time>2021-01-31 14:47:44</time>
      </trkpt>
      <trkpt lat="38.80106" lon="-0.16305">
        <ele>457.6</ele>
        <time>2021-01-31 14:47:45</time>
      </trkpt>
      <trkpt lat="38.80106" lon="-0.16305">
        <ele>457.6</ele>
        <time>2021-01-31 14:47:46</time>
      </trkpt>
      <trkpt lat="38.80108" lon="-0.16309">
        <ele>457.6</ele>
        <time>2021-01-31 14:47:47</time>
      </trkpt>
      <trkpt lat="38.80109" lon="-0.16311">
        <ele>459</ele>
        <time>2021-01-31 14:47:48</time>
      </trkpt>
      <trkpt lat="38.80109" lon="-0.16313">
        <ele>459</ele>
        <time>2021-01-31 14:47:49</time>
      </trkpt>
      <trkpt lat="38.8011" lon="-0.16314">
        <ele>459</ele>
        <time>2021-01-31 14:47:50</time>
      </trkpt>
      <trkpt lat="38.8011" lon="-0.16314">
        <ele>460</ele>
        <time>2021-01-31 14:47:51</time>
      </trkpt>
      <trkpt lat="38.80112" lon="-0.16318">
        <ele>460.4</ele>
        <time>2021-01-31 14:47:52</time>
      </trkpt>
      <trkpt lat="38.80112" lon="-0.16318">
        <ele>460.4</ele>
        <time>2021-01-31 14:47:53</time>
      </trkpt>
      <trkpt lat="38.80114" lon="-0.16322">
        <ele>460.4</ele>
        <time>2021-01-31 14:47:54</time>
      </trkpt>
      <trkpt lat="38.80114" lon="-0.16323">
        <ele>460.8</ele>
        <time>2021-01-31 14:47:55</time>
      </trkpt>
      <trkpt lat="38.80115" lon="-0.16325">
        <ele>461.4</ele>
        <time>2021-01-31 14:47:56</time>
      </trkpt>
      <trkpt lat="38.80115" lon="-0.16325">
        <ele>461.4</ele>
        <time>2021-01-31 14:47:57</time>
      </trkpt>
      <trkpt lat="38.80117" lon="-0.16328">
        <ele>461.4</ele>
        <time>2021-01-31 14:47:58</time>
      </trkpt>
      <trkpt lat="38.80117" lon="-0.16328">
        <ele>461.8</ele>
        <time>2021-01-31 14:47:59</time>
      </trkpt>
      <trkpt lat="38.80118" lon="-0.16332">
        <ele>462</ele>
        <time>2021-01-31 14:48:00</time>
      </trkpt>
      <trkpt lat="38.80119" lon="-0.16334">
        <ele>462</ele>
        <time>2021-01-31 14:48:01</time>
      </trkpt>
      <trkpt lat="38.80119" lon="-0.16336">
        <ele>462</ele>
        <time>2021-01-31 14:48:02</time>
      </trkpt>
      <trkpt lat="38.80119" lon="-0.16338">
        <ele>462.6</ele>
        <time>2021-01-31 14:48:03</time>
      </trkpt>
      <trkpt lat="38.80119" lon="-0.16341">
        <ele>462.8</ele>
        <time>2021-01-31 14:48:04</time>
      </trkpt>
      <trkpt lat="38.80119" lon="-0.16343">
        <ele>462.8</ele>
        <time>2021-01-31 14:48:05</time>
      </trkpt>
      <trkpt lat="38.80118" lon="-0.16344">
        <ele>462.8</ele>
        <time>2021-01-31 14:48:06</time>
      </trkpt>
      <trkpt lat="38.80117" lon="-0.16346">
        <ele>462.8</ele>
        <time>2021-01-31 14:48:07</time>
      </trkpt>
      <trkpt lat="38.80117" lon="-0.16348">
        <ele>463.8</ele>
        <time>2021-01-31 14:48:08</time>
      </trkpt>
      <trkpt lat="38.80117" lon="-0.16348">
        <ele>463.8</ele>
        <time>2021-01-31 14:48:09</time>
      </trkpt>
      <trkpt lat="38.80115" lon="-0.16351">
        <ele>463.8</ele>
        <time>2021-01-31 14:48:10</time>
      </trkpt>
      <trkpt lat="38.80115" lon="-0.16351">
        <ele>464.2</ele>
        <time>2021-01-31 14:48:11</time>
      </trkpt>
      <trkpt lat="38.80115" lon="-0.16351">
        <ele>464.6</ele>
        <time>2021-01-31 14:48:12</time>
      </trkpt>
      <trkpt lat="38.80114" lon="-0.16356">
        <ele>464.6</ele>
        <time>2021-01-31 14:48:13</time>
      </trkpt>
      <trkpt lat="38.80114" lon="-0.16356">
        <ele>464.6</ele>
        <time>2021-01-31 14:48:14</time>
      </trkpt>
      <trkpt lat="38.80113" lon="-0.16359">
        <ele>465.4</ele>
        <time>2021-01-31 14:48:15</time>
      </trkpt>
      <trkpt lat="38.80112" lon="-0.16361">
        <ele>465.6</ele>
        <time>2021-01-31 14:48:16</time>
      </trkpt>
      <trkpt lat="38.80112" lon="-0.16361">
        <ele>465.6</ele>
        <time>2021-01-31 14:48:17</time>
      </trkpt>
      <trkpt lat="38.8011" lon="-0.16364">
        <ele>465.6</ele>
        <time>2021-01-31 14:48:18</time>
      </trkpt>
      <trkpt lat="38.8011" lon="-0.16364">
        <ele>466.6</ele>
        <time>2021-01-31 14:48:19</time>
      </trkpt>
      <trkpt lat="38.8011" lon="-0.16366">
        <ele>466.6</ele>
        <time>2021-01-31 14:48:20</time>
      </trkpt>
      <trkpt lat="38.80109" lon="-0.16368">
        <ele>466.6</ele>
        <time>2021-01-31 14:48:21</time>
      </trkpt>
      <trkpt lat="38.80108" lon="-0.16369">
        <ele>466.6</ele>
        <time>2021-01-31 14:48:22</time>
      </trkpt>
      <trkpt lat="38.80108" lon="-0.16371">
        <ele>467.6</ele>
        <time>2021-01-31 14:48:23</time>
      </trkpt>
      <trkpt lat="38.80107" lon="-0.16372">
        <ele>467.8</ele>
        <time>2021-01-31 14:48:24</time>
      </trkpt>
      <trkpt lat="38.80106" lon="-0.16374">
        <ele>467.8</ele>
        <time>2021-01-31 14:48:25</time>
      </trkpt>
      <trkpt lat="38.80105" lon="-0.16376">
        <ele>467.8</ele>
        <time>2021-01-31 14:48:26</time>
      </trkpt>
      <trkpt lat="38.80104" lon="-0.16377">
        <ele>467.8</ele>
        <time>2021-01-31 14:48:27</time>
      </trkpt>
      <trkpt lat="38.80104" lon="-0.16377">
        <ele>468</ele>
        <time>2021-01-31 14:48:28</time>
      </trkpt>
      <trkpt lat="38.80103" lon="-0.1638">
        <ele>468</ele>
        <time>2021-01-31 14:48:29</time>
      </trkpt>
      <trkpt lat="38.80103" lon="-0.1638">
        <ele>468</ele>
        <time>2021-01-31 14:48:30</time>
      </trkpt>
      <trkpt lat="38.80101" lon="-0.16383">
        <ele>469</ele>
        <time>2021-01-31 14:48:31</time>
      </trkpt>
      <trkpt lat="38.801" lon="-0.16384">
        <ele>469.2</ele>
        <time>2021-01-31 14:48:32</time>
      </trkpt>
      <trkpt lat="38.801" lon="-0.16385">
        <ele>469.2</ele>
        <time>2021-01-31 14:48:33</time>
      </trkpt>
      <trkpt lat="38.80099" lon="-0.16387">
        <ele>469.2</ele>
        <time>2021-01-31 14:48:34</time>
      </trkpt>
      <trkpt lat="38.80099" lon="-0.16388">
        <ele>470</ele>
        <time>2021-01-31 14:48:35</time>
      </trkpt>
      <trkpt lat="38.80098" lon="-0.1639">
        <ele>470</ele>
        <time>2021-01-31 14:48:36</time>
      </trkpt>
      <trkpt lat="38.80097" lon="-0.16391">
        <ele>470</ele>
        <time>2021-01-31 14:48:37</time>
      </trkpt>
      <trkpt lat="38.80096" lon="-0.16393">
        <ele>470</ele>
        <time>2021-01-31 14:48:38</time>
      </trkpt>
      <trkpt lat="38.80096" lon="-0.16394">
        <ele>470.8</ele>
        <time>2021-01-31 14:48:39</time>
      </trkpt>
      <trkpt lat="38.80095" lon="-0.16396">
        <ele>470.6</ele>
        <time>2021-01-31 14:48:40</time>
      </trkpt>
      <trkpt lat="38.80094" lon="-0.16398">
        <ele>470.6</ele>
        <time>2021-01-31 14:48:41</time>
      </trkpt>
      <trkpt lat="38.80094" lon="-0.16398">
        <ele>470.6</ele>
        <time>2021-01-31 14:48:42</time>
      </trkpt>
      <trkpt lat="38.80093" lon="-0.16401">
        <ele>471.6</ele>
        <time>2021-01-31 14:48:43</time>
      </trkpt>
      <trkpt lat="38.80093" lon="-0.16401">
        <ele>471.8</ele>
        <time>2021-01-31 14:48:44</time>
      </trkpt>
      <trkpt lat="38.80091" lon="-0.16404">
        <ele>471.8</ele>
        <time>2021-01-31 14:48:45</time>
      </trkpt>
      <trkpt lat="38.8009" lon="-0.16406">
        <ele>471.8</ele>
        <time>2021-01-31 14:48:46</time>
      </trkpt>
      <trkpt lat="38.8009" lon="-0.16406">
        <ele>472.4</ele>
        <time>2021-01-31 14:48:47</time>
      </trkpt>
      <trkpt lat="38.80088" lon="-0.16409">
        <ele>473</ele>
        <time>2021-01-31 14:48:48</time>
      </trkpt>
      <trkpt lat="38.80088" lon="-0.16409">
        <ele>473</ele>
        <time>2021-01-31 14:48:49</time>
      </trkpt>
      <trkpt lat="38.80087" lon="-0.16412">
        <ele>473</ele>
        <time>2021-01-31 14:48:50</time>
      </trkpt>
      <trkpt lat="38.80086" lon="-0.16414">
        <ele>473.8</ele>
        <time>2021-01-31 14:48:51</time>
      </trkpt>
      <trkpt lat="38.80086" lon="-0.16414">
        <ele>473.8</ele>
        <time>2021-01-31 14:48:52</time>
      </trkpt>
      <trkpt lat="38.80085" lon="-0.16417">
        <ele>473.8</ele>
        <time>2021-01-31 14:48:53</time>
      </trkpt>
      <trkpt lat="38.80085" lon="-0.16417">
        <ele>473.8</ele>
        <time>2021-01-31 14:48:54</time>
      </trkpt>
      <trkpt lat="38.80083" lon="-0.1642">
        <ele>473.8</ele>
        <time>2021-01-31 14:48:55</time>
      </trkpt>
      <trkpt lat="38.80082" lon="-0.16422">
        <ele>474.8</ele>
        <time>2021-01-31 14:48:56</time>
      </trkpt>
      <trkpt lat="38.80082" lon="-0.16422">
        <ele>474.8</ele>
        <time>2021-01-31 14:48:57</time>
      </trkpt>
      <trkpt lat="38.8008" lon="-0.16425">
        <ele>474.8</ele>
        <time>2021-01-31 14:48:58</time>
      </trkpt>
      <trkpt lat="38.8008" lon="-0.16425">
        <ele>475.8</ele>
        <time>2021-01-31 14:48:59</time>
      </trkpt>
      <trkpt lat="38.80079" lon="-0.16429">
        <ele>475.6</ele>
        <time>2021-01-31 14:49:00</time>
      </trkpt>
      <trkpt lat="38.80078" lon="-0.1643">
        <ele>475.6</ele>
        <time>2021-01-31 14:49:01</time>
      </trkpt>
      <trkpt lat="38.80078" lon="-0.16432">
        <ele>475.6</ele>
        <time>2021-01-31 14:49:02</time>
      </trkpt>
      <trkpt lat="38.80078" lon="-0.16432">
        <ele>475.6</ele>
        <time>2021-01-31 14:49:03</time>
      </trkpt>
      <trkpt lat="38.80077" lon="-0.16436">
        <ele>476.6</ele>
        <time>2021-01-31 14:49:04</time>
      </trkpt>
      <trkpt lat="38.80077" lon="-0.16436">
        <ele>476.6</ele>
        <time>2021-01-31 14:49:05</time>
      </trkpt>
      <trkpt lat="38.80076" lon="-0.1644">
        <ele>476.6</ele>
        <time>2021-01-31 14:49:06</time>
      </trkpt>
      <trkpt lat="38.80075" lon="-0.16442">
        <ele>477.4</ele>
        <time>2021-01-31 14:49:07</time>
      </trkpt>
      <trkpt lat="38.80074" lon="-0.16444">
        <ele>478</ele>
        <time>2021-01-31 14:49:08</time>
      </trkpt>
      <trkpt lat="38.80073" lon="-0.16446">
        <ele>478</ele>
        <time>2021-01-31 14:49:09</time>
      </trkpt>
      <trkpt lat="38.80072" lon="-0.16448">
        <ele>478</ele>
        <time>2021-01-31 14:49:10</time>
      </trkpt>
      <trkpt lat="38.80071" lon="-0.16451">
        <ele>478</ele>
        <time>2021-01-31 14:49:11</time>
      </trkpt>
      <trkpt lat="38.8007" lon="-0.16452">
        <ele>478.2</ele>
        <time>2021-01-31 14:49:12</time>
      </trkpt>
      <trkpt lat="38.80069" lon="-0.16454">
        <ele>478.2</ele>
        <time>2021-01-31 14:49:13</time>
      </trkpt>
      <trkpt lat="38.80067" lon="-0.16456">
        <ele>478.2</ele>
        <time>2021-01-31 14:49:14</time>
      </trkpt>
      <trkpt lat="38.80066" lon="-0.16458">
        <ele>478.6</ele>
        <time>2021-01-31 14:49:15</time>
      </trkpt>
      <trkpt lat="38.80064" lon="-0.16459">
        <ele>479</ele>
        <time>2021-01-31 14:49:16</time>
      </trkpt>
      <trkpt lat="38.80062" lon="-0.1646">
        <ele>479</ele>
        <time>2021-01-31 14:49:17</time>
      </trkpt>
      <trkpt lat="38.8006" lon="-0.16462">
        <ele>479</ele>
        <time>2021-01-31 14:49:18</time>
      </trkpt>
      <trkpt lat="38.80058" lon="-0.16463">
        <ele>479</ele>
        <time>2021-01-31 14:49:19</time>
      </trkpt>
      <trkpt lat="38.80056" lon="-0.16465">
        <ele>479.6</ele>
        <time>2021-01-31 14:49:20</time>
      </trkpt>
      <trkpt lat="38.80054" lon="-0.16465">
        <ele>479.6</ele>
        <time>2021-01-31 14:49:21</time>
      </trkpt>
      <trkpt lat="38.80052" lon="-0.16465">
        <ele>479.6</ele>
        <time>2021-01-31 14:49:22</time>
      </trkpt>
      <trkpt lat="38.8005" lon="-0.16466">
        <ele>479.6</ele>
        <time>2021-01-31 14:49:23</time>
      </trkpt>
      <trkpt lat="38.80048" lon="-0.16467">
        <ele>480.4</ele>
        <time>2021-01-31 14:49:24</time>
      </trkpt>
      <trkpt lat="38.80046" lon="-0.16467">
        <ele>480.4</ele>
        <time>2021-01-31 14:49:25</time>
      </trkpt>
      <trkpt lat="38.80044" lon="-0.16468">
        <ele>480.4</ele>
        <time>2021-01-31 14:49:26</time>
      </trkpt>
      <trkpt lat="38.80042" lon="-0.16468">
        <ele>480.4</ele>
        <time>2021-01-31 14:49:27</time>
      </trkpt>
      <trkpt lat="38.8004" lon="-0.16469">
        <ele>480.4</ele>
        <time>2021-01-31 14:49:28</time>
      </trkpt>
      <trkpt lat="38.80038" lon="-0.1647">
        <ele>480.4</ele>
        <time>2021-01-31 14:49:29</time>
      </trkpt>
      <trkpt lat="38.80036" lon="-0.1647">
        <ele>480.4</ele>
        <time>2021-01-31 14:49:30</time>
      </trkpt>
      <trkpt lat="38.80034" lon="-0.16471">
        <ele>481</ele>
        <time>2021-01-31 14:49:31</time>
      </trkpt>
      <trkpt lat="38.80032" lon="-0.16471">
        <ele>480.8</ele>
        <time>2021-01-31 14:49:32</time>
      </trkpt>
      <trkpt lat="38.8003" lon="-0.16472">
        <ele>480.8</ele>
        <time>2021-01-31 14:49:33</time>
      </trkpt>
      <trkpt lat="38.80029" lon="-0.16473">
        <ele>480.8</ele>
        <time>2021-01-31 14:49:34</time>
      </trkpt>
      <trkpt lat="38.80027" lon="-0.16475">
        <ele>481.6</ele>
        <time>2021-01-31 14:49:35</time>
      </trkpt>
      <trkpt lat="38.80026" lon="-0.16475">
        <ele>481.4</ele>
        <time>2021-01-31 14:49:36</time>
      </trkpt>
      <trkpt lat="38.80025" lon="-0.16477">
        <ele>481.4</ele>
        <time>2021-01-31 14:49:37</time>
      </trkpt>
      <trkpt lat="38.80024" lon="-0.16478">
        <ele>481.4</ele>
        <time>2021-01-31 14:49:38</time>
      </trkpt>
      <trkpt lat="38.80021" lon="-0.16478">
        <ele>482.4</ele>
        <time>2021-01-31 14:49:39</time>
      </trkpt>
      <trkpt lat="38.8002" lon="-0.16479">
        <ele>482.6</ele>
        <time>2021-01-31 14:49:40</time>
      </trkpt>
      <trkpt lat="38.80019" lon="-0.16481">
        <ele>482.6</ele>
        <time>2021-01-31 14:49:41</time>
      </trkpt>
      <trkpt lat="38.80017" lon="-0.16481">
        <ele>482.6</ele>
        <time>2021-01-31 14:49:42</time>
      </trkpt>
      <trkpt lat="38.80015" lon="-0.16481">
        <ele>482.6</ele>
        <time>2021-01-31 14:49:43</time>
      </trkpt>
      <trkpt lat="38.80013" lon="-0.16482">
        <ele>484.2</ele>
        <time>2021-01-31 14:49:44</time>
      </trkpt>
      <trkpt lat="38.80012" lon="-0.16482">
        <ele>484.2</ele>
        <time>2021-01-31 14:49:45</time>
      </trkpt>
      <trkpt lat="38.8001" lon="-0.16482">
        <ele>484.2</ele>
        <time>2021-01-31 14:49:46</time>
      </trkpt>
      <trkpt lat="38.80008" lon="-0.16482">
        <ele>484.2</ele>
        <time>2021-01-31 14:49:47</time>
      </trkpt>
      <trkpt lat="38.80006" lon="-0.16482">
        <ele>485</ele>
        <time>2021-01-31 14:49:48</time>
      </trkpt>
      <trkpt lat="38.80005" lon="-0.16483">
        <ele>485</ele>
        <time>2021-01-31 14:49:49</time>
      </trkpt>
      <trkpt lat="38.80003" lon="-0.16484">
        <ele>485</ele>
        <time>2021-01-31 14:49:50</time>
      </trkpt>
      <trkpt lat="38.80001" lon="-0.16484">
        <ele>485.6</ele>
        <time>2021-01-31 14:49:51</time>
      </trkpt>
      <trkpt lat="38.79999" lon="-0.16484">
        <ele>486</ele>
        <time>2021-01-31 14:49:52</time>
      </trkpt>
      <trkpt lat="38.79998" lon="-0.16485">
        <ele>486</ele>
        <time>2021-01-31 14:49:53</time>
      </trkpt>
      <trkpt lat="38.79995" lon="-0.16485">
        <ele>486</ele>
        <time>2021-01-31 14:49:54</time>
      </trkpt>
      <trkpt lat="38.79993" lon="-0.16486">
        <ele>486</ele>
        <time>2021-01-31 14:49:55</time>
      </trkpt>
      <trkpt lat="38.79992" lon="-0.16487">
        <ele>487.2</ele>
        <time>2021-01-31 14:49:56</time>
      </trkpt>
      <trkpt lat="38.79991" lon="-0.16488">
        <ele>487.2</ele>
        <time>2021-01-31 14:49:57</time>
      </trkpt>
      <trkpt lat="38.7999" lon="-0.16489">
        <ele>487.2</ele>
        <time>2021-01-31 14:49:58</time>
      </trkpt>
      <trkpt lat="38.79989" lon="-0.1649">
        <ele>487.2</ele>
        <time>2021-01-31 14:49:59</time>
      </trkpt>
      <trkpt lat="38.79987" lon="-0.16492">
        <ele>487.8</ele>
        <time>2021-01-31 14:50:00</time>
      </trkpt>
      <trkpt lat="38.79986" lon="-0.16494">
        <ele>487.8</ele>
        <time>2021-01-31 14:50:01</time>
      </trkpt>
      <trkpt lat="38.79985" lon="-0.16495">
        <ele>487.8</ele>
        <time>2021-01-31 14:50:02</time>
      </trkpt>
      <trkpt lat="38.79984" lon="-0.16497">
        <ele>488.8</ele>
        <time>2021-01-31 14:50:03</time>
      </trkpt>
      <trkpt lat="38.79983" lon="-0.16499">
        <ele>489.2</ele>
        <time>2021-01-31 14:50:04</time>
      </trkpt>
      <trkpt lat="38.79983" lon="-0.16501">
        <ele>489.2</ele>
        <time>2021-01-31 14:50:05</time>
      </trkpt>
      <trkpt lat="38.79982" lon="-0.16504">
        <ele>489.2</ele>
        <time>2021-01-31 14:50:06</time>
      </trkpt>
      <trkpt lat="38.79982" lon="-0.16506">
        <ele>489.2</ele>
        <time>2021-01-31 14:50:07</time>
      </trkpt>
      <trkpt lat="38.79982" lon="-0.16509">
        <ele>490</ele>
        <time>2021-01-31 14:50:08</time>
      </trkpt>
      <trkpt lat="38.79982" lon="-0.16512">
        <ele>490</ele>
        <time>2021-01-31 14:50:09</time>
      </trkpt>
      <trkpt lat="38.79982" lon="-0.16515">
        <ele>490</ele>
        <time>2021-01-31 14:50:10</time>
      </trkpt>
      <trkpt lat="38.79982" lon="-0.16518">
        <ele>490</ele>
        <time>2021-01-31 14:50:11</time>
      </trkpt>
      <trkpt lat="38.79983" lon="-0.1652">
        <ele>489.8</ele>
        <time>2021-01-31 14:50:12</time>
      </trkpt>
      <trkpt lat="38.79983" lon="-0.16523">
        <ele>489.8</ele>
        <time>2021-01-31 14:50:13</time>
      </trkpt>
      <trkpt lat="38.79983" lon="-0.16526">
        <ele>489.8</ele>
        <time>2021-01-31 14:50:14</time>
      </trkpt>
      <trkpt lat="38.79984" lon="-0.16528">
        <ele>489.8</ele>
        <time>2021-01-31 14:50:15</time>
      </trkpt>
      <trkpt lat="38.79983" lon="-0.16531">
        <ele>490.2</ele>
        <time>2021-01-31 14:50:16</time>
      </trkpt>
      <trkpt lat="38.79983" lon="-0.16534">
        <ele>490.2</ele>
        <time>2021-01-31 14:50:17</time>
      </trkpt>
      <trkpt lat="38.79983" lon="-0.16537">
        <ele>490.2</ele>
        <time>2021-01-31 14:50:18</time>
      </trkpt>
      <trkpt lat="38.79981" lon="-0.16539">
        <ele>490.4</ele>
        <time>2021-01-31 14:50:19</time>
      </trkpt>
      <trkpt lat="38.7998" lon="-0.16541">
        <ele>491</ele>
        <time>2021-01-31 14:50:20</time>
      </trkpt>
      <trkpt lat="38.79978" lon="-0.16543">
        <ele>491</ele>
        <time>2021-01-31 14:50:21</time>
      </trkpt>
      <trkpt lat="38.79976" lon="-0.16544">
        <ele>491</ele>
        <time>2021-01-31 14:50:22</time>
      </trkpt>
      <trkpt lat="38.79974" lon="-0.16546">
        <ele>491</ele>
        <time>2021-01-31 14:50:23</time>
      </trkpt>
      <trkpt lat="38.79971" lon="-0.16547">
        <ele>492.2</ele>
        <time>2021-01-31 14:50:24</time>
      </trkpt>
      <trkpt lat="38.79969" lon="-0.16548">
        <ele>492.2</ele>
        <time>2021-01-31 14:50:25</time>
      </trkpt>
      <trkpt lat="38.79966" lon="-0.16549">
        <ele>492.2</ele>
        <time>2021-01-31 14:50:26</time>
      </trkpt>
      <trkpt lat="38.79964" lon="-0.16549">
        <ele>491.6</ele>
        <time>2021-01-31 14:50:27</time>
      </trkpt>
      <trkpt lat="38.79961" lon="-0.1655">
        <ele>492</ele>
        <time>2021-01-31 14:50:28</time>
      </trkpt>
      <trkpt lat="38.79959" lon="-0.16551">
        <ele>492</ele>
        <time>2021-01-31 14:50:29</time>
      </trkpt>
      <trkpt lat="38.79957" lon="-0.16551">
        <ele>492</ele>
        <time>2021-01-31 14:50:30</time>
      </trkpt>
      <trkpt lat="38.79955" lon="-0.16552">
        <ele>493</ele>
        <time>2021-01-31 14:50:31</time>
      </trkpt>
      <trkpt lat="38.79952" lon="-0.16553">
        <ele>493.6</ele>
        <time>2021-01-31 14:50:32</time>
      </trkpt>
      <trkpt lat="38.79951" lon="-0.16554">
        <ele>493.6</ele>
        <time>2021-01-31 14:50:33</time>
      </trkpt>
      <trkpt lat="38.79949" lon="-0.16555">
        <ele>493.6</ele>
        <time>2021-01-31 14:50:34</time>
      </trkpt>
      <trkpt lat="38.79948" lon="-0.16557">
        <ele>493.2</ele>
        <time>2021-01-31 14:50:35</time>
      </trkpt>
      <trkpt lat="38.79947" lon="-0.16558">
        <ele>493.8</ele>
        <time>2021-01-31 14:50:36</time>
      </trkpt>
      <trkpt lat="38.79945" lon="-0.16559">
        <ele>493.8</ele>
        <time>2021-01-31 14:50:37</time>
      </trkpt>
      <trkpt lat="38.79943" lon="-0.1656">
        <ele>493.8</ele>
        <time>2021-01-31 14:50:38</time>
      </trkpt>
      <trkpt lat="38.79941" lon="-0.16561">
        <ele>494</ele>
        <time>2021-01-31 14:50:39</time>
      </trkpt>
      <trkpt lat="38.79939" lon="-0.16563">
        <ele>494.6</ele>
        <time>2021-01-31 14:50:40</time>
      </trkpt>
      <trkpt lat="38.79937" lon="-0.16564">
        <ele>494.6</ele>
        <time>2021-01-31 14:50:41</time>
      </trkpt>
      <trkpt lat="38.79936" lon="-0.16565">
        <ele>494.6</ele>
        <time>2021-01-31 14:50:42</time>
      </trkpt>
      <trkpt lat="38.79934" lon="-0.16566">
        <ele>494.6</ele>
        <time>2021-01-31 14:50:43</time>
      </trkpt>
      <trkpt lat="38.79932" lon="-0.16567">
        <ele>495</ele>
        <time>2021-01-31 14:50:44</time>
      </trkpt>
      <trkpt lat="38.7993" lon="-0.16568">
        <ele>495</ele>
        <time>2021-01-31 14:50:45</time>
      </trkpt>
      <trkpt lat="38.79928" lon="-0.16569">
        <ele>495</ele>
        <time>2021-01-31 14:50:46</time>
      </trkpt>
      <trkpt lat="38.79926" lon="-0.1657">
        <ele>496</ele>
        <time>2021-01-31 14:50:47</time>
      </trkpt>
      <trkpt lat="38.79924" lon="-0.16572">
        <ele>496.4</ele>
        <time>2021-01-31 14:50:48</time>
      </trkpt>
      <trkpt lat="38.79921" lon="-0.16572">
        <ele>496.4</ele>
        <time>2021-01-31 14:50:49</time>
      </trkpt>
      <trkpt lat="38.79919" lon="-0.16573">
        <ele>496.4</ele>
        <time>2021-01-31 14:50:50</time>
      </trkpt>
      <trkpt lat="38.79917" lon="-0.16575">
        <ele>497.4</ele>
        <time>2021-01-31 14:50:51</time>
      </trkpt>
      <trkpt lat="38.79915" lon="-0.16576">
        <ele>497.2</ele>
        <time>2021-01-31 14:50:52</time>
      </trkpt>
      <trkpt lat="38.79913" lon="-0.16577">
        <ele>497.2</ele>
        <time>2021-01-31 14:50:53</time>
      </trkpt>
      <trkpt lat="38.7991" lon="-0.16577">
        <ele>497.2</ele>
        <time>2021-01-31 14:50:54</time>
      </trkpt>
      <trkpt lat="38.79909" lon="-0.16578">
        <ele>498</ele>
        <time>2021-01-31 14:50:55</time>
      </trkpt>
      <trkpt lat="38.79908" lon="-0.1658">
        <ele>497.4</ele>
        <time>2021-01-31 14:50:56</time>
      </trkpt>
      <trkpt lat="38.79906" lon="-0.16581">
        <ele>497.4</ele>
        <time>2021-01-31 14:50:57</time>
      </trkpt>
      <trkpt lat="38.79904" lon="-0.16583">
        <ele>497.4</ele>
        <time>2021-01-31 14:50:58</time>
      </trkpt>
      <trkpt lat="38.79902" lon="-0.16584">
        <ele>497.4</ele>
        <time>2021-01-31 14:50:59</time>
      </trkpt>
      <trkpt lat="38.79901" lon="-0.16586">
        <ele>497.2</ele>
        <time>2021-01-31 14:51:00</time>
      </trkpt>
      <trkpt lat="38.79899" lon="-0.16588">
        <ele>497.2</ele>
        <time>2021-01-31 14:51:01</time>
      </trkpt>
      <trkpt lat="38.79897" lon="-0.1659">
        <ele>497.2</ele>
        <time>2021-01-31 14:51:02</time>
      </trkpt>
      <trkpt lat="38.79895" lon="-0.16592">
        <ele>498.2</ele>
        <time>2021-01-31 14:51:03</time>
      </trkpt>
      <trkpt lat="38.79894" lon="-0.16594">
        <ele>499.2</ele>
        <time>2021-01-31 14:51:04</time>
      </trkpt>
      <trkpt lat="38.79892" lon="-0.16596">
        <ele>499.2</ele>
        <time>2021-01-31 14:51:05</time>
      </trkpt>
      <trkpt lat="38.79891" lon="-0.16598">
        <ele>499.2</ele>
        <time>2021-01-31 14:51:06</time>
      </trkpt>
      <trkpt lat="38.79889" lon="-0.16601">
        <ele>499.6</ele>
        <time>2021-01-31 14:51:07</time>
      </trkpt>
      <trkpt lat="38.79889" lon="-0.16604">
        <ele>498.8</ele>
        <time>2021-01-31 14:51:08</time>
      </trkpt>
      <trkpt lat="38.79888" lon="-0.16607">
        <ele>498.8</ele>
        <time>2021-01-31 14:51:09</time>
      </trkpt>
      <trkpt lat="38.79888" lon="-0.16611">
        <ele>498.8</ele>
        <time>2021-01-31 14:51:10</time>
      </trkpt>
      <trkpt lat="38.79887" lon="-0.16614">
        <ele>499.4</ele>
        <time>2021-01-31 14:51:11</time>
      </trkpt>
      <trkpt lat="38.79886" lon="-0.16618">
        <ele>499.8</ele>
        <time>2021-01-31 14:51:12</time>
      </trkpt>
      <trkpt lat="38.79886" lon="-0.16622">
        <ele>499.8</ele>
        <time>2021-01-31 14:51:13</time>
      </trkpt>
      <trkpt lat="38.79884" lon="-0.16625">
        <ele>499.8</ele>
        <time>2021-01-31 14:51:14</time>
      </trkpt>
      <trkpt lat="38.79882" lon="-0.16628">
        <ele>499.8</ele>
        <time>2021-01-31 14:51:15</time>
      </trkpt>
      <trkpt lat="38.7988" lon="-0.16631">
        <ele>499.2</ele>
        <time>2021-01-31 14:51:16</time>
      </trkpt>
      <trkpt lat="38.79877" lon="-0.16634">
        <ele>499.2</ele>
        <time>2021-01-31 14:51:17</time>
      </trkpt>
      <trkpt lat="38.79873" lon="-0.16637">
        <ele>499.2</ele>
        <time>2021-01-31 14:51:18</time>
      </trkpt>
      <trkpt lat="38.7987" lon="-0.16639">
        <ele>499.2</ele>
        <time>2021-01-31 14:51:19</time>
      </trkpt>
      <trkpt lat="38.79867" lon="-0.1664">
        <ele>499.8</ele>
        <time>2021-01-31 14:51:20</time>
      </trkpt>
      <trkpt lat="38.79863" lon="-0.16642">
        <ele>499.8</ele>
        <time>2021-01-31 14:51:21</time>
      </trkpt>
      <trkpt lat="38.7986" lon="-0.16642">
        <ele>499.8</ele>
        <time>2021-01-31 14:51:22</time>
      </trkpt>
      <trkpt lat="38.79857" lon="-0.16644">
        <ele>499.6</ele>
        <time>2021-01-31 14:51:23</time>
      </trkpt>
      <trkpt lat="38.79855" lon="-0.16645">
        <ele>499.2</ele>
        <time>2021-01-31 14:51:24</time>
      </trkpt>
      <trkpt lat="38.79852" lon="-0.16647">
        <ele>499.2</ele>
        <time>2021-01-31 14:51:25</time>
      </trkpt>
      <trkpt lat="38.79849" lon="-0.16648">
        <ele>499.2</ele>
        <time>2021-01-31 14:51:26</time>
      </trkpt>
      <trkpt lat="38.79847" lon="-0.1665">
        <ele>500</ele>
        <time>2021-01-31 14:51:27</time>
      </trkpt>
      <trkpt lat="38.79846" lon="-0.16652">
        <ele>500.6</ele>
        <time>2021-01-31 14:51:28</time>
      </trkpt>
      <trkpt lat="38.79844" lon="-0.16654">
        <ele>500.6</ele>
        <time>2021-01-31 14:51:29</time>
      </trkpt>
      <trkpt lat="38.79842" lon="-0.16656">
        <ele>500.6</ele>
        <time>2021-01-31 14:51:30</time>
      </trkpt>
      <trkpt lat="38.7984" lon="-0.16657">
        <ele>500</ele>
        <time>2021-01-31 14:51:31</time>
      </trkpt>
      <trkpt lat="38.7984" lon="-0.16657">
        <ele>499.4</ele>
        <time>2021-01-31 14:51:32</time>
      </trkpt>
      <trkpt lat="38.79838" lon="-0.16659">
        <ele>499.4</ele>
        <time>2021-01-31 14:51:33</time>
      </trkpt>
      <trkpt lat="38.79838" lon="-0.16659">
        <ele>499.4</ele>
        <time>2021-01-31 14:51:34</time>
      </trkpt>
      <trkpt lat="38.79838" lon="-0.16659">
        <ele>499.4</ele>
        <time>2021-01-31 14:51:35</time>
      </trkpt>
      <trkpt lat="38.79834" lon="-0.16662">
        <ele>498.4</ele>
        <time>2021-01-31 14:51:36</time>
      </trkpt>
      <trkpt lat="38.79834" lon="-0.16662">
        <ele>498.4</ele>
        <time>2021-01-31 14:51:37</time>
      </trkpt>
      <trkpt lat="38.79831" lon="-0.16664">
        <ele>498.4</ele>
        <time>2021-01-31 14:51:38</time>
      </trkpt>
      <trkpt lat="38.79829" lon="-0.16665">
        <ele>499.4</ele>
        <time>2021-01-31 14:51:39</time>
      </trkpt>
      <trkpt lat="38.79827" lon="-0.16667">
        <ele>501.2</ele>
        <time>2021-01-31 14:51:40</time>
      </trkpt>
      <trkpt lat="38.79825" lon="-0.16668">
        <ele>501.2</ele>
        <time>2021-01-31 14:51:41</time>
      </trkpt>
      <trkpt lat="38.79823" lon="-0.16669">
        <ele>501.2</ele>
        <time>2021-01-31 14:51:42</time>
      </trkpt>
      <trkpt lat="38.79821" lon="-0.16671">
        <ele>502.2</ele>
        <time>2021-01-31 14:51:43</time>
      </trkpt>
      <trkpt lat="38.79819" lon="-0.16672">
        <ele>501.8</ele>
        <time>2021-01-31 14:51:44</time>
      </trkpt>
      <trkpt lat="38.79817" lon="-0.16674">
        <ele>501.8</ele>
        <time>2021-01-31 14:51:45</time>
      </trkpt>
      <trkpt lat="38.79814" lon="-0.16675">
        <ele>501.8</ele>
        <time>2021-01-31 14:51:46</time>
      </trkpt>
      <trkpt lat="38.79811" lon="-0.16677">
        <ele>502.6</ele>
        <time>2021-01-31 14:51:47</time>
      </trkpt>
      <trkpt lat="38.79809" lon="-0.16678">
        <ele>503.4</ele>
        <time>2021-01-31 14:51:48</time>
      </trkpt>
      <trkpt lat="38.79806" lon="-0.16679">
        <ele>503.4</ele>
        <time>2021-01-31 14:51:49</time>
      </trkpt>
      <trkpt lat="38.79804" lon="-0.16681">
        <ele>503.4</ele>
        <time>2021-01-31 14:51:50</time>
      </trkpt>
      <trkpt lat="38.79801" lon="-0.16682">
        <ele>504.4</ele>
        <time>2021-01-31 14:51:51</time>
      </trkpt>
      <trkpt lat="38.79799" lon="-0.16683">
        <ele>504.4</ele>
        <time>2021-01-31 14:51:52</time>
      </trkpt>
      <trkpt lat="38.79797" lon="-0.16685">
        <ele>504.4</ele>
        <time>2021-01-31 14:51:53</time>
      </trkpt>
      <trkpt lat="38.79795" lon="-0.16686">
        <ele>504.4</ele>
        <time>2021-01-31 14:51:54</time>
      </trkpt>
      <trkpt lat="38.79793" lon="-0.16687">
        <ele>505.2</ele>
        <time>2021-01-31 14:51:55</time>
      </trkpt>
      <trkpt lat="38.7979" lon="-0.16688">
        <ele>505.2</ele>
        <time>2021-01-31 14:51:56</time>
      </trkpt>
      <trkpt lat="38.79788" lon="-0.16689">
        <ele>505.2</ele>
        <time>2021-01-31 14:51:57</time>
      </trkpt>
      <trkpt lat="38.79786" lon="-0.1669">
        <ele>505.2</ele>
        <time>2021-01-31 14:51:58</time>
      </trkpt>
      <trkpt lat="38.79784" lon="-0.16691">
        <ele>505.8</ele>
        <time>2021-01-31 14:51:59</time>
      </trkpt>
      <trkpt lat="38.79781" lon="-0.16692">
        <ele>506.6</ele>
        <time>2021-01-31 14:52:00</time>
      </trkpt>
      <trkpt lat="38.79779" lon="-0.16693">
        <ele>506.6</ele>
        <time>2021-01-31 14:52:01</time>
      </trkpt>
      <trkpt lat="38.79777" lon="-0.16694">
        <ele>506.6</ele>
        <time>2021-01-31 14:52:02</time>
      </trkpt>
      <trkpt lat="38.79775" lon="-0.16695">
        <ele>507.6</ele>
        <time>2021-01-31 14:52:03</time>
      </trkpt>
      <trkpt lat="38.79773" lon="-0.16696">
        <ele>508</ele>
        <time>2021-01-31 14:52:04</time>
      </trkpt>
      <trkpt lat="38.79771" lon="-0.16698">
        <ele>508</ele>
        <time>2021-01-31 14:52:05</time>
      </trkpt>
      <trkpt lat="38.79769" lon="-0.167">
        <ele>508</ele>
        <time>2021-01-31 14:52:06</time>
      </trkpt>
      <trkpt lat="38.79767" lon="-0.16701">
        <ele>508</ele>
        <time>2021-01-31 14:52:07</time>
      </trkpt>
      <trkpt lat="38.79765" lon="-0.16703">
        <ele>508.4</ele>
        <time>2021-01-31 14:52:08</time>
      </trkpt>
      <trkpt lat="38.79762" lon="-0.16705">
        <ele>508.4</ele>
        <time>2021-01-31 14:52:09</time>
      </trkpt>
      <trkpt lat="38.7976" lon="-0.16707">
        <ele>508.4</ele>
        <time>2021-01-31 14:52:10</time>
      </trkpt>
      <trkpt lat="38.79758" lon="-0.16709">
        <ele>508.4</ele>
        <time>2021-01-31 14:52:11</time>
      </trkpt>
      <trkpt lat="38.79756" lon="-0.16711">
        <ele>508.2</ele>
        <time>2021-01-31 14:52:12</time>
      </trkpt>
      <trkpt lat="38.79754" lon="-0.16713">
        <ele>508.2</ele>
        <time>2021-01-31 14:52:13</time>
      </trkpt>
      <trkpt lat="38.79751" lon="-0.16715">
        <ele>508.2</ele>
        <time>2021-01-31 14:52:14</time>
      </trkpt>
      <trkpt lat="38.79749" lon="-0.16717">
        <ele>508.6</ele>
        <time>2021-01-31 14:52:15</time>
      </trkpt>
      <trkpt lat="38.79747" lon="-0.16719">
        <ele>508.6</ele>
        <time>2021-01-31 14:52:16</time>
      </trkpt>
      <trkpt lat="38.79744" lon="-0.16721">
        <ele>508.6</ele>
        <time>2021-01-31 14:52:17</time>
      </trkpt>
      <trkpt lat="38.79743" lon="-0.16724">
        <ele>508.6</ele>
        <time>2021-01-31 14:52:18</time>
      </trkpt>
      <trkpt lat="38.7974" lon="-0.16726">
        <ele>509.2</ele>
        <time>2021-01-31 14:52:19</time>
      </trkpt>
      <trkpt lat="38.79738" lon="-0.16728">
        <ele>508.8</ele>
        <time>2021-01-31 14:52:20</time>
      </trkpt>
      <trkpt lat="38.79736" lon="-0.1673">
        <ele>508.8</ele>
        <time>2021-01-31 14:52:21</time>
      </trkpt>
      <trkpt lat="38.79734" lon="-0.16732">
        <ele>508.8</ele>
        <time>2021-01-31 14:52:22</time>
      </trkpt>
      <trkpt lat="38.79732" lon="-0.16735">
        <ele>508.8</ele>
        <time>2021-01-31 14:52:23</time>
      </trkpt>
      <trkpt lat="38.7973" lon="-0.16737">
        <ele>510.6</ele>
        <time>2021-01-31 14:52:24</time>
      </trkpt>
      <trkpt lat="38.79729" lon="-0.16739">
        <ele>510.6</ele>
        <time>2021-01-31 14:52:25</time>
      </trkpt>
      <trkpt lat="38.79727" lon="-0.16742">
        <ele>510.6</ele>
        <time>2021-01-31 14:52:26</time>
      </trkpt>
      <trkpt lat="38.79725" lon="-0.16744">
        <ele>510.6</ele>
        <time>2021-01-31 14:52:27</time>
      </trkpt>
      <trkpt lat="38.79724" lon="-0.16746">
        <ele>511.4</ele>
        <time>2021-01-31 14:52:28</time>
      </trkpt>
      <trkpt lat="38.79722" lon="-0.16749">
        <ele>511.4</ele>
        <time>2021-01-31 14:52:29</time>
      </trkpt>
      <trkpt lat="38.7972" lon="-0.16751">
        <ele>511.4</ele>
        <time>2021-01-31 14:52:30</time>
      </trkpt>
      <trkpt lat="38.79718" lon="-0.16753">
        <ele>511.4</ele>
        <time>2021-01-31 14:52:31</time>
      </trkpt>
      <trkpt lat="38.79717" lon="-0.16755">
        <ele>513</ele>
        <time>2021-01-31 14:52:32</time>
      </trkpt>
      <trkpt lat="38.79715" lon="-0.16757">
        <ele>513</ele>
        <time>2021-01-31 14:52:33</time>
      </trkpt>
      <trkpt lat="38.79713" lon="-0.1676">
        <ele>513</ele>
        <time>2021-01-31 14:52:34</time>
      </trkpt>
      <trkpt lat="38.79712" lon="-0.16762">
        <ele>513</ele>
        <time>2021-01-31 14:52:35</time>
      </trkpt>
      <trkpt lat="38.79711" lon="-0.16764">
        <ele>514.4</ele>
        <time>2021-01-31 14:52:36</time>
      </trkpt>
      <trkpt lat="38.79709" lon="-0.16766">
        <ele>514.4</ele>
        <time>2021-01-31 14:52:37</time>
      </trkpt>
      <trkpt lat="38.79708" lon="-0.16768">
        <ele>514.4</ele>
        <time>2021-01-31 14:52:38</time>
      </trkpt>
      <trkpt lat="38.79707" lon="-0.16771">
        <ele>514.4</ele>
        <time>2021-01-31 14:52:39</time>
      </trkpt>
      <trkpt lat="38.79705" lon="-0.16773">
        <ele>514.4</ele>
        <time>2021-01-31 14:52:40</time>
      </trkpt>
      <trkpt lat="38.79704" lon="-0.16776">
        <ele>514.4</ele>
        <time>2021-01-31 14:52:41</time>
      </trkpt>
      <trkpt lat="38.79702" lon="-0.16778">
        <ele>514.4</ele>
        <time>2021-01-31 14:52:42</time>
      </trkpt>
      <trkpt lat="38.79701" lon="-0.1678">
        <ele>515.4</ele>
        <time>2021-01-31 14:52:43</time>
      </trkpt>
      <trkpt lat="38.79699" lon="-0.16783">
        <ele>515.4</ele>
        <time>2021-01-31 14:52:44</time>
      </trkpt>
      <trkpt lat="38.79697" lon="-0.16785">
        <ele>515.4</ele>
        <time>2021-01-31 14:52:45</time>
      </trkpt>
      <trkpt lat="38.79695" lon="-0.16787">
        <ele>515.4</ele>
        <time>2021-01-31 14:52:46</time>
      </trkpt>
      <trkpt lat="38.79693" lon="-0.1679">
        <ele>516.2</ele>
        <time>2021-01-31 14:52:47</time>
      </trkpt>
      <trkpt lat="38.79692" lon="-0.16792">
        <ele>516</ele>
        <time>2021-01-31 14:52:48</time>
      </trkpt>
      <trkpt lat="38.7969" lon="-0.16795">
        <ele>516</ele>
        <time>2021-01-31 14:52:49</time>
      </trkpt>
      <trkpt lat="38.79689" lon="-0.16797">
        <ele>516</ele>
        <time>2021-01-31 14:52:50</time>
      </trkpt>
      <trkpt lat="38.79687" lon="-0.16799">
        <ele>516</ele>
        <time>2021-01-31 14:52:51</time>
      </trkpt>
      <trkpt lat="38.79686" lon="-0.16801">
        <ele>516.4</ele>
        <time>2021-01-31 14:52:52</time>
      </trkpt>
      <trkpt lat="38.79684" lon="-0.16803">
        <ele>516.4</ele>
        <time>2021-01-31 14:52:53</time>
      </trkpt>
      <trkpt lat="38.79682" lon="-0.16806">
        <ele>516.4</ele>
        <time>2021-01-31 14:52:54</time>
      </trkpt>
      <trkpt lat="38.7968" lon="-0.16808">
        <ele>516.4</ele>
        <time>2021-01-31 14:52:55</time>
      </trkpt>
      <trkpt lat="38.79678" lon="-0.16811">
        <ele>516.8</ele>
        <time>2021-01-31 14:52:56</time>
      </trkpt>
      <trkpt lat="38.79676" lon="-0.16813">
        <ele>516.8</ele>
        <time>2021-01-31 14:52:57</time>
      </trkpt>
      <trkpt lat="38.79674" lon="-0.16816">
        <ele>516.8</ele>
        <time>2021-01-31 14:52:58</time>
      </trkpt>
      <trkpt lat="38.79672" lon="-0.16818">
        <ele>516.2</ele>
        <time>2021-01-31 14:52:59</time>
      </trkpt>
      <trkpt lat="38.7967" lon="-0.16821">
        <ele>516.2</ele>
        <time>2021-01-31 14:53:00</time>
      </trkpt>
      <trkpt lat="38.79668" lon="-0.16823">
        <ele>516.2</ele>
        <time>2021-01-31 14:53:01</time>
      </trkpt>
      <trkpt lat="38.79667" lon="-0.16824">
        <ele>516.2</ele>
        <time>2021-01-31 14:53:02</time>
      </trkpt>
      <trkpt lat="38.79665" lon="-0.16826">
        <ele>516.2</ele>
        <time>2021-01-31 14:53:03</time>
      </trkpt>
      <trkpt lat="38.79664" lon="-0.16829">
        <ele>515.6</ele>
        <time>2021-01-31 14:53:04</time>
      </trkpt>
      <trkpt lat="38.79662" lon="-0.16832">
        <ele>515.6</ele>
        <time>2021-01-31 14:53:05</time>
      </trkpt>
      <trkpt lat="38.7966" lon="-0.16834">
        <ele>515.6</ele>
        <time>2021-01-31 14:53:06</time>
      </trkpt>
      <trkpt lat="38.79658" lon="-0.16837">
        <ele>516</ele>
        <time>2021-01-31 14:53:07</time>
      </trkpt>
      <trkpt lat="38.79656" lon="-0.16839">
        <ele>516.2</ele>
        <time>2021-01-31 14:53:08</time>
      </trkpt>
      <trkpt lat="38.79654" lon="-0.16842">
        <ele>516.2</ele>
        <time>2021-01-31 14:53:09</time>
      </trkpt>
      <trkpt lat="38.79652" lon="-0.16845">
        <ele>516.2</ele>
        <time>2021-01-31 14:53:10</time>
      </trkpt>
      <trkpt lat="38.79649" lon="-0.16848">
        <ele>516.2</ele>
        <time>2021-01-31 14:53:11</time>
      </trkpt>
      <trkpt lat="38.79647" lon="-0.1685">
        <ele>516.2</ele>
        <time>2021-01-31 14:53:12</time>
      </trkpt>
      <trkpt lat="38.79644" lon="-0.16853">
        <ele>516.2</ele>
        <time>2021-01-31 14:53:13</time>
      </trkpt>
      <trkpt lat="38.7964" lon="-0.16855">
        <ele>516.2</ele>
        <time>2021-01-31 14:53:14</time>
      </trkpt>
      <trkpt lat="38.79636" lon="-0.16857">
        <ele>516.2</ele>
        <time>2021-01-31 14:53:15</time>
      </trkpt>
      <trkpt lat="38.79633" lon="-0.16858">
        <ele>515.6</ele>
        <time>2021-01-31 14:53:16</time>
      </trkpt>
      <trkpt lat="38.79628" lon="-0.1686">
        <ele>515.6</ele>
        <time>2021-01-31 14:53:17</time>
      </trkpt>
      <trkpt lat="38.79624" lon="-0.16862">
        <ele>515.6</ele>
        <time>2021-01-31 14:53:18</time>
      </trkpt>
      <trkpt lat="38.79619" lon="-0.16863">
        <ele>515.6</ele>
        <time>2021-01-31 14:53:19</time>
      </trkpt>
      <trkpt lat="38.79613" lon="-0.16865">
        <ele>513.4</ele>
        <time>2021-01-31 14:53:20</time>
      </trkpt>
      <trkpt lat="38.79607" lon="-0.16867">
        <ele>513.4</ele>
        <time>2021-01-31 14:53:21</time>
      </trkpt>
      <trkpt lat="38.796" lon="-0.16869">
        <ele>513.4</ele>
        <time>2021-01-31 14:53:22</time>
      </trkpt>
      <trkpt lat="38.79594" lon="-0.16872">
        <ele>513.4</ele>
        <time>2021-01-31 14:53:23</time>
      </trkpt>
      <trkpt lat="38.79588" lon="-0.16874">
        <ele>513.8</ele>
        <time>2021-01-31 14:53:24</time>
      </trkpt>
      <trkpt lat="38.79582" lon="-0.16876">
        <ele>513.8</ele>
        <time>2021-01-31 14:53:25</time>
      </trkpt>
      <trkpt lat="38.79576" lon="-0.16877">
        <ele>513.8</ele>
        <time>2021-01-31 14:53:26</time>
      </trkpt>
      <trkpt lat="38.79571" lon="-0.16878">
        <ele>513.4</ele>
        <time>2021-01-31 14:53:27</time>
      </trkpt>
      <trkpt lat="38.79566" lon="-0.1688">
        <ele>513.6</ele>
        <time>2021-01-31 14:53:28</time>
      </trkpt>
      <trkpt lat="38.79562" lon="-0.16882">
        <ele>513.6</ele>
        <time>2021-01-31 14:53:29</time>
      </trkpt>
      <trkpt lat="38.79558" lon="-0.16884">
        <ele>513.6</ele>
        <time>2021-01-31 14:53:30</time>
      </trkpt>
      <trkpt lat="38.79555" lon="-0.16886">
        <ele>514.6</ele>
        <time>2021-01-31 14:53:31</time>
      </trkpt>
      <trkpt lat="38.79552" lon="-0.16888">
        <ele>516.4</ele>
        <time>2021-01-31 14:53:32</time>
      </trkpt>
      <trkpt lat="38.7955" lon="-0.1689">
        <ele>516.4</ele>
        <time>2021-01-31 14:53:33</time>
      </trkpt>
      <trkpt lat="38.79547" lon="-0.16892">
        <ele>516.4</ele>
        <time>2021-01-31 14:53:34</time>
      </trkpt>
      <trkpt lat="38.79545" lon="-0.16894">
        <ele>517.4</ele>
        <time>2021-01-31 14:53:35</time>
      </trkpt>
      <trkpt lat="38.79543" lon="-0.16896">
        <ele>518</ele>
        <time>2021-01-31 14:53:36</time>
      </trkpt>
      <trkpt lat="38.7954" lon="-0.16898">
        <ele>518</ele>
        <time>2021-01-31 14:53:37</time>
      </trkpt>
      <trkpt lat="38.79538" lon="-0.169">
        <ele>518</ele>
        <time>2021-01-31 14:53:38</time>
      </trkpt>
      <trkpt lat="38.79536" lon="-0.16902">
        <ele>518</ele>
        <time>2021-01-31 14:53:39</time>
      </trkpt>
      <trkpt lat="38.79534" lon="-0.16904">
        <ele>518.6</ele>
        <time>2021-01-31 14:53:40</time>
      </trkpt>
      <trkpt lat="38.79532" lon="-0.16907">
        <ele>518.6</ele>
        <time>2021-01-31 14:53:41</time>
      </trkpt>
      <trkpt lat="38.7953" lon="-0.16909">
        <ele>518.6</ele>
        <time>2021-01-31 14:53:42</time>
      </trkpt>
      <trkpt lat="38.79528" lon="-0.16911">
        <ele>519.2</ele>
        <time>2021-01-31 14:53:43</time>
      </trkpt>
      <trkpt lat="38.79526" lon="-0.16913">
        <ele>519.4</ele>
        <time>2021-01-31 14:53:44</time>
      </trkpt>
      <trkpt lat="38.79524" lon="-0.16916">
        <ele>519.4</ele>
        <time>2021-01-31 14:53:45</time>
      </trkpt>
      <trkpt lat="38.79522" lon="-0.16918">
        <ele>519.4</ele>
        <time>2021-01-31 14:53:46</time>
      </trkpt>
      <trkpt lat="38.79519" lon="-0.16921">
        <ele>520</ele>
        <time>2021-01-31 14:53:47</time>
      </trkpt>
      <trkpt lat="38.79517" lon="-0.16923">
        <ele>519.4</ele>
        <time>2021-01-31 14:53:48</time>
      </trkpt>
      <trkpt lat="38.79515" lon="-0.16926">
        <ele>519.4</ele>
        <time>2021-01-31 14:53:49</time>
      </trkpt>
      <trkpt lat="38.79512" lon="-0.16928">
        <ele>519.4</ele>
        <time>2021-01-31 14:53:50</time>
      </trkpt>
      <trkpt lat="38.7951" lon="-0.16931">
        <ele>520.4</ele>
        <time>2021-01-31 14:53:51</time>
      </trkpt>
      <trkpt lat="38.79507" lon="-0.16933">
        <ele>521.2</ele>
        <time>2021-01-31 14:53:52</time>
      </trkpt>
      <trkpt lat="38.79505" lon="-0.16936">
        <ele>521.2</ele>
        <time>2021-01-31 14:53:53</time>
      </trkpt>
      <trkpt lat="38.79502" lon="-0.16938">
        <ele>521.2</ele>
        <time>2021-01-31 14:53:54</time>
      </trkpt>
      <trkpt lat="38.79499" lon="-0.1694">
        <ele>521.2</ele>
        <time>2021-01-31 14:53:55</time>
      </trkpt>
      <trkpt lat="38.79496" lon="-0.16942">
        <ele>520.8</ele>
        <time>2021-01-31 14:53:56</time>
      </trkpt>
      <trkpt lat="38.79493" lon="-0.16945">
        <ele>520.8</ele>
        <time>2021-01-31 14:53:57</time>
      </trkpt>
      <trkpt lat="38.7949" lon="-0.16947">
        <ele>520.8</ele>
        <time>2021-01-31 14:53:58</time>
      </trkpt>
      <trkpt lat="38.79487" lon="-0.16948">
        <ele>520.8</ele>
        <time>2021-01-31 14:53:59</time>
      </trkpt>
      <trkpt lat="38.79484" lon="-0.1695">
        <ele>521.2</ele>
        <time>2021-01-31 14:54:00</time>
      </trkpt>
      <trkpt lat="38.79481" lon="-0.16951">
        <ele>521.2</ele>
        <time>2021-01-31 14:54:01</time>
      </trkpt>
      <trkpt lat="38.79478" lon="-0.16953">
        <ele>521.2</ele>
        <time>2021-01-31 14:54:02</time>
      </trkpt>
      <trkpt lat="38.79475" lon="-0.16955">
        <ele>521.2</ele>
        <time>2021-01-31 14:54:03</time>
      </trkpt>
      <trkpt lat="38.79473" lon="-0.16956">
        <ele>522.8</ele>
        <time>2021-01-31 14:54:04</time>
      </trkpt>
      <trkpt lat="38.7947" lon="-0.16958">
        <ele>522.8</ele>
        <time>2021-01-31 14:54:05</time>
      </trkpt>
      <trkpt lat="38.79467" lon="-0.1696">
        <ele>522.8</ele>
        <time>2021-01-31 14:54:06</time>
      </trkpt>
      <trkpt lat="38.79464" lon="-0.16962">
        <ele>522.8</ele>
        <time>2021-01-31 14:54:07</time>
      </trkpt>
      <trkpt lat="38.79462" lon="-0.16963">
        <ele>523.6</ele>
        <time>2021-01-31 14:54:08</time>
      </trkpt>
      <trkpt lat="38.79459" lon="-0.16965">
        <ele>523.6</ele>
        <time>2021-01-31 14:54:09</time>
      </trkpt>
      <trkpt lat="38.79456" lon="-0.16967">
        <ele>523.6</ele>
        <time>2021-01-31 14:54:10</time>
      </trkpt>
      <trkpt lat="38.79454" lon="-0.16969">
        <ele>523.6</ele>
        <time>2021-01-31 14:54:11</time>
      </trkpt>
      <trkpt lat="38.79451" lon="-0.16971">
        <ele>524.8</ele>
        <time>2021-01-31 14:54:12</time>
      </trkpt>
      <trkpt lat="38.79449" lon="-0.16973">
        <ele>524.8</ele>
        <time>2021-01-31 14:54:13</time>
      </trkpt>
      <trkpt lat="38.79446" lon="-0.16975">
        <ele>524.8</ele>
        <time>2021-01-31 14:54:14</time>
      </trkpt>
      <trkpt lat="38.79443" lon="-0.16977">
        <ele>524</ele>
        <time>2021-01-31 14:54:15</time>
      </trkpt>
      <trkpt lat="38.7944" lon="-0.16979">
        <ele>525</ele>
        <time>2021-01-31 14:54:16</time>
      </trkpt>
      <trkpt lat="38.79438" lon="-0.1698">
        <ele>525</ele>
        <time>2021-01-31 14:54:17</time>
      </trkpt>
      <trkpt lat="38.79435" lon="-0.16982">
        <ele>525</ele>
        <time>2021-01-31 14:54:18</time>
      </trkpt>
      <trkpt lat="38.79432" lon="-0.16983">
        <ele>525</ele>
        <time>2021-01-31 14:54:19</time>
      </trkpt>
      <trkpt lat="38.79429" lon="-0.16984">
        <ele>526</ele>
        <time>2021-01-31 14:54:20</time>
      </trkpt>
      <trkpt lat="38.79426" lon="-0.16985">
        <ele>526</ele>
        <time>2021-01-31 14:54:21</time>
      </trkpt>
      <trkpt lat="38.79423" lon="-0.16985">
        <ele>526</ele>
        <time>2021-01-31 14:54:22</time>
      </trkpt>
      <trkpt lat="38.7942" lon="-0.16986">
        <ele>526</ele>
        <time>2021-01-31 14:54:23</time>
      </trkpt>
      <trkpt lat="38.79417" lon="-0.16987">
        <ele>525.4</ele>
        <time>2021-01-31 14:54:24</time>
      </trkpt>
      <trkpt lat="38.79414" lon="-0.16987">
        <ele>525.4</ele>
        <time>2021-01-31 14:54:25</time>
      </trkpt>
      <trkpt lat="38.7941" lon="-0.16988">
        <ele>525.4</ele>
        <time>2021-01-31 14:54:26</time>
      </trkpt>
      <trkpt lat="38.79407" lon="-0.16989">
        <ele>525.4</ele>
        <time>2021-01-31 14:54:27</time>
      </trkpt>
      <trkpt lat="38.79403" lon="-0.1699">
        <ele>525</ele>
        <time>2021-01-31 14:54:28</time>
      </trkpt>
      <trkpt lat="38.79399" lon="-0.16991">
        <ele>525</ele>
        <time>2021-01-31 14:54:29</time>
      </trkpt>
      <trkpt lat="38.79396" lon="-0.16992">
        <ele>525</ele>
        <time>2021-01-31 14:54:30</time>
      </trkpt>
      <trkpt lat="38.79393" lon="-0.16993">
        <ele>524.8</ele>
        <time>2021-01-31 14:54:31</time>
      </trkpt>
      <trkpt lat="38.7939" lon="-0.16994">
        <ele>524.8</ele>
        <time>2021-01-31 14:54:32</time>
      </trkpt>
      <trkpt lat="38.79387" lon="-0.16995">
        <ele>524.8</ele>
        <time>2021-01-31 14:54:33</time>
      </trkpt>
      <trkpt lat="38.79383" lon="-0.16995">
        <ele>524.8</ele>
        <time>2021-01-31 14:54:34</time>
      </trkpt>
      <trkpt lat="38.7938" lon="-0.16996">
        <ele>525.8</ele>
        <time>2021-01-31 14:54:35</time>
      </trkpt>
      <trkpt lat="38.79377" lon="-0.16996">
        <ele>527</ele>
        <time>2021-01-31 14:54:36</time>
      </trkpt>
      <trkpt lat="38.79374" lon="-0.16998">
        <ele>527</ele>
        <time>2021-01-31 14:54:37</time>
      </trkpt>
      <trkpt lat="38.79372" lon="-0.17">
        <ele>527</ele>
        <time>2021-01-31 14:54:38</time>
      </trkpt>
      <trkpt lat="38.79369" lon="-0.17002">
        <ele>527</ele>
        <time>2021-01-31 14:54:39</time>
      </trkpt>
      <trkpt lat="38.79367" lon="-0.17004">
        <ele>528.2</ele>
        <time>2021-01-31 14:54:40</time>
      </trkpt>
      <trkpt lat="38.79366" lon="-0.17006">
        <ele>528.2</ele>
        <time>2021-01-31 14:54:41</time>
      </trkpt>
      <trkpt lat="38.79364" lon="-0.17008">
        <ele>528.2</ele>
        <time>2021-01-31 14:54:42</time>
      </trkpt>
      <trkpt lat="38.79363" lon="-0.1701">
        <ele>527.8</ele>
        <time>2021-01-31 14:54:43</time>
      </trkpt>
      <trkpt lat="38.79362" lon="-0.17012">
        <ele>528.2</ele>
        <time>2021-01-31 14:54:44</time>
      </trkpt>
      <trkpt lat="38.79361" lon="-0.17014">
        <ele>528.2</ele>
        <time>2021-01-31 14:54:45</time>
      </trkpt>
      <trkpt lat="38.7936" lon="-0.17016">
        <ele>528.2</ele>
        <time>2021-01-31 14:54:46</time>
      </trkpt>
      <trkpt lat="38.79359" lon="-0.17018">
        <ele>528.2</ele>
        <time>2021-01-31 14:54:47</time>
      </trkpt>
      <trkpt lat="38.79357" lon="-0.1702">
        <ele>529</ele>
        <time>2021-01-31 14:54:48</time>
      </trkpt>
      <trkpt lat="38.79356" lon="-0.17022">
        <ele>529</ele>
        <time>2021-01-31 14:54:49</time>
      </trkpt>
      <trkpt lat="38.79355" lon="-0.17023">
        <ele>529</ele>
        <time>2021-01-31 14:54:50</time>
      </trkpt>
      <trkpt lat="38.79353" lon="-0.17025">
        <ele>529</ele>
        <time>2021-01-31 14:54:51</time>
      </trkpt>
      <trkpt lat="38.79352" lon="-0.17027">
        <ele>529.4</ele>
        <time>2021-01-31 14:54:52</time>
      </trkpt>
      <trkpt lat="38.79351" lon="-0.17028">
        <ele>529.4</ele>
        <time>2021-01-31 14:54:53</time>
      </trkpt>
      <trkpt lat="38.7935" lon="-0.17029">
        <ele>529.4</ele>
        <time>2021-01-31 14:54:54</time>
      </trkpt>
      <trkpt lat="38.79349" lon="-0.1703">
        <ele>530.4</ele>
        <time>2021-01-31 14:54:55</time>
      </trkpt>
      <trkpt lat="38.79348" lon="-0.17032">
        <ele>531.2</ele>
        <time>2021-01-31 14:54:56</time>
      </trkpt>
      <trkpt lat="38.79347" lon="-0.17032">
        <ele>531.2</ele>
        <time>2021-01-31 14:54:57</time>
      </trkpt>
      <trkpt lat="38.79346" lon="-0.17033">
        <ele>531.2</ele>
        <time>2021-01-31 14:54:58</time>
      </trkpt>
      <trkpt lat="38.79345" lon="-0.17034">
        <ele>531.2</ele>
        <time>2021-01-31 14:54:59</time>
      </trkpt>
      <trkpt lat="38.79345" lon="-0.17034">
        <ele>532.4</ele>
        <time>2021-01-31 14:55:00</time>
      </trkpt>
      <trkpt lat="38.79343" lon="-0.17035">
        <ele>532.4</ele>
        <time>2021-01-31 14:55:01</time>
      </trkpt>
      <trkpt lat="38.79343" lon="-0.17035">
        <ele>532.4</ele>
        <time>2021-01-31 14:55:02</time>
      </trkpt>
      <trkpt lat="38.7934" lon="-0.17037">
        <ele>532.6</ele>
        <time>2021-01-31 14:55:03</time>
      </trkpt>
      <trkpt lat="38.79339" lon="-0.17038">
        <ele>533.4</ele>
        <time>2021-01-31 14:55:04</time>
      </trkpt>
      <trkpt lat="38.79338" lon="-0.17039">
        <ele>533.4</ele>
        <time>2021-01-31 14:55:05</time>
      </trkpt>
      <trkpt lat="38.79338" lon="-0.17039">
        <ele>533.4</ele>
        <time>2021-01-31 14:55:06</time>
      </trkpt>
      <trkpt lat="38.79335" lon="-0.1704">
        <ele>533.4</ele>
        <time>2021-01-31 14:55:07</time>
      </trkpt>
      <trkpt lat="38.79335" lon="-0.1704">
        <ele>534</ele>
        <time>2021-01-31 14:55:08</time>
      </trkpt>
      <trkpt lat="38.79333" lon="-0.17043">
        <ele>534</ele>
        <time>2021-01-31 14:55:09</time>
      </trkpt>
      <trkpt lat="38.79332" lon="-0.17044">
        <ele>534</ele>
        <time>2021-01-31 14:55:10</time>
      </trkpt>
      <trkpt lat="38.79331" lon="-0.17046">
        <ele>534</ele>
        <time>2021-01-31 14:55:11</time>
      </trkpt>
      <trkpt lat="38.79329" lon="-0.17047">
        <ele>534.4</ele>
        <time>2021-01-31 14:55:12</time>
      </trkpt>
      <trkpt lat="38.79329" lon="-0.17047">
        <ele>534.4</ele>
        <time>2021-01-31 14:55:13</time>
      </trkpt>
      <trkpt lat="38.79327" lon="-0.1705">
        <ele>534.4</ele>
        <time>2021-01-31 14:55:14</time>
      </trkpt>
      <trkpt lat="38.79327" lon="-0.1705">
        <ele>534.4</ele>
        <time>2021-01-31 14:55:15</time>
      </trkpt>
      <trkpt lat="38.79325" lon="-0.17052">
        <ele>536.2</ele>
        <time>2021-01-31 14:55:16</time>
      </trkpt>
      <trkpt lat="38.79323" lon="-0.17053">
        <ele>536.2</ele>
        <time>2021-01-31 14:55:17</time>
      </trkpt>
      <trkpt lat="38.79322" lon="-0.17055">
        <ele>536.2</ele>
        <time>2021-01-31 14:55:18</time>
      </trkpt>
      <trkpt lat="38.79322" lon="-0.17055">
        <ele>537.2</ele>
        <time>2021-01-31 14:55:19</time>
      </trkpt>
      <trkpt lat="38.7932" lon="-0.17058">
        <ele>537.8</ele>
        <time>2021-01-31 14:55:20</time>
      </trkpt>
      <trkpt lat="38.7932" lon="-0.17058">
        <ele>537.8</ele>
        <time>2021-01-31 14:55:21</time>
      </trkpt>
      <trkpt lat="38.79317" lon="-0.1706">
        <ele>537.8</ele>
        <time>2021-01-31 14:55:22</time>
      </trkpt>
      <trkpt lat="38.79316" lon="-0.17061">
        <ele>538</ele>
        <time>2021-01-31 14:55:23</time>
      </trkpt>
      <trkpt lat="38.79315" lon="-0.17062">
        <ele>538.2</ele>
        <time>2021-01-31 14:55:24</time>
      </trkpt>
      <trkpt lat="38.79313" lon="-0.17064">
        <ele>538.2</ele>
        <time>2021-01-31 14:55:25</time>
      </trkpt>
      <trkpt lat="38.79313" lon="-0.17064">
        <ele>538.2</ele>
        <time>2021-01-31 14:55:26</time>
      </trkpt>
      <trkpt lat="38.79311" lon="-0.17067">
        <ele>539.2</ele>
        <time>2021-01-31 14:55:27</time>
      </trkpt>
      <trkpt lat="38.79311" lon="-0.17067">
        <ele>540</ele>
        <time>2021-01-31 14:55:28</time>
      </trkpt>
      <trkpt lat="38.79307" lon="-0.17069">
        <ele>540</ele>
        <time>2021-01-31 14:55:29</time>
      </trkpt>
      <trkpt lat="38.79306" lon="-0.17071">
        <ele>540</ele>
        <time>2021-01-31 14:55:30</time>
      </trkpt>
      <trkpt lat="38.79305" lon="-0.17072">
        <ele>540.8</ele>
        <time>2021-01-31 14:55:31</time>
      </trkpt>
      <trkpt lat="38.79303" lon="-0.17073">
        <ele>541.2</ele>
        <time>2021-01-31 14:55:32</time>
      </trkpt>
      <trkpt lat="38.79302" lon="-0.17074">
        <ele>541.2</ele>
        <time>2021-01-31 14:55:33</time>
      </trkpt>
      <trkpt lat="38.793" lon="-0.17075">
        <ele>541.2</ele>
        <time>2021-01-31 14:55:34</time>
      </trkpt>
      <trkpt lat="38.79298" lon="-0.17076">
        <ele>541.2</ele>
        <time>2021-01-31 14:55:35</time>
      </trkpt>
      <trkpt lat="38.79298" lon="-0.17076">
        <ele>542.4</ele>
        <time>2021-01-31 14:55:36</time>
      </trkpt>
      <trkpt lat="38.79294" lon="-0.17079">
        <ele>542.4</ele>
        <time>2021-01-31 14:55:37</time>
      </trkpt>
      <trkpt lat="38.79294" lon="-0.17079">
        <ele>542.4</ele>
        <time>2021-01-31 14:55:38</time>
      </trkpt>
      <trkpt lat="38.79291" lon="-0.17081">
        <ele>542.6</ele>
        <time>2021-01-31 14:55:39</time>
      </trkpt>
      <trkpt lat="38.79289" lon="-0.17082">
        <ele>543.2</ele>
        <time>2021-01-31 14:55:40</time>
      </trkpt>
      <trkpt lat="38.79288" lon="-0.17083">
        <ele>543.2</ele>
        <time>2021-01-31 14:55:41</time>
      </trkpt>
      <trkpt lat="38.79286" lon="-0.17084">
        <ele>543.2</ele>
        <time>2021-01-31 14:55:42</time>
      </trkpt>
      <trkpt lat="38.79284" lon="-0.17084">
        <ele>543.6</ele>
        <time>2021-01-31 14:55:43</time>
      </trkpt>
      <trkpt lat="38.79283" lon="-0.17085">
        <ele>543.6</ele>
        <time>2021-01-31 14:55:44</time>
      </trkpt>
      <trkpt lat="38.79281" lon="-0.17086">
        <ele>543.6</ele>
        <time>2021-01-31 14:55:45</time>
      </trkpt>
      <trkpt lat="38.79279" lon="-0.17087">
        <ele>543.6</ele>
        <time>2021-01-31 14:55:46</time>
      </trkpt>
      <trkpt lat="38.79278" lon="-0.17088">
        <ele>543.6</ele>
        <time>2021-01-31 14:55:47</time>
      </trkpt>
      <trkpt lat="38.79276" lon="-0.17089">
        <ele>544</ele>
        <time>2021-01-31 14:55:48</time>
      </trkpt>
      <trkpt lat="38.79274" lon="-0.1709">
        <ele>544</ele>
        <time>2021-01-31 14:55:49</time>
      </trkpt>
      <trkpt lat="38.79273" lon="-0.17091">
        <ele>544</ele>
        <time>2021-01-31 14:55:50</time>
      </trkpt>
      <trkpt lat="38.79271" lon="-0.17092">
        <ele>544</ele>
        <time>2021-01-31 14:55:51</time>
      </trkpt>
      <trkpt lat="38.7927" lon="-0.17093">
        <ele>544.4</ele>
        <time>2021-01-31 14:55:52</time>
      </trkpt>
      <trkpt lat="38.79268" lon="-0.17094">
        <ele>544.4</ele>
        <time>2021-01-31 14:55:53</time>
      </trkpt>
      <trkpt lat="38.79266" lon="-0.17095">
        <ele>544.4</ele>
        <time>2021-01-31 14:55:54</time>
      </trkpt>
      <trkpt lat="38.79266" lon="-0.17095">
        <ele>545.4</ele>
        <time>2021-01-31 14:55:55</time>
      </trkpt>
      <trkpt lat="38.79263" lon="-0.17097">
        <ele>545.4</ele>
        <time>2021-01-31 14:55:56</time>
      </trkpt>
      <trkpt lat="38.79263" lon="-0.17097">
        <ele>545.4</ele>
        <time>2021-01-31 14:55:57</time>
      </trkpt>
      <trkpt lat="38.7926" lon="-0.17099">
        <ele>545.4</ele>
        <time>2021-01-31 14:55:58</time>
      </trkpt>
      <trkpt lat="38.79259" lon="-0.171">
        <ele>545.4</ele>
        <time>2021-01-31 14:55:59</time>
      </trkpt>
      <trkpt lat="38.79257" lon="-0.17101">
        <ele>544.2</ele>
        <time>2021-01-31 14:56:00</time>
      </trkpt>
      <trkpt lat="38.79256" lon="-0.17102">
        <ele>544.2</ele>
        <time>2021-01-31 14:56:01</time>
      </trkpt>
      <trkpt lat="38.79254" lon="-0.17103">
        <ele>544.2</ele>
        <time>2021-01-31 14:56:02</time>
      </trkpt>
      <trkpt lat="38.79252" lon="-0.17104">
        <ele>545.2</ele>
        <time>2021-01-31 14:56:03</time>
      </trkpt>
      <trkpt lat="38.79251" lon="-0.17105">
        <ele>547.2</ele>
        <time>2021-01-31 14:56:04</time>
      </trkpt>
      <trkpt lat="38.79249" lon="-0.17106">
        <ele>547.2</ele>
        <time>2021-01-31 14:56:05</time>
      </trkpt>
      <trkpt lat="38.79248" lon="-0.17107">
        <ele>547.2</ele>
        <time>2021-01-31 14:56:06</time>
      </trkpt>
      <trkpt lat="38.79246" lon="-0.17108">
        <ele>547.2</ele>
        <time>2021-01-31 14:56:07</time>
      </trkpt>
      <trkpt lat="38.79245" lon="-0.17109">
        <ele>548.4</ele>
        <time>2021-01-31 14:56:08</time>
      </trkpt>
      <trkpt lat="38.79243" lon="-0.17111">
        <ele>548.4</ele>
        <time>2021-01-31 14:56:09</time>
      </trkpt>
      <trkpt lat="38.79241" lon="-0.17112">
        <ele>548.4</ele>
        <time>2021-01-31 14:56:10</time>
      </trkpt>
      <trkpt lat="38.7924" lon="-0.17113">
        <ele>548.4</ele>
        <time>2021-01-31 14:56:11</time>
      </trkpt>
      <trkpt lat="38.79238" lon="-0.17114">
        <ele>548.4</ele>
        <time>2021-01-31 14:56:12</time>
      </trkpt>
      <trkpt lat="38.79237" lon="-0.17115">
        <ele>548.4</ele>
        <time>2021-01-31 14:56:13</time>
      </trkpt>
      <trkpt lat="38.79235" lon="-0.17116">
        <ele>548.4</ele>
        <time>2021-01-31 14:56:14</time>
      </trkpt>
      <trkpt lat="38.79233" lon="-0.17117">
        <ele>548.8</ele>
        <time>2021-01-31 14:56:15</time>
      </trkpt>
      <trkpt lat="38.79232" lon="-0.17118">
        <ele>549.2</ele>
        <time>2021-01-31 14:56:16</time>
      </trkpt>
      <trkpt lat="38.7923" lon="-0.1712">
        <ele>549.2</ele>
        <time>2021-01-31 14:56:17</time>
      </trkpt>
      <trkpt lat="38.79228" lon="-0.17121">
        <ele>549.2</ele>
        <time>2021-01-31 14:56:18</time>
      </trkpt>
      <trkpt lat="38.79227" lon="-0.17122">
        <ele>549.2</ele>
        <time>2021-01-31 14:56:19</time>
      </trkpt>
      <trkpt lat="38.79225" lon="-0.17124">
        <ele>550.2</ele>
        <time>2021-01-31 14:56:20</time>
      </trkpt>
      <trkpt lat="38.79224" lon="-0.17125">
        <ele>550.2</ele>
        <time>2021-01-31 14:56:21</time>
      </trkpt>
      <trkpt lat="38.79222" lon="-0.17127">
        <ele>550.2</ele>
        <time>2021-01-31 14:56:22</time>
      </trkpt>
      <trkpt lat="38.7922" lon="-0.17128">
        <ele>550.2</ele>
        <time>2021-01-31 14:56:23</time>
      </trkpt>
      <trkpt lat="38.79219" lon="-0.1713">
        <ele>550.8</ele>
        <time>2021-01-31 14:56:24</time>
      </trkpt>
      <trkpt lat="38.79218" lon="-0.17132">
        <ele>550.8</ele>
        <time>2021-01-31 14:56:25</time>
      </trkpt>
      <trkpt lat="38.79216" lon="-0.17133">
        <ele>550.8</ele>
        <time>2021-01-31 14:56:26</time>
      </trkpt>
      <trkpt lat="38.79215" lon="-0.17135">
        <ele>551.8</ele>
        <time>2021-01-31 14:56:27</time>
      </trkpt>
      <trkpt lat="38.79213" lon="-0.17136">
        <ele>552.4</ele>
        <time>2021-01-31 14:56:28</time>
      </trkpt>
      <trkpt lat="38.79212" lon="-0.17138">
        <ele>552.4</ele>
        <time>2021-01-31 14:56:29</time>
      </trkpt>
      <trkpt lat="38.7921" lon="-0.1714">
        <ele>552.4</ele>
        <time>2021-01-31 14:56:30</time>
      </trkpt>
      <trkpt lat="38.79209" lon="-0.17141">
        <ele>553.2</ele>
        <time>2021-01-31 14:56:31</time>
      </trkpt>
      <trkpt lat="38.79208" lon="-0.17143">
        <ele>553.8</ele>
        <time>2021-01-31 14:56:32</time>
      </trkpt>
      <trkpt lat="38.79206" lon="-0.17145">
        <ele>553.8</ele>
        <time>2021-01-31 14:56:33</time>
      </trkpt>
      <trkpt lat="38.79205" lon="-0.17146">
        <ele>553.8</ele>
        <time>2021-01-31 14:56:34</time>
      </trkpt>
      <trkpt lat="38.79204" lon="-0.17148">
        <ele>554.2</ele>
        <time>2021-01-31 14:56:35</time>
      </trkpt>
      <trkpt lat="38.79202" lon="-0.1715">
        <ele>554</ele>
        <time>2021-01-31 14:56:36</time>
      </trkpt>
      <trkpt lat="38.79201" lon="-0.17151">
        <ele>554</ele>
        <time>2021-01-31 14:56:37</time>
      </trkpt>
      <trkpt lat="38.792" lon="-0.17153">
        <ele>554</ele>
        <time>2021-01-31 14:56:38</time>
      </trkpt>
      <trkpt lat="38.79199" lon="-0.17154">
        <ele>554</ele>
        <time>2021-01-31 14:56:39</time>
      </trkpt>
      <trkpt lat="38.79198" lon="-0.17156">
        <ele>554.8</ele>
        <time>2021-01-31 14:56:40</time>
      </trkpt>
      <trkpt lat="38.79196" lon="-0.17158">
        <ele>554.8</ele>
        <time>2021-01-31 14:56:41</time>
      </trkpt>
      <trkpt lat="38.79195" lon="-0.17159">
        <ele>554.8</ele>
        <time>2021-01-31 14:56:42</time>
      </trkpt>
      <trkpt lat="38.79193" lon="-0.17161">
        <ele>555</ele>
        <time>2021-01-31 14:56:43</time>
      </trkpt>
      <trkpt lat="38.79192" lon="-0.17163">
        <ele>555.4</ele>
        <time>2021-01-31 14:56:44</time>
      </trkpt>
      <trkpt lat="38.7919" lon="-0.17164">
        <ele>555.4</ele>
        <time>2021-01-31 14:56:45</time>
      </trkpt>
      <trkpt lat="38.79188" lon="-0.17166">
        <ele>555.4</ele>
        <time>2021-01-31 14:56:46</time>
      </trkpt>
      <trkpt lat="38.79187" lon="-0.17167">
        <ele>556.4</ele>
        <time>2021-01-31 14:56:47</time>
      </trkpt>
      <trkpt lat="38.79185" lon="-0.17168">
        <ele>558.2</ele>
        <time>2021-01-31 14:56:48</time>
      </trkpt>
      <trkpt lat="38.79184" lon="-0.1717">
        <ele>558.2</ele>
        <time>2021-01-31 14:56:49</time>
      </trkpt>
      <trkpt lat="38.79183" lon="-0.17172">
        <ele>558.2</ele>
        <time>2021-01-31 14:56:50</time>
      </trkpt>
      <trkpt lat="38.79181" lon="-0.17173">
        <ele>558.4</ele>
        <time>2021-01-31 14:56:51</time>
      </trkpt>
      <trkpt lat="38.7918" lon="-0.17175">
        <ele>558.6</ele>
        <time>2021-01-31 14:56:52</time>
      </trkpt>
      <trkpt lat="38.79178" lon="-0.17177">
        <ele>558.6</ele>
        <time>2021-01-31 14:56:53</time>
      </trkpt>
      <trkpt lat="38.79176" lon="-0.17179">
        <ele>558.6</ele>
        <time>2021-01-31 14:56:54</time>
      </trkpt>
      <trkpt lat="38.79175" lon="-0.1718">
        <ele>558.4</ele>
        <time>2021-01-31 14:56:55</time>
      </trkpt>
      <trkpt lat="38.79173" lon="-0.17182">
        <ele>559.2</ele>
        <time>2021-01-31 14:56:56</time>
      </trkpt>
      <trkpt lat="38.79173" lon="-0.17183">
        <ele>559.2</ele>
        <time>2021-01-31 14:56:57</time>
      </trkpt>
      <trkpt lat="38.79171" lon="-0.17184">
        <ele>559.2</ele>
        <time>2021-01-31 14:56:58</time>
      </trkpt>
      <trkpt lat="38.7917" lon="-0.17186">
        <ele>559.2</ele>
        <time>2021-01-31 14:56:59</time>
      </trkpt>
      <trkpt lat="38.79168" lon="-0.17188">
        <ele>558.8</ele>
        <time>2021-01-31 14:57:00</time>
      </trkpt>
      <trkpt lat="38.79167" lon="-0.17189">
        <ele>558.8</ele>
        <time>2021-01-31 14:57:01</time>
      </trkpt>
      <trkpt lat="38.79165" lon="-0.17191">
        <ele>558.8</ele>
        <time>2021-01-31 14:57:02</time>
      </trkpt>
      <trkpt lat="38.79164" lon="-0.17193">
        <ele>559.2</ele>
        <time>2021-01-31 14:57:03</time>
      </trkpt>
      <trkpt lat="38.79162" lon="-0.17195">
        <ele>559.2</ele>
        <time>2021-01-31 14:57:04</time>
      </trkpt>
      <trkpt lat="38.79161" lon="-0.17197">
        <ele>559.2</ele>
        <time>2021-01-31 14:57:05</time>
      </trkpt>
      <trkpt lat="38.79159" lon="-0.17199">
        <ele>559.2</ele>
        <time>2021-01-31 14:57:06</time>
      </trkpt>
      <trkpt lat="38.79158" lon="-0.17201">
        <ele>560.2</ele>
        <time>2021-01-31 14:57:07</time>
      </trkpt>
      <trkpt lat="38.79157" lon="-0.17203">
        <ele>560.4</ele>
        <time>2021-01-31 14:57:08</time>
      </trkpt>
      <trkpt lat="38.79155" lon="-0.17205">
        <ele>560.4</ele>
        <time>2021-01-31 14:57:09</time>
      </trkpt>
      <trkpt lat="38.79154" lon="-0.17207">
        <ele>560.4</ele>
        <time>2021-01-31 14:57:10</time>
      </trkpt>
      <trkpt lat="38.79153" lon="-0.17209">
        <ele>561.4</ele>
        <time>2021-01-31 14:57:11</time>
      </trkpt>
      <trkpt lat="38.79151" lon="-0.17211">
        <ele>562</ele>
        <time>2021-01-31 14:57:12</time>
      </trkpt>
      <trkpt lat="38.7915" lon="-0.17213">
        <ele>562</ele>
        <time>2021-01-31 14:57:13</time>
      </trkpt>
      <trkpt lat="38.79149" lon="-0.17215">
        <ele>562</ele>
        <time>2021-01-31 14:57:14</time>
      </trkpt>
      <trkpt lat="38.79148" lon="-0.17217">
        <ele>562.8</ele>
        <time>2021-01-31 14:57:15</time>
      </trkpt>
      <trkpt lat="38.79147" lon="-0.17219">
        <ele>562.8</ele>
        <time>2021-01-31 14:57:16</time>
      </trkpt>
      <trkpt lat="38.79146" lon="-0.17221">
        <ele>562.8</ele>
        <time>2021-01-31 14:57:17</time>
      </trkpt>
      <trkpt lat="38.79145" lon="-0.17223">
        <ele>562.8</ele>
        <time>2021-01-31 14:57:18</time>
      </trkpt>
      <trkpt lat="38.79144" lon="-0.17226">
        <ele>563.8</ele>
        <time>2021-01-31 14:57:19</time>
      </trkpt>
      <trkpt lat="38.79143" lon="-0.17228">
        <ele>563.8</ele>
        <time>2021-01-31 14:57:20</time>
      </trkpt>
      <trkpt lat="38.79142" lon="-0.1723">
        <ele>563.8</ele>
        <time>2021-01-31 14:57:21</time>
      </trkpt>
      <trkpt lat="38.79141" lon="-0.17232">
        <ele>563.8</ele>
        <time>2021-01-31 14:57:22</time>
      </trkpt>
      <trkpt lat="38.7914" lon="-0.17234">
        <ele>563.8</ele>
        <time>2021-01-31 14:57:23</time>
      </trkpt>
      <trkpt lat="38.79138" lon="-0.17236">
        <ele>564.6</ele>
        <time>2021-01-31 14:57:24</time>
      </trkpt>
      <trkpt lat="38.79137" lon="-0.17238">
        <ele>564.6</ele>
        <time>2021-01-31 14:57:25</time>
      </trkpt>
      <trkpt lat="38.79136" lon="-0.1724">
        <ele>564.6</ele>
        <time>2021-01-31 14:57:26</time>
      </trkpt>
      <trkpt lat="38.79135" lon="-0.17242">
        <ele>565.6</ele>
        <time>2021-01-31 14:57:27</time>
      </trkpt>
      <trkpt lat="38.79134" lon="-0.17244">
        <ele>566.6</ele>
        <time>2021-01-31 14:57:28</time>
      </trkpt>
      <trkpt lat="38.79132" lon="-0.17246">
        <ele>566.6</ele>
        <time>2021-01-31 14:57:29</time>
      </trkpt>
      <trkpt lat="38.79131" lon="-0.17248">
        <ele>566.6</ele>
        <time>2021-01-31 14:57:30</time>
      </trkpt>
      <trkpt lat="38.79131" lon="-0.17248">
        <ele>567.6</ele>
        <time>2021-01-31 14:57:31</time>
      </trkpt>
      <trkpt lat="38.79129" lon="-0.17251">
        <ele>568.2</ele>
        <time>2021-01-31 14:57:32</time>
      </trkpt>
      <trkpt lat="38.79129" lon="-0.17251">
        <ele>568.2</ele>
        <time>2021-01-31 14:57:33</time>
      </trkpt>
      <trkpt lat="38.79126" lon="-0.17253">
        <ele>568.2</ele>
        <time>2021-01-31 14:57:34</time>
      </trkpt>
      <trkpt lat="38.79125" lon="-0.17255">
        <ele>569.2</ele>
        <time>2021-01-31 14:57:35</time>
      </trkpt>
      <trkpt lat="38.79123" lon="-0.17256">
        <ele>569.6</ele>
        <time>2021-01-31 14:57:36</time>
      </trkpt>
      <trkpt lat="38.79122" lon="-0.17258">
        <ele>569.6</ele>
        <time>2021-01-31 14:57:37</time>
      </trkpt>
      <trkpt lat="38.79122" lon="-0.17258">
        <ele>569.6</ele>
        <time>2021-01-31 14:57:38</time>
      </trkpt>
      <trkpt lat="38.7912" lon="-0.1726">
        <ele>569.6</ele>
        <time>2021-01-31 14:57:39</time>
      </trkpt>
      <trkpt lat="38.7912" lon="-0.1726">
        <ele>570.4</ele>
        <time>2021-01-31 14:57:40</time>
      </trkpt>
      <trkpt lat="38.79117" lon="-0.17263">
        <ele>570.4</ele>
        <time>2021-01-31 14:57:41</time>
      </trkpt>
      <trkpt lat="38.79115" lon="-0.17264">
        <ele>570.4</ele>
        <time>2021-01-31 14:57:42</time>
      </trkpt>
      <trkpt lat="38.79114" lon="-0.17266">
        <ele>570.4</ele>
        <time>2021-01-31 14:57:43</time>
      </trkpt>
      <trkpt lat="38.79113" lon="-0.17267">
        <ele>572.2</ele>
        <time>2021-01-31 14:57:44</time>
      </trkpt>
      <trkpt lat="38.79112" lon="-0.17269">
        <ele>572.2</ele>
        <time>2021-01-31 14:57:45</time>
      </trkpt>
      <trkpt lat="38.79111" lon="-0.1727">
        <ele>572.2</ele>
        <time>2021-01-31 14:57:46</time>
      </trkpt>
      <trkpt lat="38.79111" lon="-0.1727">
        <ele>571.8</ele>
        <time>2021-01-31 14:57:47</time>
      </trkpt>
      <trkpt lat="38.79108" lon="-0.17273">
        <ele>572.8</ele>
        <time>2021-01-31 14:57:48</time>
      </trkpt>
      <trkpt lat="38.79108" lon="-0.17273">
        <ele>572.8</ele>
        <time>2021-01-31 14:57:49</time>
      </trkpt>
      <trkpt lat="38.79105" lon="-0.17275">
        <ele>572.8</ele>
        <time>2021-01-31 14:57:50</time>
      </trkpt>
      <trkpt lat="38.79104" lon="-0.17277">
        <ele>572.8</ele>
        <time>2021-01-31 14:57:51</time>
      </trkpt>
      <trkpt lat="38.79102" lon="-0.17278">
        <ele>573.2</ele>
        <time>2021-01-31 14:57:52</time>
      </trkpt>
      <trkpt lat="38.79101" lon="-0.1728">
        <ele>573.2</ele>
        <time>2021-01-31 14:57:53</time>
      </trkpt>
      <trkpt lat="38.791" lon="-0.17281">
        <ele>573.2</ele>
        <time>2021-01-31 14:57:54</time>
      </trkpt>
      <trkpt lat="38.79098" lon="-0.17283">
        <ele>573.6</ele>
        <time>2021-01-31 14:57:55</time>
      </trkpt>
      <trkpt lat="38.79097" lon="-0.17284">
        <ele>574</ele>
        <time>2021-01-31 14:57:56</time>
      </trkpt>
      <trkpt lat="38.79096" lon="-0.17285">
        <ele>574</ele>
        <time>2021-01-31 14:57:57</time>
      </trkpt>
      <trkpt lat="38.79094" lon="-0.17287">
        <ele>574</ele>
        <time>2021-01-31 14:57:58</time>
      </trkpt>
      <trkpt lat="38.79093" lon="-0.17288">
        <ele>574</ele>
        <time>2021-01-31 14:57:59</time>
      </trkpt>
      <trkpt lat="38.79091" lon="-0.1729">
        <ele>574.8</ele>
        <time>2021-01-31 14:58:00</time>
      </trkpt>
      <trkpt lat="38.7909" lon="-0.17291">
        <ele>574.8</ele>
        <time>2021-01-31 14:58:01</time>
      </trkpt>
      <trkpt lat="38.79088" lon="-0.17293">
        <ele>574.8</ele>
        <time>2021-01-31 14:58:02</time>
      </trkpt>
      <trkpt lat="38.79086" lon="-0.17294">
        <ele>574.8</ele>
        <time>2021-01-31 14:58:03</time>
      </trkpt>
      <trkpt lat="38.79084" lon="-0.17296">
        <ele>574.8</ele>
        <time>2021-01-31 14:58:04</time>
      </trkpt>
      <trkpt lat="38.79083" lon="-0.17297">
        <ele>574.8</ele>
        <time>2021-01-31 14:58:05</time>
      </trkpt>
      <trkpt lat="38.79081" lon="-0.17299">
        <ele>574.8</ele>
        <time>2021-01-31 14:58:06</time>
      </trkpt>
      <trkpt lat="38.79079" lon="-0.173">
        <ele>574.8</ele>
        <time>2021-01-31 14:58:07</time>
      </trkpt>
      <trkpt lat="38.79077" lon="-0.17302">
        <ele>575.2</ele>
        <time>2021-01-31 14:58:08</time>
      </trkpt>
      <trkpt lat="38.79075" lon="-0.17303">
        <ele>575.2</ele>
        <time>2021-01-31 14:58:09</time>
      </trkpt>
      <trkpt lat="38.79073" lon="-0.17305">
        <ele>575.2</ele>
        <time>2021-01-31 14:58:10</time>
      </trkpt>
      <trkpt lat="38.79072" lon="-0.17306">
        <ele>575.4</ele>
        <time>2021-01-31 14:58:11</time>
      </trkpt>
      <trkpt lat="38.79071" lon="-0.17308">
        <ele>575.2</ele>
        <time>2021-01-31 14:58:12</time>
      </trkpt>
      <trkpt lat="38.79069" lon="-0.1731">
        <ele>575.2</ele>
        <time>2021-01-31 14:58:13</time>
      </trkpt>
      <trkpt lat="38.79068" lon="-0.17312">
        <ele>575.2</ele>
        <time>2021-01-31 14:58:14</time>
      </trkpt>
      <trkpt lat="38.79067" lon="-0.17313">
        <ele>576.2</ele>
        <time>2021-01-31 14:58:15</time>
      </trkpt>
      <trkpt lat="38.79066" lon="-0.17315">
        <ele>575.8</ele>
        <time>2021-01-31 14:58:16</time>
      </trkpt>
      <trkpt lat="38.79064" lon="-0.17317">
        <ele>575.8</ele>
        <time>2021-01-31 14:58:17</time>
      </trkpt>
      <trkpt lat="38.79063" lon="-0.17319">
        <ele>575.8</ele>
        <time>2021-01-31 14:58:18</time>
      </trkpt>
      <trkpt lat="38.79062" lon="-0.17321">
        <ele>576.6</ele>
        <time>2021-01-31 14:58:19</time>
      </trkpt>
      <trkpt lat="38.79062" lon="-0.17321">
        <ele>577</ele>
        <time>2021-01-31 14:58:20</time>
      </trkpt>
      <trkpt lat="38.7906" lon="-0.17324">
        <ele>577</ele>
        <time>2021-01-31 14:58:21</time>
      </trkpt>
      <trkpt lat="38.7906" lon="-0.17324">
        <ele>577</ele>
        <time>2021-01-31 14:58:22</time>
      </trkpt>
      <trkpt lat="38.79058" lon="-0.17328">
        <ele>577</ele>
        <time>2021-01-31 14:58:23</time>
      </trkpt>
      <trkpt lat="38.79057" lon="-0.1733">
        <ele>577</ele>
        <time>2021-01-31 14:58:24</time>
      </trkpt>
      <trkpt lat="38.79055" lon="-0.17333">
        <ele>577</ele>
        <time>2021-01-31 14:58:25</time>
      </trkpt>
      <trkpt lat="38.79054" lon="-0.17335">
        <ele>577</ele>
        <time>2021-01-31 14:58:26</time>
      </trkpt>
      <trkpt lat="38.79052" lon="-0.17337">
        <ele>577.2</ele>
        <time>2021-01-31 14:58:27</time>
      </trkpt>
      <trkpt lat="38.79051" lon="-0.17339">
        <ele>577.2</ele>
        <time>2021-01-31 14:58:28</time>
      </trkpt>
      <trkpt lat="38.79049" lon="-0.17341">
        <ele>577.2</ele>
        <time>2021-01-31 14:58:29</time>
      </trkpt>
      <trkpt lat="38.79047" lon="-0.17342">
        <ele>577.2</ele>
        <time>2021-01-31 14:58:30</time>
      </trkpt>
      <trkpt lat="38.79045" lon="-0.17344">
        <ele>578.2</ele>
        <time>2021-01-31 14:58:31</time>
      </trkpt>
      <trkpt lat="38.79044" lon="-0.17346">
        <ele>578.4</ele>
        <time>2021-01-31 14:58:32</time>
      </trkpt>
      <trkpt lat="38.79042" lon="-0.17347">
        <ele>578.4</ele>
        <time>2021-01-31 14:58:33</time>
      </trkpt>
      <trkpt lat="38.7904" lon="-0.17349">
        <ele>578.4</ele>
        <time>2021-01-31 14:58:34</time>
      </trkpt>
      <trkpt lat="38.79037" lon="-0.17351">
        <ele>578.4</ele>
        <time>2021-01-31 14:58:35</time>
      </trkpt>
      <trkpt lat="38.79035" lon="-0.17352">
        <ele>578.6</ele>
        <time>2021-01-31 14:58:36</time>
      </trkpt>
      <trkpt lat="38.79033" lon="-0.17354">
        <ele>578.6</ele>
        <time>2021-01-31 14:58:37</time>
      </trkpt>
      <trkpt lat="38.7903" lon="-0.17356">
        <ele>578.6</ele>
        <time>2021-01-31 14:58:38</time>
      </trkpt>
      <trkpt lat="38.79028" lon="-0.17357">
        <ele>578.8</ele>
        <time>2021-01-31 14:58:39</time>
      </trkpt>
      <trkpt lat="38.79025" lon="-0.17359">
        <ele>579</ele>
        <time>2021-01-31 14:58:40</time>
      </trkpt>
      <trkpt lat="38.79023" lon="-0.1736">
        <ele>579</ele>
        <time>2021-01-31 14:58:41</time>
      </trkpt>
      <trkpt lat="38.79021" lon="-0.17362">
        <ele>579</ele>
        <time>2021-01-31 14:58:42</time>
      </trkpt>
      <trkpt lat="38.79018" lon="-0.17363">
        <ele>580</ele>
        <time>2021-01-31 14:58:43</time>
      </trkpt>
      <trkpt lat="38.79016" lon="-0.17364">
        <ele>580</ele>
        <time>2021-01-31 14:58:44</time>
      </trkpt>
      <trkpt lat="38.79014" lon="-0.17366">
        <ele>580</ele>
        <time>2021-01-31 14:58:45</time>
      </trkpt>
      <trkpt lat="38.79011" lon="-0.17368">
        <ele>580</ele>
        <time>2021-01-31 14:58:46</time>
      </trkpt>
      <trkpt lat="38.79009" lon="-0.17369">
        <ele>580.6</ele>
        <time>2021-01-31 14:58:47</time>
      </trkpt>
      <trkpt lat="38.79007" lon="-0.17371">
        <ele>580.2</ele>
        <time>2021-01-31 14:58:48</time>
      </trkpt>
      <trkpt lat="38.79005" lon="-0.17373">
        <ele>580.2</ele>
        <time>2021-01-31 14:58:49</time>
      </trkpt>
      <trkpt lat="38.79003" lon="-0.17375">
        <ele>580.2</ele>
        <time>2021-01-31 14:58:50</time>
      </trkpt>
      <trkpt lat="38.79001" lon="-0.17377">
        <ele>580.2</ele>
        <time>2021-01-31 14:58:51</time>
      </trkpt>
      <trkpt lat="38.78999" lon="-0.17379">
        <ele>579.4</ele>
        <time>2021-01-31 14:58:52</time>
      </trkpt>
      <trkpt lat="38.78997" lon="-0.17381">
        <ele>579.4</ele>
        <time>2021-01-31 14:58:53</time>
      </trkpt>
      <trkpt lat="38.78995" lon="-0.17384">
        <ele>579.4</ele>
        <time>2021-01-31 14:58:54</time>
      </trkpt>
      <trkpt lat="38.78993" lon="-0.17386">
        <ele>580.4</ele>
        <time>2021-01-31 14:58:55</time>
      </trkpt>
      <trkpt lat="38.78991" lon="-0.17388">
        <ele>580.2</ele>
        <time>2021-01-31 14:58:56</time>
      </trkpt>
      <trkpt lat="38.78989" lon="-0.1739">
        <ele>580.2</ele>
        <time>2021-01-31 14:58:57</time>
      </trkpt>
      <trkpt lat="38.78987" lon="-0.17393">
        <ele>580.2</ele>
        <time>2021-01-31 14:58:58</time>
      </trkpt>
      <trkpt lat="38.78985" lon="-0.17395">
        <ele>580.6</ele>
        <time>2021-01-31 14:58:59</time>
      </trkpt>
      <trkpt lat="38.78983" lon="-0.17397">
        <ele>581.8</ele>
        <time>2021-01-31 14:59:00</time>
      </trkpt>
      <trkpt lat="38.78981" lon="-0.17399">
        <ele>581.8</ele>
        <time>2021-01-31 14:59:01</time>
      </trkpt>
      <trkpt lat="38.78979" lon="-0.17401">
        <ele>581.8</ele>
        <time>2021-01-31 14:59:02</time>
      </trkpt>
      <trkpt lat="38.78978" lon="-0.17403">
        <ele>581.8</ele>
        <time>2021-01-31 14:59:03</time>
      </trkpt>
      <trkpt lat="38.78976" lon="-0.17405">
        <ele>581.6</ele>
        <time>2021-01-31 14:59:04</time>
      </trkpt>
      <trkpt lat="38.78974" lon="-0.17406">
        <ele>581.6</ele>
        <time>2021-01-31 14:59:05</time>
      </trkpt>
      <trkpt lat="38.78972" lon="-0.17408">
        <ele>581.6</ele>
        <time>2021-01-31 14:59:06</time>
      </trkpt>
      <trkpt lat="38.78971" lon="-0.1741">
        <ele>582.4</ele>
        <time>2021-01-31 14:59:07</time>
      </trkpt>
      <trkpt lat="38.78969" lon="-0.17412">
        <ele>582.8</ele>
        <time>2021-01-31 14:59:08</time>
      </trkpt>
      <trkpt lat="38.78967" lon="-0.17414">
        <ele>582.8</ele>
        <time>2021-01-31 14:59:09</time>
      </trkpt>
      <trkpt lat="38.78966" lon="-0.17417">
        <ele>582.8</ele>
        <time>2021-01-31 14:59:10</time>
      </trkpt>
      <trkpt lat="38.78965" lon="-0.17419">
        <ele>583.8</ele>
        <time>2021-01-31 14:59:11</time>
      </trkpt>
      <trkpt lat="38.78964" lon="-0.17421">
        <ele>583</ele>
        <time>2021-01-31 14:59:12</time>
      </trkpt>
      <trkpt lat="38.78962" lon="-0.17424">
        <ele>583</ele>
        <time>2021-01-31 14:59:13</time>
      </trkpt>
      <trkpt lat="38.78961" lon="-0.17426">
        <ele>583</ele>
        <time>2021-01-31 14:59:14</time>
      </trkpt>
      <trkpt lat="38.7896" lon="-0.17429">
        <ele>583</ele>
        <time>2021-01-31 14:59:15</time>
      </trkpt>
      <trkpt lat="38.78959" lon="-0.17432">
        <ele>583</ele>
        <time>2021-01-31 14:59:16</time>
      </trkpt>
      <trkpt lat="38.78958" lon="-0.17434">
        <ele>583</ele>
        <time>2021-01-31 14:59:17</time>
      </trkpt>
      <trkpt lat="38.78957" lon="-0.17437">
        <ele>583</ele>
        <time>2021-01-31 14:59:18</time>
      </trkpt>
      <trkpt lat="38.78956" lon="-0.1744">
        <ele>584</ele>
        <time>2021-01-31 14:59:19</time>
      </trkpt>
      <trkpt lat="38.78955" lon="-0.17443">
        <ele>584.4</ele>
        <time>2021-01-31 14:59:20</time>
      </trkpt>
      <trkpt lat="38.78954" lon="-0.17446">
        <ele>584.4</ele>
        <time>2021-01-31 14:59:21</time>
      </trkpt>
      <trkpt lat="38.78952" lon="-0.1745">
        <ele>584.4</ele>
        <time>2021-01-31 14:59:22</time>
      </trkpt>
      <trkpt lat="38.78951" lon="-0.17453">
        <ele>584.4</ele>
        <time>2021-01-31 14:59:23</time>
      </trkpt>
      <trkpt lat="38.78949" lon="-0.17456">
        <ele>584.2</ele>
        <time>2021-01-31 14:59:24</time>
      </trkpt>
      <trkpt lat="38.78947" lon="-0.17459">
        <ele>584.2</ele>
        <time>2021-01-31 14:59:25</time>
      </trkpt>
      <trkpt lat="38.78945" lon="-0.17462">
        <ele>584.2</ele>
        <time>2021-01-31 14:59:26</time>
      </trkpt>
      <trkpt lat="38.78942" lon="-0.17465">
        <ele>584.2</ele>
        <time>2021-01-31 14:59:27</time>
      </trkpt>
      <trkpt lat="38.7894" lon="-0.17468">
        <ele>584</ele>
        <time>2021-01-31 14:59:28</time>
      </trkpt>
      <trkpt lat="38.78937" lon="-0.17471">
        <ele>584</ele>
        <time>2021-01-31 14:59:29</time>
      </trkpt>
      <trkpt lat="38.78934" lon="-0.17473">
        <ele>584</ele>
        <time>2021-01-31 14:59:30</time>
      </trkpt>
      <trkpt lat="38.7893" lon="-0.17474">
        <ele>584.8</ele>
        <time>2021-01-31 14:59:31</time>
      </trkpt>
      <trkpt lat="38.78926" lon="-0.17475">
        <ele>585.4</ele>
        <time>2021-01-31 14:59:32</time>
      </trkpt>
      <trkpt lat="38.78923" lon="-0.17476">
        <ele>585.4</ele>
        <time>2021-01-31 14:59:33</time>
      </trkpt>
      <trkpt lat="38.78919" lon="-0.17476">
        <ele>585.4</ele>
        <time>2021-01-31 14:59:34</time>
      </trkpt>
      <trkpt lat="38.78915" lon="-0.17477">
        <ele>586.4</ele>
        <time>2021-01-31 14:59:35</time>
      </trkpt>
      <trkpt lat="38.78912" lon="-0.17477">
        <ele>587.2</ele>
        <time>2021-01-31 14:59:36</time>
      </trkpt>
      <trkpt lat="38.78908" lon="-0.17477">
        <ele>587.2</ele>
        <time>2021-01-31 14:59:37</time>
      </trkpt>
      <trkpt lat="38.78905" lon="-0.17477">
        <ele>587.2</ele>
        <time>2021-01-31 14:59:38</time>
      </trkpt>
      <trkpt lat="38.78901" lon="-0.17477">
        <ele>586.4</ele>
        <time>2021-01-31 14:59:39</time>
      </trkpt>
      <trkpt lat="38.78897" lon="-0.17477">
        <ele>586.8</ele>
        <time>2021-01-31 14:59:40</time>
      </trkpt>
      <trkpt lat="38.78894" lon="-0.17478">
        <ele>586.8</ele>
        <time>2021-01-31 14:59:41</time>
      </trkpt>
      <trkpt lat="38.7889" lon="-0.17479">
        <ele>586.8</ele>
        <time>2021-01-31 14:59:42</time>
      </trkpt>
      <trkpt lat="38.78887" lon="-0.17481">
        <ele>587.8</ele>
        <time>2021-01-31 14:59:43</time>
      </trkpt>
      <trkpt lat="38.78884" lon="-0.17482">
        <ele>587.6</ele>
        <time>2021-01-31 14:59:44</time>
      </trkpt>
      <trkpt lat="38.78881" lon="-0.17485">
        <ele>587.6</ele>
        <time>2021-01-31 14:59:45</time>
      </trkpt>
      <trkpt lat="38.78878" lon="-0.17487">
        <ele>587.6</ele>
        <time>2021-01-31 14:59:46</time>
      </trkpt>
      <trkpt lat="38.78875" lon="-0.1749">
        <ele>588.2</ele>
        <time>2021-01-31 14:59:47</time>
      </trkpt>
      <trkpt lat="38.78873" lon="-0.17492">
        <ele>588.2</ele>
        <time>2021-01-31 14:59:48</time>
      </trkpt>
      <trkpt lat="38.7887" lon="-0.17494">
        <ele>588.2</ele>
        <time>2021-01-31 14:59:49</time>
      </trkpt>
      <trkpt lat="38.78866" lon="-0.17495">
        <ele>588.2</ele>
        <time>2021-01-31 14:59:50</time>
      </trkpt>
      <trkpt lat="38.78863" lon="-0.17495">
        <ele>588.2</ele>
        <time>2021-01-31 14:59:51</time>
      </trkpt>
      <trkpt lat="38.78859" lon="-0.17495">
        <ele>589.6</ele>
        <time>2021-01-31 14:59:52</time>
      </trkpt>
      <trkpt lat="38.78855" lon="-0.17493">
        <ele>589.6</ele>
        <time>2021-01-31 14:59:53</time>
      </trkpt>
      <trkpt lat="38.78852" lon="-0.17491">
        <ele>589.6</ele>
        <time>2021-01-31 14:59:54</time>
      </trkpt>
      <trkpt lat="38.78848" lon="-0.17488">
        <ele>588.6</ele>
        <time>2021-01-31 14:59:55</time>
      </trkpt>
      <trkpt lat="38.78843" lon="-0.17485">
        <ele>586.6</ele>
        <time>2021-01-31 14:59:56</time>
      </trkpt>
      <trkpt lat="38.78838" lon="-0.17482">
        <ele>586.6</ele>
        <time>2021-01-31 14:59:57</time>
      </trkpt>
      <trkpt lat="38.78833" lon="-0.17479">
        <ele>586.6</ele>
        <time>2021-01-31 14:59:58</time>
      </trkpt>
      <trkpt lat="38.78826" lon="-0.17477">
        <ele>586.6</ele>
        <time>2021-01-31 14:59:59</time>
      </trkpt>
      <trkpt lat="38.78819" lon="-0.17478">
        <ele>584.2</ele>
        <time>2021-01-31 15:00:00</time>
      </trkpt>
      <trkpt lat="38.78813" lon="-0.17481">
        <ele>584.2</ele>
        <time>2021-01-31 15:00:01</time>
      </trkpt>
      <trkpt lat="38.78807" lon="-0.17485">
        <ele>584.2</ele>
        <time>2021-01-31 15:00:02</time>
      </trkpt>
      <trkpt lat="38.788" lon="-0.17489">
        <ele>584.2</ele>
        <time>2021-01-31 15:00:03</time>
      </trkpt>
      <trkpt lat="38.78795" lon="-0.17493">
        <ele>586</ele>
        <time>2021-01-31 15:00:04</time>
      </trkpt>
      <trkpt lat="38.78791" lon="-0.17501">
        <ele>586</ele>
        <time>2021-01-31 15:00:05</time>
      </trkpt>
      <trkpt lat="38.7879" lon="-0.17509">
        <ele>586</ele>
        <time>2021-01-31 15:00:06</time>
      </trkpt>
      <trkpt lat="38.78791" lon="-0.17517">
        <ele>585</ele>
        <time>2021-01-31 15:00:07</time>
      </trkpt>
      <trkpt lat="38.78793" lon="-0.17524">
        <ele>584</ele>
        <time>2021-01-31 15:00:08</time>
      </trkpt>
      <trkpt lat="38.78793" lon="-0.17531">
        <ele>584</ele>
        <time>2021-01-31 15:00:09</time>
      </trkpt>
      <trkpt lat="38.78794" lon="-0.17539">
        <ele>584</ele>
        <time>2021-01-31 15:00:10</time>
      </trkpt>
      <trkpt lat="38.78793" lon="-0.17546">
        <ele>585</ele>
        <time>2021-01-31 15:00:11</time>
      </trkpt>
      <trkpt lat="38.78792" lon="-0.17553">
        <ele>586.6</ele>
        <time>2021-01-31 15:00:12</time>
      </trkpt>
      <trkpt lat="38.7879" lon="-0.1756">
        <ele>586.6</ele>
        <time>2021-01-31 15:00:13</time>
      </trkpt>
      <trkpt lat="38.78788" lon="-0.17566">
        <ele>586.6</ele>
        <time>2021-01-31 15:00:14</time>
      </trkpt>
      <trkpt lat="38.78786" lon="-0.17571">
        <ele>586.6</ele>
        <time>2021-01-31 15:00:15</time>
      </trkpt>
      <trkpt lat="38.78783" lon="-0.17577">
        <ele>588</ele>
        <time>2021-01-31 15:00:16</time>
      </trkpt>
      <trkpt lat="38.78781" lon="-0.17583">
        <ele>588</ele>
        <time>2021-01-31 15:00:17</time>
      </trkpt>
      <trkpt lat="38.78778" lon="-0.17588">
        <ele>588</ele>
        <time>2021-01-31 15:00:18</time>
      </trkpt>
      <trkpt lat="38.78776" lon="-0.17593">
        <ele>588.2</ele>
        <time>2021-01-31 15:00:19</time>
      </trkpt>
      <trkpt lat="38.78774" lon="-0.17598">
        <ele>588.6</ele>
        <time>2021-01-31 15:00:20</time>
      </trkpt>
      <trkpt lat="38.78772" lon="-0.17603">
        <ele>588.6</ele>
        <time>2021-01-31 15:00:21</time>
      </trkpt>
      <trkpt lat="38.7877" lon="-0.17608">
        <ele>588.6</ele>
        <time>2021-01-31 15:00:22</time>
      </trkpt>
      <trkpt lat="38.78766" lon="-0.17612">
        <ele>588</ele>
        <time>2021-01-31 15:00:23</time>
      </trkpt>
      <trkpt lat="38.78763" lon="-0.17616">
        <ele>588.4</ele>
        <time>2021-01-31 15:00:24</time>
      </trkpt>
      <trkpt lat="38.78759" lon="-0.17619">
        <ele>588.4</ele>
        <time>2021-01-31 15:00:25</time>
      </trkpt>
      <trkpt lat="38.78754" lon="-0.17621">
        <ele>588.4</ele>
        <time>2021-01-31 15:00:26</time>
      </trkpt>
      <trkpt lat="38.7875" lon="-0.17623">
        <ele>588.4</ele>
        <time>2021-01-31 15:00:27</time>
      </trkpt>
      <trkpt lat="38.78745" lon="-0.17625">
        <ele>588.8</ele>
        <time>2021-01-31 15:00:28</time>
      </trkpt>
      <trkpt lat="38.78741" lon="-0.17626">
        <ele>588.8</ele>
        <time>2021-01-31 15:00:29</time>
      </trkpt>
      <trkpt lat="38.78735" lon="-0.17626">
        <ele>588.8</ele>
        <time>2021-01-31 15:00:30</time>
      </trkpt>
      <trkpt lat="38.7873" lon="-0.17628">
        <ele>588.4</ele>
        <time>2021-01-31 15:00:31</time>
      </trkpt>
      <trkpt lat="38.78725" lon="-0.17632">
        <ele>588.2</ele>
        <time>2021-01-31 15:00:32</time>
      </trkpt>
      <trkpt lat="38.78722" lon="-0.17638">
        <ele>588.2</ele>
        <time>2021-01-31 15:00:33</time>
      </trkpt>
      <trkpt lat="38.78723" lon="-0.17645">
        <ele>588.2</ele>
        <time>2021-01-31 15:00:34</time>
      </trkpt>
      <trkpt lat="38.78726" lon="-0.17651">
        <ele>588.8</ele>
        <time>2021-01-31 15:00:35</time>
      </trkpt>
      <trkpt lat="38.78729" lon="-0.17656">
        <ele>588.8</ele>
        <time>2021-01-31 15:00:36</time>
      </trkpt>
      <trkpt lat="38.78729" lon="-0.17662">
        <ele>588.8</ele>
        <time>2021-01-31 15:00:37</time>
      </trkpt>
      <trkpt lat="38.78728" lon="-0.17668">
        <ele>588.8</ele>
        <time>2021-01-31 15:00:38</time>
      </trkpt>
      <trkpt lat="38.78727" lon="-0.17672">
        <ele>589.8</ele>
        <time>2021-01-31 15:00:39</time>
      </trkpt>
      <trkpt lat="38.78725" lon="-0.17677">
        <ele>591.6</ele>
        <time>2021-01-31 15:00:40</time>
      </trkpt>
      <trkpt lat="38.78723" lon="-0.1768">
        <ele>591.6</ele>
        <time>2021-01-31 15:00:41</time>
      </trkpt>
      <trkpt lat="38.78721" lon="-0.17683">
        <ele>591.6</ele>
        <time>2021-01-31 15:00:42</time>
      </trkpt>
      <trkpt lat="38.78719" lon="-0.17686">
        <ele>591.6</ele>
        <time>2021-01-31 15:00:43</time>
      </trkpt>
      <trkpt lat="38.78717" lon="-0.17689">
        <ele>593.6</ele>
        <time>2021-01-31 15:00:44</time>
      </trkpt>
      <trkpt lat="38.78715" lon="-0.17691">
        <ele>593.6</ele>
        <time>2021-01-31 15:00:45</time>
      </trkpt>
      <trkpt lat="38.78713" lon="-0.17694">
        <ele>593.6</ele>
        <time>2021-01-31 15:00:46</time>
      </trkpt>
      <trkpt lat="38.78711" lon="-0.17697">
        <ele>593.6</ele>
        <time>2021-01-31 15:00:47</time>
      </trkpt>
      <trkpt lat="38.78709" lon="-0.17699">
        <ele>595</ele>
        <time>2021-01-31 15:00:48</time>
      </trkpt>
      <trkpt lat="38.78707" lon="-0.17701">
        <ele>595</ele>
        <time>2021-01-31 15:00:49</time>
      </trkpt>
      <trkpt lat="38.78705" lon="-0.17704">
        <ele>595</ele>
        <time>2021-01-31 15:00:50</time>
      </trkpt>
      <trkpt lat="38.78703" lon="-0.17706">
        <ele>595.2</ele>
        <time>2021-01-31 15:00:51</time>
      </trkpt>
      <trkpt lat="38.78701" lon="-0.17709">
        <ele>595.6</ele>
        <time>2021-01-31 15:00:52</time>
      </trkpt>
      <trkpt lat="38.78699" lon="-0.17711">
        <ele>595.6</ele>
        <time>2021-01-31 15:00:53</time>
      </trkpt>
      <trkpt lat="38.78697" lon="-0.17713">
        <ele>595.6</ele>
        <time>2021-01-31 15:00:54</time>
      </trkpt>
      <trkpt lat="38.78695" lon="-0.17716">
        <ele>596.2</ele>
        <time>2021-01-31 15:00:55</time>
      </trkpt>
      <trkpt lat="38.78692" lon="-0.17717">
        <ele>596.6</ele>
        <time>2021-01-31 15:00:56</time>
      </trkpt>
      <trkpt lat="38.78689" lon="-0.17719">
        <ele>596.6</ele>
        <time>2021-01-31 15:00:57</time>
      </trkpt>
      <trkpt lat="38.78687" lon="-0.17721">
        <ele>596.6</ele>
        <time>2021-01-31 15:00:58</time>
      </trkpt>
      <trkpt lat="38.78684" lon="-0.17723">
        <ele>597</ele>
        <time>2021-01-31 15:00:59</time>
      </trkpt>
      <trkpt lat="38.78682" lon="-0.17724">
        <ele>597.4</ele>
        <time>2021-01-31 15:01:00</time>
      </trkpt>
      <trkpt lat="38.7868" lon="-0.17726">
        <ele>597.4</ele>
        <time>2021-01-31 15:01:01</time>
      </trkpt>
      <trkpt lat="38.78677" lon="-0.17727">
        <ele>597.4</ele>
        <time>2021-01-31 15:01:02</time>
      </trkpt>
      <trkpt lat="38.78675" lon="-0.17729">
        <ele>597.4</ele>
        <time>2021-01-31 15:01:03</time>
      </trkpt>
      <trkpt lat="38.78672" lon="-0.1773">
        <ele>598.2</ele>
        <time>2021-01-31 15:01:04</time>
      </trkpt>
      <trkpt lat="38.7867" lon="-0.17731">
        <ele>598.2</ele>
        <time>2021-01-31 15:01:05</time>
      </trkpt>
      <trkpt lat="38.78667" lon="-0.17733">
        <ele>598.2</ele>
        <time>2021-01-31 15:01:06</time>
      </trkpt>
      <trkpt lat="38.78665" lon="-0.17734">
        <ele>598.4</ele>
        <time>2021-01-31 15:01:07</time>
      </trkpt>
      <trkpt lat="38.78662" lon="-0.17735">
        <ele>598.8</ele>
        <time>2021-01-31 15:01:08</time>
      </trkpt>
      <trkpt lat="38.78659" lon="-0.17736">
        <ele>598.8</ele>
        <time>2021-01-31 15:01:09</time>
      </trkpt>
      <trkpt lat="38.78656" lon="-0.17737">
        <ele>598.8</ele>
        <time>2021-01-31 15:01:10</time>
      </trkpt>
      <trkpt lat="38.78653" lon="-0.17738">
        <ele>598.8</ele>
        <time>2021-01-31 15:01:11</time>
      </trkpt>
      <trkpt lat="38.7865" lon="-0.17739">
        <ele>598.6</ele>
        <time>2021-01-31 15:01:12</time>
      </trkpt>
      <trkpt lat="38.78647" lon="-0.17739">
        <ele>598.6</ele>
        <time>2021-01-31 15:01:13</time>
      </trkpt>
      <trkpt lat="38.78644" lon="-0.17738">
        <ele>598.6</ele>
        <time>2021-01-31 15:01:14</time>
      </trkpt>
      <trkpt lat="38.7864" lon="-0.17738">
        <ele>598.6</ele>
        <time>2021-01-31 15:01:15</time>
      </trkpt>
      <trkpt lat="38.78637" lon="-0.17737">
        <ele>598.4</ele>
        <time>2021-01-31 15:01:16</time>
      </trkpt>
      <trkpt lat="38.78634" lon="-0.17737">
        <ele>598.4</ele>
        <time>2021-01-31 15:01:17</time>
      </trkpt>
      <trkpt lat="38.78631" lon="-0.17736">
        <ele>598.4</ele>
        <time>2021-01-31 15:01:18</time>
      </trkpt>
      <trkpt lat="38.78628" lon="-0.17735">
        <ele>599</ele>
        <time>2021-01-31 15:01:19</time>
      </trkpt>
      <trkpt lat="38.78624" lon="-0.17734">
        <ele>599</ele>
        <time>2021-01-31 15:01:20</time>
      </trkpt>
      <trkpt lat="38.78621" lon="-0.17733">
        <ele>599</ele>
        <time>2021-01-31 15:01:21</time>
      </trkpt>
      <trkpt lat="38.78617" lon="-0.17733">
        <ele>599</ele>
        <time>2021-01-31 15:01:22</time>
      </trkpt>
      <trkpt lat="38.78613" lon="-0.17733">
        <ele>599</ele>
        <time>2021-01-31 15:01:23</time>
      </trkpt>
      <trkpt lat="38.78609" lon="-0.17733">
        <ele>598.8</ele>
        <time>2021-01-31 15:01:24</time>
      </trkpt>
      <trkpt lat="38.78605" lon="-0.17734">
        <ele>598.8</ele>
        <time>2021-01-31 15:01:25</time>
      </trkpt>
      <trkpt lat="38.786" lon="-0.17736">
        <ele>598.8</ele>
        <time>2021-01-31 15:01:26</time>
      </trkpt>
      <trkpt lat="38.78595" lon="-0.17737">
        <ele>598.8</ele>
        <time>2021-01-31 15:01:27</time>
      </trkpt>
      <trkpt lat="38.7859" lon="-0.1774">
        <ele>597.4</ele>
        <time>2021-01-31 15:01:28</time>
      </trkpt>
      <trkpt lat="38.78584" lon="-0.17743">
        <ele>597.4</ele>
        <time>2021-01-31 15:01:29</time>
      </trkpt>
      <trkpt lat="38.78578" lon="-0.17747">
        <ele>597.4</ele>
        <time>2021-01-31 15:01:30</time>
      </trkpt>
      <trkpt lat="38.78574" lon="-0.17752">
        <ele>597.4</ele>
        <time>2021-01-31 15:01:31</time>
      </trkpt>
      <trkpt lat="38.78572" lon="-0.17759">
        <ele>598.8</ele>
        <time>2021-01-31 15:01:32</time>
      </trkpt>
      <trkpt lat="38.78571" lon="-0.17766">
        <ele>598.8</ele>
        <time>2021-01-31 15:01:33</time>
      </trkpt>
      <trkpt lat="38.78572" lon="-0.17772">
        <ele>598.8</ele>
        <time>2021-01-31 15:01:34</time>
      </trkpt>
      <trkpt lat="38.78572" lon="-0.17777">
        <ele>599.8</ele>
        <time>2021-01-31 15:01:35</time>
      </trkpt>
      <trkpt lat="38.78572" lon="-0.17782">
        <ele>601.4</ele>
        <time>2021-01-31 15:01:36</time>
      </trkpt>
      <trkpt lat="38.78572" lon="-0.17786">
        <ele>601.4</ele>
        <time>2021-01-31 15:01:37</time>
      </trkpt>
      <trkpt lat="38.78572" lon="-0.1779">
        <ele>601.4</ele>
        <time>2021-01-31 15:01:38</time>
      </trkpt>
      <trkpt lat="38.78572" lon="-0.17794">
        <ele>602.4</ele>
        <time>2021-01-31 15:01:39</time>
      </trkpt>
      <trkpt lat="38.78572" lon="-0.17798">
        <ele>603.2</ele>
        <time>2021-01-31 15:01:40</time>
      </trkpt>
      <trkpt lat="38.78572" lon="-0.17802">
        <ele>603.2</ele>
        <time>2021-01-31 15:01:41</time>
      </trkpt>
      <trkpt lat="38.78571" lon="-0.17807">
        <ele>603.2</ele>
        <time>2021-01-31 15:01:42</time>
      </trkpt>
      <trkpt lat="38.7857" lon="-0.17811">
        <ele>604</ele>
        <time>2021-01-31 15:01:43</time>
      </trkpt>
      <trkpt lat="38.7857" lon="-0.17815">
        <ele>604.4</ele>
        <time>2021-01-31 15:01:44</time>
      </trkpt>
      <trkpt lat="38.78569" lon="-0.17819">
        <ele>604.4</ele>
        <time>2021-01-31 15:01:45</time>
      </trkpt>
      <trkpt lat="38.78569" lon="-0.17823">
        <ele>604.4</ele>
        <time>2021-01-31 15:01:46</time>
      </trkpt>
      <trkpt lat="38.78568" lon="-0.17827">
        <ele>604.4</ele>
        <time>2021-01-31 15:01:47</time>
      </trkpt>
      <trkpt lat="38.78567" lon="-0.17831">
        <ele>605</ele>
        <time>2021-01-31 15:01:48</time>
      </trkpt>
      <trkpt lat="38.78567" lon="-0.17835">
        <ele>605</ele>
        <time>2021-01-31 15:01:49</time>
      </trkpt>
      <trkpt lat="38.78566" lon="-0.17838">
        <ele>605</ele>
        <time>2021-01-31 15:01:50</time>
      </trkpt>
      <trkpt lat="38.78566" lon="-0.17842">
        <ele>606</ele>
        <time>2021-01-31 15:01:51</time>
      </trkpt>
      <trkpt lat="38.78565" lon="-0.17846">
        <ele>606.6</ele>
        <time>2021-01-31 15:01:52</time>
      </trkpt>
      <trkpt lat="38.78565" lon="-0.1785">
        <ele>606.6</ele>
        <time>2021-01-31 15:01:53</time>
      </trkpt>
      <trkpt lat="38.78564" lon="-0.17853">
        <ele>606.6</ele>
        <time>2021-01-31 15:01:54</time>
      </trkpt>
      <trkpt lat="38.78564" lon="-0.17857">
        <ele>606.6</ele>
        <time>2021-01-31 15:01:55</time>
      </trkpt>
      <trkpt lat="38.78563" lon="-0.17861">
        <ele>606.8</ele>
        <time>2021-01-31 15:01:56</time>
      </trkpt>
      <trkpt lat="38.78563" lon="-0.17865">
        <ele>606.8</ele>
        <time>2021-01-31 15:01:57</time>
      </trkpt>
      <trkpt lat="38.78563" lon="-0.17869">
        <ele>606.8</ele>
        <time>2021-01-31 15:01:58</time>
      </trkpt>
      <trkpt lat="38.78563" lon="-0.17873">
        <ele>607</ele>
        <time>2021-01-31 15:01:59</time>
      </trkpt>
      <trkpt lat="38.78563" lon="-0.17877">
        <ele>608.4</ele>
        <time>2021-01-31 15:02:00</time>
      </trkpt>
      <trkpt lat="38.78563" lon="-0.17881">
        <ele>608.4</ele>
        <time>2021-01-31 15:02:01</time>
      </trkpt>
      <trkpt lat="38.78563" lon="-0.17885">
        <ele>608.4</ele>
        <time>2021-01-31 15:02:02</time>
      </trkpt>
      <trkpt lat="38.78564" lon="-0.17889">
        <ele>608.4</ele>
        <time>2021-01-31 15:02:03</time>
      </trkpt>
      <trkpt lat="38.78564" lon="-0.17893">
        <ele>608.4</ele>
        <time>2021-01-31 15:02:04</time>
      </trkpt>
      <trkpt lat="38.78564" lon="-0.17897">
        <ele>608.4</ele>
        <time>2021-01-31 15:02:05</time>
      </trkpt>
      <trkpt lat="38.78564" lon="-0.17901">
        <ele>608.4</ele>
        <time>2021-01-31 15:02:06</time>
      </trkpt>
      <trkpt lat="38.78564" lon="-0.17905">
        <ele>607.6</ele>
        <time>2021-01-31 15:02:07</time>
      </trkpt>
      <trkpt lat="38.78564" lon="-0.17909">
        <ele>608.2</ele>
        <time>2021-01-31 15:02:08</time>
      </trkpt>
      <trkpt lat="38.78563" lon="-0.17913">
        <ele>608.2</ele>
        <time>2021-01-31 15:02:09</time>
      </trkpt>
      <trkpt lat="38.78563" lon="-0.17917">
        <ele>608.2</ele>
        <time>2021-01-31 15:02:10</time>
      </trkpt>
      <trkpt lat="38.78562" lon="-0.17922">
        <ele>608.2</ele>
        <time>2021-01-31 15:02:11</time>
      </trkpt>
      <trkpt lat="38.78561" lon="-0.17926">
        <ele>608.4</ele>
        <time>2021-01-31 15:02:12</time>
      </trkpt>
      <trkpt lat="38.7856" lon="-0.1793">
        <ele>608.4</ele>
        <time>2021-01-31 15:02:13</time>
      </trkpt>
      <trkpt lat="38.78559" lon="-0.17934">
        <ele>608.4</ele>
        <time>2021-01-31 15:02:14</time>
      </trkpt>
      <trkpt lat="38.78557" lon="-0.17937">
        <ele>609.4</ele>
        <time>2021-01-31 15:02:15</time>
      </trkpt>
      <trkpt lat="38.78556" lon="-0.17941">
        <ele>609.6</ele>
        <time>2021-01-31 15:02:16</time>
      </trkpt>
      <trkpt lat="38.78554" lon="-0.17944">
        <ele>610.2</ele>
        <time>2021-01-31 15:02:17</time>
      </trkpt>
      <trkpt lat="38.78553" lon="-0.17948">
        <ele>610.2</ele>
        <time>2021-01-31 15:02:18</time>
      </trkpt>
      <trkpt lat="38.78551" lon="-0.17951">
        <ele>610.2</ele>
        <time>2021-01-31 15:02:19</time>
      </trkpt>
      <trkpt lat="38.78549" lon="-0.17954">
        <ele>610.2</ele>
        <time>2021-01-31 15:02:20</time>
      </trkpt>
      <trkpt lat="38.78548" lon="-0.17958">
        <ele>610.2</ele>
        <time>2021-01-31 15:02:21</time>
      </trkpt>
      <trkpt lat="38.78546" lon="-0.17961">
        <ele>610.2</ele>
        <time>2021-01-31 15:02:22</time>
      </trkpt>
      <trkpt lat="38.78544" lon="-0.17964">
        <ele>610.2</ele>
        <time>2021-01-31 15:02:23</time>
      </trkpt>
      <trkpt lat="38.78543" lon="-0.17967">
        <ele>611.2</ele>
        <time>2021-01-31 15:02:24</time>
      </trkpt>
      <trkpt lat="38.78541" lon="-0.1797">
        <ele>611.2</ele>
        <time>2021-01-31 15:02:25</time>
      </trkpt>
      <trkpt lat="38.78539" lon="-0.17972">
        <ele>611.2</ele>
        <time>2021-01-31 15:02:26</time>
      </trkpt>
      <trkpt lat="38.78537" lon="-0.17975">
        <ele>611.2</ele>
        <time>2021-01-31 15:02:27</time>
      </trkpt>
      <trkpt lat="38.78534" lon="-0.17978">
        <ele>612</ele>
        <time>2021-01-31 15:02:28</time>
      </trkpt>
      <trkpt lat="38.78532" lon="-0.17981">
        <ele>612.4</ele>
        <time>2021-01-31 15:02:29</time>
      </trkpt>
      <trkpt lat="38.7853" lon="-0.17984">
        <ele>612.8</ele>
        <time>2021-01-31 15:02:30</time>
      </trkpt>
      <trkpt lat="38.78527" lon="-0.17987">
        <ele>612.8</ele>
        <time>2021-01-31 15:02:31</time>
      </trkpt>
      <trkpt lat="38.78525" lon="-0.1799">
        <ele>612.8</ele>
        <time>2021-01-31 15:02:32</time>
      </trkpt>
      <trkpt lat="38.78523" lon="-0.17993">
        <ele>612.2</ele>
        <time>2021-01-31 15:02:33</time>
      </trkpt>
      <trkpt lat="38.78521" lon="-0.17996">
        <ele>611.6</ele>
        <time>2021-01-31 15:02:34</time>
      </trkpt>
      <trkpt lat="38.78518" lon="-0.17999">
        <ele>611.6</ele>
        <time>2021-01-31 15:02:35</time>
      </trkpt>
      <trkpt lat="38.78516" lon="-0.18002">
        <ele>611.6</ele>
        <time>2021-01-31 15:02:36</time>
      </trkpt>
      <trkpt lat="38.78514" lon="-0.18006">
        <ele>611.6</ele>
        <time>2021-01-31 15:02:37</time>
      </trkpt>
      <trkpt lat="38.78511" lon="-0.18009">
        <ele>611</ele>
        <time>2021-01-31 15:02:38</time>
      </trkpt>
      <trkpt lat="38.7851" lon="-0.18011">
        <ele>611</ele>
        <time>2021-01-31 15:02:39</time>
      </trkpt>
      <trkpt lat="38.78508" lon="-0.18014">
        <ele>611</ele>
        <time>2021-01-31 15:02:40</time>
      </trkpt>
      <trkpt lat="38.78506" lon="-0.18017">
        <ele>612</ele>
        <time>2021-01-31 15:02:41</time>
      </trkpt>
      <trkpt lat="38.78503" lon="-0.1802">
        <ele>612.8</ele>
        <time>2021-01-31 15:02:42</time>
      </trkpt>
      <trkpt lat="38.78501" lon="-0.18023">
        <ele>612.8</ele>
        <time>2021-01-31 15:02:43</time>
      </trkpt>
      <trkpt lat="38.78499" lon="-0.18026">
        <ele>612.8</ele>
        <time>2021-01-31 15:02:44</time>
      </trkpt>
      <trkpt lat="38.78497" lon="-0.18029">
        <ele>612.8</ele>
        <time>2021-01-31 15:02:45</time>
      </trkpt>
      <trkpt lat="38.78495" lon="-0.18032">
        <ele>612.8</ele>
        <time>2021-01-31 15:02:46</time>
      </trkpt>
      <trkpt lat="38.78493" lon="-0.18035">
        <ele>612.8</ele>
        <time>2021-01-31 15:02:47</time>
      </trkpt>
      <trkpt lat="38.7849" lon="-0.18038">
        <ele>612.8</ele>
        <time>2021-01-31 15:02:48</time>
      </trkpt>
      <trkpt lat="38.78487" lon="-0.18041">
        <ele>612.8</ele>
        <time>2021-01-31 15:02:49</time>
      </trkpt>
      <trkpt lat="38.78485" lon="-0.18044">
        <ele>612.8</ele>
        <time>2021-01-31 15:02:50</time>
      </trkpt>
      <trkpt lat="38.78481" lon="-0.18048">
        <ele>612.2</ele>
        <time>2021-01-31 15:02:51</time>
      </trkpt>
      <trkpt lat="38.78478" lon="-0.18051">
        <ele>612.2</ele>
        <time>2021-01-31 15:02:52</time>
      </trkpt>
      <trkpt lat="38.78475" lon="-0.18054">
        <ele>612.2</ele>
        <time>2021-01-31 15:02:53</time>
      </trkpt>
      <trkpt lat="38.78471" lon="-0.18057">
        <ele>613.2</ele>
        <time>2021-01-31 15:02:54</time>
      </trkpt>
      <trkpt lat="38.78467" lon="-0.18059">
        <ele>613.6</ele>
        <time>2021-01-31 15:02:55</time>
      </trkpt>
      <trkpt lat="38.78463" lon="-0.18062">
        <ele>613.6</ele>
        <time>2021-01-31 15:02:56</time>
      </trkpt>
      <trkpt lat="38.78459" lon="-0.18064">
        <ele>613.6</ele>
        <time>2021-01-31 15:02:57</time>
      </trkpt>
      <trkpt lat="38.78456" lon="-0.18066">
        <ele>613.6</ele>
        <time>2021-01-31 15:02:58</time>
      </trkpt>
      <trkpt lat="38.78453" lon="-0.18069">
        <ele>614</ele>
        <time>2021-01-31 15:02:59</time>
      </trkpt>
      <trkpt lat="38.7845" lon="-0.18072">
        <ele>615</ele>
        <time>2021-01-31 15:03:00</time>
      </trkpt>
      <trkpt lat="38.78447" lon="-0.18076">
        <ele>615</ele>
        <time>2021-01-31 15:03:01</time>
      </trkpt>
      <trkpt lat="38.78445" lon="-0.1808">
        <ele>615</ele>
        <time>2021-01-31 15:03:02</time>
      </trkpt>
      <trkpt lat="38.78443" lon="-0.18084">
        <ele>614</ele>
        <time>2021-01-31 15:03:03</time>
      </trkpt>
      <trkpt lat="38.7844" lon="-0.18089">
        <ele>613.2</ele>
        <time>2021-01-31 15:03:04</time>
      </trkpt>
      <trkpt lat="38.78437" lon="-0.18095">
        <ele>612.8</ele>
        <time>2021-01-31 15:03:05</time>
      </trkpt>
      <trkpt lat="38.78435" lon="-0.18101">
        <ele>612</ele>
        <time>2021-01-31 15:03:06</time>
      </trkpt>
      <trkpt lat="38.78431" lon="-0.18107">
        <ele>611.2</ele>
        <time>2021-01-31 15:03:07</time>
      </trkpt>
      <trkpt lat="38.78427" lon="-0.18113">
        <ele>610.6</ele>
        <time>2021-01-31 15:03:08</time>
      </trkpt>
      <trkpt lat="38.78422" lon="-0.18118">
        <ele>609.8</ele>
        <time>2021-01-31 15:03:09</time>
      </trkpt>
      <trkpt lat="38.78416" lon="-0.18123">
        <ele>609.6</ele>
        <time>2021-01-31 15:03:10</time>
      </trkpt>
      <trkpt lat="38.78409" lon="-0.18129">
        <ele>608.6</ele>
        <time>2021-01-31 15:03:11</time>
      </trkpt>
      <trkpt lat="38.78402" lon="-0.18135">
        <ele>607.6</ele>
        <time>2021-01-31 15:03:12</time>
      </trkpt>
      <trkpt lat="38.78396" lon="-0.18141">
        <ele>607.6</ele>
        <time>2021-01-31 15:03:13</time>
      </trkpt>
      <trkpt lat="38.78389" lon="-0.18149">
        <ele>607.6</ele>
        <time>2021-01-31 15:03:14</time>
      </trkpt>
      <trkpt lat="38.78382" lon="-0.18157">
        <ele>607.6</ele>
        <time>2021-01-31 15:03:15</time>
      </trkpt>
      <trkpt lat="38.78376" lon="-0.18165">
        <ele>606.6</ele>
        <time>2021-01-31 15:03:16</time>
      </trkpt>
      <trkpt lat="38.78369" lon="-0.18174">
        <ele>605.6</ele>
        <time>2021-01-31 15:03:17</time>
      </trkpt>
      <trkpt lat="38.78363" lon="-0.18183">
        <ele>604.6</ele>
        <time>2021-01-31 15:03:18</time>
      </trkpt>
      <trkpt lat="38.78358" lon="-0.18193">
        <ele>604</ele>
        <time>2021-01-31 15:03:19</time>
      </trkpt>
      <trkpt lat="38.78353" lon="-0.18203">
        <ele>604</ele>
        <time>2021-01-31 15:03:20</time>
      </trkpt>
      <trkpt lat="38.7835" lon="-0.18214">
        <ele>604</ele>
        <time>2021-01-31 15:03:21</time>
      </trkpt>
      <trkpt lat="38.78349" lon="-0.18223">
        <ele>605</ele>
        <time>2021-01-31 15:03:22</time>
      </trkpt>
      <trkpt lat="38.78348" lon="-0.18231">
        <ele>606</ele>
        <time>2021-01-31 15:03:23</time>
      </trkpt>
      <trkpt lat="38.78345" lon="-0.18237">
        <ele>607</ele>
        <time>2021-01-31 15:03:24</time>
      </trkpt>
      <trkpt lat="38.78342" lon="-0.18242">
        <ele>608</ele>
        <time>2021-01-31 15:03:25</time>
      </trkpt>
      <trkpt lat="38.78339" lon="-0.18246">
        <ele>609</ele>
        <time>2021-01-31 15:03:26</time>
      </trkpt>
      <trkpt lat="38.78336" lon="-0.18248">
        <ele>610</ele>
        <time>2021-01-31 15:03:27</time>
      </trkpt>
      <trkpt lat="38.78333" lon="-0.1825">
        <ele>611</ele>
        <time>2021-01-31 15:03:28</time>
      </trkpt>
      <trkpt lat="38.78331" lon="-0.18252">
        <ele>612</ele>
        <time>2021-01-31 15:03:29</time>
      </trkpt>
      <trkpt lat="38.78327" lon="-0.18253">
        <ele>612.8</ele>
        <time>2021-01-31 15:03:30</time>
      </trkpt>
      <trkpt lat="38.78324" lon="-0.18254">
        <ele>613.4</ele>
        <time>2021-01-31 15:03:31</time>
      </trkpt>
      <trkpt lat="38.78321" lon="-0.18255">
        <ele>613.4</ele>
        <time>2021-01-31 15:03:32</time>
      </trkpt>
      <trkpt lat="38.78318" lon="-0.18256">
        <ele>613.4</ele>
        <time>2021-01-31 15:03:33</time>
      </trkpt>
      <trkpt lat="38.78315" lon="-0.18258">
        <ele>613.2</ele>
        <time>2021-01-31 15:03:34</time>
      </trkpt>
      <trkpt lat="38.78311" lon="-0.1826">
        <ele>613.2</ele>
        <time>2021-01-31 15:03:35</time>
      </trkpt>
      <trkpt lat="38.78308" lon="-0.18262">
        <ele>613.2</ele>
        <time>2021-01-31 15:03:36</time>
      </trkpt>
      <trkpt lat="38.78305" lon="-0.18264">
        <ele>614</ele>
        <time>2021-01-31 15:03:37</time>
      </trkpt>
      <trkpt lat="38.78302" lon="-0.18265">
        <ele>614.2</ele>
        <time>2021-01-31 15:03:38</time>
      </trkpt>
      <trkpt lat="38.78299" lon="-0.18267">
        <ele>614.2</ele>
        <time>2021-01-31 15:03:39</time>
      </trkpt>
      <trkpt lat="38.78296" lon="-0.18269">
        <ele>614.4</ele>
        <time>2021-01-31 15:03:40</time>
      </trkpt>
      <trkpt lat="38.78293" lon="-0.1827">
        <ele>614.4</ele>
        <time>2021-01-31 15:03:41</time>
      </trkpt>
      <trkpt lat="38.7829" lon="-0.18272">
        <ele>614.4</ele>
        <time>2021-01-31 15:03:42</time>
      </trkpt>
      <trkpt lat="38.78287" lon="-0.18273">
        <ele>614.4</ele>
        <time>2021-01-31 15:03:43</time>
      </trkpt>
      <trkpt lat="38.78284" lon="-0.18274">
        <ele>615</ele>
        <time>2021-01-31 15:03:44</time>
      </trkpt>
      <trkpt lat="38.78281" lon="-0.18275">
        <ele>615.6</ele>
        <time>2021-01-31 15:03:45</time>
      </trkpt>
      <trkpt lat="38.78278" lon="-0.18276">
        <ele>615.6</ele>
        <time>2021-01-31 15:03:46</time>
      </trkpt>
      <trkpt lat="38.78275" lon="-0.18278">
        <ele>615.6</ele>
        <time>2021-01-31 15:03:47</time>
      </trkpt>
      <trkpt lat="38.78272" lon="-0.1828">
        <ele>615.6</ele>
        <time>2021-01-31 15:03:48</time>
      </trkpt>
      <trkpt lat="38.78269" lon="-0.18282">
        <ele>615.4</ele>
        <time>2021-01-31 15:03:49</time>
      </trkpt>
      <trkpt lat="38.78267" lon="-0.18284">
        <ele>615.4</ele>
        <time>2021-01-31 15:03:50</time>
      </trkpt>
      <trkpt lat="38.78264" lon="-0.18286">
        <ele>615.4</ele>
        <time>2021-01-31 15:03:51</time>
      </trkpt>
      <trkpt lat="38.78262" lon="-0.18287">
        <ele>615.6</ele>
        <time>2021-01-31 15:03:52</time>
      </trkpt>
      <trkpt lat="38.7826" lon="-0.1829">
        <ele>615.6</ele>
        <time>2021-01-31 15:03:53</time>
      </trkpt>
      <trkpt lat="38.78258" lon="-0.18292">
        <ele>615.6</ele>
        <time>2021-01-31 15:03:54</time>
      </trkpt>
      <trkpt lat="38.78256" lon="-0.18295">
        <ele>615.6</ele>
        <time>2021-01-31 15:03:55</time>
      </trkpt>
      <trkpt lat="38.78255" lon="-0.18297">
        <ele>615.6</ele>
        <time>2021-01-31 15:03:56</time>
      </trkpt>
      <trkpt lat="38.78253" lon="-0.183">
        <ele>615.6</ele>
        <time>2021-01-31 15:03:57</time>
      </trkpt>
      <trkpt lat="38.78252" lon="-0.18302">
        <ele>615.6</ele>
        <time>2021-01-31 15:03:58</time>
      </trkpt>
      <trkpt lat="38.7825" lon="-0.18305">
        <ele>615.8</ele>
        <time>2021-01-31 15:03:59</time>
      </trkpt>
      <trkpt lat="38.78248" lon="-0.18308">
        <ele>615.8</ele>
        <time>2021-01-31 15:04:00</time>
      </trkpt>
      <trkpt lat="38.78247" lon="-0.18311">
        <ele>615.8</ele>
        <time>2021-01-31 15:04:01</time>
      </trkpt>
      <trkpt lat="38.78245" lon="-0.18314">
        <ele>615.8</ele>
        <time>2021-01-31 15:04:02</time>
      </trkpt>
      <trkpt lat="38.78243" lon="-0.18316">
        <ele>616.8</ele>
        <time>2021-01-31 15:04:03</time>
      </trkpt>
      <trkpt lat="38.78241" lon="-0.18319">
        <ele>617.8</ele>
        <time>2021-01-31 15:04:04</time>
      </trkpt>
      <trkpt lat="38.78239" lon="-0.18322">
        <ele>618</ele>
        <time>2021-01-31 15:04:05</time>
      </trkpt>
      <trkpt lat="38.78237" lon="-0.18325">
        <ele>618</ele>
        <time>2021-01-31 15:04:06</time>
      </trkpt>
      <trkpt lat="38.78235" lon="-0.18327">
        <ele>618</ele>
        <time>2021-01-31 15:04:07</time>
      </trkpt>
      <trkpt lat="38.78232" lon="-0.18329">
        <ele>618</ele>
        <time>2021-01-31 15:04:08</time>
      </trkpt>
      <trkpt lat="38.7823" lon="-0.18331">
        <ele>618</ele>
        <time>2021-01-31 15:04:09</time>
      </trkpt>
      <trkpt lat="38.78228" lon="-0.18333">
        <ele>618</ele>
        <time>2021-01-31 15:04:10</time>
      </trkpt>
      <trkpt lat="38.78226" lon="-0.18335">
        <ele>619</ele>
        <time>2021-01-31 15:04:11</time>
      </trkpt>
      <trkpt lat="38.78223" lon="-0.18337">
        <ele>619.2</ele>
        <time>2021-01-31 15:04:12</time>
      </trkpt>
      <trkpt lat="38.78221" lon="-0.18339">
        <ele>619.2</ele>
        <time>2021-01-31 15:04:13</time>
      </trkpt>
      <trkpt lat="38.78219" lon="-0.18341">
        <ele>619.2</ele>
        <time>2021-01-31 15:04:14</time>
      </trkpt>
      <trkpt lat="38.78217" lon="-0.18344">
        <ele>618.6</ele>
        <time>2021-01-31 15:04:15</time>
      </trkpt>
      <trkpt lat="38.78215" lon="-0.18346">
        <ele>618.6</ele>
        <time>2021-01-31 15:04:16</time>
      </trkpt>
      <trkpt lat="38.78213" lon="-0.18349">
        <ele>618.6</ele>
        <time>2021-01-31 15:04:17</time>
      </trkpt>
      <trkpt lat="38.78212" lon="-0.18351">
        <ele>619.6</ele>
        <time>2021-01-31 15:04:18</time>
      </trkpt>
      <trkpt lat="38.7821" lon="-0.18353">
        <ele>620.6</ele>
        <time>2021-01-31 15:04:19</time>
      </trkpt>
      <trkpt lat="38.78208" lon="-0.18356">
        <ele>621.6</ele>
        <time>2021-01-31 15:04:20</time>
      </trkpt>
      <trkpt lat="38.78206" lon="-0.18358">
        <ele>621.6</ele>
        <time>2021-01-31 15:04:21</time>
      </trkpt>
      <trkpt lat="38.78205" lon="-0.18361">
        <ele>621.6</ele>
        <time>2021-01-31 15:04:22</time>
      </trkpt>
      <trkpt lat="38.78203" lon="-0.18363">
        <ele>621.6</ele>
        <time>2021-01-31 15:04:23</time>
      </trkpt>
      <trkpt lat="38.78201" lon="-0.18366">
        <ele>622.2</ele>
        <time>2021-01-31 15:04:24</time>
      </trkpt>
      <trkpt lat="38.78199" lon="-0.18369">
        <ele>622.2</ele>
        <time>2021-01-31 15:04:25</time>
      </trkpt>
      <trkpt lat="38.78197" lon="-0.18372">
        <ele>622.2</ele>
        <time>2021-01-31 15:04:26</time>
      </trkpt>
      <trkpt lat="38.78195" lon="-0.18375">
        <ele>621.2</ele>
        <time>2021-01-31 15:04:27</time>
      </trkpt>
      <trkpt lat="38.78193" lon="-0.18378">
        <ele>621.2</ele>
        <time>2021-01-31 15:04:28</time>
      </trkpt>
      <trkpt lat="38.7819" lon="-0.18381">
        <ele>621.2</ele>
        <time>2021-01-31 15:04:29</time>
      </trkpt>
      <trkpt lat="38.78188" lon="-0.18383">
        <ele>622.2</ele>
        <time>2021-01-31 15:04:30</time>
      </trkpt>
      <trkpt lat="38.78185" lon="-0.18386">
        <ele>622.2</ele>
        <time>2021-01-31 15:04:31</time>
      </trkpt>
      <trkpt lat="38.78183" lon="-0.18389">
        <ele>622.2</ele>
        <time>2021-01-31 15:04:32</time>
      </trkpt>
      <trkpt lat="38.7818" lon="-0.18392">
        <ele>622.2</ele>
        <time>2021-01-31 15:04:33</time>
      </trkpt>
      <trkpt lat="38.78178" lon="-0.18395">
        <ele>622.2</ele>
        <time>2021-01-31 15:04:34</time>
      </trkpt>
      <trkpt lat="38.78176" lon="-0.18397">
        <ele>621.6</ele>
        <time>2021-01-31 15:04:35</time>
      </trkpt>
      <trkpt lat="38.78173" lon="-0.184">
        <ele>621.4</ele>
        <time>2021-01-31 15:04:36</time>
      </trkpt>
      <trkpt lat="38.7817" lon="-0.18402">
        <ele>621.4</ele>
        <time>2021-01-31 15:04:37</time>
      </trkpt>
      <trkpt lat="38.78167" lon="-0.18405">
        <ele>621.4</ele>
        <time>2021-01-31 15:04:38</time>
      </trkpt>
      <trkpt lat="38.78164" lon="-0.18408">
        <ele>621.8</ele>
        <time>2021-01-31 15:04:39</time>
      </trkpt>
      <trkpt lat="38.78161" lon="-0.1841">
        <ele>622.2</ele>
        <time>2021-01-31 15:04:40</time>
      </trkpt>
      <trkpt lat="38.78157" lon="-0.18413">
        <ele>622.2</ele>
        <time>2021-01-31 15:04:41</time>
      </trkpt>
      <trkpt lat="38.78152" lon="-0.18415">
        <ele>622.2</ele>
        <time>2021-01-31 15:04:42</time>
      </trkpt>
      <trkpt lat="38.78147" lon="-0.18418">
        <ele>622.2</ele>
        <time>2021-01-31 15:04:43</time>
      </trkpt>
      <trkpt lat="38.78141" lon="-0.1842">
        <ele>622.2</ele>
        <time>2021-01-31 15:04:44</time>
      </trkpt>
      <trkpt lat="38.78136" lon="-0.18423">
        <ele>621.2</ele>
        <time>2021-01-31 15:04:45</time>
      </trkpt>
      <trkpt lat="38.7813" lon="-0.18424">
        <ele>620.2</ele>
        <time>2021-01-31 15:04:46</time>
      </trkpt>
      <trkpt lat="38.78124" lon="-0.18426">
        <ele>619.2</ele>
        <time>2021-01-31 15:04:47</time>
      </trkpt>
      <trkpt lat="38.78118" lon="-0.18427">
        <ele>619.2</ele>
        <time>2021-01-31 15:04:48</time>
      </trkpt>
      <trkpt lat="38.78112" lon="-0.18429">
        <ele>619.2</ele>
        <time>2021-01-31 15:04:49</time>
      </trkpt>
      <trkpt lat="38.78106" lon="-0.18432">
        <ele>620.2</ele>
        <time>2021-01-31 15:04:50</time>
      </trkpt>
      <trkpt lat="38.781" lon="-0.18434">
        <ele>621.2</ele>
        <time>2021-01-31 15:04:51</time>
      </trkpt>
      <trkpt lat="38.78095" lon="-0.18436">
        <ele>622.2</ele>
        <time>2021-01-31 15:04:52</time>
      </trkpt>
      <trkpt lat="38.7809" lon="-0.18438">
        <ele>622.6</ele>
        <time>2021-01-31 15:04:53</time>
      </trkpt>
      <trkpt lat="38.78085" lon="-0.1844">
        <ele>622.6</ele>
        <time>2021-01-31 15:04:54</time>
      </trkpt>
      <trkpt lat="38.7808" lon="-0.18442">
        <ele>622.6</ele>
        <time>2021-01-31 15:04:55</time>
      </trkpt>
      <trkpt lat="38.78075" lon="-0.18444">
        <ele>622.6</ele>
        <time>2021-01-31 15:04:56</time>
      </trkpt>
      <trkpt lat="38.78071" lon="-0.18446">
        <ele>622.6</ele>
        <time>2021-01-31 15:04:57</time>
      </trkpt>
      <trkpt lat="38.78066" lon="-0.18449">
        <ele>622.6</ele>
        <time>2021-01-31 15:04:58</time>
      </trkpt>
      <trkpt lat="38.78062" lon="-0.18452">
        <ele>622.6</ele>
        <time>2021-01-31 15:04:59</time>
      </trkpt>
      <trkpt lat="38.78057" lon="-0.18455">
        <ele>622.4</ele>
        <time>2021-01-31 15:05:00</time>
      </trkpt>
      <trkpt lat="38.78053" lon="-0.18457">
        <ele>622.4</ele>
        <time>2021-01-31 15:05:01</time>
      </trkpt>
      <trkpt lat="38.78048" lon="-0.1846">
        <ele>622.4</ele>
        <time>2021-01-31 15:05:02</time>
      </trkpt>
      <trkpt lat="38.78044" lon="-0.18463">
        <ele>622.4</ele>
        <time>2021-01-31 15:05:03</time>
      </trkpt>
      <trkpt lat="38.7804" lon="-0.18466">
        <ele>622.4</ele>
        <time>2021-01-31 15:05:04</time>
      </trkpt>
      <trkpt lat="38.78036" lon="-0.18469">
        <ele>623</ele>
        <time>2021-01-31 15:05:05</time>
      </trkpt>
      <trkpt lat="38.78032" lon="-0.18472">
        <ele>623</ele>
        <time>2021-01-31 15:05:06</time>
      </trkpt>
      <trkpt lat="38.78028" lon="-0.18474">
        <ele>623</ele>
        <time>2021-01-31 15:05:07</time>
      </trkpt>
      <trkpt lat="38.78023" lon="-0.18477">
        <ele>623</ele>
        <time>2021-01-31 15:05:08</time>
      </trkpt>
      <trkpt lat="38.78019" lon="-0.1848">
        <ele>623</ele>
        <time>2021-01-31 15:05:09</time>
      </trkpt>
      <trkpt lat="38.78014" lon="-0.18483">
        <ele>622.8</ele>
        <time>2021-01-31 15:05:10</time>
      </trkpt>
      <trkpt lat="38.78009" lon="-0.18486">
        <ele>622.8</ele>
        <time>2021-01-31 15:05:11</time>
      </trkpt>
      <trkpt lat="38.78004" lon="-0.18489">
        <ele>622.8</ele>
        <time>2021-01-31 15:05:12</time>
      </trkpt>
      <trkpt lat="38.77998" lon="-0.18493">
        <ele>622.8</ele>
        <time>2021-01-31 15:05:13</time>
      </trkpt>
      <trkpt lat="38.77993" lon="-0.18497">
        <ele>621.8</ele>
        <time>2021-01-31 15:05:14</time>
      </trkpt>
      <trkpt lat="38.77986" lon="-0.18502">
        <ele>621.6</ele>
        <time>2021-01-31 15:05:15</time>
      </trkpt>
      <trkpt lat="38.7798" lon="-0.18507">
        <ele>620.6</ele>
        <time>2021-01-31 15:05:16</time>
      </trkpt>
      <trkpt lat="38.77974" lon="-0.18512">
        <ele>619.8</ele>
        <time>2021-01-31 15:05:17</time>
      </trkpt>
      <trkpt lat="38.77968" lon="-0.18518">
        <ele>618.8</ele>
        <time>2021-01-31 15:05:18</time>
      </trkpt>
      <trkpt lat="38.77961" lon="-0.18524">
        <ele>618.8</ele>
        <time>2021-01-31 15:05:19</time>
      </trkpt>
      <trkpt lat="38.77954" lon="-0.18531">
        <ele>618.8</ele>
        <time>2021-01-31 15:05:20</time>
      </trkpt>
      <trkpt lat="38.77947" lon="-0.18537">
        <ele>618.8</ele>
        <time>2021-01-31 15:05:21</time>
      </trkpt>
      <trkpt lat="38.7794" lon="-0.18544">
        <ele>617.8</ele>
        <time>2021-01-31 15:05:22</time>
      </trkpt>
      <trkpt lat="38.77933" lon="-0.1855">
        <ele>616.8</ele>
        <time>2021-01-31 15:05:23</time>
      </trkpt>
      <trkpt lat="38.77925" lon="-0.18557">
        <ele>615.8</ele>
        <time>2021-01-31 15:05:24</time>
      </trkpt>
      <trkpt lat="38.77917" lon="-0.18563">
        <ele>615.6</ele>
        <time>2021-01-31 15:05:25</time>
      </trkpt>
      <trkpt lat="38.77909" lon="-0.1857">
        <ele>614.6</ele>
        <time>2021-01-31 15:05:26</time>
      </trkpt>
      <trkpt lat="38.779" lon="-0.18575">
        <ele>613.6</ele>
        <time>2021-01-31 15:05:27</time>
      </trkpt>
      <trkpt lat="38.7789" lon="-0.18579">
        <ele>612.6</ele>
        <time>2021-01-31 15:05:28</time>
      </trkpt>
      <trkpt lat="38.7788" lon="-0.1858">
        <ele>612.2</ele>
        <time>2021-01-31 15:05:29</time>
      </trkpt>
      <trkpt lat="38.77869" lon="-0.18581">
        <ele>612.2</ele>
        <time>2021-01-31 15:05:30</time>
      </trkpt>
      <trkpt lat="38.77859" lon="-0.18583">
        <ele>612.2</ele>
        <time>2021-01-31 15:05:31</time>
      </trkpt>
      <trkpt lat="38.77849" lon="-0.18585">
        <ele>612.2</ele>
        <time>2021-01-31 15:05:32</time>
      </trkpt>
      <trkpt lat="38.77838" lon="-0.18589">
        <ele>612.2</ele>
        <time>2021-01-31 15:05:33</time>
      </trkpt>
      <trkpt lat="38.77828" lon="-0.18594">
        <ele>611.2</ele>
        <time>2021-01-31 15:05:34</time>
      </trkpt>
      <trkpt lat="38.77819" lon="-0.18601">
        <ele>610.2</ele>
        <time>2021-01-31 15:05:35</time>
      </trkpt>
      <trkpt lat="38.7781" lon="-0.18609">
        <ele>610.2</ele>
        <time>2021-01-31 15:05:36</time>
      </trkpt>
      <trkpt lat="38.77802" lon="-0.18618">
        <ele>610.2</ele>
        <time>2021-01-31 15:05:37</time>
      </trkpt>
      <trkpt lat="38.77795" lon="-0.18628">
        <ele>610.2</ele>
        <time>2021-01-31 15:05:38</time>
      </trkpt>
      <trkpt lat="38.77788" lon="-0.18637">
        <ele>609.2</ele>
        <time>2021-01-31 15:05:39</time>
      </trkpt>
      <trkpt lat="38.77781" lon="-0.18647">
        <ele>608.2</ele>
        <time>2021-01-31 15:05:40</time>
      </trkpt>
      <trkpt lat="38.77775" lon="-0.18657">
        <ele>607.2</ele>
        <time>2021-01-31 15:05:41</time>
      </trkpt>
      <trkpt lat="38.7777" lon="-0.18666">
        <ele>606.8</ele>
        <time>2021-01-31 15:05:42</time>
      </trkpt>
      <trkpt lat="38.77765" lon="-0.18675">
        <ele>606</ele>
        <time>2021-01-31 15:05:43</time>
      </trkpt>
      <trkpt lat="38.7776" lon="-0.18685">
        <ele>605.2</ele>
        <time>2021-01-31 15:05:44</time>
      </trkpt>
      <trkpt lat="38.77755" lon="-0.18694">
        <ele>605.2</ele>
        <time>2021-01-31 15:05:45</time>
      </trkpt>
      <trkpt lat="38.77749" lon="-0.18702">
        <ele>605.2</ele>
        <time>2021-01-31 15:05:46</time>
      </trkpt>
      <trkpt lat="38.77741" lon="-0.18709">
        <ele>605.2</ele>
        <time>2021-01-31 15:05:47</time>
      </trkpt>
      <trkpt lat="38.77733" lon="-0.18715">
        <ele>605</ele>
        <time>2021-01-31 15:05:48</time>
      </trkpt>
      <trkpt lat="38.77723" lon="-0.1872">
        <ele>604</ele>
        <time>2021-01-31 15:05:49</time>
      </trkpt>
      <trkpt lat="38.77715" lon="-0.18724">
        <ele>603</ele>
        <time>2021-01-31 15:05:50</time>
      </trkpt>
      <trkpt lat="38.77706" lon="-0.1873">
        <ele>602.4</ele>
        <time>2021-01-31 15:05:51</time>
      </trkpt>
      <trkpt lat="38.77698" lon="-0.18736">
        <ele>601.8</ele>
        <time>2021-01-31 15:05:52</time>
      </trkpt>
      <trkpt lat="38.7769" lon="-0.18743">
        <ele>601.8</ele>
        <time>2021-01-31 15:05:53</time>
      </trkpt>
      <trkpt lat="38.77683" lon="-0.18752">
        <ele>601.8</ele>
        <time>2021-01-31 15:05:54</time>
      </trkpt>
      <trkpt lat="38.77676" lon="-0.1876">
        <ele>601.8</ele>
        <time>2021-01-31 15:05:55</time>
      </trkpt>
      <trkpt lat="38.7767" lon="-0.18769">
        <ele>600.8</ele>
        <time>2021-01-31 15:05:56</time>
      </trkpt>
      <trkpt lat="38.77663" lon="-0.18778">
        <ele>600.8</ele>
        <time>2021-01-31 15:05:57</time>
      </trkpt>
      <trkpt lat="38.77657" lon="-0.18787">
        <ele>600.8</ele>
        <time>2021-01-31 15:05:58</time>
      </trkpt>
      <trkpt lat="38.77651" lon="-0.18797">
        <ele>600.8</ele>
        <time>2021-01-31 15:05:59</time>
      </trkpt>
      <trkpt lat="38.77646" lon="-0.18806">
        <ele>599.8</ele>
        <time>2021-01-31 15:06:00</time>
      </trkpt>
      <trkpt lat="38.77641" lon="-0.18815">
        <ele>598.8</ele>
        <time>2021-01-31 15:06:01</time>
      </trkpt>
      <trkpt lat="38.77637" lon="-0.18825">
        <ele>598.2</ele>
        <time>2021-01-31 15:06:02</time>
      </trkpt>
      <trkpt lat="38.77633" lon="-0.18834">
        <ele>598.2</ele>
        <time>2021-01-31 15:06:03</time>
      </trkpt>
      <trkpt lat="38.7763" lon="-0.18843">
        <ele>597.4</ele>
        <time>2021-01-31 15:06:04</time>
      </trkpt>
      <trkpt lat="38.77626" lon="-0.18851">
        <ele>597.4</ele>
        <time>2021-01-31 15:06:05</time>
      </trkpt>
      <trkpt lat="38.77622" lon="-0.18859">
        <ele>597.4</ele>
        <time>2021-01-31 15:06:06</time>
      </trkpt>
      <trkpt lat="38.77618" lon="-0.18867">
        <ele>597.4</ele>
        <time>2021-01-31 15:06:07</time>
      </trkpt>
      <trkpt lat="38.77614" lon="-0.18875">
        <ele>597.4</ele>
        <time>2021-01-31 15:06:08</time>
      </trkpt>
      <trkpt lat="38.7761" lon="-0.18883">
        <ele>597.4</ele>
        <time>2021-01-31 15:06:09</time>
      </trkpt>
      <trkpt lat="38.77586" lon="-0.18926">
        <ele>596.6</ele>
        <time>2021-01-31 15:06:10</time>
      </trkpt>
      <trkpt lat="38.77586" lon="-0.18926">
        <ele>596.6</ele>
        <time>2021-01-31 15:06:11</time>
      </trkpt>
      <trkpt lat="38.77582" lon="-0.18932">
        <ele>596.6</ele>
        <time>2021-01-31 15:07:04</time>
      </trkpt>
      <trkpt lat="38.7758" lon="-0.18936">
        <ele>595.6</ele>
        <time>2021-01-31 15:07:05</time>
      </trkpt>
      <trkpt lat="38.77577" lon="-0.1894">
        <ele>594.6</ele>
        <time>2021-01-31 15:07:06</time>
      </trkpt>
      <trkpt lat="38.77574" lon="-0.18946">
        <ele>593.6</ele>
        <time>2021-01-31 15:07:07</time>
      </trkpt>
      <trkpt lat="38.7757" lon="-0.18952">
        <ele>593.6</ele>
        <time>2021-01-31 15:07:08</time>
      </trkpt>
      <trkpt lat="38.7757" lon="-0.18952">
        <ele>593.6</ele>
        <time>2021-01-31 15:07:09</time>
      </trkpt>
      <trkpt lat="38.7757" lon="-0.18952">
        <ele>593.6</ele>
        <time>2021-01-31 15:07:10</time>
      </trkpt>
      <trkpt lat="38.7757" lon="-0.18952">
        <ele>591.6</ele>
        <time>2021-01-31 15:07:11</time>
      </trkpt>
      <trkpt lat="38.77555" lon="-0.18983">
        <ele>591.6</ele>
        <time>2021-01-31 15:07:12</time>
      </trkpt>
      <trkpt lat="38.77551" lon="-0.18992">
        <ele>590.6</ele>
        <time>2021-01-31 15:07:13</time>
      </trkpt>
      <trkpt lat="38.77547" lon="-0.19001">
        <ele>590.6</ele>
        <time>2021-01-31 15:07:14</time>
      </trkpt>
      <trkpt lat="38.77547" lon="-0.19001">
        <ele>590.6</ele>
        <time>2021-01-31 15:07:15</time>
      </trkpt>
      <trkpt lat="38.77547" lon="-0.19001">
        <ele>590.6</ele>
        <time>2021-01-31 15:07:16</time>
      </trkpt>
      <trkpt lat="38.77547" lon="-0.19001">
        <ele>587.6</ele>
        <time>2021-01-31 15:07:17</time>
      </trkpt>
      <trkpt lat="38.77534" lon="-0.19041">
        <ele>587.6</ele>
        <time>2021-01-31 15:07:18</time>
      </trkpt>
      <trkpt lat="38.77531" lon="-0.19051">
        <ele>587.6</ele>
        <time>2021-01-31 15:07:19</time>
      </trkpt>
      <trkpt lat="38.77528" lon="-0.19061">
        <ele>587.6</ele>
        <time>2021-01-31 15:07:20</time>
      </trkpt>
      <trkpt lat="38.77524" lon="-0.19072">
        <ele>586.8</ele>
        <time>2021-01-31 15:07:21</time>
      </trkpt>
      <trkpt lat="38.77519" lon="-0.19081">
        <ele>586.6</ele>
        <time>2021-01-31 15:07:22</time>
      </trkpt>
      <trkpt lat="38.77514" lon="-0.1909">
        <ele>586.6</ele>
        <time>2021-01-31 15:07:23</time>
      </trkpt>
      <trkpt lat="38.77508" lon="-0.19099">
        <ele>586.6</ele>
        <time>2021-01-31 15:07:24</time>
      </trkpt>
      <trkpt lat="38.77501" lon="-0.19107">
        <ele>586.6</ele>
        <time>2021-01-31 15:07:25</time>
      </trkpt>
      <trkpt lat="38.77493" lon="-0.19113">
        <ele>585.6</ele>
        <time>2021-01-31 15:07:26</time>
      </trkpt>
      <trkpt lat="38.77485" lon="-0.19119">
        <ele>584.6</ele>
        <time>2021-01-31 15:07:27</time>
      </trkpt>
      <trkpt lat="38.77475" lon="-0.19124">
        <ele>583.6</ele>
        <time>2021-01-31 15:07:28</time>
      </trkpt>
      <trkpt lat="38.77465" lon="-0.1913">
        <ele>582.6</ele>
        <time>2021-01-31 15:07:29</time>
      </trkpt>
      <trkpt lat="38.77456" lon="-0.19137">
        <ele>581.6</ele>
        <time>2021-01-31 15:07:30</time>
      </trkpt>
      <trkpt lat="38.77447" lon="-0.19145">
        <ele>581</ele>
        <time>2021-01-31 15:07:31</time>
      </trkpt>
      <trkpt lat="38.77438" lon="-0.19152">
        <ele>580</ele>
        <time>2021-01-31 15:07:32</time>
      </trkpt>
      <trkpt lat="38.77428" lon="-0.19158">
        <ele>579</ele>
        <time>2021-01-31 15:07:33</time>
      </trkpt>
      <trkpt lat="38.77418" lon="-0.19165">
        <ele>578</ele>
        <time>2021-01-31 15:07:34</time>
      </trkpt>
      <trkpt lat="38.77408" lon="-0.19173">
        <ele>578</ele>
        <time>2021-01-31 15:07:35</time>
      </trkpt>
      <trkpt lat="38.77399" lon="-0.19179">
        <ele>578</ele>
        <time>2021-01-31 15:07:36</time>
      </trkpt>
      <trkpt lat="38.7739" lon="-0.19184">
        <ele>578</ele>
        <time>2021-01-31 15:07:37</time>
      </trkpt>
      <trkpt lat="38.77381" lon="-0.1919">
        <ele>579</ele>
        <time>2021-01-31 15:07:38</time>
      </trkpt>
      <trkpt lat="38.77375" lon="-0.19198">
        <ele>579</ele>
        <time>2021-01-31 15:07:39</time>
      </trkpt>
      <trkpt lat="38.77369" lon="-0.19207">
        <ele>579</ele>
        <time>2021-01-31 15:07:40</time>
      </trkpt>
      <trkpt lat="38.77363" lon="-0.19216">
        <ele>579</ele>
        <time>2021-01-31 15:07:41</time>
      </trkpt>
      <trkpt lat="38.77357" lon="-0.19224">
        <ele>579</ele>
        <time>2021-01-31 15:07:42</time>
      </trkpt>
      <trkpt lat="38.77352" lon="-0.19232">
        <ele>579</ele>
        <time>2021-01-31 15:07:43</time>
      </trkpt>
      <trkpt lat="38.77352" lon="-0.19232">
        <ele>579</ele>
        <time>2021-01-31 15:07:44</time>
      </trkpt>
      <trkpt lat="38.77352" lon="-0.19232">
        <ele>579</ele>
        <time>2021-01-31 15:07:45</time>
      </trkpt>
      <trkpt lat="38.77352" lon="-0.19232">
        <ele>578.8</ele>
        <time>2021-01-31 15:07:46</time>
      </trkpt>
      <trkpt lat="38.77331" lon="-0.19264">
        <ele>578.8</ele>
        <time>2021-01-31 15:07:47</time>
      </trkpt>
      <trkpt lat="38.77331" lon="-0.19264">
        <ele>578.8</ele>
        <time>2021-01-31 15:07:48</time>
      </trkpt>
      <trkpt lat="38.77331" lon="-0.19264">
        <ele>578.8</ele>
        <time>2021-01-31 15:07:49</time>
      </trkpt>
      <trkpt lat="38.77331" lon="-0.19264">
        <ele>575.8</ele>
        <time>2021-01-31 15:07:50</time>
      </trkpt>
      <trkpt lat="38.77306" lon="-0.19297">
        <ele>575.8</ele>
        <time>2021-01-31 15:07:51</time>
      </trkpt>
      <trkpt lat="38.773" lon="-0.19305">
        <ele>575.8</ele>
        <time>2021-01-31 15:07:52</time>
      </trkpt>
      <trkpt lat="38.77294" lon="-0.19314">
        <ele>575.8</ele>
        <time>2021-01-31 15:07:53</time>
      </trkpt>
      <trkpt lat="38.77288" lon="-0.19322">
        <ele>575.8</ele>
        <time>2021-01-31 15:07:54</time>
      </trkpt>
      <trkpt lat="38.77281" lon="-0.1933">
        <ele>574.8</ele>
        <time>2021-01-31 15:07:55</time>
      </trkpt>
      <trkpt lat="38.77274" lon="-0.19338">
        <ele>574.2</ele>
        <time>2021-01-31 15:07:56</time>
      </trkpt>
      <trkpt lat="38.77267" lon="-0.19345">
        <ele>574</ele>
        <time>2021-01-31 15:07:57</time>
      </trkpt>
      <trkpt lat="38.77259" lon="-0.19352">
        <ele>574</ele>
        <time>2021-01-31 15:07:58</time>
      </trkpt>
      <trkpt lat="38.7725" lon="-0.19357">
        <ele>574</ele>
        <time>2021-01-31 15:07:59</time>
      </trkpt>
      <trkpt lat="38.77241" lon="-0.19363">
        <ele>574</ele>
        <time>2021-01-31 15:08:00</time>
      </trkpt>
      <trkpt lat="38.77233" lon="-0.19368">
        <ele>573</ele>
        <time>2021-01-31 15:08:01</time>
      </trkpt>
      <trkpt lat="38.77224" lon="-0.19373">
        <ele>572.8</ele>
        <time>2021-01-31 15:08:02</time>
      </trkpt>
      <trkpt lat="38.77215" lon="-0.19378">
        <ele>571.8</ele>
        <time>2021-01-31 15:08:03</time>
      </trkpt>
      <trkpt lat="38.77207" lon="-0.19384">
        <ele>570.8</ele>
        <time>2021-01-31 15:08:04</time>
      </trkpt>
      <trkpt lat="38.77197" lon="-0.1939">
        <ele>569.8</ele>
        <time>2021-01-31 15:08:05</time>
      </trkpt>
      <trkpt lat="38.77188" lon="-0.19397">
        <ele>568.8</ele>
        <time>2021-01-31 15:08:06</time>
      </trkpt>
      <trkpt lat="38.77178" lon="-0.19404">
        <ele>567.8</ele>
        <time>2021-01-31 15:08:07</time>
      </trkpt>
      <trkpt lat="38.77169" lon="-0.19411">
        <ele>566.8</ele>
        <time>2021-01-31 15:08:08</time>
      </trkpt>
      <trkpt lat="38.77159" lon="-0.19417">
        <ele>565.8</ele>
        <time>2021-01-31 15:08:09</time>
      </trkpt>
      <trkpt lat="38.77149" lon="-0.19424">
        <ele>565.2</ele>
        <time>2021-01-31 15:08:10</time>
      </trkpt>
      <trkpt lat="38.77141" lon="-0.19431">
        <ele>565.2</ele>
        <time>2021-01-31 15:08:11</time>
      </trkpt>
      <trkpt lat="38.77133" lon="-0.1944">
        <ele>565.2</ele>
        <time>2021-01-31 15:08:12</time>
      </trkpt>
      <trkpt lat="38.77128" lon="-0.1945">
        <ele>565.2</ele>
        <time>2021-01-31 15:08:13</time>
      </trkpt>
      <trkpt lat="38.77123" lon="-0.19462">
        <ele>564.2</ele>
        <time>2021-01-31 15:08:14</time>
      </trkpt>
      <trkpt lat="38.77118" lon="-0.19471">
        <ele>564.2</ele>
        <time>2021-01-31 15:08:15</time>
      </trkpt>
      <trkpt lat="38.77118" lon="-0.19471">
        <ele>564.2</ele>
        <time>2021-01-31 15:08:16</time>
      </trkpt>
      <trkpt lat="38.77118" lon="-0.19471">
        <ele>564.2</ele>
        <time>2021-01-31 15:08:17</time>
      </trkpt>
      <trkpt lat="38.77118" lon="-0.19471">
        <ele>562.6</ele>
        <time>2021-01-31 15:08:18</time>
      </trkpt>
      <trkpt lat="38.77107" lon="-0.19509">
        <ele>562.6</ele>
        <time>2021-01-31 15:08:19</time>
      </trkpt>
      <trkpt lat="38.77107" lon="-0.19509">
        <ele>562.6</ele>
        <time>2021-01-31 15:08:20</time>
      </trkpt>
      <trkpt lat="38.77107" lon="-0.19509">
        <ele>562.6</ele>
        <time>2021-01-31 15:08:21</time>
      </trkpt>
      <trkpt lat="38.77107" lon="-0.19509">
        <ele>559.6</ele>
        <time>2021-01-31 15:08:22</time>
      </trkpt>
      <trkpt lat="38.77097" lon="-0.19548">
        <ele>558.6</ele>
        <time>2021-01-31 15:08:23</time>
      </trkpt>
      <trkpt lat="38.77094" lon="-0.19557">
        <ele>557.6</ele>
        <time>2021-01-31 15:08:24</time>
      </trkpt>
      <trkpt lat="38.7709" lon="-0.19565">
        <ele>556.6</ele>
        <time>2021-01-31 15:08:25</time>
      </trkpt>
      <trkpt lat="38.77084" lon="-0.19571">
        <ele>555.6</ele>
        <time>2021-01-31 15:08:26</time>
      </trkpt>
      <trkpt lat="38.77077" lon="-0.19575">
        <ele>554.6</ele>
        <time>2021-01-31 15:08:27</time>
      </trkpt>
      <trkpt lat="38.7707" lon="-0.19578">
        <ele>553.6</ele>
        <time>2021-01-31 15:08:28</time>
      </trkpt>
      <trkpt lat="38.77061" lon="-0.19578">
        <ele>552.6</ele>
        <time>2021-01-31 15:08:29</time>
      </trkpt>
      <trkpt lat="38.77053" lon="-0.19576">
        <ele>551.6</ele>
        <time>2021-01-31 15:08:30</time>
      </trkpt>
      <trkpt lat="38.77044" lon="-0.19572">
        <ele>550.6</ele>
        <time>2021-01-31 15:08:31</time>
      </trkpt>
      <trkpt lat="38.77035" lon="-0.19568">
        <ele>549.6</ele>
        <time>2021-01-31 15:08:32</time>
      </trkpt>
      <trkpt lat="38.77026" lon="-0.19565">
        <ele>548.6</ele>
        <time>2021-01-31 15:08:33</time>
      </trkpt>
      <trkpt lat="38.77017" lon="-0.19561">
        <ele>547.6</ele>
        <time>2021-01-31 15:08:34</time>
      </trkpt>
      <trkpt lat="38.77008" lon="-0.19558">
        <ele>546.6</ele>
        <time>2021-01-31 15:08:35</time>
      </trkpt>
      <trkpt lat="38.76999" lon="-0.19553">
        <ele>545.6</ele>
        <time>2021-01-31 15:08:36</time>
      </trkpt>
      <trkpt lat="38.76992" lon="-0.19546">
        <ele>545.6</ele>
        <time>2021-01-31 15:08:37</time>
      </trkpt>
      <trkpt lat="38.76988" lon="-0.19537">
        <ele>545.6</ele>
        <time>2021-01-31 15:08:38</time>
      </trkpt>
      <trkpt lat="38.76984" lon="-0.19528">
        <ele>545.6</ele>
        <time>2021-01-31 15:08:39</time>
      </trkpt>
      <trkpt lat="38.76981" lon="-0.19518">
        <ele>545.6</ele>
        <time>2021-01-31 15:08:40</time>
      </trkpt>
      <trkpt lat="38.76977" lon="-0.19508">
        <ele>545</ele>
        <time>2021-01-31 15:08:41</time>
      </trkpt>
      <trkpt lat="38.76973" lon="-0.19499">
        <ele>545</ele>
        <time>2021-01-31 15:08:42</time>
      </trkpt>
      <trkpt lat="38.76973" lon="-0.19499">
        <ele>545</ele>
        <time>2021-01-31 15:08:43</time>
      </trkpt>
      <trkpt lat="38.76973" lon="-0.19499">
        <ele>545</ele>
        <time>2021-01-31 15:08:44</time>
      </trkpt>
      <trkpt lat="38.76973" lon="-0.19499">
        <ele>544</ele>
        <time>2021-01-31 15:08:45</time>
      </trkpt>
      <trkpt lat="38.76953" lon="-0.1947">
        <ele>544</ele>
        <time>2021-01-31 15:08:46</time>
      </trkpt>
      <trkpt lat="38.76947" lon="-0.19465">
        <ele>544</ele>
        <time>2021-01-31 15:08:47</time>
      </trkpt>
      <trkpt lat="38.7694" lon="-0.1946">
        <ele>545</ele>
        <time>2021-01-31 15:08:48</time>
      </trkpt>
      <trkpt lat="38.76933" lon="-0.19455">
        <ele>545</ele>
        <time>2021-01-31 15:08:49</time>
      </trkpt>
      <trkpt lat="38.76926" lon="-0.1945">
        <ele>545</ele>
        <time>2021-01-31 15:08:50</time>
      </trkpt>
      <trkpt lat="38.76918" lon="-0.19445">
        <ele>544</ele>
        <time>2021-01-31 15:08:51</time>
      </trkpt>
      <trkpt lat="38.7691" lon="-0.19441">
        <ele>543</ele>
        <time>2021-01-31 15:08:52</time>
      </trkpt>
      <trkpt lat="38.76902" lon="-0.19437">
        <ele>543</ele>
        <time>2021-01-31 15:08:53</time>
      </trkpt>
      <trkpt lat="38.76902" lon="-0.19437">
        <ele>543</ele>
        <time>2021-01-31 15:08:54</time>
      </trkpt>
      <trkpt lat="38.76902" lon="-0.19437">
        <ele>543</ele>
        <time>2021-01-31 15:08:55</time>
      </trkpt>
      <trkpt lat="38.76902" lon="-0.19437">
        <ele>539</ele>
        <time>2021-01-31 15:08:56</time>
      </trkpt>
      <trkpt lat="38.76872" lon="-0.19432">
        <ele>538</ele>
        <time>2021-01-31 15:08:57</time>
      </trkpt>
      <trkpt lat="38.76866" lon="-0.19434">
        <ele>538</ele>
        <time>2021-01-31 15:08:58</time>
      </trkpt>
      <trkpt lat="38.76859" lon="-0.19437">
        <ele>538</ele>
        <time>2021-01-31 15:08:59</time>
      </trkpt>
      <trkpt lat="38.76853" lon="-0.19441">
        <ele>538</ele>
        <time>2021-01-31 15:09:00</time>
      </trkpt>
      <trkpt lat="38.76848" lon="-0.19445">
        <ele>538</ele>
        <time>2021-01-31 15:09:01</time>
      </trkpt>
      <trkpt lat="38.76842" lon="-0.19449">
        <ele>538</ele>
        <time>2021-01-31 15:09:02</time>
      </trkpt>
      <trkpt lat="38.76837" lon="-0.19454">
        <ele>538</ele>
        <time>2021-01-31 15:09:03</time>
      </trkpt>
      <trkpt lat="38.76832" lon="-0.1946">
        <ele>539</ele>
        <time>2021-01-31 15:09:04</time>
      </trkpt>
      <trkpt lat="38.76828" lon="-0.19466">
        <ele>540</ele>
        <time>2021-01-31 15:09:05</time>
      </trkpt>
      <trkpt lat="38.76823" lon="-0.19472">
        <ele>540</ele>
        <time>2021-01-31 15:09:06</time>
      </trkpt>
      <trkpt lat="38.76818" lon="-0.19477">
        <ele>540</ele>
        <time>2021-01-31 15:09:07</time>
      </trkpt>
      <trkpt lat="38.76813" lon="-0.19483">
        <ele>539</ele>
        <time>2021-01-31 15:09:08</time>
      </trkpt>
      <trkpt lat="38.76808" lon="-0.19488">
        <ele>538</ele>
        <time>2021-01-31 15:09:09</time>
      </trkpt>
      <trkpt lat="38.76802" lon="-0.19493">
        <ele>538</ele>
        <time>2021-01-31 15:09:10</time>
      </trkpt>
      <trkpt lat="38.76796" lon="-0.19498">
        <ele>538</ele>
        <time>2021-01-31 15:09:11</time>
      </trkpt>
      <trkpt lat="38.76791" lon="-0.19503">
        <ele>538</ele>
        <time>2021-01-31 15:09:12</time>
      </trkpt>
      <trkpt lat="38.76791" lon="-0.19503">
        <ele>538</ele>
        <time>2021-01-31 15:09:13</time>
      </trkpt>
      <trkpt lat="38.76791" lon="-0.19503">
        <ele>538</ele>
        <time>2021-01-31 15:09:14</time>
      </trkpt>
      <trkpt lat="38.76791" lon="-0.19503">
        <ele>537.6</ele>
        <time>2021-01-31 15:09:15</time>
      </trkpt>
      <trkpt lat="38.76766" lon="-0.19523">
        <ele>536.6</ele>
        <time>2021-01-31 15:09:16</time>
      </trkpt>
      <trkpt lat="38.7676" lon="-0.19529">
        <ele>536.6</ele>
        <time>2021-01-31 15:09:17</time>
      </trkpt>
      <trkpt lat="38.76753" lon="-0.19534">
        <ele>536.6</ele>
        <time>2021-01-31 15:09:18</time>
      </trkpt>
      <trkpt lat="38.76746" lon="-0.19538">
        <ele>537</ele>
        <time>2021-01-31 15:09:19</time>
      </trkpt>
      <trkpt lat="38.76737" lon="-0.19543">
        <ele>537</ele>
        <time>2021-01-31 15:09:20</time>
      </trkpt>
      <trkpt lat="38.76729" lon="-0.19547">
        <ele>537</ele>
        <time>2021-01-31 15:09:21</time>
      </trkpt>
      <trkpt lat="38.76721" lon="-0.1955">
        <ele>537</ele>
        <time>2021-01-31 15:09:22</time>
      </trkpt>
      <trkpt lat="38.76713" lon="-0.19553">
        <ele>537</ele>
        <time>2021-01-31 15:09:23</time>
      </trkpt>
      <trkpt lat="38.76705" lon="-0.19556">
        <ele>537</ele>
        <time>2021-01-31 15:09:24</time>
      </trkpt>
      <trkpt lat="38.76697" lon="-0.19559">
        <ele>537.2</ele>
        <time>2021-01-31 15:09:25</time>
      </trkpt>
      <trkpt lat="38.7669" lon="-0.19562">
        <ele>537.2</ele>
        <time>2021-01-31 15:09:26</time>
      </trkpt>
      <trkpt lat="38.7669" lon="-0.19562">
        <ele>537.2</ele>
        <time>2021-01-31 15:09:27</time>
      </trkpt>
      <trkpt lat="38.7669" lon="-0.19562">
        <ele>537.2</ele>
        <time>2021-01-31 15:09:28</time>
      </trkpt>
      <trkpt lat="38.7669" lon="-0.19562">
        <ele>536.6</ele>
        <time>2021-01-31 15:09:29</time>
      </trkpt>
      <trkpt lat="38.76654" lon="-0.1956">
        <ele>535.6</ele>
        <time>2021-01-31 15:09:30</time>
      </trkpt>
      <trkpt lat="38.76644" lon="-0.19556">
        <ele>534.6</ele>
        <time>2021-01-31 15:09:31</time>
      </trkpt>
      <trkpt lat="38.76633" lon="-0.1955">
        <ele>533.6</ele>
        <time>2021-01-31 15:09:32</time>
      </trkpt>
      <trkpt lat="38.76624" lon="-0.19543">
        <ele>532.6</ele>
        <time>2021-01-31 15:09:33</time>
      </trkpt>
      <trkpt lat="38.76615" lon="-0.19535">
        <ele>531.6</ele>
        <time>2021-01-31 15:09:34</time>
      </trkpt>
      <trkpt lat="38.76608" lon="-0.19524">
        <ele>530.6</ele>
        <time>2021-01-31 15:09:35</time>
      </trkpt>
      <trkpt lat="38.76603" lon="-0.19512">
        <ele>529.6</ele>
        <time>2021-01-31 15:09:36</time>
      </trkpt>
      <trkpt lat="38.766" lon="-0.19498">
        <ele>529.6</ele>
        <time>2021-01-31 15:09:37</time>
      </trkpt>
      <trkpt lat="38.766" lon="-0.19498">
        <ele>529.6</ele>
        <time>2021-01-31 15:09:38</time>
      </trkpt>
      <trkpt lat="38.766" lon="-0.19498">
        <ele>529.6</ele>
        <time>2021-01-31 15:09:39</time>
      </trkpt>
      <trkpt lat="38.766" lon="-0.19498">
        <ele>528.2</ele>
        <time>2021-01-31 15:09:40</time>
      </trkpt>
      <trkpt lat="38.76593" lon="-0.19444">
        <ele>529.2</ele>
        <time>2021-01-31 15:09:41</time>
      </trkpt>
      <trkpt lat="38.76592" lon="-0.19431">
        <ele>529.6</ele>
        <time>2021-01-31 15:09:42</time>
      </trkpt>
      <trkpt lat="38.7659" lon="-0.19419">
        <ele>530.2</ele>
        <time>2021-01-31 15:09:43</time>
      </trkpt>
      <trkpt lat="38.76588" lon="-0.19407">
        <ele>530.2</ele>
        <time>2021-01-31 15:09:44</time>
      </trkpt>
      <trkpt lat="38.76585" lon="-0.19395">
        <ele>530.2</ele>
        <time>2021-01-31 15:09:45</time>
      </trkpt>
      <trkpt lat="38.76582" lon="-0.19384">
        <ele>529.2</ele>
        <time>2021-01-31 15:09:46</time>
      </trkpt>
      <trkpt lat="38.76578" lon="-0.19373">
        <ele>528.2</ele>
        <time>2021-01-31 15:09:47</time>
      </trkpt>
      <trkpt lat="38.76575" lon="-0.19362">
        <ele>528.2</ele>
        <time>2021-01-31 15:09:48</time>
      </trkpt>
      <trkpt lat="38.7657" lon="-0.19351">
        <ele>528.2</ele>
        <time>2021-01-31 15:09:49</time>
      </trkpt>
      <trkpt lat="38.76565" lon="-0.19341">
        <ele>528.2</ele>
        <time>2021-01-31 15:09:50</time>
      </trkpt>
      <trkpt lat="38.7656" lon="-0.1933">
        <ele>528.2</ele>
        <time>2021-01-31 15:09:51</time>
      </trkpt>
      <trkpt lat="38.76555" lon="-0.1932">
        <ele>527.2</ele>
        <time>2021-01-31 15:09:52</time>
      </trkpt>
      <trkpt lat="38.76549" lon="-0.1931">
        <ele>526.2</ele>
        <time>2021-01-31 15:09:53</time>
      </trkpt>
      <trkpt lat="38.76543" lon="-0.193">
        <ele>526.2</ele>
        <time>2021-01-31 15:09:54</time>
      </trkpt>
      <trkpt lat="38.76536" lon="-0.19293">
        <ele>526.2</ele>
        <time>2021-01-31 15:09:55</time>
      </trkpt>
      <trkpt lat="38.76529" lon="-0.19287">
        <ele>527.2</ele>
        <time>2021-01-31 15:09:56</time>
      </trkpt>
      <trkpt lat="38.7652" lon="-0.19283">
        <ele>528.2</ele>
        <time>2021-01-31 15:09:57</time>
      </trkpt>
      <trkpt lat="38.76512" lon="-0.19282">
        <ele>529</ele>
        <time>2021-01-31 15:09:58</time>
      </trkpt>
      <trkpt lat="38.76503" lon="-0.19283">
        <ele>529</ele>
        <time>2021-01-31 15:09:59</time>
      </trkpt>
      <trkpt lat="38.76495" lon="-0.19285">
        <ele>529</ele>
        <time>2021-01-31 15:10:00</time>
      </trkpt>
      <trkpt lat="38.76487" lon="-0.19286">
        <ele>529</ele>
        <time>2021-01-31 15:10:01</time>
      </trkpt>
      <trkpt lat="38.76478" lon="-0.19286">
        <ele>529</ele>
        <time>2021-01-31 15:10:02</time>
      </trkpt>
      <trkpt lat="38.76478" lon="-0.19286">
        <ele>529</ele>
        <time>2021-01-31 15:10:03</time>
      </trkpt>
      <trkpt lat="38.76478" lon="-0.19286">
        <ele>529</ele>
        <time>2021-01-31 15:10:04</time>
      </trkpt>
      <trkpt lat="38.76478" lon="-0.19286">
        <ele>530</ele>
        <time>2021-01-31 15:10:05</time>
      </trkpt>
      <trkpt lat="38.76444" lon="-0.19284">
        <ele>530</ele>
        <time>2021-01-31 15:10:06</time>
      </trkpt>
      <trkpt lat="38.76435" lon="-0.19284">
        <ele>530</ele>
        <time>2021-01-31 15:10:07</time>
      </trkpt>
      <trkpt lat="38.76427" lon="-0.19287">
        <ele>530</ele>
        <time>2021-01-31 15:10:08</time>
      </trkpt>
      <trkpt lat="38.76419" lon="-0.19291">
        <ele>530</ele>
        <time>2021-01-31 15:10:09</time>
      </trkpt>
      <trkpt lat="38.76411" lon="-0.19295">
        <ele>529</ele>
        <time>2021-01-31 15:10:10</time>
      </trkpt>
      <trkpt lat="38.76403" lon="-0.19299">
        <ele>528</ele>
        <time>2021-01-31 15:10:11</time>
      </trkpt>
      <trkpt lat="38.76395" lon="-0.19305">
        <ele>527</ele>
        <time>2021-01-31 15:10:12</time>
      </trkpt>
      <trkpt lat="38.76387" lon="-0.1931">
        <ele>526</ele>
        <time>2021-01-31 15:10:13</time>
      </trkpt>
      <trkpt lat="38.76378" lon="-0.19314">
        <ele>525</ele>
        <time>2021-01-31 15:10:14</time>
      </trkpt>
      <trkpt lat="38.76369" lon="-0.19318">
        <ele>524</ele>
        <time>2021-01-31 15:10:15</time>
      </trkpt>
      <trkpt lat="38.76359" lon="-0.19322">
        <ele>523</ele>
        <time>2021-01-31 15:10:16</time>
      </trkpt>
      <trkpt lat="38.76349" lon="-0.19325">
        <ele>522</ele>
        <time>2021-01-31 15:10:17</time>
      </trkpt>
      <trkpt lat="38.76341" lon="-0.19327">
        <ele>521</ele>
        <time>2021-01-31 15:10:18</time>
      </trkpt>
      <trkpt lat="38.76332" lon="-0.19328">
        <ele>520</ele>
        <time>2021-01-31 15:10:19</time>
      </trkpt>
      <trkpt lat="38.76325" lon="-0.19325">
        <ele>520</ele>
        <time>2021-01-31 15:10:20</time>
      </trkpt>
      <trkpt lat="38.76315" lon="-0.19319">
        <ele>520</ele>
        <time>2021-01-31 15:10:21</time>
      </trkpt>
      <trkpt lat="38.7631" lon="-0.19311">
        <ele>520</ele>
        <time>2021-01-31 15:10:22</time>
      </trkpt>
      <trkpt lat="38.76302" lon="-0.19302">
        <ele>519.6</ele>
        <time>2021-01-31 15:10:23</time>
      </trkpt>
      <trkpt lat="38.76297" lon="-0.19292">
        <ele>519.6</ele>
        <time>2021-01-31 15:10:24</time>
      </trkpt>
      <trkpt lat="38.76293" lon="-0.19282">
        <ele>519.6</ele>
        <time>2021-01-31 15:10:25</time>
      </trkpt>
      <trkpt lat="38.76291" lon="-0.1927">
        <ele>519.6</ele>
        <time>2021-01-31 15:10:26</time>
      </trkpt>
      <trkpt lat="38.76288" lon="-0.19258">
        <ele>519.6</ele>
        <time>2021-01-31 15:10:27</time>
      </trkpt>
      <trkpt lat="38.76286" lon="-0.19246">
        <ele>518.6</ele>
        <time>2021-01-31 15:10:28</time>
      </trkpt>
      <trkpt lat="38.76284" lon="-0.19233">
        <ele>517.6</ele>
        <time>2021-01-31 15:10:29</time>
      </trkpt>
      <trkpt lat="38.76283" lon="-0.19219">
        <ele>517.6</ele>
        <time>2021-01-31 15:10:30</time>
      </trkpt>
      <trkpt lat="38.76283" lon="-0.19219">
        <ele>517.6</ele>
        <time>2021-01-31 15:10:31</time>
      </trkpt>
      <trkpt lat="38.76283" lon="-0.19219">
        <ele>517.6</ele>
        <time>2021-01-31 15:10:32</time>
      </trkpt>
      <trkpt lat="38.76283" lon="-0.19219">
        <ele>517.6</ele>
        <time>2021-01-31 15:10:33</time>
      </trkpt>
      <trkpt lat="38.76283" lon="-0.19219">
        <ele>516.6</ele>
        <time>2021-01-31 15:10:34</time>
      </trkpt>
      <trkpt lat="38.76291" lon="-0.19155">
        <ele>515.6</ele>
        <time>2021-01-31 15:10:35</time>
      </trkpt>
      <trkpt lat="38.76293" lon="-0.19142">
        <ele>514.6</ele>
        <time>2021-01-31 15:10:36</time>
      </trkpt>
      <trkpt lat="38.76296" lon="-0.1913">
        <ele>514.4</ele>
        <time>2021-01-31 15:10:37</time>
      </trkpt>
      <trkpt lat="38.76299" lon="-0.19118">
        <ele>514.2</ele>
        <time>2021-01-31 15:10:38</time>
      </trkpt>
      <trkpt lat="38.76302" lon="-0.19107">
        <ele>514.2</ele>
        <time>2021-01-31 15:10:39</time>
      </trkpt>
      <trkpt lat="38.76306" lon="-0.19096">
        <ele>514.2</ele>
        <time>2021-01-31 15:10:40</time>
      </trkpt>
      <trkpt lat="38.76309" lon="-0.19085">
        <ele>515.2</ele>
        <time>2021-01-31 15:10:41</time>
      </trkpt>
      <trkpt lat="38.76312" lon="-0.19075">
        <ele>516.2</ele>
        <time>2021-01-31 15:10:42</time>
      </trkpt>
      <trkpt lat="38.76314" lon="-0.19065">
        <ele>517.2</ele>
        <time>2021-01-31 15:10:43</time>
      </trkpt>
      <trkpt lat="38.76316" lon="-0.19056">
        <ele>518.2</ele>
        <time>2021-01-31 15:10:44</time>
      </trkpt>
      <trkpt lat="38.76319" lon="-0.19047">
        <ele>519.2</ele>
        <time>2021-01-31 15:10:45</time>
      </trkpt>
      <trkpt lat="38.76321" lon="-0.19037">
        <ele>520.2</ele>
        <time>2021-01-31 15:10:46</time>
      </trkpt>
      <trkpt lat="38.76322" lon="-0.19028">
        <ele>521.2</ele>
        <time>2021-01-31 15:10:47</time>
      </trkpt>
      <trkpt lat="38.76324" lon="-0.19019">
        <ele>522.2</ele>
        <time>2021-01-31 15:10:48</time>
      </trkpt>
      <trkpt lat="38.76326" lon="-0.1901">
        <ele>522.2</ele>
        <time>2021-01-31 15:10:49</time>
      </trkpt>
      <trkpt lat="38.76327" lon="-0.19001">
        <ele>522.6</ele>
        <time>2021-01-31 15:10:50</time>
      </trkpt>
      <trkpt lat="38.76328" lon="-0.18993">
        <ele>522.6</ele>
        <time>2021-01-31 15:10:51</time>
      </trkpt>
      <trkpt lat="38.76329" lon="-0.18984">
        <ele>522.6</ele>
        <time>2021-01-31 15:10:52</time>
      </trkpt>
      <trkpt lat="38.76329" lon="-0.18975">
        <ele>522.6</ele>
        <time>2021-01-31 15:10:53</time>
      </trkpt>
      <trkpt lat="38.76329" lon="-0.18965">
        <ele>522.2</ele>
        <time>2021-01-31 15:10:54</time>
      </trkpt>
      <trkpt lat="38.76329" lon="-0.18956">
        <ele>522.2</ele>
        <time>2021-01-31 15:10:55</time>
      </trkpt>
      <trkpt lat="38.76329" lon="-0.18947">
        <ele>522.2</ele>
        <time>2021-01-31 15:10:56</time>
      </trkpt>
      <trkpt lat="38.76329" lon="-0.18947">
        <ele>522.2</ele>
        <time>2021-01-31 15:10:57</time>
      </trkpt>
      <trkpt lat="38.76329" lon="-0.18947">
        <ele>522.2</ele>
        <time>2021-01-31 15:10:58</time>
      </trkpt>
      <trkpt lat="38.76329" lon="-0.18947">
        <ele>522.2</ele>
        <time>2021-01-31 15:10:59</time>
      </trkpt>
      <trkpt lat="38.76324" lon="-0.18909">
        <ele>522.2</ele>
        <time>2021-01-31 15:11:00</time>
      </trkpt>
      <trkpt lat="38.76323" lon="-0.189">
        <ele>521.8</ele>
        <time>2021-01-31 15:11:01</time>
      </trkpt>
      <trkpt lat="38.76322" lon="-0.18891">
        <ele>521.6</ele>
        <time>2021-01-31 15:11:02</time>
      </trkpt>
      <trkpt lat="38.76321" lon="-0.18882">
        <ele>520.8</ele>
        <time>2021-01-31 15:11:03</time>
      </trkpt>
      <trkpt lat="38.7632" lon="-0.18873">
        <ele>520.8</ele>
        <time>2021-01-31 15:11:04</time>
      </trkpt>
      <trkpt lat="38.76319" lon="-0.18865">
        <ele>520.8</ele>
        <time>2021-01-31 15:11:05</time>
      </trkpt>
      <trkpt lat="38.76318" lon="-0.18857">
        <ele>520.8</ele>
        <time>2021-01-31 15:11:06</time>
      </trkpt>
      <trkpt lat="38.76316" lon="-0.18849">
        <ele>520.8</ele>
        <time>2021-01-31 15:11:07</time>
      </trkpt>
      <trkpt lat="38.76314" lon="-0.18841">
        <ele>520.8</ele>
        <time>2021-01-31 15:11:08</time>
      </trkpt>
      <trkpt lat="38.76312" lon="-0.18833">
        <ele>520.8</ele>
        <time>2021-01-31 15:11:09</time>
      </trkpt>
      <trkpt lat="38.76309" lon="-0.18825">
        <ele>520.8</ele>
        <time>2021-01-31 15:11:10</time>
      </trkpt>
      <trkpt lat="38.76307" lon="-0.18817">
        <ele>519.8</ele>
        <time>2021-01-31 15:11:11</time>
      </trkpt>
      <trkpt lat="38.76305" lon="-0.18809">
        <ele>518.8</ele>
        <time>2021-01-31 15:11:12</time>
      </trkpt>
      <trkpt lat="38.76303" lon="-0.18802">
        <ele>518.8</ele>
        <time>2021-01-31 15:11:13</time>
      </trkpt>
      <trkpt lat="38.76299" lon="-0.18794">
        <ele>518.8</ele>
        <time>2021-01-31 15:11:14</time>
      </trkpt>
      <trkpt lat="38.76296" lon="-0.18786">
        <ele>518.8</ele>
        <time>2021-01-31 15:11:15</time>
      </trkpt>
      <trkpt lat="38.76292" lon="-0.18779">
        <ele>518.8</ele>
        <time>2021-01-31 15:11:16</time>
      </trkpt>
      <trkpt lat="38.76288" lon="-0.18772">
        <ele>518.2</ele>
        <time>2021-01-31 15:11:17</time>
      </trkpt>
      <trkpt lat="38.76284" lon="-0.18765">
        <ele>517.8</ele>
        <time>2021-01-31 15:11:18</time>
      </trkpt>
      <trkpt lat="38.76279" lon="-0.18758">
        <ele>517.8</ele>
        <time>2021-01-31 15:11:19</time>
      </trkpt>
      <trkpt lat="38.76275" lon="-0.18752">
        <ele>517.8</ele>
        <time>2021-01-31 15:11:20</time>
      </trkpt>
      <trkpt lat="38.7627" lon="-0.18746">
        <ele>517.8</ele>
        <time>2021-01-31 15:11:21</time>
      </trkpt>
      <trkpt lat="38.76265" lon="-0.1874">
        <ele>517.8</ele>
        <time>2021-01-31 15:11:22</time>
      </trkpt>
      <trkpt lat="38.76265" lon="-0.1874">
        <ele>517.8</ele>
        <time>2021-01-31 15:11:23</time>
      </trkpt>
      <trkpt lat="38.76265" lon="-0.1874">
        <ele>517.8</ele>
        <time>2021-01-31 15:11:24</time>
      </trkpt>
      <trkpt lat="38.76265" lon="-0.1874">
        <ele>515.8</ele>
        <time>2021-01-31 15:11:25</time>
      </trkpt>
      <trkpt lat="38.76242" lon="-0.18722">
        <ele>515.8</ele>
        <time>2021-01-31 15:11:26</time>
      </trkpt>
      <trkpt lat="38.76237" lon="-0.18717">
        <ele>516.6</ele>
        <time>2021-01-31 15:11:27</time>
      </trkpt>
      <trkpt lat="38.7623" lon="-0.18716">
        <ele>516.6</ele>
        <time>2021-01-31 15:11:28</time>
      </trkpt>
      <trkpt lat="38.76224" lon="-0.18717">
        <ele>516.6</ele>
        <time>2021-01-31 15:11:29</time>
      </trkpt>
      <trkpt lat="38.76218" lon="-0.18718">
        <ele>515.6</ele>
        <time>2021-01-31 15:11:30</time>
      </trkpt>
      <trkpt lat="38.76213" lon="-0.18721">
        <ele>515.6</ele>
        <time>2021-01-31 15:11:31</time>
      </trkpt>
      <trkpt lat="38.76209" lon="-0.18725">
        <ele>515.6</ele>
        <time>2021-01-31 15:11:32</time>
      </trkpt>
      <trkpt lat="38.76205" lon="-0.18729">
        <ele>516.6</ele>
        <time>2021-01-31 15:11:33</time>
      </trkpt>
      <trkpt lat="38.762" lon="-0.18733">
        <ele>517.6</ele>
        <time>2021-01-31 15:11:34</time>
      </trkpt>
      <trkpt lat="38.76196" lon="-0.18738">
        <ele>517.6</ele>
        <time>2021-01-31 15:11:35</time>
      </trkpt>
      <trkpt lat="38.76191" lon="-0.18743">
        <ele>517.6</ele>
        <time>2021-01-31 15:11:36</time>
      </trkpt>
      <trkpt lat="38.76187" lon="-0.18748">
        <ele>517</ele>
        <time>2021-01-31 15:11:37</time>
      </trkpt>
      <trkpt lat="38.76183" lon="-0.18753">
        <ele>516.6</ele>
        <time>2021-01-31 15:11:38</time>
      </trkpt>
      <trkpt lat="38.76179" lon="-0.18759">
        <ele>516.6</ele>
        <time>2021-01-31 15:11:39</time>
      </trkpt>
      <trkpt lat="38.76174" lon="-0.18764">
        <ele>516.6</ele>
        <time>2021-01-31 15:11:40</time>
      </trkpt>
      <trkpt lat="38.76169" lon="-0.18769">
        <ele>516.6</ele>
        <time>2021-01-31 15:11:41</time>
      </trkpt>
      <trkpt lat="38.76163" lon="-0.18775">
        <ele>516.6</ele>
        <time>2021-01-31 15:11:42</time>
      </trkpt>
      <trkpt lat="38.76157" lon="-0.1878">
        <ele>515.6</ele>
        <time>2021-01-31 15:11:43</time>
      </trkpt>
      <trkpt lat="38.76152" lon="-0.18786">
        <ele>515.2</ele>
        <time>2021-01-31 15:11:44</time>
      </trkpt>
      <trkpt lat="38.76146" lon="-0.18792">
        <ele>514.8</ele>
        <time>2021-01-31 15:11:45</time>
      </trkpt>
      <trkpt lat="38.7614" lon="-0.18798">
        <ele>514.8</ele>
        <time>2021-01-31 15:11:46</time>
      </trkpt>
      <trkpt lat="38.7614" lon="-0.18798">
        <ele>514.8</ele>
        <time>2021-01-31 15:11:47</time>
      </trkpt>
      <trkpt lat="38.7614" lon="-0.18798">
        <ele>514.8</ele>
        <time>2021-01-31 15:11:48</time>
      </trkpt>
      <trkpt lat="38.7614" lon="-0.18798">
        <ele>513.8</ele>
        <time>2021-01-31 15:11:49</time>
      </trkpt>
      <trkpt lat="38.76114" lon="-0.18819">
        <ele>513.8</ele>
        <time>2021-01-31 15:11:50</time>
      </trkpt>
      <trkpt lat="38.76107" lon="-0.18825">
        <ele>513.8</ele>
        <time>2021-01-31 15:11:51</time>
      </trkpt>
      <trkpt lat="38.761" lon="-0.18829">
        <ele>513.8</ele>
        <time>2021-01-31 15:11:52</time>
      </trkpt>
      <trkpt lat="38.76092" lon="-0.18833">
        <ele>513.8</ele>
        <time>2021-01-31 15:11:53</time>
      </trkpt>
      <trkpt lat="38.76083" lon="-0.18834">
        <ele>513.8</ele>
        <time>2021-01-31 15:11:54</time>
      </trkpt>
      <trkpt lat="38.76077" lon="-0.18831">
        <ele>513.8</ele>
        <time>2021-01-31 15:11:55</time>
      </trkpt>
      <trkpt lat="38.7607" lon="-0.18827">
        <ele>514</ele>
        <time>2021-01-31 15:11:56</time>
      </trkpt>
      <trkpt lat="38.76063" lon="-0.18822">
        <ele>514</ele>
        <time>2021-01-31 15:11:57</time>
      </trkpt>
      <trkpt lat="38.76056" lon="-0.18816">
        <ele>514</ele>
        <time>2021-01-31 15:11:58</time>
      </trkpt>
      <trkpt lat="38.7605" lon="-0.18808">
        <ele>514</ele>
        <time>2021-01-31 15:11:59</time>
      </trkpt>
      <trkpt lat="38.7605" lon="-0.18808">
        <ele>514</ele>
        <time>2021-01-31 15:12:00</time>
      </trkpt>
      <trkpt lat="38.7605" lon="-0.18808">
        <ele>514</ele>
        <time>2021-01-31 15:12:01</time>
      </trkpt>
      <trkpt lat="38.7605" lon="-0.18808">
        <ele>510</ele>
        <time>2021-01-31 15:12:02</time>
      </trkpt>
      <trkpt lat="38.76033" lon="-0.18759">
        <ele>509</ele>
        <time>2021-01-31 15:12:03</time>
      </trkpt>
      <trkpt lat="38.7603" lon="-0.18745">
        <ele>508</ele>
        <time>2021-01-31 15:12:04</time>
      </trkpt>
      <trkpt lat="38.76027" lon="-0.18731">
        <ele>507</ele>
        <time>2021-01-31 15:12:05</time>
      </trkpt>
      <trkpt lat="38.76023" lon="-0.18717">
        <ele>506</ele>
        <time>2021-01-31 15:12:06</time>
      </trkpt>
      <trkpt lat="38.76019" lon="-0.18705">
        <ele>505</ele>
        <time>2021-01-31 15:12:07</time>
      </trkpt>
      <trkpt lat="38.76013" lon="-0.18693">
        <ele>504</ele>
        <time>2021-01-31 15:12:08</time>
      </trkpt>
      <trkpt lat="38.76007" lon="-0.18681">
        <ele>503</ele>
        <time>2021-01-31 15:12:09</time>
      </trkpt>
      <trkpt lat="38.75999" lon="-0.18669">
        <ele>503</ele>
        <time>2021-01-31 15:12:10</time>
      </trkpt>
      <trkpt lat="38.75999" lon="-0.18669">
        <ele>503</ele>
        <time>2021-01-31 15:12:11</time>
      </trkpt>
      <trkpt lat="38.75999" lon="-0.18669">
        <ele>503</ele>
        <time>2021-01-31 15:12:12</time>
      </trkpt>
      <trkpt lat="38.75999" lon="-0.18669">
        <ele>499</ele>
        <time>2021-01-31 15:12:13</time>
      </trkpt>
      <trkpt lat="38.75964" lon="-0.1862">
        <ele>498</ele>
        <time>2021-01-31 15:12:14</time>
      </trkpt>
      <trkpt lat="38.75955" lon="-0.18609">
        <ele>497</ele>
        <time>2021-01-31 15:12:15</time>
      </trkpt>
      <trkpt lat="38.75946" lon="-0.18598">
        <ele>496</ele>
        <time>2021-01-31 15:12:16</time>
      </trkpt>
      <trkpt lat="38.75939" lon="-0.18587">
        <ele>495</ele>
        <time>2021-01-31 15:12:17</time>
      </trkpt>
      <trkpt lat="38.75933" lon="-0.18576">
        <ele>494</ele>
        <time>2021-01-31 15:12:18</time>
      </trkpt>
      <trkpt lat="38.7593" lon="-0.18564">
        <ele>493</ele>
        <time>2021-01-31 15:12:19</time>
      </trkpt>
      <trkpt lat="38.75928" lon="-0.18553">
        <ele>492</ele>
        <time>2021-01-31 15:12:20</time>
      </trkpt>
      <trkpt lat="38.7593" lon="-0.18541">
        <ele>491</ele>
        <time>2021-01-31 15:12:21</time>
      </trkpt>
      <trkpt lat="38.75934" lon="-0.1853">
        <ele>490</ele>
        <time>2021-01-31 15:12:22</time>
      </trkpt>
      <trkpt lat="38.75939" lon="-0.18518">
        <ele>489</ele>
        <time>2021-01-31 15:12:23</time>
      </trkpt>
      <trkpt lat="38.75945" lon="-0.18507">
        <ele>488</ele>
        <time>2021-01-31 15:12:24</time>
      </trkpt>
      <trkpt lat="38.7595" lon="-0.18495">
        <ele>487</ele>
        <time>2021-01-31 15:12:25</time>
      </trkpt>
      <trkpt lat="38.75954" lon="-0.18484">
        <ele>486</ele>
        <time>2021-01-31 15:12:26</time>
      </trkpt>
      <trkpt lat="38.75958" lon="-0.18473">
        <ele>485.8</ele>
        <time>2021-01-31 15:12:27</time>
      </trkpt>
      <trkpt lat="38.75961" lon="-0.18459">
        <ele>484.8</ele>
        <time>2021-01-31 15:12:28</time>
      </trkpt>
      <trkpt lat="38.75963" lon="-0.18446">
        <ele>483.8</ele>
        <time>2021-01-31 15:12:29</time>
      </trkpt>
      <trkpt lat="38.75963" lon="-0.18433">
        <ele>483</ele>
        <time>2021-01-31 15:12:30</time>
      </trkpt>
      <trkpt lat="38.75962" lon="-0.1842">
        <ele>482</ele>
        <time>2021-01-31 15:12:31</time>
      </trkpt>
      <trkpt lat="38.75959" lon="-0.18407">
        <ele>481.8</ele>
        <time>2021-01-31 15:12:32</time>
      </trkpt>
      <trkpt lat="38.75955" lon="-0.18395">
        <ele>481.8</ele>
        <time>2021-01-31 15:12:33</time>
      </trkpt>
      <trkpt lat="38.75955" lon="-0.18395">
        <ele>481.8</ele>
        <time>2021-01-31 15:12:34</time>
      </trkpt>
      <trkpt lat="38.75955" lon="-0.18395">
        <ele>481.8</ele>
        <time>2021-01-31 15:12:35</time>
      </trkpt>
      <trkpt lat="38.75955" lon="-0.18395">
        <ele>483.2</ele>
        <time>2021-01-31 15:12:36</time>
      </trkpt>
      <trkpt lat="38.75951" lon="-0.18383">
        <ele>483.4</ele>
        <time>2021-01-31 15:12:37</time>
      </trkpt>
      <trkpt lat="38.75951" lon="-0.18383">
        <ele>484.4</ele>
        <time>2021-01-31 15:12:38</time>
      </trkpt>
      <trkpt lat="38.75951" lon="-0.18383">
        <ele>484.4</ele>
        <time>2021-01-31 15:12:39</time>
      </trkpt>
      <trkpt lat="38.75902" lon="-0.18346">
        <ele>484.4</ele>
        <time>2021-01-31 15:12:40</time>
      </trkpt>
      <trkpt lat="38.75893" lon="-0.18341">
        <ele>483.4</ele>
        <time>2021-01-31 15:12:41</time>
      </trkpt>
      <trkpt lat="38.75885" lon="-0.18336">
        <ele>482.4</ele>
        <time>2021-01-31 15:12:42</time>
      </trkpt>
      <trkpt lat="38.75878" lon="-0.1833">
        <ele>482.4</ele>
        <time>2021-01-31 15:12:43</time>
      </trkpt>
      <trkpt lat="38.7587" lon="-0.18324">
        <ele>482.4</ele>
        <time>2021-01-31 15:12:44</time>
      </trkpt>
      <trkpt lat="38.75863" lon="-0.18319">
        <ele>483</ele>
        <time>2021-01-31 15:12:45</time>
      </trkpt>
      <trkpt lat="38.75856" lon="-0.18313">
        <ele>483</ele>
        <time>2021-01-31 15:12:46</time>
      </trkpt>
      <trkpt lat="38.75848" lon="-0.18307">
        <ele>483</ele>
        <time>2021-01-31 15:12:47</time>
      </trkpt>
      <trkpt lat="38.75842" lon="-0.18299">
        <ele>482</ele>
        <time>2021-01-31 15:12:48</time>
      </trkpt>
      <trkpt lat="38.75838" lon="-0.18289">
        <ele>481</ele>
        <time>2021-01-31 15:12:49</time>
      </trkpt>
      <trkpt lat="38.75836" lon="-0.18277">
        <ele>481</ele>
        <time>2021-01-31 15:12:50</time>
      </trkpt>
      <trkpt lat="38.75836" lon="-0.18277">
        <ele>481</ele>
        <time>2021-01-31 15:12:51</time>
      </trkpt>
      <trkpt lat="38.75836" lon="-0.18277">
        <ele>481</ele>
        <time>2021-01-31 15:12:52</time>
      </trkpt>
      <trkpt lat="38.75836" lon="-0.18277">
        <ele>477</ele>
        <time>2021-01-31 15:12:53</time>
      </trkpt>
      <trkpt lat="38.7585" lon="-0.18228">
        <ele>477</ele>
        <time>2021-01-31 15:12:54</time>
      </trkpt>
      <trkpt lat="38.7585" lon="-0.18228">
        <ele>477</ele>
        <time>2021-01-31 15:12:55</time>
      </trkpt>
      <trkpt lat="38.7585" lon="-0.18228">
        <ele>477</ele>
        <time>2021-01-31 15:12:56</time>
      </trkpt>
      <trkpt lat="38.7585" lon="-0.18228">
        <ele>476.6</ele>
        <time>2021-01-31 15:12:57</time>
      </trkpt>
      <trkpt lat="38.75888" lon="-0.18188">
        <ele>476.6</ele>
        <time>2021-01-31 15:12:58</time>
      </trkpt>
      <trkpt lat="38.75897" lon="-0.18177">
        <ele>476.6</ele>
        <time>2021-01-31 15:12:59</time>
      </trkpt>
      <trkpt lat="38.75906" lon="-0.18166">
        <ele>476.6</ele>
        <time>2021-01-31 15:13:00</time>
      </trkpt>
      <trkpt lat="38.75913" lon="-0.18153">
        <ele>476.6</ele>
        <time>2021-01-31 15:13:01</time>
      </trkpt>
      <trkpt lat="38.7592" lon="-0.18141">
        <ele>476.6</ele>
        <time>2021-01-31 15:13:02</time>
      </trkpt>
      <trkpt lat="38.75927" lon="-0.18129">
        <ele>475.6</ele>
        <time>2021-01-31 15:13:03</time>
      </trkpt>
      <trkpt lat="38.75932" lon="-0.18116">
        <ele>475.6</ele>
        <time>2021-01-31 15:13:04</time>
      </trkpt>
      <trkpt lat="38.75932" lon="-0.18116">
        <ele>475.6</ele>
        <time>2021-01-31 15:13:05</time>
      </trkpt>
      <trkpt lat="38.75932" lon="-0.18116">
        <ele>475.6</ele>
        <time>2021-01-31 15:13:06</time>
      </trkpt>
      <trkpt lat="38.75932" lon="-0.18116">
        <ele>472.6</ele>
        <time>2021-01-31 15:13:07</time>
      </trkpt>
      <trkpt lat="38.75947" lon="-0.18062">
        <ele>471.8</ele>
        <time>2021-01-31 15:13:08</time>
      </trkpt>
      <trkpt lat="38.75949" lon="-0.18049">
        <ele>471.8</ele>
        <time>2021-01-31 15:13:09</time>
      </trkpt>
      <trkpt lat="38.7595" lon="-0.18035">
        <ele>471.8</ele>
        <time>2021-01-31 15:13:10</time>
      </trkpt>
      <trkpt lat="38.75949" lon="-0.18021">
        <ele>471.8</ele>
        <time>2021-01-31 15:13:11</time>
      </trkpt>
      <trkpt lat="38.75947" lon="-0.18008">
        <ele>470.8</ele>
        <time>2021-01-31 15:13:12</time>
      </trkpt>
      <trkpt lat="38.75945" lon="-0.17994">
        <ele>469.8</ele>
        <time>2021-01-31 15:13:13</time>
      </trkpt>
      <trkpt lat="38.75943" lon="-0.17981">
        <ele>469</ele>
        <time>2021-01-31 15:13:14</time>
      </trkpt>
      <trkpt lat="38.7594" lon="-0.17969">
        <ele>469</ele>
        <time>2021-01-31 15:13:15</time>
      </trkpt>
      <trkpt lat="38.75937" lon="-0.17956">
        <ele>469</ele>
        <time>2021-01-31 15:13:16</time>
      </trkpt>
      <trkpt lat="38.75935" lon="-0.17943">
        <ele>469</ele>
        <time>2021-01-31 15:13:17</time>
      </trkpt>
      <trkpt lat="38.75932" lon="-0.17929">
        <ele>469</ele>
        <time>2021-01-31 15:13:18</time>
      </trkpt>
      <trkpt lat="38.7593" lon="-0.17916">
        <ele>468</ele>
        <time>2021-01-31 15:13:19</time>
      </trkpt>
      <trkpt lat="38.75928" lon="-0.17902">
        <ele>467</ele>
        <time>2021-01-31 15:13:20</time>
      </trkpt>
      <trkpt lat="38.75926" lon="-0.17889">
        <ele>466</ele>
        <time>2021-01-31 15:13:21</time>
      </trkpt>
      <trkpt lat="38.75923" lon="-0.17876">
        <ele>465.4</ele>
        <time>2021-01-31 15:13:22</time>
      </trkpt>
      <trkpt lat="38.7592" lon="-0.17863">
        <ele>465.4</ele>
        <time>2021-01-31 15:13:23</time>
      </trkpt>
      <trkpt lat="38.75916" lon="-0.17851">
        <ele>465.4</ele>
        <time>2021-01-31 15:13:24</time>
      </trkpt>
      <trkpt lat="38.75916" lon="-0.17851">
        <ele>466.4</ele>
        <time>2021-01-31 15:13:25</time>
      </trkpt>
      <trkpt lat="38.75908" lon="-0.17828">
        <ele>466.4</ele>
        <time>2021-01-31 15:13:26</time>
      </trkpt>
      <trkpt lat="38.75908" lon="-0.17828">
        <ele>466.4</ele>
        <time>2021-01-31 15:13:27</time>
      </trkpt>
      <trkpt lat="38.75908" lon="-0.17828">
        <ele>466.4</ele>
        <time>2021-01-31 15:13:28</time>
      </trkpt>
      <trkpt lat="38.75908" lon="-0.17828">
        <ele>468.4</ele>
        <time>2021-01-31 15:13:29</time>
      </trkpt>
      <trkpt lat="38.75891" lon="-0.17784">
        <ele>467.4</ele>
        <time>2021-01-31 15:13:30</time>
      </trkpt>
      <trkpt lat="38.75886" lon="-0.17773">
        <ele>466.4</ele>
        <time>2021-01-31 15:13:31</time>
      </trkpt>
      <trkpt lat="38.75882" lon="-0.17761">
        <ele>465.8</ele>
        <time>2021-01-31 15:13:32</time>
      </trkpt>
      <trkpt lat="38.75877" lon="-0.1775">
        <ele>465.2</ele>
        <time>2021-01-31 15:13:33</time>
      </trkpt>
      <trkpt lat="38.75872" lon="-0.17739">
        <ele>464.6</ele>
        <time>2021-01-31 15:13:34</time>
      </trkpt>
      <trkpt lat="38.75867" lon="-0.17728">
        <ele>463.6</ele>
        <time>2021-01-31 15:13:35</time>
      </trkpt>
      <trkpt lat="38.75861" lon="-0.17718">
        <ele>463.6</ele>
        <time>2021-01-31 15:13:36</time>
      </trkpt>
      <trkpt lat="38.75856" lon="-0.17707">
        <ele>463.6</ele>
        <time>2021-01-31 15:13:37</time>
      </trkpt>
      <trkpt lat="38.75849" lon="-0.17696">
        <ele>463.6</ele>
        <time>2021-01-31 15:13:38</time>
      </trkpt>
      <trkpt lat="38.75843" lon="-0.17685">
        <ele>463.6</ele>
        <time>2021-01-31 15:13:39</time>
      </trkpt>
      <trkpt lat="38.75836" lon="-0.17674">
        <ele>463.6</ele>
        <time>2021-01-31 15:13:40</time>
      </trkpt>
      <trkpt lat="38.75836" lon="-0.17674">
        <ele>463.6</ele>
        <time>2021-01-31 15:13:41</time>
      </trkpt>
      <trkpt lat="38.75836" lon="-0.17674">
        <ele>463.6</ele>
        <time>2021-01-31 15:13:42</time>
      </trkpt>
      <trkpt lat="38.75836" lon="-0.17674">
        <ele>462.2</ele>
        <time>2021-01-31 15:13:43</time>
      </trkpt>
      <trkpt lat="38.75807" lon="-0.1763">
        <ele>462.2</ele>
        <time>2021-01-31 15:13:44</time>
      </trkpt>
      <trkpt lat="38.758" lon="-0.17618">
        <ele>462.2</ele>
        <time>2021-01-31 15:13:45</time>
      </trkpt>
      <trkpt lat="38.75793" lon="-0.17607">
        <ele>462.2</ele>
        <time>2021-01-31 15:13:46</time>
      </trkpt>
      <trkpt lat="38.75785" lon="-0.17596">
        <ele>462.2</ele>
        <time>2021-01-31 15:13:47</time>
      </trkpt>
      <trkpt lat="38.75778" lon="-0.17584">
        <ele>462.2</ele>
        <time>2021-01-31 15:13:48</time>
      </trkpt>
      <trkpt lat="38.75771" lon="-0.17573">
        <ele>462.2</ele>
        <time>2021-01-31 15:13:49</time>
      </trkpt>
      <trkpt lat="38.75771" lon="-0.17573">
        <ele>462.2</ele>
        <time>2021-01-31 15:13:50</time>
      </trkpt>
      <trkpt lat="38.75771" lon="-0.17573">
        <ele>462.2</ele>
        <time>2021-01-31 15:13:51</time>
      </trkpt>
      <trkpt lat="38.75771" lon="-0.17573">
        <ele>462.2</ele>
        <time>2021-01-31 15:13:52</time>
      </trkpt>
      <trkpt lat="38.75771" lon="-0.17573">
        <ele>460.2</ele>
        <time>2021-01-31 15:13:53</time>
      </trkpt>
      <trkpt lat="38.75736" lon="-0.17517">
        <ele>459.4</ele>
        <time>2021-01-31 15:13:54</time>
      </trkpt>
      <trkpt lat="38.75729" lon="-0.17506">
        <ele>459.4</ele>
        <time>2021-01-31 15:13:55</time>
      </trkpt>
      <trkpt lat="38.75723" lon="-0.17494">
        <ele>459.4</ele>
        <time>2021-01-31 15:13:56</time>
      </trkpt>
      <trkpt lat="38.75716" lon="-0.17482">
        <ele>460</ele>
        <time>2021-01-31 15:13:57</time>
      </trkpt>
      <trkpt lat="38.7571" lon="-0.1747">
        <ele>460</ele>
        <time>2021-01-31 15:13:58</time>
      </trkpt>
      <trkpt lat="38.75704" lon="-0.17458">
        <ele>460</ele>
        <time>2021-01-31 15:13:59</time>
      </trkpt>
      <trkpt lat="38.75704" lon="-0.17458">
        <ele>460</ele>
        <time>2021-01-31 15:14:00</time>
      </trkpt>
      <trkpt lat="38.75691" lon="-0.17434">
        <ele>460</ele>
        <time>2021-01-31 15:14:01</time>
      </trkpt>
      <trkpt lat="38.75684" lon="-0.17422">
        <ele>459</ele>
        <time>2021-01-31 15:14:02</time>
      </trkpt>
      <trkpt lat="38.75677" lon="-0.1741">
        <ele>458</ele>
        <time>2021-01-31 15:14:03</time>
      </trkpt>
      <trkpt lat="38.75671" lon="-0.17398">
        <ele>457</ele>
        <time>2021-01-31 15:14:04</time>
      </trkpt>
      <trkpt lat="38.75664" lon="-0.17386">
        <ele>456</ele>
        <time>2021-01-31 15:14:05</time>
      </trkpt>
      <trkpt lat="38.75657" lon="-0.17374">
        <ele>456</ele>
        <time>2021-01-31 15:14:06</time>
      </trkpt>
      <trkpt lat="38.75651" lon="-0.17361">
        <ele>456</ele>
        <time>2021-01-31 15:14:07</time>
      </trkpt>
      <trkpt lat="38.75644" lon="-0.17349">
        <ele>456.4</ele>
        <time>2021-01-31 15:14:08</time>
      </trkpt>
      <trkpt lat="38.75638" lon="-0.17338">
        <ele>456.6</ele>
        <time>2021-01-31 15:14:09</time>
      </trkpt>
      <trkpt lat="38.75633" lon="-0.17326">
        <ele>457.6</ele>
        <time>2021-01-31 15:14:10</time>
      </trkpt>
      <trkpt lat="38.75628" lon="-0.17315">
        <ele>458.4</ele>
        <time>2021-01-31 15:14:11</time>
      </trkpt>
      <trkpt lat="38.75623" lon="-0.17304">
        <ele>458.6</ele>
        <time>2021-01-31 15:14:12</time>
      </trkpt>
      <trkpt lat="38.7562" lon="-0.17292">
        <ele>458.6</ele>
        <time>2021-01-31 15:14:13</time>
      </trkpt>
      <trkpt lat="38.7562" lon="-0.17292">
        <ele>458.6</ele>
        <time>2021-01-31 15:14:14</time>
      </trkpt>
      <trkpt lat="38.75613" lon="-0.17269">
        <ele>458.6</ele>
        <time>2021-01-31 15:14:15</time>
      </trkpt>
      <trkpt lat="38.75613" lon="-0.17269">
        <ele>457.2</ele>
        <time>2021-01-31 15:14:16</time>
      </trkpt>
      <trkpt lat="38.75601" lon="-0.1725">
        <ele>457.2</ele>
        <time>2021-01-31 15:14:17</time>
      </trkpt>
      <trkpt lat="38.75601" lon="-0.1725">
        <ele>456.6</ele>
        <time>2021-01-31 15:14:18</time>
      </trkpt>
      <trkpt lat="38.75583" lon="-0.17243">
        <ele>456.6</ele>
        <time>2021-01-31 15:14:19</time>
      </trkpt>
      <trkpt lat="38.75583" lon="-0.17243">
        <ele>456.6</ele>
        <time>2021-01-31 15:14:20</time>
      </trkpt>
      <trkpt lat="38.75565" lon="-0.17244">
        <ele>456.6</ele>
        <time>2021-01-31 15:14:21</time>
      </trkpt>
      <trkpt lat="38.75565" lon="-0.17244">
        <ele>456</ele>
        <time>2021-01-31 15:14:22</time>
      </trkpt>
      <trkpt lat="38.75548" lon="-0.17248">
        <ele>456</ele>
        <time>2021-01-31 15:14:23</time>
      </trkpt>
      <trkpt lat="38.75548" lon="-0.17248">
        <ele>456</ele>
        <time>2021-01-31 15:14:24</time>
      </trkpt>
      <trkpt lat="38.75533" lon="-0.17253">
        <ele>456</ele>
        <time>2021-01-31 15:14:25</time>
      </trkpt>
      <trkpt lat="38.75533" lon="-0.17253">
        <ele>457.8</ele>
        <time>2021-01-31 15:14:26</time>
      </trkpt>
      <trkpt lat="38.75518" lon="-0.17258">
        <ele>457.8</ele>
        <time>2021-01-31 15:14:27</time>
      </trkpt>
      <trkpt lat="38.75518" lon="-0.17258">
        <ele>459</ele>
        <time>2021-01-31 15:14:28</time>
      </trkpt>
      <trkpt lat="38.75504" lon="-0.17265">
        <ele>459</ele>
        <time>2021-01-31 15:14:29</time>
      </trkpt>
      <trkpt lat="38.75504" lon="-0.17265">
        <ele>459.8</ele>
        <time>2021-01-31 15:14:30</time>
      </trkpt>
      <trkpt lat="38.75491" lon="-0.17272">
        <ele>459.8</ele>
        <time>2021-01-31 15:14:31</time>
      </trkpt>
      <trkpt lat="38.75491" lon="-0.17272">
        <ele>459.8</ele>
        <time>2021-01-31 15:14:32</time>
      </trkpt>
      <trkpt lat="38.75477" lon="-0.17279">
        <ele>459.8</ele>
        <time>2021-01-31 15:14:33</time>
      </trkpt>
      <trkpt lat="38.75477" lon="-0.17279">
        <ele>459.8</ele>
        <time>2021-01-31 15:14:34</time>
      </trkpt>
      <trkpt lat="38.75463" lon="-0.17284">
        <ele>459.8</ele>
        <time>2021-01-31 15:14:35</time>
      </trkpt>
      <trkpt lat="38.75463" lon="-0.17284">
        <ele>458.8</ele>
        <time>2021-01-31 15:14:36</time>
      </trkpt>
      <trkpt lat="38.75448" lon="-0.17287">
        <ele>458.8</ele>
        <time>2021-01-31 15:14:37</time>
      </trkpt>
      <trkpt lat="38.75448" lon="-0.17287">
        <ele>458.8</ele>
        <time>2021-01-31 15:14:38</time>
      </trkpt>
      <trkpt lat="38.75432" lon="-0.17286">
        <ele>458.8</ele>
        <time>2021-01-31 15:14:39</time>
      </trkpt>
      <trkpt lat="38.75432" lon="-0.17286">
        <ele>458.4</ele>
        <time>2021-01-31 15:14:40</time>
      </trkpt>
      <trkpt lat="38.75416" lon="-0.17281">
        <ele>458.4</ele>
        <time>2021-01-31 15:14:41</time>
      </trkpt>
      <trkpt lat="38.75416" lon="-0.17281">
        <ele>458.4</ele>
        <time>2021-01-31 15:14:42</time>
      </trkpt>
      <trkpt lat="38.754" lon="-0.17275">
        <ele>458.4</ele>
        <time>2021-01-31 15:14:43</time>
      </trkpt>
      <trkpt lat="38.754" lon="-0.17275">
        <ele>456.4</ele>
        <time>2021-01-31 15:14:44</time>
      </trkpt>
      <trkpt lat="38.75384" lon="-0.17269">
        <ele>456.4</ele>
        <time>2021-01-31 15:14:45</time>
      </trkpt>
      <trkpt lat="38.75384" lon="-0.17269">
        <ele>456.4</ele>
        <time>2021-01-31 15:14:46</time>
      </trkpt>
      <trkpt lat="38.75384" lon="-0.17269">
        <ele>457.2</ele>
        <time>2021-01-31 15:14:47</time>
      </trkpt>
      <trkpt lat="38.75359" lon="-0.17263">
        <ele>457.2</ele>
        <time>2021-01-31 15:14:48</time>
      </trkpt>
      <trkpt lat="38.75359" lon="-0.17263">
        <ele>457.2</ele>
        <time>2021-01-31 15:14:49</time>
      </trkpt>
      <trkpt lat="38.75342" lon="-0.17263">
        <ele>457.2</ele>
        <time>2021-01-31 15:14:50</time>
      </trkpt>
      <trkpt lat="38.75342" lon="-0.17263">
        <ele>457.2</ele>
        <time>2021-01-31 15:14:51</time>
      </trkpt>
      <trkpt lat="38.75342" lon="-0.17263">
        <ele>457.2</ele>
        <time>2021-01-31 15:14:52</time>
      </trkpt>
      <trkpt lat="38.75342" lon="-0.17263">
        <ele>456.2</ele>
        <time>2021-01-31 15:14:53</time>
      </trkpt>
      <trkpt lat="38.7531" lon="-0.17268">
        <ele>455.2</ele>
        <time>2021-01-31 15:14:54</time>
      </trkpt>
      <trkpt lat="38.75302" lon="-0.17269">
        <ele>454.2</ele>
        <time>2021-01-31 15:14:55</time>
      </trkpt>
      <trkpt lat="38.75295" lon="-0.1727">
        <ele>454.2</ele>
        <time>2021-01-31 15:14:56</time>
      </trkpt>
      <trkpt lat="38.75288" lon="-0.17272">
        <ele>454.2</ele>
        <time>2021-01-31 15:14:57</time>
      </trkpt>
      <trkpt lat="38.75288" lon="-0.17272">
        <ele>455</ele>
        <time>2021-01-31 15:14:58</time>
      </trkpt>
      <trkpt lat="38.75279" lon="-0.17275">
        <ele>455</ele>
        <time>2021-01-31 15:14:59</time>
      </trkpt>
      <trkpt lat="38.75275" lon="-0.17276">
        <ele>455</ele>
        <time>2021-01-31 15:15:00</time>
      </trkpt>
      <trkpt lat="38.75272" lon="-0.17276">
        <ele>455</ele>
        <time>2021-01-31 15:15:01</time>
      </trkpt>
      <trkpt lat="38.7527" lon="-0.17276">
        <ele>455.6</ele>
        <time>2021-01-31 15:15:02</time>
      </trkpt>
      <trkpt lat="38.75267" lon="-0.17274">
        <ele>455.8</ele>
        <time>2021-01-31 15:15:03</time>
      </trkpt>
      <trkpt lat="38.75264" lon="-0.17271">
        <ele>455.8</ele>
        <time>2021-01-31 15:15:04</time>
      </trkpt>
      <trkpt lat="38.75264" lon="-0.17271">
        <ele>455.8</ele>
        <time>2021-01-31 15:15:05</time>
      </trkpt>
      <trkpt lat="38.7526" lon="-0.17259">
        <ele>454.8</ele>
        <time>2021-01-31 15:15:06</time>
      </trkpt>
      <trkpt lat="38.7526" lon="-0.17252">
        <ele>454.4</ele>
        <time>2021-01-31 15:15:07</time>
      </trkpt>
      <trkpt lat="38.7526" lon="-0.17252">
        <ele>454</ele>
        <time>2021-01-31 15:15:08</time>
      </trkpt>
      <trkpt lat="38.7526" lon="-0.17235">
        <ele>453.6</ele>
        <time>2021-01-31 15:15:09</time>
      </trkpt>
      <trkpt lat="38.7526" lon="-0.17235">
        <ele>452.6</ele>
        <time>2021-01-31 15:15:10</time>
      </trkpt>
      <trkpt lat="38.75259" lon="-0.17216">
        <ele>452.4</ele>
        <time>2021-01-31 15:15:11</time>
      </trkpt>
      <trkpt lat="38.75258" lon="-0.17207">
        <ele>451.6</ele>
        <time>2021-01-31 15:15:12</time>
      </trkpt>
      <trkpt lat="38.75256" lon="-0.17196">
        <ele>450.6</ele>
        <time>2021-01-31 15:15:13</time>
      </trkpt>
      <trkpt lat="38.75254" lon="-0.17186">
        <ele>449.8</ele>
        <time>2021-01-31 15:15:14</time>
      </trkpt>
      <trkpt lat="38.75251" lon="-0.17175">
        <ele>448.8</ele>
        <time>2021-01-31 15:15:15</time>
      </trkpt>
      <trkpt lat="38.75249" lon="-0.17164">
        <ele>448.8</ele>
        <time>2021-01-31 15:15:16</time>
      </trkpt>
      <trkpt lat="38.75247" lon="-0.17153">
        <ele>448.8</ele>
        <time>2021-01-31 15:15:17</time>
      </trkpt>
      <trkpt lat="38.75244" lon="-0.17141">
        <ele>448.8</ele>
        <time>2021-01-31 15:15:18</time>
      </trkpt>
      <trkpt lat="38.7524" lon="-0.1713">
        <ele>447.8</ele>
        <time>2021-01-31 15:15:19</time>
      </trkpt>
      <trkpt lat="38.75237" lon="-0.17118">
        <ele>446.8</ele>
        <time>2021-01-31 15:15:20</time>
      </trkpt>
      <trkpt lat="38.75234" lon="-0.17106">
        <ele>445.8</ele>
        <time>2021-01-31 15:15:21</time>
      </trkpt>
      <trkpt lat="38.75231" lon="-0.17094">
        <ele>445</ele>
        <time>2021-01-31 15:15:22</time>
      </trkpt>
      <trkpt lat="38.75228" lon="-0.17082">
        <ele>445</ele>
        <time>2021-01-31 15:15:23</time>
      </trkpt>
      <trkpt lat="38.75224" lon="-0.1707">
        <ele>445</ele>
        <time>2021-01-31 15:15:24</time>
      </trkpt>
      <trkpt lat="38.75224" lon="-0.1707">
        <ele>445</ele>
        <time>2021-01-31 15:15:25</time>
      </trkpt>
      <trkpt lat="38.75217" lon="-0.17047">
        <ele>445</ele>
        <time>2021-01-31 15:15:26</time>
      </trkpt>
      <trkpt lat="38.75213" lon="-0.17036">
        <ele>445</ele>
        <time>2021-01-31 15:15:27</time>
      </trkpt>
      <trkpt lat="38.75208" lon="-0.17026">
        <ele>445</ele>
        <time>2021-01-31 15:15:28</time>
      </trkpt>
      <trkpt lat="38.75201" lon="-0.17017">
        <ele>445</ele>
        <time>2021-01-31 15:15:29</time>
      </trkpt>
      <trkpt lat="38.75195" lon="-0.17009">
        <ele>445</ele>
        <time>2021-01-31 15:15:30</time>
      </trkpt>
      <trkpt lat="38.75187" lon="-0.17002">
        <ele>445</ele>
        <time>2021-01-31 15:15:31</time>
      </trkpt>
      <trkpt lat="38.7518" lon="-0.16995">
        <ele>445</ele>
        <time>2021-01-31 15:15:32</time>
      </trkpt>
      <trkpt lat="38.75173" lon="-0.1699">
        <ele>445</ele>
        <time>2021-01-31 15:15:33</time>
      </trkpt>
      <trkpt lat="38.75165" lon="-0.16984">
        <ele>445</ele>
        <time>2021-01-31 15:15:34</time>
      </trkpt>
      <trkpt lat="38.75158" lon="-0.16979">
        <ele>444.2</ele>
        <time>2021-01-31 15:15:35</time>
      </trkpt>
      <trkpt lat="38.75151" lon="-0.16973">
        <ele>443.6</ele>
        <time>2021-01-31 15:15:36</time>
      </trkpt>
      <trkpt lat="38.75143" lon="-0.16967">
        <ele>442.6</ele>
        <time>2021-01-31 15:15:37</time>
      </trkpt>
      <trkpt lat="38.75138" lon="-0.1696">
        <ele>442.6</ele>
        <time>2021-01-31 15:15:38</time>
      </trkpt>
      <trkpt lat="38.75133" lon="-0.16951">
        <ele>442.6</ele>
        <time>2021-01-31 15:15:39</time>
      </trkpt>
      <trkpt lat="38.75131" lon="-0.16942">
        <ele>443.6</ele>
        <time>2021-01-31 15:15:40</time>
      </trkpt>
      <trkpt lat="38.75131" lon="-0.16932">
        <ele>444.6</ele>
        <time>2021-01-31 15:15:41</time>
      </trkpt>
      <trkpt lat="38.75133" lon="-0.16924">
        <ele>445.2</ele>
        <time>2021-01-31 15:15:42</time>
      </trkpt>
      <trkpt lat="38.75136" lon="-0.16915">
        <ele>446.2</ele>
        <time>2021-01-31 15:15:43</time>
      </trkpt>
      <trkpt lat="38.7514" lon="-0.16908">
        <ele>446.6</ele>
        <time>2021-01-31 15:15:44</time>
      </trkpt>
      <trkpt lat="38.75144" lon="-0.16901">
        <ele>447.2</ele>
        <time>2021-01-31 15:15:45</time>
      </trkpt>
      <trkpt lat="38.75147" lon="-0.16895">
        <ele>447.8</ele>
        <time>2021-01-31 15:15:46</time>
      </trkpt>
      <trkpt lat="38.75151" lon="-0.16888">
        <ele>448.2</ele>
        <time>2021-01-31 15:15:47</time>
      </trkpt>
      <trkpt lat="38.75154" lon="-0.16882">
        <ele>449.2</ele>
        <time>2021-01-31 15:15:48</time>
      </trkpt>
      <trkpt lat="38.75158" lon="-0.16875">
        <ele>449.4</ele>
        <time>2021-01-31 15:15:49</time>
      </trkpt>
      <trkpt lat="38.75161" lon="-0.16869">
        <ele>449.8</ele>
        <time>2021-01-31 15:15:50</time>
      </trkpt>
      <trkpt lat="38.75165" lon="-0.16863">
        <ele>449.8</ele>
        <time>2021-01-31 15:15:51</time>
      </trkpt>
      <trkpt lat="38.7517" lon="-0.16857">
        <ele>449.8</ele>
        <time>2021-01-31 15:15:52</time>
      </trkpt>
      <trkpt lat="38.75174" lon="-0.16851">
        <ele>449.8</ele>
        <time>2021-01-31 15:15:53</time>
      </trkpt>
      <trkpt lat="38.75179" lon="-0.16845">
        <ele>450.8</ele>
        <time>2021-01-31 15:15:54</time>
      </trkpt>
      <trkpt lat="38.75183" lon="-0.16839">
        <ele>450.8</ele>
        <time>2021-01-31 15:15:55</time>
      </trkpt>
      <trkpt lat="38.75188" lon="-0.16832">
        <ele>450.8</ele>
        <time>2021-01-31 15:15:56</time>
      </trkpt>
      <trkpt lat="38.75193" lon="-0.16827">
        <ele>450.8</ele>
        <time>2021-01-31 15:15:57</time>
      </trkpt>
      <trkpt lat="38.75198" lon="-0.16821">
        <ele>451</ele>
        <time>2021-01-31 15:15:58</time>
      </trkpt>
      <trkpt lat="38.75204" lon="-0.16817">
        <ele>451</ele>
        <time>2021-01-31 15:15:59</time>
      </trkpt>
      <trkpt lat="38.75209" lon="-0.16812">
        <ele>451</ele>
        <time>2021-01-31 15:16:00</time>
      </trkpt>
      <trkpt lat="38.75215" lon="-0.16806">
        <ele>451</ele>
        <time>2021-01-31 15:16:01</time>
      </trkpt>
      <trkpt lat="38.75221" lon="-0.168">
        <ele>451</ele>
        <time>2021-01-31 15:16:02</time>
      </trkpt>
      <trkpt lat="38.75227" lon="-0.16793">
        <ele>451</ele>
        <time>2021-01-31 15:16:03</time>
      </trkpt>
      <trkpt lat="38.75232" lon="-0.16784">
        <ele>451</ele>
        <time>2021-01-31 15:16:04</time>
      </trkpt>
      <trkpt lat="38.75235" lon="-0.16774">
        <ele>451.2</ele>
        <time>2021-01-31 15:16:05</time>
      </trkpt>
      <trkpt lat="38.75237" lon="-0.16764">
        <ele>451.2</ele>
        <time>2021-01-31 15:16:06</time>
      </trkpt>
      <trkpt lat="38.75238" lon="-0.16753">
        <ele>451.2</ele>
        <time>2021-01-31 15:16:07</time>
      </trkpt>
      <trkpt lat="38.75238" lon="-0.16742">
        <ele>451.2</ele>
        <time>2021-01-31 15:16:08</time>
      </trkpt>
      <trkpt lat="38.75236" lon="-0.16731">
        <ele>451.2</ele>
        <time>2021-01-31 15:16:09</time>
      </trkpt>
      <trkpt lat="38.75236" lon="-0.1672">
        <ele>451.2</ele>
        <time>2021-01-31 15:16:10</time>
      </trkpt>
      <trkpt lat="38.75235" lon="-0.16709">
        <ele>451.2</ele>
        <time>2021-01-31 15:16:11</time>
      </trkpt>
      <trkpt lat="38.75234" lon="-0.16698">
        <ele>451.2</ele>
        <time>2021-01-31 15:16:12</time>
      </trkpt>
      <trkpt lat="38.75233" lon="-0.16687">
        <ele>451.2</ele>
        <time>2021-01-31 15:16:13</time>
      </trkpt>
      <trkpt lat="38.75232" lon="-0.16676">
        <ele>451.2</ele>
        <time>2021-01-31 15:16:14</time>
      </trkpt>
      <trkpt lat="38.75231" lon="-0.16665">
        <ele>451.2</ele>
        <time>2021-01-31 15:16:15</time>
      </trkpt>
      <trkpt lat="38.75231" lon="-0.16653">
        <ele>450.4</ele>
        <time>2021-01-31 15:16:16</time>
      </trkpt>
      <trkpt lat="38.7523" lon="-0.16642">
        <ele>449.6</ele>
        <time>2021-01-31 15:16:17</time>
      </trkpt>
      <trkpt lat="38.75229" lon="-0.16631">
        <ele>449.6</ele>
        <time>2021-01-31 15:16:18</time>
      </trkpt>
      <trkpt lat="38.75228" lon="-0.1662">
        <ele>449.6</ele>
        <time>2021-01-31 15:16:19</time>
      </trkpt>
      <trkpt lat="38.75228" lon="-0.16609">
        <ele>449.8</ele>
        <time>2021-01-31 15:16:20</time>
      </trkpt>
      <trkpt lat="38.75227" lon="-0.16598">
        <ele>450.4</ele>
        <time>2021-01-31 15:16:21</time>
      </trkpt>
      <trkpt lat="38.75227" lon="-0.16587">
        <ele>450.4</ele>
        <time>2021-01-31 15:16:22</time>
      </trkpt>
      <trkpt lat="38.75227" lon="-0.16576">
        <ele>450.4</ele>
        <time>2021-01-31 15:16:23</time>
      </trkpt>
      <trkpt lat="38.75226" lon="-0.16565">
        <ele>450</ele>
        <time>2021-01-31 15:16:24</time>
      </trkpt>
      <trkpt lat="38.75226" lon="-0.16554">
        <ele>450</ele>
        <time>2021-01-31 15:16:25</time>
      </trkpt>
      <trkpt lat="38.75226" lon="-0.16543">
        <ele>450</ele>
        <time>2021-01-31 15:16:26</time>
      </trkpt>
      <trkpt lat="38.75226" lon="-0.16532">
        <ele>450</ele>
        <time>2021-01-31 15:16:27</time>
      </trkpt>
      <trkpt lat="38.75226" lon="-0.16521">
        <ele>449.2</ele>
        <time>2021-01-31 15:16:28</time>
      </trkpt>
      <trkpt lat="38.75227" lon="-0.1651">
        <ele>448.2</ele>
        <time>2021-01-31 15:16:29</time>
      </trkpt>
      <trkpt lat="38.75227" lon="-0.165">
        <ele>447.2</ele>
        <time>2021-01-31 15:16:30</time>
      </trkpt>
      <trkpt lat="38.75228" lon="-0.16489">
        <ele>447.2</ele>
        <time>2021-01-31 15:16:31</time>
      </trkpt>
      <trkpt lat="38.7523" lon="-0.16478">
        <ele>447.2</ele>
        <time>2021-01-31 15:16:32</time>
      </trkpt>
      <trkpt lat="38.75231" lon="-0.16468">
        <ele>448.2</ele>
        <time>2021-01-31 15:16:33</time>
      </trkpt>
      <trkpt lat="38.75232" lon="-0.16457">
        <ele>448.6</ele>
        <time>2021-01-31 15:16:34</time>
      </trkpt>
      <trkpt lat="38.75234" lon="-0.16446">
        <ele>449</ele>
        <time>2021-01-31 15:16:35</time>
      </trkpt>
      <trkpt lat="38.75235" lon="-0.16434">
        <ele>449</ele>
        <time>2021-01-31 15:16:36</time>
      </trkpt>
      <trkpt lat="38.75235" lon="-0.16423">
        <ele>449</ele>
        <time>2021-01-31 15:16:37</time>
      </trkpt>
      <trkpt lat="38.75235" lon="-0.16411">
        <ele>448</ele>
        <time>2021-01-31 15:16:38</time>
      </trkpt>
      <trkpt lat="38.75234" lon="-0.164">
        <ele>447</ele>
        <time>2021-01-31 15:16:39</time>
      </trkpt>
      <trkpt lat="38.75233" lon="-0.16388">
        <ele>446</ele>
        <time>2021-01-31 15:16:40</time>
      </trkpt>
      <trkpt lat="38.75232" lon="-0.16376">
        <ele>445</ele>
        <time>2021-01-31 15:16:41</time>
      </trkpt>
      <trkpt lat="38.75232" lon="-0.16363">
        <ele>444</ele>
        <time>2021-01-31 15:16:42</time>
      </trkpt>
      <trkpt lat="38.75231" lon="-0.16351">
        <ele>443</ele>
        <time>2021-01-31 15:16:43</time>
      </trkpt>
      <trkpt lat="38.7523" lon="-0.16339">
        <ele>442</ele>
        <time>2021-01-31 15:16:44</time>
      </trkpt>
      <trkpt lat="38.75228" lon="-0.16328">
        <ele>441.2</ele>
        <time>2021-01-31 15:16:45</time>
      </trkpt>
      <trkpt lat="38.75228" lon="-0.16315">
        <ele>440.4</ele>
        <time>2021-01-31 15:16:46</time>
      </trkpt>
      <trkpt lat="38.75226" lon="-0.16303">
        <ele>439.6</ele>
        <time>2021-01-31 15:16:47</time>
      </trkpt>
      <trkpt lat="38.75226" lon="-0.1629">
        <ele>439.2</ele>
        <time>2021-01-31 15:16:48</time>
      </trkpt>
      <trkpt lat="38.75225" lon="-0.16278">
        <ele>438.2</ele>
        <time>2021-01-31 15:16:49</time>
      </trkpt>
      <trkpt lat="38.75224" lon="-0.16267">
        <ele>438.2</ele>
        <time>2021-01-31 15:16:50</time>
      </trkpt>
      <trkpt lat="38.75223" lon="-0.16255">
        <ele>438.2</ele>
        <time>2021-01-31 15:16:51</time>
      </trkpt>
      <trkpt lat="38.75222" lon="-0.16245">
        <ele>439.2</ele>
        <time>2021-01-31 15:16:52</time>
      </trkpt>
      <trkpt lat="38.75222" lon="-0.16235">
        <ele>439.2</ele>
        <time>2021-01-31 15:16:53</time>
      </trkpt>
      <trkpt lat="38.75221" lon="-0.16225">
        <ele>439.2</ele>
        <time>2021-01-31 15:16:54</time>
      </trkpt>
      <trkpt lat="38.75221" lon="-0.16215">
        <ele>439.2</ele>
        <time>2021-01-31 15:16:55</time>
      </trkpt>
      <trkpt lat="38.7522" lon="-0.16205">
        <ele>438.2</ele>
        <time>2021-01-31 15:16:56</time>
      </trkpt>
      <trkpt lat="38.75219" lon="-0.16194">
        <ele>437.2</ele>
        <time>2021-01-31 15:16:57</time>
      </trkpt>
      <trkpt lat="38.75218" lon="-0.16184">
        <ele>436.2</ele>
        <time>2021-01-31 15:16:58</time>
      </trkpt>
      <trkpt lat="38.75216" lon="-0.16175">
        <ele>435.6</ele>
        <time>2021-01-31 15:16:59</time>
      </trkpt>
      <trkpt lat="38.75213" lon="-0.16166">
        <ele>434.6</ele>
        <time>2021-01-31 15:17:00</time>
      </trkpt>
      <trkpt lat="38.75211" lon="-0.16157">
        <ele>433.8</ele>
        <time>2021-01-31 15:17:01</time>
      </trkpt>
      <trkpt lat="38.75208" lon="-0.16149">
        <ele>433.8</ele>
        <time>2021-01-31 15:17:02</time>
      </trkpt>
      <trkpt lat="38.75205" lon="-0.1614">
        <ele>433.8</ele>
        <time>2021-01-31 15:17:03</time>
      </trkpt>
      <trkpt lat="38.75201" lon="-0.16133">
        <ele>433.8</ele>
        <time>2021-01-31 15:17:04</time>
      </trkpt>
      <trkpt lat="38.75198" lon="-0.16125">
        <ele>432.8</ele>
        <time>2021-01-31 15:17:05</time>
      </trkpt>
      <trkpt lat="38.75195" lon="-0.16117">
        <ele>432.8</ele>
        <time>2021-01-31 15:17:06</time>
      </trkpt>
      <trkpt lat="38.75192" lon="-0.16108">
        <ele>432.8</ele>
        <time>2021-01-31 15:17:07</time>
      </trkpt>
      <trkpt lat="38.7519" lon="-0.16098">
        <ele>433.2</ele>
        <time>2021-01-31 15:17:08</time>
      </trkpt>
      <trkpt lat="38.75186" lon="-0.16089">
        <ele>433.2</ele>
        <time>2021-01-31 15:17:09</time>
      </trkpt>
      <trkpt lat="38.75181" lon="-0.16081">
        <ele>433.2</ele>
        <time>2021-01-31 15:17:10</time>
      </trkpt>
      <trkpt lat="38.75176" lon="-0.16072">
        <ele>432.2</ele>
        <time>2021-01-31 15:17:11</time>
      </trkpt>
      <trkpt lat="38.75171" lon="-0.16064">
        <ele>431.2</ele>
        <time>2021-01-31 15:17:12</time>
      </trkpt>
      <trkpt lat="38.75166" lon="-0.16056">
        <ele>430.2</ele>
        <time>2021-01-31 15:17:13</time>
      </trkpt>
      <trkpt lat="38.7516" lon="-0.16048">
        <ele>429.2</ele>
        <time>2021-01-31 15:17:14</time>
      </trkpt>
      <trkpt lat="38.75155" lon="-0.16039">
        <ele>428.2</ele>
        <time>2021-01-31 15:17:15</time>
      </trkpt>
      <trkpt lat="38.75149" lon="-0.16029">
        <ele>427.2</ele>
        <time>2021-01-31 15:17:16</time>
      </trkpt>
      <trkpt lat="38.75144" lon="-0.1602">
        <ele>426.2</ele>
        <time>2021-01-31 15:17:17</time>
      </trkpt>
      <trkpt lat="38.75137" lon="-0.1601">
        <ele>425.2</ele>
        <time>2021-01-31 15:17:18</time>
      </trkpt>
      <trkpt lat="38.7513" lon="-0.16">
        <ele>425.2</ele>
        <time>2021-01-31 15:17:19</time>
      </trkpt>
      <trkpt lat="38.75123" lon="-0.1599">
        <ele>425.2</ele>
        <time>2021-01-31 15:17:20</time>
      </trkpt>
      <trkpt lat="38.75115" lon="-0.15981">
        <ele>425.2</ele>
        <time>2021-01-31 15:17:21</time>
      </trkpt>
      <trkpt lat="38.75108" lon="-0.15971">
        <ele>424.2</ele>
        <time>2021-01-31 15:17:22</time>
      </trkpt>
      <trkpt lat="38.75101" lon="-0.1596">
        <ele>423.2</ele>
        <time>2021-01-31 15:17:23</time>
      </trkpt>
      <trkpt lat="38.75094" lon="-0.15949">
        <ele>422.2</ele>
        <time>2021-01-31 15:17:24</time>
      </trkpt>
      <trkpt lat="38.75088" lon="-0.15938">
        <ele>422.2</ele>
        <time>2021-01-31 15:17:25</time>
      </trkpt>
      <trkpt lat="38.75083" lon="-0.15926">
        <ele>422.2</ele>
        <time>2021-01-31 15:17:26</time>
      </trkpt>
      <trkpt lat="38.75079" lon="-0.15913">
        <ele>422.2</ele>
        <time>2021-01-31 15:17:27</time>
      </trkpt>
      <trkpt lat="38.75076" lon="-0.159">
        <ele>422.2</ele>
        <time>2021-01-31 15:17:28</time>
      </trkpt>
      <trkpt lat="38.75073" lon="-0.15887">
        <ele>421.2</ele>
        <time>2021-01-31 15:17:29</time>
      </trkpt>
      <trkpt lat="38.75071" lon="-0.15873">
        <ele>421.2</ele>
        <time>2021-01-31 15:17:30</time>
      </trkpt>
      <trkpt lat="38.7507" lon="-0.1586">
        <ele>421.2</ele>
        <time>2021-01-31 15:17:31</time>
      </trkpt>
      <trkpt lat="38.7507" lon="-0.15846">
        <ele>422</ele>
        <time>2021-01-31 15:17:32</time>
      </trkpt>
      <trkpt lat="38.7507" lon="-0.15832">
        <ele>422</ele>
        <time>2021-01-31 15:17:33</time>
      </trkpt>
      <trkpt lat="38.7507" lon="-0.15818">
        <ele>422</ele>
        <time>2021-01-31 15:17:34</time>
      </trkpt>
      <trkpt lat="38.75072" lon="-0.15804">
        <ele>422</ele>
        <time>2021-01-31 15:17:35</time>
      </trkpt>
      <trkpt lat="38.75073" lon="-0.15789">
        <ele>422</ele>
        <time>2021-01-31 15:17:36</time>
      </trkpt>
      <trkpt lat="38.75074" lon="-0.15775">
        <ele>422</ele>
        <time>2021-01-31 15:17:37</time>
      </trkpt>
      <trkpt lat="38.75075" lon="-0.15762">
        <ele>422</ele>
        <time>2021-01-31 15:17:38</time>
      </trkpt>
      <trkpt lat="38.75076" lon="-0.15748">
        <ele>422.8</ele>
        <time>2021-01-31 15:17:39</time>
      </trkpt>
      <trkpt lat="38.75078" lon="-0.15735">
        <ele>423.2</ele>
        <time>2021-01-31 15:17:40</time>
      </trkpt>
      <trkpt lat="38.75079" lon="-0.15722">
        <ele>423.8</ele>
        <time>2021-01-31 15:17:41</time>
      </trkpt>
      <trkpt lat="38.75081" lon="-0.15708">
        <ele>423.8</ele>
        <time>2021-01-31 15:17:42</time>
      </trkpt>
      <trkpt lat="38.75083" lon="-0.15695">
        <ele>423.8</ele>
        <time>2021-01-31 15:17:43</time>
      </trkpt>
      <trkpt lat="38.75085" lon="-0.15682">
        <ele>423.4</ele>
        <time>2021-01-31 15:17:44</time>
      </trkpt>
      <trkpt lat="38.7509" lon="-0.1567">
        <ele>423</ele>
        <time>2021-01-31 15:17:45</time>
      </trkpt>
      <trkpt lat="38.75096" lon="-0.1566">
        <ele>422.8</ele>
        <time>2021-01-31 15:17:46</time>
      </trkpt>
      <trkpt lat="38.75103" lon="-0.15651">
        <ele>422</ele>
        <time>2021-01-31 15:17:47</time>
      </trkpt>
      <trkpt lat="38.75111" lon="-0.15644">
        <ele>422</ele>
        <time>2021-01-31 15:17:48</time>
      </trkpt>
      <trkpt lat="38.7512" lon="-0.15638">
        <ele>422</ele>
        <time>2021-01-31 15:17:49</time>
      </trkpt>
      <trkpt lat="38.75128" lon="-0.15632">
        <ele>422</ele>
        <time>2021-01-31 15:17:50</time>
      </trkpt>
      <trkpt lat="38.75137" lon="-0.15627">
        <ele>422</ele>
        <time>2021-01-31 15:17:51</time>
      </trkpt>
      <trkpt lat="38.75146" lon="-0.15622">
        <ele>422</ele>
        <time>2021-01-31 15:17:52</time>
      </trkpt>
      <trkpt lat="38.75155" lon="-0.15617">
        <ele>422</ele>
        <time>2021-01-31 15:17:53</time>
      </trkpt>
      <trkpt lat="38.75164" lon="-0.15613">
        <ele>422</ele>
        <time>2021-01-31 15:17:54</time>
      </trkpt>
      <trkpt lat="38.75164" lon="-0.15613">
        <ele>421</ele>
        <time>2021-01-31 15:17:55</time>
      </trkpt>
      <trkpt lat="38.75181" lon="-0.15606">
        <ele>420</ele>
        <time>2021-01-31 15:17:56</time>
      </trkpt>
      <trkpt lat="38.7519" lon="-0.15603">
        <ele>420</ele>
        <time>2021-01-31 15:17:57</time>
      </trkpt>
      <trkpt lat="38.75199" lon="-0.15599">
        <ele>420</ele>
        <time>2021-01-31 15:17:58</time>
      </trkpt>
      <trkpt lat="38.75209" lon="-0.15596">
        <ele>421</ele>
        <time>2021-01-31 15:17:59</time>
      </trkpt>
      <trkpt lat="38.75218" lon="-0.15593">
        <ele>422</ele>
        <time>2021-01-31 15:18:00</time>
      </trkpt>
      <trkpt lat="38.75227" lon="-0.15589">
        <ele>423</ele>
        <time>2021-01-31 15:18:01</time>
      </trkpt>
      <trkpt lat="38.75236" lon="-0.15586">
        <ele>423</ele>
        <time>2021-01-31 15:18:02</time>
      </trkpt>
      <trkpt lat="38.75245" lon="-0.15582">
        <ele>423</ele>
        <time>2021-01-31 15:18:03</time>
      </trkpt>
      <trkpt lat="38.75254" lon="-0.15579">
        <ele>423</ele>
        <time>2021-01-31 15:18:04</time>
      </trkpt>
      <trkpt lat="38.75263" lon="-0.15575">
        <ele>424</ele>
        <time>2021-01-31 15:18:05</time>
      </trkpt>
      <trkpt lat="38.75272" lon="-0.1557">
        <ele>425</ele>
        <time>2021-01-31 15:18:06</time>
      </trkpt>
      <trkpt lat="38.7528" lon="-0.15564">
        <ele>425</ele>
        <time>2021-01-31 15:18:07</time>
      </trkpt>
      <trkpt lat="38.75289" lon="-0.15558">
        <ele>425</ele>
        <time>2021-01-31 15:18:08</time>
      </trkpt>
      <trkpt lat="38.75297" lon="-0.15551">
        <ele>424.4</ele>
        <time>2021-01-31 15:18:09</time>
      </trkpt>
      <trkpt lat="38.75305" lon="-0.15543">
        <ele>424.4</ele>
        <time>2021-01-31 15:18:10</time>
      </trkpt>
      <trkpt lat="38.75312" lon="-0.15535">
        <ele>424.4</ele>
        <time>2021-01-31 15:18:11</time>
      </trkpt>
      <trkpt lat="38.75318" lon="-0.15526">
        <ele>425.4</ele>
        <time>2021-01-31 15:18:12</time>
      </trkpt>
      <trkpt lat="38.75324" lon="-0.15516">
        <ele>425.4</ele>
        <time>2021-01-31 15:18:13</time>
      </trkpt>
      <trkpt lat="38.7533" lon="-0.15506">
        <ele>426.2</ele>
        <time>2021-01-31 15:18:14</time>
      </trkpt>
      <trkpt lat="38.75335" lon="-0.15494">
        <ele>426.2</ele>
        <time>2021-01-31 15:18:15</time>
      </trkpt>
      <trkpt lat="38.75339" lon="-0.15482">
        <ele>426.2</ele>
        <time>2021-01-31 15:18:16</time>
      </trkpt>
      <trkpt lat="38.75342" lon="-0.1547">
        <ele>426.2</ele>
        <time>2021-01-31 15:18:17</time>
      </trkpt>
      <trkpt lat="38.75343" lon="-0.15457">
        <ele>426.8</ele>
        <time>2021-01-31 15:18:18</time>
      </trkpt>
      <trkpt lat="38.75346" lon="-0.15445">
        <ele>426.8</ele>
        <time>2021-01-31 15:18:19</time>
      </trkpt>
      <trkpt lat="38.75349" lon="-0.15432">
        <ele>426.8</ele>
        <time>2021-01-31 15:18:20</time>
      </trkpt>
      <trkpt lat="38.75351" lon="-0.1542">
        <ele>426.8</ele>
        <time>2021-01-31 15:18:21</time>
      </trkpt>
      <trkpt lat="38.75353" lon="-0.15407">
        <ele>426.8</ele>
        <time>2021-01-31 15:18:22</time>
      </trkpt>
      <trkpt lat="38.75355" lon="-0.15394">
        <ele>426.8</ele>
        <time>2021-01-31 15:18:23</time>
      </trkpt>
      <trkpt lat="38.75357" lon="-0.15381">
        <ele>425.8</ele>
        <time>2021-01-31 15:18:24</time>
      </trkpt>
      <trkpt lat="38.75358" lon="-0.15367">
        <ele>425.8</ele>
        <time>2021-01-31 15:18:25</time>
      </trkpt>
      <trkpt lat="38.75358" lon="-0.15367">
        <ele>423.8</ele>
        <time>2021-01-31 15:18:26</time>
      </trkpt>
      <trkpt lat="38.75361" lon="-0.15339">
        <ele>423.8</ele>
        <time>2021-01-31 15:18:27</time>
      </trkpt>
      <trkpt lat="38.75361" lon="-0.15339">
        <ele>422.2</ele>
        <time>2021-01-31 15:18:28</time>
      </trkpt>
      <trkpt lat="38.75363" lon="-0.15311">
        <ele>422.2</ele>
        <time>2021-01-31 15:18:29</time>
      </trkpt>
      <trkpt lat="38.75363" lon="-0.15311">
        <ele>421</ele>
        <time>2021-01-31 15:18:30</time>
      </trkpt>
      <trkpt lat="38.75364" lon="-0.15283">
        <ele>421</ele>
        <time>2021-01-31 15:18:31</time>
      </trkpt>
      <trkpt lat="38.75364" lon="-0.15283">
        <ele>419.8</ele>
        <time>2021-01-31 15:18:32</time>
      </trkpt>
      <trkpt lat="38.75363" lon="-0.15253">
        <ele>419.8</ele>
        <time>2021-01-31 15:18:33</time>
      </trkpt>
      <trkpt lat="38.75363" lon="-0.15238">
        <ele>419.8</ele>
        <time>2021-01-31 15:18:34</time>
      </trkpt>
      <trkpt lat="38.75363" lon="-0.15238">
        <ele>419.8</ele>
        <time>2021-01-31 15:18:35</time>
      </trkpt>
      <trkpt lat="38.75363" lon="-0.15238">
        <ele>418.8</ele>
        <time>2021-01-31 15:18:36</time>
      </trkpt>
      <trkpt lat="38.75361" lon="-0.15192">
        <ele>418.8</ele>
        <time>2021-01-31 15:18:37</time>
      </trkpt>
      <trkpt lat="38.75361" lon="-0.15192">
        <ele>417.2</ele>
        <time>2021-01-31 15:18:38</time>
      </trkpt>
      <trkpt lat="38.75362" lon="-0.15159">
        <ele>417.2</ele>
        <time>2021-01-31 15:18:39</time>
      </trkpt>
      <trkpt lat="38.75362" lon="-0.15159">
        <ele>415.2</ele>
        <time>2021-01-31 15:18:40</time>
      </trkpt>
      <trkpt lat="38.75364" lon="-0.15125">
        <ele>415.2</ele>
        <time>2021-01-31 15:18:41</time>
      </trkpt>
      <trkpt lat="38.75364" lon="-0.15125">
        <ele>413.2</ele>
        <time>2021-01-31 15:18:42</time>
      </trkpt>
      <trkpt lat="38.75367" lon="-0.1509">
        <ele>412.2</ele>
        <time>2021-01-31 15:18:43</time>
      </trkpt>
      <trkpt lat="38.75369" lon="-0.15073">
        <ele>411.2</ele>
        <time>2021-01-31 15:18:44</time>
      </trkpt>
      <trkpt lat="38.75371" lon="-0.15056">
        <ele>410.2</ele>
        <time>2021-01-31 15:18:45</time>
      </trkpt>
      <trkpt lat="38.75373" lon="-0.15038">
        <ele>409.2</ele>
        <time>2021-01-31 15:18:46</time>
      </trkpt>
      <trkpt lat="38.75375" lon="-0.15021">
        <ele>409.2</ele>
        <time>2021-01-31 15:18:47</time>
      </trkpt>
      <trkpt lat="38.75377" lon="-0.15004">
        <ele>409.2</ele>
        <time>2021-01-31 15:18:48</time>
      </trkpt>
      <trkpt lat="38.75379" lon="-0.14987">
        <ele>409.2</ele>
        <time>2021-01-31 15:18:49</time>
      </trkpt>
      <trkpt lat="38.75381" lon="-0.1497">
        <ele>409.2</ele>
        <time>2021-01-31 15:18:50</time>
      </trkpt>
      <trkpt lat="38.75383" lon="-0.14953">
        <ele>408.2</ele>
        <time>2021-01-31 15:18:51</time>
      </trkpt>
      <trkpt lat="38.75385" lon="-0.14937">
        <ele>408.2</ele>
        <time>2021-01-31 15:18:52</time>
      </trkpt>
      <trkpt lat="38.75387" lon="-0.14921">
        <ele>408.2</ele>
        <time>2021-01-31 15:18:53</time>
      </trkpt>
      <trkpt lat="38.75389" lon="-0.14905">
        <ele>408.2</ele>
        <time>2021-01-31 15:18:54</time>
      </trkpt>
      <trkpt lat="38.75389" lon="-0.14905">
        <ele>408.2</ele>
        <time>2021-01-31 15:18:55</time>
      </trkpt>
      <trkpt lat="38.75392" lon="-0.14875">
        <ele>408.2</ele>
        <time>2021-01-31 15:18:56</time>
      </trkpt>
      <trkpt lat="38.75394" lon="-0.1486">
        <ele>408.2</ele>
        <time>2021-01-31 15:18:57</time>
      </trkpt>
      <trkpt lat="38.75396" lon="-0.14846">
        <ele>408.2</ele>
        <time>2021-01-31 15:18:58</time>
      </trkpt>
      <trkpt lat="38.75398" lon="-0.14831">
        <ele>408.2</ele>
        <time>2021-01-31 15:18:59</time>
      </trkpt>
      <trkpt lat="38.75399" lon="-0.14817">
        <ele>408.2</ele>
        <time>2021-01-31 15:19:00</time>
      </trkpt>
      <trkpt lat="38.75401" lon="-0.14803">
        <ele>409.2</ele>
        <time>2021-01-31 15:19:01</time>
      </trkpt>
      <trkpt lat="38.75402" lon="-0.1479">
        <ele>409.2</ele>
        <time>2021-01-31 15:19:02</time>
      </trkpt>
      <trkpt lat="38.75404" lon="-0.14776">
        <ele>409.2</ele>
        <time>2021-01-31 15:19:03</time>
      </trkpt>
      <trkpt lat="38.75406" lon="-0.14762">
        <ele>409</ele>
        <time>2021-01-31 15:19:04</time>
      </trkpt>
      <trkpt lat="38.75407" lon="-0.14749">
        <ele>409</ele>
        <time>2021-01-31 15:19:05</time>
      </trkpt>
      <trkpt lat="38.75409" lon="-0.14736">
        <ele>409</ele>
        <time>2021-01-31 15:19:06</time>
      </trkpt>
      <trkpt lat="38.75409" lon="-0.14736">
        <ele>410</ele>
        <time>2021-01-31 15:19:07</time>
      </trkpt>
      <trkpt lat="38.75412" lon="-0.1471">
        <ele>410</ele>
        <time>2021-01-31 15:19:08</time>
      </trkpt>
      <trkpt lat="38.75412" lon="-0.1471">
        <ele>411.2</ele>
        <time>2021-01-31 15:19:09</time>
      </trkpt>
      <trkpt lat="38.75415" lon="-0.14684">
        <ele>411.2</ele>
        <time>2021-01-31 15:19:10</time>
      </trkpt>
      <trkpt lat="38.75415" lon="-0.14684">
        <ele>411.2</ele>
        <time>2021-01-31 15:19:11</time>
      </trkpt>
      <trkpt lat="38.75418" lon="-0.14659">
        <ele>411.2</ele>
        <time>2021-01-31 15:19:12</time>
      </trkpt>
      <trkpt lat="38.75418" lon="-0.14659">
        <ele>410.2</ele>
        <time>2021-01-31 15:19:13</time>
      </trkpt>
      <trkpt lat="38.75421" lon="-0.14633">
        <ele>410.2</ele>
        <time>2021-01-31 15:19:14</time>
      </trkpt>
      <trkpt lat="38.75421" lon="-0.14633">
        <ele>411.2</ele>
        <time>2021-01-31 15:19:15</time>
      </trkpt>
      <trkpt lat="38.75424" lon="-0.14608">
        <ele>411.2</ele>
        <time>2021-01-31 15:19:16</time>
      </trkpt>
      <trkpt lat="38.75424" lon="-0.14608">
        <ele>411.2</ele>
        <time>2021-01-31 15:19:17</time>
      </trkpt>
      <trkpt lat="38.75428" lon="-0.14582">
        <ele>411.2</ele>
        <time>2021-01-31 15:19:18</time>
      </trkpt>
      <trkpt lat="38.75428" lon="-0.14582">
        <ele>410.8</ele>
        <time>2021-01-31 15:19:19</time>
      </trkpt>
      <trkpt lat="38.7543" lon="-0.14556">
        <ele>410.8</ele>
        <time>2021-01-31 15:19:20</time>
      </trkpt>
      <trkpt lat="38.75432" lon="-0.14543">
        <ele>410.8</ele>
        <time>2021-01-31 15:19:21</time>
      </trkpt>
      <trkpt lat="38.75433" lon="-0.1453">
        <ele>410.8</ele>
        <time>2021-01-31 15:19:22</time>
      </trkpt>
      <trkpt lat="38.75435" lon="-0.14517">
        <ele>410.8</ele>
        <time>2021-01-31 15:19:23</time>
      </trkpt>
      <trkpt lat="38.75436" lon="-0.14504">
        <ele>410.8</ele>
        <time>2021-01-31 15:19:24</time>
      </trkpt>
      <trkpt lat="38.75438" lon="-0.14491">
        <ele>410.8</ele>
        <time>2021-01-31 15:19:25</time>
      </trkpt>
      <trkpt lat="38.75439" lon="-0.14479">
        <ele>410.8</ele>
        <time>2021-01-31 15:19:26</time>
      </trkpt>
      <trkpt lat="38.75441" lon="-0.14465">
        <ele>410.2</ele>
        <time>2021-01-31 15:19:27</time>
      </trkpt>
      <trkpt lat="38.75442" lon="-0.14452">
        <ele>409.2</ele>
        <time>2021-01-31 15:19:28</time>
      </trkpt>
      <trkpt lat="38.75444" lon="-0.14438">
        <ele>409.2</ele>
        <time>2021-01-31 15:19:29</time>
      </trkpt>
      <trkpt lat="38.75446" lon="-0.14424">
        <ele>409.2</ele>
        <time>2021-01-31 15:19:30</time>
      </trkpt>
      <trkpt lat="38.75447" lon="-0.1441">
        <ele>409.2</ele>
        <time>2021-01-31 15:19:31</time>
      </trkpt>
      <trkpt lat="38.75449" lon="-0.14396">
        <ele>409.2</ele>
        <time>2021-01-31 15:19:32</time>
      </trkpt>
      <trkpt lat="38.75452" lon="-0.14382">
        <ele>409.2</ele>
        <time>2021-01-31 15:19:33</time>
      </trkpt>
      <trkpt lat="38.75452" lon="-0.14382">
        <ele>407.2</ele>
        <time>2021-01-31 15:19:34</time>
      </trkpt>
      <trkpt lat="38.75459" lon="-0.14354">
        <ele>406.4</ele>
        <time>2021-01-31 15:19:35</time>
      </trkpt>
      <trkpt lat="38.75464" lon="-0.14341">
        <ele>406.4</ele>
        <time>2021-01-31 15:19:36</time>
      </trkpt>
      <trkpt lat="38.75464" lon="-0.14341">
        <ele>405.4</ele>
        <time>2021-01-31 15:19:37</time>
      </trkpt>
      <trkpt lat="38.75476" lon="-0.14315">
        <ele>405.4</ele>
        <time>2021-01-31 15:19:38</time>
      </trkpt>
      <trkpt lat="38.75476" lon="-0.14315">
        <ele>405.4</ele>
        <time>2021-01-31 15:19:39</time>
      </trkpt>
      <trkpt lat="38.75492" lon="-0.1429">
        <ele>405.4</ele>
        <time>2021-01-31 15:19:40</time>
      </trkpt>
      <trkpt lat="38.75492" lon="-0.1429">
        <ele>405.4</ele>
        <time>2021-01-31 15:19:41</time>
      </trkpt>
      <trkpt lat="38.75492" lon="-0.1429">
        <ele>402.4</ele>
        <time>2021-01-31 15:19:42</time>
      </trkpt>
      <trkpt lat="38.75516" lon="-0.14253">
        <ele>402.4</ele>
        <time>2021-01-31 15:19:43</time>
      </trkpt>
      <trkpt lat="38.75516" lon="-0.14253">
        <ele>402.4</ele>
        <time>2021-01-31 15:19:44</time>
      </trkpt>
      <trkpt lat="38.75516" lon="-0.14253">
        <ele>399.8</ele>
        <time>2021-01-31 15:19:45</time>
      </trkpt>
      <trkpt lat="38.75538" lon="-0.14215">
        <ele>399.8</ele>
        <time>2021-01-31 15:19:46</time>
      </trkpt>
      <trkpt lat="38.75538" lon="-0.14215">
        <ele>398</ele>
        <time>2021-01-31 15:19:47</time>
      </trkpt>
      <trkpt lat="38.75549" lon="-0.14188">
        <ele>398</ele>
        <time>2021-01-31 15:19:48</time>
      </trkpt>
      <trkpt lat="38.75549" lon="-0.14188">
        <ele>398</ele>
        <time>2021-01-31 15:19:49</time>
      </trkpt>
      <trkpt lat="38.75549" lon="-0.14188">
        <ele>398</ele>
        <time>2021-01-31 15:19:50</time>
      </trkpt>
      <trkpt lat="38.75562" lon="-0.14145">
        <ele>398</ele>
        <time>2021-01-31 15:19:51</time>
      </trkpt>
      <trkpt lat="38.75562" lon="-0.14145">
        <ele>398</ele>
        <time>2021-01-31 15:19:52</time>
      </trkpt>
      <trkpt lat="38.75569" lon="-0.14117">
        <ele>398</ele>
        <time>2021-01-31 15:19:53</time>
      </trkpt>
      <trkpt lat="38.75569" lon="-0.14117">
        <ele>396.4</ele>
        <time>2021-01-31 15:19:54</time>
      </trkpt>
      <trkpt lat="38.75575" lon="-0.14089">
        <ele>396.4</ele>
        <time>2021-01-31 15:19:55</time>
      </trkpt>
      <trkpt lat="38.75575" lon="-0.14089">
        <ele>396.4</ele>
        <time>2021-01-31 15:19:56</time>
      </trkpt>
      <trkpt lat="38.7558" lon="-0.14061">
        <ele>396.4</ele>
        <time>2021-01-31 15:19:57</time>
      </trkpt>
      <trkpt lat="38.7558" lon="-0.14061">
        <ele>396.4</ele>
        <time>2021-01-31 15:19:58</time>
      </trkpt>
      <trkpt lat="38.7558" lon="-0.14061">
        <ele>396.4</ele>
        <time>2021-01-31 15:19:59</time>
      </trkpt>
      <trkpt lat="38.75585" lon="-0.14019">
        <ele>396.4</ele>
        <time>2021-01-31 15:20:00</time>
      </trkpt>
      <trkpt lat="38.75585" lon="-0.14019">
        <ele>396.4</ele>
        <time>2021-01-31 15:20:01</time>
      </trkpt>
      <trkpt lat="38.75585" lon="-0.14019">
        <ele>396.8</ele>
        <time>2021-01-31 15:20:02</time>
      </trkpt>
      <trkpt lat="38.7559" lon="-0.13976">
        <ele>396.8</ele>
        <time>2021-01-31 15:20:03</time>
      </trkpt>
      <trkpt lat="38.7559" lon="-0.13976">
        <ele>395.8</ele>
        <time>2021-01-31 15:20:04</time>
      </trkpt>
      <trkpt lat="38.75593" lon="-0.13948">
        <ele>395.8</ele>
        <time>2021-01-31 15:20:05</time>
      </trkpt>
      <trkpt lat="38.75593" lon="-0.13948">
        <ele>395.8</ele>
        <time>2021-01-31 15:20:06</time>
      </trkpt>
      <trkpt lat="38.75594" lon="-0.13919">
        <ele>394.8</ele>
        <time>2021-01-31 15:20:07</time>
      </trkpt>
      <trkpt lat="38.75593" lon="-0.13905">
        <ele>394.2</ele>
        <time>2021-01-31 15:20:08</time>
      </trkpt>
      <trkpt lat="38.75591" lon="-0.13891">
        <ele>394.2</ele>
        <time>2021-01-31 15:20:09</time>
      </trkpt>
      <trkpt lat="38.75588" lon="-0.13877">
        <ele>394.2</ele>
        <time>2021-01-31 15:20:10</time>
      </trkpt>
      <trkpt lat="38.75584" lon="-0.13863">
        <ele>394.2</ele>
        <time>2021-01-31 15:20:11</time>
      </trkpt>
      <trkpt lat="38.75579" lon="-0.13849">
        <ele>393.2</ele>
        <time>2021-01-31 15:20:12</time>
      </trkpt>
      <trkpt lat="38.75573" lon="-0.13836">
        <ele>392.2</ele>
        <time>2021-01-31 15:20:13</time>
      </trkpt>
      <trkpt lat="38.75567" lon="-0.13824">
        <ele>391.2</ele>
        <time>2021-01-31 15:20:14</time>
      </trkpt>
      <trkpt lat="38.75559" lon="-0.13812">
        <ele>390.2</ele>
        <time>2021-01-31 15:20:15</time>
      </trkpt>
      <trkpt lat="38.75551" lon="-0.138">
        <ele>389.2</ele>
        <time>2021-01-31 15:20:16</time>
      </trkpt>
      <trkpt lat="38.75541" lon="-0.1379">
        <ele>388.2</ele>
        <time>2021-01-31 15:20:17</time>
      </trkpt>
      <trkpt lat="38.75532" lon="-0.1378">
        <ele>387.6</ele>
        <time>2021-01-31 15:20:18</time>
      </trkpt>
      <trkpt lat="38.75522" lon="-0.13769">
        <ele>387.6</ele>
        <time>2021-01-31 15:20:19</time>
      </trkpt>
      <trkpt lat="38.75522" lon="-0.13769">
        <ele>386.2</ele>
        <time>2021-01-31 15:20:20</time>
      </trkpt>
      <trkpt lat="38.75504" lon="-0.13748">
        <ele>386.2</ele>
        <time>2021-01-31 15:20:21</time>
      </trkpt>
      <trkpt lat="38.75504" lon="-0.13748">
        <ele>386</ele>
        <time>2021-01-31 15:20:22</time>
      </trkpt>
      <trkpt lat="38.75489" lon="-0.13722">
        <ele>386</ele>
        <time>2021-01-31 15:20:23</time>
      </trkpt>
      <trkpt lat="38.75489" lon="-0.13722">
        <ele>386</ele>
        <time>2021-01-31 15:20:24</time>
      </trkpt>
      <trkpt lat="38.75477" lon="-0.13696">
        <ele>386</ele>
        <time>2021-01-31 15:20:25</time>
      </trkpt>
      <trkpt lat="38.75477" lon="-0.13696">
        <ele>385</ele>
        <time>2021-01-31 15:20:26</time>
      </trkpt>
      <trkpt lat="38.7547" lon="-0.13667">
        <ele>385</ele>
        <time>2021-01-31 15:20:27</time>
      </trkpt>
      <trkpt lat="38.7547" lon="-0.13667">
        <ele>385</ele>
        <time>2021-01-31 15:20:28</time>
      </trkpt>
      <trkpt lat="38.75467" lon="-0.13639">
        <ele>385</ele>
        <time>2021-01-31 15:20:29</time>
      </trkpt>
      <trkpt lat="38.75467" lon="-0.13639">
        <ele>385</ele>
        <time>2021-01-31 15:20:30</time>
      </trkpt>
      <trkpt lat="38.75467" lon="-0.1361">
        <ele>385</ele>
        <time>2021-01-31 15:20:31</time>
      </trkpt>
      <trkpt lat="38.75467" lon="-0.1361">
        <ele>386.4</ele>
        <time>2021-01-31 15:20:32</time>
      </trkpt>
      <trkpt lat="38.75471" lon="-0.13583">
        <ele>386.4</ele>
        <time>2021-01-31 15:20:33</time>
      </trkpt>
      <trkpt lat="38.75471" lon="-0.13583">
        <ele>386.4</ele>
        <time>2021-01-31 15:20:34</time>
      </trkpt>
      <trkpt lat="38.75477" lon="-0.13557">
        <ele>386.4</ele>
        <time>2021-01-31 15:20:35</time>
      </trkpt>
      <trkpt lat="38.75481" lon="-0.13544">
        <ele>386.4</ele>
        <time>2021-01-31 15:20:36</time>
      </trkpt>
      <trkpt lat="38.75486" lon="-0.13532">
        <ele>386.4</ele>
        <time>2021-01-31 15:20:37</time>
      </trkpt>
      <trkpt lat="38.7549" lon="-0.1352">
        <ele>386.4</ele>
        <time>2021-01-31 15:20:38</time>
      </trkpt>
      <trkpt lat="38.75495" lon="-0.13508">
        <ele>386.4</ele>
        <time>2021-01-31 15:20:39</time>
      </trkpt>
      <trkpt lat="38.755" lon="-0.13497">
        <ele>386.4</ele>
        <time>2021-01-31 15:20:40</time>
      </trkpt>
      <trkpt lat="38.75505" lon="-0.13486">
        <ele>386.4</ele>
        <time>2021-01-31 15:20:41</time>
      </trkpt>
      <trkpt lat="38.7551" lon="-0.13474">
        <ele>386.4</ele>
        <time>2021-01-31 15:20:42</time>
      </trkpt>
      <trkpt lat="38.75515" lon="-0.13463">
        <ele>386.4</ele>
        <time>2021-01-31 15:20:43</time>
      </trkpt>
      <trkpt lat="38.75519" lon="-0.13451">
        <ele>386</ele>
        <time>2021-01-31 15:20:44</time>
      </trkpt>
      <trkpt lat="38.75524" lon="-0.13439">
        <ele>385.4</ele>
        <time>2021-01-31 15:20:45</time>
      </trkpt>
      <trkpt lat="38.75528" lon="-0.13427">
        <ele>385</ele>
        <time>2021-01-31 15:20:46</time>
      </trkpt>
      <trkpt lat="38.75532" lon="-0.13415">
        <ele>384.6</ele>
        <time>2021-01-31 15:20:47</time>
      </trkpt>
      <trkpt lat="38.75535" lon="-0.13402">
        <ele>384.4</ele>
        <time>2021-01-31 15:20:48</time>
      </trkpt>
      <trkpt lat="38.75538" lon="-0.13389">
        <ele>383.4</ele>
        <time>2021-01-31 15:20:49</time>
      </trkpt>
      <trkpt lat="38.75541" lon="-0.13375">
        <ele>383.2</ele>
        <time>2021-01-31 15:20:50</time>
      </trkpt>
      <trkpt lat="38.75543" lon="-0.13362">
        <ele>383.2</ele>
        <time>2021-01-31 15:20:51</time>
      </trkpt>
      <trkpt lat="38.75545" lon="-0.13348">
        <ele>383.2</ele>
        <time>2021-01-31 15:20:52</time>
      </trkpt>
      <trkpt lat="38.75547" lon="-0.13334">
        <ele>383.2</ele>
        <time>2021-01-31 15:20:53</time>
      </trkpt>
      <trkpt lat="38.75548" lon="-0.13319">
        <ele>383.2</ele>
        <time>2021-01-31 15:20:54</time>
      </trkpt>
      <trkpt lat="38.7555" lon="-0.13305">
        <ele>382.2</ele>
        <time>2021-01-31 15:20:55</time>
      </trkpt>
      <trkpt lat="38.75552" lon="-0.13291">
        <ele>381.2</ele>
        <time>2021-01-31 15:20:56</time>
      </trkpt>
      <trkpt lat="38.75554" lon="-0.13277">
        <ele>381.2</ele>
        <time>2021-01-31 15:20:57</time>
      </trkpt>
      <trkpt lat="38.75556" lon="-0.13262">
        <ele>381.2</ele>
        <time>2021-01-31 15:20:58</time>
      </trkpt>
      <trkpt lat="38.75559" lon="-0.13248">
        <ele>381.2</ele>
        <time>2021-01-31 15:20:59</time>
      </trkpt>
      <trkpt lat="38.75562" lon="-0.13234">
        <ele>380.2</ele>
        <time>2021-01-31 15:21:00</time>
      </trkpt>
      <trkpt lat="38.75564" lon="-0.13219">
        <ele>379.2</ele>
        <time>2021-01-31 15:21:01</time>
      </trkpt>
      <trkpt lat="38.75567" lon="-0.13205">
        <ele>378.2</ele>
        <time>2021-01-31 15:21:02</time>
      </trkpt>
      <trkpt lat="38.7557" lon="-0.1319">
        <ele>377.4</ele>
        <time>2021-01-31 15:21:03</time>
      </trkpt>
      <trkpt lat="38.75573" lon="-0.13176">
        <ele>377.4</ele>
        <time>2021-01-31 15:21:04</time>
      </trkpt>
      <trkpt lat="38.75576" lon="-0.13161">
        <ele>377.4</ele>
        <time>2021-01-31 15:21:05</time>
      </trkpt>
      <trkpt lat="38.75579" lon="-0.13147">
        <ele>377.4</ele>
        <time>2021-01-31 15:21:06</time>
      </trkpt>
      <trkpt lat="38.75582" lon="-0.13133">
        <ele>376.4</ele>
        <time>2021-01-31 15:21:07</time>
      </trkpt>
      <trkpt lat="38.75585" lon="-0.13118">
        <ele>376.4</ele>
        <time>2021-01-31 15:21:08</time>
      </trkpt>
      <trkpt lat="38.75587" lon="-0.13104">
        <ele>376.4</ele>
        <time>2021-01-31 15:21:09</time>
      </trkpt>
      <trkpt lat="38.7559" lon="-0.1309">
        <ele>376.4</ele>
        <time>2021-01-31 15:21:10</time>
      </trkpt>
      <trkpt lat="38.75593" lon="-0.13076">
        <ele>376.2</ele>
        <time>2021-01-31 15:21:11</time>
      </trkpt>
      <trkpt lat="38.75595" lon="-0.13062">
        <ele>375.6</ele>
        <time>2021-01-31 15:21:12</time>
      </trkpt>
      <trkpt lat="38.75597" lon="-0.13048">
        <ele>375.6</ele>
        <time>2021-01-31 15:21:13</time>
      </trkpt>
      <trkpt lat="38.75599" lon="-0.13034">
        <ele>375.6</ele>
        <time>2021-01-31 15:21:14</time>
      </trkpt>
      <trkpt lat="38.756" lon="-0.1302">
        <ele>375.6</ele>
        <time>2021-01-31 15:21:15</time>
      </trkpt>
      <trkpt lat="38.75601" lon="-0.13005">
        <ele>375.6</ele>
        <time>2021-01-31 15:21:16</time>
      </trkpt>
      <trkpt lat="38.75603" lon="-0.12991">
        <ele>375.6</ele>
        <time>2021-01-31 15:21:17</time>
      </trkpt>
      <trkpt lat="38.75603" lon="-0.12977">
        <ele>375.6</ele>
        <time>2021-01-31 15:21:18</time>
      </trkpt>
      <trkpt lat="38.75604" lon="-0.12963">
        <ele>375.6</ele>
        <time>2021-01-31 15:21:19</time>
      </trkpt>
      <trkpt lat="38.75604" lon="-0.12948">
        <ele>375.6</ele>
        <time>2021-01-31 15:21:20</time>
      </trkpt>
      <trkpt lat="38.75604" lon="-0.12934">
        <ele>375.6</ele>
        <time>2021-01-31 15:21:21</time>
      </trkpt>
      <trkpt lat="38.75604" lon="-0.1292">
        <ele>376.4</ele>
        <time>2021-01-31 15:21:22</time>
      </trkpt>
      <trkpt lat="38.75604" lon="-0.12906">
        <ele>376.4</ele>
        <time>2021-01-31 15:21:23</time>
      </trkpt>
      <trkpt lat="38.75603" lon="-0.12893">
        <ele>376.4</ele>
        <time>2021-01-31 15:21:24</time>
      </trkpt>
      <trkpt lat="38.75602" lon="-0.1288">
        <ele>375.8</ele>
        <time>2021-01-31 15:21:25</time>
      </trkpt>
      <trkpt lat="38.75601" lon="-0.12867">
        <ele>375</ele>
        <time>2021-01-31 15:21:26</time>
      </trkpt>
      <trkpt lat="38.756" lon="-0.12854">
        <ele>374.4</ele>
        <time>2021-01-31 15:21:27</time>
      </trkpt>
      <trkpt lat="38.75599" lon="-0.12841">
        <ele>374.4</ele>
        <time>2021-01-31 15:21:28</time>
      </trkpt>
      <trkpt lat="38.75598" lon="-0.12828">
        <ele>374.4</ele>
        <time>2021-01-31 15:21:29</time>
      </trkpt>
      <trkpt lat="38.75597" lon="-0.12816">
        <ele>375</ele>
        <time>2021-01-31 15:21:30</time>
      </trkpt>
      <trkpt lat="38.75596" lon="-0.12803">
        <ele>376</ele>
        <time>2021-01-31 15:21:31</time>
      </trkpt>
      <trkpt lat="38.75595" lon="-0.12791">
        <ele>376</ele>
        <time>2021-01-31 15:21:32</time>
      </trkpt>
      <trkpt lat="38.75594" lon="-0.12778">
        <ele>376</ele>
        <time>2021-01-31 15:21:33</time>
      </trkpt>
      <trkpt lat="38.75593" lon="-0.12766">
        <ele>376</ele>
        <time>2021-01-31 15:21:34</time>
      </trkpt>
      <trkpt lat="38.75592" lon="-0.12753">
        <ele>376</ele>
        <time>2021-01-31 15:21:35</time>
      </trkpt>
      <trkpt lat="38.75591" lon="-0.1274">
        <ele>376</ele>
        <time>2021-01-31 15:21:36</time>
      </trkpt>
      <trkpt lat="38.7559" lon="-0.12728">
        <ele>375</ele>
        <time>2021-01-31 15:21:37</time>
      </trkpt>
      <trkpt lat="38.75589" lon="-0.12715">
        <ele>374.8</ele>
        <time>2021-01-31 15:21:38</time>
      </trkpt>
      <trkpt lat="38.75589" lon="-0.12702">
        <ele>374.8</ele>
        <time>2021-01-31 15:21:39</time>
      </trkpt>
      <trkpt lat="38.75588" lon="-0.1269">
        <ele>373.8</ele>
        <time>2021-01-31 15:21:40</time>
      </trkpt>
      <trkpt lat="38.75587" lon="-0.12677">
        <ele>373.8</ele>
        <time>2021-01-31 15:21:41</time>
      </trkpt>
      <trkpt lat="38.75587" lon="-0.12664">
        <ele>373.8</ele>
        <time>2021-01-31 15:21:42</time>
      </trkpt>
      <trkpt lat="38.75586" lon="-0.12651">
        <ele>373.8</ele>
        <time>2021-01-31 15:21:43</time>
      </trkpt>
      <trkpt lat="38.75586" lon="-0.12638">
        <ele>372.8</ele>
        <time>2021-01-31 15:21:44</time>
      </trkpt>
      <trkpt lat="38.75586" lon="-0.12626">
        <ele>372.2</ele>
        <time>2021-01-31 15:21:45</time>
      </trkpt>
      <trkpt lat="38.75585" lon="-0.12613">
        <ele>372.2</ele>
        <time>2021-01-31 15:21:46</time>
      </trkpt>
      <trkpt lat="38.75585" lon="-0.126">
        <ele>372.2</ele>
        <time>2021-01-31 15:21:47</time>
      </trkpt>
      <trkpt lat="38.75585" lon="-0.12588">
        <ele>372.2</ele>
        <time>2021-01-31 15:21:48</time>
      </trkpt>
      <trkpt lat="38.75585" lon="-0.12575">
        <ele>372.2</ele>
        <time>2021-01-31 15:21:49</time>
      </trkpt>
      <trkpt lat="38.75585" lon="-0.12562">
        <ele>371.2</ele>
        <time>2021-01-31 15:21:50</time>
      </trkpt>
      <trkpt lat="38.75585" lon="-0.1255">
        <ele>371</ele>
        <time>2021-01-31 15:21:51</time>
      </trkpt>
      <trkpt lat="38.75585" lon="-0.12537">
        <ele>371</ele>
        <time>2021-01-31 15:21:52</time>
      </trkpt>
      <trkpt lat="38.75585" lon="-0.12525">
        <ele>371</ele>
        <time>2021-01-31 15:21:53</time>
      </trkpt>
      <trkpt lat="38.75586" lon="-0.12512">
        <ele>371</ele>
        <time>2021-01-31 15:21:54</time>
      </trkpt>
      <trkpt lat="38.75586" lon="-0.12499">
        <ele>371</ele>
        <time>2021-01-31 15:21:55</time>
      </trkpt>
      <trkpt lat="38.75586" lon="-0.12487">
        <ele>371</ele>
        <time>2021-01-31 15:21:56</time>
      </trkpt>
      <trkpt lat="38.75587" lon="-0.12474">
        <ele>371</ele>
        <time>2021-01-31 15:21:57</time>
      </trkpt>
      <trkpt lat="38.75587" lon="-0.12461">
        <ele>371</ele>
        <time>2021-01-31 15:21:58</time>
      </trkpt>
      <trkpt lat="38.75588" lon="-0.12448">
        <ele>371</ele>
        <time>2021-01-31 15:21:59</time>
      </trkpt>
      <trkpt lat="38.75589" lon="-0.12436">
        <ele>370.4</ele>
        <time>2021-01-31 15:22:00</time>
      </trkpt>
      <trkpt lat="38.75589" lon="-0.12423">
        <ele>370</ele>
        <time>2021-01-31 15:22:01</time>
      </trkpt>
      <trkpt lat="38.7559" lon="-0.1241">
        <ele>369.8</ele>
        <time>2021-01-31 15:22:02</time>
      </trkpt>
      <trkpt lat="38.75591" lon="-0.12397">
        <ele>369.8</ele>
        <time>2021-01-31 15:22:03</time>
      </trkpt>
      <trkpt lat="38.75592" lon="-0.12384">
        <ele>369.8</ele>
        <time>2021-01-31 15:22:04</time>
      </trkpt>
      <trkpt lat="38.75593" lon="-0.12371">
        <ele>370.8</ele>
        <time>2021-01-31 15:22:05</time>
      </trkpt>
      <trkpt lat="38.75594" lon="-0.12357">
        <ele>370.8</ele>
        <time>2021-01-31 15:22:06</time>
      </trkpt>
      <trkpt lat="38.75595" lon="-0.12344">
        <ele>370.8</ele>
        <time>2021-01-31 15:22:07</time>
      </trkpt>
      <trkpt lat="38.75596" lon="-0.1233">
        <ele>369.8</ele>
        <time>2021-01-31 15:22:08</time>
      </trkpt>
      <trkpt lat="38.75597" lon="-0.12317">
        <ele>368.8</ele>
        <time>2021-01-31 15:22:09</time>
      </trkpt>
      <trkpt lat="38.75597" lon="-0.12303">
        <ele>367.8</ele>
        <time>2021-01-31 15:22:10</time>
      </trkpt>
      <trkpt lat="38.75598" lon="-0.1229">
        <ele>367.8</ele>
        <time>2021-01-31 15:22:11</time>
      </trkpt>
      <trkpt lat="38.75598" lon="-0.12276">
        <ele>367.8</ele>
        <time>2021-01-31 15:22:12</time>
      </trkpt>
      <trkpt lat="38.756" lon="-0.12263">
        <ele>367.8</ele>
        <time>2021-01-31 15:22:13</time>
      </trkpt>
      <trkpt lat="38.756" lon="-0.12263">
        <ele>369</ele>
        <time>2021-01-31 15:22:14</time>
      </trkpt>
      <trkpt lat="38.75602" lon="-0.12236">
        <ele>369</ele>
        <time>2021-01-31 15:22:15</time>
      </trkpt>
      <trkpt lat="38.75602" lon="-0.12222">
        <ele>369</ele>
        <time>2021-01-31 15:22:16</time>
      </trkpt>
      <trkpt lat="38.75602" lon="-0.12208">
        <ele>369</ele>
        <time>2021-01-31 15:22:17</time>
      </trkpt>
      <trkpt lat="38.75602" lon="-0.12208">
        <ele>368.4</ele>
        <time>2021-01-31 15:22:18</time>
      </trkpt>
      <trkpt lat="38.75602" lon="-0.12182">
        <ele>368.4</ele>
        <time>2021-01-31 15:22:19</time>
      </trkpt>
      <trkpt lat="38.75602" lon="-0.12168">
        <ele>368.4</ele>
        <time>2021-01-31 15:22:20</time>
      </trkpt>
      <trkpt lat="38.75602" lon="-0.12155">
        <ele>367.4</ele>
        <time>2021-01-31 15:22:21</time>
      </trkpt>
      <trkpt lat="38.756" lon="-0.12142">
        <ele>367.4</ele>
        <time>2021-01-31 15:22:22</time>
      </trkpt>
      <trkpt lat="38.75599" lon="-0.12129">
        <ele>367.4</ele>
        <time>2021-01-31 15:22:23</time>
      </trkpt>
      <trkpt lat="38.75598" lon="-0.12116">
        <ele>368.4</ele>
        <time>2021-01-31 15:22:24</time>
      </trkpt>
      <trkpt lat="38.75597" lon="-0.12104">
        <ele>368.4</ele>
        <time>2021-01-31 15:22:25</time>
      </trkpt>
      <trkpt lat="38.75596" lon="-0.12091">
        <ele>368.4</ele>
        <time>2021-01-31 15:22:26</time>
      </trkpt>
      <trkpt lat="38.75594" lon="-0.12079">
        <ele>367.4</ele>
        <time>2021-01-31 15:22:27</time>
      </trkpt>
      <trkpt lat="38.75592" lon="-0.12066">
        <ele>367.2</ele>
        <time>2021-01-31 15:22:28</time>
      </trkpt>
      <trkpt lat="38.7559" lon="-0.12054">
        <ele>366.8</ele>
        <time>2021-01-31 15:22:29</time>
      </trkpt>
      <trkpt lat="38.75588" lon="-0.12042">
        <ele>366.8</ele>
        <time>2021-01-31 15:22:30</time>
      </trkpt>
      <trkpt lat="38.75586" lon="-0.1203">
        <ele>366.8</ele>
        <time>2021-01-31 15:22:31</time>
      </trkpt>
      <trkpt lat="38.75583" lon="-0.12018">
        <ele>366.8</ele>
        <time>2021-01-31 15:22:32</time>
      </trkpt>
      <trkpt lat="38.75581" lon="-0.12006">
        <ele>366.6</ele>
        <time>2021-01-31 15:22:33</time>
      </trkpt>
      <trkpt lat="38.75578" lon="-0.11995">
        <ele>366.6</ele>
        <time>2021-01-31 15:22:34</time>
      </trkpt>
      <trkpt lat="38.75575" lon="-0.11983">
        <ele>366.6</ele>
        <time>2021-01-31 15:22:35</time>
      </trkpt>
      <trkpt lat="38.75571" lon="-0.11972">
        <ele>366.6</ele>
        <time>2021-01-31 15:22:36</time>
      </trkpt>
      <trkpt lat="38.75568" lon="-0.11961">
        <ele>366.6</ele>
        <time>2021-01-31 15:22:37</time>
      </trkpt>
      <trkpt lat="38.75565" lon="-0.11949">
        <ele>366.6</ele>
        <time>2021-01-31 15:22:38</time>
      </trkpt>
      <trkpt lat="38.75561" lon="-0.11938">
        <ele>366.6</ele>
        <time>2021-01-31 15:22:39</time>
      </trkpt>
      <trkpt lat="38.75557" lon="-0.11927">
        <ele>366.6</ele>
        <time>2021-01-31 15:22:40</time>
      </trkpt>
      <trkpt lat="38.75553" lon="-0.11917">
        <ele>366.6</ele>
        <time>2021-01-31 15:22:41</time>
      </trkpt>
      <trkpt lat="38.75549" lon="-0.11907">
        <ele>366.6</ele>
        <time>2021-01-31 15:22:42</time>
      </trkpt>
      <trkpt lat="38.75545" lon="-0.11897">
        <ele>366.4</ele>
        <time>2021-01-31 15:22:43</time>
      </trkpt>
      <trkpt lat="38.75541" lon="-0.11887">
        <ele>366.4</ele>
        <time>2021-01-31 15:22:44</time>
      </trkpt>
      <trkpt lat="38.75537" lon="-0.11878">
        <ele>366.4</ele>
        <time>2021-01-31 15:22:45</time>
      </trkpt>
      <trkpt lat="38.75537" lon="-0.11878">
        <ele>366.4</ele>
        <time>2021-01-31 15:22:46</time>
      </trkpt>
      <trkpt lat="38.75529" lon="-0.1186">
        <ele>366.4</ele>
        <time>2021-01-31 15:22:47</time>
      </trkpt>
      <trkpt lat="38.75529" lon="-0.1186">
        <ele>365.4</ele>
        <time>2021-01-31 15:22:48</time>
      </trkpt>
      <trkpt lat="38.7552" lon="-0.11842">
        <ele>365.4</ele>
        <time>2021-01-31 15:22:49</time>
      </trkpt>
      <trkpt lat="38.7552" lon="-0.11842">
        <ele>365.4</ele>
        <time>2021-01-31 15:22:50</time>
      </trkpt>
      <trkpt lat="38.75511" lon="-0.11824">
        <ele>365.4</ele>
        <time>2021-01-31 15:22:51</time>
      </trkpt>
      <trkpt lat="38.75511" lon="-0.11824">
        <ele>365.4</ele>
        <time>2021-01-31 15:22:52</time>
      </trkpt>
      <trkpt lat="38.75501" lon="-0.11806">
        <ele>365.4</ele>
        <time>2021-01-31 15:22:53</time>
      </trkpt>
      <trkpt lat="38.75496" lon="-0.11797">
        <ele>365.4</ele>
        <time>2021-01-31 15:22:54</time>
      </trkpt>
      <trkpt lat="38.75491" lon="-0.11788">
        <ele>365.4</ele>
        <time>2021-01-31 15:22:55</time>
      </trkpt>
      <trkpt lat="38.75486" lon="-0.11779">
        <ele>365.4</ele>
        <time>2021-01-31 15:22:56</time>
      </trkpt>
      <trkpt lat="38.75481" lon="-0.1177">
        <ele>364.4</ele>
        <time>2021-01-31 15:22:57</time>
      </trkpt>
      <trkpt lat="38.75475" lon="-0.1176">
        <ele>364.2</ele>
        <time>2021-01-31 15:22:58</time>
      </trkpt>
      <trkpt lat="38.7547" lon="-0.11751">
        <ele>363.4</ele>
        <time>2021-01-31 15:22:59</time>
      </trkpt>
      <trkpt lat="38.75465" lon="-0.11741">
        <ele>362.8</ele>
        <time>2021-01-31 15:23:00</time>
      </trkpt>
      <trkpt lat="38.75459" lon="-0.1173">
        <ele>361.8</ele>
        <time>2021-01-31 15:23:01</time>
      </trkpt>
      <trkpt lat="38.75454" lon="-0.11719">
        <ele>361.2</ele>
        <time>2021-01-31 15:23:02</time>
      </trkpt>
      <trkpt lat="38.75449" lon="-0.11708">
        <ele>361.2</ele>
        <time>2021-01-31 15:23:03</time>
      </trkpt>
      <trkpt lat="38.75445" lon="-0.11696">
        <ele>361.2</ele>
        <time>2021-01-31 15:23:04</time>
      </trkpt>
      <trkpt lat="38.75441" lon="-0.11684">
        <ele>361.2</ele>
        <time>2021-01-31 15:23:05</time>
      </trkpt>
      <trkpt lat="38.75437" lon="-0.11672">
        <ele>361.2</ele>
        <time>2021-01-31 15:23:06</time>
      </trkpt>
      <trkpt lat="38.75433" lon="-0.11659">
        <ele>360.2</ele>
        <time>2021-01-31 15:23:07</time>
      </trkpt>
      <trkpt lat="38.75428" lon="-0.11646">
        <ele>359.6</ele>
        <time>2021-01-31 15:23:08</time>
      </trkpt>
      <trkpt lat="38.75424" lon="-0.11634">
        <ele>358.6</ele>
        <time>2021-01-31 15:23:09</time>
      </trkpt>
      <trkpt lat="38.75419" lon="-0.11621">
        <ele>357.6</ele>
        <time>2021-01-31 15:23:10</time>
      </trkpt>
      <trkpt lat="38.75415" lon="-0.11607">
        <ele>357</ele>
        <time>2021-01-31 15:23:11</time>
      </trkpt>
      <trkpt lat="38.75411" lon="-0.11594">
        <ele>357</ele>
        <time>2021-01-31 15:23:12</time>
      </trkpt>
      <trkpt lat="38.75411" lon="-0.11594">
        <ele>357</ele>
        <time>2021-01-31 15:23:13</time>
      </trkpt>
      <trkpt lat="38.75402" lon="-0.11567">
        <ele>357</ele>
        <time>2021-01-31 15:23:14</time>
      </trkpt>
      <trkpt lat="38.75402" lon="-0.11567">
        <ele>356</ele>
        <time>2021-01-31 15:23:15</time>
      </trkpt>
      <trkpt lat="38.75395" lon="-0.1154">
        <ele>356</ele>
        <time>2021-01-31 15:23:16</time>
      </trkpt>
      <trkpt lat="38.75395" lon="-0.1154">
        <ele>356</ele>
        <time>2021-01-31 15:23:17</time>
      </trkpt>
      <trkpt lat="38.7539" lon="-0.11513">
        <ele>356</ele>
        <time>2021-01-31 15:23:18</time>
      </trkpt>
      <trkpt lat="38.7539" lon="-0.11513">
        <ele>356</ele>
        <time>2021-01-31 15:23:19</time>
      </trkpt>
      <trkpt lat="38.75386" lon="-0.11485">
        <ele>356</ele>
        <time>2021-01-31 15:23:20</time>
      </trkpt>
      <trkpt lat="38.75386" lon="-0.11485">
        <ele>356</ele>
        <time>2021-01-31 15:23:21</time>
      </trkpt>
      <trkpt lat="38.75386" lon="-0.11485">
        <ele>355</ele>
        <time>2021-01-31 15:23:22</time>
      </trkpt>
      <trkpt lat="38.7538" lon="-0.11444">
        <ele>355</ele>
        <time>2021-01-31 15:23:23</time>
      </trkpt>
      <trkpt lat="38.7538" lon="-0.11444">
        <ele>355</ele>
        <time>2021-01-31 15:23:24</time>
      </trkpt>
      <trkpt lat="38.7538" lon="-0.11444">
        <ele>355</ele>
        <time>2021-01-31 15:23:25</time>
      </trkpt>
      <trkpt lat="38.75375" lon="-0.11402">
        <ele>355</ele>
        <time>2021-01-31 15:23:26</time>
      </trkpt>
      <trkpt lat="38.75375" lon="-0.11402">
        <ele>355</ele>
        <time>2021-01-31 15:23:27</time>
      </trkpt>
      <trkpt lat="38.75375" lon="-0.11402">
        <ele>354</ele>
        <time>2021-01-31 15:23:28</time>
      </trkpt>
      <trkpt lat="38.7537" lon="-0.11359">
        <ele>354</ele>
        <time>2021-01-31 15:23:29</time>
      </trkpt>
      <trkpt lat="38.7537" lon="-0.11359">
        <ele>354</ele>
        <time>2021-01-31 15:23:30</time>
      </trkpt>
      <trkpt lat="38.7537" lon="-0.11359">
        <ele>352.2</ele>
        <time>2021-01-31 15:23:31</time>
      </trkpt>
      <trkpt lat="38.75369" lon="-0.11315">
        <ele>352.2</ele>
        <time>2021-01-31 15:23:32</time>
      </trkpt>
      <trkpt lat="38.75369" lon="-0.11315">
        <ele>352.2</ele>
        <time>2021-01-31 15:23:33</time>
      </trkpt>
      <trkpt lat="38.75369" lon="-0.11315">
        <ele>352.2</ele>
        <time>2021-01-31 15:23:34</time>
      </trkpt>
      <trkpt lat="38.75377" lon="-0.11274">
        <ele>352.2</ele>
        <time>2021-01-31 15:23:35</time>
      </trkpt>
      <trkpt lat="38.75377" lon="-0.11274">
        <ele>352.2</ele>
        <time>2021-01-31 15:23:36</time>
      </trkpt>
      <trkpt lat="38.75383" lon="-0.11246">
        <ele>352.2</ele>
        <time>2021-01-31 15:23:37</time>
      </trkpt>
      <trkpt lat="38.75383" lon="-0.11246">
        <ele>351.2</ele>
        <time>2021-01-31 15:23:38</time>
      </trkpt>
      <trkpt lat="38.75389" lon="-0.11218">
        <ele>351.2</ele>
        <time>2021-01-31 15:23:39</time>
      </trkpt>
      <trkpt lat="38.75389" lon="-0.11218">
        <ele>351.2</ele>
        <time>2021-01-31 15:23:40</time>
      </trkpt>
      <trkpt lat="38.75391" lon="-0.1119">
        <ele>351.2</ele>
        <time>2021-01-31 15:23:41</time>
      </trkpt>
      <trkpt lat="38.75391" lon="-0.1119">
        <ele>349.2</ele>
        <time>2021-01-31 15:23:42</time>
      </trkpt>
      <trkpt lat="38.75391" lon="-0.11163">
        <ele>349.2</ele>
        <time>2021-01-31 15:23:43</time>
      </trkpt>
      <trkpt lat="38.75391" lon="-0.11163">
        <ele>349.2</ele>
        <time>2021-01-31 15:23:44</time>
      </trkpt>
      <trkpt lat="38.7539" lon="-0.11137">
        <ele>349.2</ele>
        <time>2021-01-31 15:23:45</time>
      </trkpt>
      <trkpt lat="38.7539" lon="-0.11137">
        <ele>350.4</ele>
        <time>2021-01-31 15:23:46</time>
      </trkpt>
      <trkpt lat="38.75388" lon="-0.11112">
        <ele>351</ele>
        <time>2021-01-31 15:23:47</time>
      </trkpt>
      <trkpt lat="38.75387" lon="-0.11099">
        <ele>351</ele>
        <time>2021-01-31 15:23:48</time>
      </trkpt>
      <trkpt lat="38.75385" lon="-0.11086">
        <ele>351</ele>
        <time>2021-01-31 15:23:49</time>
      </trkpt>
      <trkpt lat="38.75383" lon="-0.11074">
        <ele>350</ele>
        <time>2021-01-31 15:23:50</time>
      </trkpt>
      <trkpt lat="38.75381" lon="-0.11061">
        <ele>350</ele>
        <time>2021-01-31 15:23:51</time>
      </trkpt>
      <trkpt lat="38.75379" lon="-0.11049">
        <ele>349.4</ele>
        <time>2021-01-31 15:23:52</time>
      </trkpt>
      <trkpt lat="38.75376" lon="-0.11036">
        <ele>349.4</ele>
        <time>2021-01-31 15:23:53</time>
      </trkpt>
      <trkpt lat="38.75376" lon="-0.11036">
        <ele>349.2</ele>
        <time>2021-01-31 15:23:54</time>
      </trkpt>
      <trkpt lat="38.75371" lon="-0.11012">
        <ele>349.2</ele>
        <time>2021-01-31 15:23:55</time>
      </trkpt>
      <trkpt lat="38.75371" lon="-0.11012">
        <ele>349.2</ele>
        <time>2021-01-31 15:23:56</time>
      </trkpt>
      <trkpt lat="38.75363" lon="-0.1099">
        <ele>349.2</ele>
        <time>2021-01-31 15:23:57</time>
      </trkpt>
      <trkpt lat="38.75363" lon="-0.1099">
        <ele>349.6</ele>
        <time>2021-01-31 15:23:58</time>
      </trkpt>
      <trkpt lat="38.75355" lon="-0.10967">
        <ele>349.6</ele>
        <time>2021-01-31 15:23:59</time>
      </trkpt>
      <trkpt lat="38.75355" lon="-0.10967">
        <ele>349.6</ele>
        <time>2021-01-31 15:24:00</time>
      </trkpt>
      <trkpt lat="38.75346" lon="-0.10944">
        <ele>349.6</ele>
        <time>2021-01-31 15:24:01</time>
      </trkpt>
      <trkpt lat="38.75346" lon="-0.10944">
        <ele>348.6</ele>
        <time>2021-01-31 15:24:02</time>
      </trkpt>
      <trkpt lat="38.75337" lon="-0.10922">
        <ele>348.6</ele>
        <time>2021-01-31 15:24:03</time>
      </trkpt>
      <trkpt lat="38.75337" lon="-0.10922">
        <ele>346.6</ele>
        <time>2021-01-31 15:24:04</time>
      </trkpt>
      <trkpt lat="38.75326" lon="-0.109">
        <ele>346.6</ele>
        <time>2021-01-31 15:24:05</time>
      </trkpt>
      <trkpt lat="38.75326" lon="-0.109">
        <ele>345.6</ele>
        <time>2021-01-31 15:24:06</time>
      </trkpt>
      <trkpt lat="38.75326" lon="-0.109">
        <ele>345.6</ele>
        <time>2021-01-31 15:24:07</time>
      </trkpt>
      <trkpt lat="38.75306" lon="-0.10873">
        <ele>345.6</ele>
        <time>2021-01-31 15:24:08</time>
      </trkpt>
      <trkpt lat="38.75306" lon="-0.10873">
        <ele>345.6</ele>
        <time>2021-01-31 15:24:09</time>
      </trkpt>
      <trkpt lat="38.75299" lon="-0.10851">
        <ele>345.6</ele>
        <time>2021-01-31 15:24:10</time>
      </trkpt>
      <trkpt lat="38.75299" lon="-0.10851">
        <ele>345.6</ele>
        <time>2021-01-31 15:24:11</time>
      </trkpt>
      <trkpt lat="38.75291" lon="-0.10831">
        <ele>347.6</ele>
        <time>2021-01-31 15:24:12</time>
      </trkpt>
      <trkpt lat="38.75291" lon="-0.10831">
        <ele>347.6</ele>
        <time>2021-01-31 15:24:13</time>
      </trkpt>
      <trkpt lat="38.75283" lon="-0.10814">
        <ele>349.6</ele>
        <time>2021-01-31 15:24:14</time>
      </trkpt>
      <trkpt lat="38.75283" lon="-0.10814">
        <ele>349.6</ele>
        <time>2021-01-31 15:24:15</time>
      </trkpt>
      <trkpt lat="38.75275" lon="-0.108">
        <ele>350.6</ele>
        <time>2021-01-31 15:24:16</time>
      </trkpt>
      <trkpt lat="38.75275" lon="-0.108">
        <ele>350.6</ele>
        <time>2021-01-31 15:24:17</time>
      </trkpt>
      <trkpt lat="38.75267" lon="-0.10785">
        <ele>350.6</ele>
        <time>2021-01-31 15:24:18</time>
      </trkpt>
      <trkpt lat="38.75267" lon="-0.10785">
        <ele>350.6</ele>
        <time>2021-01-31 15:24:19</time>
      </trkpt>
      <trkpt lat="38.75262" lon="-0.10772">
        <ele>351.8</ele>
        <time>2021-01-31 15:24:20</time>
      </trkpt>
      <trkpt lat="38.75262" lon="-0.10772">
        <ele>351.8</ele>
        <time>2021-01-31 15:24:21</time>
      </trkpt>
      <trkpt lat="38.75257" lon="-0.10762">
        <ele>352.4</ele>
        <time>2021-01-31 15:24:22</time>
      </trkpt>
      <trkpt lat="38.75257" lon="-0.10762">
        <ele>352.4</ele>
        <time>2021-01-31 15:24:23</time>
      </trkpt>
      <trkpt lat="38.75252" lon="-0.1075">
        <ele>352.4</ele>
        <time>2021-01-31 15:24:24</time>
      </trkpt>
      <trkpt lat="38.7525" lon="-0.10744">
        <ele>352.4</ele>
        <time>2021-01-31 15:24:25</time>
      </trkpt>
      <trkpt lat="38.75248" lon="-0.10737">
        <ele>352.8</ele>
        <time>2021-01-31 15:24:26</time>
      </trkpt>
      <trkpt lat="38.75246" lon="-0.10732">
        <ele>352.8</ele>
        <time>2021-01-31 15:24:27</time>
      </trkpt>
      <trkpt lat="38.75244" lon="-0.10726">
        <ele>352.8</ele>
        <time>2021-01-31 15:24:28</time>
      </trkpt>
      <trkpt lat="38.75241" lon="-0.1072">
        <ele>352.8</ele>
        <time>2021-01-31 15:24:29</time>
      </trkpt>
      <trkpt lat="38.75239" lon="-0.10714">
        <ele>352.8</ele>
        <time>2021-01-31 15:24:30</time>
      </trkpt>
      <trkpt lat="38.75237" lon="-0.10709">
        <ele>353.4</ele>
        <time>2021-01-31 15:24:31</time>
      </trkpt>
      <trkpt lat="38.75235" lon="-0.10703">
        <ele>353.4</ele>
        <time>2021-01-31 15:24:32</time>
      </trkpt>
      <trkpt lat="38.75232" lon="-0.10698">
        <ele>353.4</ele>
        <time>2021-01-31 15:24:33</time>
      </trkpt>
      <trkpt lat="38.7523" lon="-0.10692">
        <ele>353.4</ele>
        <time>2021-01-31 15:24:34</time>
      </trkpt>
      <trkpt lat="38.75227" lon="-0.10687">
        <ele>353.4</ele>
        <time>2021-01-31 15:24:35</time>
      </trkpt>
      <trkpt lat="38.75224" lon="-0.10683">
        <ele>353.4</ele>
        <time>2021-01-31 15:24:36</time>
      </trkpt>
      <trkpt lat="38.75221" lon="-0.10678">
        <ele>353.4</ele>
        <time>2021-01-31 15:24:37</time>
      </trkpt>
      <trkpt lat="38.75218" lon="-0.10673">
        <ele>353.4</ele>
        <time>2021-01-31 15:24:38</time>
      </trkpt>
      <trkpt lat="38.75215" lon="-0.10669">
        <ele>354.4</ele>
        <time>2021-01-31 15:24:39</time>
      </trkpt>
      <trkpt lat="38.75211" lon="-0.10664">
        <ele>354.8</ele>
        <time>2021-01-31 15:24:40</time>
      </trkpt>
      <trkpt lat="38.75208" lon="-0.1066">
        <ele>355</ele>
        <time>2021-01-31 15:24:41</time>
      </trkpt>
      <trkpt lat="38.75204" lon="-0.10656">
        <ele>356</ele>
        <time>2021-01-31 15:24:42</time>
      </trkpt>
      <trkpt lat="38.75201" lon="-0.10652">
        <ele>356</ele>
        <time>2021-01-31 15:24:43</time>
      </trkpt>
      <trkpt lat="38.75197" lon="-0.10649">
        <ele>356</ele>
        <time>2021-01-31 15:24:44</time>
      </trkpt>
      <trkpt lat="38.75194" lon="-0.10645">
        <ele>356</ele>
        <time>2021-01-31 15:24:45</time>
      </trkpt>
      <trkpt lat="38.7519" lon="-0.10641">
        <ele>356</ele>
        <time>2021-01-31 15:24:46</time>
      </trkpt>
      <trkpt lat="38.75187" lon="-0.10637">
        <ele>356</ele>
        <time>2021-01-31 15:24:47</time>
      </trkpt>
      <trkpt lat="38.75183" lon="-0.10634">
        <ele>356</ele>
        <time>2021-01-31 15:24:48</time>
      </trkpt>
      <trkpt lat="38.75179" lon="-0.1063">
        <ele>356</ele>
        <time>2021-01-31 15:24:49</time>
      </trkpt>
      <trkpt lat="38.75175" lon="-0.10626">
        <ele>356</ele>
        <time>2021-01-31 15:24:50</time>
      </trkpt>
      <trkpt lat="38.75171" lon="-0.10622">
        <ele>356</ele>
        <time>2021-01-31 15:24:51</time>
      </trkpt>
      <trkpt lat="38.75167" lon="-0.10618">
        <ele>356</ele>
        <time>2021-01-31 15:24:52</time>
      </trkpt>
      <trkpt lat="38.75162" lon="-0.10614">
        <ele>356</ele>
        <time>2021-01-31 15:24:53</time>
      </trkpt>
      <trkpt lat="38.75158" lon="-0.10609">
        <ele>356</ele>
        <time>2021-01-31 15:24:54</time>
      </trkpt>
      <trkpt lat="38.75153" lon="-0.10604">
        <ele>356</ele>
        <time>2021-01-31 15:24:55</time>
      </trkpt>
      <trkpt lat="38.75148" lon="-0.106">
        <ele>356.8</ele>
        <time>2021-01-31 15:24:56</time>
      </trkpt>
      <trkpt lat="38.75144" lon="-0.10595">
        <ele>356.8</ele>
        <time>2021-01-31 15:24:57</time>
      </trkpt>
      <trkpt lat="38.75139" lon="-0.10591">
        <ele>356.8</ele>
        <time>2021-01-31 15:24:58</time>
      </trkpt>
      <trkpt lat="38.75134" lon="-0.10586">
        <ele>355.8</ele>
        <time>2021-01-31 15:24:59</time>
      </trkpt>
      <trkpt lat="38.75129" lon="-0.10582">
        <ele>355.8</ele>
        <time>2021-01-31 15:25:00</time>
      </trkpt>
      <trkpt lat="38.75124" lon="-0.10577">
        <ele>355.8</ele>
        <time>2021-01-31 15:25:01</time>
      </trkpt>
      <trkpt lat="38.75119" lon="-0.10572">
        <ele>355.8</ele>
        <time>2021-01-31 15:25:02</time>
      </trkpt>
      <trkpt lat="38.75115" lon="-0.10568">
        <ele>355.8</ele>
        <time>2021-01-31 15:25:03</time>
      </trkpt>
      <trkpt lat="38.7511" lon="-0.10563">
        <ele>355.2</ele>
        <time>2021-01-31 15:25:04</time>
      </trkpt>
      <trkpt lat="38.75105" lon="-0.10558">
        <ele>355.2</ele>
        <time>2021-01-31 15:25:05</time>
      </trkpt>
      <trkpt lat="38.751" lon="-0.10553">
        <ele>355.2</ele>
        <time>2021-01-31 15:25:06</time>
      </trkpt>
      <trkpt lat="38.75096" lon="-0.10547">
        <ele>355.6</ele>
        <time>2021-01-31 15:25:07</time>
      </trkpt>
      <trkpt lat="38.75092" lon="-0.1054">
        <ele>355.8</ele>
        <time>2021-01-31 15:25:08</time>
      </trkpt>
      <trkpt lat="38.7509" lon="-0.10533">
        <ele>355.8</ele>
        <time>2021-01-31 15:25:09</time>
      </trkpt>
      <trkpt lat="38.7509" lon="-0.10524">
        <ele>355.8</ele>
        <time>2021-01-31 15:25:10</time>
      </trkpt>
      <trkpt lat="38.75092" lon="-0.10516">
        <ele>354.8</ele>
        <time>2021-01-31 15:25:11</time>
      </trkpt>
      <trkpt lat="38.75096" lon="-0.10509">
        <ele>354.6</ele>
        <time>2021-01-31 15:25:12</time>
      </trkpt>
      <trkpt lat="38.751" lon="-0.10502">
        <ele>353.6</ele>
        <time>2021-01-31 15:25:13</time>
      </trkpt>
      <trkpt lat="38.75105" lon="-0.10496">
        <ele>353.6</ele>
        <time>2021-01-31 15:25:14</time>
      </trkpt>
      <trkpt lat="38.75111" lon="-0.10492">
        <ele>353.6</ele>
        <time>2021-01-31 15:25:15</time>
      </trkpt>
      <trkpt lat="38.75117" lon="-0.1049">
        <ele>354.4</ele>
        <time>2021-01-31 15:25:16</time>
      </trkpt>
      <trkpt lat="38.75122" lon="-0.10489">
        <ele>355</ele>
        <time>2021-01-31 15:25:17</time>
      </trkpt>
      <trkpt lat="38.75128" lon="-0.1049">
        <ele>356</ele>
        <time>2021-01-31 15:25:18</time>
      </trkpt>
      <trkpt lat="38.75134" lon="-0.10491">
        <ele>357</ele>
        <time>2021-01-31 15:25:19</time>
      </trkpt>
      <trkpt lat="38.7514" lon="-0.10491">
        <ele>358</ele>
        <time>2021-01-31 15:25:20</time>
      </trkpt>
      <trkpt lat="38.75146" lon="-0.10491">
        <ele>359</ele>
        <time>2021-01-31 15:25:21</time>
      </trkpt>
      <trkpt lat="38.75151" lon="-0.10488">
        <ele>360</ele>
        <time>2021-01-31 15:25:22</time>
      </trkpt>
      <trkpt lat="38.75155" lon="-0.10483">
        <ele>360.2</ele>
        <time>2021-01-31 15:25:23</time>
      </trkpt>
      <trkpt lat="38.75157" lon="-0.10477">
        <ele>360.2</ele>
        <time>2021-01-31 15:25:24</time>
      </trkpt>
      <trkpt lat="38.75159" lon="-0.1047">
        <ele>360.2</ele>
        <time>2021-01-31 15:25:25</time>
      </trkpt>
      <trkpt lat="38.7516" lon="-0.10464">
        <ele>360.2</ele>
        <time>2021-01-31 15:25:26</time>
      </trkpt>
      <trkpt lat="38.75162" lon="-0.10457">
        <ele>360.2</ele>
        <time>2021-01-31 15:25:27</time>
      </trkpt>
      <trkpt lat="38.75163" lon="-0.1045">
        <ele>359.8</ele>
        <time>2021-01-31 15:25:28</time>
      </trkpt>
      <trkpt lat="38.75164" lon="-0.10442">
        <ele>359.2</ele>
        <time>2021-01-31 15:25:29</time>
      </trkpt>
      <trkpt lat="38.75165" lon="-0.10435">
        <ele>358.6</ele>
        <time>2021-01-31 15:25:30</time>
      </trkpt>
      <trkpt lat="38.75166" lon="-0.10428">
        <ele>358.2</ele>
        <time>2021-01-31 15:25:31</time>
      </trkpt>
      <trkpt lat="38.75168" lon="-0.1042">
        <ele>358.2</ele>
        <time>2021-01-31 15:25:32</time>
      </trkpt>
      <trkpt lat="38.75169" lon="-0.10412">
        <ele>358.2</ele>
        <time>2021-01-31 15:25:33</time>
      </trkpt>
      <trkpt lat="38.7517" lon="-0.10404">
        <ele>358.2</ele>
        <time>2021-01-31 15:25:34</time>
      </trkpt>
      <trkpt lat="38.75172" lon="-0.10395">
        <ele>358.2</ele>
        <time>2021-01-31 15:25:35</time>
      </trkpt>
      <trkpt lat="38.75173" lon="-0.10387">
        <ele>358.2</ele>
        <time>2021-01-31 15:25:36</time>
      </trkpt>
      <trkpt lat="38.75175" lon="-0.10378">
        <ele>358.2</ele>
        <time>2021-01-31 15:25:37</time>
      </trkpt>
      <trkpt lat="38.75176" lon="-0.10369">
        <ele>358.2</ele>
        <time>2021-01-31 15:25:38</time>
      </trkpt>
      <trkpt lat="38.75177" lon="-0.1036">
        <ele>357.8</ele>
        <time>2021-01-31 15:25:39</time>
      </trkpt>
      <trkpt lat="38.75179" lon="-0.10351">
        <ele>357.8</ele>
        <time>2021-01-31 15:25:40</time>
      </trkpt>
      <trkpt lat="38.7518" lon="-0.10342">
        <ele>357.8</ele>
        <time>2021-01-31 15:25:41</time>
      </trkpt>
      <trkpt lat="38.75182" lon="-0.10334">
        <ele>358.8</ele>
        <time>2021-01-31 15:25:42</time>
      </trkpt>
      <trkpt lat="38.75183" lon="-0.10325">
        <ele>358.8</ele>
        <time>2021-01-31 15:25:43</time>
      </trkpt>
      <trkpt lat="38.75184" lon="-0.10316">
        <ele>359</ele>
        <time>2021-01-31 15:25:44</time>
      </trkpt>
      <trkpt lat="38.75186" lon="-0.10307">
        <ele>359</ele>
        <time>2021-01-31 15:25:45</time>
      </trkpt>
      <trkpt lat="38.75188" lon="-0.10299">
        <ele>359</ele>
        <time>2021-01-31 15:25:46</time>
      </trkpt>
      <trkpt lat="38.75189" lon="-0.10291">
        <ele>358.8</ele>
        <time>2021-01-31 15:25:47</time>
      </trkpt>
      <trkpt lat="38.75192" lon="-0.10282">
        <ele>358.8</ele>
        <time>2021-01-31 15:25:48</time>
      </trkpt>
      <trkpt lat="38.75195" lon="-0.10275">
        <ele>358.8</ele>
        <time>2021-01-31 15:25:49</time>
      </trkpt>
      <trkpt lat="38.75199" lon="-0.10267">
        <ele>359.2</ele>
        <time>2021-01-31 15:25:50</time>
      </trkpt>
      <trkpt lat="38.75203" lon="-0.1026">
        <ele>359.6</ele>
        <time>2021-01-31 15:25:51</time>
      </trkpt>
      <trkpt lat="38.75208" lon="-0.10253">
        <ele>359.6</ele>
        <time>2021-01-31 15:25:52</time>
      </trkpt>
      <trkpt lat="38.75213" lon="-0.10246">
        <ele>359.6</ele>
        <time>2021-01-31 15:25:53</time>
      </trkpt>
      <trkpt lat="38.75218" lon="-0.10238">
        <ele>359</ele>
        <time>2021-01-31 15:25:54</time>
      </trkpt>
      <trkpt lat="38.75223" lon="-0.1023">
        <ele>359</ele>
        <time>2021-01-31 15:25:55</time>
      </trkpt>
      <trkpt lat="38.75228" lon="-0.10221">
        <ele>359</ele>
        <time>2021-01-31 15:25:56</time>
      </trkpt>
      <trkpt lat="38.75233" lon="-0.10213">
        <ele>359</ele>
        <time>2021-01-31 15:25:57</time>
      </trkpt>
      <trkpt lat="38.75239" lon="-0.10204">
        <ele>359</ele>
        <time>2021-01-31 15:25:58</time>
      </trkpt>
      <trkpt lat="38.75244" lon="-0.10194">
        <ele>359</ele>
        <time>2021-01-31 15:25:59</time>
      </trkpt>
      <trkpt lat="38.75249" lon="-0.10184">
        <ele>359</ele>
        <time>2021-01-31 15:26:00</time>
      </trkpt>
      <trkpt lat="38.75249" lon="-0.10184">
        <ele>359</ele>
        <time>2021-01-31 15:26:01</time>
      </trkpt>
      <trkpt lat="38.75249" lon="-0.10184">
        <ele>355</ele>
        <time>2021-01-31 15:26:02</time>
      </trkpt>
      <trkpt lat="38.75249" lon="-0.10184">
        <ele>355</ele>
        <time>2021-01-31 15:26:03</time>
      </trkpt>
      <trkpt lat="38.75252" lon="-0.10134">
        <ele>355</ele>
        <time>2021-01-31 15:26:04</time>
      </trkpt>
      <trkpt lat="38.75252" lon="-0.10134">
        <ele>355</ele>
        <time>2021-01-31 15:26:05</time>
      </trkpt>
      <trkpt lat="38.75248" lon="-0.10108">
        <ele>355</ele>
        <time>2021-01-31 15:26:06</time>
      </trkpt>
      <trkpt lat="38.75248" lon="-0.10108">
        <ele>355</ele>
        <time>2021-01-31 15:26:07</time>
      </trkpt>
      <trkpt lat="38.75242" lon="-0.10081">
        <ele>353</ele>
        <time>2021-01-31 15:26:08</time>
      </trkpt>
      <trkpt lat="38.75242" lon="-0.10081">
        <ele>353</ele>
        <time>2021-01-31 15:26:09</time>
      </trkpt>
      <trkpt lat="38.75236" lon="-0.10053">
        <ele>351</ele>
        <time>2021-01-31 15:26:10</time>
      </trkpt>
      <trkpt lat="38.75236" lon="-0.10053">
        <ele>351</ele>
        <time>2021-01-31 15:26:11</time>
      </trkpt>
      <trkpt lat="38.75227" lon="-0.10027">
        <ele>349.8</ele>
        <time>2021-01-31 15:26:12</time>
      </trkpt>
      <trkpt lat="38.75227" lon="-0.10027">
        <ele>349.8</ele>
        <time>2021-01-31 15:26:13</time>
      </trkpt>
      <trkpt lat="38.75217" lon="-0.10001">
        <ele>348.8</ele>
        <time>2021-01-31 15:26:14</time>
      </trkpt>
      <trkpt lat="38.75217" lon="-0.10001">
        <ele>348.8</ele>
        <time>2021-01-31 15:26:15</time>
      </trkpt>
      <trkpt lat="38.75206" lon="-0.09975">
        <ele>348.6</ele>
        <time>2021-01-31 15:26:16</time>
      </trkpt>
      <trkpt lat="38.75206" lon="-0.09975">
        <ele>348.6</ele>
        <time>2021-01-31 15:26:17</time>
      </trkpt>
      <trkpt lat="38.75198" lon="-0.09946">
        <ele>346.6</ele>
        <time>2021-01-31 15:26:18</time>
      </trkpt>
      <trkpt lat="38.75198" lon="-0.09946">
        <ele>346.6</ele>
        <time>2021-01-31 15:26:19</time>
      </trkpt>
      <trkpt lat="38.75191" lon="-0.09916">
        <ele>346.6</ele>
        <time>2021-01-31 15:26:20</time>
      </trkpt>
      <trkpt lat="38.75191" lon="-0.09916">
        <ele>346.6</ele>
        <time>2021-01-31 15:26:21</time>
      </trkpt>
      <trkpt lat="38.75185" lon="-0.09886">
        <ele>345.6</ele>
        <time>2021-01-31 15:26:22</time>
      </trkpt>
      <trkpt lat="38.75185" lon="-0.09886">
        <ele>345.6</ele>
        <time>2021-01-31 15:26:23</time>
      </trkpt>
      <trkpt lat="38.75181" lon="-0.09854">
        <ele>343.8</ele>
        <time>2021-01-31 15:26:24</time>
      </trkpt>
      <trkpt lat="38.75181" lon="-0.09854">
        <ele>343.8</ele>
        <time>2021-01-31 15:26:25</time>
      </trkpt>
      <trkpt lat="38.7518" lon="-0.09822">
        <ele>343.8</ele>
        <time>2021-01-31 15:26:26</time>
      </trkpt>
      <trkpt lat="38.7518" lon="-0.09822">
        <ele>343.8</ele>
        <time>2021-01-31 15:26:27</time>
      </trkpt>
      <trkpt lat="38.75182" lon="-0.0979">
        <ele>343.8</ele>
        <time>2021-01-31 15:26:28</time>
      </trkpt>
      <trkpt lat="38.75182" lon="-0.0979">
        <ele>343.8</ele>
        <time>2021-01-31 15:26:29</time>
      </trkpt>
      <trkpt lat="38.75187" lon="-0.09759">
        <ele>343.8</ele>
        <time>2021-01-31 15:26:30</time>
      </trkpt>
      <trkpt lat="38.75187" lon="-0.09759">
        <ele>343.8</ele>
        <time>2021-01-31 15:26:31</time>
      </trkpt>
      <trkpt lat="38.75191" lon="-0.09728">
        <ele>343.8</ele>
        <time>2021-01-31 15:26:32</time>
      </trkpt>
      <trkpt lat="38.75193" lon="-0.09711">
        <ele>343.8</ele>
        <time>2021-01-31 15:26:33</time>
      </trkpt>
      <trkpt lat="38.75193" lon="-0.09711">
        <ele>343.8</ele>
        <time>2021-01-31 15:26:34</time>
      </trkpt>
      <trkpt lat="38.75193" lon="-0.09711">
        <ele>341.8</ele>
        <time>2021-01-31 15:26:35</time>
      </trkpt>
      <trkpt lat="38.75193" lon="-0.09711">
        <ele>341.8</ele>
        <time>2021-01-31 15:26:36</time>
      </trkpt>
      <trkpt lat="38.75194" lon="-0.09641">
        <ele>341.8</ele>
        <time>2021-01-31 15:26:37</time>
      </trkpt>
      <trkpt lat="38.75194" lon="-0.09641">
        <ele>339.8</ele>
        <time>2021-01-31 15:26:38</time>
      </trkpt>
      <trkpt lat="38.75185" lon="-0.09609">
        <ele>338.8</ele>
        <time>2021-01-31 15:26:39</time>
      </trkpt>
      <trkpt lat="38.75178" lon="-0.09594">
        <ele>338.8</ele>
        <time>2021-01-31 15:26:40</time>
      </trkpt>
      <trkpt lat="38.75178" lon="-0.09594">
        <ele>336.8</ele>
        <time>2021-01-31 15:26:41</time>
      </trkpt>
      <trkpt lat="38.75165" lon="-0.09565">
        <ele>336.8</ele>
        <time>2021-01-31 15:26:42</time>
      </trkpt>
      <trkpt lat="38.75165" lon="-0.09565">
        <ele>334.8</ele>
        <time>2021-01-31 15:26:43</time>
      </trkpt>
      <trkpt lat="38.75153" lon="-0.09533">
        <ele>334.8</ele>
        <time>2021-01-31 15:26:44</time>
      </trkpt>
      <trkpt lat="38.75153" lon="-0.09533">
        <ele>332.8</ele>
        <time>2021-01-31 15:26:45</time>
      </trkpt>
      <trkpt lat="38.75143" lon="-0.09502">
        <ele>332.8</ele>
        <time>2021-01-31 15:26:46</time>
      </trkpt>
      <trkpt lat="38.75143" lon="-0.09502">
        <ele>331.2</ele>
        <time>2021-01-31 15:26:47</time>
      </trkpt>
      <trkpt lat="38.75133" lon="-0.09471">
        <ele>331.2</ele>
        <time>2021-01-31 15:26:48</time>
      </trkpt>
      <trkpt lat="38.75133" lon="-0.09471">
        <ele>331.2</ele>
        <time>2021-01-31 15:26:49</time>
      </trkpt>
      <trkpt lat="38.7512" lon="-0.09442">
        <ele>331.2</ele>
        <time>2021-01-31 15:26:50</time>
      </trkpt>
      <trkpt lat="38.7512" lon="-0.09442">
        <ele>331.2</ele>
        <time>2021-01-31 15:26:51</time>
      </trkpt>
      <trkpt lat="38.75107" lon="-0.09415">
        <ele>331.2</ele>
        <time>2021-01-31 15:26:52</time>
      </trkpt>
      <trkpt lat="38.75107" lon="-0.09415">
        <ele>333.2</ele>
        <time>2021-01-31 15:26:53</time>
      </trkpt>
      <trkpt lat="38.75095" lon="-0.09388">
        <ele>333.2</ele>
        <time>2021-01-31 15:26:54</time>
      </trkpt>
      <trkpt lat="38.75095" lon="-0.09388">
        <ele>333.2</ele>
        <time>2021-01-31 15:26:55</time>
      </trkpt>
      <trkpt lat="38.75084" lon="-0.0936">
        <ele>333.2</ele>
        <time>2021-01-31 15:26:56</time>
      </trkpt>
      <trkpt lat="38.75084" lon="-0.0936">
        <ele>332.2</ele>
        <time>2021-01-31 15:26:57</time>
      </trkpt>
      <trkpt lat="38.75075" lon="-0.09335">
        <ele>332.2</ele>
        <time>2021-01-31 15:26:58</time>
      </trkpt>
      <trkpt lat="38.75075" lon="-0.09335">
        <ele>333.2</ele>
        <time>2021-01-31 15:26:59</time>
      </trkpt>
      <trkpt lat="38.75065" lon="-0.09309">
        <ele>333.2</ele>
        <time>2021-01-31 15:27:00</time>
      </trkpt>
      <trkpt lat="38.75065" lon="-0.09309">
        <ele>335.2</ele>
        <time>2021-01-31 15:27:01</time>
      </trkpt>
      <trkpt lat="38.75056" lon="-0.09285">
        <ele>335.2</ele>
        <time>2021-01-31 15:27:02</time>
      </trkpt>
      <trkpt lat="38.75056" lon="-0.09285">
        <ele>336</ele>
        <time>2021-01-31 15:27:03</time>
      </trkpt>
      <trkpt lat="38.75048" lon="-0.09262">
        <ele>336</ele>
        <time>2021-01-31 15:27:04</time>
      </trkpt>
      <trkpt lat="38.75044" lon="-0.09251">
        <ele>336</ele>
        <time>2021-01-31 15:27:05</time>
      </trkpt>
      <trkpt lat="38.75044" lon="-0.09251">
        <ele>336</ele>
        <time>2021-01-31 15:27:06</time>
      </trkpt>
      <trkpt lat="38.75044" lon="-0.09251">
        <ele>337</ele>
        <time>2021-01-31 15:27:07</time>
      </trkpt>
      <trkpt lat="38.75033" lon="-0.09221">
        <ele>337</ele>
        <time>2021-01-31 15:27:08</time>
      </trkpt>
      <trkpt lat="38.75033" lon="-0.09221">
        <ele>337</ele>
        <time>2021-01-31 15:27:09</time>
      </trkpt>
      <trkpt lat="38.75033" lon="-0.09221">
        <ele>337</ele>
        <time>2021-01-31 15:27:10</time>
      </trkpt>
      <trkpt lat="38.75033" lon="-0.09221">
        <ele>337</ele>
        <time>2021-01-31 15:27:11</time>
      </trkpt>
      <trkpt lat="38.75033" lon="-0.09221">
        <ele>341</ele>
        <time>2021-01-31 15:27:12</time>
      </trkpt>
      <trkpt lat="38.75017" lon="-0.09177">
        <ele>341.4</ele>
        <time>2021-01-31 15:27:13</time>
      </trkpt>
      <trkpt lat="38.75014" lon="-0.09169">
        <ele>341.6</ele>
        <time>2021-01-31 15:27:14</time>
      </trkpt>
      <trkpt lat="38.75011" lon="-0.0916">
        <ele>341.6</ele>
        <time>2021-01-31 15:27:15</time>
      </trkpt>
      <trkpt lat="38.75007" lon="-0.09151">
        <ele>341.6</ele>
        <time>2021-01-31 15:27:16</time>
      </trkpt>
      <trkpt lat="38.75004" lon="-0.09142">
        <ele>340.6</ele>
        <time>2021-01-31 15:27:17</time>
      </trkpt>
      <trkpt lat="38.75" lon="-0.09133">
        <ele>339.6</ele>
        <time>2021-01-31 15:27:18</time>
      </trkpt>
      <trkpt lat="38.74996" lon="-0.09123">
        <ele>339.6</ele>
        <time>2021-01-31 15:27:19</time>
      </trkpt>
      <trkpt lat="38.74993" lon="-0.09113">
        <ele>339.6</ele>
        <time>2021-01-31 15:27:20</time>
      </trkpt>
      <trkpt lat="38.74991" lon="-0.09103">
        <ele>340.6</ele>
        <time>2021-01-31 15:27:21</time>
      </trkpt>
      <trkpt lat="38.74989" lon="-0.09093">
        <ele>340.6</ele>
        <time>2021-01-31 15:27:22</time>
      </trkpt>
      <trkpt lat="38.74989" lon="-0.09093">
        <ele>340.6</ele>
        <time>2021-01-31 15:27:23</time>
      </trkpt>
      <trkpt lat="38.74987" lon="-0.09073">
        <ele>340.6</ele>
        <time>2021-01-31 15:27:24</time>
      </trkpt>
      <trkpt lat="38.74987" lon="-0.09073">
        <ele>340.6</ele>
        <time>2021-01-31 15:27:25</time>
      </trkpt>
      <trkpt lat="38.74988" lon="-0.09054">
        <ele>340.6</ele>
        <time>2021-01-31 15:27:26</time>
      </trkpt>
      <trkpt lat="38.74988" lon="-0.09044">
        <ele>340.6</ele>
        <time>2021-01-31 15:27:27</time>
      </trkpt>
      <trkpt lat="38.74988" lon="-0.09044">
        <ele>341.4</ele>
        <time>2021-01-31 15:27:28</time>
      </trkpt>
      <trkpt lat="38.74989" lon="-0.09026">
        <ele>341.4</ele>
        <time>2021-01-31 15:27:29</time>
      </trkpt>
      <trkpt lat="38.74989" lon="-0.09026">
        <ele>341.8</ele>
        <time>2021-01-31 15:27:30</time>
      </trkpt>
      <trkpt lat="38.7499" lon="-0.09009">
        <ele>341.8</ele>
        <time>2021-01-31 15:27:31</time>
      </trkpt>
      <trkpt lat="38.7499" lon="-0.09009">
        <ele>342.6</ele>
        <time>2021-01-31 15:27:32</time>
      </trkpt>
      <trkpt lat="38.74988" lon="-0.08992">
        <ele>343.4</ele>
        <time>2021-01-31 15:27:33</time>
      </trkpt>
      <trkpt lat="38.74986" lon="-0.08985">
        <ele>343.4</ele>
        <time>2021-01-31 15:27:34</time>
      </trkpt>
      <trkpt lat="38.74984" lon="-0.08977">
        <ele>343.4</ele>
        <time>2021-01-31 15:27:35</time>
      </trkpt>
      <trkpt lat="38.74982" lon="-0.0897">
        <ele>343.4</ele>
        <time>2021-01-31 15:27:36</time>
      </trkpt>
      <trkpt lat="38.74981" lon="-0.08962">
        <ele>343.4</ele>
        <time>2021-01-31 15:27:37</time>
      </trkpt>
      <trkpt lat="38.74979" lon="-0.08955">
        <ele>343.4</ele>
        <time>2021-01-31 15:27:38</time>
      </trkpt>
      <trkpt lat="38.74977" lon="-0.08948">
        <ele>343.4</ele>
        <time>2021-01-31 15:27:39</time>
      </trkpt>
      <trkpt lat="38.74976" lon="-0.08941">
        <ele>343.4</ele>
        <time>2021-01-31 15:27:40</time>
      </trkpt>
      <trkpt lat="38.74974" lon="-0.08934">
        <ele>343.4</ele>
        <time>2021-01-31 15:27:41</time>
      </trkpt>
      <trkpt lat="38.74972" lon="-0.08927">
        <ele>343.4</ele>
        <time>2021-01-31 15:27:42</time>
      </trkpt>
      <trkpt lat="38.7497" lon="-0.0892">
        <ele>344</ele>
        <time>2021-01-31 15:27:43</time>
      </trkpt>
      <trkpt lat="38.74969" lon="-0.08913">
        <ele>344.4</ele>
        <time>2021-01-31 15:27:44</time>
      </trkpt>
      <trkpt lat="38.74967" lon="-0.08906">
        <ele>344.4</ele>
        <time>2021-01-31 15:27:45</time>
      </trkpt>
      <trkpt lat="38.74966" lon="-0.089">
        <ele>345.2</ele>
        <time>2021-01-31 15:27:46</time>
      </trkpt>
      <trkpt lat="38.74964" lon="-0.08893">
        <ele>345.2</ele>
        <time>2021-01-31 15:27:47</time>
      </trkpt>
      <trkpt lat="38.74962" lon="-0.08886">
        <ele>345.2</ele>
        <time>2021-01-31 15:27:48</time>
      </trkpt>
      <trkpt lat="38.74961" lon="-0.0888">
        <ele>345.2</ele>
        <time>2021-01-31 15:27:49</time>
      </trkpt>
      <trkpt lat="38.74959" lon="-0.08873">
        <ele>345.2</ele>
        <time>2021-01-31 15:27:50</time>
      </trkpt>
      <trkpt lat="38.74956" lon="-0.08867">
        <ele>345</ele>
        <time>2021-01-31 15:27:51</time>
      </trkpt>
      <trkpt lat="38.74954" lon="-0.08861">
        <ele>345</ele>
        <time>2021-01-31 15:27:52</time>
      </trkpt>
      <trkpt lat="38.74951" lon="-0.08855">
        <ele>345</ele>
        <time>2021-01-31 15:27:53</time>
      </trkpt>
      <trkpt lat="38.74949" lon="-0.08849">
        <ele>345.4</ele>
        <time>2021-01-31 15:27:54</time>
      </trkpt>
      <trkpt lat="38.74946" lon="-0.08843">
        <ele>346</ele>
        <time>2021-01-31 15:27:55</time>
      </trkpt>
      <trkpt lat="38.74943" lon="-0.08837">
        <ele>347</ele>
        <time>2021-01-31 15:27:56</time>
      </trkpt>
      <trkpt lat="38.74941" lon="-0.08831">
        <ele>347.6</ele>
        <time>2021-01-31 15:27:57</time>
      </trkpt>
      <trkpt lat="38.74938" lon="-0.08825">
        <ele>347.6</ele>
        <time>2021-01-31 15:27:58</time>
      </trkpt>
      <trkpt lat="38.74935" lon="-0.08819">
        <ele>347.6</ele>
        <time>2021-01-31 15:27:59</time>
      </trkpt>
      <trkpt lat="38.74932" lon="-0.08812">
        <ele>346.6</ele>
        <time>2021-01-31 15:28:00</time>
      </trkpt>
      <trkpt lat="38.74929" lon="-0.08806">
        <ele>345.8</ele>
        <time>2021-01-31 15:28:01</time>
      </trkpt>
      <trkpt lat="38.74926" lon="-0.088">
        <ele>345.8</ele>
        <time>2021-01-31 15:28:02</time>
      </trkpt>
      <trkpt lat="38.74923" lon="-0.08793">
        <ele>345.8</ele>
        <time>2021-01-31 15:28:03</time>
      </trkpt>
      <trkpt lat="38.7492" lon="-0.08787">
        <ele>346.8</ele>
        <time>2021-01-31 15:28:04</time>
      </trkpt>
      <trkpt lat="38.74918" lon="-0.08781">
        <ele>346.8</ele>
        <time>2021-01-31 15:28:05</time>
      </trkpt>
      <trkpt lat="38.74915" lon="-0.08774">
        <ele>346.8</ele>
        <time>2021-01-31 15:28:06</time>
      </trkpt>
      <trkpt lat="38.74912" lon="-0.08768">
        <ele>346.8</ele>
        <time>2021-01-31 15:28:07</time>
      </trkpt>
      <trkpt lat="38.74909" lon="-0.08761">
        <ele>346.8</ele>
        <time>2021-01-31 15:28:08</time>
      </trkpt>
      <trkpt lat="38.74906" lon="-0.08755">
        <ele>346.8</ele>
        <time>2021-01-31 15:28:09</time>
      </trkpt>
      <trkpt lat="38.74902" lon="-0.08749">
        <ele>346.8</ele>
        <time>2021-01-31 15:28:10</time>
      </trkpt>
      <trkpt lat="38.74899" lon="-0.08742">
        <ele>346.8</ele>
        <time>2021-01-31 15:28:11</time>
      </trkpt>
      <trkpt lat="38.74897" lon="-0.08736">
        <ele>346.8</ele>
        <time>2021-01-31 15:28:12</time>
      </trkpt>
      <trkpt lat="38.74894" lon="-0.08729">
        <ele>346.4</ele>
        <time>2021-01-31 15:28:13</time>
      </trkpt>
      <trkpt lat="38.74891" lon="-0.08723">
        <ele>346.4</ele>
        <time>2021-01-31 15:28:14</time>
      </trkpt>
      <trkpt lat="38.74888" lon="-0.08716">
        <ele>346.4</ele>
        <time>2021-01-31 15:28:15</time>
      </trkpt>
      <trkpt lat="38.74885" lon="-0.08709">
        <ele>347.4</ele>
        <time>2021-01-31 15:28:16</time>
      </trkpt>
      <trkpt lat="38.74881" lon="-0.08703">
        <ele>348</ele>
        <time>2021-01-31 15:28:17</time>
      </trkpt>
      <trkpt lat="38.74878" lon="-0.08696">
        <ele>348</ele>
        <time>2021-01-31 15:28:18</time>
      </trkpt>
      <trkpt lat="38.74874" lon="-0.0869">
        <ele>348</ele>
        <time>2021-01-31 15:28:19</time>
      </trkpt>
      <trkpt lat="38.7487" lon="-0.08684">
        <ele>348</ele>
        <time>2021-01-31 15:28:20</time>
      </trkpt>
      <trkpt lat="38.74865" lon="-0.08678">
        <ele>348</ele>
        <time>2021-01-31 15:28:21</time>
      </trkpt>
      <trkpt lat="38.7486" lon="-0.08672">
        <ele>349</ele>
        <time>2021-01-31 15:28:22</time>
      </trkpt>
      <trkpt lat="38.74855" lon="-0.08667">
        <ele>349.4</ele>
        <time>2021-01-31 15:28:23</time>
      </trkpt>
      <trkpt lat="38.74849" lon="-0.08662">
        <ele>349.4</ele>
        <time>2021-01-31 15:28:24</time>
      </trkpt>
      <trkpt lat="38.74844" lon="-0.08656">
        <ele>349.4</ele>
        <time>2021-01-31 15:28:25</time>
      </trkpt>
      <trkpt lat="38.74838" lon="-0.08651">
        <ele>349.2</ele>
        <time>2021-01-31 15:28:26</time>
      </trkpt>
      <trkpt lat="38.74833" lon="-0.08644">
        <ele>348.2</ele>
        <time>2021-01-31 15:28:27</time>
      </trkpt>
      <trkpt lat="38.74827" lon="-0.08638">
        <ele>347.2</ele>
        <time>2021-01-31 15:28:28</time>
      </trkpt>
      <trkpt lat="38.74822" lon="-0.08631">
        <ele>347</ele>
        <time>2021-01-31 15:28:29</time>
      </trkpt>
      <trkpt lat="38.74817" lon="-0.08623">
        <ele>346.8</ele>
        <time>2021-01-31 15:28:30</time>
      </trkpt>
      <trkpt lat="38.74811" lon="-0.08615">
        <ele>346.8</ele>
        <time>2021-01-31 15:28:31</time>
      </trkpt>
      <trkpt lat="38.74805" lon="-0.08607">
        <ele>346.8</ele>
        <time>2021-01-31 15:28:32</time>
      </trkpt>
      <trkpt lat="38.748" lon="-0.08598">
        <ele>346.8</ele>
        <time>2021-01-31 15:28:33</time>
      </trkpt>
      <trkpt lat="38.74794" lon="-0.0859">
        <ele>345.8</ele>
        <time>2021-01-31 15:28:34</time>
      </trkpt>
      <trkpt lat="38.74788" lon="-0.08581">
        <ele>345.2</ele>
        <time>2021-01-31 15:28:35</time>
      </trkpt>
      <trkpt lat="38.74782" lon="-0.08573">
        <ele>345</ele>
        <time>2021-01-31 15:28:36</time>
      </trkpt>
      <trkpt lat="38.74777" lon="-0.08564">
        <ele>344.4</ele>
        <time>2021-01-31 15:28:37</time>
      </trkpt>
      <trkpt lat="38.74771" lon="-0.08554">
        <ele>343.4</ele>
        <time>2021-01-31 15:28:38</time>
      </trkpt>
      <trkpt lat="38.74771" lon="-0.08554">
        <ele>343.4</ele>
        <time>2021-01-31 15:28:39</time>
      </trkpt>
      <trkpt lat="38.74762" lon="-0.08534">
        <ele>343.4</ele>
        <time>2021-01-31 15:28:40</time>
      </trkpt>
      <trkpt lat="38.74757" lon="-0.08524">
        <ele>343.4</ele>
        <time>2021-01-31 15:28:41</time>
      </trkpt>
      <trkpt lat="38.74751" lon="-0.08515">
        <ele>343.4</ele>
        <time>2021-01-31 15:28:42</time>
      </trkpt>
      <trkpt lat="38.74743" lon="-0.08506">
        <ele>342.4</ele>
        <time>2021-01-31 15:28:43</time>
      </trkpt>
      <trkpt lat="38.74736" lon="-0.08497">
        <ele>342.4</ele>
        <time>2021-01-31 15:28:44</time>
      </trkpt>
      <trkpt lat="38.74728" lon="-0.08489">
        <ele>341.4</ele>
        <time>2021-01-31 15:28:45</time>
      </trkpt>
      <trkpt lat="38.7472" lon="-0.0848">
        <ele>340.4</ele>
        <time>2021-01-31 15:28:46</time>
      </trkpt>
      <trkpt lat="38.74712" lon="-0.08471">
        <ele>339.4</ele>
        <time>2021-01-31 15:28:47</time>
      </trkpt>
      <trkpt lat="38.74704" lon="-0.08462">
        <ele>339</ele>
        <time>2021-01-31 15:28:48</time>
      </trkpt>
      <trkpt lat="38.74695" lon="-0.08453">
        <ele>338</ele>
        <time>2021-01-31 15:28:49</time>
      </trkpt>
      <trkpt lat="38.74687" lon="-0.08444">
        <ele>338</ele>
        <time>2021-01-31 15:28:50</time>
      </trkpt>
      <trkpt lat="38.74679" lon="-0.08434">
        <ele>338</ele>
        <time>2021-01-31 15:28:51</time>
      </trkpt>
      <trkpt lat="38.74671" lon="-0.08424">
        <ele>338</ele>
        <time>2021-01-31 15:28:52</time>
      </trkpt>
      <trkpt lat="38.74664" lon="-0.08414">
        <ele>337</ele>
        <time>2021-01-31 15:28:53</time>
      </trkpt>
      <trkpt lat="38.74657" lon="-0.08402">
        <ele>336</ele>
        <time>2021-01-31 15:28:54</time>
      </trkpt>
      <trkpt lat="38.74651" lon="-0.0839">
        <ele>335</ele>
        <time>2021-01-31 15:28:55</time>
      </trkpt>
      <trkpt lat="38.74645" lon="-0.08378">
        <ele>335</ele>
        <time>2021-01-31 15:28:56</time>
      </trkpt>
      <trkpt lat="38.74639" lon="-0.08366">
        <ele>335</ele>
        <time>2021-01-31 15:28:57</time>
      </trkpt>
      <trkpt lat="38.74633" lon="-0.08355">
        <ele>335.4</ele>
        <time>2021-01-31 15:28:58</time>
      </trkpt>
      <trkpt lat="38.74629" lon="-0.08343">
        <ele>335.4</ele>
        <time>2021-01-31 15:28:59</time>
      </trkpt>
      <trkpt lat="38.74626" lon="-0.08331">
        <ele>335.4</ele>
        <time>2021-01-31 15:29:00</time>
      </trkpt>
      <trkpt lat="38.74625" lon="-0.08322">
        <ele>335.4</ele>
        <time>2021-01-31 15:29:01</time>
      </trkpt>
      <trkpt lat="38.74625" lon="-0.08311">
        <ele>335.4</ele>
        <time>2021-01-31 15:29:02</time>
      </trkpt>
      <trkpt lat="38.74625" lon="-0.08299">
        <ele>335.4</ele>
        <time>2021-01-31 15:29:03</time>
      </trkpt>
      <trkpt lat="38.74624" lon="-0.08285">
        <ele>335</ele>
        <time>2021-01-31 15:29:04</time>
      </trkpt>
      <trkpt lat="38.74622" lon="-0.08271">
        <ele>334.6</ele>
        <time>2021-01-31 15:29:05</time>
      </trkpt>
      <trkpt lat="38.74619" lon="-0.08258">
        <ele>333.6</ele>
        <time>2021-01-31 15:29:06</time>
      </trkpt>
      <trkpt lat="38.74613" lon="-0.08246">
        <ele>333.6</ele>
        <time>2021-01-31 15:29:07</time>
      </trkpt>
      <trkpt lat="38.74609" lon="-0.08234">
        <ele>333.6</ele>
        <time>2021-01-31 15:29:08</time>
      </trkpt>
      <trkpt lat="38.74604" lon="-0.08222">
        <ele>333.6</ele>
        <time>2021-01-31 15:29:09</time>
      </trkpt>
      <trkpt lat="38.74599" lon="-0.0821">
        <ele>333.6</ele>
        <time>2021-01-31 15:29:10</time>
      </trkpt>
      <trkpt lat="38.74594" lon="-0.08198">
        <ele>333.6</ele>
        <time>2021-01-31 15:29:11</time>
      </trkpt>
      <trkpt lat="38.74588" lon="-0.08186">
        <ele>333.6</ele>
        <time>2021-01-31 15:29:12</time>
      </trkpt>
      <trkpt lat="38.74583" lon="-0.08174">
        <ele>332.8</ele>
        <time>2021-01-31 15:29:13</time>
      </trkpt>
      <trkpt lat="38.74579" lon="-0.08162">
        <ele>332.8</ele>
        <time>2021-01-31 15:29:14</time>
      </trkpt>
      <trkpt lat="38.74574" lon="-0.0815">
        <ele>332.8</ele>
        <time>2021-01-31 15:29:15</time>
      </trkpt>
      <trkpt lat="38.74568" lon="-0.08138">
        <ele>333</ele>
        <time>2021-01-31 15:29:16</time>
      </trkpt>
      <trkpt lat="38.74563" lon="-0.08126">
        <ele>333</ele>
        <time>2021-01-31 15:29:17</time>
      </trkpt>
      <trkpt lat="38.74557" lon="-0.08115">
        <ele>333</ele>
        <time>2021-01-31 15:29:18</time>
      </trkpt>
      <trkpt lat="38.7455" lon="-0.08104">
        <ele>332</ele>
        <time>2021-01-31 15:29:19</time>
      </trkpt>
      <trkpt lat="38.74544" lon="-0.08092">
        <ele>331</ele>
        <time>2021-01-31 15:29:20</time>
      </trkpt>
      <trkpt lat="38.74538" lon="-0.08081">
        <ele>330</ele>
        <time>2021-01-31 15:29:21</time>
      </trkpt>
      <trkpt lat="38.74531" lon="-0.0807">
        <ele>329.4</ele>
        <time>2021-01-31 15:29:22</time>
      </trkpt>
      <trkpt lat="38.74525" lon="-0.08058">
        <ele>329.2</ele>
        <time>2021-01-31 15:29:23</time>
      </trkpt>
      <trkpt lat="38.7452" lon="-0.08047">
        <ele>329</ele>
        <time>2021-01-31 15:29:24</time>
      </trkpt>
      <trkpt lat="38.74515" lon="-0.08034">
        <ele>329</ele>
        <time>2021-01-31 15:29:25</time>
      </trkpt>
      <trkpt lat="38.74515" lon="-0.08034">
        <ele>327.2</ele>
        <time>2021-01-31 15:29:26</time>
      </trkpt>
      <trkpt lat="38.74503" lon="-0.0801">
        <ele>327.2</ele>
        <time>2021-01-31 15:29:27</time>
      </trkpt>
      <trkpt lat="38.74503" lon="-0.0801">
        <ele>327.2</ele>
        <time>2021-01-31 15:29:28</time>
      </trkpt>
      <trkpt lat="38.74491" lon="-0.07986">
        <ele>327.2</ele>
        <time>2021-01-31 15:29:29</time>
      </trkpt>
      <trkpt lat="38.74491" lon="-0.07986">
        <ele>327.2</ele>
        <time>2021-01-31 15:29:30</time>
      </trkpt>
      <trkpt lat="38.74479" lon="-0.0796">
        <ele>326.2</ele>
        <time>2021-01-31 15:29:31</time>
      </trkpt>
      <trkpt lat="38.74475" lon="-0.07947">
        <ele>325.2</ele>
        <time>2021-01-31 15:29:32</time>
      </trkpt>
      <trkpt lat="38.74472" lon="-0.07933">
        <ele>324.2</ele>
        <time>2021-01-31 15:29:33</time>
      </trkpt>
      <trkpt lat="38.74472" lon="-0.07918">
        <ele>324.2</ele>
        <time>2021-01-31 15:29:34</time>
      </trkpt>
      <trkpt lat="38.74475" lon="-0.07904">
        <ele>324.2</ele>
        <time>2021-01-31 15:29:35</time>
      </trkpt>
      <trkpt lat="38.7448" lon="-0.07892">
        <ele>325.2</ele>
        <time>2021-01-31 15:29:36</time>
      </trkpt>
      <trkpt lat="38.74485" lon="-0.07882">
        <ele>326</ele>
        <time>2021-01-31 15:29:37</time>
      </trkpt>
      <trkpt lat="38.7449" lon="-0.07871">
        <ele>327</ele>
        <time>2021-01-31 15:29:38</time>
      </trkpt>
      <trkpt lat="38.74494" lon="-0.0786">
        <ele>327.4</ele>
        <time>2021-01-31 15:29:39</time>
      </trkpt>
      <trkpt lat="38.74496" lon="-0.07847">
        <ele>327.4</ele>
        <time>2021-01-31 15:29:40</time>
      </trkpt>
      <trkpt lat="38.74495" lon="-0.07835">
        <ele>327.4</ele>
        <time>2021-01-31 15:29:41</time>
      </trkpt>
      <trkpt lat="38.74493" lon="-0.07822">
        <ele>327.4</ele>
        <time>2021-01-31 15:29:42</time>
      </trkpt>
      <trkpt lat="38.7449" lon="-0.0781">
        <ele>326.4</ele>
        <time>2021-01-31 15:29:43</time>
      </trkpt>
      <trkpt lat="38.74487" lon="-0.07797">
        <ele>325.8</ele>
        <time>2021-01-31 15:29:44</time>
      </trkpt>
      <trkpt lat="38.74484" lon="-0.07784">
        <ele>325.6</ele>
        <time>2021-01-31 15:29:45</time>
      </trkpt>
      <trkpt lat="38.74482" lon="-0.07771">
        <ele>324.6</ele>
        <time>2021-01-31 15:29:46</time>
      </trkpt>
      <trkpt lat="38.74479" lon="-0.07757">
        <ele>323.6</ele>
        <time>2021-01-31 15:29:47</time>
      </trkpt>
      <trkpt lat="38.74475" lon="-0.07743">
        <ele>322.6</ele>
        <time>2021-01-31 15:29:48</time>
      </trkpt>
      <trkpt lat="38.7447" lon="-0.07729">
        <ele>322.6</ele>
        <time>2021-01-31 15:29:49</time>
      </trkpt>
      <trkpt lat="38.7447" lon="-0.07729">
        <ele>320.6</ele>
        <time>2021-01-31 15:29:50</time>
      </trkpt>
      <trkpt lat="38.74458" lon="-0.07704">
        <ele>320.6</ele>
        <time>2021-01-31 15:29:51</time>
      </trkpt>
      <trkpt lat="38.74458" lon="-0.07704">
        <ele>320.6</ele>
        <time>2021-01-31 15:29:52</time>
      </trkpt>
      <trkpt lat="38.74446" lon="-0.07678">
        <ele>320.6</ele>
        <time>2021-01-31 15:29:53</time>
      </trkpt>
      <trkpt lat="38.74446" lon="-0.07678">
        <ele>320.6</ele>
        <time>2021-01-31 15:29:54</time>
      </trkpt>
      <trkpt lat="38.7444" lon="-0.0765">
        <ele>320.6</ele>
        <time>2021-01-31 15:29:55</time>
      </trkpt>
      <trkpt lat="38.7444" lon="-0.0765">
        <ele>322.2</ele>
        <time>2021-01-31 15:29:56</time>
      </trkpt>
      <trkpt lat="38.74434" lon="-0.07622">
        <ele>322.2</ele>
        <time>2021-01-31 15:29:57</time>
      </trkpt>
      <trkpt lat="38.74434" lon="-0.07622">
        <ele>322.2</ele>
        <time>2021-01-31 15:29:58</time>
      </trkpt>
      <trkpt lat="38.74423" lon="-0.07598">
        <ele>322.2</ele>
        <time>2021-01-31 15:29:59</time>
      </trkpt>
      <trkpt lat="38.74423" lon="-0.07598">
        <ele>321.2</ele>
        <time>2021-01-31 15:30:00</time>
      </trkpt>
      <trkpt lat="38.74412" lon="-0.07574">
        <ele>321.2</ele>
        <time>2021-01-31 15:30:01</time>
      </trkpt>
      <trkpt lat="38.74412" lon="-0.07574">
        <ele>321.2</ele>
        <time>2021-01-31 15:30:02</time>
      </trkpt>
      <trkpt lat="38.74401" lon="-0.0755">
        <ele>321.2</ele>
        <time>2021-01-31 15:30:03</time>
      </trkpt>
      <trkpt lat="38.74401" lon="-0.0755">
        <ele>321.2</ele>
        <time>2021-01-31 15:30:04</time>
      </trkpt>
      <trkpt lat="38.74392" lon="-0.07526">
        <ele>321.2</ele>
        <time>2021-01-31 15:30:05</time>
      </trkpt>
      <trkpt lat="38.74392" lon="-0.07526">
        <ele>321.8</ele>
        <time>2021-01-31 15:30:06</time>
      </trkpt>
      <trkpt lat="38.74385" lon="-0.07502">
        <ele>321.8</ele>
        <time>2021-01-31 15:30:07</time>
      </trkpt>
      <trkpt lat="38.74385" lon="-0.07502">
        <ele>321.8</ele>
        <time>2021-01-31 15:30:08</time>
      </trkpt>
      <trkpt lat="38.74379" lon="-0.07478">
        <ele>321.8</ele>
        <time>2021-01-31 15:30:09</time>
      </trkpt>
      <trkpt lat="38.74379" lon="-0.07478">
        <ele>321</ele>
        <time>2021-01-31 15:30:10</time>
      </trkpt>
      <trkpt lat="38.74375" lon="-0.07452">
        <ele>321</ele>
        <time>2021-01-31 15:30:11</time>
      </trkpt>
      <trkpt lat="38.74375" lon="-0.07452">
        <ele>320.4</ele>
        <time>2021-01-31 15:30:12</time>
      </trkpt>
      <trkpt lat="38.74371" lon="-0.07426">
        <ele>320.4</ele>
        <time>2021-01-31 15:30:13</time>
      </trkpt>
      <trkpt lat="38.74371" lon="-0.07426">
        <ele>320.4</ele>
        <time>2021-01-31 15:30:14</time>
      </trkpt>
      <trkpt lat="38.74371" lon="-0.07426">
        <ele>320.4</ele>
        <time>2021-01-31 15:30:15</time>
      </trkpt>
      <trkpt lat="38.74371" lon="-0.07426">
        <ele>320.4</ele>
        <time>2021-01-31 15:30:16</time>
      </trkpt>
      <trkpt lat="38.74371" lon="-0.07426">
        <ele>318.4</ele>
        <time>2021-01-31 15:30:17</time>
      </trkpt>
      <trkpt lat="38.74371" lon="-0.07358">
        <ele>318.4</ele>
        <time>2021-01-31 15:30:18</time>
      </trkpt>
      <trkpt lat="38.74373" lon="-0.07344">
        <ele>318</ele>
        <time>2021-01-31 15:30:19</time>
      </trkpt>
      <trkpt lat="38.74373" lon="-0.07344">
        <ele>318</ele>
        <time>2021-01-31 15:30:20</time>
      </trkpt>
      <trkpt lat="38.74373" lon="-0.07344">
        <ele>318</ele>
        <time>2021-01-31 15:30:21</time>
      </trkpt>
      <trkpt lat="38.74373" lon="-0.07344">
        <ele>318</ele>
        <time>2021-01-31 15:30:22</time>
      </trkpt>
      <trkpt lat="38.74373" lon="-0.07344">
        <ele>315.8</ele>
        <time>2021-01-31 15:30:23</time>
      </trkpt>
      <trkpt lat="38.74385" lon="-0.07273">
        <ele>315.4</ele>
        <time>2021-01-31 15:30:24</time>
      </trkpt>
      <trkpt lat="38.74386" lon="-0.07259">
        <ele>315.4</ele>
        <time>2021-01-31 15:30:25</time>
      </trkpt>
      <trkpt lat="38.74386" lon="-0.07245">
        <ele>315.4</ele>
        <time>2021-01-31 15:30:26</time>
      </trkpt>
      <trkpt lat="38.74385" lon="-0.07231">
        <ele>316.4</ele>
        <time>2021-01-31 15:30:27</time>
      </trkpt>
      <trkpt lat="38.74384" lon="-0.07216">
        <ele>316.8</ele>
        <time>2021-01-31 15:30:28</time>
      </trkpt>
      <trkpt lat="38.74383" lon="-0.07202">
        <ele>316.8</ele>
        <time>2021-01-31 15:30:29</time>
      </trkpt>
      <trkpt lat="38.74382" lon="-0.07188">
        <ele>316.8</ele>
        <time>2021-01-31 15:30:30</time>
      </trkpt>
      <trkpt lat="38.74381" lon="-0.07175">
        <ele>316.2</ele>
        <time>2021-01-31 15:30:31</time>
      </trkpt>
      <trkpt lat="38.7438" lon="-0.07161">
        <ele>315.8</ele>
        <time>2021-01-31 15:30:32</time>
      </trkpt>
      <trkpt lat="38.7438" lon="-0.07147">
        <ele>315.6</ele>
        <time>2021-01-31 15:30:33</time>
      </trkpt>
      <trkpt lat="38.74379" lon="-0.07133">
        <ele>315.6</ele>
        <time>2021-01-31 15:30:34</time>
      </trkpt>
      <trkpt lat="38.74379" lon="-0.07133">
        <ele>315.6</ele>
        <time>2021-01-31 15:30:35</time>
      </trkpt>
      <trkpt lat="38.74379" lon="-0.07133">
        <ele>315.6</ele>
        <time>2021-01-31 15:30:36</time>
      </trkpt>
      <trkpt lat="38.74379" lon="-0.07133">
        <ele>313.6</ele>
        <time>2021-01-31 15:30:37</time>
      </trkpt>
      <trkpt lat="38.74383" lon="-0.07079">
        <ele>313.2</ele>
        <time>2021-01-31 15:30:38</time>
      </trkpt>
      <trkpt lat="38.74384" lon="-0.07065">
        <ele>312.6</ele>
        <time>2021-01-31 15:30:39</time>
      </trkpt>
      <trkpt lat="38.74384" lon="-0.07051">
        <ele>312.6</ele>
        <time>2021-01-31 15:30:40</time>
      </trkpt>
      <trkpt lat="38.74386" lon="-0.07037">
        <ele>312.6</ele>
        <time>2021-01-31 15:30:41</time>
      </trkpt>
      <trkpt lat="38.74387" lon="-0.07024">
        <ele>312.6</ele>
        <time>2021-01-31 15:30:42</time>
      </trkpt>
      <trkpt lat="38.74388" lon="-0.0701">
        <ele>311.6</ele>
        <time>2021-01-31 15:30:43</time>
      </trkpt>
      <trkpt lat="38.74389" lon="-0.06996">
        <ele>311.6</ele>
        <time>2021-01-31 15:30:44</time>
      </trkpt>
      <trkpt lat="38.7439" lon="-0.06982">
        <ele>311.6</ele>
        <time>2021-01-31 15:30:45</time>
      </trkpt>
      <trkpt lat="38.74391" lon="-0.06968">
        <ele>311.6</ele>
        <time>2021-01-31 15:30:46</time>
      </trkpt>
      <trkpt lat="38.74392" lon="-0.06954">
        <ele>311.6</ele>
        <time>2021-01-31 15:30:47</time>
      </trkpt>
      <trkpt lat="38.74393" lon="-0.06941">
        <ele>310.6</ele>
        <time>2021-01-31 15:30:48</time>
      </trkpt>
      <trkpt lat="38.74393" lon="-0.06928">
        <ele>310.2</ele>
        <time>2021-01-31 15:30:49</time>
      </trkpt>
      <trkpt lat="38.74394" lon="-0.06917">
        <ele>310.2</ele>
        <time>2021-01-31 15:30:50</time>
      </trkpt>
      <trkpt lat="38.74394" lon="-0.06908">
        <ele>310.2</ele>
        <time>2021-01-31 15:30:51</time>
      </trkpt>
      <trkpt lat="38.74393" lon="-0.06901">
        <ele>311.2</ele>
        <time>2021-01-31 15:30:52</time>
      </trkpt>
      <trkpt lat="38.74391" lon="-0.06897">
        <ele>312.2</ele>
        <time>2021-01-31 15:30:53</time>
      </trkpt>
      <trkpt lat="38.74387" lon="-0.06896">
        <ele>312.6</ele>
        <time>2021-01-31 15:30:54</time>
      </trkpt>
      <trkpt lat="38.74384" lon="-0.06898">
        <ele>312.6</ele>
        <time>2021-01-31 15:30:55</time>
      </trkpt>
      <trkpt lat="38.74381" lon="-0.069">
        <ele>312.6</ele>
        <time>2021-01-31 15:30:56</time>
      </trkpt>
      <trkpt lat="38.74377" lon="-0.06903">
        <ele>312</ele>
        <time>2021-01-31 15:30:57</time>
      </trkpt>
      <trkpt lat="38.74374" lon="-0.06907">
        <ele>311.6</ele>
        <time>2021-01-31 15:30:58</time>
      </trkpt>
      <trkpt lat="38.7437" lon="-0.06911">
        <ele>311.6</ele>
        <time>2021-01-31 15:30:59</time>
      </trkpt>
      <trkpt lat="38.74367" lon="-0.06915">
        <ele>311.6</ele>
        <time>2021-01-31 15:31:00</time>
      </trkpt>
      <trkpt lat="38.74362" lon="-0.06919">
        <ele>312.6</ele>
        <time>2021-01-31 15:31:01</time>
      </trkpt>
      <trkpt lat="38.74358" lon="-0.06923">
        <ele>312.6</ele>
        <time>2021-01-31 15:31:02</time>
      </trkpt>
      <trkpt lat="38.74354" lon="-0.06927">
        <ele>312.6</ele>
        <time>2021-01-31 15:31:03</time>
      </trkpt>
      <trkpt lat="38.7435" lon="-0.06932">
        <ele>312</ele>
        <time>2021-01-31 15:31:04</time>
      </trkpt>
      <trkpt lat="38.74346" lon="-0.06936">
        <ele>312</ele>
        <time>2021-01-31 15:31:05</time>
      </trkpt>
      <trkpt lat="38.74342" lon="-0.06941">
        <ele>312</ele>
        <time>2021-01-31 15:31:06</time>
      </trkpt>
      <trkpt lat="38.74337" lon="-0.06945">
        <ele>312.2</ele>
        <time>2021-01-31 15:31:07</time>
      </trkpt>
      <trkpt lat="38.74333" lon="-0.0695">
        <ele>312.2</ele>
        <time>2021-01-31 15:31:08</time>
      </trkpt>
      <trkpt lat="38.74333" lon="-0.0695">
        <ele>312.2</ele>
        <time>2021-01-31 15:31:09</time>
      </trkpt>
      <trkpt lat="38.74333" lon="-0.0695">
        <ele>312.2</ele>
        <time>2021-01-31 15:31:10</time>
      </trkpt>
      <trkpt lat="38.74333" lon="-0.0695">
        <ele>312.2</ele>
        <time>2021-01-31 15:31:11</time>
      </trkpt>
      <trkpt lat="38.74315" lon="-0.06968">
        <ele>312.2</ele>
        <time>2021-01-31 15:31:12</time>
      </trkpt>
      <trkpt lat="38.74311" lon="-0.06972">
        <ele>312.2</ele>
        <time>2021-01-31 15:31:13</time>
      </trkpt>
      <trkpt lat="38.74307" lon="-0.06977">
        <ele>312.2</ele>
        <time>2021-01-31 15:31:14</time>
      </trkpt>
      <trkpt lat="38.74302" lon="-0.06982">
        <ele>312.2</ele>
        <time>2021-01-31 15:31:15</time>
      </trkpt>
      <trkpt lat="38.74298" lon="-0.06986">
        <ele>312.2</ele>
        <time>2021-01-31 15:31:16</time>
      </trkpt>
      <trkpt lat="38.74293" lon="-0.0699">
        <ele>313.2</ele>
        <time>2021-01-31 15:31:17</time>
      </trkpt>
      <trkpt lat="38.74289" lon="-0.06994">
        <ele>313.4</ele>
        <time>2021-01-31 15:31:18</time>
      </trkpt>
      <trkpt lat="38.74285" lon="-0.06999">
        <ele>313.8</ele>
        <time>2021-01-31 15:31:19</time>
      </trkpt>
      <trkpt lat="38.74281" lon="-0.07004">
        <ele>314.6</ele>
        <time>2021-01-31 15:31:20</time>
      </trkpt>
      <trkpt lat="38.74277" lon="-0.07009">
        <ele>314.6</ele>
        <time>2021-01-31 15:31:21</time>
      </trkpt>
      <trkpt lat="38.74273" lon="-0.07013">
        <ele>314.6</ele>
        <time>2021-01-31 15:31:22</time>
      </trkpt>
      <trkpt lat="38.74268" lon="-0.07017">
        <ele>314.4</ele>
        <time>2021-01-31 15:31:23</time>
      </trkpt>
      <trkpt lat="38.74265" lon="-0.07021">
        <ele>314.4</ele>
        <time>2021-01-31 15:31:24</time>
      </trkpt>
      <trkpt lat="38.74261" lon="-0.07024">
        <ele>314.4</ele>
        <time>2021-01-31 15:31:25</time>
      </trkpt>
      <trkpt lat="38.74258" lon="-0.07028">
        <ele>315</ele>
        <time>2021-01-31 15:31:26</time>
      </trkpt>
      <trkpt lat="38.74255" lon="-0.07031">
        <ele>315.8</ele>
        <time>2021-01-31 15:31:27</time>
      </trkpt>
      <trkpt lat="38.74253" lon="-0.07034">
        <ele>315.8</ele>
        <time>2021-01-31 15:31:28</time>
      </trkpt>
      <trkpt lat="38.7425" lon="-0.07037">
        <ele>315.8</ele>
        <time>2021-01-31 15:31:29</time>
      </trkpt>
      <trkpt lat="38.74247" lon="-0.0704">
        <ele>315.8</ele>
        <time>2021-01-31 15:31:30</time>
      </trkpt>
      <trkpt lat="38.74244" lon="-0.07043">
        <ele>315.8</ele>
        <time>2021-01-31 15:31:31</time>
      </trkpt>
      <trkpt lat="38.74241" lon="-0.07046">
        <ele>316.4</ele>
        <time>2021-01-31 15:31:32</time>
      </trkpt>
      <trkpt lat="38.74239" lon="-0.07049">
        <ele>317</ele>
        <time>2021-01-31 15:31:33</time>
      </trkpt>
      <trkpt lat="38.74236" lon="-0.07051">
        <ele>317.8</ele>
        <time>2021-01-31 15:31:34</time>
      </trkpt>
      <trkpt lat="38.74233" lon="-0.07054">
        <ele>317.8</ele>
        <time>2021-01-31 15:31:35</time>
      </trkpt>
      <trkpt lat="38.7423" lon="-0.07057">
        <ele>317.8</ele>
        <time>2021-01-31 15:31:36</time>
      </trkpt>
      <trkpt lat="38.74227" lon="-0.0706">
        <ele>317</ele>
        <time>2021-01-31 15:31:37</time>
      </trkpt>
      <trkpt lat="38.74225" lon="-0.07063">
        <ele>317</ele>
        <time>2021-01-31 15:31:38</time>
      </trkpt>
      <trkpt lat="38.74222" lon="-0.07066">
        <ele>317</ele>
        <time>2021-01-31 15:31:39</time>
      </trkpt>
      <trkpt lat="38.74219" lon="-0.07069">
        <ele>318</ele>
        <time>2021-01-31 15:31:40</time>
      </trkpt>
      <trkpt lat="38.74217" lon="-0.07072">
        <ele>318</ele>
        <time>2021-01-31 15:31:41</time>
      </trkpt>
      <trkpt lat="38.74214" lon="-0.07075">
        <ele>318</ele>
        <time>2021-01-31 15:31:42</time>
      </trkpt>
      <trkpt lat="38.74211" lon="-0.07078">
        <ele>318</ele>
        <time>2021-01-31 15:31:43</time>
      </trkpt>
      <trkpt lat="38.74209" lon="-0.0708">
        <ele>318</ele>
        <time>2021-01-31 15:31:44</time>
      </trkpt>
      <trkpt lat="38.74207" lon="-0.07082">
        <ele>318.8</ele>
        <time>2021-01-31 15:31:45</time>
      </trkpt>
      <trkpt lat="38.74204" lon="-0.07084">
        <ele>319</ele>
        <time>2021-01-31 15:31:46</time>
      </trkpt>
      <trkpt lat="38.74203" lon="-0.07087">
        <ele>319.4</ele>
        <time>2021-01-31 15:31:47</time>
      </trkpt>
      <trkpt lat="38.74201" lon="-0.07089">
        <ele>320</ele>
        <time>2021-01-31 15:31:48</time>
      </trkpt>
      <trkpt lat="38.74198" lon="-0.07092">
        <ele>320</ele>
        <time>2021-01-31 15:31:49</time>
      </trkpt>
      <trkpt lat="38.74197" lon="-0.07094">
        <ele>320</ele>
        <time>2021-01-31 15:31:50</time>
      </trkpt>
      <trkpt lat="38.74195" lon="-0.07096">
        <ele>320</ele>
        <time>2021-01-31 15:31:51</time>
      </trkpt>
      <trkpt lat="38.74193" lon="-0.07098">
        <ele>320</ele>
        <time>2021-01-31 15:31:52</time>
      </trkpt>
      <trkpt lat="38.74191" lon="-0.07101">
        <ele>320</ele>
        <time>2021-01-31 15:31:53</time>
      </trkpt>
      <trkpt lat="38.74189" lon="-0.07103">
        <ele>320</ele>
        <time>2021-01-31 15:31:54</time>
      </trkpt>
      <trkpt lat="38.74187" lon="-0.07105">
        <ele>321</ele>
        <time>2021-01-31 15:31:55</time>
      </trkpt>
      <trkpt lat="38.74185" lon="-0.07107">
        <ele>322</ele>
        <time>2021-01-31 15:31:56</time>
      </trkpt>
      <trkpt lat="38.74183" lon="-0.07109">
        <ele>322.2</ele>
        <time>2021-01-31 15:31:57</time>
      </trkpt>
      <trkpt lat="38.74181" lon="-0.07111">
        <ele>322.2</ele>
        <time>2021-01-31 15:31:58</time>
      </trkpt>
      <trkpt lat="38.74178" lon="-0.07114">
        <ele>322.2</ele>
        <time>2021-01-31 15:31:59</time>
      </trkpt>
      <trkpt lat="38.74176" lon="-0.07116">
        <ele>322.2</ele>
        <time>2021-01-31 15:32:00</time>
      </trkpt>
      <trkpt lat="38.74174" lon="-0.07119">
        <ele>322.2</ele>
        <time>2021-01-31 15:32:01</time>
      </trkpt>
      <trkpt lat="38.74172" lon="-0.07121">
        <ele>322.2</ele>
        <time>2021-01-31 15:32:02</time>
      </trkpt>
      <trkpt lat="38.7417" lon="-0.07124">
        <ele>322.2</ele>
        <time>2021-01-31 15:32:03</time>
      </trkpt>
      <trkpt lat="38.74168" lon="-0.07126">
        <ele>322.2</ele>
        <time>2021-01-31 15:32:04</time>
      </trkpt>
      <trkpt lat="38.74166" lon="-0.07128">
        <ele>322.8</ele>
        <time>2021-01-31 15:32:05</time>
      </trkpt>
      <trkpt lat="38.74164" lon="-0.07131">
        <ele>322.8</ele>
        <time>2021-01-31 15:32:06</time>
      </trkpt>
      <trkpt lat="38.74162" lon="-0.07133">
        <ele>323.6</ele>
        <time>2021-01-31 15:32:07</time>
      </trkpt>
      <trkpt lat="38.74159" lon="-0.07135">
        <ele>323.6</ele>
        <time>2021-01-31 15:32:08</time>
      </trkpt>
      <trkpt lat="38.74156" lon="-0.07138">
        <ele>323.6</ele>
        <time>2021-01-31 15:32:09</time>
      </trkpt>
      <trkpt lat="38.74155" lon="-0.0714">
        <ele>323.6</ele>
        <time>2021-01-31 15:32:10</time>
      </trkpt>
      <trkpt lat="38.74152" lon="-0.07142">
        <ele>323.6</ele>
        <time>2021-01-31 15:32:11</time>
      </trkpt>
      <trkpt lat="38.7415" lon="-0.07144">
        <ele>324</ele>
        <time>2021-01-31 15:32:12</time>
      </trkpt>
      <trkpt lat="38.74148" lon="-0.07147">
        <ele>324</ele>
        <time>2021-01-31 15:32:13</time>
      </trkpt>
      <trkpt lat="38.74145" lon="-0.07149">
        <ele>324</ele>
        <time>2021-01-31 15:32:14</time>
      </trkpt>
      <trkpt lat="38.74143" lon="-0.07152">
        <ele>324</ele>
        <time>2021-01-31 15:32:15</time>
      </trkpt>
      <trkpt lat="38.7414" lon="-0.07154">
        <ele>324.8</ele>
        <time>2021-01-31 15:32:16</time>
      </trkpt>
      <trkpt lat="38.74138" lon="-0.07156">
        <ele>324.8</ele>
        <time>2021-01-31 15:32:17</time>
      </trkpt>
      <trkpt lat="38.74136" lon="-0.07159">
        <ele>324.8</ele>
        <time>2021-01-31 15:32:18</time>
      </trkpt>
      <trkpt lat="38.74134" lon="-0.07161">
        <ele>324.8</ele>
        <time>2021-01-31 15:32:19</time>
      </trkpt>
      <trkpt lat="38.74132" lon="-0.07163">
        <ele>324.8</ele>
        <time>2021-01-31 15:32:20</time>
      </trkpt>
      <trkpt lat="38.74129" lon="-0.07165">
        <ele>325.8</ele>
        <time>2021-01-31 15:32:21</time>
      </trkpt>
      <trkpt lat="38.74127" lon="-0.07167">
        <ele>326.8</ele>
        <time>2021-01-31 15:32:22</time>
      </trkpt>
      <trkpt lat="38.74125" lon="-0.07169">
        <ele>327</ele>
        <time>2021-01-31 15:32:23</time>
      </trkpt>
      <trkpt lat="38.74123" lon="-0.07172">
        <ele>327</ele>
        <time>2021-01-31 15:32:24</time>
      </trkpt>
      <trkpt lat="38.74122" lon="-0.07174">
        <ele>327.2</ele>
        <time>2021-01-31 15:32:25</time>
      </trkpt>
      <trkpt lat="38.74119" lon="-0.07177">
        <ele>327.6</ele>
        <time>2021-01-31 15:32:26</time>
      </trkpt>
      <trkpt lat="38.74117" lon="-0.07179">
        <ele>327.6</ele>
        <time>2021-01-31 15:32:27</time>
      </trkpt>
      <trkpt lat="38.74115" lon="-0.07181">
        <ele>327.6</ele>
        <time>2021-01-31 15:32:28</time>
      </trkpt>
      <trkpt lat="38.74112" lon="-0.07184">
        <ele>327.6</ele>
        <time>2021-01-31 15:32:29</time>
      </trkpt>
      <trkpt lat="38.7411" lon="-0.07186">
        <ele>328.2</ele>
        <time>2021-01-31 15:32:30</time>
      </trkpt>
      <trkpt lat="38.74108" lon="-0.07189">
        <ele>328.4</ele>
        <time>2021-01-31 15:32:31</time>
      </trkpt>
      <trkpt lat="38.74106" lon="-0.07191">
        <ele>328.6</ele>
        <time>2021-01-31 15:32:32</time>
      </trkpt>
      <trkpt lat="38.74104" lon="-0.07194">
        <ele>328.6</ele>
        <time>2021-01-31 15:32:33</time>
      </trkpt>
      <trkpt lat="38.74101" lon="-0.07196">
        <ele>328.6</ele>
        <time>2021-01-31 15:32:34</time>
      </trkpt>
      <trkpt lat="38.74098" lon="-0.07198">
        <ele>328.6</ele>
        <time>2021-01-31 15:32:35</time>
      </trkpt>
      <trkpt lat="38.74096" lon="-0.07201">
        <ele>329</ele>
        <time>2021-01-31 15:32:36</time>
      </trkpt>
      <trkpt lat="38.74094" lon="-0.07203">
        <ele>330</ele>
        <time>2021-01-31 15:32:37</time>
      </trkpt>
      <trkpt lat="38.74091" lon="-0.07205">
        <ele>330.2</ele>
        <time>2021-01-31 15:32:38</time>
      </trkpt>
      <trkpt lat="38.74089" lon="-0.07208">
        <ele>330.6</ele>
        <time>2021-01-31 15:32:39</time>
      </trkpt>
      <trkpt lat="38.74086" lon="-0.0721">
        <ele>330.6</ele>
        <time>2021-01-31 15:32:40</time>
      </trkpt>
      <trkpt lat="38.74083" lon="-0.07212">
        <ele>330.6</ele>
        <time>2021-01-31 15:32:41</time>
      </trkpt>
      <trkpt lat="38.7408" lon="-0.07214">
        <ele>330.6</ele>
        <time>2021-01-31 15:32:42</time>
      </trkpt>
      <trkpt lat="38.74077" lon="-0.07216">
        <ele>330.6</ele>
        <time>2021-01-31 15:32:43</time>
      </trkpt>
      <trkpt lat="38.74074" lon="-0.07217">
        <ele>331.4</ele>
        <time>2021-01-31 15:32:44</time>
      </trkpt>
      <trkpt lat="38.74071" lon="-0.07218">
        <ele>332</ele>
        <time>2021-01-31 15:32:45</time>
      </trkpt>
      <trkpt lat="38.74068" lon="-0.07219">
        <ele>332</ele>
        <time>2021-01-31 15:32:46</time>
      </trkpt>
      <trkpt lat="38.74065" lon="-0.0722">
        <ele>332</ele>
        <time>2021-01-31 15:32:47</time>
      </trkpt>
      <trkpt lat="38.74063" lon="-0.07221">
        <ele>331.6</ele>
        <time>2021-01-31 15:32:48</time>
      </trkpt>
      <trkpt lat="38.7406" lon="-0.07222">
        <ele>331.4</ele>
        <time>2021-01-31 15:32:49</time>
      </trkpt>
      <trkpt lat="38.74057" lon="-0.07223">
        <ele>331.4</ele>
        <time>2021-01-31 15:32:50</time>
      </trkpt>
      <trkpt lat="38.74054" lon="-0.07224">
        <ele>331.4</ele>
        <time>2021-01-31 15:32:51</time>
      </trkpt>
      <trkpt lat="38.74051" lon="-0.07224">
        <ele>332.4</ele>
        <time>2021-01-31 15:32:52</time>
      </trkpt>
      <trkpt lat="38.74048" lon="-0.07225">
        <ele>332.4</ele>
        <time>2021-01-31 15:32:53</time>
      </trkpt>
      <trkpt lat="38.74045" lon="-0.07225">
        <ele>332.4</ele>
        <time>2021-01-31 15:32:54</time>
      </trkpt>
      <trkpt lat="38.74042" lon="-0.07226">
        <ele>331.8</ele>
        <time>2021-01-31 15:32:55</time>
      </trkpt>
      <trkpt lat="38.74038" lon="-0.07226">
        <ele>331.8</ele>
        <time>2021-01-31 15:32:56</time>
      </trkpt>
      <trkpt lat="38.74035" lon="-0.07226">
        <ele>331.8</ele>
        <time>2021-01-31 15:32:57</time>
      </trkpt>
      <trkpt lat="38.74032" lon="-0.07226">
        <ele>331.8</ele>
        <time>2021-01-31 15:32:58</time>
      </trkpt>
      <trkpt lat="38.74028" lon="-0.07226">
        <ele>332</ele>
        <time>2021-01-31 15:32:59</time>
      </trkpt>
      <trkpt lat="38.74025" lon="-0.07227">
        <ele>332.4</ele>
        <time>2021-01-31 15:33:00</time>
      </trkpt>
      <trkpt lat="38.74021" lon="-0.07227">
        <ele>332.6</ele>
        <time>2021-01-31 15:33:01</time>
      </trkpt>
      <trkpt lat="38.74017" lon="-0.07228">
        <ele>333</ele>
        <time>2021-01-31 15:33:02</time>
      </trkpt>
      <trkpt lat="38.74014" lon="-0.07228">
        <ele>333</ele>
        <time>2021-01-31 15:33:03</time>
      </trkpt>
      <trkpt lat="38.74014" lon="-0.07228">
        <ele>333</ele>
        <time>2021-01-31 15:33:04</time>
      </trkpt>
      <trkpt lat="38.74007" lon="-0.07229">
        <ele>333</ele>
        <time>2021-01-31 15:33:05</time>
      </trkpt>
      <trkpt lat="38.74003" lon="-0.0723">
        <ele>333</ele>
        <time>2021-01-31 15:33:06</time>
      </trkpt>
      <trkpt lat="38.73999" lon="-0.0723">
        <ele>333</ele>
        <time>2021-01-31 15:33:07</time>
      </trkpt>
      <trkpt lat="38.73996" lon="-0.0723">
        <ele>333.6</ele>
        <time>2021-01-31 15:33:08</time>
      </trkpt>
      <trkpt lat="38.73992" lon="-0.0723">
        <ele>333.8</ele>
        <time>2021-01-31 15:33:09</time>
      </trkpt>
      <trkpt lat="38.73988" lon="-0.07231">
        <ele>334.2</ele>
        <time>2021-01-31 15:33:10</time>
      </trkpt>
      <trkpt lat="38.73984" lon="-0.07231">
        <ele>334.2</ele>
        <time>2021-01-31 15:33:11</time>
      </trkpt>
      <trkpt lat="38.7398" lon="-0.07231">
        <ele>334.2</ele>
        <time>2021-01-31 15:33:12</time>
      </trkpt>
      <trkpt lat="38.73976" lon="-0.07231">
        <ele>333.8</ele>
        <time>2021-01-31 15:33:13</time>
      </trkpt>
      <trkpt lat="38.73973" lon="-0.07232">
        <ele>333.8</ele>
        <time>2021-01-31 15:33:14</time>
      </trkpt>
      <trkpt lat="38.73969" lon="-0.07232">
        <ele>333.8</ele>
        <time>2021-01-31 15:33:15</time>
      </trkpt>
      <trkpt lat="38.73965" lon="-0.07232">
        <ele>334.8</ele>
        <time>2021-01-31 15:33:16</time>
      </trkpt>
      <trkpt lat="38.73962" lon="-0.07232">
        <ele>334.8</ele>
        <time>2021-01-31 15:33:17</time>
      </trkpt>
      <trkpt lat="38.73959" lon="-0.07233">
        <ele>334.8</ele>
        <time>2021-01-31 15:33:18</time>
      </trkpt>
      <trkpt lat="38.73956" lon="-0.07233">
        <ele>334.8</ele>
        <time>2021-01-31 15:33:19</time>
      </trkpt>
      <trkpt lat="38.73953" lon="-0.07234">
        <ele>335.4</ele>
        <time>2021-01-31 15:33:20</time>
      </trkpt>
      <trkpt lat="38.73949" lon="-0.07234">
        <ele>335.4</ele>
        <time>2021-01-31 15:33:21</time>
      </trkpt>
      <trkpt lat="38.73946" lon="-0.07234">
        <ele>335.4</ele>
        <time>2021-01-31 15:33:22</time>
      </trkpt>
      <trkpt lat="38.73942" lon="-0.07234">
        <ele>335.4</ele>
        <time>2021-01-31 15:33:23</time>
      </trkpt>
      <trkpt lat="38.73938" lon="-0.07234">
        <ele>335.6</ele>
        <time>2021-01-31 15:33:24</time>
      </trkpt>
      <trkpt lat="38.73934" lon="-0.07235">
        <ele>336</ele>
        <time>2021-01-31 15:33:25</time>
      </trkpt>
      <trkpt lat="38.7393" lon="-0.07235">
        <ele>336</ele>
        <time>2021-01-31 15:33:26</time>
      </trkpt>
      <trkpt lat="38.73926" lon="-0.07235">
        <ele>336</ele>
        <time>2021-01-31 15:33:27</time>
      </trkpt>
      <trkpt lat="38.73922" lon="-0.07235">
        <ele>335.8</ele>
        <time>2021-01-31 15:33:28</time>
      </trkpt>
      <trkpt lat="38.73918" lon="-0.07236">
        <ele>335.8</ele>
        <time>2021-01-31 15:33:29</time>
      </trkpt>
      <trkpt lat="38.73914" lon="-0.07236">
        <ele>335.8</ele>
        <time>2021-01-31 15:33:30</time>
      </trkpt>
      <trkpt lat="38.7391" lon="-0.07235">
        <ele>336</ele>
        <time>2021-01-31 15:33:31</time>
      </trkpt>
      <trkpt lat="38.73906" lon="-0.07237">
        <ele>336.6</ele>
        <time>2021-01-31 15:33:32</time>
      </trkpt>
      <trkpt lat="38.73902" lon="-0.07238">
        <ele>336.8</ele>
        <time>2021-01-31 15:33:33</time>
      </trkpt>
      <trkpt lat="38.73898" lon="-0.07239">
        <ele>336.8</ele>
        <time>2021-01-31 15:33:34</time>
      </trkpt>
      <trkpt lat="38.73894" lon="-0.07239">
        <ele>336.8</ele>
        <time>2021-01-31 15:33:35</time>
      </trkpt>
      <trkpt lat="38.73891" lon="-0.0724">
        <ele>336.8</ele>
        <time>2021-01-31 15:33:36</time>
      </trkpt>
      <trkpt lat="38.73887" lon="-0.0724">
        <ele>336.8</ele>
        <time>2021-01-31 15:33:37</time>
      </trkpt>
      <trkpt lat="38.73883" lon="-0.07241">
        <ele>336.8</ele>
        <time>2021-01-31 15:33:38</time>
      </trkpt>
      <trkpt lat="38.73879" lon="-0.07241">
        <ele>337.8</ele>
        <time>2021-01-31 15:33:39</time>
      </trkpt>
      <trkpt lat="38.73875" lon="-0.07241">
        <ele>337.8</ele>
        <time>2021-01-31 15:33:40</time>
      </trkpt>
      <trkpt lat="38.73871" lon="-0.07242">
        <ele>338</ele>
        <time>2021-01-31 15:33:41</time>
      </trkpt>
      <trkpt lat="38.73867" lon="-0.07243">
        <ele>338</ele>
        <time>2021-01-31 15:33:42</time>
      </trkpt>
      <trkpt lat="38.73863" lon="-0.07243">
        <ele>338</ele>
        <time>2021-01-31 15:33:43</time>
      </trkpt>
      <trkpt lat="38.73859" lon="-0.07243">
        <ele>337</ele>
        <time>2021-01-31 15:33:44</time>
      </trkpt>
      <trkpt lat="38.73855" lon="-0.07244">
        <ele>337</ele>
        <time>2021-01-31 15:33:45</time>
      </trkpt>
      <trkpt lat="38.73851" lon="-0.07244">
        <ele>337</ele>
        <time>2021-01-31 15:33:46</time>
      </trkpt>
      <trkpt lat="38.73847" lon="-0.07244">
        <ele>337</ele>
        <time>2021-01-31 15:33:47</time>
      </trkpt>
      <trkpt lat="38.73843" lon="-0.07244">
        <ele>337</ele>
        <time>2021-01-31 15:33:48</time>
      </trkpt>
      <trkpt lat="38.73839" lon="-0.07245">
        <ele>337</ele>
        <time>2021-01-31 15:33:49</time>
      </trkpt>
      <trkpt lat="38.73835" lon="-0.07245">
        <ele>338</ele>
        <time>2021-01-31 15:33:50</time>
      </trkpt>
      <trkpt lat="38.73831" lon="-0.07245">
        <ele>338</ele>
        <time>2021-01-31 15:33:51</time>
      </trkpt>
      <trkpt lat="38.73827" lon="-0.07245">
        <ele>338</ele>
        <time>2021-01-31 15:33:52</time>
      </trkpt>
      <trkpt lat="38.73823" lon="-0.07245">
        <ele>338</ele>
        <time>2021-01-31 15:33:53</time>
      </trkpt>
      <trkpt lat="38.73819" lon="-0.07246">
        <ele>339</ele>
        <time>2021-01-31 15:33:54</time>
      </trkpt>
      <trkpt lat="38.73814" lon="-0.07246">
        <ele>339.6</ele>
        <time>2021-01-31 15:33:55</time>
      </trkpt>
      <trkpt lat="38.7381" lon="-0.07245">
        <ele>339.6</ele>
        <time>2021-01-31 15:33:56</time>
      </trkpt>
      <trkpt lat="38.73806" lon="-0.07244">
        <ele>339.8</ele>
        <time>2021-01-31 15:33:57</time>
      </trkpt>
      <trkpt lat="38.73802" lon="-0.07243">
        <ele>340.2</ele>
        <time>2021-01-31 15:33:58</time>
      </trkpt>
      <trkpt lat="38.73798" lon="-0.07242">
        <ele>340.4</ele>
        <time>2021-01-31 15:33:59</time>
      </trkpt>
      <trkpt lat="38.73794" lon="-0.0724">
        <ele>340.4</ele>
        <time>2021-01-31 15:34:00</time>
      </trkpt>
      <trkpt lat="38.73789" lon="-0.07237">
        <ele>340.4</ele>
        <time>2021-01-31 15:34:01</time>
      </trkpt>
      <trkpt lat="38.73785" lon="-0.07235">
        <ele>340.4</ele>
        <time>2021-01-31 15:34:02</time>
      </trkpt>
      <trkpt lat="38.7378" lon="-0.07233">
        <ele>340.6</ele>
        <time>2021-01-31 15:34:03</time>
      </trkpt>
      <trkpt lat="38.73776" lon="-0.07231">
        <ele>340.6</ele>
        <time>2021-01-31 15:34:04</time>
      </trkpt>
      <trkpt lat="38.73771" lon="-0.07229">
        <ele>340.6</ele>
        <time>2021-01-31 15:34:05</time>
      </trkpt>
      <trkpt lat="38.73767" lon="-0.07226">
        <ele>340.6</ele>
        <time>2021-01-31 15:34:06</time>
      </trkpt>
      <trkpt lat="38.73763" lon="-0.07224">
        <ele>341.4</ele>
        <time>2021-01-31 15:34:07</time>
      </trkpt>
      <trkpt lat="38.73758" lon="-0.07221">
        <ele>341.4</ele>
        <time>2021-01-31 15:34:08</time>
      </trkpt>
      <trkpt lat="38.73755" lon="-0.07219">
        <ele>341.4</ele>
        <time>2021-01-31 15:34:09</time>
      </trkpt>
      <trkpt lat="38.73751" lon="-0.07217">
        <ele>341.4</ele>
        <time>2021-01-31 15:34:10</time>
      </trkpt>
      <trkpt lat="38.73748" lon="-0.07213">
        <ele>341.4</ele>
        <time>2021-01-31 15:34:11</time>
      </trkpt>
      <trkpt lat="38.73746" lon="-0.07209">
        <ele>341.4</ele>
        <time>2021-01-31 15:34:12</time>
      </trkpt>
      <trkpt lat="38.73744" lon="-0.07204">
        <ele>341.4</ele>
        <time>2021-01-31 15:34:13</time>
      </trkpt>
      <trkpt lat="38.73743" lon="-0.07198">
        <ele>342.4</ele>
        <time>2021-01-31 15:34:14</time>
      </trkpt>
      <trkpt lat="38.73742" lon="-0.07193">
        <ele>342.4</ele>
        <time>2021-01-31 15:34:15</time>
      </trkpt>
      <trkpt lat="38.73741" lon="-0.07187">
        <ele>342.6</ele>
        <time>2021-01-31 15:34:16</time>
      </trkpt>
      <trkpt lat="38.73741" lon="-0.07182">
        <ele>343.2</ele>
        <time>2021-01-31 15:34:17</time>
      </trkpt>
      <trkpt lat="38.73741" lon="-0.07176">
        <ele>343.2</ele>
        <time>2021-01-31 15:34:18</time>
      </trkpt>
      <trkpt lat="38.7374" lon="-0.07171">
        <ele>343.2</ele>
        <time>2021-01-31 15:34:19</time>
      </trkpt>
      <trkpt lat="38.7374" lon="-0.07166">
        <ele>342.8</ele>
        <time>2021-01-31 15:34:20</time>
      </trkpt>
      <trkpt lat="38.73741" lon="-0.07161">
        <ele>342.8</ele>
        <time>2021-01-31 15:34:21</time>
      </trkpt>
      <trkpt lat="38.73741" lon="-0.07156">
        <ele>342.8</ele>
        <time>2021-01-31 15:34:22</time>
      </trkpt>
      <trkpt lat="38.73741" lon="-0.07152">
        <ele>343.8</ele>
        <time>2021-01-31 15:34:23</time>
      </trkpt>
      <trkpt lat="38.73742" lon="-0.07146">
        <ele>343.8</ele>
        <time>2021-01-31 15:34:24</time>
      </trkpt>
      <trkpt lat="38.73743" lon="-0.07141">
        <ele>343.8</ele>
        <time>2021-01-31 15:34:25</time>
      </trkpt>
      <trkpt lat="38.73743" lon="-0.07137">
        <ele>343.8</ele>
        <time>2021-01-31 15:34:26</time>
      </trkpt>
      <trkpt lat="38.73744" lon="-0.07132">
        <ele>343.8</ele>
        <time>2021-01-31 15:34:27</time>
      </trkpt>
      <trkpt lat="38.73745" lon="-0.07128">
        <ele>344.2</ele>
        <time>2021-01-31 15:34:28</time>
      </trkpt>
      <trkpt lat="38.73746" lon="-0.07123">
        <ele>344.4</ele>
        <time>2021-01-31 15:34:29</time>
      </trkpt>
      <trkpt lat="38.73747" lon="-0.07118">
        <ele>344.4</ele>
        <time>2021-01-31 15:34:30</time>
      </trkpt>
      <trkpt lat="38.73749" lon="-0.07113">
        <ele>344.4</ele>
        <time>2021-01-31 15:34:31</time>
      </trkpt>
      <trkpt lat="38.73751" lon="-0.07108">
        <ele>344.4</ele>
        <time>2021-01-31 15:34:32</time>
      </trkpt>
      <trkpt lat="38.73752" lon="-0.07103">
        <ele>344.4</ele>
        <time>2021-01-31 15:34:33</time>
      </trkpt>
      <trkpt lat="38.73755" lon="-0.07098">
        <ele>345.4</ele>
        <time>2021-01-31 15:34:34</time>
      </trkpt>
      <trkpt lat="38.73757" lon="-0.07093">
        <ele>346.2</ele>
        <time>2021-01-31 15:34:35</time>
      </trkpt>
      <trkpt lat="38.73758" lon="-0.07087">
        <ele>346.4</ele>
        <time>2021-01-31 15:34:36</time>
      </trkpt>
      <trkpt lat="38.7376" lon="-0.07082">
        <ele>346.6</ele>
        <time>2021-01-31 15:34:37</time>
      </trkpt>
      <trkpt lat="38.73761" lon="-0.07076">
        <ele>347</ele>
        <time>2021-01-31 15:34:38</time>
      </trkpt>
      <trkpt lat="38.73762" lon="-0.07071">
        <ele>347.4</ele>
        <time>2021-01-31 15:34:39</time>
      </trkpt>
      <trkpt lat="38.73762" lon="-0.07065">
        <ele>347.4</ele>
        <time>2021-01-31 15:34:40</time>
      </trkpt>
      <trkpt lat="38.73763" lon="-0.07059">
        <ele>347.4</ele>
        <time>2021-01-31 15:34:41</time>
      </trkpt>
      <trkpt lat="38.73762" lon="-0.07054">
        <ele>347.4</ele>
        <time>2021-01-31 15:34:42</time>
      </trkpt>
      <trkpt lat="38.73761" lon="-0.07048">
        <ele>348</ele>
        <time>2021-01-31 15:34:43</time>
      </trkpt>
      <trkpt lat="38.7376" lon="-0.07043">
        <ele>348.6</ele>
        <time>2021-01-31 15:34:44</time>
      </trkpt>
      <trkpt lat="38.73759" lon="-0.07038">
        <ele>348.6</ele>
        <time>2021-01-31 15:34:45</time>
      </trkpt>
      <trkpt lat="38.73758" lon="-0.07033">
        <ele>348.6</ele>
        <time>2021-01-31 15:34:46</time>
      </trkpt>
      <trkpt lat="38.73757" lon="-0.07027">
        <ele>348.6</ele>
        <time>2021-01-31 15:34:47</time>
      </trkpt>
      <trkpt lat="38.73756" lon="-0.07023">
        <ele>349.6</ele>
        <time>2021-01-31 15:34:48</time>
      </trkpt>
      <trkpt lat="38.73755" lon="-0.07018">
        <ele>349.6</ele>
        <time>2021-01-31 15:34:49</time>
      </trkpt>
      <trkpt lat="38.73754" lon="-0.07013">
        <ele>349.6</ele>
        <time>2021-01-31 15:34:50</time>
      </trkpt>
      <trkpt lat="38.73753" lon="-0.07008">
        <ele>349.6</ele>
        <time>2021-01-31 15:34:51</time>
      </trkpt>
      <trkpt lat="38.73752" lon="-0.07003">
        <ele>349.8</ele>
        <time>2021-01-31 15:34:52</time>
      </trkpt>
      <trkpt lat="38.7375" lon="-0.06999">
        <ele>350.2</ele>
        <time>2021-01-31 15:34:53</time>
      </trkpt>
      <trkpt lat="38.73749" lon="-0.06994">
        <ele>350.4</ele>
        <time>2021-01-31 15:34:54</time>
      </trkpt>
      <trkpt lat="38.73748" lon="-0.0699">
        <ele>350.6</ele>
        <time>2021-01-31 15:34:55</time>
      </trkpt>
      <trkpt lat="38.73747" lon="-0.06985">
        <ele>350.6</ele>
        <time>2021-01-31 15:34:56</time>
      </trkpt>
      <trkpt lat="38.73745" lon="-0.06981">
        <ele>350.6</ele>
        <time>2021-01-31 15:34:57</time>
      </trkpt>
      <trkpt lat="38.73744" lon="-0.06977">
        <ele>350.6</ele>
        <time>2021-01-31 15:34:58</time>
      </trkpt>
      <trkpt lat="38.73743" lon="-0.06972">
        <ele>351</ele>
        <time>2021-01-31 15:34:59</time>
      </trkpt>
      <trkpt lat="38.73741" lon="-0.06968">
        <ele>351.4</ele>
        <time>2021-01-31 15:35:00</time>
      </trkpt>
      <trkpt lat="38.7374" lon="-0.06963">
        <ele>352</ele>
        <time>2021-01-31 15:35:01</time>
      </trkpt>
      <trkpt lat="38.73739" lon="-0.06959">
        <ele>352.6</ele>
        <time>2021-01-31 15:35:02</time>
      </trkpt>
      <trkpt lat="38.73738" lon="-0.06955">
        <ele>352.6</ele>
        <time>2021-01-31 15:35:03</time>
      </trkpt>
      <trkpt lat="38.73736" lon="-0.06951">
        <ele>352.6</ele>
        <time>2021-01-31 15:35:04</time>
      </trkpt>
      <trkpt lat="38.73735" lon="-0.06947">
        <ele>352.6</ele>
        <time>2021-01-31 15:35:05</time>
      </trkpt>
      <trkpt lat="38.73734" lon="-0.06942">
        <ele>352.8</ele>
        <time>2021-01-31 15:35:06</time>
      </trkpt>
      <trkpt lat="38.73733" lon="-0.06938">
        <ele>353.8</ele>
        <time>2021-01-31 15:35:07</time>
      </trkpt>
      <trkpt lat="38.73731" lon="-0.06934">
        <ele>354</ele>
        <time>2021-01-31 15:35:08</time>
      </trkpt>
      <trkpt lat="38.7373" lon="-0.0693">
        <ele>354</ele>
        <time>2021-01-31 15:35:09</time>
      </trkpt>
      <trkpt lat="38.73729" lon="-0.06925">
        <ele>354</ele>
        <time>2021-01-31 15:35:10</time>
      </trkpt>
      <trkpt lat="38.73727" lon="-0.06921">
        <ele>354</ele>
        <time>2021-01-31 15:35:11</time>
      </trkpt>
      <trkpt lat="38.73726" lon="-0.06917">
        <ele>354</ele>
        <time>2021-01-31 15:35:12</time>
      </trkpt>
      <trkpt lat="38.73725" lon="-0.06913">
        <ele>354</ele>
        <time>2021-01-31 15:35:13</time>
      </trkpt>
      <trkpt lat="38.73724" lon="-0.06908">
        <ele>354</ele>
        <time>2021-01-31 15:35:14</time>
      </trkpt>
      <trkpt lat="38.73723" lon="-0.06904">
        <ele>354.6</ele>
        <time>2021-01-31 15:35:15</time>
      </trkpt>
      <trkpt lat="38.73721" lon="-0.06899">
        <ele>355</ele>
        <time>2021-01-31 15:35:16</time>
      </trkpt>
      <trkpt lat="38.7372" lon="-0.06895">
        <ele>355</ele>
        <time>2021-01-31 15:35:17</time>
      </trkpt>
      <trkpt lat="38.73718" lon="-0.06891">
        <ele>355</ele>
        <time>2021-01-31 15:35:18</time>
      </trkpt>
      <trkpt lat="38.73716" lon="-0.06888">
        <ele>355</ele>
        <time>2021-01-31 15:35:19</time>
      </trkpt>
      <trkpt lat="38.73714" lon="-0.06883">
        <ele>355</ele>
        <time>2021-01-31 15:35:20</time>
      </trkpt>
      <trkpt lat="38.73712" lon="-0.0688">
        <ele>355.2</ele>
        <time>2021-01-31 15:35:21</time>
      </trkpt>
      <trkpt lat="38.7371" lon="-0.06877">
        <ele>356.2</ele>
        <time>2021-01-31 15:35:22</time>
      </trkpt>
      <trkpt lat="38.73708" lon="-0.06874">
        <ele>356.4</ele>
        <time>2021-01-31 15:35:23</time>
      </trkpt>
      <trkpt lat="38.73705" lon="-0.0687">
        <ele>356.6</ele>
        <time>2021-01-31 15:35:24</time>
      </trkpt>
      <trkpt lat="38.73703" lon="-0.06867">
        <ele>357.2</ele>
        <time>2021-01-31 15:35:25</time>
      </trkpt>
      <trkpt lat="38.737" lon="-0.06865">
        <ele>357.2</ele>
        <time>2021-01-31 15:35:26</time>
      </trkpt>
      <trkpt lat="38.73697" lon="-0.06862">
        <ele>357.2</ele>
        <time>2021-01-31 15:35:27</time>
      </trkpt>
      <trkpt lat="38.73694" lon="-0.0686">
        <ele>357.2</ele>
        <time>2021-01-31 15:35:28</time>
      </trkpt>
      <trkpt lat="38.73692" lon="-0.06858">
        <ele>358.2</ele>
        <time>2021-01-31 15:35:29</time>
      </trkpt>
      <trkpt lat="38.73689" lon="-0.06856">
        <ele>358.2</ele>
        <time>2021-01-31 15:35:30</time>
      </trkpt>
      <trkpt lat="38.73686" lon="-0.06855">
        <ele>358.2</ele>
        <time>2021-01-31 15:35:31</time>
      </trkpt>
      <trkpt lat="38.73684" lon="-0.06854">
        <ele>358.2</ele>
        <time>2021-01-31 15:35:32</time>
      </trkpt>
      <trkpt lat="38.73681" lon="-0.06852">
        <ele>358.2</ele>
        <time>2021-01-31 15:35:33</time>
      </trkpt>
      <trkpt lat="38.73679" lon="-0.06849">
        <ele>358.2</ele>
        <time>2021-01-31 15:35:34</time>
      </trkpt>
      <trkpt lat="38.73678" lon="-0.06848">
        <ele>358.2</ele>
        <time>2021-01-31 15:35:35</time>
      </trkpt>
      <trkpt lat="38.73675" lon="-0.06847">
        <ele>358.8</ele>
        <time>2021-01-31 15:35:36</time>
      </trkpt>
      <trkpt lat="38.73673" lon="-0.06845">
        <ele>359.4</ele>
        <time>2021-01-31 15:35:37</time>
      </trkpt>
      <trkpt lat="38.7367" lon="-0.06843">
        <ele>359.8</ele>
        <time>2021-01-31 15:35:38</time>
      </trkpt>
      <trkpt lat="38.73667" lon="-0.06842">
        <ele>359.8</ele>
        <time>2021-01-31 15:35:39</time>
      </trkpt>
      <trkpt lat="38.73664" lon="-0.0684">
        <ele>359.8</ele>
        <time>2021-01-31 15:35:40</time>
      </trkpt>
      <trkpt lat="38.73661" lon="-0.06839">
        <ele>359.4</ele>
        <time>2021-01-31 15:35:41</time>
      </trkpt>
      <trkpt lat="38.73658" lon="-0.06839">
        <ele>359.4</ele>
        <time>2021-01-31 15:35:42</time>
      </trkpt>
      <trkpt lat="38.73656" lon="-0.06838">
        <ele>359.4</ele>
        <time>2021-01-31 15:35:43</time>
      </trkpt>
      <trkpt lat="38.73653" lon="-0.06836">
        <ele>359.8</ele>
        <time>2021-01-31 15:35:44</time>
      </trkpt>
      <trkpt lat="38.73651" lon="-0.06835">
        <ele>360.2</ele>
        <time>2021-01-31 15:35:45</time>
      </trkpt>
      <trkpt lat="38.73648" lon="-0.06834">
        <ele>360.2</ele>
        <time>2021-01-31 15:35:46</time>
      </trkpt>
      <trkpt lat="38.73645" lon="-0.06833">
        <ele>360.2</ele>
        <time>2021-01-31 15:35:47</time>
      </trkpt>
      <trkpt lat="38.73643" lon="-0.06832">
        <ele>360.2</ele>
        <time>2021-01-31 15:35:48</time>
      </trkpt>
      <trkpt lat="38.7364" lon="-0.06831">
        <ele>360.2</ele>
        <time>2021-01-31 15:35:49</time>
      </trkpt>
      <trkpt lat="38.73637" lon="-0.06831">
        <ele>360.2</ele>
        <time>2021-01-31 15:35:50</time>
      </trkpt>
      <trkpt lat="38.73634" lon="-0.0683">
        <ele>360.6</ele>
        <time>2021-01-31 15:35:51</time>
      </trkpt>
      <trkpt lat="38.73632" lon="-0.0683">
        <ele>360.6</ele>
        <time>2021-01-31 15:35:52</time>
      </trkpt>
      <trkpt lat="38.73629" lon="-0.0683">
        <ele>361</ele>
        <time>2021-01-31 15:35:53</time>
      </trkpt>
      <trkpt lat="38.73626" lon="-0.06829">
        <ele>361.2</ele>
        <time>2021-01-31 15:35:54</time>
      </trkpt>
      <trkpt lat="38.73624" lon="-0.06829">
        <ele>361.6</ele>
        <time>2021-01-31 15:35:55</time>
      </trkpt>
      <trkpt lat="38.73621" lon="-0.0683">
        <ele>361.8</ele>
        <time>2021-01-31 15:35:56</time>
      </trkpt>
      <trkpt lat="38.73618" lon="-0.0683">
        <ele>362</ele>
        <time>2021-01-31 15:35:57</time>
      </trkpt>
      <trkpt lat="38.73616" lon="-0.06832">
        <ele>362.4</ele>
        <time>2021-01-31 15:35:58</time>
      </trkpt>
      <trkpt lat="38.73613" lon="-0.06832">
        <ele>362.4</ele>
        <time>2021-01-31 15:35:59</time>
      </trkpt>
      <trkpt lat="38.7361" lon="-0.06832">
        <ele>362.4</ele>
        <time>2021-01-31 15:36:00</time>
      </trkpt>
      <trkpt lat="38.73607" lon="-0.06832">
        <ele>362.4</ele>
        <time>2021-01-31 15:36:01</time>
      </trkpt>
      <trkpt lat="38.73604" lon="-0.06833">
        <ele>362.6</ele>
        <time>2021-01-31 15:36:02</time>
      </trkpt>
      <trkpt lat="38.73602" lon="-0.06833">
        <ele>362.8</ele>
        <time>2021-01-31 15:36:03</time>
      </trkpt>
      <trkpt lat="38.736" lon="-0.06833">
        <ele>362.8</ele>
        <time>2021-01-31 15:36:04</time>
      </trkpt>
      <trkpt lat="38.73597" lon="-0.06834">
        <ele>362.8</ele>
        <time>2021-01-31 15:36:05</time>
      </trkpt>
      <trkpt lat="38.73594" lon="-0.06834">
        <ele>362.4</ele>
        <time>2021-01-31 15:36:06</time>
      </trkpt>
      <trkpt lat="38.73592" lon="-0.06833">
        <ele>362.4</ele>
        <time>2021-01-31 15:36:07</time>
      </trkpt>
      <trkpt lat="38.7359" lon="-0.06834">
        <ele>362.4</ele>
        <time>2021-01-31 15:36:08</time>
      </trkpt>
      <trkpt lat="38.73587" lon="-0.06834">
        <ele>363.2</ele>
        <time>2021-01-31 15:36:09</time>
      </trkpt>
      <trkpt lat="38.73584" lon="-0.06834">
        <ele>363.2</ele>
        <time>2021-01-31 15:36:10</time>
      </trkpt>
      <trkpt lat="38.73581" lon="-0.06834">
        <ele>363.2</ele>
        <time>2021-01-31 15:36:11</time>
      </trkpt>
      <trkpt lat="38.73578" lon="-0.06834">
        <ele>363.2</ele>
        <time>2021-01-31 15:36:12</time>
      </trkpt>
      <trkpt lat="38.73576" lon="-0.06835">
        <ele>363.2</ele>
        <time>2021-01-31 15:36:13</time>
      </trkpt>
      <trkpt lat="38.73574" lon="-0.06835">
        <ele>363.2</ele>
        <time>2021-01-31 15:36:14</time>
      </trkpt>
      <trkpt lat="38.73571" lon="-0.06837">
        <ele>363.2</ele>
        <time>2021-01-31 15:36:15</time>
      </trkpt>
      <trkpt lat="38.73569" lon="-0.06837">
        <ele>364.2</ele>
        <time>2021-01-31 15:36:16</time>
      </trkpt>
      <trkpt lat="38.73568" lon="-0.06839">
        <ele>365.2</ele>
        <time>2021-01-31 15:36:17</time>
      </trkpt>
      <trkpt lat="38.73566" lon="-0.06839">
        <ele>365.6</ele>
        <time>2021-01-31 15:36:18</time>
      </trkpt>
      <trkpt lat="38.73563" lon="-0.0684">
        <ele>366.6</ele>
        <time>2021-01-31 15:36:19</time>
      </trkpt>
      <trkpt lat="38.73561" lon="-0.0684">
        <ele>367.4</ele>
        <time>2021-01-31 15:36:20</time>
      </trkpt>
      <trkpt lat="38.73558" lon="-0.06841">
        <ele>367.4</ele>
        <time>2021-01-31 15:36:21</time>
      </trkpt>
      <trkpt lat="38.73556" lon="-0.06841">
        <ele>367.4</ele>
        <time>2021-01-31 15:36:22</time>
      </trkpt>
      <trkpt lat="38.73554" lon="-0.06842">
        <ele>367.4</ele>
        <time>2021-01-31 15:36:23</time>
      </trkpt>
      <trkpt lat="38.7355" lon="-0.06844">
        <ele>367.4</ele>
        <time>2021-01-31 15:36:24</time>
      </trkpt>
      <trkpt lat="38.73547" lon="-0.06845">
        <ele>367</ele>
        <time>2021-01-31 15:36:25</time>
      </trkpt>
      <trkpt lat="38.73545" lon="-0.06846">
        <ele>366.6</ele>
        <time>2021-01-31 15:36:26</time>
      </trkpt>
      <trkpt lat="38.73542" lon="-0.06847">
        <ele>366.6</ele>
        <time>2021-01-31 15:36:27</time>
      </trkpt>
      <trkpt lat="38.7354" lon="-0.06848">
        <ele>366.6</ele>
        <time>2021-01-31 15:36:28</time>
      </trkpt>
      <trkpt lat="38.73536" lon="-0.06849">
        <ele>367.4</ele>
        <time>2021-01-31 15:36:29</time>
      </trkpt>
      <trkpt lat="38.73534" lon="-0.0685">
        <ele>367.4</ele>
        <time>2021-01-31 15:36:30</time>
      </trkpt>
      <trkpt lat="38.73531" lon="-0.06851">
        <ele>367.4</ele>
        <time>2021-01-31 15:36:31</time>
      </trkpt>
      <trkpt lat="38.73529" lon="-0.06853">
        <ele>367.2</ele>
        <time>2021-01-31 15:36:32</time>
      </trkpt>
      <trkpt lat="38.73526" lon="-0.06855">
        <ele>367.2</ele>
        <time>2021-01-31 15:36:33</time>
      </trkpt>
      <trkpt lat="38.73523" lon="-0.06856">
        <ele>367.2</ele>
        <time>2021-01-31 15:36:34</time>
      </trkpt>
      <trkpt lat="38.7352" lon="-0.06857">
        <ele>368.2</ele>
        <time>2021-01-31 15:36:35</time>
      </trkpt>
      <trkpt lat="38.73518" lon="-0.06858">
        <ele>368.6</ele>
        <time>2021-01-31 15:36:36</time>
      </trkpt>
      <trkpt lat="38.73515" lon="-0.06859">
        <ele>368.6</ele>
        <time>2021-01-31 15:36:37</time>
      </trkpt>
      <trkpt lat="38.73512" lon="-0.0686">
        <ele>368.6</ele>
        <time>2021-01-31 15:36:38</time>
      </trkpt>
      <trkpt lat="38.73509" lon="-0.06861">
        <ele>368.6</ele>
        <time>2021-01-31 15:36:39</time>
      </trkpt>
      <trkpt lat="38.73507" lon="-0.06862">
        <ele>368.6</ele>
        <time>2021-01-31 15:36:40</time>
      </trkpt>
      <trkpt lat="38.73504" lon="-0.06863">
        <ele>368.6</ele>
        <time>2021-01-31 15:36:41</time>
      </trkpt>
      <trkpt lat="38.73502" lon="-0.06864">
        <ele>368.6</ele>
        <time>2021-01-31 15:36:42</time>
      </trkpt>
      <trkpt lat="38.73499" lon="-0.06866">
        <ele>368</ele>
        <time>2021-01-31 15:36:43</time>
      </trkpt>
      <trkpt lat="38.73495" lon="-0.06868">
        <ele>367.6</ele>
        <time>2021-01-31 15:36:44</time>
      </trkpt>
      <trkpt lat="38.73492" lon="-0.06869">
        <ele>367.6</ele>
        <time>2021-01-31 15:36:45</time>
      </trkpt>
      <trkpt lat="38.73489" lon="-0.06871">
        <ele>367.6</ele>
        <time>2021-01-31 15:36:46</time>
      </trkpt>
      <trkpt lat="38.73487" lon="-0.06872">
        <ele>368.6</ele>
        <time>2021-01-31 15:36:47</time>
      </trkpt>
      <trkpt lat="38.73485" lon="-0.06873">
        <ele>369</ele>
        <time>2021-01-31 15:36:48</time>
      </trkpt>
      <trkpt lat="38.73483" lon="-0.06874">
        <ele>369</ele>
        <time>2021-01-31 15:36:49</time>
      </trkpt>
      <trkpt lat="38.73482" lon="-0.06875">
        <ele>369</ele>
        <time>2021-01-31 15:36:50</time>
      </trkpt>
      <trkpt lat="38.7348" lon="-0.06877">
        <ele>369</ele>
        <time>2021-01-31 15:36:51</time>
      </trkpt>
      <trkpt lat="38.73478" lon="-0.0688">
        <ele>369</ele>
        <time>2021-01-31 15:36:52</time>
      </trkpt>
      <trkpt lat="38.73476" lon="-0.06882">
        <ele>369</ele>
        <time>2021-01-31 15:36:53</time>
      </trkpt>
      <trkpt lat="38.73475" lon="-0.06884">
        <ele>369</ele>
        <time>2021-01-31 15:36:54</time>
      </trkpt>
      <trkpt lat="38.73472" lon="-0.06887">
        <ele>369</ele>
        <time>2021-01-31 15:36:55</time>
      </trkpt>
      <trkpt lat="38.7347" lon="-0.06889">
        <ele>368.8</ele>
        <time>2021-01-31 15:36:56</time>
      </trkpt>
      <trkpt lat="38.73467" lon="-0.06891">
        <ele>368.8</ele>
        <time>2021-01-31 15:36:57</time>
      </trkpt>
      <trkpt lat="38.73462" lon="-0.06893">
        <ele>368.8</ele>
        <time>2021-01-31 15:36:58</time>
      </trkpt>
      <trkpt lat="38.73459" lon="-0.06895">
        <ele>368.8</ele>
        <time>2021-01-31 15:36:59</time>
      </trkpt>
      <trkpt lat="38.73456" lon="-0.06896">
        <ele>369</ele>
        <time>2021-01-31 15:37:00</time>
      </trkpt>
      <trkpt lat="38.73452" lon="-0.06897">
        <ele>369.8</ele>
        <time>2021-01-31 15:37:01</time>
      </trkpt>
      <trkpt lat="38.73448" lon="-0.06897">
        <ele>370.4</ele>
        <time>2021-01-31 15:37:02</time>
      </trkpt>
      <trkpt lat="38.73444" lon="-0.06897">
        <ele>371</ele>
        <time>2021-01-31 15:37:03</time>
      </trkpt>
      <trkpt lat="38.73441" lon="-0.06896">
        <ele>371.2</ele>
        <time>2021-01-31 15:37:04</time>
      </trkpt>
      <trkpt lat="38.73438" lon="-0.06895">
        <ele>371.6</ele>
        <time>2021-01-31 15:37:05</time>
      </trkpt>
      <trkpt lat="38.73436" lon="-0.06893">
        <ele>371.6</ele>
        <time>2021-01-31 15:37:06</time>
      </trkpt>
      <trkpt lat="38.73434" lon="-0.06891">
        <ele>371.6</ele>
        <time>2021-01-31 15:37:07</time>
      </trkpt>
      <trkpt lat="38.73432" lon="-0.06889">
        <ele>371.6</ele>
        <time>2021-01-31 15:37:08</time>
      </trkpt>
      <trkpt lat="38.7343" lon="-0.06887">
        <ele>371.6</ele>
        <time>2021-01-31 15:37:09</time>
      </trkpt>
      <trkpt lat="38.73428" lon="-0.06884">
        <ele>371.6</ele>
        <time>2021-01-31 15:37:10</time>
      </trkpt>
      <trkpt lat="38.73427" lon="-0.06881">
        <ele>371.8</ele>
        <time>2021-01-31 15:37:11</time>
      </trkpt>
      <trkpt lat="38.73425" lon="-0.06878">
        <ele>372.8</ele>
        <time>2021-01-31 15:37:12</time>
      </trkpt>
      <trkpt lat="38.73424" lon="-0.06875">
        <ele>372.8</ele>
        <time>2021-01-31 15:37:13</time>
      </trkpt>
      <trkpt lat="38.73423" lon="-0.06872">
        <ele>372.8</ele>
        <time>2021-01-31 15:37:14</time>
      </trkpt>
      <trkpt lat="38.73422" lon="-0.06869">
        <ele>372.8</ele>
        <time>2021-01-31 15:37:15</time>
      </trkpt>
      <trkpt lat="38.7342" lon="-0.06866">
        <ele>372.8</ele>
        <time>2021-01-31 15:37:16</time>
      </trkpt>
      <trkpt lat="38.73419" lon="-0.06863">
        <ele>373.2</ele>
        <time>2021-01-31 15:37:17</time>
      </trkpt>
      <trkpt lat="38.73418" lon="-0.0686">
        <ele>373.6</ele>
        <time>2021-01-31 15:37:18</time>
      </trkpt>
      <trkpt lat="38.73415" lon="-0.06858">
        <ele>373.8</ele>
        <time>2021-01-31 15:37:19</time>
      </trkpt>
      <trkpt lat="38.73413" lon="-0.06854">
        <ele>373.8</ele>
        <time>2021-01-31 15:37:20</time>
      </trkpt>
      <trkpt lat="38.73411" lon="-0.06852">
        <ele>373.8</ele>
        <time>2021-01-31 15:37:21</time>
      </trkpt>
      <trkpt lat="38.73409" lon="-0.0685">
        <ele>373.8</ele>
        <time>2021-01-31 15:37:22</time>
      </trkpt>
      <trkpt lat="38.73407" lon="-0.06847">
        <ele>373.8</ele>
        <time>2021-01-31 15:37:23</time>
      </trkpt>
      <trkpt lat="38.73405" lon="-0.06846">
        <ele>373.8</ele>
        <time>2021-01-31 15:37:24</time>
      </trkpt>
      <trkpt lat="38.73403" lon="-0.06843">
        <ele>373.6</ele>
        <time>2021-01-31 15:37:25</time>
      </trkpt>
      <trkpt lat="38.734" lon="-0.06842">
        <ele>373.6</ele>
        <time>2021-01-31 15:37:26</time>
      </trkpt>
      <trkpt lat="38.73398" lon="-0.0684">
        <ele>373.6</ele>
        <time>2021-01-31 15:37:27</time>
      </trkpt>
      <trkpt lat="38.73395" lon="-0.06838">
        <ele>374.6</ele>
        <time>2021-01-31 15:37:28</time>
      </trkpt>
      <trkpt lat="38.73393" lon="-0.06836">
        <ele>375.6</ele>
        <time>2021-01-31 15:37:29</time>
      </trkpt>
      <trkpt lat="38.73391" lon="-0.06833">
        <ele>375.6</ele>
        <time>2021-01-31 15:37:30</time>
      </trkpt>
      <trkpt lat="38.73389" lon="-0.0683">
        <ele>376</ele>
        <time>2021-01-31 15:37:31</time>
      </trkpt>
      <trkpt lat="38.73387" lon="-0.06827">
        <ele>376.6</ele>
        <time>2021-01-31 15:37:32</time>
      </trkpt>
      <trkpt lat="38.73385" lon="-0.06825">
        <ele>376.6</ele>
        <time>2021-01-31 15:37:33</time>
      </trkpt>
      <trkpt lat="38.73382" lon="-0.06823">
        <ele>376.6</ele>
        <time>2021-01-31 15:37:34</time>
      </trkpt>
      <trkpt lat="38.7338" lon="-0.0682">
        <ele>376</ele>
        <time>2021-01-31 15:37:35</time>
      </trkpt>
      <trkpt lat="38.73378" lon="-0.06816">
        <ele>375.8</ele>
        <time>2021-01-31 15:37:36</time>
      </trkpt>
      <trkpt lat="38.73376" lon="-0.06814">
        <ele>375.6</ele>
        <time>2021-01-31 15:37:37</time>
      </trkpt>
      <trkpt lat="38.73374" lon="-0.06811">
        <ele>375.4</ele>
        <time>2021-01-31 15:37:38</time>
      </trkpt>
      <trkpt lat="38.73371" lon="-0.06809">
        <ele>375.4</ele>
        <time>2021-01-31 15:37:39</time>
      </trkpt>
      <trkpt lat="38.73369" lon="-0.06808">
        <ele>375.4</ele>
        <time>2021-01-31 15:37:40</time>
      </trkpt>
      <trkpt lat="38.73367" lon="-0.06806">
        <ele>376.4</ele>
        <time>2021-01-31 15:37:41</time>
      </trkpt>
      <trkpt lat="38.73365" lon="-0.06804">
        <ele>377.4</ele>
        <time>2021-01-31 15:37:42</time>
      </trkpt>
      <trkpt lat="38.73362" lon="-0.06803">
        <ele>377.4</ele>
        <time>2021-01-31 15:37:43</time>
      </trkpt>
      <trkpt lat="38.7336" lon="-0.06802">
        <ele>377.4</ele>
        <time>2021-01-31 15:37:44</time>
      </trkpt>
      <trkpt lat="38.73357" lon="-0.06801">
        <ele>376.4</ele>
        <time>2021-01-31 15:37:45</time>
      </trkpt>
      <trkpt lat="38.73355" lon="-0.06801">
        <ele>376.4</ele>
        <time>2021-01-31 15:37:46</time>
      </trkpt>
      <trkpt lat="38.73352" lon="-0.068">
        <ele>376.4</ele>
        <time>2021-01-31 15:37:47</time>
      </trkpt>
      <trkpt lat="38.7335" lon="-0.068">
        <ele>376.4</ele>
        <time>2021-01-31 15:37:48</time>
      </trkpt>
      <trkpt lat="38.73347" lon="-0.06799">
        <ele>376.4</ele>
        <time>2021-01-31 15:37:49</time>
      </trkpt>
      <trkpt lat="38.73345" lon="-0.06799">
        <ele>376.4</ele>
        <time>2021-01-31 15:37:50</time>
      </trkpt>
      <trkpt lat="38.73342" lon="-0.068">
        <ele>376.4</ele>
        <time>2021-01-31 15:37:51</time>
      </trkpt>
      <trkpt lat="38.7334" lon="-0.068">
        <ele>377.4</ele>
        <time>2021-01-31 15:37:52</time>
      </trkpt>
      <trkpt lat="38.73337" lon="-0.06801">
        <ele>378.4</ele>
        <time>2021-01-31 15:37:53</time>
      </trkpt>
      <trkpt lat="38.73335" lon="-0.06802">
        <ele>379.4</ele>
        <time>2021-01-31 15:37:54</time>
      </trkpt>
      <trkpt lat="38.73333" lon="-0.06803">
        <ele>379.4</ele>
        <time>2021-01-31 15:37:55</time>
      </trkpt>
      <trkpt lat="38.7333" lon="-0.06804">
        <ele>379.4</ele>
        <time>2021-01-31 15:37:56</time>
      </trkpt>
      <trkpt lat="38.73328" lon="-0.06804">
        <ele>379.4</ele>
        <time>2021-01-31 15:37:57</time>
      </trkpt>
      <trkpt lat="38.73326" lon="-0.06805">
        <ele>379.4</ele>
        <time>2021-01-31 15:37:58</time>
      </trkpt>
      <trkpt lat="38.73324" lon="-0.06806">
        <ele>380.4</ele>
        <time>2021-01-31 15:37:59</time>
      </trkpt>
      <trkpt lat="38.73321" lon="-0.06807">
        <ele>381.4</ele>
        <time>2021-01-31 15:38:00</time>
      </trkpt>
      <trkpt lat="38.73319" lon="-0.06808">
        <ele>381.8</ele>
        <time>2021-01-31 15:38:01</time>
      </trkpt>
      <trkpt lat="38.73317" lon="-0.06809">
        <ele>382</ele>
        <time>2021-01-31 15:38:02</time>
      </trkpt>
      <trkpt lat="38.73315" lon="-0.06809">
        <ele>382.2</ele>
        <time>2021-01-31 15:38:03</time>
      </trkpt>
      <trkpt lat="38.73312" lon="-0.0681">
        <ele>382.2</ele>
        <time>2021-01-31 15:38:04</time>
      </trkpt>
      <trkpt lat="38.7331" lon="-0.06811">
        <ele>382.2</ele>
        <time>2021-01-31 15:38:05</time>
      </trkpt>
      <trkpt lat="38.73308" lon="-0.06812">
        <ele>382.2</ele>
        <time>2021-01-31 15:38:06</time>
      </trkpt>
      <trkpt lat="38.73305" lon="-0.06814">
        <ele>382.2</ele>
        <time>2021-01-31 15:38:07</time>
      </trkpt>
      <trkpt lat="38.73303" lon="-0.06815">
        <ele>382.2</ele>
        <time>2021-01-31 15:38:08</time>
      </trkpt>
      <trkpt lat="38.73301" lon="-0.06816">
        <ele>382.2</ele>
        <time>2021-01-31 15:38:09</time>
      </trkpt>
      <trkpt lat="38.73298" lon="-0.06817">
        <ele>382.4</ele>
        <time>2021-01-31 15:38:10</time>
      </trkpt>
      <trkpt lat="38.73296" lon="-0.06817">
        <ele>382.4</ele>
        <time>2021-01-31 15:38:11</time>
      </trkpt>
      <trkpt lat="38.73294" lon="-0.06818">
        <ele>382.8</ele>
        <time>2021-01-31 15:38:12</time>
      </trkpt>
      <trkpt lat="38.73292" lon="-0.06819">
        <ele>383.4</ele>
        <time>2021-01-31 15:38:13</time>
      </trkpt>
      <trkpt lat="38.73289" lon="-0.0682">
        <ele>383.6</ele>
        <time>2021-01-31 15:38:14</time>
      </trkpt>
      <trkpt lat="38.73287" lon="-0.06821">
        <ele>384.2</ele>
        <time>2021-01-31 15:38:15</time>
      </trkpt>
      <trkpt lat="38.73285" lon="-0.06822">
        <ele>384.6</ele>
        <time>2021-01-31 15:38:16</time>
      </trkpt>
      <trkpt lat="38.73282" lon="-0.06822">
        <ele>384.6</ele>
        <time>2021-01-31 15:38:17</time>
      </trkpt>
      <trkpt lat="38.73279" lon="-0.06822">
        <ele>384.6</ele>
        <time>2021-01-31 15:38:18</time>
      </trkpt>
      <trkpt lat="38.73276" lon="-0.06821">
        <ele>384.6</ele>
        <time>2021-01-31 15:38:19</time>
      </trkpt>
      <trkpt lat="38.73273" lon="-0.0682">
        <ele>384.8</ele>
        <time>2021-01-31 15:38:20</time>
      </trkpt>
      <trkpt lat="38.73271" lon="-0.06818">
        <ele>384.8</ele>
        <time>2021-01-31 15:38:21</time>
      </trkpt>
      <trkpt lat="38.73269" lon="-0.06815">
        <ele>385</ele>
        <time>2021-01-31 15:38:22</time>
      </trkpt>
      <trkpt lat="38.73267" lon="-0.06813">
        <ele>385</ele>
        <time>2021-01-31 15:38:23</time>
      </trkpt>
      <trkpt lat="38.73266" lon="-0.0681">
        <ele>385</ele>
        <time>2021-01-31 15:38:24</time>
      </trkpt>
      <trkpt lat="38.73264" lon="-0.06808">
        <ele>385</ele>
        <time>2021-01-31 15:38:25</time>
      </trkpt>
      <trkpt lat="38.73263" lon="-0.06805">
        <ele>385</ele>
        <time>2021-01-31 15:38:26</time>
      </trkpt>
      <trkpt lat="38.73261" lon="-0.06802">
        <ele>385</ele>
        <time>2021-01-31 15:38:27</time>
      </trkpt>
      <trkpt lat="38.73261" lon="-0.06799">
        <ele>385</ele>
        <time>2021-01-31 15:38:28</time>
      </trkpt>
      <trkpt lat="38.7326" lon="-0.06796">
        <ele>385</ele>
        <time>2021-01-31 15:38:29</time>
      </trkpt>
      <trkpt lat="38.73259" lon="-0.06793">
        <ele>385.2</ele>
        <time>2021-01-31 15:38:30</time>
      </trkpt>
      <trkpt lat="38.73258" lon="-0.0679">
        <ele>385.6</ele>
        <time>2021-01-31 15:38:31</time>
      </trkpt>
      <trkpt lat="38.73257" lon="-0.06787">
        <ele>385.6</ele>
        <time>2021-01-31 15:38:32</time>
      </trkpt>
      <trkpt lat="38.73256" lon="-0.06785">
        <ele>386</ele>
        <time>2021-01-31 15:38:33</time>
      </trkpt>
      <trkpt lat="38.73256" lon="-0.06782">
        <ele>386.2</ele>
        <time>2021-01-31 15:38:34</time>
      </trkpt>
      <trkpt lat="38.73255" lon="-0.06781">
        <ele>386.4</ele>
        <time>2021-01-31 15:38:35</time>
      </trkpt>
      <trkpt lat="38.73254" lon="-0.06779">
        <ele>386.4</ele>
        <time>2021-01-31 15:38:36</time>
      </trkpt>
      <trkpt lat="38.73253" lon="-0.06776">
        <ele>386.4</ele>
        <time>2021-01-31 15:38:37</time>
      </trkpt>
      <trkpt lat="38.73251" lon="-0.06774">
        <ele>386.4</ele>
        <time>2021-01-31 15:38:38</time>
      </trkpt>
      <trkpt lat="38.7325" lon="-0.06771">
        <ele>386.4</ele>
        <time>2021-01-31 15:38:39</time>
      </trkpt>
      <trkpt lat="38.73249" lon="-0.06768">
        <ele>386.4</ele>
        <time>2021-01-31 15:38:40</time>
      </trkpt>
      <trkpt lat="38.73248" lon="-0.06764">
        <ele>386.4</ele>
        <time>2021-01-31 15:38:41</time>
      </trkpt>
      <trkpt lat="38.73247" lon="-0.06761">
        <ele>386.4</ele>
        <time>2021-01-31 15:38:42</time>
      </trkpt>
      <trkpt lat="38.73246" lon="-0.06758">
        <ele>387</ele>
        <time>2021-01-31 15:38:43</time>
      </trkpt>
      <trkpt lat="38.73245" lon="-0.06755">
        <ele>387</ele>
        <time>2021-01-31 15:38:44</time>
      </trkpt>
      <trkpt lat="38.73243" lon="-0.06752">
        <ele>387</ele>
        <time>2021-01-31 15:38:45</time>
      </trkpt>
      <trkpt lat="38.73241" lon="-0.06749">
        <ele>386.8</ele>
        <time>2021-01-31 15:38:46</time>
      </trkpt>
      <trkpt lat="38.7324" lon="-0.06747">
        <ele>386.8</ele>
        <time>2021-01-31 15:38:47</time>
      </trkpt>
      <trkpt lat="38.73238" lon="-0.06744">
        <ele>386.8</ele>
        <time>2021-01-31 15:38:48</time>
      </trkpt>
      <trkpt lat="38.73237" lon="-0.06742">
        <ele>387.4</ele>
        <time>2021-01-31 15:38:49</time>
      </trkpt>
      <trkpt lat="38.73235" lon="-0.06739">
        <ele>387.4</ele>
        <time>2021-01-31 15:38:50</time>
      </trkpt>
      <trkpt lat="38.73233" lon="-0.06737">
        <ele>387.4</ele>
        <time>2021-01-31 15:38:51</time>
      </trkpt>
      <trkpt lat="38.73231" lon="-0.06735">
        <ele>387.4</ele>
        <time>2021-01-31 15:38:52</time>
      </trkpt>
      <trkpt lat="38.73229" lon="-0.06733">
        <ele>387.4</ele>
        <time>2021-01-31 15:38:53</time>
      </trkpt>
      <trkpt lat="38.73226" lon="-0.06731">
        <ele>387.4</ele>
        <time>2021-01-31 15:38:54</time>
      </trkpt>
      <trkpt lat="38.73223" lon="-0.06729">
        <ele>387.4</ele>
        <time>2021-01-31 15:38:55</time>
      </trkpt>
      <trkpt lat="38.7322" lon="-0.06728">
        <ele>387.4</ele>
        <time>2021-01-31 15:38:56</time>
      </trkpt>
      <trkpt lat="38.73217" lon="-0.06726">
        <ele>387.4</ele>
        <time>2021-01-31 15:38:57</time>
      </trkpt>
      <trkpt lat="38.73215" lon="-0.06724">
        <ele>387.4</ele>
        <time>2021-01-31 15:38:58</time>
      </trkpt>
      <trkpt lat="38.73213" lon="-0.06722">
        <ele>387.8</ele>
        <time>2021-01-31 15:38:59</time>
      </trkpt>
      <trkpt lat="38.7321" lon="-0.0672">
        <ele>388.2</ele>
        <time>2021-01-31 15:39:00</time>
      </trkpt>
      <trkpt lat="38.73207" lon="-0.06718">
        <ele>388.2</ele>
        <time>2021-01-31 15:39:01</time>
      </trkpt>
      <trkpt lat="38.73205" lon="-0.06716">
        <ele>388.2</ele>
        <time>2021-01-31 15:39:02</time>
      </trkpt>
      <trkpt lat="38.73202" lon="-0.06714">
        <ele>388.2</ele>
        <time>2021-01-31 15:39:03</time>
      </trkpt>
      <trkpt lat="38.732" lon="-0.06713">
        <ele>389.2</ele>
        <time>2021-01-31 15:39:04</time>
      </trkpt>
      <trkpt lat="38.73198" lon="-0.0671">
        <ele>390.2</ele>
        <time>2021-01-31 15:39:05</time>
      </trkpt>
      <trkpt lat="38.73195" lon="-0.06707">
        <ele>390.4</ele>
        <time>2021-01-31 15:39:06</time>
      </trkpt>
      <trkpt lat="38.73193" lon="-0.06705">
        <ele>391</ele>
        <time>2021-01-31 15:39:07</time>
      </trkpt>
      <trkpt lat="38.73192" lon="-0.06702">
        <ele>391</ele>
        <time>2021-01-31 15:39:08</time>
      </trkpt>
      <trkpt lat="38.7319" lon="-0.06698">
        <ele>391</ele>
        <time>2021-01-31 15:39:09</time>
      </trkpt>
      <trkpt lat="38.73188" lon="-0.06696">
        <ele>391</ele>
        <time>2021-01-31 15:39:10</time>
      </trkpt>
      <trkpt lat="38.73186" lon="-0.06693">
        <ele>391</ele>
        <time>2021-01-31 15:39:11</time>
      </trkpt>
      <trkpt lat="38.73184" lon="-0.0669">
        <ele>391.6</ele>
        <time>2021-01-31 15:39:12</time>
      </trkpt>
      <trkpt lat="38.73182" lon="-0.06687">
        <ele>391.6</ele>
        <time>2021-01-31 15:39:13</time>
      </trkpt>
      <trkpt lat="38.7318" lon="-0.06685">
        <ele>391.6</ele>
        <time>2021-01-31 15:39:14</time>
      </trkpt>
      <trkpt lat="38.73178" lon="-0.06681">
        <ele>391.6</ele>
        <time>2021-01-31 15:39:15</time>
      </trkpt>
      <trkpt lat="38.73176" lon="-0.06679">
        <ele>392.4</ele>
        <time>2021-01-31 15:39:16</time>
      </trkpt>
      <trkpt lat="38.73174" lon="-0.06676">
        <ele>392.4</ele>
        <time>2021-01-31 15:39:17</time>
      </trkpt>
      <trkpt lat="38.73173" lon="-0.06671">
        <ele>392.4</ele>
        <time>2021-01-31 15:39:18</time>
      </trkpt>
      <trkpt lat="38.73171" lon="-0.06668">
        <ele>392.4</ele>
        <time>2021-01-31 15:39:19</time>
      </trkpt>
      <trkpt lat="38.73169" lon="-0.06664">
        <ele>392.8</ele>
        <time>2021-01-31 15:39:20</time>
      </trkpt>
      <trkpt lat="38.73167" lon="-0.06661">
        <ele>393.2</ele>
        <time>2021-01-31 15:39:21</time>
      </trkpt>
      <trkpt lat="38.73166" lon="-0.06657">
        <ele>393.2</ele>
        <time>2021-01-31 15:39:22</time>
      </trkpt>
      <trkpt lat="38.73164" lon="-0.06654">
        <ele>393.2</ele>
        <time>2021-01-31 15:39:23</time>
      </trkpt>
      <trkpt lat="38.73162" lon="-0.06651">
        <ele>393.2</ele>
        <time>2021-01-31 15:39:24</time>
      </trkpt>
      <trkpt lat="38.7316" lon="-0.06648">
        <ele>393.8</ele>
        <time>2021-01-31 15:39:25</time>
      </trkpt>
      <trkpt lat="38.73157" lon="-0.06645">
        <ele>393.8</ele>
        <time>2021-01-31 15:39:26</time>
      </trkpt>
      <trkpt lat="38.73155" lon="-0.06644">
        <ele>394.2</ele>
        <time>2021-01-31 15:39:27</time>
      </trkpt>
      <trkpt lat="38.73152" lon="-0.06642">
        <ele>394.2</ele>
        <time>2021-01-31 15:39:28</time>
      </trkpt>
      <trkpt lat="38.7315" lon="-0.06639">
        <ele>394.2</ele>
        <time>2021-01-31 15:39:29</time>
      </trkpt>
      <trkpt lat="38.73148" lon="-0.06636">
        <ele>394.2</ele>
        <time>2021-01-31 15:39:30</time>
      </trkpt>
      <trkpt lat="38.73146" lon="-0.06634">
        <ele>394.2</ele>
        <time>2021-01-31 15:39:31</time>
      </trkpt>
      <trkpt lat="38.73143" lon="-0.06631">
        <ele>394.2</ele>
        <time>2021-01-31 15:39:32</time>
      </trkpt>
      <trkpt lat="38.73141" lon="-0.06629">
        <ele>394.2</ele>
        <time>2021-01-31 15:39:33</time>
      </trkpt>
      <trkpt lat="38.73139" lon="-0.06627">
        <ele>394.6</ele>
        <time>2021-01-31 15:39:34</time>
      </trkpt>
      <trkpt lat="38.73137" lon="-0.06625">
        <ele>395.4</ele>
        <time>2021-01-31 15:39:35</time>
      </trkpt>
      <trkpt lat="38.73134" lon="-0.06622">
        <ele>395.4</ele>
        <time>2021-01-31 15:39:36</time>
      </trkpt>
      <trkpt lat="38.73132" lon="-0.0662">
        <ele>395.4</ele>
        <time>2021-01-31 15:39:37</time>
      </trkpt>
      <trkpt lat="38.73129" lon="-0.06618">
        <ele>395.2</ele>
        <time>2021-01-31 15:39:38</time>
      </trkpt>
      <trkpt lat="38.73127" lon="-0.06616">
        <ele>395.2</ele>
        <time>2021-01-31 15:39:39</time>
      </trkpt>
      <trkpt lat="38.73125" lon="-0.06613">
        <ele>395.2</ele>
        <time>2021-01-31 15:39:40</time>
      </trkpt>
      <trkpt lat="38.73122" lon="-0.06612">
        <ele>395.4</ele>
        <time>2021-01-31 15:39:41</time>
      </trkpt>
      <trkpt lat="38.7312" lon="-0.0661">
        <ele>395.8</ele>
        <time>2021-01-31 15:39:42</time>
      </trkpt>
      <trkpt lat="38.73118" lon="-0.06607">
        <ele>396</ele>
        <time>2021-01-31 15:39:43</time>
      </trkpt>
      <trkpt lat="38.73115" lon="-0.06605">
        <ele>396</ele>
        <time>2021-01-31 15:39:44</time>
      </trkpt>
      <trkpt lat="38.73113" lon="-0.06603">
        <ele>397</ele>
        <time>2021-01-31 15:39:45</time>
      </trkpt>
      <trkpt lat="38.7311" lon="-0.06601">
        <ele>397</ele>
        <time>2021-01-31 15:39:46</time>
      </trkpt>
      <trkpt lat="38.73108" lon="-0.06598">
        <ele>397</ele>
        <time>2021-01-31 15:39:47</time>
      </trkpt>
      <trkpt lat="38.73105" lon="-0.06596">
        <ele>397</ele>
        <time>2021-01-31 15:39:48</time>
      </trkpt>
      <trkpt lat="38.73103" lon="-0.06594">
        <ele>397</ele>
        <time>2021-01-31 15:39:49</time>
      </trkpt>
      <trkpt lat="38.731" lon="-0.06592">
        <ele>396.8</ele>
        <time>2021-01-31 15:39:50</time>
      </trkpt>
      <trkpt lat="38.73097" lon="-0.0659">
        <ele>396.8</ele>
        <time>2021-01-31 15:39:51</time>
      </trkpt>
      <trkpt lat="38.73095" lon="-0.06588">
        <ele>396.8</ele>
        <time>2021-01-31 15:39:52</time>
      </trkpt>
      <trkpt lat="38.73092" lon="-0.06586">
        <ele>396.8</ele>
        <time>2021-01-31 15:39:53</time>
      </trkpt>
      <trkpt lat="38.7309" lon="-0.06584">
        <ele>397.6</ele>
        <time>2021-01-31 15:39:54</time>
      </trkpt>
      <trkpt lat="38.73087" lon="-0.06582">
        <ele>397.6</ele>
        <time>2021-01-31 15:39:55</time>
      </trkpt>
      <trkpt lat="38.73085" lon="-0.0658">
        <ele>397.6</ele>
        <time>2021-01-31 15:39:56</time>
      </trkpt>
      <trkpt lat="38.73082" lon="-0.06578">
        <ele>397.4</ele>
        <time>2021-01-31 15:39:57</time>
      </trkpt>
      <trkpt lat="38.7308" lon="-0.06576">
        <ele>397.4</ele>
        <time>2021-01-31 15:39:58</time>
      </trkpt>
      <trkpt lat="38.73077" lon="-0.06574">
        <ele>397.4</ele>
        <time>2021-01-31 15:39:59</time>
      </trkpt>
      <trkpt lat="38.73076" lon="-0.06573">
        <ele>398.2</ele>
        <time>2021-01-31 15:40:00</time>
      </trkpt>
      <trkpt lat="38.73073" lon="-0.06572">
        <ele>398.2</ele>
        <time>2021-01-31 15:40:01</time>
      </trkpt>
      <trkpt lat="38.73071" lon="-0.0657">
        <ele>398.2</ele>
        <time>2021-01-31 15:40:02</time>
      </trkpt>
      <trkpt lat="38.73069" lon="-0.06568">
        <ele>398.2</ele>
        <time>2021-01-31 15:40:03</time>
      </trkpt>
      <trkpt lat="38.73066" lon="-0.06567">
        <ele>398.2</ele>
        <time>2021-01-31 15:40:04</time>
      </trkpt>
      <trkpt lat="38.73063" lon="-0.06565">
        <ele>399.2</ele>
        <time>2021-01-31 15:40:05</time>
      </trkpt>
      <trkpt lat="38.73061" lon="-0.06564">
        <ele>400.2</ele>
        <time>2021-01-31 15:40:06</time>
      </trkpt>
      <trkpt lat="38.73058" lon="-0.06563">
        <ele>400.2</ele>
        <time>2021-01-31 15:40:07</time>
      </trkpt>
      <trkpt lat="38.73055" lon="-0.06562">
        <ele>400.2</ele>
        <time>2021-01-31 15:40:08</time>
      </trkpt>
      <trkpt lat="38.73053" lon="-0.0656">
        <ele>400.2</ele>
        <time>2021-01-31 15:40:09</time>
      </trkpt>
      <trkpt lat="38.7305" lon="-0.06559">
        <ele>400.4</ele>
        <time>2021-01-31 15:40:10</time>
      </trkpt>
      <trkpt lat="38.73047" lon="-0.06558">
        <ele>400.8</ele>
        <time>2021-01-31 15:40:11</time>
      </trkpt>
      <trkpt lat="38.73044" lon="-0.06557">
        <ele>400.8</ele>
        <time>2021-01-31 15:40:12</time>
      </trkpt>
      <trkpt lat="38.73041" lon="-0.06557">
        <ele>400.8</ele>
        <time>2021-01-31 15:40:13</time>
      </trkpt>
      <trkpt lat="38.73039" lon="-0.06556">
        <ele>400.8</ele>
        <time>2021-01-31 15:40:14</time>
      </trkpt>
      <trkpt lat="38.73036" lon="-0.06556">
        <ele>400.8</ele>
        <time>2021-01-31 15:40:15</time>
      </trkpt>
      <trkpt lat="38.73033" lon="-0.06555">
        <ele>400.8</ele>
        <time>2021-01-31 15:40:16</time>
      </trkpt>
      <trkpt lat="38.73031" lon="-0.06554">
        <ele>400.8</ele>
        <time>2021-01-31 15:40:17</time>
      </trkpt>
      <trkpt lat="38.73028" lon="-0.06555">
        <ele>401.8</ele>
        <time>2021-01-31 15:40:18</time>
      </trkpt>
      <trkpt lat="38.73025" lon="-0.06555">
        <ele>402</ele>
        <time>2021-01-31 15:40:19</time>
      </trkpt>
      <trkpt lat="38.73023" lon="-0.06556">
        <ele>402.6</ele>
        <time>2021-01-31 15:40:20</time>
      </trkpt>
      <trkpt lat="38.73021" lon="-0.06557">
        <ele>402.6</ele>
        <time>2021-01-31 15:40:21</time>
      </trkpt>
      <trkpt lat="38.73019" lon="-0.06559">
        <ele>402.6</ele>
        <time>2021-01-31 15:40:22</time>
      </trkpt>
      <trkpt lat="38.73017" lon="-0.06561">
        <ele>402.6</ele>
        <time>2021-01-31 15:40:23</time>
      </trkpt>
      <trkpt lat="38.73017" lon="-0.06563">
        <ele>402.6</ele>
        <time>2021-01-31 15:40:24</time>
      </trkpt>
      <trkpt lat="38.73016" lon="-0.06565">
        <ele>403.4</ele>
        <time>2021-01-31 15:40:25</time>
      </trkpt>
      <trkpt lat="38.73015" lon="-0.06568">
        <ele>403.8</ele>
        <time>2021-01-31 15:40:26</time>
      </trkpt>
      <trkpt lat="38.73015" lon="-0.06571">
        <ele>403.8</ele>
        <time>2021-01-31 15:40:27</time>
      </trkpt>
      <trkpt lat="38.73016" lon="-0.06573">
        <ele>403.8</ele>
        <time>2021-01-31 15:40:28</time>
      </trkpt>
      <trkpt lat="38.73016" lon="-0.06576">
        <ele>403.8</ele>
        <time>2021-01-31 15:40:29</time>
      </trkpt>
      <trkpt lat="38.73017" lon="-0.06578">
        <ele>404.8</ele>
        <time>2021-01-31 15:40:30</time>
      </trkpt>
      <trkpt lat="38.73018" lon="-0.0658">
        <ele>404.8</ele>
        <time>2021-01-31 15:40:31</time>
      </trkpt>
      <trkpt lat="38.73019" lon="-0.06583">
        <ele>404.8</ele>
        <time>2021-01-31 15:40:32</time>
      </trkpt>
      <trkpt lat="38.7302" lon="-0.06585">
        <ele>404.8</ele>
        <time>2021-01-31 15:40:33</time>
      </trkpt>
      <trkpt lat="38.73021" lon="-0.06587">
        <ele>405.4</ele>
        <time>2021-01-31 15:40:34</time>
      </trkpt>
      <trkpt lat="38.73023" lon="-0.06589">
        <ele>405.6</ele>
        <time>2021-01-31 15:40:35</time>
      </trkpt>
      <trkpt lat="38.73025" lon="-0.06591">
        <ele>405.8</ele>
        <time>2021-01-31 15:40:36</time>
      </trkpt>
      <trkpt lat="38.73027" lon="-0.06594">
        <ele>406</ele>
        <time>2021-01-31 15:40:37</time>
      </trkpt>
      <trkpt lat="38.73027" lon="-0.06596">
        <ele>406.2</ele>
        <time>2021-01-31 15:40:38</time>
      </trkpt>
      <trkpt lat="38.73029" lon="-0.06599">
        <ele>406.4</ele>
        <time>2021-01-31 15:40:39</time>
      </trkpt>
      <trkpt lat="38.7303" lon="-0.06601">
        <ele>406.8</ele>
        <time>2021-01-31 15:40:40</time>
      </trkpt>
      <trkpt lat="38.73032" lon="-0.06604">
        <ele>406.8</ele>
        <time>2021-01-31 15:40:41</time>
      </trkpt>
      <trkpt lat="38.73033" lon="-0.06606">
        <ele>406.8</ele>
        <time>2021-01-31 15:40:42</time>
      </trkpt>
      <trkpt lat="38.73035" lon="-0.06608">
        <ele>406.8</ele>
        <time>2021-01-31 15:40:43</time>
      </trkpt>
      <trkpt lat="38.73036" lon="-0.0661">
        <ele>407.4</ele>
        <time>2021-01-31 15:40:44</time>
      </trkpt>
      <trkpt lat="38.73037" lon="-0.06612">
        <ele>407.4</ele>
        <time>2021-01-31 15:40:45</time>
      </trkpt>
      <trkpt lat="38.73038" lon="-0.06614">
        <ele>407.4</ele>
        <time>2021-01-31 15:40:46</time>
      </trkpt>
      <trkpt lat="38.7304" lon="-0.06616">
        <ele>407.4</ele>
        <time>2021-01-31 15:40:47</time>
      </trkpt>
      <trkpt lat="38.73042" lon="-0.06619">
        <ele>407.4</ele>
        <time>2021-01-31 15:40:48</time>
      </trkpt>
      <trkpt lat="38.73043" lon="-0.06622">
        <ele>407.8</ele>
        <time>2021-01-31 15:40:49</time>
      </trkpt>
      <trkpt lat="38.73045" lon="-0.06624">
        <ele>408.4</ele>
        <time>2021-01-31 15:40:50</time>
      </trkpt>
      <trkpt lat="38.73048" lon="-0.06627">
        <ele>408.4</ele>
        <time>2021-01-31 15:40:51</time>
      </trkpt>
      <trkpt lat="38.73049" lon="-0.0663">
        <ele>408.4</ele>
        <time>2021-01-31 15:40:52</time>
      </trkpt>
      <trkpt lat="38.73051" lon="-0.06633">
        <ele>408.4</ele>
        <time>2021-01-31 15:40:53</time>
      </trkpt>
      <trkpt lat="38.73053" lon="-0.06636">
        <ele>408.6</ele>
        <time>2021-01-31 15:40:54</time>
      </trkpt>
      <trkpt lat="38.73055" lon="-0.06639">
        <ele>408.6</ele>
        <time>2021-01-31 15:40:55</time>
      </trkpt>
      <trkpt lat="38.73057" lon="-0.06642">
        <ele>408.6</ele>
        <time>2021-01-31 15:40:56</time>
      </trkpt>
      <trkpt lat="38.73058" lon="-0.06645">
        <ele>408.6</ele>
        <time>2021-01-31 15:40:57</time>
      </trkpt>
      <trkpt lat="38.73059" lon="-0.06649">
        <ele>408.6</ele>
        <time>2021-01-31 15:40:58</time>
      </trkpt>
      <trkpt lat="38.7306" lon="-0.06652">
        <ele>408.6</ele>
        <time>2021-01-31 15:40:59</time>
      </trkpt>
      <trkpt lat="38.73061" lon="-0.06656">
        <ele>409.6</ele>
        <time>2021-01-31 15:41:00</time>
      </trkpt>
      <trkpt lat="38.73062" lon="-0.0666">
        <ele>409.6</ele>
        <time>2021-01-31 15:41:01</time>
      </trkpt>
      <trkpt lat="38.73063" lon="-0.06664">
        <ele>409.6</ele>
        <time>2021-01-31 15:41:02</time>
      </trkpt>
      <trkpt lat="38.73064" lon="-0.06668">
        <ele>409.2</ele>
        <time>2021-01-31 15:41:03</time>
      </trkpt>
      <trkpt lat="38.73065" lon="-0.06672">
        <ele>409.2</ele>
        <time>2021-01-31 15:41:04</time>
      </trkpt>
      <trkpt lat="38.73066" lon="-0.06675">
        <ele>409.2</ele>
        <time>2021-01-31 15:41:05</time>
      </trkpt>
      <trkpt lat="38.73066" lon="-0.06679">
        <ele>410.2</ele>
        <time>2021-01-31 15:41:06</time>
      </trkpt>
      <trkpt lat="38.73067" lon="-0.06683">
        <ele>410.2</ele>
        <time>2021-01-31 15:41:07</time>
      </trkpt>
      <trkpt lat="38.73068" lon="-0.06686">
        <ele>410.2</ele>
        <time>2021-01-31 15:41:08</time>
      </trkpt>
      <trkpt lat="38.73068" lon="-0.0669">
        <ele>410.2</ele>
        <time>2021-01-31 15:41:09</time>
      </trkpt>
      <trkpt lat="38.73069" lon="-0.06693">
        <ele>410.4</ele>
        <time>2021-01-31 15:41:10</time>
      </trkpt>
      <trkpt lat="38.73069" lon="-0.06697">
        <ele>410.8</ele>
        <time>2021-01-31 15:41:11</time>
      </trkpt>
      <trkpt lat="38.7307" lon="-0.067">
        <ele>411</ele>
        <time>2021-01-31 15:41:12</time>
      </trkpt>
      <trkpt lat="38.7307" lon="-0.06704">
        <ele>411</ele>
        <time>2021-01-31 15:41:13</time>
      </trkpt>
      <trkpt lat="38.73071" lon="-0.06708">
        <ele>411</ele>
        <time>2021-01-31 15:41:14</time>
      </trkpt>
      <trkpt lat="38.73072" lon="-0.06711">
        <ele>411</ele>
        <time>2021-01-31 15:41:15</time>
      </trkpt>
      <trkpt lat="38.73072" lon="-0.06715">
        <ele>411.4</ele>
        <time>2021-01-31 15:41:16</time>
      </trkpt>
      <trkpt lat="38.73073" lon="-0.06718">
        <ele>412</ele>
        <time>2021-01-31 15:41:17</time>
      </trkpt>
      <trkpt lat="38.73074" lon="-0.06722">
        <ele>412</ele>
        <time>2021-01-31 15:41:18</time>
      </trkpt>
      <trkpt lat="38.73074" lon="-0.06726">
        <ele>412</ele>
        <time>2021-01-31 15:41:19</time>
      </trkpt>
      <trkpt lat="38.73075" lon="-0.06729">
        <ele>411.8</ele>
        <time>2021-01-31 15:41:20</time>
      </trkpt>
      <trkpt lat="38.73076" lon="-0.06733">
        <ele>411.8</ele>
        <time>2021-01-31 15:41:21</time>
      </trkpt>
      <trkpt lat="38.73076" lon="-0.06737">
        <ele>411.8</ele>
        <time>2021-01-31 15:41:22</time>
      </trkpt>
      <trkpt lat="38.73077" lon="-0.06741">
        <ele>412.6</ele>
        <time>2021-01-31 15:41:23</time>
      </trkpt>
      <trkpt lat="38.73078" lon="-0.06744">
        <ele>412.8</ele>
        <time>2021-01-31 15:41:24</time>
      </trkpt>
      <trkpt lat="38.73079" lon="-0.06748">
        <ele>413.4</ele>
        <time>2021-01-31 15:41:25</time>
      </trkpt>
      <trkpt lat="38.7308" lon="-0.06752">
        <ele>414</ele>
        <time>2021-01-31 15:41:26</time>
      </trkpt>
      <trkpt lat="38.7308" lon="-0.06756">
        <ele>414</ele>
        <time>2021-01-31 15:41:27</time>
      </trkpt>
      <trkpt lat="38.7308" lon="-0.06759">
        <ele>414</ele>
        <time>2021-01-31 15:41:28</time>
      </trkpt>
      <trkpt lat="38.7308" lon="-0.06762">
        <ele>413.6</ele>
        <time>2021-01-31 15:41:29</time>
      </trkpt>
      <trkpt lat="38.73081" lon="-0.06767">
        <ele>413.6</ele>
        <time>2021-01-31 15:41:30</time>
      </trkpt>
      <trkpt lat="38.73082" lon="-0.0677">
        <ele>413.6</ele>
        <time>2021-01-31 15:41:31</time>
      </trkpt>
      <trkpt lat="38.73082" lon="-0.06774">
        <ele>413.8</ele>
        <time>2021-01-31 15:41:32</time>
      </trkpt>
      <trkpt lat="38.73083" lon="-0.06778">
        <ele>413.8</ele>
        <time>2021-01-31 15:41:33</time>
      </trkpt>
      <trkpt lat="38.73083" lon="-0.06781">
        <ele>413.8</ele>
        <time>2021-01-31 15:41:34</time>
      </trkpt>
      <trkpt lat="38.73084" lon="-0.06785">
        <ele>413.8</ele>
        <time>2021-01-31 15:41:35</time>
      </trkpt>
      <trkpt lat="38.73085" lon="-0.06788">
        <ele>413.8</ele>
        <time>2021-01-31 15:41:36</time>
      </trkpt>
      <trkpt lat="38.73085" lon="-0.06792">
        <ele>414.4</ele>
        <time>2021-01-31 15:41:37</time>
      </trkpt>
      <trkpt lat="38.73086" lon="-0.06795">
        <ele>414.6</ele>
        <time>2021-01-31 15:41:38</time>
      </trkpt>
      <trkpt lat="38.73086" lon="-0.06799">
        <ele>414.6</ele>
        <time>2021-01-31 15:41:39</time>
      </trkpt>
      <trkpt lat="38.73086" lon="-0.06802">
        <ele>414.6</ele>
        <time>2021-01-31 15:41:40</time>
      </trkpt>
      <trkpt lat="38.73086" lon="-0.06805">
        <ele>414.6</ele>
        <time>2021-01-31 15:41:41</time>
      </trkpt>
      <trkpt lat="38.73086" lon="-0.06808">
        <ele>415.6</ele>
        <time>2021-01-31 15:41:42</time>
      </trkpt>
      <trkpt lat="38.73087" lon="-0.06812">
        <ele>416</ele>
        <time>2021-01-31 15:41:43</time>
      </trkpt>
      <trkpt lat="38.73088" lon="-0.06816">
        <ele>416</ele>
        <time>2021-01-31 15:41:44</time>
      </trkpt>
      <trkpt lat="38.73089" lon="-0.0682">
        <ele>416</ele>
        <time>2021-01-31 15:41:45</time>
      </trkpt>
      <trkpt lat="38.73089" lon="-0.06824">
        <ele>415.2</ele>
        <time>2021-01-31 15:41:46</time>
      </trkpt>
      <trkpt lat="38.73089" lon="-0.06828">
        <ele>415.2</ele>
        <time>2021-01-31 15:41:47</time>
      </trkpt>
      <trkpt lat="38.73089" lon="-0.06831">
        <ele>415.2</ele>
        <time>2021-01-31 15:41:48</time>
      </trkpt>
      <trkpt lat="38.73088" lon="-0.06835">
        <ele>415.2</ele>
        <time>2021-01-31 15:41:49</time>
      </trkpt>
      <trkpt lat="38.73088" lon="-0.06838">
        <ele>415.2</ele>
        <time>2021-01-31 15:41:50</time>
      </trkpt>
      <trkpt lat="38.73087" lon="-0.06841">
        <ele>415.2</ele>
        <time>2021-01-31 15:41:51</time>
      </trkpt>
      <trkpt lat="38.73087" lon="-0.06844">
        <ele>416</ele>
        <time>2021-01-31 15:41:52</time>
      </trkpt>
      <trkpt lat="38.73086" lon="-0.06847">
        <ele>416.2</ele>
        <time>2021-01-31 15:41:53</time>
      </trkpt>
      <trkpt lat="38.73085" lon="-0.06851">
        <ele>416.4</ele>
        <time>2021-01-31 15:41:54</time>
      </trkpt>
      <trkpt lat="38.73084" lon="-0.06854">
        <ele>416.6</ele>
        <time>2021-01-31 15:41:55</time>
      </trkpt>
      <trkpt lat="38.73083" lon="-0.06857">
        <ele>417.6</ele>
        <time>2021-01-31 15:41:56</time>
      </trkpt>
      <trkpt lat="38.73082" lon="-0.0686">
        <ele>417.6</ele>
        <time>2021-01-31 15:41:57</time>
      </trkpt>
      <trkpt lat="38.73081" lon="-0.06862">
        <ele>417.6</ele>
        <time>2021-01-31 15:41:58</time>
      </trkpt>
      <trkpt lat="38.7308" lon="-0.06865">
        <ele>417.4</ele>
        <time>2021-01-31 15:41:59</time>
      </trkpt>
      <trkpt lat="38.73079" lon="-0.06868">
        <ele>417.4</ele>
        <time>2021-01-31 15:42:00</time>
      </trkpt>
      <trkpt lat="38.73078" lon="-0.06871">
        <ele>417.4</ele>
        <time>2021-01-31 15:42:01</time>
      </trkpt>
      <trkpt lat="38.73077" lon="-0.06874">
        <ele>418.4</ele>
        <time>2021-01-31 15:42:02</time>
      </trkpt>
      <trkpt lat="38.73075" lon="-0.06876">
        <ele>419.2</ele>
        <time>2021-01-31 15:42:03</time>
      </trkpt>
      <trkpt lat="38.73074" lon="-0.06879">
        <ele>419.2</ele>
        <time>2021-01-31 15:42:04</time>
      </trkpt>
      <trkpt lat="38.73073" lon="-0.06882">
        <ele>419.2</ele>
        <time>2021-01-31 15:42:05</time>
      </trkpt>
      <trkpt lat="38.73071" lon="-0.06885">
        <ele>419.2</ele>
        <time>2021-01-31 15:42:06</time>
      </trkpt>
      <trkpt lat="38.7307" lon="-0.06887">
        <ele>419.2</ele>
        <time>2021-01-31 15:42:07</time>
      </trkpt>
      <trkpt lat="38.73068" lon="-0.0689">
        <ele>420.2</ele>
        <time>2021-01-31 15:42:08</time>
      </trkpt>
      <trkpt lat="38.73067" lon="-0.06892">
        <ele>420.2</ele>
        <time>2021-01-31 15:42:09</time>
      </trkpt>
      <trkpt lat="38.73065" lon="-0.06895">
        <ele>420.2</ele>
        <time>2021-01-31 15:42:10</time>
      </trkpt>
      <trkpt lat="38.73064" lon="-0.06897">
        <ele>420.2</ele>
        <time>2021-01-31 15:42:11</time>
      </trkpt>
      <trkpt lat="38.73062" lon="-0.069">
        <ele>420.2</ele>
        <time>2021-01-31 15:42:12</time>
      </trkpt>
      <trkpt lat="38.7306" lon="-0.06902">
        <ele>420.6</ele>
        <time>2021-01-31 15:42:13</time>
      </trkpt>
      <trkpt lat="38.73059" lon="-0.06905">
        <ele>421</ele>
        <time>2021-01-31 15:42:14</time>
      </trkpt>
      <trkpt lat="38.73057" lon="-0.06907">
        <ele>421.6</ele>
        <time>2021-01-31 15:42:15</time>
      </trkpt>
      <trkpt lat="38.73055" lon="-0.0691">
        <ele>421.6</ele>
        <time>2021-01-31 15:42:16</time>
      </trkpt>
      <trkpt lat="38.73054" lon="-0.06912">
        <ele>421.6</ele>
        <time>2021-01-31 15:42:17</time>
      </trkpt>
      <trkpt lat="38.73053" lon="-0.06915">
        <ele>421.6</ele>
        <time>2021-01-31 15:42:18</time>
      </trkpt>
      <trkpt lat="38.73053" lon="-0.06917">
        <ele>422.2</ele>
        <time>2021-01-31 15:42:19</time>
      </trkpt>
      <trkpt lat="38.73051" lon="-0.0692">
        <ele>422.2</ele>
        <time>2021-01-31 15:42:20</time>
      </trkpt>
      <trkpt lat="38.7305" lon="-0.06924">
        <ele>422.2</ele>
        <time>2021-01-31 15:42:21</time>
      </trkpt>
      <trkpt lat="38.73049" lon="-0.06928">
        <ele>422.2</ele>
        <time>2021-01-31 15:42:22</time>
      </trkpt>
      <trkpt lat="38.73049" lon="-0.06932">
        <ele>422.2</ele>
        <time>2021-01-31 15:42:23</time>
      </trkpt>
      <trkpt lat="38.7305" lon="-0.06936">
        <ele>422.8</ele>
        <time>2021-01-31 15:42:24</time>
      </trkpt>
      <trkpt lat="38.73052" lon="-0.06938">
        <ele>422.8</ele>
        <time>2021-01-31 15:42:25</time>
      </trkpt>
      <trkpt lat="38.73056" lon="-0.06939">
        <ele>422.8</ele>
        <time>2021-01-31 15:42:26</time>
      </trkpt>
      <trkpt lat="38.7306" lon="-0.06939">
        <ele>422.8</ele>
        <time>2021-01-31 15:42:27</time>
      </trkpt>
      <trkpt lat="38.73062" lon="-0.06939">
        <ele>423.6</ele>
        <time>2021-01-31 15:42:28</time>
      </trkpt>
      <trkpt lat="38.73065" lon="-0.06938">
        <ele>424.4</ele>
        <time>2021-01-31 15:42:29</time>
      </trkpt>
      <trkpt lat="38.73068" lon="-0.06937">
        <ele>424.4</ele>
        <time>2021-01-31 15:42:30</time>
      </trkpt>
      <trkpt lat="38.7307" lon="-0.06936">
        <ele>425.2</ele>
        <time>2021-01-31 15:42:31</time>
      </trkpt>
      <trkpt lat="38.73072" lon="-0.06936">
        <ele>425.2</ele>
        <time>2021-01-31 15:42:32</time>
      </trkpt>
      <trkpt lat="38.73075" lon="-0.06935">
        <ele>425.6</ele>
        <time>2021-01-31 15:42:33</time>
      </trkpt>
      <trkpt lat="38.73078" lon="-0.06935">
        <ele>425.6</ele>
        <time>2021-01-31 15:42:34</time>
      </trkpt>
      <trkpt lat="38.73081" lon="-0.06934">
        <ele>426.2</ele>
        <time>2021-01-31 15:42:35</time>
      </trkpt>
      <trkpt lat="38.73083" lon="-0.06934">
        <ele>426.2</ele>
        <time>2021-01-31 15:42:36</time>
      </trkpt>
      <trkpt lat="38.73086" lon="-0.06933">
        <ele>426.2</ele>
        <time>2021-01-31 15:42:37</time>
      </trkpt>
      <trkpt lat="38.73088" lon="-0.06933">
        <ele>425.8</ele>
        <time>2021-01-31 15:42:38</time>
      </trkpt>
      <trkpt lat="38.73091" lon="-0.06932">
        <ele>425.8</ele>
        <time>2021-01-31 15:42:39</time>
      </trkpt>
      <trkpt lat="38.73094" lon="-0.06932">
        <ele>425.8</ele>
        <time>2021-01-31 15:42:40</time>
      </trkpt>
      <trkpt lat="38.73097" lon="-0.06932">
        <ele>426</ele>
        <time>2021-01-31 15:42:41</time>
      </trkpt>
      <trkpt lat="38.731" lon="-0.06931">
        <ele>426.2</ele>
        <time>2021-01-31 15:42:42</time>
      </trkpt>
      <trkpt lat="38.73103" lon="-0.06931">
        <ele>426.2</ele>
        <time>2021-01-31 15:42:43</time>
      </trkpt>
      <trkpt lat="38.73106" lon="-0.06931">
        <ele>426.6</ele>
        <time>2021-01-31 15:42:44</time>
      </trkpt>
      <trkpt lat="38.73108" lon="-0.06931">
        <ele>426.6</ele>
        <time>2021-01-31 15:42:45</time>
      </trkpt>
      <trkpt lat="38.73111" lon="-0.06931">
        <ele>426.6</ele>
        <time>2021-01-31 15:42:46</time>
      </trkpt>
      <trkpt lat="38.73114" lon="-0.06931">
        <ele>426.6</ele>
        <time>2021-01-31 15:42:47</time>
      </trkpt>
      <trkpt lat="38.73117" lon="-0.06931">
        <ele>426.6</ele>
        <time>2021-01-31 15:42:48</time>
      </trkpt>
      <trkpt lat="38.7312" lon="-0.06931">
        <ele>427.2</ele>
        <time>2021-01-31 15:42:49</time>
      </trkpt>
      <trkpt lat="38.73123" lon="-0.06931">
        <ele>427.2</ele>
        <time>2021-01-31 15:42:50</time>
      </trkpt>
      <trkpt lat="38.73125" lon="-0.06932">
        <ele>427.2</ele>
        <time>2021-01-31 15:42:51</time>
      </trkpt>
      <trkpt lat="38.73128" lon="-0.06932">
        <ele>427.2</ele>
        <time>2021-01-31 15:42:52</time>
      </trkpt>
      <trkpt lat="38.73131" lon="-0.06933">
        <ele>427.2</ele>
        <time>2021-01-31 15:42:53</time>
      </trkpt>
      <trkpt lat="38.73134" lon="-0.06933">
        <ele>427.2</ele>
        <time>2021-01-31 15:42:54</time>
      </trkpt>
      <trkpt lat="38.73136" lon="-0.06934">
        <ele>427.6</ele>
        <time>2021-01-31 15:42:55</time>
      </trkpt>
      <trkpt lat="38.73139" lon="-0.06935">
        <ele>427.8</ele>
        <time>2021-01-31 15:42:56</time>
      </trkpt>
      <trkpt lat="38.73142" lon="-0.06936">
        <ele>428</ele>
        <time>2021-01-31 15:42:57</time>
      </trkpt>
      <trkpt lat="38.73144" lon="-0.06937">
        <ele>428</ele>
        <time>2021-01-31 15:42:58</time>
      </trkpt>
      <trkpt lat="38.73147" lon="-0.06938">
        <ele>428</ele>
        <time>2021-01-31 15:42:59</time>
      </trkpt>
      <trkpt lat="38.73149" lon="-0.0694">
        <ele>428</ele>
        <time>2021-01-31 15:43:00</time>
      </trkpt>
      <trkpt lat="38.73151" lon="-0.06942">
        <ele>429</ele>
        <time>2021-01-31 15:43:01</time>
      </trkpt>
      <trkpt lat="38.73153" lon="-0.06944">
        <ele>429.4</ele>
        <time>2021-01-31 15:43:02</time>
      </trkpt>
      <trkpt lat="38.73155" lon="-0.06946">
        <ele>429.6</ele>
        <time>2021-01-31 15:43:03</time>
      </trkpt>
      <trkpt lat="38.73157" lon="-0.06949">
        <ele>429.8</ele>
        <time>2021-01-31 15:43:04</time>
      </trkpt>
      <trkpt lat="38.73158" lon="-0.06951">
        <ele>430.4</ele>
        <time>2021-01-31 15:43:05</time>
      </trkpt>
      <trkpt lat="38.7316" lon="-0.06954">
        <ele>430.4</ele>
        <time>2021-01-31 15:43:06</time>
      </trkpt>
      <trkpt lat="38.73162" lon="-0.06956">
        <ele>430.4</ele>
        <time>2021-01-31 15:43:07</time>
      </trkpt>
      <trkpt lat="38.73163" lon="-0.06959">
        <ele>430.4</ele>
        <time>2021-01-31 15:43:08</time>
      </trkpt>
      <trkpt lat="38.73165" lon="-0.06962">
        <ele>431</ele>
        <time>2021-01-31 15:43:09</time>
      </trkpt>
      <trkpt lat="38.73166" lon="-0.06965">
        <ele>431</ele>
        <time>2021-01-31 15:43:10</time>
      </trkpt>
      <trkpt lat="38.73168" lon="-0.06968">
        <ele>431</ele>
        <time>2021-01-31 15:43:11</time>
      </trkpt>
      <trkpt lat="38.73169" lon="-0.06971">
        <ele>431</ele>
        <time>2021-01-31 15:43:12</time>
      </trkpt>
      <trkpt lat="38.7317" lon="-0.06974">
        <ele>431.6</ele>
        <time>2021-01-31 15:43:13</time>
      </trkpt>
      <trkpt lat="38.73171" lon="-0.06977">
        <ele>431.6</ele>
        <time>2021-01-31 15:43:14</time>
      </trkpt>
      <trkpt lat="38.73172" lon="-0.06981">
        <ele>431.6</ele>
        <time>2021-01-31 15:43:15</time>
      </trkpt>
      <trkpt lat="38.73172" lon="-0.06984">
        <ele>431.4</ele>
        <time>2021-01-31 15:43:16</time>
      </trkpt>
      <trkpt lat="38.73173" lon="-0.06988">
        <ele>431.4</ele>
        <time>2021-01-31 15:43:17</time>
      </trkpt>
      <trkpt lat="38.73174" lon="-0.06992">
        <ele>431.4</ele>
        <time>2021-01-31 15:43:18</time>
      </trkpt>
      <trkpt lat="38.73175" lon="-0.06996">
        <ele>431.8</ele>
        <time>2021-01-31 15:43:19</time>
      </trkpt>
      <trkpt lat="38.73176" lon="-0.07001">
        <ele>432</ele>
        <time>2021-01-31 15:43:20</time>
      </trkpt>
      <trkpt lat="38.73177" lon="-0.07005">
        <ele>432</ele>
        <time>2021-01-31 15:43:21</time>
      </trkpt>
      <trkpt lat="38.73179" lon="-0.07009">
        <ele>432</ele>
        <time>2021-01-31 15:43:22</time>
      </trkpt>
      <trkpt lat="38.7318" lon="-0.07013">
        <ele>432</ele>
        <time>2021-01-31 15:43:23</time>
      </trkpt>
      <trkpt lat="38.73181" lon="-0.07018">
        <ele>433</ele>
        <time>2021-01-31 15:43:24</time>
      </trkpt>
      <trkpt lat="38.73183" lon="-0.07022">
        <ele>433.4</ele>
        <time>2021-01-31 15:43:25</time>
      </trkpt>
      <trkpt lat="38.73184" lon="-0.07027">
        <ele>433.4</ele>
        <time>2021-01-31 15:43:26</time>
      </trkpt>
      <trkpt lat="38.73185" lon="-0.07031">
        <ele>433.4</ele>
        <time>2021-01-31 15:43:27</time>
      </trkpt>
      <trkpt lat="38.73187" lon="-0.07034">
        <ele>433.4</ele>
        <time>2021-01-31 15:43:28</time>
      </trkpt>
      <trkpt lat="38.7319" lon="-0.07037">
        <ele>433.4</ele>
        <time>2021-01-31 15:43:29</time>
      </trkpt>
      <trkpt lat="38.73193" lon="-0.07039">
        <ele>433.6</ele>
        <time>2021-01-31 15:43:30</time>
      </trkpt>
      <trkpt lat="38.73198" lon="-0.0704">
        <ele>433.6</ele>
        <time>2021-01-31 15:43:31</time>
      </trkpt>
      <trkpt lat="38.73202" lon="-0.07039">
        <ele>433.6</ele>
        <time>2021-01-31 15:43:32</time>
      </trkpt>
      <trkpt lat="38.73205" lon="-0.07037">
        <ele>433.6</ele>
        <time>2021-01-31 15:43:33</time>
      </trkpt>
      <trkpt lat="38.73208" lon="-0.07035">
        <ele>434.6</ele>
        <time>2021-01-31 15:43:34</time>
      </trkpt>
      <trkpt lat="38.73211" lon="-0.07033">
        <ele>435</ele>
        <time>2021-01-31 15:43:35</time>
      </trkpt>
      <trkpt lat="38.73215" lon="-0.0703">
        <ele>435</ele>
        <time>2021-01-31 15:43:36</time>
      </trkpt>
      <trkpt lat="38.73217" lon="-0.07028">
        <ele>435</ele>
        <time>2021-01-31 15:43:37</time>
      </trkpt>
      <trkpt lat="38.73221" lon="-0.07026">
        <ele>435</ele>
        <time>2021-01-31 15:43:38</time>
      </trkpt>
      <trkpt lat="38.73224" lon="-0.07023">
        <ele>435</ele>
        <time>2021-01-31 15:43:39</time>
      </trkpt>
      <trkpt lat="38.73226" lon="-0.07021">
        <ele>435</ele>
        <time>2021-01-31 15:43:40</time>
      </trkpt>
      <trkpt lat="38.73229" lon="-0.07019">
        <ele>435</ele>
        <time>2021-01-31 15:43:41</time>
      </trkpt>
      <trkpt lat="38.73232" lon="-0.07017">
        <ele>435</ele>
        <time>2021-01-31 15:43:42</time>
      </trkpt>
      <trkpt lat="38.73235" lon="-0.07015">
        <ele>435.6</ele>
        <time>2021-01-31 15:43:43</time>
      </trkpt>
      <trkpt lat="38.73238" lon="-0.07013">
        <ele>436.6</ele>
        <time>2021-01-31 15:43:44</time>
      </trkpt>
      <trkpt lat="38.7324" lon="-0.0701">
        <ele>436.8</ele>
        <time>2021-01-31 15:43:45</time>
      </trkpt>
      <trkpt lat="38.73243" lon="-0.07008">
        <ele>436.8</ele>
        <time>2021-01-31 15:43:46</time>
      </trkpt>
      <trkpt lat="38.73246" lon="-0.07006">
        <ele>437</ele>
        <time>2021-01-31 15:43:47</time>
      </trkpt>
      <trkpt lat="38.73248" lon="-0.07004">
        <ele>437.2</ele>
        <time>2021-01-31 15:43:48</time>
      </trkpt>
      <trkpt lat="38.73251" lon="-0.07002">
        <ele>437.6</ele>
        <time>2021-01-31 15:43:49</time>
      </trkpt>
      <trkpt lat="38.73252" lon="-0.07">
        <ele>438</ele>
        <time>2021-01-31 15:43:50</time>
      </trkpt>
      <trkpt lat="38.73255" lon="-0.06999">
        <ele>438.2</ele>
        <time>2021-01-31 15:43:51</time>
      </trkpt>
      <trkpt lat="38.73258" lon="-0.06998">
        <ele>438.2</ele>
        <time>2021-01-31 15:43:52</time>
      </trkpt>
      <trkpt lat="38.7326" lon="-0.06997">
        <ele>438.2</ele>
        <time>2021-01-31 15:43:53</time>
      </trkpt>
      <trkpt lat="38.73263" lon="-0.06997">
        <ele>438.2</ele>
        <time>2021-01-31 15:43:54</time>
      </trkpt>
      <trkpt lat="38.73266" lon="-0.06997">
        <ele>439</ele>
        <time>2021-01-31 15:43:55</time>
      </trkpt>
      <trkpt lat="38.73269" lon="-0.06998">
        <ele>439.4</ele>
        <time>2021-01-31 15:43:56</time>
      </trkpt>
      <trkpt lat="38.73271" lon="-0.06999">
        <ele>439.4</ele>
        <time>2021-01-31 15:43:57</time>
      </trkpt>
      <trkpt lat="38.73273" lon="-0.07001">
        <ele>439.4</ele>
        <time>2021-01-31 15:43:58</time>
      </trkpt>
      <trkpt lat="38.73275" lon="-0.07003">
        <ele>438.4</ele>
        <time>2021-01-31 15:43:59</time>
      </trkpt>
      <trkpt lat="38.73277" lon="-0.07006">
        <ele>438.4</ele>
        <time>2021-01-31 15:44:00</time>
      </trkpt>
      <trkpt lat="38.73279" lon="-0.07008">
        <ele>438.4</ele>
        <time>2021-01-31 15:44:01</time>
      </trkpt>
      <trkpt lat="38.73281" lon="-0.0701">
        <ele>439.4</ele>
        <time>2021-01-31 15:44:02</time>
      </trkpt>
      <trkpt lat="38.73282" lon="-0.07013">
        <ele>439.6</ele>
        <time>2021-01-31 15:44:03</time>
      </trkpt>
      <trkpt lat="38.73283" lon="-0.07016">
        <ele>439.8</ele>
        <time>2021-01-31 15:44:04</time>
      </trkpt>
      <trkpt lat="38.73284" lon="-0.07019">
        <ele>439.8</ele>
        <time>2021-01-31 15:44:05</time>
      </trkpt>
      <trkpt lat="38.73284" lon="-0.07022">
        <ele>439.8</ele>
        <time>2021-01-31 15:44:06</time>
      </trkpt>
      <trkpt lat="38.73285" lon="-0.07025">
        <ele>439.8</ele>
        <time>2021-01-31 15:44:07</time>
      </trkpt>
      <trkpt lat="38.73286" lon="-0.07028">
        <ele>439.8</ele>
        <time>2021-01-31 15:44:08</time>
      </trkpt>
      <trkpt lat="38.73287" lon="-0.07031">
        <ele>439.8</ele>
        <time>2021-01-31 15:44:09</time>
      </trkpt>
      <trkpt lat="38.73288" lon="-0.07034">
        <ele>439.8</ele>
        <time>2021-01-31 15:44:10</time>
      </trkpt>
      <trkpt lat="38.73289" lon="-0.07037">
        <ele>440.8</ele>
        <time>2021-01-31 15:44:11</time>
      </trkpt>
      <trkpt lat="38.73289" lon="-0.0704">
        <ele>441.2</ele>
        <time>2021-01-31 15:44:12</time>
      </trkpt>
      <trkpt lat="38.7329" lon="-0.07043">
        <ele>441.2</ele>
        <time>2021-01-31 15:44:13</time>
      </trkpt>
      <trkpt lat="38.73291" lon="-0.07046">
        <ele>441.2</ele>
        <time>2021-01-31 15:44:14</time>
      </trkpt>
      <trkpt lat="38.73292" lon="-0.07049">
        <ele>440.4</ele>
        <time>2021-01-31 15:44:15</time>
      </trkpt>
      <trkpt lat="38.73293" lon="-0.07053">
        <ele>440.4</ele>
        <time>2021-01-31 15:44:16</time>
      </trkpt>
      <trkpt lat="38.73293" lon="-0.07056">
        <ele>440.4</ele>
        <time>2021-01-31 15:44:17</time>
      </trkpt>
      <trkpt lat="38.73294" lon="-0.07059">
        <ele>441.4</ele>
        <time>2021-01-31 15:44:18</time>
      </trkpt>
      <trkpt lat="38.73295" lon="-0.07062">
        <ele>442.4</ele>
        <time>2021-01-31 15:44:19</time>
      </trkpt>
      <trkpt lat="38.73295" lon="-0.07066">
        <ele>443.2</ele>
        <time>2021-01-31 15:44:20</time>
      </trkpt>
      <trkpt lat="38.73296" lon="-0.07069">
        <ele>443.4</ele>
        <time>2021-01-31 15:44:21</time>
      </trkpt>
      <trkpt lat="38.73297" lon="-0.07072">
        <ele>444</ele>
        <time>2021-01-31 15:44:22</time>
      </trkpt>
      <trkpt lat="38.73297" lon="-0.07075">
        <ele>444</ele>
        <time>2021-01-31 15:44:23</time>
      </trkpt>
      <trkpt lat="38.73298" lon="-0.07078">
        <ele>444</ele>
        <time>2021-01-31 15:44:24</time>
      </trkpt>
      <trkpt lat="38.73299" lon="-0.07081">
        <ele>444</ele>
        <time>2021-01-31 15:44:25</time>
      </trkpt>
      <trkpt lat="38.733" lon="-0.07084">
        <ele>444.4</ele>
        <time>2021-01-31 15:44:26</time>
      </trkpt>
      <trkpt lat="38.733" lon="-0.07087">
        <ele>444.8</ele>
        <time>2021-01-31 15:44:27</time>
      </trkpt>
      <trkpt lat="38.73301" lon="-0.0709">
        <ele>445</ele>
        <time>2021-01-31 15:44:28</time>
      </trkpt>
      <trkpt lat="38.73302" lon="-0.07093">
        <ele>445.4</ele>
        <time>2021-01-31 15:44:29</time>
      </trkpt>
      <trkpt lat="38.73302" lon="-0.07096">
        <ele>445.4</ele>
        <time>2021-01-31 15:44:30</time>
      </trkpt>
      <trkpt lat="38.73303" lon="-0.07099">
        <ele>445.4</ele>
        <time>2021-01-31 15:44:31</time>
      </trkpt>
      <trkpt lat="38.73303" lon="-0.07102">
        <ele>444.8</ele>
        <time>2021-01-31 15:44:32</time>
      </trkpt>
      <trkpt lat="38.73304" lon="-0.07105">
        <ele>444.8</ele>
        <time>2021-01-31 15:44:33</time>
      </trkpt>
      <trkpt lat="38.73305" lon="-0.07107">
        <ele>444.8</ele>
        <time>2021-01-31 15:44:34</time>
      </trkpt>
      <trkpt lat="38.73307" lon="-0.0711">
        <ele>445.2</ele>
        <time>2021-01-31 15:44:35</time>
      </trkpt>
      <trkpt lat="38.73309" lon="-0.07112">
        <ele>445.2</ele>
        <time>2021-01-31 15:44:36</time>
      </trkpt>
      <trkpt lat="38.73311" lon="-0.07114">
        <ele>445.2</ele>
        <time>2021-01-31 15:44:37</time>
      </trkpt>
      <trkpt lat="38.73313" lon="-0.07116">
        <ele>445.2</ele>
        <time>2021-01-31 15:44:38</time>
      </trkpt>
      <trkpt lat="38.73315" lon="-0.07118">
        <ele>446</ele>
        <time>2021-01-31 15:44:39</time>
      </trkpt>
      <trkpt lat="38.73317" lon="-0.0712">
        <ele>446</ele>
        <time>2021-01-31 15:44:40</time>
      </trkpt>
      <trkpt lat="38.7332" lon="-0.07121">
        <ele>446</ele>
        <time>2021-01-31 15:44:41</time>
      </trkpt>
      <trkpt lat="38.73323" lon="-0.07123">
        <ele>446</ele>
        <time>2021-01-31 15:44:42</time>
      </trkpt>
      <trkpt lat="38.73325" lon="-0.07125">
        <ele>446.4</ele>
        <time>2021-01-31 15:44:43</time>
      </trkpt>
      <trkpt lat="38.73328" lon="-0.07127">
        <ele>446.4</ele>
        <time>2021-01-31 15:44:44</time>
      </trkpt>
      <trkpt lat="38.7333" lon="-0.07129">
        <ele>446.4</ele>
        <time>2021-01-31 15:44:45</time>
      </trkpt>
      <trkpt lat="38.73333" lon="-0.07131">
        <ele>446.4</ele>
        <time>2021-01-31 15:44:46</time>
      </trkpt>
      <trkpt lat="38.73336" lon="-0.07132">
        <ele>446.4</ele>
        <time>2021-01-31 15:44:47</time>
      </trkpt>
      <trkpt lat="38.7334" lon="-0.07135">
        <ele>446.4</ele>
        <time>2021-01-31 15:44:48</time>
      </trkpt>
      <trkpt lat="38.73342" lon="-0.07137">
        <ele>446.4</ele>
        <time>2021-01-31 15:44:49</time>
      </trkpt>
      <trkpt lat="38.73345" lon="-0.07139">
        <ele>447.4</ele>
        <time>2021-01-31 15:44:50</time>
      </trkpt>
      <trkpt lat="38.73348" lon="-0.07141">
        <ele>447.4</ele>
        <time>2021-01-31 15:44:51</time>
      </trkpt>
      <trkpt lat="38.73351" lon="-0.07143">
        <ele>447.4</ele>
        <time>2021-01-31 15:44:52</time>
      </trkpt>
      <trkpt lat="38.73354" lon="-0.07145">
        <ele>447.4</ele>
        <time>2021-01-31 15:44:53</time>
      </trkpt>
      <trkpt lat="38.73357" lon="-0.07147">
        <ele>448.2</ele>
        <time>2021-01-31 15:44:54</time>
      </trkpt>
      <trkpt lat="38.7336" lon="-0.07149">
        <ele>448.4</ele>
        <time>2021-01-31 15:44:55</time>
      </trkpt>
      <trkpt lat="38.73362" lon="-0.07151">
        <ele>448.4</ele>
        <time>2021-01-31 15:44:56</time>
      </trkpt>
      <trkpt lat="38.73365" lon="-0.07152">
        <ele>448.4</ele>
        <time>2021-01-31 15:44:57</time>
      </trkpt>
      <trkpt lat="38.73368" lon="-0.07154">
        <ele>448.4</ele>
        <time>2021-01-31 15:44:58</time>
      </trkpt>
      <trkpt lat="38.73372" lon="-0.07155">
        <ele>448.4</ele>
        <time>2021-01-31 15:44:59</time>
      </trkpt>
      <trkpt lat="38.73374" lon="-0.07156">
        <ele>449</ele>
        <time>2021-01-31 15:45:00</time>
      </trkpt>
      <trkpt lat="38.73376" lon="-0.07157">
        <ele>449</ele>
        <time>2021-01-31 15:45:01</time>
      </trkpt>
      <trkpt lat="38.73378" lon="-0.07157">
        <ele>449</ele>
        <time>2021-01-31 15:45:02</time>
      </trkpt>
      <trkpt lat="38.73381" lon="-0.07158">
        <ele>449</ele>
        <time>2021-01-31 15:45:03</time>
      </trkpt>
      <trkpt lat="38.73383" lon="-0.07158">
        <ele>449.4</ele>
        <time>2021-01-31 15:45:04</time>
      </trkpt>
      <trkpt lat="38.73386" lon="-0.07158">
        <ele>450</ele>
        <time>2021-01-31 15:45:05</time>
      </trkpt>
      <trkpt lat="38.73389" lon="-0.07158">
        <ele>450.4</ele>
        <time>2021-01-31 15:45:06</time>
      </trkpt>
      <trkpt lat="38.73391" lon="-0.07157">
        <ele>450.4</ele>
        <time>2021-01-31 15:45:07</time>
      </trkpt>
      <trkpt lat="38.73394" lon="-0.07157">
        <ele>450.4</ele>
        <time>2021-01-31 15:45:08</time>
      </trkpt>
      <trkpt lat="38.73397" lon="-0.07156">
        <ele>450.4</ele>
        <time>2021-01-31 15:45:09</time>
      </trkpt>
      <trkpt lat="38.734" lon="-0.07156">
        <ele>450.4</ele>
        <time>2021-01-31 15:45:10</time>
      </trkpt>
      <trkpt lat="38.73402" lon="-0.07156">
        <ele>450.4</ele>
        <time>2021-01-31 15:45:11</time>
      </trkpt>
      <trkpt lat="38.73405" lon="-0.07156">
        <ele>450.4</ele>
        <time>2021-01-31 15:45:12</time>
      </trkpt>
      <trkpt lat="38.73407" lon="-0.07156">
        <ele>451.2</ele>
        <time>2021-01-31 15:45:13</time>
      </trkpt>
      <trkpt lat="38.7341" lon="-0.07156">
        <ele>451.8</ele>
        <time>2021-01-31 15:45:14</time>
      </trkpt>
      <trkpt lat="38.73412" lon="-0.07156">
        <ele>451.8</ele>
        <time>2021-01-31 15:45:15</time>
      </trkpt>
      <trkpt lat="38.73415" lon="-0.07157">
        <ele>451.8</ele>
        <time>2021-01-31 15:45:16</time>
      </trkpt>
      <trkpt lat="38.73417" lon="-0.07158">
        <ele>451.8</ele>
        <time>2021-01-31 15:45:17</time>
      </trkpt>
      <trkpt lat="38.7342" lon="-0.07159">
        <ele>451.8</ele>
        <time>2021-01-31 15:45:18</time>
      </trkpt>
      <trkpt lat="38.73422" lon="-0.0716">
        <ele>451.8</ele>
        <time>2021-01-31 15:45:19</time>
      </trkpt>
      <trkpt lat="38.73425" lon="-0.07161">
        <ele>451.8</ele>
        <time>2021-01-31 15:45:20</time>
      </trkpt>
      <trkpt lat="38.73427" lon="-0.07163">
        <ele>451.8</ele>
        <time>2021-01-31 15:45:21</time>
      </trkpt>
      <trkpt lat="38.73429" lon="-0.07165">
        <ele>451.8</ele>
        <time>2021-01-31 15:45:22</time>
      </trkpt>
      <trkpt lat="38.73431" lon="-0.07167">
        <ele>451.8</ele>
        <time>2021-01-31 15:45:23</time>
      </trkpt>
      <trkpt lat="38.73433" lon="-0.0717">
        <ele>451.8</ele>
        <time>2021-01-31 15:45:24</time>
      </trkpt>
      <trkpt lat="38.73434" lon="-0.07172">
        <ele>451.8</ele>
        <time>2021-01-31 15:45:25</time>
      </trkpt>
      <trkpt lat="38.73436" lon="-0.07175">
        <ele>451.8</ele>
        <time>2021-01-31 15:45:26</time>
      </trkpt>
      <trkpt lat="38.73436" lon="-0.07178">
        <ele>451.8</ele>
        <time>2021-01-31 15:45:27</time>
      </trkpt>
      <trkpt lat="38.73437" lon="-0.07181">
        <ele>452.8</ele>
        <time>2021-01-31 15:45:28</time>
      </trkpt>
      <trkpt lat="38.73438" lon="-0.07184">
        <ele>453.8</ele>
        <time>2021-01-31 15:45:29</time>
      </trkpt>
      <trkpt lat="38.73439" lon="-0.07187">
        <ele>453.8</ele>
        <time>2021-01-31 15:45:30</time>
      </trkpt>
      <trkpt lat="38.73439" lon="-0.0719">
        <ele>453.8</ele>
        <time>2021-01-31 15:45:31</time>
      </trkpt>
      <trkpt lat="38.7344" lon="-0.07194">
        <ele>453.4</ele>
        <time>2021-01-31 15:45:32</time>
      </trkpt>
      <trkpt lat="38.7344" lon="-0.07197">
        <ele>453.4</ele>
        <time>2021-01-31 15:45:33</time>
      </trkpt>
      <trkpt lat="38.73441" lon="-0.072">
        <ele>453.4</ele>
        <time>2021-01-31 15:45:34</time>
      </trkpt>
      <trkpt lat="38.73442" lon="-0.07203">
        <ele>453.4</ele>
        <time>2021-01-31 15:45:35</time>
      </trkpt>
      <trkpt lat="38.73442" lon="-0.07206">
        <ele>453.4</ele>
        <time>2021-01-31 15:45:36</time>
      </trkpt>
      <trkpt lat="38.73443" lon="-0.07209">
        <ele>453.4</ele>
        <time>2021-01-31 15:45:37</time>
      </trkpt>
      <trkpt lat="38.73444" lon="-0.07212">
        <ele>453.4</ele>
        <time>2021-01-31 15:45:38</time>
      </trkpt>
      <trkpt lat="38.73444" lon="-0.07215">
        <ele>453.4</ele>
        <time>2021-01-31 15:45:39</time>
      </trkpt>
      <trkpt lat="38.73445" lon="-0.07219">
        <ele>454.4</ele>
        <time>2021-01-31 15:45:40</time>
      </trkpt>
      <trkpt lat="38.73446" lon="-0.07222">
        <ele>455.2</ele>
        <time>2021-01-31 15:45:41</time>
      </trkpt>
      <trkpt lat="38.73446" lon="-0.07225">
        <ele>456.2</ele>
        <time>2021-01-31 15:45:42</time>
      </trkpt>
      <trkpt lat="38.73447" lon="-0.07228">
        <ele>456.2</ele>
        <time>2021-01-31 15:45:43</time>
      </trkpt>
      <trkpt lat="38.73447" lon="-0.07231">
        <ele>456.2</ele>
        <time>2021-01-31 15:45:44</time>
      </trkpt>
      <trkpt lat="38.73448" lon="-0.07235">
        <ele>456.2</ele>
        <time>2021-01-31 15:45:45</time>
      </trkpt>
      <trkpt lat="38.73449" lon="-0.07238">
        <ele>455.6</ele>
        <time>2021-01-31 15:45:46</time>
      </trkpt>
      <trkpt lat="38.73449" lon="-0.07241">
        <ele>455.2</ele>
        <time>2021-01-31 15:45:47</time>
      </trkpt>
      <trkpt lat="38.7345" lon="-0.07244">
        <ele>455.2</ele>
        <time>2021-01-31 15:45:48</time>
      </trkpt>
      <trkpt lat="38.73451" lon="-0.07247">
        <ele>455.2</ele>
        <time>2021-01-31 15:45:49</time>
      </trkpt>
      <trkpt lat="38.73451" lon="-0.07251">
        <ele>456.2</ele>
        <time>2021-01-31 15:45:50</time>
      </trkpt>
      <trkpt lat="38.73452" lon="-0.07254">
        <ele>457.2</ele>
        <time>2021-01-31 15:45:51</time>
      </trkpt>
      <trkpt lat="38.73453" lon="-0.07257">
        <ele>457.6</ele>
        <time>2021-01-31 15:45:52</time>
      </trkpt>
      <trkpt lat="38.73454" lon="-0.0726">
        <ele>457.6</ele>
        <time>2021-01-31 15:45:53</time>
      </trkpt>
      <trkpt lat="38.73454" lon="-0.07263">
        <ele>457.6</ele>
        <time>2021-01-31 15:45:54</time>
      </trkpt>
      <trkpt lat="38.73455" lon="-0.07266">
        <ele>457.4</ele>
        <time>2021-01-31 15:45:55</time>
      </trkpt>
      <trkpt lat="38.73456" lon="-0.07269">
        <ele>457.4</ele>
        <time>2021-01-31 15:45:56</time>
      </trkpt>
      <trkpt lat="38.73458" lon="-0.07272">
        <ele>457.4</ele>
        <time>2021-01-31 15:45:57</time>
      </trkpt>
      <trkpt lat="38.73459" lon="-0.07275">
        <ele>457.4</ele>
        <time>2021-01-31 15:45:58</time>
      </trkpt>
      <trkpt lat="38.7346" lon="-0.07278">
        <ele>457.4</ele>
        <time>2021-01-31 15:45:59</time>
      </trkpt>
      <trkpt lat="38.73461" lon="-0.07281">
        <ele>457.4</ele>
        <time>2021-01-31 15:46:00</time>
      </trkpt>
      <trkpt lat="38.73462" lon="-0.07283">
        <ele>458.4</ele>
        <time>2021-01-31 15:46:01</time>
      </trkpt>
      <trkpt lat="38.73464" lon="-0.07286">
        <ele>459</ele>
        <time>2021-01-31 15:46:02</time>
      </trkpt>
      <trkpt lat="38.73465" lon="-0.07289">
        <ele>459</ele>
        <time>2021-01-31 15:46:03</time>
      </trkpt>
      <trkpt lat="38.73466" lon="-0.07292">
        <ele>459</ele>
        <time>2021-01-31 15:46:04</time>
      </trkpt>
      <trkpt lat="38.73468" lon="-0.07294">
        <ele>459</ele>
        <time>2021-01-31 15:46:05</time>
      </trkpt>
      <trkpt lat="38.73469" lon="-0.07297">
        <ele>460</ele>
        <time>2021-01-31 15:46:06</time>
      </trkpt>
      <trkpt lat="38.7347" lon="-0.073">
        <ele>460</ele>
        <time>2021-01-31 15:46:07</time>
      </trkpt>
      <trkpt lat="38.73472" lon="-0.07302">
        <ele>460</ele>
        <time>2021-01-31 15:46:08</time>
      </trkpt>
      <trkpt lat="38.73473" lon="-0.07305">
        <ele>460</ele>
        <time>2021-01-31 15:46:09</time>
      </trkpt>
      <trkpt lat="38.73474" lon="-0.07308">
        <ele>460</ele>
        <time>2021-01-31 15:46:10</time>
      </trkpt>
      <trkpt lat="38.73476" lon="-0.0731">
        <ele>460</ele>
        <time>2021-01-31 15:46:11</time>
      </trkpt>
      <trkpt lat="38.73477" lon="-0.07313">
        <ele>460</ele>
        <time>2021-01-31 15:46:12</time>
      </trkpt>
      <trkpt lat="38.73478" lon="-0.07315">
        <ele>461</ele>
        <time>2021-01-31 15:46:13</time>
      </trkpt>
      <trkpt lat="38.73479" lon="-0.07318">
        <ele>461.4</ele>
        <time>2021-01-31 15:46:14</time>
      </trkpt>
      <trkpt lat="38.7348" lon="-0.07321">
        <ele>461.4</ele>
        <time>2021-01-31 15:46:15</time>
      </trkpt>
      <trkpt lat="38.7348" lon="-0.07325">
        <ele>461.4</ele>
        <time>2021-01-31 15:46:16</time>
      </trkpt>
      <trkpt lat="38.73481" lon="-0.07328">
        <ele>461.4</ele>
        <time>2021-01-31 15:46:17</time>
      </trkpt>
      <trkpt lat="38.73482" lon="-0.07331">
        <ele>461.4</ele>
        <time>2021-01-31 15:46:18</time>
      </trkpt>
      <trkpt lat="38.73483" lon="-0.07334">
        <ele>461.4</ele>
        <time>2021-01-31 15:46:19</time>
      </trkpt>
      <trkpt lat="38.73483" lon="-0.07338">
        <ele>461.4</ele>
        <time>2021-01-31 15:46:20</time>
      </trkpt>
      <trkpt lat="38.73484" lon="-0.07341">
        <ele>462</ele>
        <time>2021-01-31 15:46:21</time>
      </trkpt>
      <trkpt lat="38.73484" lon="-0.07345">
        <ele>462</ele>
        <time>2021-01-31 15:46:22</time>
      </trkpt>
      <trkpt lat="38.73484" lon="-0.07348">
        <ele>462.2</ele>
        <time>2021-01-31 15:46:23</time>
      </trkpt>
      <trkpt lat="38.73485" lon="-0.07351">
        <ele>462.4</ele>
        <time>2021-01-31 15:46:24</time>
      </trkpt>
      <trkpt lat="38.73485" lon="-0.07355">
        <ele>463</ele>
        <time>2021-01-31 15:46:25</time>
      </trkpt>
      <trkpt lat="38.73485" lon="-0.07358">
        <ele>463.2</ele>
        <time>2021-01-31 15:46:26</time>
      </trkpt>
      <trkpt lat="38.73485" lon="-0.07361">
        <ele>463.2</ele>
        <time>2021-01-31 15:46:27</time>
      </trkpt>
      <trkpt lat="38.73486" lon="-0.07365">
        <ele>463.2</ele>
        <time>2021-01-31 15:46:28</time>
      </trkpt>
      <trkpt lat="38.73486" lon="-0.07368">
        <ele>462.4</ele>
        <time>2021-01-31 15:46:29</time>
      </trkpt>
      <trkpt lat="38.73486" lon="-0.07371">
        <ele>462.4</ele>
        <time>2021-01-31 15:46:30</time>
      </trkpt>
      <trkpt lat="38.73486" lon="-0.07374">
        <ele>462.4</ele>
        <time>2021-01-31 15:46:31</time>
      </trkpt>
      <trkpt lat="38.73486" lon="-0.07378">
        <ele>463.4</ele>
        <time>2021-01-31 15:46:32</time>
      </trkpt>
      <trkpt lat="38.73486" lon="-0.07381">
        <ele>464.4</ele>
        <time>2021-01-31 15:46:33</time>
      </trkpt>
      <trkpt lat="38.73486" lon="-0.07384">
        <ele>464.6</ele>
        <time>2021-01-31 15:46:34</time>
      </trkpt>
      <trkpt lat="38.73486" lon="-0.07387">
        <ele>465.2</ele>
        <time>2021-01-31 15:46:35</time>
      </trkpt>
      <trkpt lat="38.73485" lon="-0.07391">
        <ele>466</ele>
        <time>2021-01-31 15:46:36</time>
      </trkpt>
      <trkpt lat="38.73485" lon="-0.07394">
        <ele>466</ele>
        <time>2021-01-31 15:46:37</time>
      </trkpt>
      <trkpt lat="38.73485" lon="-0.07398">
        <ele>466</ele>
        <time>2021-01-31 15:46:38</time>
      </trkpt>
      <trkpt lat="38.73484" lon="-0.07401">
        <ele>465</ele>
        <time>2021-01-31 15:46:39</time>
      </trkpt>
      <trkpt lat="38.73483" lon="-0.07404">
        <ele>465</ele>
        <time>2021-01-31 15:46:40</time>
      </trkpt>
      <trkpt lat="38.73482" lon="-0.07407">
        <ele>465</ele>
        <time>2021-01-31 15:46:41</time>
      </trkpt>
      <trkpt lat="38.73481" lon="-0.0741">
        <ele>466</ele>
        <time>2021-01-31 15:46:42</time>
      </trkpt>
      <trkpt lat="38.7348" lon="-0.07413">
        <ele>466</ele>
        <time>2021-01-31 15:46:43</time>
      </trkpt>
      <trkpt lat="38.73479" lon="-0.07416">
        <ele>466.6</ele>
        <time>2021-01-31 15:46:44</time>
      </trkpt>
      <trkpt lat="38.73477" lon="-0.07419">
        <ele>466.6</ele>
        <time>2021-01-31 15:46:45</time>
      </trkpt>
      <trkpt lat="38.73475" lon="-0.07421">
        <ele>466.6</ele>
        <time>2021-01-31 15:46:46</time>
      </trkpt>
      <trkpt lat="38.73474" lon="-0.07424">
        <ele>465.8</ele>
        <time>2021-01-31 15:46:47</time>
      </trkpt>
      <trkpt lat="38.73472" lon="-0.07426">
        <ele>465.8</ele>
        <time>2021-01-31 15:46:48</time>
      </trkpt>
      <trkpt lat="38.7347" lon="-0.07428">
        <ele>465.8</ele>
        <time>2021-01-31 15:46:49</time>
      </trkpt>
      <trkpt lat="38.73467" lon="-0.0743">
        <ele>466.8</ele>
        <time>2021-01-31 15:46:50</time>
      </trkpt>
      <trkpt lat="38.73465" lon="-0.07432">
        <ele>467.2</ele>
        <time>2021-01-31 15:46:51</time>
      </trkpt>
      <trkpt lat="38.73463" lon="-0.07433">
        <ele>468.2</ele>
        <time>2021-01-31 15:46:52</time>
      </trkpt>
      <trkpt lat="38.73461" lon="-0.07435">
        <ele>468.2</ele>
        <time>2021-01-31 15:46:53</time>
      </trkpt>
      <trkpt lat="38.73458" lon="-0.07436">
        <ele>468.2</ele>
        <time>2021-01-31 15:46:54</time>
      </trkpt>
      <trkpt lat="38.73456" lon="-0.07438">
        <ele>468</ele>
        <time>2021-01-31 15:46:55</time>
      </trkpt>
      <trkpt lat="38.73453" lon="-0.07439">
        <ele>468</ele>
        <time>2021-01-31 15:46:56</time>
      </trkpt>
      <trkpt lat="38.73451" lon="-0.07441">
        <ele>468</ele>
        <time>2021-01-31 15:46:57</time>
      </trkpt>
      <trkpt lat="38.73449" lon="-0.07442">
        <ele>469</ele>
        <time>2021-01-31 15:46:58</time>
      </trkpt>
      <trkpt lat="38.73447" lon="-0.07444">
        <ele>469</ele>
        <time>2021-01-31 15:46:59</time>
      </trkpt>
      <trkpt lat="38.73444" lon="-0.07446">
        <ele>469</ele>
        <time>2021-01-31 15:47:00</time>
      </trkpt>
      <trkpt lat="38.73442" lon="-0.07447">
        <ele>469</ele>
        <time>2021-01-31 15:47:01</time>
      </trkpt>
      <trkpt lat="38.7344" lon="-0.07449">
        <ele>470</ele>
        <time>2021-01-31 15:47:02</time>
      </trkpt>
      <trkpt lat="38.73438" lon="-0.0745">
        <ele>470</ele>
        <time>2021-01-31 15:47:03</time>
      </trkpt>
      <trkpt lat="38.73435" lon="-0.07452">
        <ele>470.4</ele>
        <time>2021-01-31 15:47:04</time>
      </trkpt>
      <trkpt lat="38.73433" lon="-0.07453">
        <ele>470.8</ele>
        <time>2021-01-31 15:47:05</time>
      </trkpt>
      <trkpt lat="38.73431" lon="-0.07455">
        <ele>470.8</ele>
        <time>2021-01-31 15:47:06</time>
      </trkpt>
      <trkpt lat="38.73428" lon="-0.07457">
        <ele>470.8</ele>
        <time>2021-01-31 15:47:07</time>
      </trkpt>
      <trkpt lat="38.73426" lon="-0.07458">
        <ele>470.2</ele>
        <time>2021-01-31 15:47:08</time>
      </trkpt>
      <trkpt lat="38.73424" lon="-0.0746">
        <ele>470.2</ele>
        <time>2021-01-31 15:47:09</time>
      </trkpt>
      <trkpt lat="38.73421" lon="-0.07461">
        <ele>470.2</ele>
        <time>2021-01-31 15:47:10</time>
      </trkpt>
      <trkpt lat="38.73419" lon="-0.07463">
        <ele>470.2</ele>
        <time>2021-01-31 15:47:11</time>
      </trkpt>
      <trkpt lat="38.73417" lon="-0.07465">
        <ele>470.2</ele>
        <time>2021-01-31 15:47:12</time>
      </trkpt>
      <trkpt lat="38.73415" lon="-0.07466">
        <ele>470.2</ele>
        <time>2021-01-31 15:47:13</time>
      </trkpt>
      <trkpt lat="38.73412" lon="-0.07468">
        <ele>470.2</ele>
        <time>2021-01-31 15:47:14</time>
      </trkpt>
      <trkpt lat="38.7341" lon="-0.07469">
        <ele>470.2</ele>
        <time>2021-01-31 15:47:15</time>
      </trkpt>
      <trkpt lat="38.73408" lon="-0.07471">
        <ele>470.6</ele>
        <time>2021-01-31 15:47:16</time>
      </trkpt>
      <trkpt lat="38.73406" lon="-0.07472">
        <ele>470.8</ele>
        <time>2021-01-31 15:47:17</time>
      </trkpt>
      <trkpt lat="38.73403" lon="-0.07474">
        <ele>470.8</ele>
        <time>2021-01-31 15:47:18</time>
      </trkpt>
      <trkpt lat="38.73401" lon="-0.07475">
        <ele>470.8</ele>
        <time>2021-01-31 15:47:19</time>
      </trkpt>
      <trkpt lat="38.73399" lon="-0.07477">
        <ele>470.6</ele>
        <time>2021-01-31 15:47:20</time>
      </trkpt>
      <trkpt lat="38.73396" lon="-0.07478">
        <ele>470.6</ele>
        <time>2021-01-31 15:47:21</time>
      </trkpt>
      <trkpt lat="38.73394" lon="-0.0748">
        <ele>470.6</ele>
        <time>2021-01-31 15:47:22</time>
      </trkpt>
      <trkpt lat="38.73392" lon="-0.07481">
        <ele>470.8</ele>
        <time>2021-01-31 15:47:23</time>
      </trkpt>
      <trkpt lat="38.7339" lon="-0.07483">
        <ele>471</ele>
        <time>2021-01-31 15:47:24</time>
      </trkpt>
      <trkpt lat="38.73387" lon="-0.07484">
        <ele>471.6</ele>
        <time>2021-01-31 15:47:25</time>
      </trkpt>
      <trkpt lat="38.73385" lon="-0.07486">
        <ele>471.8</ele>
        <time>2021-01-31 15:47:26</time>
      </trkpt>
      <trkpt lat="38.73383" lon="-0.07487">
        <ele>471.8</ele>
        <time>2021-01-31 15:47:27</time>
      </trkpt>
      <trkpt lat="38.7338" lon="-0.07488">
        <ele>471.8</ele>
        <time>2021-01-31 15:47:28</time>
      </trkpt>
      <trkpt lat="38.73378" lon="-0.0749">
        <ele>471.4</ele>
        <time>2021-01-31 15:47:29</time>
      </trkpt>
      <trkpt lat="38.73376" lon="-0.07491">
        <ele>471.4</ele>
        <time>2021-01-31 15:47:30</time>
      </trkpt>
      <trkpt lat="38.73373" lon="-0.07492">
        <ele>471.4</ele>
        <time>2021-01-31 15:47:31</time>
      </trkpt>
      <trkpt lat="38.7337" lon="-0.07493">
        <ele>472.4</ele>
        <time>2021-01-31 15:47:32</time>
      </trkpt>
      <trkpt lat="38.73368" lon="-0.07494">
        <ele>472.4</ele>
        <time>2021-01-31 15:47:33</time>
      </trkpt>
      <trkpt lat="38.73365" lon="-0.07495">
        <ele>472.4</ele>
        <time>2021-01-31 15:47:34</time>
      </trkpt>
      <trkpt lat="38.73363" lon="-0.07496">
        <ele>472.4</ele>
        <time>2021-01-31 15:47:35</time>
      </trkpt>
      <trkpt lat="38.7336" lon="-0.07497">
        <ele>472.4</ele>
        <time>2021-01-31 15:47:36</time>
      </trkpt>
      <trkpt lat="38.73357" lon="-0.07499">
        <ele>473.2</ele>
        <time>2021-01-31 15:47:37</time>
      </trkpt>
      <trkpt lat="38.73354" lon="-0.075">
        <ele>473.2</ele>
        <time>2021-01-31 15:47:38</time>
      </trkpt>
      <trkpt lat="38.73351" lon="-0.07501">
        <ele>473.2</ele>
        <time>2021-01-31 15:47:39</time>
      </trkpt>
      <trkpt lat="38.73348" lon="-0.07502">
        <ele>473.2</ele>
        <time>2021-01-31 15:47:40</time>
      </trkpt>
      <trkpt lat="38.73346" lon="-0.07503">
        <ele>473.2</ele>
        <time>2021-01-31 15:47:41</time>
      </trkpt>
      <trkpt lat="38.73343" lon="-0.07504">
        <ele>473.2</ele>
        <time>2021-01-31 15:47:42</time>
      </trkpt>
      <trkpt lat="38.7334" lon="-0.07505">
        <ele>473.2</ele>
        <time>2021-01-31 15:47:43</time>
      </trkpt>
      <trkpt lat="38.73337" lon="-0.07506">
        <ele>474</ele>
        <time>2021-01-31 15:47:44</time>
      </trkpt>
      <trkpt lat="38.73335" lon="-0.07507">
        <ele>474</ele>
        <time>2021-01-31 15:47:45</time>
      </trkpt>
      <trkpt lat="38.73332" lon="-0.07507">
        <ele>474</ele>
        <time>2021-01-31 15:47:46</time>
      </trkpt>
      <trkpt lat="38.73329" lon="-0.07508">
        <ele>474</ele>
        <time>2021-01-31 15:47:47</time>
      </trkpt>
      <trkpt lat="38.73326" lon="-0.07508">
        <ele>475</ele>
        <time>2021-01-31 15:47:48</time>
      </trkpt>
      <trkpt lat="38.73323" lon="-0.07508">
        <ele>475</ele>
        <time>2021-01-31 15:47:49</time>
      </trkpt>
      <trkpt lat="38.7332" lon="-0.07508">
        <ele>475</ele>
        <time>2021-01-31 15:47:50</time>
      </trkpt>
      <trkpt lat="38.73318" lon="-0.07508">
        <ele>475</ele>
        <time>2021-01-31 15:47:51</time>
      </trkpt>
      <trkpt lat="38.73315" lon="-0.07508">
        <ele>476</ele>
        <time>2021-01-31 15:47:52</time>
      </trkpt>
      <trkpt lat="38.73312" lon="-0.07507">
        <ele>476.6</ele>
        <time>2021-01-31 15:47:53</time>
      </trkpt>
      <trkpt lat="38.7331" lon="-0.07507">
        <ele>476.8</ele>
        <time>2021-01-31 15:47:54</time>
      </trkpt>
      <trkpt lat="38.73308" lon="-0.07506">
        <ele>476.8</ele>
        <time>2021-01-31 15:47:55</time>
      </trkpt>
      <trkpt lat="38.73305" lon="-0.07506">
        <ele>477.2</ele>
        <time>2021-01-31 15:47:56</time>
      </trkpt>
      <trkpt lat="38.73303" lon="-0.07505">
        <ele>477.2</ele>
        <time>2021-01-31 15:47:57</time>
      </trkpt>
      <trkpt lat="38.73301" lon="-0.07505">
        <ele>477.2</ele>
        <time>2021-01-31 15:47:58</time>
      </trkpt>
      <trkpt lat="38.73298" lon="-0.07504">
        <ele>477.2</ele>
        <time>2021-01-31 15:47:59</time>
      </trkpt>
      <trkpt lat="38.73296" lon="-0.07503">
        <ele>477.2</ele>
        <time>2021-01-31 15:48:00</time>
      </trkpt>
      <trkpt lat="38.73294" lon="-0.07502">
        <ele>477.2</ele>
        <time>2021-01-31 15:48:01</time>
      </trkpt>
      <trkpt lat="38.73291" lon="-0.07501">
        <ele>477.2</ele>
        <time>2021-01-31 15:48:02</time>
      </trkpt>
      <trkpt lat="38.73288" lon="-0.075">
        <ele>477.2</ele>
        <time>2021-01-31 15:48:03</time>
      </trkpt>
      <trkpt lat="38.73285" lon="-0.07499">
        <ele>478.2</ele>
        <time>2021-01-31 15:48:04</time>
      </trkpt>
      <trkpt lat="38.73283" lon="-0.07498">
        <ele>478.4</ele>
        <time>2021-01-31 15:48:05</time>
      </trkpt>
      <trkpt lat="38.7328" lon="-0.07496">
        <ele>478.6</ele>
        <time>2021-01-31 15:48:06</time>
      </trkpt>
      <trkpt lat="38.73278" lon="-0.07495">
        <ele>478.8</ele>
        <time>2021-01-31 15:48:07</time>
      </trkpt>
      <trkpt lat="38.73276" lon="-0.07493">
        <ele>479</ele>
        <time>2021-01-31 15:48:08</time>
      </trkpt>
      <trkpt lat="38.73273" lon="-0.07492">
        <ele>479</ele>
        <time>2021-01-31 15:48:09</time>
      </trkpt>
      <trkpt lat="38.73271" lon="-0.0749">
        <ele>479</ele>
        <time>2021-01-31 15:48:10</time>
      </trkpt>
      <trkpt lat="38.73268" lon="-0.07488">
        <ele>479</ele>
        <time>2021-01-31 15:48:11</time>
      </trkpt>
      <trkpt lat="38.73266" lon="-0.07486">
        <ele>479</ele>
        <time>2021-01-31 15:48:12</time>
      </trkpt>
      <trkpt lat="38.73264" lon="-0.07484">
        <ele>479.2</ele>
        <time>2021-01-31 15:48:13</time>
      </trkpt>
      <trkpt lat="38.73262" lon="-0.07481">
        <ele>479.2</ele>
        <time>2021-01-31 15:48:14</time>
      </trkpt>
      <trkpt lat="38.73259" lon="-0.07479">
        <ele>479.2</ele>
        <time>2021-01-31 15:48:15</time>
      </trkpt>
      <trkpt lat="38.73257" lon="-0.07476">
        <ele>479.2</ele>
        <time>2021-01-31 15:48:16</time>
      </trkpt>
      <trkpt lat="38.73254" lon="-0.07474">
        <ele>479.2</ele>
        <time>2021-01-31 15:48:17</time>
      </trkpt>
      <trkpt lat="38.73252" lon="-0.0747">
        <ele>479.2</ele>
        <time>2021-01-31 15:48:18</time>
      </trkpt>
      <trkpt lat="38.7325" lon="-0.07467">
        <ele>480</ele>
        <time>2021-01-31 15:48:19</time>
      </trkpt>
      <trkpt lat="38.73249" lon="-0.07464">
        <ele>480</ele>
        <time>2021-01-31 15:48:20</time>
      </trkpt>
      <trkpt lat="38.73247" lon="-0.07461">
        <ele>480</ele>
        <time>2021-01-31 15:48:21</time>
      </trkpt>
      <trkpt lat="38.73245" lon="-0.07458">
        <ele>480</ele>
        <time>2021-01-31 15:48:22</time>
      </trkpt>
      <trkpt lat="38.73244" lon="-0.07455">
        <ele>480</ele>
        <time>2021-01-31 15:48:23</time>
      </trkpt>
      <trkpt lat="38.73242" lon="-0.07452">
        <ele>480.8</ele>
        <time>2021-01-31 15:48:24</time>
      </trkpt>
      <trkpt lat="38.73241" lon="-0.07449">
        <ele>481</ele>
        <time>2021-01-31 15:48:25</time>
      </trkpt>
      <trkpt lat="38.73239" lon="-0.07445">
        <ele>481.2</ele>
        <time>2021-01-31 15:48:26</time>
      </trkpt>
      <trkpt lat="38.73237" lon="-0.07442">
        <ele>481.2</ele>
        <time>2021-01-31 15:48:27</time>
      </trkpt>
      <trkpt lat="38.73235" lon="-0.07439">
        <ele>481.2</ele>
        <time>2021-01-31 15:48:28</time>
      </trkpt>
      <trkpt lat="38.73234" lon="-0.07436">
        <ele>481.2</ele>
        <time>2021-01-31 15:48:29</time>
      </trkpt>
      <trkpt lat="38.73232" lon="-0.07433">
        <ele>482</ele>
        <time>2021-01-31 15:48:30</time>
      </trkpt>
      <trkpt lat="38.7323" lon="-0.07429">
        <ele>482.4</ele>
        <time>2021-01-31 15:48:31</time>
      </trkpt>
      <trkpt lat="38.73228" lon="-0.07427">
        <ele>482.8</ele>
        <time>2021-01-31 15:48:32</time>
      </trkpt>
      <trkpt lat="38.73226" lon="-0.07424">
        <ele>483</ele>
        <time>2021-01-31 15:48:33</time>
      </trkpt>
      <trkpt lat="38.73225" lon="-0.0742">
        <ele>483.6</ele>
        <time>2021-01-31 15:48:34</time>
      </trkpt>
      <trkpt lat="38.73224" lon="-0.07417">
        <ele>484.4</ele>
        <time>2021-01-31 15:48:35</time>
      </trkpt>
      <trkpt lat="38.73222" lon="-0.07413">
        <ele>485</ele>
        <time>2021-01-31 15:48:36</time>
      </trkpt>
      <trkpt lat="38.73221" lon="-0.0741">
        <ele>485.4</ele>
        <time>2021-01-31 15:48:37</time>
      </trkpt>
      <trkpt lat="38.7322" lon="-0.07407">
        <ele>485.4</ele>
        <time>2021-01-31 15:48:38</time>
      </trkpt>
      <trkpt lat="38.73218" lon="-0.07404">
        <ele>485.4</ele>
        <time>2021-01-31 15:48:39</time>
      </trkpt>
      <trkpt lat="38.73216" lon="-0.07401">
        <ele>484.4</ele>
        <time>2021-01-31 15:48:40</time>
      </trkpt>
      <trkpt lat="38.73215" lon="-0.07399">
        <ele>484.4</ele>
        <time>2021-01-31 15:48:41</time>
      </trkpt>
      <trkpt lat="38.73212" lon="-0.07396">
        <ele>484.4</ele>
        <time>2021-01-31 15:48:42</time>
      </trkpt>
      <trkpt lat="38.73209" lon="-0.07396">
        <ele>484.4</ele>
        <time>2021-01-31 15:48:43</time>
      </trkpt>
      <trkpt lat="38.73206" lon="-0.07395">
        <ele>484.6</ele>
        <time>2021-01-31 15:48:44</time>
      </trkpt>
      <trkpt lat="38.73203" lon="-0.07397">
        <ele>484.6</ele>
        <time>2021-01-31 15:48:45</time>
      </trkpt>
      <trkpt lat="38.73201" lon="-0.07397">
        <ele>484.6</ele>
        <time>2021-01-31 15:48:46</time>
      </trkpt>
      <trkpt lat="38.73199" lon="-0.07399">
        <ele>484.6</ele>
        <time>2021-01-31 15:48:47</time>
      </trkpt>
      <trkpt lat="38.73197" lon="-0.074">
        <ele>484.6</ele>
        <time>2021-01-31 15:48:48</time>
      </trkpt>
      <trkpt lat="38.73195" lon="-0.07402">
        <ele>485.6</ele>
        <time>2021-01-31 15:48:49</time>
      </trkpt>
      <trkpt lat="38.73193" lon="-0.07405">
        <ele>486.2</ele>
        <time>2021-01-31 15:48:50</time>
      </trkpt>
      <trkpt lat="38.73191" lon="-0.07407">
        <ele>486.2</ele>
        <time>2021-01-31 15:48:51</time>
      </trkpt>
      <trkpt lat="38.73189" lon="-0.07409">
        <ele>486.2</ele>
        <time>2021-01-31 15:48:52</time>
      </trkpt>
      <trkpt lat="38.73187" lon="-0.07411">
        <ele>486.2</ele>
        <time>2021-01-31 15:48:53</time>
      </trkpt>
      <trkpt lat="38.73185" lon="-0.07414">
        <ele>486.2</ele>
        <time>2021-01-31 15:48:54</time>
      </trkpt>
      <trkpt lat="38.73183" lon="-0.07415">
        <ele>487.2</ele>
        <time>2021-01-31 15:48:55</time>
      </trkpt>
      <trkpt lat="38.73181" lon="-0.07417">
        <ele>487.2</ele>
        <time>2021-01-31 15:48:56</time>
      </trkpt>
      <trkpt lat="38.73178" lon="-0.07419">
        <ele>487.2</ele>
        <time>2021-01-31 15:48:57</time>
      </trkpt>
      <trkpt lat="38.73175" lon="-0.07421">
        <ele>487.2</ele>
        <time>2021-01-31 15:48:58</time>
      </trkpt>
      <trkpt lat="38.73172" lon="-0.07423">
        <ele>486.2</ele>
        <time>2021-01-31 15:48:59</time>
      </trkpt>
      <trkpt lat="38.7317" lon="-0.07424">
        <ele>485.2</ele>
        <time>2021-01-31 15:49:00</time>
      </trkpt>
      <trkpt lat="38.73167" lon="-0.07426">
        <ele>485.2</ele>
        <time>2021-01-31 15:49:01</time>
      </trkpt>
      <trkpt lat="38.73164" lon="-0.07428">
        <ele>485.2</ele>
        <time>2021-01-31 15:49:02</time>
      </trkpt>
      <trkpt lat="38.73161" lon="-0.07429">
        <ele>486.2</ele>
        <time>2021-01-31 15:49:03</time>
      </trkpt>
      <trkpt lat="38.73158" lon="-0.07431">
        <ele>487.2</ele>
        <time>2021-01-31 15:49:04</time>
      </trkpt>
      <trkpt lat="38.73155" lon="-0.07432">
        <ele>488</ele>
        <time>2021-01-31 15:49:05</time>
      </trkpt>
      <trkpt lat="38.73152" lon="-0.07433">
        <ele>488</ele>
        <time>2021-01-31 15:49:06</time>
      </trkpt>
      <trkpt lat="38.73149" lon="-0.07435">
        <ele>488</ele>
        <time>2021-01-31 15:49:07</time>
      </trkpt>
      <trkpt lat="38.73146" lon="-0.07436">
        <ele>487</ele>
        <time>2021-01-31 15:49:08</time>
      </trkpt>
      <trkpt lat="38.73142" lon="-0.07437">
        <ele>486.6</ele>
        <time>2021-01-31 15:49:09</time>
      </trkpt>
      <trkpt lat="38.73139" lon="-0.07439">
        <ele>486.6</ele>
        <time>2021-01-31 15:49:10</time>
      </trkpt>
      <trkpt lat="38.73136" lon="-0.0744">
        <ele>486.6</ele>
        <time>2021-01-31 15:49:11</time>
      </trkpt>
      <trkpt lat="38.73133" lon="-0.07442">
        <ele>487</ele>
        <time>2021-01-31 15:49:12</time>
      </trkpt>
      <trkpt lat="38.7313" lon="-0.07444">
        <ele>487.2</ele>
        <time>2021-01-31 15:49:13</time>
      </trkpt>
      <trkpt lat="38.73127" lon="-0.07445">
        <ele>487.2</ele>
        <time>2021-01-31 15:49:14</time>
      </trkpt>
      <trkpt lat="38.73124" lon="-0.07447">
        <ele>487.2</ele>
        <time>2021-01-31 15:49:15</time>
      </trkpt>
      <trkpt lat="38.73121" lon="-0.07449">
        <ele>487.2</ele>
        <time>2021-01-31 15:49:16</time>
      </trkpt>
      <trkpt lat="38.73119" lon="-0.07451">
        <ele>487.2</ele>
        <time>2021-01-31 15:49:17</time>
      </trkpt>
      <trkpt lat="38.73117" lon="-0.07453">
        <ele>487.2</ele>
        <time>2021-01-31 15:49:18</time>
      </trkpt>
      <trkpt lat="38.73115" lon="-0.07455">
        <ele>488.2</ele>
        <time>2021-01-31 15:49:19</time>
      </trkpt>
      <trkpt lat="38.73114" lon="-0.07458">
        <ele>488.6</ele>
        <time>2021-01-31 15:49:20</time>
      </trkpt>
      <trkpt lat="38.73112" lon="-0.07462">
        <ele>489.2</ele>
        <time>2021-01-31 15:49:21</time>
      </trkpt>
      <trkpt lat="38.73111" lon="-0.07465">
        <ele>489.2</ele>
        <time>2021-01-31 15:49:22</time>
      </trkpt>
      <trkpt lat="38.7311" lon="-0.07468">
        <ele>489.2</ele>
        <time>2021-01-31 15:49:23</time>
      </trkpt>
      <trkpt lat="38.73111" lon="-0.07473">
        <ele>489.2</ele>
        <time>2021-01-31 15:49:24</time>
      </trkpt>
      <trkpt lat="38.73111" lon="-0.07478">
        <ele>489</ele>
        <time>2021-01-31 15:49:25</time>
      </trkpt>
      <trkpt lat="38.73112" lon="-0.07482">
        <ele>489</ele>
        <time>2021-01-31 15:49:26</time>
      </trkpt>
      <trkpt lat="38.73114" lon="-0.07486">
        <ele>489</ele>
        <time>2021-01-31 15:49:27</time>
      </trkpt>
      <trkpt lat="38.73116" lon="-0.07489">
        <ele>489</ele>
        <time>2021-01-31 15:49:28</time>
      </trkpt>
      <trkpt lat="38.73118" lon="-0.07492">
        <ele>489</ele>
        <time>2021-01-31 15:49:29</time>
      </trkpt>
      <trkpt lat="38.7312" lon="-0.07495">
        <ele>489</ele>
        <time>2021-01-31 15:49:30</time>
      </trkpt>
      <trkpt lat="38.73122" lon="-0.07497">
        <ele>489.2</ele>
        <time>2021-01-31 15:49:31</time>
      </trkpt>
      <trkpt lat="38.73124" lon="-0.075">
        <ele>489.8</ele>
        <time>2021-01-31 15:49:32</time>
      </trkpt>
      <trkpt lat="38.73126" lon="-0.07503">
        <ele>490.8</ele>
        <time>2021-01-31 15:49:33</time>
      </trkpt>
      <trkpt lat="38.73127" lon="-0.07506">
        <ele>491.8</ele>
        <time>2021-01-31 15:49:34</time>
      </trkpt>
      <trkpt lat="38.73129" lon="-0.0751">
        <ele>491.8</ele>
        <time>2021-01-31 15:49:35</time>
      </trkpt>
      <trkpt lat="38.7313" lon="-0.07514">
        <ele>491.8</ele>
        <time>2021-01-31 15:49:36</time>
      </trkpt>
      <trkpt lat="38.73131" lon="-0.07519">
        <ele>491.8</ele>
        <time>2021-01-31 15:49:37</time>
      </trkpt>
      <trkpt lat="38.73132" lon="-0.07525">
        <ele>491.8</ele>
        <time>2021-01-31 15:49:38</time>
      </trkpt>
      <trkpt lat="38.73131" lon="-0.07529">
        <ele>492.4</ele>
        <time>2021-01-31 15:49:39</time>
      </trkpt>
      <trkpt lat="38.7313" lon="-0.07533">
        <ele>492.6</ele>
        <time>2021-01-31 15:49:40</time>
      </trkpt>
      <trkpt lat="38.73128" lon="-0.07537">
        <ele>493</ele>
        <time>2021-01-31 15:49:41</time>
      </trkpt>
      <trkpt lat="38.73126" lon="-0.07541">
        <ele>493.2</ele>
        <time>2021-01-31 15:49:42</time>
      </trkpt>
      <trkpt lat="38.73123" lon="-0.07544">
        <ele>493.8</ele>
        <time>2021-01-31 15:49:43</time>
      </trkpt>
      <trkpt lat="38.73121" lon="-0.07546">
        <ele>493.8</ele>
        <time>2021-01-31 15:49:44</time>
      </trkpt>
      <trkpt lat="38.73118" lon="-0.07549">
        <ele>493.8</ele>
        <time>2021-01-31 15:49:45</time>
      </trkpt>
      <trkpt lat="38.73115" lon="-0.07552">
        <ele>493.8</ele>
        <time>2021-01-31 15:49:46</time>
      </trkpt>
      <trkpt lat="38.73112" lon="-0.07554">
        <ele>494.2</ele>
        <time>2021-01-31 15:49:47</time>
      </trkpt>
      <trkpt lat="38.73109" lon="-0.07557">
        <ele>494.4</ele>
        <time>2021-01-31 15:49:48</time>
      </trkpt>
      <trkpt lat="38.73106" lon="-0.0756">
        <ele>494.6</ele>
        <time>2021-01-31 15:49:49</time>
      </trkpt>
      <trkpt lat="38.73104" lon="-0.07562">
        <ele>494.8</ele>
        <time>2021-01-31 15:49:50</time>
      </trkpt>
      <trkpt lat="38.73102" lon="-0.07565">
        <ele>494.8</ele>
        <time>2021-01-31 15:49:51</time>
      </trkpt>
      <trkpt lat="38.731" lon="-0.07568">
        <ele>494.8</ele>
        <time>2021-01-31 15:49:52</time>
      </trkpt>
      <trkpt lat="38.731" lon="-0.07569">
        <ele>494.8</ele>
        <time>2021-01-31 15:49:53</time>
      </trkpt>
      <trkpt lat="38.73099" lon="-0.07572">
        <ele>495.4</ele>
        <time>2021-01-31 15:49:54</time>
      </trkpt>
      <trkpt lat="38.73098" lon="-0.07575">
        <ele>495.8</ele>
        <time>2021-01-31 15:49:55</time>
      </trkpt>
      <trkpt lat="38.73097" lon="-0.07578">
        <ele>495.8</ele>
        <time>2021-01-31 15:49:56</time>
      </trkpt>
      <trkpt lat="38.73097" lon="-0.07582">
        <ele>495.8</ele>
        <time>2021-01-31 15:49:57</time>
      </trkpt>
      <trkpt lat="38.73097" lon="-0.07586">
        <ele>495.8</ele>
        <time>2021-01-31 15:49:58</time>
      </trkpt>
      <trkpt lat="38.73097" lon="-0.0759">
        <ele>495.8</ele>
        <time>2021-01-31 15:49:59</time>
      </trkpt>
      <trkpt lat="38.73096" lon="-0.07594">
        <ele>496.8</ele>
        <time>2021-01-31 15:50:00</time>
      </trkpt>
      <trkpt lat="38.73096" lon="-0.07598">
        <ele>496.8</ele>
        <time>2021-01-31 15:50:01</time>
      </trkpt>
      <trkpt lat="38.73096" lon="-0.07601">
        <ele>496.8</ele>
        <time>2021-01-31 15:50:02</time>
      </trkpt>
      <trkpt lat="38.73095" lon="-0.07605">
        <ele>496.8</ele>
        <time>2021-01-31 15:50:03</time>
      </trkpt>
      <trkpt lat="38.73094" lon="-0.07608">
        <ele>496.8</ele>
        <time>2021-01-31 15:50:04</time>
      </trkpt>
      <trkpt lat="38.73094" lon="-0.07612">
        <ele>497.4</ele>
        <time>2021-01-31 15:50:05</time>
      </trkpt>
      <trkpt lat="38.73093" lon="-0.07615">
        <ele>497.4</ele>
        <time>2021-01-31 15:50:06</time>
      </trkpt>
      <trkpt lat="38.73092" lon="-0.07619">
        <ele>497.4</ele>
        <time>2021-01-31 15:50:07</time>
      </trkpt>
      <trkpt lat="38.73091" lon="-0.07622">
        <ele>497.4</ele>
        <time>2021-01-31 15:50:08</time>
      </trkpt>
      <trkpt lat="38.7309" lon="-0.07625">
        <ele>497.4</ele>
        <time>2021-01-31 15:50:09</time>
      </trkpt>
      <trkpt lat="38.73089" lon="-0.07629">
        <ele>497.4</ele>
        <time>2021-01-31 15:50:10</time>
      </trkpt>
      <trkpt lat="38.73088" lon="-0.07633">
        <ele>497.6</ele>
        <time>2021-01-31 15:50:11</time>
      </trkpt>
      <trkpt lat="38.73087" lon="-0.07636">
        <ele>497.8</ele>
        <time>2021-01-31 15:50:12</time>
      </trkpt>
      <trkpt lat="38.73087" lon="-0.0764">
        <ele>497.8</ele>
        <time>2021-01-31 15:50:13</time>
      </trkpt>
      <trkpt lat="38.73088" lon="-0.07644">
        <ele>497.8</ele>
        <time>2021-01-31 15:50:14</time>
      </trkpt>
      <trkpt lat="38.73088" lon="-0.07647">
        <ele>497.8</ele>
        <time>2021-01-31 15:50:15</time>
      </trkpt>
      <trkpt lat="38.73089" lon="-0.07651">
        <ele>498</ele>
        <time>2021-01-31 15:50:16</time>
      </trkpt>
      <trkpt lat="38.7309" lon="-0.07654">
        <ele>498</ele>
        <time>2021-01-31 15:50:17</time>
      </trkpt>
      <trkpt lat="38.7309" lon="-0.07658">
        <ele>498</ele>
        <time>2021-01-31 15:50:18</time>
      </trkpt>
      <trkpt lat="38.73091" lon="-0.07662">
        <ele>498</ele>
        <time>2021-01-31 15:50:19</time>
      </trkpt>
      <trkpt lat="38.73091" lon="-0.07666">
        <ele>499</ele>
        <time>2021-01-31 15:50:20</time>
      </trkpt>
      <trkpt lat="38.73092" lon="-0.07669">
        <ele>499.6</ele>
        <time>2021-01-31 15:50:21</time>
      </trkpt>
      <trkpt lat="38.73093" lon="-0.07673">
        <ele>499.8</ele>
        <time>2021-01-31 15:50:22</time>
      </trkpt>
      <trkpt lat="38.73094" lon="-0.07676">
        <ele>500.4</ele>
        <time>2021-01-31 15:50:23</time>
      </trkpt>
      <trkpt lat="38.73094" lon="-0.0768">
        <ele>500.4</ele>
        <time>2021-01-31 15:50:24</time>
      </trkpt>
      <trkpt lat="38.73095" lon="-0.07683">
        <ele>500.4</ele>
        <time>2021-01-31 15:50:25</time>
      </trkpt>
      <trkpt lat="38.73096" lon="-0.07687">
        <ele>500.4</ele>
        <time>2021-01-31 15:50:26</time>
      </trkpt>
      <trkpt lat="38.73097" lon="-0.0769">
        <ele>500.6</ele>
        <time>2021-01-31 15:50:27</time>
      </trkpt>
      <trkpt lat="38.73098" lon="-0.07694">
        <ele>501.6</ele>
        <time>2021-01-31 15:50:28</time>
      </trkpt>
      <trkpt lat="38.73099" lon="-0.07698">
        <ele>501.6</ele>
        <time>2021-01-31 15:50:29</time>
      </trkpt>
      <trkpt lat="38.731" lon="-0.07702">
        <ele>501.6</ele>
        <time>2021-01-31 15:50:30</time>
      </trkpt>
      <trkpt lat="38.73101" lon="-0.07705">
        <ele>501.4</ele>
        <time>2021-01-31 15:50:31</time>
      </trkpt>
      <trkpt lat="38.73102" lon="-0.07708">
        <ele>501.4</ele>
        <time>2021-01-31 15:50:32</time>
      </trkpt>
      <trkpt lat="38.73103" lon="-0.07711">
        <ele>501.4</ele>
        <time>2021-01-31 15:50:33</time>
      </trkpt>
      <trkpt lat="38.73105" lon="-0.07714">
        <ele>502</ele>
        <time>2021-01-31 15:50:34</time>
      </trkpt>
      <trkpt lat="38.73106" lon="-0.07717">
        <ele>502</ele>
        <time>2021-01-31 15:50:35</time>
      </trkpt>
      <trkpt lat="38.73107" lon="-0.0772">
        <ele>502.6</ele>
        <time>2021-01-31 15:50:36</time>
      </trkpt>
      <trkpt lat="38.73109" lon="-0.07722">
        <ele>502.6</ele>
        <time>2021-01-31 15:50:37</time>
      </trkpt>
      <trkpt lat="38.73111" lon="-0.07725">
        <ele>502.6</ele>
        <time>2021-01-31 15:50:38</time>
      </trkpt>
      <trkpt lat="38.73112" lon="-0.07727">
        <ele>502.6</ele>
        <time>2021-01-31 15:50:39</time>
      </trkpt>
      <trkpt lat="38.73114" lon="-0.07729">
        <ele>503</ele>
        <time>2021-01-31 15:50:40</time>
      </trkpt>
      <trkpt lat="38.73116" lon="-0.07731">
        <ele>503.2</ele>
        <time>2021-01-31 15:50:41</time>
      </trkpt>
      <trkpt lat="38.73118" lon="-0.07733">
        <ele>503.2</ele>
        <time>2021-01-31 15:50:42</time>
      </trkpt>
      <trkpt lat="38.7312" lon="-0.07735">
        <ele>503.2</ele>
        <time>2021-01-31 15:50:43</time>
      </trkpt>
      <trkpt lat="38.73121" lon="-0.07737">
        <ele>503.2</ele>
        <time>2021-01-31 15:50:44</time>
      </trkpt>
      <trkpt lat="38.73123" lon="-0.07739">
        <ele>503.2</ele>
        <time>2021-01-31 15:50:45</time>
      </trkpt>
      <trkpt lat="38.73125" lon="-0.07741">
        <ele>503.8</ele>
        <time>2021-01-31 15:50:46</time>
      </trkpt>
      <trkpt lat="38.73127" lon="-0.07743">
        <ele>504.2</ele>
        <time>2021-01-31 15:50:47</time>
      </trkpt>
      <trkpt lat="38.73129" lon="-0.07745">
        <ele>504.4</ele>
        <time>2021-01-31 15:50:48</time>
      </trkpt>
      <trkpt lat="38.73131" lon="-0.07747">
        <ele>504.4</ele>
        <time>2021-01-31 15:50:49</time>
      </trkpt>
      <trkpt lat="38.73133" lon="-0.0775">
        <ele>504.4</ele>
        <time>2021-01-31 15:50:50</time>
      </trkpt>
      <trkpt lat="38.73135" lon="-0.07753">
        <ele>504.4</ele>
        <time>2021-01-31 15:50:51</time>
      </trkpt>
      <trkpt lat="38.73136" lon="-0.07756">
        <ele>504.4</ele>
        <time>2021-01-31 15:50:52</time>
      </trkpt>
      <trkpt lat="38.73137" lon="-0.07758">
        <ele>504.4</ele>
        <time>2021-01-31 15:50:53</time>
      </trkpt>
      <trkpt lat="38.73138" lon="-0.07761">
        <ele>504.4</ele>
        <time>2021-01-31 15:50:54</time>
      </trkpt>
      <trkpt lat="38.73139" lon="-0.07764">
        <ele>505.4</ele>
        <time>2021-01-31 15:50:55</time>
      </trkpt>
      <trkpt lat="38.73139" lon="-0.07767">
        <ele>505.4</ele>
        <time>2021-01-31 15:50:56</time>
      </trkpt>
      <trkpt lat="38.7314" lon="-0.0777">
        <ele>505.4</ele>
        <time>2021-01-31 15:50:57</time>
      </trkpt>
      <trkpt lat="38.7314" lon="-0.07773">
        <ele>505.4</ele>
        <time>2021-01-31 15:50:58</time>
      </trkpt>
      <trkpt lat="38.73141" lon="-0.07776">
        <ele>505.4</ele>
        <time>2021-01-31 15:50:59</time>
      </trkpt>
      <trkpt lat="38.73141" lon="-0.07778">
        <ele>505.4</ele>
        <time>2021-01-31 15:51:00</time>
      </trkpt>
      <trkpt lat="38.7314" lon="-0.07781">
        <ele>506.4</ele>
        <time>2021-01-31 15:51:01</time>
      </trkpt>
      <trkpt lat="38.73139" lon="-0.07783">
        <ele>506.4</ele>
        <time>2021-01-31 15:51:02</time>
      </trkpt>
      <trkpt lat="38.73139" lon="-0.07786">
        <ele>506.4</ele>
        <time>2021-01-31 15:51:03</time>
      </trkpt>
      <trkpt lat="38.73137" lon="-0.07788">
        <ele>506.4</ele>
        <time>2021-01-31 15:51:04</time>
      </trkpt>
      <trkpt lat="38.73136" lon="-0.0779">
        <ele>507.2</ele>
        <time>2021-01-31 15:51:05</time>
      </trkpt>
      <trkpt lat="38.73134" lon="-0.07791">
        <ele>507.2</ele>
        <time>2021-01-31 15:51:06</time>
      </trkpt>
      <trkpt lat="38.73132" lon="-0.07792">
        <ele>507.2</ele>
        <time>2021-01-31 15:51:07</time>
      </trkpt>
      <trkpt lat="38.73132" lon="-0.07792">
        <ele>507</ele>
        <time>2021-01-31 15:51:08</time>
      </trkpt>
      <trkpt lat="38.73127" lon="-0.07793">
        <ele>507</ele>
        <time>2021-01-31 15:51:09</time>
      </trkpt>
      <trkpt lat="38.73125" lon="-0.07794">
        <ele>507</ele>
        <time>2021-01-31 15:51:10</time>
      </trkpt>
      <trkpt lat="38.73123" lon="-0.07794">
        <ele>507.4</ele>
        <time>2021-01-31 15:51:11</time>
      </trkpt>
      <trkpt lat="38.73121" lon="-0.07794">
        <ele>508</ele>
        <time>2021-01-31 15:51:12</time>
      </trkpt>
      <trkpt lat="38.73118" lon="-0.07794">
        <ele>508</ele>
        <time>2021-01-31 15:51:13</time>
      </trkpt>
      <trkpt lat="38.73116" lon="-0.07793">
        <ele>508</ele>
        <time>2021-01-31 15:51:14</time>
      </trkpt>
      <trkpt lat="38.73114" lon="-0.07793">
        <ele>508</ele>
        <time>2021-01-31 15:51:15</time>
      </trkpt>
      <trkpt lat="38.73112" lon="-0.07792">
        <ele>508</ele>
        <time>2021-01-31 15:51:16</time>
      </trkpt>
      <trkpt lat="38.73111" lon="-0.07791">
        <ele>508</ele>
        <time>2021-01-31 15:51:17</time>
      </trkpt>
      <trkpt lat="38.7311" lon="-0.07789">
        <ele>508.4</ele>
        <time>2021-01-31 15:51:18</time>
      </trkpt>
      <trkpt lat="38.73108" lon="-0.07788">
        <ele>508.6</ele>
        <time>2021-01-31 15:51:19</time>
      </trkpt>
      <trkpt lat="38.73106" lon="-0.07786">
        <ele>508.6</ele>
        <time>2021-01-31 15:51:20</time>
      </trkpt>
      <trkpt lat="38.73104" lon="-0.07785">
        <ele>508.6</ele>
        <time>2021-01-31 15:51:21</time>
      </trkpt>
      <trkpt lat="38.73102" lon="-0.07783">
        <ele>508.4</ele>
        <time>2021-01-31 15:51:22</time>
      </trkpt>
      <trkpt lat="38.731" lon="-0.07782">
        <ele>508.4</ele>
        <time>2021-01-31 15:51:23</time>
      </trkpt>
      <trkpt lat="38.73098" lon="-0.0778">
        <ele>508.4</ele>
        <time>2021-01-31 15:51:24</time>
      </trkpt>
      <trkpt lat="38.73097" lon="-0.07779">
        <ele>508.4</ele>
        <time>2021-01-31 15:51:25</time>
      </trkpt>
      <trkpt lat="38.73095" lon="-0.07778">
        <ele>508.4</ele>
        <time>2021-01-31 15:51:26</time>
      </trkpt>
      <trkpt lat="38.73093" lon="-0.07778">
        <ele>508.8</ele>
        <time>2021-01-31 15:51:27</time>
      </trkpt>
      <trkpt lat="38.73091" lon="-0.07777">
        <ele>509.2</ele>
        <time>2021-01-31 15:51:28</time>
      </trkpt>
      <trkpt lat="38.7309" lon="-0.07774">
        <ele>509.4</ele>
        <time>2021-01-31 15:51:29</time>
      </trkpt>
      <trkpt lat="38.73089" lon="-0.07772">
        <ele>509.4</ele>
        <time>2021-01-31 15:51:30</time>
      </trkpt>
      <trkpt lat="38.73087" lon="-0.0777">
        <ele>509.4</ele>
        <time>2021-01-31 15:51:31</time>
      </trkpt>
      <trkpt lat="38.73086" lon="-0.07767">
        <ele>509.4</ele>
        <time>2021-01-31 15:51:32</time>
      </trkpt>
      <trkpt lat="38.73084" lon="-0.07766">
        <ele>509.4</ele>
        <time>2021-01-31 15:51:33</time>
      </trkpt>
      <trkpt lat="38.73083" lon="-0.07764">
        <ele>510.4</ele>
        <time>2021-01-31 15:51:34</time>
      </trkpt>
      <trkpt lat="38.73081" lon="-0.07762">
        <ele>511.4</ele>
        <time>2021-01-31 15:51:35</time>
      </trkpt>
      <trkpt lat="38.7308" lon="-0.07759">
        <ele>511.4</ele>
        <time>2021-01-31 15:51:36</time>
      </trkpt>
      <trkpt lat="38.73079" lon="-0.07757">
        <ele>511.4</ele>
        <time>2021-01-31 15:51:37</time>
      </trkpt>
      <trkpt lat="38.73077" lon="-0.07755">
        <ele>511.4</ele>
        <time>2021-01-31 15:51:38</time>
      </trkpt>
      <trkpt lat="38.73076" lon="-0.07753">
        <ele>511.4</ele>
        <time>2021-01-31 15:51:39</time>
      </trkpt>
      <trkpt lat="38.73074" lon="-0.07752">
        <ele>512.4</ele>
        <time>2021-01-31 15:51:40</time>
      </trkpt>
      <trkpt lat="38.73073" lon="-0.0775">
        <ele>512.4</ele>
        <time>2021-01-31 15:51:41</time>
      </trkpt>
      <trkpt lat="38.73071" lon="-0.07749">
        <ele>512.4</ele>
        <time>2021-01-31 15:51:42</time>
      </trkpt>
      <trkpt lat="38.7307" lon="-0.07748">
        <ele>512.4</ele>
        <time>2021-01-31 15:51:43</time>
      </trkpt>
      <trkpt lat="38.73068" lon="-0.07746">
        <ele>512.4</ele>
        <time>2021-01-31 15:51:44</time>
      </trkpt>
      <trkpt lat="38.73066" lon="-0.07746">
        <ele>513.2</ele>
        <time>2021-01-31 15:51:45</time>
      </trkpt>
      <trkpt lat="38.73064" lon="-0.07746">
        <ele>513.4</ele>
        <time>2021-01-31 15:51:46</time>
      </trkpt>
      <trkpt lat="38.73062" lon="-0.07744">
        <ele>513.8</ele>
        <time>2021-01-31 15:51:47</time>
      </trkpt>
      <trkpt lat="38.73061" lon="-0.07742">
        <ele>513.8</ele>
        <time>2021-01-31 15:51:48</time>
      </trkpt>
      <trkpt lat="38.7306" lon="-0.0774">
        <ele>513.8</ele>
        <time>2021-01-31 15:51:49</time>
      </trkpt>
      <trkpt lat="38.73057" lon="-0.07739">
        <ele>513.8</ele>
        <time>2021-01-31 15:51:50</time>
      </trkpt>
      <trkpt lat="38.73055" lon="-0.07739">
        <ele>514</ele>
        <time>2021-01-31 15:51:51</time>
      </trkpt>
      <trkpt lat="38.73053" lon="-0.07737">
        <ele>514.8</ele>
        <time>2021-01-31 15:51:52</time>
      </trkpt>
      <trkpt lat="38.73051" lon="-0.07735">
        <ele>514.8</ele>
        <time>2021-01-31 15:51:53</time>
      </trkpt>
      <trkpt lat="38.7305" lon="-0.07732">
        <ele>514.8</ele>
        <time>2021-01-31 15:51:54</time>
      </trkpt>
      <trkpt lat="38.73049" lon="-0.07727">
        <ele>514.8</ele>
        <time>2021-01-31 15:51:55</time>
      </trkpt>
      <trkpt lat="38.73049" lon="-0.07722">
        <ele>514.8</ele>
        <time>2021-01-31 15:51:56</time>
      </trkpt>
      <trkpt lat="38.73048" lon="-0.07719">
        <ele>514.8</ele>
        <time>2021-01-31 15:51:57</time>
      </trkpt>
      <trkpt lat="38.73047" lon="-0.07716">
        <ele>514.8</ele>
        <time>2021-01-31 15:51:58</time>
      </trkpt>
      <trkpt lat="38.73046" lon="-0.07712">
        <ele>514.8</ele>
        <time>2021-01-31 15:51:59</time>
      </trkpt>
      <trkpt lat="38.73045" lon="-0.0771">
        <ele>515.8</ele>
        <time>2021-01-31 15:52:00</time>
      </trkpt>
      <trkpt lat="38.73044" lon="-0.07706">
        <ele>516.8</ele>
        <time>2021-01-31 15:52:01</time>
      </trkpt>
      <trkpt lat="38.73043" lon="-0.07704">
        <ele>517.6</ele>
        <time>2021-01-31 15:52:02</time>
      </trkpt>
      <trkpt lat="38.73042" lon="-0.07701">
        <ele>517.8</ele>
        <time>2021-01-31 15:52:03</time>
      </trkpt>
      <trkpt lat="38.7304" lon="-0.07698">
        <ele>517.8</ele>
        <time>2021-01-31 15:52:04</time>
      </trkpt>
      <trkpt lat="38.73039" lon="-0.07695">
        <ele>517.8</ele>
        <time>2021-01-31 15:52:05</time>
      </trkpt>
      <trkpt lat="38.73038" lon="-0.07692">
        <ele>517.8</ele>
        <time>2021-01-31 15:52:06</time>
      </trkpt>
      <trkpt lat="38.73037" lon="-0.0769">
        <ele>517.8</ele>
        <time>2021-01-31 15:52:07</time>
      </trkpt>
      <trkpt lat="38.73036" lon="-0.07687">
        <ele>517.8</ele>
        <time>2021-01-31 15:52:08</time>
      </trkpt>
      <trkpt lat="38.73035" lon="-0.07684">
        <ele>517.8</ele>
        <time>2021-01-31 15:52:09</time>
      </trkpt>
      <trkpt lat="38.73034" lon="-0.07682">
        <ele>517.6</ele>
        <time>2021-01-31 15:52:10</time>
      </trkpt>
      <trkpt lat="38.73034" lon="-0.0768">
        <ele>517.6</ele>
        <time>2021-01-31 15:52:11</time>
      </trkpt>
      <trkpt lat="38.73033" lon="-0.07678">
        <ele>517.6</ele>
        <time>2021-01-31 15:52:12</time>
      </trkpt>
      <trkpt lat="38.73032" lon="-0.07676">
        <ele>518</ele>
        <time>2021-01-31 15:52:13</time>
      </trkpt>
      <trkpt lat="38.73031" lon="-0.07672">
        <ele>518</ele>
        <time>2021-01-31 15:52:14</time>
      </trkpt>
      <trkpt lat="38.7303" lon="-0.07669">
        <ele>518</ele>
        <time>2021-01-31 15:52:15</time>
      </trkpt>
      <trkpt lat="38.73029" lon="-0.07666">
        <ele>518</ele>
        <time>2021-01-31 15:52:16</time>
      </trkpt>
      <trkpt lat="38.73028" lon="-0.07664">
        <ele>518.4</ele>
        <time>2021-01-31 15:52:17</time>
      </trkpt>
      <trkpt lat="38.73028" lon="-0.07661">
        <ele>518.6</ele>
        <time>2021-01-31 15:52:18</time>
      </trkpt>
      <trkpt lat="38.73027" lon="-0.07658">
        <ele>519.2</ele>
        <time>2021-01-31 15:52:19</time>
      </trkpt>
      <trkpt lat="38.73026" lon="-0.07655">
        <ele>519.2</ele>
        <time>2021-01-31 15:52:20</time>
      </trkpt>
      <trkpt lat="38.73025" lon="-0.07653">
        <ele>519.2</ele>
        <time>2021-01-31 15:52:21</time>
      </trkpt>
      <trkpt lat="38.73024" lon="-0.0765">
        <ele>519.2</ele>
        <time>2021-01-31 15:52:22</time>
      </trkpt>
      <trkpt lat="38.73023" lon="-0.07648">
        <ele>519.8</ele>
        <time>2021-01-31 15:52:23</time>
      </trkpt>
      <trkpt lat="38.73022" lon="-0.07645">
        <ele>520</ele>
        <time>2021-01-31 15:52:24</time>
      </trkpt>
      <trkpt lat="38.73021" lon="-0.07641">
        <ele>520</ele>
        <time>2021-01-31 15:52:25</time>
      </trkpt>
      <trkpt lat="38.7302" lon="-0.07639">
        <ele>520</ele>
        <time>2021-01-31 15:52:26</time>
      </trkpt>
      <trkpt lat="38.73019" lon="-0.07636">
        <ele>520</ele>
        <time>2021-01-31 15:52:27</time>
      </trkpt>
      <trkpt lat="38.73018" lon="-0.07633">
        <ele>520</ele>
        <time>2021-01-31 15:52:28</time>
      </trkpt>
      <trkpt lat="38.73018" lon="-0.07629">
        <ele>520</ele>
        <time>2021-01-31 15:52:29</time>
      </trkpt>
      <trkpt lat="38.73017" lon="-0.07626">
        <ele>520</ele>
        <time>2021-01-31 15:52:30</time>
      </trkpt>
      <trkpt lat="38.73016" lon="-0.07623">
        <ele>520</ele>
        <time>2021-01-31 15:52:31</time>
      </trkpt>
      <trkpt lat="38.73016" lon="-0.07619">
        <ele>521</ele>
        <time>2021-01-31 15:52:32</time>
      </trkpt>
      <trkpt lat="38.73015" lon="-0.07616">
        <ele>521.2</ele>
        <time>2021-01-31 15:52:33</time>
      </trkpt>
      <trkpt lat="38.73015" lon="-0.07613">
        <ele>521.6</ele>
        <time>2021-01-31 15:52:34</time>
      </trkpt>
      <trkpt lat="38.73015" lon="-0.0761">
        <ele>522.2</ele>
        <time>2021-01-31 15:52:35</time>
      </trkpt>
      <trkpt lat="38.73015" lon="-0.07606">
        <ele>522.4</ele>
        <time>2021-01-31 15:52:36</time>
      </trkpt>
      <trkpt lat="38.73015" lon="-0.07603">
        <ele>522.6</ele>
        <time>2021-01-31 15:52:37</time>
      </trkpt>
      <trkpt lat="38.73015" lon="-0.076">
        <ele>523</ele>
        <time>2021-01-31 15:52:38</time>
      </trkpt>
      <trkpt lat="38.73015" lon="-0.07597">
        <ele>523</ele>
        <time>2021-01-31 15:52:39</time>
      </trkpt>
      <trkpt lat="38.73015" lon="-0.07593">
        <ele>523</ele>
        <time>2021-01-31 15:52:40</time>
      </trkpt>
      <trkpt lat="38.73015" lon="-0.0759">
        <ele>523</ele>
        <time>2021-01-31 15:52:41</time>
      </trkpt>
      <trkpt lat="38.73015" lon="-0.07587">
        <ele>524</ele>
        <time>2021-01-31 15:52:42</time>
      </trkpt>
      <trkpt lat="38.73015" lon="-0.07584">
        <ele>524.2</ele>
        <time>2021-01-31 15:52:43</time>
      </trkpt>
      <trkpt lat="38.73015" lon="-0.0758">
        <ele>524.2</ele>
        <time>2021-01-31 15:52:44</time>
      </trkpt>
      <trkpt lat="38.73015" lon="-0.07577">
        <ele>524.2</ele>
        <time>2021-01-31 15:52:45</time>
      </trkpt>
      <trkpt lat="38.73015" lon="-0.07574">
        <ele>524.2</ele>
        <time>2021-01-31 15:52:46</time>
      </trkpt>
      <trkpt lat="38.73015" lon="-0.07571">
        <ele>524.8</ele>
        <time>2021-01-31 15:52:47</time>
      </trkpt>
      <trkpt lat="38.73014" lon="-0.07568">
        <ele>524.8</ele>
        <time>2021-01-31 15:52:48</time>
      </trkpt>
      <trkpt lat="38.73014" lon="-0.07565">
        <ele>524.8</ele>
        <time>2021-01-31 15:52:49</time>
      </trkpt>
      <trkpt lat="38.73013" lon="-0.07562">
        <ele>524.8</ele>
        <time>2021-01-31 15:52:50</time>
      </trkpt>
      <trkpt lat="38.73012" lon="-0.07559">
        <ele>525.8</ele>
        <time>2021-01-31 15:52:51</time>
      </trkpt>
      <trkpt lat="38.73011" lon="-0.07556">
        <ele>525.8</ele>
        <time>2021-01-31 15:52:52</time>
      </trkpt>
      <trkpt lat="38.7301" lon="-0.07553">
        <ele>525.8</ele>
        <time>2021-01-31 15:52:53</time>
      </trkpt>
      <trkpt lat="38.7301" lon="-0.0755">
        <ele>525.8</ele>
        <time>2021-01-31 15:52:54</time>
      </trkpt>
      <trkpt lat="38.73009" lon="-0.07547">
        <ele>526.8</ele>
        <time>2021-01-31 15:52:55</time>
      </trkpt>
      <trkpt lat="38.73008" lon="-0.07544">
        <ele>526.8</ele>
        <time>2021-01-31 15:52:56</time>
      </trkpt>
      <trkpt lat="38.73007" lon="-0.07541">
        <ele>526.8</ele>
        <time>2021-01-31 15:52:57</time>
      </trkpt>
      <trkpt lat="38.73005" lon="-0.07538">
        <ele>526.8</ele>
        <time>2021-01-31 15:52:58</time>
      </trkpt>
      <trkpt lat="38.73004" lon="-0.07536">
        <ele>527.2</ele>
        <time>2021-01-31 15:52:59</time>
      </trkpt>
      <trkpt lat="38.73003" lon="-0.07533">
        <ele>528</ele>
        <time>2021-01-31 15:53:00</time>
      </trkpt>
      <trkpt lat="38.73001" lon="-0.07532">
        <ele>528.2</ele>
        <time>2021-01-31 15:53:01</time>
      </trkpt>
      <trkpt lat="38.73" lon="-0.0753">
        <ele>528.8</ele>
        <time>2021-01-31 15:53:02</time>
      </trkpt>
      <trkpt lat="38.72999" lon="-0.07527">
        <ele>528.8</ele>
        <time>2021-01-31 15:53:03</time>
      </trkpt>
      <trkpt lat="38.72997" lon="-0.07525">
        <ele>529.2</ele>
        <time>2021-01-31 15:53:04</time>
      </trkpt>
      <trkpt lat="38.72996" lon="-0.07523">
        <ele>529.2</ele>
        <time>2021-01-31 15:53:05</time>
      </trkpt>
      <trkpt lat="38.72995" lon="-0.0752">
        <ele>529.2</ele>
        <time>2021-01-31 15:53:06</time>
      </trkpt>
      <trkpt lat="38.72993" lon="-0.07517">
        <ele>529.2</ele>
        <time>2021-01-31 15:53:07</time>
      </trkpt>
      <trkpt lat="38.72992" lon="-0.07515">
        <ele>529.8</ele>
        <time>2021-01-31 15:53:08</time>
      </trkpt>
      <trkpt lat="38.72991" lon="-0.07512">
        <ele>529.8</ele>
        <time>2021-01-31 15:53:09</time>
      </trkpt>
      <trkpt lat="38.72989" lon="-0.07509">
        <ele>529.8</ele>
        <time>2021-01-31 15:53:10</time>
      </trkpt>
      <trkpt lat="38.72987" lon="-0.07507">
        <ele>529.8</ele>
        <time>2021-01-31 15:53:11</time>
      </trkpt>
      <trkpt lat="38.72986" lon="-0.07504">
        <ele>529.8</ele>
        <time>2021-01-31 15:53:12</time>
      </trkpt>
      <trkpt lat="38.72985" lon="-0.07501">
        <ele>530.4</ele>
        <time>2021-01-31 15:53:13</time>
      </trkpt>
      <trkpt lat="38.72984" lon="-0.07498">
        <ele>530.6</ele>
        <time>2021-01-31 15:53:14</time>
      </trkpt>
      <trkpt lat="38.72983" lon="-0.07495">
        <ele>531</ele>
        <time>2021-01-31 15:53:15</time>
      </trkpt>
      <trkpt lat="38.72981" lon="-0.07493">
        <ele>531.2</ele>
        <time>2021-01-31 15:53:16</time>
      </trkpt>
      <trkpt lat="38.7298" lon="-0.07491">
        <ele>531.2</ele>
        <time>2021-01-31 15:53:17</time>
      </trkpt>
      <trkpt lat="38.72978" lon="-0.07488">
        <ele>531.2</ele>
        <time>2021-01-31 15:53:18</time>
      </trkpt>
      <trkpt lat="38.72977" lon="-0.07486">
        <ele>531.2</ele>
        <time>2021-01-31 15:53:19</time>
      </trkpt>
      <trkpt lat="38.72976" lon="-0.07483">
        <ele>532</ele>
        <time>2021-01-31 15:53:20</time>
      </trkpt>
      <trkpt lat="38.72975" lon="-0.0748">
        <ele>532.4</ele>
        <time>2021-01-31 15:53:21</time>
      </trkpt>
      <trkpt lat="38.72974" lon="-0.07477">
        <ele>532.4</ele>
        <time>2021-01-31 15:53:22</time>
      </trkpt>
      <trkpt lat="38.72973" lon="-0.07474">
        <ele>532.4</ele>
        <time>2021-01-31 15:53:23</time>
      </trkpt>
      <trkpt lat="38.72971" lon="-0.07472">
        <ele>532.4</ele>
        <time>2021-01-31 15:53:24</time>
      </trkpt>
      <trkpt lat="38.7297" lon="-0.07469">
        <ele>533.2</ele>
        <time>2021-01-31 15:53:25</time>
      </trkpt>
      <trkpt lat="38.72969" lon="-0.07466">
        <ele>533.2</ele>
        <time>2021-01-31 15:53:26</time>
      </trkpt>
      <trkpt lat="38.72968" lon="-0.07464">
        <ele>533.2</ele>
        <time>2021-01-31 15:53:27</time>
      </trkpt>
      <trkpt lat="38.72967" lon="-0.07461">
        <ele>533.2</ele>
        <time>2021-01-31 15:53:28</time>
      </trkpt>
      <trkpt lat="38.72966" lon="-0.07458">
        <ele>533.8</ele>
        <time>2021-01-31 15:53:29</time>
      </trkpt>
      <trkpt lat="38.72965" lon="-0.07456">
        <ele>533.8</ele>
        <time>2021-01-31 15:53:30</time>
      </trkpt>
      <trkpt lat="38.72963" lon="-0.07454">
        <ele>534.2</ele>
        <time>2021-01-31 15:53:31</time>
      </trkpt>
      <trkpt lat="38.72962" lon="-0.07451">
        <ele>534.6</ele>
        <time>2021-01-31 15:53:32</time>
      </trkpt>
      <trkpt lat="38.72961" lon="-0.07449">
        <ele>534.6</ele>
        <time>2021-01-31 15:53:33</time>
      </trkpt>
      <trkpt lat="38.7296" lon="-0.07446">
        <ele>534.6</ele>
        <time>2021-01-31 15:53:34</time>
      </trkpt>
      <trkpt lat="38.72958" lon="-0.07444">
        <ele>534.6</ele>
        <time>2021-01-31 15:53:35</time>
      </trkpt>
      <trkpt lat="38.72957" lon="-0.07442">
        <ele>535.6</ele>
        <time>2021-01-31 15:53:36</time>
      </trkpt>
      <trkpt lat="38.72956" lon="-0.07439">
        <ele>536</ele>
        <time>2021-01-31 15:53:37</time>
      </trkpt>
      <trkpt lat="38.72955" lon="-0.07437">
        <ele>536.2</ele>
        <time>2021-01-31 15:53:38</time>
      </trkpt>
      <trkpt lat="38.72953" lon="-0.07434">
        <ele>537</ele>
        <time>2021-01-31 15:53:39</time>
      </trkpt>
      <trkpt lat="38.72952" lon="-0.07432">
        <ele>537</ele>
        <time>2021-01-31 15:53:40</time>
      </trkpt>
      <trkpt lat="38.72951" lon="-0.07429">
        <ele>537</ele>
        <time>2021-01-31 15:53:41</time>
      </trkpt>
      <trkpt lat="38.7295" lon="-0.07426">
        <ele>537</ele>
        <time>2021-01-31 15:53:42</time>
      </trkpt>
      <trkpt lat="38.72949" lon="-0.07424">
        <ele>537</ele>
        <time>2021-01-31 15:53:43</time>
      </trkpt>
      <trkpt lat="38.72947" lon="-0.07422">
        <ele>538</ele>
        <time>2021-01-31 15:53:44</time>
      </trkpt>
      <trkpt lat="38.72946" lon="-0.07419">
        <ele>538.2</ele>
        <time>2021-01-31 15:53:45</time>
      </trkpt>
      <trkpt lat="38.72945" lon="-0.07417">
        <ele>538.4</ele>
        <time>2021-01-31 15:53:46</time>
      </trkpt>
      <trkpt lat="38.72944" lon="-0.07415">
        <ele>538.8</ele>
        <time>2021-01-31 15:53:47</time>
      </trkpt>
      <trkpt lat="38.72943" lon="-0.07412">
        <ele>538.8</ele>
        <time>2021-01-31 15:53:48</time>
      </trkpt>
      <trkpt lat="38.72942" lon="-0.0741">
        <ele>538.8</ele>
        <time>2021-01-31 15:53:49</time>
      </trkpt>
      <trkpt lat="38.7294" lon="-0.07407">
        <ele>538.8</ele>
        <time>2021-01-31 15:53:50</time>
      </trkpt>
      <trkpt lat="38.72939" lon="-0.07405">
        <ele>538.8</ele>
        <time>2021-01-31 15:53:51</time>
      </trkpt>
      <trkpt lat="38.72938" lon="-0.07403">
        <ele>539.2</ele>
        <time>2021-01-31 15:53:52</time>
      </trkpt>
      <trkpt lat="38.72937" lon="-0.074">
        <ele>539.2</ele>
        <time>2021-01-31 15:53:53</time>
      </trkpt>
      <trkpt lat="38.72936" lon="-0.07398">
        <ele>539.2</ele>
        <time>2021-01-31 15:53:54</time>
      </trkpt>
      <trkpt lat="38.72935" lon="-0.07396">
        <ele>539.2</ele>
        <time>2021-01-31 15:53:55</time>
      </trkpt>
      <trkpt lat="38.72933" lon="-0.07393">
        <ele>540.2</ele>
        <time>2021-01-31 15:53:56</time>
      </trkpt>
      <trkpt lat="38.72932" lon="-0.07391">
        <ele>540.2</ele>
        <time>2021-01-31 15:53:57</time>
      </trkpt>
      <trkpt lat="38.72931" lon="-0.07389">
        <ele>540.2</ele>
        <time>2021-01-31 15:53:58</time>
      </trkpt>
      <trkpt lat="38.7293" lon="-0.07387">
        <ele>540.2</ele>
        <time>2021-01-31 15:53:59</time>
      </trkpt>
      <trkpt lat="38.72928" lon="-0.07385">
        <ele>540.2</ele>
        <time>2021-01-31 15:54:00</time>
      </trkpt>
      <trkpt lat="38.72927" lon="-0.07383">
        <ele>540.8</ele>
        <time>2021-01-31 15:54:01</time>
      </trkpt>
      <trkpt lat="38.72926" lon="-0.07381">
        <ele>540.8</ele>
        <time>2021-01-31 15:54:02</time>
      </trkpt>
      <trkpt lat="38.72924" lon="-0.07379">
        <ele>540.8</ele>
        <time>2021-01-31 15:54:03</time>
      </trkpt>
      <trkpt lat="38.72923" lon="-0.07377">
        <ele>540.8</ele>
        <time>2021-01-31 15:54:04</time>
      </trkpt>
      <trkpt lat="38.72921" lon="-0.07375">
        <ele>540.8</ele>
        <time>2021-01-31 15:54:05</time>
      </trkpt>
      <trkpt lat="38.7292" lon="-0.07373">
        <ele>541.6</ele>
        <time>2021-01-31 15:54:06</time>
      </trkpt>
      <trkpt lat="38.72919" lon="-0.07371">
        <ele>542</ele>
        <time>2021-01-31 15:54:07</time>
      </trkpt>
      <trkpt lat="38.72917" lon="-0.07369">
        <ele>542.2</ele>
        <time>2021-01-31 15:54:08</time>
      </trkpt>
      <trkpt lat="38.72916" lon="-0.07367">
        <ele>542.6</ele>
        <time>2021-01-31 15:54:09</time>
      </trkpt>
      <trkpt lat="38.72914" lon="-0.07366">
        <ele>543</ele>
        <time>2021-01-31 15:54:10</time>
      </trkpt>
      <trkpt lat="38.72913" lon="-0.07364">
        <ele>543</ele>
        <time>2021-01-31 15:54:11</time>
      </trkpt>
      <trkpt lat="38.72911" lon="-0.07362">
        <ele>543</ele>
        <time>2021-01-31 15:54:12</time>
      </trkpt>
      <trkpt lat="38.7291" lon="-0.0736">
        <ele>543</ele>
        <time>2021-01-31 15:54:13</time>
      </trkpt>
      <trkpt lat="38.72908" lon="-0.07358">
        <ele>543</ele>
        <time>2021-01-31 15:54:14</time>
      </trkpt>
      <trkpt lat="38.72907" lon="-0.07357">
        <ele>543</ele>
        <time>2021-01-31 15:54:15</time>
      </trkpt>
      <trkpt lat="38.72905" lon="-0.07355">
        <ele>543</ele>
        <time>2021-01-31 15:54:16</time>
      </trkpt>
      <trkpt lat="38.72904" lon="-0.07353">
        <ele>543.4</ele>
        <time>2021-01-31 15:54:17</time>
      </trkpt>
      <trkpt lat="38.72902" lon="-0.07352">
        <ele>543.4</ele>
        <time>2021-01-31 15:54:18</time>
      </trkpt>
      <trkpt lat="38.72901" lon="-0.0735">
        <ele>543.4</ele>
        <time>2021-01-31 15:54:19</time>
      </trkpt>
      <trkpt lat="38.72899" lon="-0.07349">
        <ele>543.4</ele>
        <time>2021-01-31 15:54:20</time>
      </trkpt>
      <trkpt lat="38.72897" lon="-0.07347">
        <ele>543</ele>
        <time>2021-01-31 15:54:21</time>
      </trkpt>
      <trkpt lat="38.72895" lon="-0.07346">
        <ele>543</ele>
        <time>2021-01-31 15:54:22</time>
      </trkpt>
      <trkpt lat="38.72894" lon="-0.07345">
        <ele>543</ele>
        <time>2021-01-31 15:54:23</time>
      </trkpt>
      <trkpt lat="38.72892" lon="-0.07344">
        <ele>543.6</ele>
        <time>2021-01-31 15:54:24</time>
      </trkpt>
      <trkpt lat="38.7289" lon="-0.07343">
        <ele>543.8</ele>
        <time>2021-01-31 15:54:25</time>
      </trkpt>
      <trkpt lat="38.72888" lon="-0.07342">
        <ele>544.6</ele>
        <time>2021-01-31 15:54:26</time>
      </trkpt>
      <trkpt lat="38.72886" lon="-0.07342">
        <ele>544.8</ele>
        <time>2021-01-31 15:54:27</time>
      </trkpt>
      <trkpt lat="38.72884" lon="-0.07341">
        <ele>545.4</ele>
        <time>2021-01-31 15:54:28</time>
      </trkpt>
      <trkpt lat="38.72882" lon="-0.0734">
        <ele>545.4</ele>
        <time>2021-01-31 15:54:29</time>
      </trkpt>
      <trkpt lat="38.7288" lon="-0.07338">
        <ele>545.4</ele>
        <time>2021-01-31 15:54:30</time>
      </trkpt>
      <trkpt lat="38.72878" lon="-0.07337">
        <ele>545.4</ele>
        <time>2021-01-31 15:54:31</time>
      </trkpt>
      <trkpt lat="38.72877" lon="-0.07335">
        <ele>546.2</ele>
        <time>2021-01-31 15:54:32</time>
      </trkpt>
      <trkpt lat="38.72875" lon="-0.07334">
        <ele>546.2</ele>
        <time>2021-01-31 15:54:33</time>
      </trkpt>
      <trkpt lat="38.72874" lon="-0.07332">
        <ele>546.2</ele>
        <time>2021-01-31 15:54:34</time>
      </trkpt>
      <trkpt lat="38.72872" lon="-0.0733">
        <ele>546.2</ele>
        <time>2021-01-31 15:54:35</time>
      </trkpt>
      <trkpt lat="38.72871" lon="-0.07327">
        <ele>546.2</ele>
        <time>2021-01-31 15:54:36</time>
      </trkpt>
      <trkpt lat="38.7287" lon="-0.07325">
        <ele>546.2</ele>
        <time>2021-01-31 15:54:37</time>
      </trkpt>
      <trkpt lat="38.72869" lon="-0.07322">
        <ele>547.2</ele>
        <time>2021-01-31 15:54:38</time>
      </trkpt>
      <trkpt lat="38.72869" lon="-0.07319">
        <ele>547.2</ele>
        <time>2021-01-31 15:54:39</time>
      </trkpt>
      <trkpt lat="38.72868" lon="-0.07317">
        <ele>547.2</ele>
        <time>2021-01-31 15:54:40</time>
      </trkpt>
      <trkpt lat="38.72867" lon="-0.07314">
        <ele>547</ele>
        <time>2021-01-31 15:54:41</time>
      </trkpt>
      <trkpt lat="38.72866" lon="-0.07311">
        <ele>547</ele>
        <time>2021-01-31 15:54:42</time>
      </trkpt>
      <trkpt lat="38.72865" lon="-0.07308">
        <ele>547</ele>
        <time>2021-01-31 15:54:43</time>
      </trkpt>
      <trkpt lat="38.72865" lon="-0.07305">
        <ele>547.6</ele>
        <time>2021-01-31 15:54:44</time>
      </trkpt>
      <trkpt lat="38.72864" lon="-0.07302">
        <ele>548</ele>
        <time>2021-01-31 15:54:45</time>
      </trkpt>
      <trkpt lat="38.72863" lon="-0.07299">
        <ele>548</ele>
        <time>2021-01-31 15:54:46</time>
      </trkpt>
      <trkpt lat="38.72863" lon="-0.07296">
        <ele>548</ele>
        <time>2021-01-31 15:54:47</time>
      </trkpt>
      <trkpt lat="38.72862" lon="-0.07294">
        <ele>548</ele>
        <time>2021-01-31 15:54:48</time>
      </trkpt>
      <trkpt lat="38.72861" lon="-0.07291">
        <ele>548.4</ele>
        <time>2021-01-31 15:54:49</time>
      </trkpt>
      <trkpt lat="38.7286" lon="-0.07288">
        <ele>548.6</ele>
        <time>2021-01-31 15:54:50</time>
      </trkpt>
      <trkpt lat="38.7286" lon="-0.07285">
        <ele>548.6</ele>
        <time>2021-01-31 15:54:51</time>
      </trkpt>
      <trkpt lat="38.72859" lon="-0.07283">
        <ele>548.6</ele>
        <time>2021-01-31 15:54:52</time>
      </trkpt>
      <trkpt lat="38.72858" lon="-0.0728">
        <ele>548.6</ele>
        <time>2021-01-31 15:54:53</time>
      </trkpt>
      <trkpt lat="38.72858" lon="-0.07277">
        <ele>548.6</ele>
        <time>2021-01-31 15:54:54</time>
      </trkpt>
      <trkpt lat="38.72857" lon="-0.07274">
        <ele>549.6</ele>
        <time>2021-01-31 15:54:55</time>
      </trkpt>
      <trkpt lat="38.72857" lon="-0.07271">
        <ele>550.2</ele>
        <time>2021-01-31 15:54:56</time>
      </trkpt>
      <trkpt lat="38.72856" lon="-0.07268">
        <ele>550.4</ele>
        <time>2021-01-31 15:54:57</time>
      </trkpt>
      <trkpt lat="38.72855" lon="-0.07266">
        <ele>550.4</ele>
        <time>2021-01-31 15:54:58</time>
      </trkpt>
      <trkpt lat="38.72854" lon="-0.07263">
        <ele>550.4</ele>
        <time>2021-01-31 15:54:59</time>
      </trkpt>
      <trkpt lat="38.72854" lon="-0.0726">
        <ele>550.4</ele>
        <time>2021-01-31 15:55:00</time>
      </trkpt>
      <trkpt lat="38.72853" lon="-0.07258">
        <ele>551.2</ele>
        <time>2021-01-31 15:55:01</time>
      </trkpt>
      <trkpt lat="38.72853" lon="-0.07256">
        <ele>551.6</ele>
        <time>2021-01-31 15:55:02</time>
      </trkpt>
      <trkpt lat="38.72853" lon="-0.07254">
        <ele>552.2</ele>
        <time>2021-01-31 15:55:03</time>
      </trkpt>
      <trkpt lat="38.72852" lon="-0.07251">
        <ele>552.2</ele>
        <time>2021-01-31 15:55:04</time>
      </trkpt>
      <trkpt lat="38.72851" lon="-0.07249">
        <ele>552.2</ele>
        <time>2021-01-31 15:55:05</time>
      </trkpt>
      <trkpt lat="38.72851" lon="-0.07246">
        <ele>552.2</ele>
        <time>2021-01-31 15:55:06</time>
      </trkpt>
      <trkpt lat="38.7285" lon="-0.07243">
        <ele>552.2</ele>
        <time>2021-01-31 15:55:07</time>
      </trkpt>
      <trkpt lat="38.72849" lon="-0.07241">
        <ele>553.2</ele>
        <time>2021-01-31 15:55:08</time>
      </trkpt>
      <trkpt lat="38.72849" lon="-0.07238">
        <ele>553.6</ele>
        <time>2021-01-31 15:55:09</time>
      </trkpt>
      <trkpt lat="38.72848" lon="-0.07236">
        <ele>553.6</ele>
        <time>2021-01-31 15:55:10</time>
      </trkpt>
      <trkpt lat="38.72847" lon="-0.07233">
        <ele>553.6</ele>
        <time>2021-01-31 15:55:11</time>
      </trkpt>
      <trkpt lat="38.72846" lon="-0.07231">
        <ele>553.6</ele>
        <time>2021-01-31 15:55:12</time>
      </trkpt>
      <trkpt lat="38.72845" lon="-0.07229">
        <ele>553.6</ele>
        <time>2021-01-31 15:55:13</time>
      </trkpt>
      <trkpt lat="38.72845" lon="-0.07225">
        <ele>553.8</ele>
        <time>2021-01-31 15:55:14</time>
      </trkpt>
      <trkpt lat="38.72843" lon="-0.07223">
        <ele>553.8</ele>
        <time>2021-01-31 15:55:15</time>
      </trkpt>
      <trkpt lat="38.72842" lon="-0.07221">
        <ele>554.4</ele>
        <time>2021-01-31 15:55:16</time>
      </trkpt>
      <trkpt lat="38.72841" lon="-0.07219">
        <ele>554.4</ele>
        <time>2021-01-31 15:55:17</time>
      </trkpt>
      <trkpt lat="38.72839" lon="-0.07217">
        <ele>554.4</ele>
        <time>2021-01-31 15:55:18</time>
      </trkpt>
      <trkpt lat="38.72838" lon="-0.07215">
        <ele>554.4</ele>
        <time>2021-01-31 15:55:19</time>
      </trkpt>
      <trkpt lat="38.72837" lon="-0.07213">
        <ele>554.8</ele>
        <time>2021-01-31 15:55:20</time>
      </trkpt>
      <trkpt lat="38.72835" lon="-0.07211">
        <ele>555</ele>
        <time>2021-01-31 15:55:21</time>
      </trkpt>
      <trkpt lat="38.72834" lon="-0.07208">
        <ele>555</ele>
        <time>2021-01-31 15:55:22</time>
      </trkpt>
      <trkpt lat="38.72833" lon="-0.07206">
        <ele>555</ele>
        <time>2021-01-31 15:55:23</time>
      </trkpt>
      <trkpt lat="38.72832" lon="-0.07203">
        <ele>555</ele>
        <time>2021-01-31 15:55:24</time>
      </trkpt>
      <trkpt lat="38.72831" lon="-0.072">
        <ele>555.4</ele>
        <time>2021-01-31 15:55:25</time>
      </trkpt>
      <trkpt lat="38.72829" lon="-0.07197">
        <ele>555.6</ele>
        <time>2021-01-31 15:55:26</time>
      </trkpt>
      <trkpt lat="38.72829" lon="-0.07194">
        <ele>556</ele>
        <time>2021-01-31 15:55:27</time>
      </trkpt>
      <trkpt lat="38.72827" lon="-0.07192">
        <ele>556.6</ele>
        <time>2021-01-31 15:55:28</time>
      </trkpt>
      <trkpt lat="38.72826" lon="-0.0719">
        <ele>556.8</ele>
        <time>2021-01-31 15:55:29</time>
      </trkpt>
      <trkpt lat="38.72825" lon="-0.07187">
        <ele>557.2</ele>
        <time>2021-01-31 15:55:30</time>
      </trkpt>
      <trkpt lat="38.72824" lon="-0.07185">
        <ele>557.4</ele>
        <time>2021-01-31 15:55:31</time>
      </trkpt>
      <trkpt lat="38.72822" lon="-0.07183">
        <ele>557.4</ele>
        <time>2021-01-31 15:55:32</time>
      </trkpt>
      <trkpt lat="38.72821" lon="-0.07181">
        <ele>557.4</ele>
        <time>2021-01-31 15:55:33</time>
      </trkpt>
      <trkpt lat="38.7282" lon="-0.07178">
        <ele>557.4</ele>
        <time>2021-01-31 15:55:34</time>
      </trkpt>
      <trkpt lat="38.72819" lon="-0.07176">
        <ele>557.4</ele>
        <time>2021-01-31 15:55:35</time>
      </trkpt>
      <trkpt lat="38.72817" lon="-0.07174">
        <ele>557.4</ele>
        <time>2021-01-31 15:55:36</time>
      </trkpt>
      <trkpt lat="38.72817" lon="-0.07168">
        <ele>557.4</ele>
        <time>2021-01-31 15:55:37</time>
      </trkpt>
      <trkpt lat="38.72815" lon="-0.07166">
        <ele>558.4</ele>
        <time>2021-01-31 15:55:38</time>
      </trkpt>
      <trkpt lat="38.72814" lon="-0.07163">
        <ele>558.4</ele>
        <time>2021-01-31 15:55:39</time>
      </trkpt>
      <trkpt lat="38.72813" lon="-0.0716">
        <ele>558.6</ele>
        <time>2021-01-31 15:55:40</time>
      </trkpt>
      <trkpt lat="38.72812" lon="-0.07158">
        <ele>558.6</ele>
        <time>2021-01-31 15:55:41</time>
      </trkpt>
      <trkpt lat="38.72811" lon="-0.07156">
        <ele>558.6</ele>
        <time>2021-01-31 15:55:42</time>
      </trkpt>
      <trkpt lat="38.72809" lon="-0.07153">
        <ele>558.6</ele>
        <time>2021-01-31 15:55:43</time>
      </trkpt>
      <trkpt lat="38.72808" lon="-0.07151">
        <ele>558.6</ele>
        <time>2021-01-31 15:55:44</time>
      </trkpt>
      <trkpt lat="38.72806" lon="-0.07149">
        <ele>559.4</ele>
        <time>2021-01-31 15:55:45</time>
      </trkpt>
      <trkpt lat="38.72805" lon="-0.07147">
        <ele>559.6</ele>
        <time>2021-01-31 15:55:46</time>
      </trkpt>
      <trkpt lat="38.72803" lon="-0.07145">
        <ele>560.6</ele>
        <time>2021-01-31 15:55:47</time>
      </trkpt>
      <trkpt lat="38.72801" lon="-0.07144">
        <ele>560.6</ele>
        <time>2021-01-31 15:55:48</time>
      </trkpt>
      <trkpt lat="38.728" lon="-0.07142">
        <ele>560.6</ele>
        <time>2021-01-31 15:55:49</time>
      </trkpt>
      <trkpt lat="38.72798" lon="-0.0714">
        <ele>559.8</ele>
        <time>2021-01-31 15:55:50</time>
      </trkpt>
      <trkpt lat="38.72797" lon="-0.07138">
        <ele>559.8</ele>
        <time>2021-01-31 15:55:51</time>
      </trkpt>
      <trkpt lat="38.72795" lon="-0.07136">
        <ele>559.8</ele>
        <time>2021-01-31 15:55:52</time>
      </trkpt>
      <trkpt lat="38.72793" lon="-0.07134">
        <ele>559.8</ele>
        <time>2021-01-31 15:55:53</time>
      </trkpt>
      <trkpt lat="38.72792" lon="-0.07132">
        <ele>559.8</ele>
        <time>2021-01-31 15:55:54</time>
      </trkpt>
      <trkpt lat="38.7279" lon="-0.0713">
        <ele>559.8</ele>
        <time>2021-01-31 15:55:55</time>
      </trkpt>
      <trkpt lat="38.72788" lon="-0.07129">
        <ele>559.8</ele>
        <time>2021-01-31 15:55:56</time>
      </trkpt>
      <trkpt lat="38.72786" lon="-0.07127">
        <ele>560.8</ele>
        <time>2021-01-31 15:55:57</time>
      </trkpt>
      <trkpt lat="38.72785" lon="-0.07123">
        <ele>561</ele>
        <time>2021-01-31 15:55:58</time>
      </trkpt>
      <trkpt lat="38.72784" lon="-0.0712">
        <ele>561</ele>
        <time>2021-01-31 15:55:59</time>
      </trkpt>
      <trkpt lat="38.72782" lon="-0.07118">
        <ele>561</ele>
        <time>2021-01-31 15:56:00</time>
      </trkpt>
      <trkpt lat="38.72781" lon="-0.07116">
        <ele>561</ele>
        <time>2021-01-31 15:56:01</time>
      </trkpt>
      <trkpt lat="38.72779" lon="-0.07113">
        <ele>561.8</ele>
        <time>2021-01-31 15:56:02</time>
      </trkpt>
      <trkpt lat="38.72778" lon="-0.07111">
        <ele>561.8</ele>
        <time>2021-01-31 15:56:03</time>
      </trkpt>
      <trkpt lat="38.72776" lon="-0.07108">
        <ele>561.8</ele>
        <time>2021-01-31 15:56:04</time>
      </trkpt>
      <trkpt lat="38.72775" lon="-0.07106">
        <ele>561.8</ele>
        <time>2021-01-31 15:56:05</time>
      </trkpt>
      <trkpt lat="38.72773" lon="-0.07103">
        <ele>562.4</ele>
        <time>2021-01-31 15:56:06</time>
      </trkpt>
      <trkpt lat="38.72772" lon="-0.07101">
        <ele>562.4</ele>
        <time>2021-01-31 15:56:07</time>
      </trkpt>
      <trkpt lat="38.7277" lon="-0.07098">
        <ele>562.4</ele>
        <time>2021-01-31 15:56:08</time>
      </trkpt>
      <trkpt lat="38.72769" lon="-0.07096">
        <ele>562.4</ele>
        <time>2021-01-31 15:56:09</time>
      </trkpt>
      <trkpt lat="38.72768" lon="-0.07093">
        <ele>562.4</ele>
        <time>2021-01-31 15:56:10</time>
      </trkpt>
      <trkpt lat="38.72766" lon="-0.07091">
        <ele>563.2</ele>
        <time>2021-01-31 15:56:11</time>
      </trkpt>
      <trkpt lat="38.72765" lon="-0.07088">
        <ele>563.8</ele>
        <time>2021-01-31 15:56:12</time>
      </trkpt>
      <trkpt lat="38.72764" lon="-0.07085">
        <ele>564</ele>
        <time>2021-01-31 15:56:13</time>
      </trkpt>
      <trkpt lat="38.72762" lon="-0.07083">
        <ele>564</ele>
        <time>2021-01-31 15:56:14</time>
      </trkpt>
      <trkpt lat="38.72761" lon="-0.0708">
        <ele>564.4</ele>
        <time>2021-01-31 15:56:15</time>
      </trkpt>
      <trkpt lat="38.7276" lon="-0.07077">
        <ele>564.4</ele>
        <time>2021-01-31 15:56:16</time>
      </trkpt>
      <trkpt lat="38.72758" lon="-0.07075">
        <ele>564.6</ele>
        <time>2021-01-31 15:56:17</time>
      </trkpt>
      <trkpt lat="38.72757" lon="-0.07072">
        <ele>564.6</ele>
        <time>2021-01-31 15:56:18</time>
      </trkpt>
      <trkpt lat="38.72756" lon="-0.0707">
        <ele>564.6</ele>
        <time>2021-01-31 15:56:19</time>
      </trkpt>
      <trkpt lat="38.72755" lon="-0.07067">
        <ele>564.6</ele>
        <time>2021-01-31 15:56:20</time>
      </trkpt>
      <trkpt lat="38.72753" lon="-0.07065">
        <ele>565.6</ele>
        <time>2021-01-31 15:56:21</time>
      </trkpt>
      <trkpt lat="38.72752" lon="-0.07063">
        <ele>565.6</ele>
        <time>2021-01-31 15:56:22</time>
      </trkpt>
      <trkpt lat="38.7275" lon="-0.0706">
        <ele>565.6</ele>
        <time>2021-01-31 15:56:23</time>
      </trkpt>
      <trkpt lat="38.72749" lon="-0.07058">
        <ele>565.6</ele>
        <time>2021-01-31 15:56:24</time>
      </trkpt>
      <trkpt lat="38.72747" lon="-0.07055">
        <ele>566</ele>
        <time>2021-01-31 15:56:25</time>
      </trkpt>
      <trkpt lat="38.72746" lon="-0.07053">
        <ele>566.6</ele>
        <time>2021-01-31 15:56:26</time>
      </trkpt>
      <trkpt lat="38.72744" lon="-0.0705">
        <ele>566.8</ele>
        <time>2021-01-31 15:56:27</time>
      </trkpt>
      <trkpt lat="38.72743" lon="-0.07048">
        <ele>566.8</ele>
        <time>2021-01-31 15:56:28</time>
      </trkpt>
      <trkpt lat="38.72742" lon="-0.07045">
        <ele>566.8</ele>
        <time>2021-01-31 15:56:29</time>
      </trkpt>
      <trkpt lat="38.7274" lon="-0.07042">
        <ele>566.8</ele>
        <time>2021-01-31 15:56:30</time>
      </trkpt>
      <trkpt lat="38.72739" lon="-0.0704">
        <ele>566.8</ele>
        <time>2021-01-31 15:56:31</time>
      </trkpt>
      <trkpt lat="38.72737" lon="-0.07037">
        <ele>567</ele>
        <time>2021-01-31 15:56:32</time>
      </trkpt>
      <trkpt lat="38.72736" lon="-0.07035">
        <ele>567.4</ele>
        <time>2021-01-31 15:56:33</time>
      </trkpt>
      <trkpt lat="38.72734" lon="-0.07032">
        <ele>567.6</ele>
        <time>2021-01-31 15:56:34</time>
      </trkpt>
      <trkpt lat="38.72733" lon="-0.0703">
        <ele>567.8</ele>
        <time>2021-01-31 15:56:35</time>
      </trkpt>
      <trkpt lat="38.72731" lon="-0.07028">
        <ele>567.8</ele>
        <time>2021-01-31 15:56:36</time>
      </trkpt>
      <trkpt lat="38.7273" lon="-0.07025">
        <ele>567.8</ele>
        <time>2021-01-31 15:56:37</time>
      </trkpt>
      <trkpt lat="38.72728" lon="-0.07024">
        <ele>567.8</ele>
        <time>2021-01-31 15:56:38</time>
      </trkpt>
      <trkpt lat="38.72726" lon="-0.07022">
        <ele>568.2</ele>
        <time>2021-01-31 15:56:39</time>
      </trkpt>
      <trkpt lat="38.72723" lon="-0.07021">
        <ele>568.2</ele>
        <time>2021-01-31 15:56:40</time>
      </trkpt>
      <trkpt lat="38.72721" lon="-0.07019">
        <ele>568.4</ele>
        <time>2021-01-31 15:56:41</time>
      </trkpt>
      <trkpt lat="38.72719" lon="-0.07018">
        <ele>568.6</ele>
        <time>2021-01-31 15:56:42</time>
      </trkpt>
      <trkpt lat="38.72717" lon="-0.07017">
        <ele>569.6</ele>
        <time>2021-01-31 15:56:43</time>
      </trkpt>
      <trkpt lat="38.72715" lon="-0.07016">
        <ele>570</ele>
        <time>2021-01-31 15:56:44</time>
      </trkpt>
      <trkpt lat="38.72713" lon="-0.07015">
        <ele>570.2</ele>
        <time>2021-01-31 15:56:45</time>
      </trkpt>
      <trkpt lat="38.72711" lon="-0.07014">
        <ele>570.6</ele>
        <time>2021-01-31 15:56:46</time>
      </trkpt>
      <trkpt lat="38.7271" lon="-0.07013">
        <ele>570.6</ele>
        <time>2021-01-31 15:56:47</time>
      </trkpt>
      <trkpt lat="38.72708" lon="-0.07012">
        <ele>570.6</ele>
        <time>2021-01-31 15:56:48</time>
      </trkpt>
      <trkpt lat="38.72706" lon="-0.07012">
        <ele>570.6</ele>
        <time>2021-01-31 15:56:49</time>
      </trkpt>
      <trkpt lat="38.72704" lon="-0.07011">
        <ele>570.6</ele>
        <time>2021-01-31 15:56:50</time>
      </trkpt>
      <trkpt lat="38.72702" lon="-0.07011">
        <ele>571.2</ele>
        <time>2021-01-31 15:56:51</time>
      </trkpt>
      <trkpt lat="38.727" lon="-0.0701">
        <ele>571.4</ele>
        <time>2021-01-31 15:56:52</time>
      </trkpt>
      <trkpt lat="38.72698" lon="-0.07009">
        <ele>572.4</ele>
        <time>2021-01-31 15:56:53</time>
      </trkpt>
      <trkpt lat="38.72696" lon="-0.07009">
        <ele>572.4</ele>
        <time>2021-01-31 15:56:54</time>
      </trkpt>
      <trkpt lat="38.72694" lon="-0.07009">
        <ele>572.6</ele>
        <time>2021-01-31 15:56:55</time>
      </trkpt>
      <trkpt lat="38.72692" lon="-0.07009">
        <ele>572.6</ele>
        <time>2021-01-31 15:56:56</time>
      </trkpt>
      <trkpt lat="38.7269" lon="-0.07009">
        <ele>572.6</ele>
        <time>2021-01-31 15:56:57</time>
      </trkpt>
      <trkpt lat="38.72688" lon="-0.07009">
        <ele>572.6</ele>
        <time>2021-01-31 15:56:58</time>
      </trkpt>
      <trkpt lat="38.72686" lon="-0.07008">
        <ele>573.2</ele>
        <time>2021-01-31 15:56:59</time>
      </trkpt>
      <trkpt lat="38.72684" lon="-0.07008">
        <ele>573.2</ele>
        <time>2021-01-31 15:57:00</time>
      </trkpt>
      <trkpt lat="38.72682" lon="-0.07008">
        <ele>573.2</ele>
        <time>2021-01-31 15:57:01</time>
      </trkpt>
      <trkpt lat="38.7268" lon="-0.07008">
        <ele>573.2</ele>
        <time>2021-01-31 15:57:02</time>
      </trkpt>
      <trkpt lat="38.72678" lon="-0.07008">
        <ele>573.8</ele>
        <time>2021-01-31 15:57:03</time>
      </trkpt>
      <trkpt lat="38.72676" lon="-0.07008">
        <ele>574.4</ele>
        <time>2021-01-31 15:57:04</time>
      </trkpt>
      <trkpt lat="38.72674" lon="-0.07007">
        <ele>574.4</ele>
        <time>2021-01-31 15:57:05</time>
      </trkpt>
      <trkpt lat="38.72672" lon="-0.07007">
        <ele>574.6</ele>
        <time>2021-01-31 15:57:06</time>
      </trkpt>
      <trkpt lat="38.7267" lon="-0.07007">
        <ele>574.6</ele>
        <time>2021-01-31 15:57:07</time>
      </trkpt>
      <trkpt lat="38.72668" lon="-0.07006">
        <ele>574.6</ele>
        <time>2021-01-31 15:57:08</time>
      </trkpt>
      <trkpt lat="38.72667" lon="-0.07005">
        <ele>574.2</ele>
        <time>2021-01-31 15:57:09</time>
      </trkpt>
      <trkpt lat="38.72665" lon="-0.07004">
        <ele>574.2</ele>
        <time>2021-01-31 15:57:10</time>
      </trkpt>
      <trkpt lat="38.72663" lon="-0.07003">
        <ele>574.2</ele>
        <time>2021-01-31 15:57:11</time>
      </trkpt>
      <trkpt lat="38.72661" lon="-0.07002">
        <ele>575.2</ele>
        <time>2021-01-31 15:57:12</time>
      </trkpt>
      <trkpt lat="38.7266" lon="-0.07">
        <ele>575.4</ele>
        <time>2021-01-31 15:57:13</time>
      </trkpt>
      <trkpt lat="38.72658" lon="-0.06998">
        <ele>575.6</ele>
        <time>2021-01-31 15:57:14</time>
      </trkpt>
      <trkpt lat="38.72657" lon="-0.06996">
        <ele>575.8</ele>
        <time>2021-01-31 15:57:15</time>
      </trkpt>
      <trkpt lat="38.72656" lon="-0.06993">
        <ele>575.8</ele>
        <time>2021-01-31 15:57:16</time>
      </trkpt>
      <trkpt lat="38.72655" lon="-0.06991">
        <ele>575.8</ele>
        <time>2021-01-31 15:57:17</time>
      </trkpt>
      <trkpt lat="38.72655" lon="-0.06988">
        <ele>575.8</ele>
        <time>2021-01-31 15:57:18</time>
      </trkpt>
      <trkpt lat="38.72655" lon="-0.06985">
        <ele>575.8</ele>
        <time>2021-01-31 15:57:19</time>
      </trkpt>
      <trkpt lat="38.72655" lon="-0.06982">
        <ele>575.8</ele>
        <time>2021-01-31 15:57:20</time>
      </trkpt>
      <trkpt lat="38.72655" lon="-0.06979">
        <ele>575.8</ele>
        <time>2021-01-31 15:57:21</time>
      </trkpt>
      <trkpt lat="38.72656" lon="-0.06976">
        <ele>576</ele>
        <time>2021-01-31 15:57:22</time>
      </trkpt>
      <trkpt lat="38.72656" lon="-0.06973">
        <ele>576.2</ele>
        <time>2021-01-31 15:57:23</time>
      </trkpt>
      <trkpt lat="38.72657" lon="-0.0697">
        <ele>576.2</ele>
        <time>2021-01-31 15:57:24</time>
      </trkpt>
      <trkpt lat="38.72658" lon="-0.06967">
        <ele>576.2</ele>
        <time>2021-01-31 15:57:25</time>
      </trkpt>
      <trkpt lat="38.72659" lon="-0.06963">
        <ele>575.8</ele>
        <time>2021-01-31 15:57:26</time>
      </trkpt>
      <trkpt lat="38.7266" lon="-0.0696">
        <ele>575.8</ele>
        <time>2021-01-31 15:57:27</time>
      </trkpt>
      <trkpt lat="38.72661" lon="-0.06957">
        <ele>575.8</ele>
        <time>2021-01-31 15:57:28</time>
      </trkpt>
      <trkpt lat="38.72662" lon="-0.06954">
        <ele>575.8</ele>
        <time>2021-01-31 15:57:29</time>
      </trkpt>
      <trkpt lat="38.72664" lon="-0.0695">
        <ele>575.8</ele>
        <time>2021-01-31 15:57:30</time>
      </trkpt>
      <trkpt lat="38.72665" lon="-0.06947">
        <ele>576.2</ele>
        <time>2021-01-31 15:57:31</time>
      </trkpt>
      <trkpt lat="38.72666" lon="-0.06943">
        <ele>576.8</ele>
        <time>2021-01-31 15:57:32</time>
      </trkpt>
      <trkpt lat="38.72668" lon="-0.0694">
        <ele>576.8</ele>
        <time>2021-01-31 15:57:33</time>
      </trkpt>
      <trkpt lat="38.72669" lon="-0.06936">
        <ele>576.8</ele>
        <time>2021-01-31 15:57:34</time>
      </trkpt>
      <trkpt lat="38.7267" lon="-0.06933">
        <ele>576.8</ele>
        <time>2021-01-31 15:57:35</time>
      </trkpt>
      <trkpt lat="38.72671" lon="-0.06929">
        <ele>576.8</ele>
        <time>2021-01-31 15:57:36</time>
      </trkpt>
      <trkpt lat="38.72672" lon="-0.06925">
        <ele>576.8</ele>
        <time>2021-01-31 15:57:37</time>
      </trkpt>
      <trkpt lat="38.72673" lon="-0.06921">
        <ele>577.8</ele>
        <time>2021-01-31 15:57:38</time>
      </trkpt>
      <trkpt lat="38.72673" lon="-0.06917">
        <ele>578.8</ele>
        <time>2021-01-31 15:57:39</time>
      </trkpt>
      <trkpt lat="38.72673" lon="-0.06913">
        <ele>579.4</ele>
        <time>2021-01-31 15:57:40</time>
      </trkpt>
      <trkpt lat="38.72673" lon="-0.06909">
        <ele>579.6</ele>
        <time>2021-01-31 15:57:41</time>
      </trkpt>
      <trkpt lat="38.72672" lon="-0.06905">
        <ele>579.6</ele>
        <time>2021-01-31 15:57:42</time>
      </trkpt>
      <trkpt lat="38.72671" lon="-0.06901">
        <ele>579.6</ele>
        <time>2021-01-31 15:57:43</time>
      </trkpt>
      <trkpt lat="38.7267" lon="-0.06897">
        <ele>579.6</ele>
        <time>2021-01-31 15:57:44</time>
      </trkpt>
      <trkpt lat="38.72669" lon="-0.06893">
        <ele>579.6</ele>
        <time>2021-01-31 15:57:45</time>
      </trkpt>
      <trkpt lat="38.72668" lon="-0.0689">
        <ele>579.6</ele>
        <time>2021-01-31 15:57:46</time>
      </trkpt>
      <trkpt lat="38.72666" lon="-0.06886">
        <ele>580.6</ele>
        <time>2021-01-31 15:57:47</time>
      </trkpt>
      <trkpt lat="38.72665" lon="-0.06882">
        <ele>580.6</ele>
        <time>2021-01-31 15:57:48</time>
      </trkpt>
      <trkpt lat="38.72664" lon="-0.06878">
        <ele>580.6</ele>
        <time>2021-01-31 15:57:49</time>
      </trkpt>
      <trkpt lat="38.72662" lon="-0.06874">
        <ele>580.6</ele>
        <time>2021-01-31 15:57:50</time>
      </trkpt>
      <trkpt lat="38.72661" lon="-0.06871">
        <ele>580.6</ele>
        <time>2021-01-31 15:57:51</time>
      </trkpt>
      <trkpt lat="38.72659" lon="-0.06867">
        <ele>580.6</ele>
        <time>2021-01-31 15:57:52</time>
      </trkpt>
      <trkpt lat="38.72658" lon="-0.06864">
        <ele>581.2</ele>
        <time>2021-01-31 15:57:53</time>
      </trkpt>
      <trkpt lat="38.72656" lon="-0.0686">
        <ele>581.2</ele>
        <time>2021-01-31 15:57:54</time>
      </trkpt>
      <trkpt lat="38.72655" lon="-0.06857">
        <ele>581.2</ele>
        <time>2021-01-31 15:57:55</time>
      </trkpt>
      <trkpt lat="38.72653" lon="-0.06853">
        <ele>581</ele>
        <time>2021-01-31 15:57:56</time>
      </trkpt>
      <trkpt lat="38.72651" lon="-0.0685">
        <ele>580.6</ele>
        <time>2021-01-31 15:57:57</time>
      </trkpt>
      <trkpt lat="38.72649" lon="-0.06847">
        <ele>580.6</ele>
        <time>2021-01-31 15:57:58</time>
      </trkpt>
      <trkpt lat="38.72647" lon="-0.06844">
        <ele>580.6</ele>
        <time>2021-01-31 15:57:59</time>
      </trkpt>
      <trkpt lat="38.72645" lon="-0.06841">
        <ele>580.6</ele>
        <time>2021-01-31 15:58:00</time>
      </trkpt>
      <trkpt lat="38.72643" lon="-0.06838">
        <ele>580.6</ele>
        <time>2021-01-31 15:58:01</time>
      </trkpt>
      <trkpt lat="38.72641" lon="-0.06836">
        <ele>580.6</ele>
        <time>2021-01-31 15:58:02</time>
      </trkpt>
      <trkpt lat="38.72639" lon="-0.06834">
        <ele>580.6</ele>
        <time>2021-01-31 15:58:03</time>
      </trkpt>
      <trkpt lat="38.72637" lon="-0.06832">
        <ele>581.6</ele>
        <time>2021-01-31 15:58:04</time>
      </trkpt>
      <trkpt lat="38.72635" lon="-0.0683">
        <ele>582.6</ele>
        <time>2021-01-31 15:58:05</time>
      </trkpt>
      <trkpt lat="38.72632" lon="-0.06828">
        <ele>583.6</ele>
        <time>2021-01-31 15:58:06</time>
      </trkpt>
      <trkpt lat="38.7263" lon="-0.06826">
        <ele>584</ele>
        <time>2021-01-31 15:58:07</time>
      </trkpt>
      <trkpt lat="38.72628" lon="-0.06825">
        <ele>584</ele>
        <time>2021-01-31 15:58:08</time>
      </trkpt>
      <trkpt lat="38.72625" lon="-0.06823">
        <ele>584</ele>
        <time>2021-01-31 15:58:09</time>
      </trkpt>
      <trkpt lat="38.72622" lon="-0.06822">
        <ele>583</ele>
        <time>2021-01-31 15:58:10</time>
      </trkpt>
      <trkpt lat="38.7262" lon="-0.0682">
        <ele>583</ele>
        <time>2021-01-31 15:58:11</time>
      </trkpt>
      <trkpt lat="38.72617" lon="-0.06819">
        <ele>583</ele>
        <time>2021-01-31 15:58:12</time>
      </trkpt>
      <trkpt lat="38.72614" lon="-0.06817">
        <ele>583.4</ele>
        <time>2021-01-31 15:58:13</time>
      </trkpt>
      <trkpt lat="38.72612" lon="-0.06816">
        <ele>583.8</ele>
        <time>2021-01-31 15:58:14</time>
      </trkpt>
      <trkpt lat="38.72609" lon="-0.06815">
        <ele>583.8</ele>
        <time>2021-01-31 15:58:15</time>
      </trkpt>
      <trkpt lat="38.72606" lon="-0.06814">
        <ele>583.8</ele>
        <time>2021-01-31 15:58:16</time>
      </trkpt>
      <trkpt lat="38.72604" lon="-0.06812">
        <ele>583.8</ele>
        <time>2021-01-31 15:58:17</time>
      </trkpt>
      <trkpt lat="38.72601" lon="-0.06812">
        <ele>583.8</ele>
        <time>2021-01-31 15:58:18</time>
      </trkpt>
      <trkpt lat="38.72598" lon="-0.0681">
        <ele>583.8</ele>
        <time>2021-01-31 15:58:19</time>
      </trkpt>
      <trkpt lat="38.72596" lon="-0.06808">
        <ele>583.8</ele>
        <time>2021-01-31 15:58:20</time>
      </trkpt>
      <trkpt lat="38.72594" lon="-0.06805">
        <ele>583.8</ele>
        <time>2021-01-31 15:58:21</time>
      </trkpt>
      <trkpt lat="38.72591" lon="-0.06802">
        <ele>584.4</ele>
        <time>2021-01-31 15:58:22</time>
      </trkpt>
      <trkpt lat="38.72589" lon="-0.06799">
        <ele>584.6</ele>
        <time>2021-01-31 15:58:23</time>
      </trkpt>
      <trkpt lat="38.72587" lon="-0.06796">
        <ele>584.8</ele>
        <time>2021-01-31 15:58:24</time>
      </trkpt>
      <trkpt lat="38.72585" lon="-0.06793">
        <ele>585</ele>
        <time>2021-01-31 15:58:25</time>
      </trkpt>
      <trkpt lat="38.72583" lon="-0.0679">
        <ele>585.2</ele>
        <time>2021-01-31 15:58:26</time>
      </trkpt>
      <trkpt lat="38.72582" lon="-0.06787">
        <ele>585.6</ele>
        <time>2021-01-31 15:58:27</time>
      </trkpt>
      <trkpt lat="38.7258" lon="-0.06784">
        <ele>586.6</ele>
        <time>2021-01-31 15:58:28</time>
      </trkpt>
      <trkpt lat="38.72578" lon="-0.06781">
        <ele>586.6</ele>
        <time>2021-01-31 15:58:29</time>
      </trkpt>
      <trkpt lat="38.72577" lon="-0.06778">
        <ele>586.6</ele>
        <time>2021-01-31 15:58:30</time>
      </trkpt>
      <trkpt lat="38.72576" lon="-0.06774">
        <ele>586.4</ele>
        <time>2021-01-31 15:58:31</time>
      </trkpt>
      <trkpt lat="38.72575" lon="-0.0677">
        <ele>586.4</ele>
        <time>2021-01-31 15:58:32</time>
      </trkpt>
      <trkpt lat="38.72574" lon="-0.06766">
        <ele>586.4</ele>
        <time>2021-01-31 15:58:33</time>
      </trkpt>
      <trkpt lat="38.72573" lon="-0.06762">
        <ele>587.2</ele>
        <time>2021-01-31 15:58:34</time>
      </trkpt>
      <trkpt lat="38.72573" lon="-0.06758">
        <ele>587.2</ele>
        <time>2021-01-31 15:58:35</time>
      </trkpt>
      <trkpt lat="38.72573" lon="-0.06754">
        <ele>587.2</ele>
        <time>2021-01-31 15:58:36</time>
      </trkpt>
      <trkpt lat="38.72572" lon="-0.0675">
        <ele>587.2</ele>
        <time>2021-01-31 15:58:37</time>
      </trkpt>
      <trkpt lat="38.72572" lon="-0.06746">
        <ele>588.2</ele>
        <time>2021-01-31 15:58:38</time>
      </trkpt>
      <trkpt lat="38.72572" lon="-0.06742">
        <ele>588.2</ele>
        <time>2021-01-31 15:58:39</time>
      </trkpt>
      <trkpt lat="38.72573" lon="-0.06737">
        <ele>588.2</ele>
        <time>2021-01-31 15:58:40</time>
      </trkpt>
      <trkpt lat="38.72573" lon="-0.06733">
        <ele>588.2</ele>
        <time>2021-01-31 15:58:41</time>
      </trkpt>
      <trkpt lat="38.72573" lon="-0.06728">
        <ele>588.2</ele>
        <time>2021-01-31 15:58:42</time>
      </trkpt>
      <trkpt lat="38.72574" lon="-0.06723">
        <ele>588.4</ele>
        <time>2021-01-31 15:58:43</time>
      </trkpt>
      <trkpt lat="38.72574" lon="-0.06718">
        <ele>589</ele>
        <time>2021-01-31 15:58:44</time>
      </trkpt>
      <trkpt lat="38.72574" lon="-0.06713">
        <ele>589</ele>
        <time>2021-01-31 15:58:45</time>
      </trkpt>
      <trkpt lat="38.72575" lon="-0.06708">
        <ele>589</ele>
        <time>2021-01-31 15:58:46</time>
      </trkpt>
      <trkpt lat="38.72575" lon="-0.06703">
        <ele>589</ele>
        <time>2021-01-31 15:58:47</time>
      </trkpt>
      <trkpt lat="38.72575" lon="-0.06697">
        <ele>589.6</ele>
        <time>2021-01-31 15:58:48</time>
      </trkpt>
      <trkpt lat="38.72575" lon="-0.06692">
        <ele>590</ele>
        <time>2021-01-31 15:58:49</time>
      </trkpt>
      <trkpt lat="38.72575" lon="-0.06687">
        <ele>590</ele>
        <time>2021-01-31 15:58:50</time>
      </trkpt>
      <trkpt lat="38.72575" lon="-0.06682">
        <ele>590</ele>
        <time>2021-01-31 15:58:51</time>
      </trkpt>
      <trkpt lat="38.72575" lon="-0.06677">
        <ele>590</ele>
        <time>2021-01-31 15:58:52</time>
      </trkpt>
      <trkpt lat="38.72575" lon="-0.06672">
        <ele>590.4</ele>
        <time>2021-01-31 15:58:53</time>
      </trkpt>
      <trkpt lat="38.72574" lon="-0.06667">
        <ele>590.4</ele>
        <time>2021-01-31 15:58:54</time>
      </trkpt>
      <trkpt lat="38.72573" lon="-0.06662">
        <ele>591</ele>
        <time>2021-01-31 15:58:55</time>
      </trkpt>
      <trkpt lat="38.72573" lon="-0.06657">
        <ele>591.4</ele>
        <time>2021-01-31 15:58:56</time>
      </trkpt>
      <trkpt lat="38.72572" lon="-0.06652">
        <ele>591.4</ele>
        <time>2021-01-31 15:58:57</time>
      </trkpt>
      <trkpt lat="38.72571" lon="-0.06647">
        <ele>591.4</ele>
        <time>2021-01-31 15:58:58</time>
      </trkpt>
      <trkpt lat="38.72569" lon="-0.06643">
        <ele>591.4</ele>
        <time>2021-01-31 15:58:59</time>
      </trkpt>
      <trkpt lat="38.72568" lon="-0.06638">
        <ele>591.4</ele>
        <time>2021-01-31 15:59:00</time>
      </trkpt>
      <trkpt lat="38.72567" lon="-0.06633">
        <ele>592.2</ele>
        <time>2021-01-31 15:59:01</time>
      </trkpt>
      <trkpt lat="38.72566" lon="-0.06629">
        <ele>592.2</ele>
        <time>2021-01-31 15:59:02</time>
      </trkpt>
      <trkpt lat="38.72564" lon="-0.06624">
        <ele>592.2</ele>
        <time>2021-01-31 15:59:03</time>
      </trkpt>
      <trkpt lat="38.72563" lon="-0.0662">
        <ele>592</ele>
        <time>2021-01-31 15:59:04</time>
      </trkpt>
      <trkpt lat="38.72562" lon="-0.06615">
        <ele>592</ele>
        <time>2021-01-31 15:59:05</time>
      </trkpt>
      <trkpt lat="38.7256" lon="-0.06611">
        <ele>592</ele>
        <time>2021-01-31 15:59:06</time>
      </trkpt>
      <trkpt lat="38.72559" lon="-0.06606">
        <ele>592.8</ele>
        <time>2021-01-31 15:59:07</time>
      </trkpt>
      <trkpt lat="38.72557" lon="-0.06602">
        <ele>592.8</ele>
        <time>2021-01-31 15:59:08</time>
      </trkpt>
      <trkpt lat="38.72556" lon="-0.06598">
        <ele>592.8</ele>
        <time>2021-01-31 15:59:09</time>
      </trkpt>
      <trkpt lat="38.72554" lon="-0.06593">
        <ele>592.8</ele>
        <time>2021-01-31 15:59:10</time>
      </trkpt>
      <trkpt lat="38.72552" lon="-0.06589">
        <ele>593.6</ele>
        <time>2021-01-31 15:59:11</time>
      </trkpt>
      <trkpt lat="38.72551" lon="-0.06585">
        <ele>593.8</ele>
        <time>2021-01-31 15:59:12</time>
      </trkpt>
      <trkpt lat="38.72549" lon="-0.06581">
        <ele>593.8</ele>
        <time>2021-01-31 15:59:13</time>
      </trkpt>
      <trkpt lat="38.72548" lon="-0.06577">
        <ele>593.8</ele>
        <time>2021-01-31 15:59:14</time>
      </trkpt>
      <trkpt lat="38.72546" lon="-0.06573">
        <ele>593.8</ele>
        <time>2021-01-31 15:59:15</time>
      </trkpt>
      <trkpt lat="38.72544" lon="-0.06569">
        <ele>594.2</ele>
        <time>2021-01-31 15:59:16</time>
      </trkpt>
      <trkpt lat="38.72543" lon="-0.06565">
        <ele>594.4</ele>
        <time>2021-01-31 15:59:17</time>
      </trkpt>
      <trkpt lat="38.72541" lon="-0.06561">
        <ele>594.6</ele>
        <time>2021-01-31 15:59:18</time>
      </trkpt>
      <trkpt lat="38.7254" lon="-0.06557">
        <ele>595.2</ele>
        <time>2021-01-31 15:59:19</time>
      </trkpt>
      <trkpt lat="38.72538" lon="-0.06553">
        <ele>595.4</ele>
        <time>2021-01-31 15:59:20</time>
      </trkpt>
      <trkpt lat="38.72536" lon="-0.0655">
        <ele>595.6</ele>
        <time>2021-01-31 15:59:21</time>
      </trkpt>
      <trkpt lat="38.72534" lon="-0.06546">
        <ele>595.6</ele>
        <time>2021-01-31 15:59:22</time>
      </trkpt>
      <trkpt lat="38.72532" lon="-0.06543">
        <ele>595.6</ele>
        <time>2021-01-31 15:59:23</time>
      </trkpt>
      <trkpt lat="38.7253" lon="-0.0654">
        <ele>595.6</ele>
        <time>2021-01-31 15:59:24</time>
      </trkpt>
      <trkpt lat="38.72528" lon="-0.06536">
        <ele>595.6</ele>
        <time>2021-01-31 15:59:25</time>
      </trkpt>
      <trkpt lat="38.72526" lon="-0.06534">
        <ele>596.6</ele>
        <time>2021-01-31 15:59:26</time>
      </trkpt>
      <trkpt lat="38.72524" lon="-0.06531">
        <ele>597.6</ele>
        <time>2021-01-31 15:59:27</time>
      </trkpt>
      <trkpt lat="38.72521" lon="-0.06529">
        <ele>597.8</ele>
        <time>2021-01-31 15:59:28</time>
      </trkpt>
      <trkpt lat="38.72519" lon="-0.06527">
        <ele>597.8</ele>
        <time>2021-01-31 15:59:29</time>
      </trkpt>
      <trkpt lat="38.72517" lon="-0.06525">
        <ele>597.8</ele>
        <time>2021-01-31 15:59:30</time>
      </trkpt>
      <trkpt lat="38.72515" lon="-0.06523">
        <ele>597.8</ele>
        <time>2021-01-31 15:59:31</time>
      </trkpt>
      <trkpt lat="38.72512" lon="-0.06521">
        <ele>597.8</ele>
        <time>2021-01-31 15:59:32</time>
      </trkpt>
      <trkpt lat="38.7251" lon="-0.06518">
        <ele>598.8</ele>
        <time>2021-01-31 15:59:33</time>
      </trkpt>
      <trkpt lat="38.72508" lon="-0.06516">
        <ele>599.2</ele>
        <time>2021-01-31 15:59:34</time>
      </trkpt>
      <trkpt lat="38.72506" lon="-0.06514">
        <ele>599.6</ele>
        <time>2021-01-31 15:59:35</time>
      </trkpt>
      <trkpt lat="38.72503" lon="-0.06512">
        <ele>599.6</ele>
        <time>2021-01-31 15:59:36</time>
      </trkpt>
      <trkpt lat="38.72501" lon="-0.0651">
        <ele>599.6</ele>
        <time>2021-01-31 15:59:37</time>
      </trkpt>
      <trkpt lat="38.72499" lon="-0.06508">
        <ele>599.6</ele>
        <time>2021-01-31 15:59:38</time>
      </trkpt>
      <trkpt lat="38.72497" lon="-0.06505">
        <ele>599.6</ele>
        <time>2021-01-31 15:59:39</time>
      </trkpt>
      <trkpt lat="38.72495" lon="-0.06503">
        <ele>600.6</ele>
        <time>2021-01-31 15:59:40</time>
      </trkpt>
      <trkpt lat="38.72493" lon="-0.06501">
        <ele>600.6</ele>
        <time>2021-01-31 15:59:41</time>
      </trkpt>
      <trkpt lat="38.72491" lon="-0.06499">
        <ele>600.6</ele>
        <time>2021-01-31 15:59:42</time>
      </trkpt>
      <trkpt lat="38.72489" lon="-0.06497">
        <ele>600.6</ele>
        <time>2021-01-31 15:59:43</time>
      </trkpt>
      <trkpt lat="38.72487" lon="-0.06495">
        <ele>601.6</ele>
        <time>2021-01-31 15:59:44</time>
      </trkpt>
      <trkpt lat="38.72485" lon="-0.06492">
        <ele>601.8</ele>
        <time>2021-01-31 15:59:45</time>
      </trkpt>
      <trkpt lat="38.72483" lon="-0.0649">
        <ele>601.8</ele>
        <time>2021-01-31 15:59:46</time>
      </trkpt>
      <trkpt lat="38.72481" lon="-0.06487">
        <ele>601.8</ele>
        <time>2021-01-31 15:59:47</time>
      </trkpt>
      <trkpt lat="38.72479" lon="-0.06485">
        <ele>601.8</ele>
        <time>2021-01-31 15:59:48</time>
      </trkpt>
      <trkpt lat="38.72477" lon="-0.06482">
        <ele>601.8</ele>
        <time>2021-01-31 15:59:49</time>
      </trkpt>
      <trkpt lat="38.72475" lon="-0.0648">
        <ele>601.6</ele>
        <time>2021-01-31 15:59:50</time>
      </trkpt>
      <trkpt lat="38.72473" lon="-0.06477">
        <ele>601.6</ele>
        <time>2021-01-31 15:59:51</time>
      </trkpt>
      <trkpt lat="38.72471" lon="-0.06474">
        <ele>601.6</ele>
        <time>2021-01-31 15:59:52</time>
      </trkpt>
      <trkpt lat="38.72469" lon="-0.06471">
        <ele>601.6</ele>
        <time>2021-01-31 15:59:53</time>
      </trkpt>
      <trkpt lat="38.72467" lon="-0.06469">
        <ele>602.2</ele>
        <time>2021-01-31 15:59:54</time>
      </trkpt>
      <trkpt lat="38.72465" lon="-0.06466">
        <ele>602.2</ele>
        <time>2021-01-31 15:59:55</time>
      </trkpt>
      <trkpt lat="38.72462" lon="-0.06464">
        <ele>602.2</ele>
        <time>2021-01-31 15:59:56</time>
      </trkpt>
      <trkpt lat="38.7246" lon="-0.06461">
        <ele>602.2</ele>
        <time>2021-01-31 15:59:57</time>
      </trkpt>
      <trkpt lat="38.72458" lon="-0.06457">
        <ele>602.2</ele>
        <time>2021-01-31 15:59:58</time>
      </trkpt>
      <trkpt lat="38.72456" lon="-0.06454">
        <ele>602.6</ele>
        <time>2021-01-31 15:59:59</time>
      </trkpt>
      <trkpt lat="38.72453" lon="-0.0645">
        <ele>603</ele>
        <time>2021-01-31 16:00:00</time>
      </trkpt>
      <trkpt lat="38.72451" lon="-0.06446">
        <ele>603</ele>
        <time>2021-01-31 16:00:01</time>
      </trkpt>
      <trkpt lat="38.7245" lon="-0.06441">
        <ele>603</ele>
        <time>2021-01-31 16:00:02</time>
      </trkpt>
      <trkpt lat="38.72448" lon="-0.06437">
        <ele>602.6</ele>
        <time>2021-01-31 16:00:03</time>
      </trkpt>
      <trkpt lat="38.72446" lon="-0.06433">
        <ele>602.6</ele>
        <time>2021-01-31 16:00:04</time>
      </trkpt>
      <trkpt lat="38.72446" lon="-0.06428">
        <ele>602.6</ele>
        <time>2021-01-31 16:00:05</time>
      </trkpt>
      <trkpt lat="38.72445" lon="-0.06424">
        <ele>602.6</ele>
        <time>2021-01-31 16:00:06</time>
      </trkpt>
      <trkpt lat="38.72445" lon="-0.06419">
        <ele>602.6</ele>
        <time>2021-01-31 16:00:07</time>
      </trkpt>
      <trkpt lat="38.72445" lon="-0.06415">
        <ele>603</ele>
        <time>2021-01-31 16:00:08</time>
      </trkpt>
      <trkpt lat="38.72445" lon="-0.0641">
        <ele>603.2</ele>
        <time>2021-01-31 16:00:09</time>
      </trkpt>
      <trkpt lat="38.72446" lon="-0.06406">
        <ele>603.8</ele>
        <time>2021-01-31 16:00:10</time>
      </trkpt>
      <trkpt lat="38.72447" lon="-0.06401">
        <ele>603.8</ele>
        <time>2021-01-31 16:00:11</time>
      </trkpt>
      <trkpt lat="38.72448" lon="-0.06397">
        <ele>603.8</ele>
        <time>2021-01-31 16:00:12</time>
      </trkpt>
      <trkpt lat="38.72449" lon="-0.06392">
        <ele>603.8</ele>
        <time>2021-01-31 16:00:13</time>
      </trkpt>
      <trkpt lat="38.7245" lon="-0.06388">
        <ele>603.8</ele>
        <time>2021-01-31 16:00:14</time>
      </trkpt>
      <trkpt lat="38.72451" lon="-0.06384">
        <ele>603.8</ele>
        <time>2021-01-31 16:00:15</time>
      </trkpt>
      <trkpt lat="38.72452" lon="-0.06379">
        <ele>604.6</ele>
        <time>2021-01-31 16:00:16</time>
      </trkpt>
      <trkpt lat="38.72453" lon="-0.06375">
        <ele>604.6</ele>
        <time>2021-01-31 16:00:17</time>
      </trkpt>
      <trkpt lat="38.72454" lon="-0.06371">
        <ele>604.6</ele>
        <time>2021-01-31 16:00:18</time>
      </trkpt>
      <trkpt lat="38.72455" lon="-0.06367">
        <ele>604.6</ele>
        <time>2021-01-31 16:00:19</time>
      </trkpt>
      <trkpt lat="38.72456" lon="-0.06362">
        <ele>605</ele>
        <time>2021-01-31 16:00:20</time>
      </trkpt>
      <trkpt lat="38.72457" lon="-0.06358">
        <ele>606</ele>
        <time>2021-01-31 16:00:21</time>
      </trkpt>
      <trkpt lat="38.72458" lon="-0.06354">
        <ele>606</ele>
        <time>2021-01-31 16:00:22</time>
      </trkpt>
      <trkpt lat="38.72459" lon="-0.06349">
        <ele>606</ele>
        <time>2021-01-31 16:00:23</time>
      </trkpt>
      <trkpt lat="38.7246" lon="-0.06345">
        <ele>606</ele>
        <time>2021-01-31 16:00:24</time>
      </trkpt>
      <trkpt lat="38.72461" lon="-0.06341">
        <ele>606.8</ele>
        <time>2021-01-31 16:00:25</time>
      </trkpt>
      <trkpt lat="38.72462" lon="-0.06336">
        <ele>607</ele>
        <time>2021-01-31 16:00:26</time>
      </trkpt>
      <trkpt lat="38.72463" lon="-0.06332">
        <ele>607.4</ele>
        <time>2021-01-31 16:00:27</time>
      </trkpt>
      <trkpt lat="38.72464" lon="-0.06328">
        <ele>607.8</ele>
        <time>2021-01-31 16:00:28</time>
      </trkpt>
      <trkpt lat="38.72465" lon="-0.06323">
        <ele>607.8</ele>
        <time>2021-01-31 16:00:29</time>
      </trkpt>
      <trkpt lat="38.72466" lon="-0.06319">
        <ele>607.8</ele>
        <time>2021-01-31 16:00:30</time>
      </trkpt>
      <trkpt lat="38.72467" lon="-0.06315">
        <ele>607.8</ele>
        <time>2021-01-31 16:00:31</time>
      </trkpt>
      <trkpt lat="38.72467" lon="-0.0631">
        <ele>608</ele>
        <time>2021-01-31 16:00:32</time>
      </trkpt>
      <trkpt lat="38.72468" lon="-0.06305">
        <ele>608.8</ele>
        <time>2021-01-31 16:00:33</time>
      </trkpt>
      <trkpt lat="38.72468" lon="-0.06301">
        <ele>609</ele>
        <time>2021-01-31 16:00:34</time>
      </trkpt>
      <trkpt lat="38.72468" lon="-0.06296">
        <ele>609.2</ele>
        <time>2021-01-31 16:00:35</time>
      </trkpt>
      <trkpt lat="38.72467" lon="-0.06291">
        <ele>610</ele>
        <time>2021-01-31 16:00:36</time>
      </trkpt>
      <trkpt lat="38.72467" lon="-0.06286">
        <ele>610</ele>
        <time>2021-01-31 16:00:37</time>
      </trkpt>
      <trkpt lat="38.72467" lon="-0.06282">
        <ele>610</ele>
        <time>2021-01-31 16:00:38</time>
      </trkpt>
      <trkpt lat="38.72466" lon="-0.06277">
        <ele>610</ele>
        <time>2021-01-31 16:00:39</time>
      </trkpt>
      <trkpt lat="38.72465" lon="-0.06273">
        <ele>610</ele>
        <time>2021-01-31 16:00:40</time>
      </trkpt>
      <trkpt lat="38.72464" lon="-0.06268">
        <ele>610</ele>
        <time>2021-01-31 16:00:41</time>
      </trkpt>
      <trkpt lat="38.72464" lon="-0.06264">
        <ele>610.8</ele>
        <time>2021-01-31 16:00:42</time>
      </trkpt>
      <trkpt lat="38.72463" lon="-0.06259">
        <ele>611</ele>
        <time>2021-01-31 16:00:43</time>
      </trkpt>
      <trkpt lat="38.72462" lon="-0.06255">
        <ele>611.8</ele>
        <time>2021-01-31 16:00:44</time>
      </trkpt>
      <trkpt lat="38.72461" lon="-0.06251">
        <ele>611.8</ele>
        <time>2021-01-31 16:00:45</time>
      </trkpt>
      <trkpt lat="38.7246" lon="-0.06246">
        <ele>612</ele>
        <time>2021-01-31 16:00:46</time>
      </trkpt>
      <trkpt lat="38.7246" lon="-0.06242">
        <ele>612</ele>
        <time>2021-01-31 16:00:47</time>
      </trkpt>
      <trkpt lat="38.72459" lon="-0.06237">
        <ele>612</ele>
        <time>2021-01-31 16:00:48</time>
      </trkpt>
      <trkpt lat="38.72458" lon="-0.06233">
        <ele>612</ele>
        <time>2021-01-31 16:00:49</time>
      </trkpt>
      <trkpt lat="38.72457" lon="-0.06228">
        <ele>612.2</ele>
        <time>2021-01-31 16:00:50</time>
      </trkpt>
      <trkpt lat="38.72457" lon="-0.06224">
        <ele>612.8</ele>
        <time>2021-01-31 16:00:51</time>
      </trkpt>
      <trkpt lat="38.72456" lon="-0.06219">
        <ele>612.8</ele>
        <time>2021-01-31 16:00:52</time>
      </trkpt>
      <trkpt lat="38.72456" lon="-0.06214">
        <ele>612.8</ele>
        <time>2021-01-31 16:00:53</time>
      </trkpt>
      <trkpt lat="38.72456" lon="-0.06209">
        <ele>612.8</ele>
        <time>2021-01-31 16:00:54</time>
      </trkpt>
      <trkpt lat="38.72455" lon="-0.06204">
        <ele>612.8</ele>
        <time>2021-01-31 16:00:55</time>
      </trkpt>
      <trkpt lat="38.72455" lon="-0.06199">
        <ele>613.4</ele>
        <time>2021-01-31 16:00:56</time>
      </trkpt>
      <trkpt lat="38.72455" lon="-0.06194">
        <ele>613.6</ele>
        <time>2021-01-31 16:00:57</time>
      </trkpt>
      <trkpt lat="38.72455" lon="-0.06189">
        <ele>614</ele>
        <time>2021-01-31 16:00:58</time>
      </trkpt>
      <trkpt lat="38.72455" lon="-0.06184">
        <ele>614</ele>
        <time>2021-01-31 16:00:59</time>
      </trkpt>
      <trkpt lat="38.72455" lon="-0.06179">
        <ele>614</ele>
        <time>2021-01-31 16:01:00</time>
      </trkpt>
      <trkpt lat="38.72455" lon="-0.06174">
        <ele>614</ele>
        <time>2021-01-31 16:01:01</time>
      </trkpt>
      <trkpt lat="38.72455" lon="-0.06169">
        <ele>614.4</ele>
        <time>2021-01-31 16:01:02</time>
      </trkpt>
      <trkpt lat="38.72455" lon="-0.06164">
        <ele>614.8</ele>
        <time>2021-01-31 16:01:03</time>
      </trkpt>
      <trkpt lat="38.72455" lon="-0.06159">
        <ele>615</ele>
        <time>2021-01-31 16:01:04</time>
      </trkpt>
      <trkpt lat="38.72455" lon="-0.06154">
        <ele>615.4</ele>
        <time>2021-01-31 16:01:05</time>
      </trkpt>
      <trkpt lat="38.72456" lon="-0.06149">
        <ele>615.4</ele>
        <time>2021-01-31 16:01:06</time>
      </trkpt>
      <trkpt lat="38.72456" lon="-0.06144">
        <ele>615.4</ele>
        <time>2021-01-31 16:01:07</time>
      </trkpt>
      <trkpt lat="38.72456" lon="-0.06139">
        <ele>615.4</ele>
        <time>2021-01-31 16:01:08</time>
      </trkpt>
      <trkpt lat="38.72456" lon="-0.06134">
        <ele>616.4</ele>
        <time>2021-01-31 16:01:09</time>
      </trkpt>
      <trkpt lat="38.72457" lon="-0.06129">
        <ele>617</ele>
        <time>2021-01-31 16:01:10</time>
      </trkpt>
      <trkpt lat="38.72457" lon="-0.06125">
        <ele>617</ele>
        <time>2021-01-31 16:01:11</time>
      </trkpt>
      <trkpt lat="38.72457" lon="-0.0612">
        <ele>617</ele>
        <time>2021-01-31 16:01:12</time>
      </trkpt>
      <trkpt lat="38.72458" lon="-0.06116">
        <ele>617</ele>
        <time>2021-01-31 16:01:13</time>
      </trkpt>
      <trkpt lat="38.72459" lon="-0.06111">
        <ele>617.8</ele>
        <time>2021-01-31 16:01:14</time>
      </trkpt>
      <trkpt lat="38.7246" lon="-0.06107">
        <ele>618</ele>
        <time>2021-01-31 16:01:15</time>
      </trkpt>
      <trkpt lat="38.72461" lon="-0.06103">
        <ele>618.6</ele>
        <time>2021-01-31 16:01:16</time>
      </trkpt>
      <trkpt lat="38.72463" lon="-0.06098">
        <ele>618.6</ele>
        <time>2021-01-31 16:01:17</time>
      </trkpt>
      <trkpt lat="38.72464" lon="-0.06094">
        <ele>618.8</ele>
        <time>2021-01-31 16:01:18</time>
      </trkpt>
      <trkpt lat="38.72466" lon="-0.0609">
        <ele>619.4</ele>
        <time>2021-01-31 16:01:19</time>
      </trkpt>
      <trkpt lat="38.72467" lon="-0.06087">
        <ele>619.8</ele>
        <time>2021-01-31 16:01:20</time>
      </trkpt>
      <trkpt lat="38.72469" lon="-0.06083">
        <ele>619.8</ele>
        <time>2021-01-31 16:01:21</time>
      </trkpt>
      <trkpt lat="38.7247" lon="-0.06079">
        <ele>620.2</ele>
        <time>2021-01-31 16:01:22</time>
      </trkpt>
      <trkpt lat="38.72472" lon="-0.06075">
        <ele>620.6</ele>
        <time>2021-01-31 16:01:23</time>
      </trkpt>
      <trkpt lat="38.72474" lon="-0.06072">
        <ele>620.6</ele>
        <time>2021-01-31 16:01:24</time>
      </trkpt>
      <trkpt lat="38.72476" lon="-0.06069">
        <ele>620.6</ele>
        <time>2021-01-31 16:01:25</time>
      </trkpt>
      <trkpt lat="38.72478" lon="-0.06065">
        <ele>620.6</ele>
        <time>2021-01-31 16:01:26</time>
      </trkpt>
      <trkpt lat="38.7248" lon="-0.06062">
        <ele>620.6</ele>
        <time>2021-01-31 16:01:27</time>
      </trkpt>
      <trkpt lat="38.72483" lon="-0.06058">
        <ele>620.6</ele>
        <time>2021-01-31 16:01:28</time>
      </trkpt>
      <trkpt lat="38.72485" lon="-0.06055">
        <ele>620.8</ele>
        <time>2021-01-31 16:01:29</time>
      </trkpt>
      <trkpt lat="38.72488" lon="-0.06051">
        <ele>621.2</ele>
        <time>2021-01-31 16:01:30</time>
      </trkpt>
      <trkpt lat="38.72491" lon="-0.06048">
        <ele>621.2</ele>
        <time>2021-01-31 16:01:31</time>
      </trkpt>
      <trkpt lat="38.72494" lon="-0.06044">
        <ele>621.2</ele>
        <time>2021-01-31 16:01:32</time>
      </trkpt>
      <trkpt lat="38.72497" lon="-0.0604">
        <ele>621.2</ele>
        <time>2021-01-31 16:01:33</time>
      </trkpt>
      <trkpt lat="38.725" lon="-0.06036">
        <ele>621.2</ele>
        <time>2021-01-31 16:01:34</time>
      </trkpt>
      <trkpt lat="38.72504" lon="-0.06033">
        <ele>621.2</ele>
        <time>2021-01-31 16:01:35</time>
      </trkpt>
      <trkpt lat="38.72507" lon="-0.06028">
        <ele>622.2</ele>
        <time>2021-01-31 16:01:36</time>
      </trkpt>
      <trkpt lat="38.7251" lon="-0.06024">
        <ele>623.2</ele>
        <time>2021-01-31 16:01:37</time>
      </trkpt>
      <trkpt lat="38.72513" lon="-0.0602">
        <ele>624.2</ele>
        <time>2021-01-31 16:01:38</time>
      </trkpt>
      <trkpt lat="38.72515" lon="-0.06014">
        <ele>625.2</ele>
        <time>2021-01-31 16:01:39</time>
      </trkpt>
      <trkpt lat="38.72516" lon="-0.06008">
        <ele>625.8</ele>
        <time>2021-01-31 16:01:40</time>
      </trkpt>
      <trkpt lat="38.72516" lon="-0.06001">
        <ele>625.8</ele>
        <time>2021-01-31 16:01:41</time>
      </trkpt>
      <trkpt lat="38.72516" lon="-0.05995">
        <ele>625.8</ele>
        <time>2021-01-31 16:01:42</time>
      </trkpt>
      <trkpt lat="38.72515" lon="-0.05988">
        <ele>625.8</ele>
        <time>2021-01-31 16:01:43</time>
      </trkpt>
      <trkpt lat="38.72515" lon="-0.05981">
        <ele>625.6</ele>
        <time>2021-01-31 16:01:44</time>
      </trkpt>
      <trkpt lat="38.72515" lon="-0.05974">
        <ele>625.6</ele>
        <time>2021-01-31 16:01:45</time>
      </trkpt>
      <trkpt lat="38.72514" lon="-0.05967">
        <ele>625.6</ele>
        <time>2021-01-31 16:01:46</time>
      </trkpt>
      <trkpt lat="38.72513" lon="-0.0596">
        <ele>625.6</ele>
        <time>2021-01-31 16:01:47</time>
      </trkpt>
      <trkpt lat="38.72511" lon="-0.05953">
        <ele>624.6</ele>
        <time>2021-01-31 16:01:48</time>
      </trkpt>
      <trkpt lat="38.72509" lon="-0.05946">
        <ele>624.4</ele>
        <time>2021-01-31 16:01:49</time>
      </trkpt>
      <trkpt lat="38.72507" lon="-0.05939">
        <ele>624.4</ele>
        <time>2021-01-31 16:01:50</time>
      </trkpt>
      <trkpt lat="38.72505" lon="-0.05933">
        <ele>624.4</ele>
        <time>2021-01-31 16:01:51</time>
      </trkpt>
      <trkpt lat="38.72503" lon="-0.05926">
        <ele>624.4</ele>
        <time>2021-01-31 16:01:52</time>
      </trkpt>
      <trkpt lat="38.72502" lon="-0.0592">
        <ele>624.4</ele>
        <time>2021-01-31 16:01:53</time>
      </trkpt>
      <trkpt lat="38.725" lon="-0.05914">
        <ele>624.4</ele>
        <time>2021-01-31 16:01:54</time>
      </trkpt>
      <trkpt lat="38.72498" lon="-0.05908">
        <ele>624.4</ele>
        <time>2021-01-31 16:01:55</time>
      </trkpt>
      <trkpt lat="38.72497" lon="-0.05902">
        <ele>624.4</ele>
        <time>2021-01-31 16:01:56</time>
      </trkpt>
      <trkpt lat="38.72495" lon="-0.05896">
        <ele>624.4</ele>
        <time>2021-01-31 16:01:57</time>
      </trkpt>
      <trkpt lat="38.72493" lon="-0.0589">
        <ele>624.4</ele>
        <time>2021-01-31 16:01:58</time>
      </trkpt>
      <trkpt lat="38.72492" lon="-0.05885">
        <ele>624.6</ele>
        <time>2021-01-31 16:01:59</time>
      </trkpt>
      <trkpt lat="38.7249" lon="-0.05881">
        <ele>624.8</ele>
        <time>2021-01-31 16:02:00</time>
      </trkpt>
      <trkpt lat="38.72488" lon="-0.05876">
        <ele>625</ele>
        <time>2021-01-31 16:02:01</time>
      </trkpt>
      <trkpt lat="38.72486" lon="-0.05872">
        <ele>625.6</ele>
        <time>2021-01-31 16:02:02</time>
      </trkpt>
      <trkpt lat="38.72483" lon="-0.05869">
        <ele>626.2</ele>
        <time>2021-01-31 16:02:03</time>
      </trkpt>
      <trkpt lat="38.72481" lon="-0.05866">
        <ele>626.8</ele>
        <time>2021-01-31 16:02:04</time>
      </trkpt>
      <trkpt lat="38.72478" lon="-0.05864">
        <ele>627.2</ele>
        <time>2021-01-31 16:02:05</time>
      </trkpt>
      <trkpt lat="38.72476" lon="-0.05862">
        <ele>628.2</ele>
        <time>2021-01-31 16:02:06</time>
      </trkpt>
      <trkpt lat="38.72474" lon="-0.0586">
        <ele>628.6</ele>
        <time>2021-01-31 16:02:07</time>
      </trkpt>
      <trkpt lat="38.72472" lon="-0.05858">
        <ele>628.8</ele>
        <time>2021-01-31 16:02:08</time>
      </trkpt>
      <trkpt lat="38.7247" lon="-0.05855">
        <ele>629</ele>
        <time>2021-01-31 16:02:09</time>
      </trkpt>
      <trkpt lat="38.72469" lon="-0.05853">
        <ele>629</ele>
        <time>2021-01-31 16:02:10</time>
      </trkpt>
      <trkpt lat="38.72467" lon="-0.0585">
        <ele>629</ele>
        <time>2021-01-31 16:02:11</time>
      </trkpt>
      <trkpt lat="38.72466" lon="-0.05847">
        <ele>628.8</ele>
        <time>2021-01-31 16:02:12</time>
      </trkpt>
      <trkpt lat="38.72466" lon="-0.05844">
        <ele>628.8</ele>
        <time>2021-01-31 16:02:13</time>
      </trkpt>
      <trkpt lat="38.72465" lon="-0.05841">
        <ele>628.8</ele>
        <time>2021-01-31 16:02:14</time>
      </trkpt>
      <trkpt lat="38.72465" lon="-0.05838">
        <ele>628.8</ele>
        <time>2021-01-31 16:02:15</time>
      </trkpt>
      <trkpt lat="38.72465" lon="-0.05834">
        <ele>628.8</ele>
        <time>2021-01-31 16:02:16</time>
      </trkpt>
      <trkpt lat="38.72465" lon="-0.05831">
        <ele>628.8</ele>
        <time>2021-01-31 16:02:17</time>
      </trkpt>
      <trkpt lat="38.72465" lon="-0.05828">
        <ele>628.8</ele>
        <time>2021-01-31 16:02:18</time>
      </trkpt>
      <trkpt lat="38.72466" lon="-0.05825">
        <ele>628.8</ele>
        <time>2021-01-31 16:02:19</time>
      </trkpt>
      <trkpt lat="38.72467" lon="-0.05822">
        <ele>629.8</ele>
        <time>2021-01-31 16:02:20</time>
      </trkpt>
      <trkpt lat="38.72468" lon="-0.05819">
        <ele>630.8</ele>
        <time>2021-01-31 16:02:21</time>
      </trkpt>
      <trkpt lat="38.72469" lon="-0.05816">
        <ele>631.2</ele>
        <time>2021-01-31 16:02:22</time>
      </trkpt>
      <trkpt lat="38.7247" lon="-0.05813">
        <ele>631.2</ele>
        <time>2021-01-31 16:02:23</time>
      </trkpt>
      <trkpt lat="38.72471" lon="-0.0581">
        <ele>631.2</ele>
        <time>2021-01-31 16:02:24</time>
      </trkpt>
      <trkpt lat="38.72472" lon="-0.05807">
        <ele>631.2</ele>
        <time>2021-01-31 16:02:25</time>
      </trkpt>
      <trkpt lat="38.72474" lon="-0.05804">
        <ele>632.2</ele>
        <time>2021-01-31 16:02:26</time>
      </trkpt>
      <trkpt lat="38.72475" lon="-0.05802">
        <ele>633</ele>
        <time>2021-01-31 16:02:27</time>
      </trkpt>
      <trkpt lat="38.72477" lon="-0.05799">
        <ele>633</ele>
        <time>2021-01-31 16:02:28</time>
      </trkpt>
      <trkpt lat="38.72478" lon="-0.05796">
        <ele>633</ele>
        <time>2021-01-31 16:02:29</time>
      </trkpt>
      <trkpt lat="38.72479" lon="-0.05793">
        <ele>633</ele>
        <time>2021-01-31 16:02:30</time>
      </trkpt>
      <trkpt lat="38.72481" lon="-0.0579">
        <ele>633</ele>
        <time>2021-01-31 16:02:31</time>
      </trkpt>
      <trkpt lat="38.72482" lon="-0.05787">
        <ele>633</ele>
        <time>2021-01-31 16:02:32</time>
      </trkpt>
      <trkpt lat="38.72484" lon="-0.05784">
        <ele>634</ele>
        <time>2021-01-31 16:02:33</time>
      </trkpt>
      <trkpt lat="38.72485" lon="-0.0578">
        <ele>634.6</ele>
        <time>2021-01-31 16:02:34</time>
      </trkpt>
      <trkpt lat="38.72486" lon="-0.05776">
        <ele>635.2</ele>
        <time>2021-01-31 16:02:35</time>
      </trkpt>
      <trkpt lat="38.72488" lon="-0.05773">
        <ele>635.2</ele>
        <time>2021-01-31 16:02:36</time>
      </trkpt>
      <trkpt lat="38.72489" lon="-0.05769">
        <ele>635.2</ele>
        <time>2021-01-31 16:02:37</time>
      </trkpt>
      <trkpt lat="38.72489" lon="-0.05765">
        <ele>635.2</ele>
        <time>2021-01-31 16:02:38</time>
      </trkpt>
      <trkpt lat="38.7249" lon="-0.05761">
        <ele>636.2</ele>
        <time>2021-01-31 16:02:39</time>
      </trkpt>
      <trkpt lat="38.72491" lon="-0.05758">
        <ele>637.2</ele>
        <time>2021-01-31 16:02:40</time>
      </trkpt>
      <trkpt lat="38.72492" lon="-0.05754">
        <ele>637.8</ele>
        <time>2021-01-31 16:02:41</time>
      </trkpt>
      <trkpt lat="38.72493" lon="-0.0575">
        <ele>638</ele>
        <time>2021-01-31 16:02:42</time>
      </trkpt>
      <trkpt lat="38.72493" lon="-0.05746">
        <ele>638.2</ele>
        <time>2021-01-31 16:02:43</time>
      </trkpt>
      <trkpt lat="38.72494" lon="-0.05742">
        <ele>639.2</ele>
        <time>2021-01-31 16:02:44</time>
      </trkpt>
      <trkpt lat="38.72495" lon="-0.05738">
        <ele>640</ele>
        <time>2021-01-31 16:02:45</time>
      </trkpt>
      <trkpt lat="38.72496" lon="-0.05734">
        <ele>640</ele>
        <time>2021-01-31 16:02:46</time>
      </trkpt>
      <trkpt lat="38.72496" lon="-0.0573">
        <ele>640</ele>
        <time>2021-01-31 16:02:47</time>
      </trkpt>
      <trkpt lat="38.72497" lon="-0.05725">
        <ele>640</ele>
        <time>2021-01-31 16:02:48</time>
      </trkpt>
      <trkpt lat="38.72497" lon="-0.05721">
        <ele>641</ele>
        <time>2021-01-31 16:02:49</time>
      </trkpt>
      <trkpt lat="38.72498" lon="-0.05716">
        <ele>642</ele>
        <time>2021-01-31 16:02:50</time>
      </trkpt>
      <trkpt lat="38.72498" lon="-0.05712">
        <ele>642.6</ele>
        <time>2021-01-31 16:02:51</time>
      </trkpt>
      <trkpt lat="38.72498" lon="-0.05707">
        <ele>643</ele>
        <time>2021-01-31 16:02:52</time>
      </trkpt>
      <trkpt lat="38.72497" lon="-0.05703">
        <ele>643</ele>
        <time>2021-01-31 16:02:53</time>
      </trkpt>
      <trkpt lat="38.72497" lon="-0.05698">
        <ele>643.2</ele>
        <time>2021-01-31 16:02:54</time>
      </trkpt>
      <trkpt lat="38.72497" lon="-0.05694">
        <ele>643.4</ele>
        <time>2021-01-31 16:02:55</time>
      </trkpt>
      <trkpt lat="38.72497" lon="-0.0569">
        <ele>644.2</ele>
        <time>2021-01-31 16:02:56</time>
      </trkpt>
      <trkpt lat="38.72496" lon="-0.05685">
        <ele>644.2</ele>
        <time>2021-01-31 16:02:57</time>
      </trkpt>
      <trkpt lat="38.72496" lon="-0.05681">
        <ele>644.2</ele>
        <time>2021-01-31 16:02:58</time>
      </trkpt>
      <trkpt lat="38.72495" lon="-0.05677">
        <ele>644.2</ele>
        <time>2021-01-31 16:02:59</time>
      </trkpt>
      <trkpt lat="38.72494" lon="-0.05673">
        <ele>645</ele>
        <time>2021-01-31 16:03:00</time>
      </trkpt>
      <trkpt lat="38.72493" lon="-0.05669">
        <ele>645</ele>
        <time>2021-01-31 16:03:01</time>
      </trkpt>
      <trkpt lat="38.72492" lon="-0.05665">
        <ele>645</ele>
        <time>2021-01-31 16:03:02</time>
      </trkpt>
      <trkpt lat="38.7249" lon="-0.05661">
        <ele>645</ele>
        <time>2021-01-31 16:03:03</time>
      </trkpt>
      <trkpt lat="38.72489" lon="-0.05657">
        <ele>645</ele>
        <time>2021-01-31 16:03:04</time>
      </trkpt>
      <trkpt lat="38.72487" lon="-0.05652">
        <ele>645</ele>
        <time>2021-01-31 16:03:05</time>
      </trkpt>
      <trkpt lat="38.72484" lon="-0.05649">
        <ele>645</ele>
        <time>2021-01-31 16:03:06</time>
      </trkpt>
      <trkpt lat="38.72481" lon="-0.05647">
        <ele>645</ele>
        <time>2021-01-31 16:03:07</time>
      </trkpt>
      <trkpt lat="38.72477" lon="-0.0565">
        <ele>645</ele>
        <time>2021-01-31 16:03:08</time>
      </trkpt>
      <trkpt lat="38.72476" lon="-0.05653">
        <ele>645</ele>
        <time>2021-01-31 16:03:09</time>
      </trkpt>
      <trkpt lat="38.72475" lon="-0.05657">
        <ele>645</ele>
        <time>2021-01-31 16:03:10</time>
      </trkpt>
      <trkpt lat="38.72475" lon="-0.05659">
        <ele>644</ele>
        <time>2021-01-31 16:03:11</time>
      </trkpt>
      <trkpt lat="38.72476" lon="-0.05662">
        <ele>644</ele>
        <time>2021-01-31 16:03:12</time>
      </trkpt>
      <trkpt lat="38.72474" lon="-0.05664">
        <ele>644</ele>
        <time>2021-01-31 16:03:13</time>
      </trkpt>
      <trkpt lat="38.72475" lon="-0.05667">
        <ele>645</ele>
        <time>2021-01-31 16:03:14</time>
      </trkpt>
      <trkpt lat="38.72475" lon="-0.05669">
        <ele>645</ele>
        <time>2021-01-31 16:03:15</time>
      </trkpt>
      <trkpt lat="38.72476" lon="-0.05672">
        <ele>645</ele>
        <time>2021-01-31 16:03:16</time>
      </trkpt>
      <trkpt lat="38.72477" lon="-0.05675">
        <ele>645</ele>
        <time>2021-01-31 16:03:17</time>
      </trkpt>
      <trkpt lat="38.72479" lon="-0.05678">
        <ele>646</ele>
        <time>2021-01-31 16:03:18</time>
      </trkpt>
      <trkpt lat="38.7248" lon="-0.05681">
        <ele>646</ele>
        <time>2021-01-31 16:03:19</time>
      </trkpt>
      <trkpt lat="38.7248" lon="-0.05684">
        <ele>646</ele>
        <time>2021-01-31 16:03:20</time>
      </trkpt>
      <trkpt lat="38.72481" lon="-0.05687">
        <ele>645.4</ele>
        <time>2021-01-31 16:03:21</time>
      </trkpt>
      <trkpt lat="38.72482" lon="-0.05689">
        <ele>644.4</ele>
        <time>2021-01-31 16:03:22</time>
      </trkpt>
      <trkpt lat="38.72483" lon="-0.05692">
        <ele>643.4</ele>
        <time>2021-01-31 16:03:23</time>
      </trkpt>
      <trkpt lat="38.72483" lon="-0.05695">
        <ele>643.4</ele>
        <time>2021-01-31 16:03:24</time>
      </trkpt>
      <trkpt lat="38.72483" lon="-0.05697">
        <ele>643.4</ele>
        <time>2021-01-31 16:03:25</time>
      </trkpt>
      <trkpt lat="38.72484" lon="-0.057">
        <ele>644.4</ele>
        <time>2021-01-31 16:03:26</time>
      </trkpt>
      <trkpt lat="38.72484" lon="-0.05703">
        <ele>645.4</ele>
        <time>2021-01-31 16:03:27</time>
      </trkpt>
      <trkpt lat="38.72484" lon="-0.05706">
        <ele>646.4</ele>
        <time>2021-01-31 16:03:28</time>
      </trkpt>
      <trkpt lat="38.72484" lon="-0.05708">
        <ele>647.4</ele>
        <time>2021-01-31 16:03:29</time>
      </trkpt>
      <trkpt lat="38.72484" lon="-0.05711">
        <ele>647.4</ele>
        <time>2021-01-31 16:03:30</time>
      </trkpt>
      <trkpt lat="38.72483" lon="-0.05714">
        <ele>647.4</ele>
        <time>2021-01-31 16:03:31</time>
      </trkpt>
      <trkpt lat="38.72483" lon="-0.05717">
        <ele>646.4</ele>
        <time>2021-01-31 16:03:32</time>
      </trkpt>
      <trkpt lat="38.72482" lon="-0.05718">
        <ele>646.4</ele>
        <time>2021-01-31 16:03:33</time>
      </trkpt>
      <trkpt lat="38.72482" lon="-0.05721">
        <ele>646.4</ele>
        <time>2021-01-31 16:03:34</time>
      </trkpt>
      <trkpt lat="38.72482" lon="-0.05723">
        <ele>646.4</ele>
        <time>2021-01-31 16:03:35</time>
      </trkpt>
      <trkpt lat="38.72481" lon="-0.05726">
        <ele>646.4</ele>
        <time>2021-01-31 16:03:36</time>
      </trkpt>
      <trkpt lat="38.72481" lon="-0.05728">
        <ele>646.4</ele>
        <time>2021-01-31 16:03:37</time>
      </trkpt>
      <trkpt lat="38.7248" lon="-0.0573">
        <ele>647.4</ele>
        <time>2021-01-31 16:03:38</time>
      </trkpt>
      <trkpt lat="38.7248" lon="-0.05733">
        <ele>648.4</ele>
        <time>2021-01-31 16:03:39</time>
      </trkpt>
      <trkpt lat="38.72479" lon="-0.05735">
        <ele>649.4</ele>
        <time>2021-01-31 16:03:40</time>
      </trkpt>
      <trkpt lat="38.72478" lon="-0.05738">
        <ele>650.4</ele>
        <time>2021-01-31 16:03:41</time>
      </trkpt>
      <trkpt lat="38.72477" lon="-0.0574">
        <ele>650.8</ele>
        <time>2021-01-31 16:03:42</time>
      </trkpt>
      <trkpt lat="38.72476" lon="-0.05743">
        <ele>650.8</ele>
        <time>2021-01-31 16:03:43</time>
      </trkpt>
      <trkpt lat="38.72475" lon="-0.05745">
        <ele>650.8</ele>
        <time>2021-01-31 16:03:44</time>
      </trkpt>
      <trkpt lat="38.72474" lon="-0.05748">
        <ele>650.8</ele>
        <time>2021-01-31 16:03:45</time>
      </trkpt>
      <trkpt lat="38.72472" lon="-0.0575">
        <ele>651.8</ele>
        <time>2021-01-31 16:03:46</time>
      </trkpt>
      <trkpt lat="38.72471" lon="-0.05753">
        <ele>651.8</ele>
        <time>2021-01-31 16:03:47</time>
      </trkpt>
      <trkpt lat="38.7247" lon="-0.05755">
        <ele>651.8</ele>
        <time>2021-01-31 16:03:48</time>
      </trkpt>
      <trkpt lat="38.72468" lon="-0.05757">
        <ele>650.8</ele>
        <time>2021-01-31 16:03:49</time>
      </trkpt>
      <trkpt lat="38.72467" lon="-0.05759">
        <ele>649.8</ele>
        <time>2021-01-31 16:03:50</time>
      </trkpt>
      <trkpt lat="38.72465" lon="-0.05761">
        <ele>648.8</ele>
        <time>2021-01-31 16:03:51</time>
      </trkpt>
      <trkpt lat="38.72464" lon="-0.05763">
        <ele>647.8</ele>
        <time>2021-01-31 16:03:52</time>
      </trkpt>
      <trkpt lat="38.72462" lon="-0.05765">
        <ele>647</ele>
        <time>2021-01-31 16:03:53</time>
      </trkpt>
      <trkpt lat="38.7246" lon="-0.05767">
        <ele>646.8</ele>
        <time>2021-01-31 16:03:54</time>
      </trkpt>
      <trkpt lat="38.72459" lon="-0.05769">
        <ele>645.8</ele>
        <time>2021-01-31 16:03:55</time>
      </trkpt>
      <trkpt lat="38.72457" lon="-0.05771">
        <ele>645.8</ele>
        <time>2021-01-31 16:03:56</time>
      </trkpt>
      <trkpt lat="38.72455" lon="-0.05774">
        <ele>645.8</ele>
        <time>2021-01-31 16:03:57</time>
      </trkpt>
      <trkpt lat="38.72454" lon="-0.05776">
        <ele>646.8</ele>
        <time>2021-01-31 16:03:58</time>
      </trkpt>
      <trkpt lat="38.72452" lon="-0.05778">
        <ele>646.8</ele>
        <time>2021-01-31 16:03:59</time>
      </trkpt>
      <trkpt lat="38.7245" lon="-0.0578">
        <ele>646.8</ele>
        <time>2021-01-31 16:04:00</time>
      </trkpt>
      <trkpt lat="38.72449" lon="-0.05783">
        <ele>646.8</ele>
        <time>2021-01-31 16:04:01</time>
      </trkpt>
      <trkpt lat="38.72447" lon="-0.05785">
        <ele>646.8</ele>
        <time>2021-01-31 16:04:02</time>
      </trkpt>
      <trkpt lat="38.72445" lon="-0.05788">
        <ele>646.8</ele>
        <time>2021-01-31 16:04:03</time>
      </trkpt>
      <trkpt lat="38.72443" lon="-0.0579">
        <ele>646.8</ele>
        <time>2021-01-31 16:04:04</time>
      </trkpt>
      <trkpt lat="38.72441" lon="-0.05793">
        <ele>646.8</ele>
        <time>2021-01-31 16:04:05</time>
      </trkpt>
      <trkpt lat="38.72439" lon="-0.05795">
        <ele>646.8</ele>
        <time>2021-01-31 16:04:06</time>
      </trkpt>
      <trkpt lat="38.72437" lon="-0.05798">
        <ele>647.8</ele>
        <time>2021-01-31 16:04:07</time>
      </trkpt>
      <trkpt lat="38.72435" lon="-0.05801">
        <ele>648.6</ele>
        <time>2021-01-31 16:04:08</time>
      </trkpt>
      <trkpt lat="38.72433" lon="-0.05803">
        <ele>649.4</ele>
        <time>2021-01-31 16:04:09</time>
      </trkpt>
      <trkpt lat="38.72432" lon="-0.05806">
        <ele>649.4</ele>
        <time>2021-01-31 16:04:10</time>
      </trkpt>
      <trkpt lat="38.7243" lon="-0.05808">
        <ele>649.4</ele>
        <time>2021-01-31 16:04:11</time>
      </trkpt>
      <trkpt lat="38.72428" lon="-0.05811">
        <ele>649.4</ele>
        <time>2021-01-31 16:04:12</time>
      </trkpt>
      <trkpt lat="38.72426" lon="-0.05813">
        <ele>649.4</ele>
        <time>2021-01-31 16:04:13</time>
      </trkpt>
      <trkpt lat="38.72423" lon="-0.05815">
        <ele>650.4</ele>
        <time>2021-01-31 16:04:14</time>
      </trkpt>
      <trkpt lat="38.72421" lon="-0.05818">
        <ele>650.6</ele>
        <time>2021-01-31 16:04:15</time>
      </trkpt>
      <trkpt lat="38.72419" lon="-0.0582">
        <ele>651.4</ele>
        <time>2021-01-31 16:04:16</time>
      </trkpt>
      <trkpt lat="38.72417" lon="-0.05823">
        <ele>652</ele>
        <time>2021-01-31 16:04:17</time>
      </trkpt>
      <trkpt lat="38.72415" lon="-0.05825">
        <ele>652.6</ele>
        <time>2021-01-31 16:04:18</time>
      </trkpt>
      <trkpt lat="38.72413" lon="-0.05828">
        <ele>653.4</ele>
        <time>2021-01-31 16:04:19</time>
      </trkpt>
      <trkpt lat="38.72412" lon="-0.05831">
        <ele>653.4</ele>
        <time>2021-01-31 16:04:20</time>
      </trkpt>
      <trkpt lat="38.7241" lon="-0.05833">
        <ele>653.4</ele>
        <time>2021-01-31 16:04:21</time>
      </trkpt>
      <trkpt lat="38.72408" lon="-0.05835">
        <ele>652.4</ele>
        <time>2021-01-31 16:04:22</time>
      </trkpt>
      <trkpt lat="38.72406" lon="-0.05838">
        <ele>652.4</ele>
        <time>2021-01-31 16:04:23</time>
      </trkpt>
      <trkpt lat="38.72404" lon="-0.0584">
        <ele>652.4</ele>
        <time>2021-01-31 16:04:24</time>
      </trkpt>
      <trkpt lat="38.72402" lon="-0.05844">
        <ele>653.4</ele>
        <time>2021-01-31 16:04:25</time>
      </trkpt>
      <trkpt lat="38.724" lon="-0.05846">
        <ele>654.4</ele>
        <time>2021-01-31 16:04:26</time>
      </trkpt>
      <trkpt lat="38.72398" lon="-0.05849">
        <ele>655</ele>
        <time>2021-01-31 16:04:27</time>
      </trkpt>
      <trkpt lat="38.72396" lon="-0.05851">
        <ele>655.4</ele>
        <time>2021-01-31 16:04:28</time>
      </trkpt>
      <trkpt lat="38.72394" lon="-0.05854">
        <ele>655.6</ele>
        <time>2021-01-31 16:04:29</time>
      </trkpt>
      <trkpt lat="38.72392" lon="-0.05857">
        <ele>655.6</ele>
        <time>2021-01-31 16:04:30</time>
      </trkpt>
      <trkpt lat="38.7239" lon="-0.05859">
        <ele>655.6</ele>
        <time>2021-01-31 16:04:31</time>
      </trkpt>
      <trkpt lat="38.72388" lon="-0.05862">
        <ele>655.6</ele>
        <time>2021-01-31 16:04:32</time>
      </trkpt>
      <trkpt lat="38.72386" lon="-0.05865">
        <ele>655.6</ele>
        <time>2021-01-31 16:04:33</time>
      </trkpt>
      <trkpt lat="38.72384" lon="-0.05867">
        <ele>656.6</ele>
        <time>2021-01-31 16:04:34</time>
      </trkpt>
      <trkpt lat="38.72382" lon="-0.0587">
        <ele>656.6</ele>
        <time>2021-01-31 16:04:35</time>
      </trkpt>
      <trkpt lat="38.7238" lon="-0.05874">
        <ele>656.6</ele>
        <time>2021-01-31 16:04:36</time>
      </trkpt>
      <trkpt lat="38.72379" lon="-0.05877">
        <ele>656</ele>
        <time>2021-01-31 16:04:37</time>
      </trkpt>
      <trkpt lat="38.72377" lon="-0.05881">
        <ele>656</ele>
        <time>2021-01-31 16:04:38</time>
      </trkpt>
      <trkpt lat="38.72376" lon="-0.05885">
        <ele>656</ele>
        <time>2021-01-31 16:04:39</time>
      </trkpt>
      <trkpt lat="38.72375" lon="-0.05889">
        <ele>656.4</ele>
        <time>2021-01-31 16:04:40</time>
      </trkpt>
      <trkpt lat="38.72374" lon="-0.05892">
        <ele>656.8</ele>
        <time>2021-01-31 16:04:41</time>
      </trkpt>
      <trkpt lat="38.72374" lon="-0.05896">
        <ele>657.2</ele>
        <time>2021-01-31 16:04:42</time>
      </trkpt>
      <trkpt lat="38.72373" lon="-0.059">
        <ele>657.4</ele>
        <time>2021-01-31 16:04:43</time>
      </trkpt>
      <trkpt lat="38.72373" lon="-0.05904">
        <ele>657.8</ele>
        <time>2021-01-31 16:04:44</time>
      </trkpt>
      <trkpt lat="38.72372" lon="-0.05908">
        <ele>658</ele>
        <time>2021-01-31 16:04:45</time>
      </trkpt>
      <trkpt lat="38.72372" lon="-0.05912">
        <ele>658</ele>
        <time>2021-01-31 16:04:46</time>
      </trkpt>
      <trkpt lat="38.72372" lon="-0.05916">
        <ele>658</ele>
        <time>2021-01-31 16:04:47</time>
      </trkpt>
      <trkpt lat="38.72371" lon="-0.05919">
        <ele>658</ele>
        <time>2021-01-31 16:04:48</time>
      </trkpt>
      <trkpt lat="38.72371" lon="-0.05923">
        <ele>658</ele>
        <time>2021-01-31 16:04:49</time>
      </trkpt>
      <trkpt lat="38.7237" lon="-0.05927">
        <ele>658.8</ele>
        <time>2021-01-31 16:04:50</time>
      </trkpt>
      <trkpt lat="38.7237" lon="-0.05927">
        <ele>658.8</ele>
        <time>2021-01-31 16:04:51</time>
      </trkpt>
      <trkpt lat="38.72369" lon="-0.05934">
        <ele>658.8</ele>
        <time>2021-01-31 16:04:52</time>
      </trkpt>
      <trkpt lat="38.72369" lon="-0.05938">
        <ele>658.8</ele>
        <time>2021-01-31 16:04:53</time>
      </trkpt>
      <trkpt lat="38.72368" lon="-0.05942">
        <ele>658.8</ele>
        <time>2021-01-31 16:04:54</time>
      </trkpt>
      <trkpt lat="38.72368" lon="-0.05945">
        <ele>658.8</ele>
        <time>2021-01-31 16:04:55</time>
      </trkpt>
      <trkpt lat="38.72367" lon="-0.05949">
        <ele>658.8</ele>
        <time>2021-01-31 16:04:56</time>
      </trkpt>
      <trkpt lat="38.72366" lon="-0.05953">
        <ele>659.8</ele>
        <time>2021-01-31 16:04:57</time>
      </trkpt>
      <trkpt lat="38.72365" lon="-0.05956">
        <ele>660.8</ele>
        <time>2021-01-31 16:04:58</time>
      </trkpt>
      <trkpt lat="38.72365" lon="-0.0596">
        <ele>661.4</ele>
        <time>2021-01-31 16:04:59</time>
      </trkpt>
      <trkpt lat="38.72364" lon="-0.05963">
        <ele>661.8</ele>
        <time>2021-01-31 16:05:00</time>
      </trkpt>
      <trkpt lat="38.72363" lon="-0.05967">
        <ele>662</ele>
        <time>2021-01-31 16:05:01</time>
      </trkpt>
      <trkpt lat="38.72363" lon="-0.05969">
        <ele>662</ele>
        <time>2021-01-31 16:05:02</time>
      </trkpt>
      <trkpt lat="38.72362" lon="-0.05972">
        <ele>662</ele>
        <time>2021-01-31 16:05:03</time>
      </trkpt>
      <trkpt lat="38.72362" lon="-0.05974">
        <ele>661</ele>
        <time>2021-01-31 16:05:04</time>
      </trkpt>
      <trkpt lat="38.72361" lon="-0.05976">
        <ele>660.6</ele>
        <time>2021-01-31 16:05:05</time>
      </trkpt>
      <trkpt lat="38.7236" lon="-0.05976">
        <ele>660.6</ele>
        <time>2021-01-31 16:05:06</time>
      </trkpt>
      <trkpt lat="38.72358" lon="-0.05975">
        <ele>660.6</ele>
        <time>2021-01-31 16:05:07</time>
      </trkpt>
      <trkpt lat="38.72358" lon="-0.05975">
        <ele>661.4</ele>
        <time>2021-01-31 16:05:08</time>
      </trkpt>
      <trkpt lat="38.72358" lon="-0.05971">
        <ele>661.8</ele>
        <time>2021-01-31 16:05:09</time>
      </trkpt>
      <trkpt lat="38.72359" lon="-0.05968">
        <ele>662.2</ele>
        <time>2021-01-31 16:05:10</time>
      </trkpt>
      <trkpt lat="38.72361" lon="-0.05966">
        <ele>662.2</ele>
        <time>2021-01-31 16:05:11</time>
      </trkpt>
      <trkpt lat="38.72362" lon="-0.05964">
        <ele>662.2</ele>
        <time>2021-01-31 16:05:12</time>
      </trkpt>
      <trkpt lat="38.72363" lon="-0.05961">
        <ele>662.2</ele>
        <time>2021-01-31 16:05:13</time>
      </trkpt>
      <trkpt lat="38.72363" lon="-0.05958">
        <ele>661.4</ele>
        <time>2021-01-31 16:05:14</time>
      </trkpt>
      <trkpt lat="38.72364" lon="-0.05955">
        <ele>661</ele>
        <time>2021-01-31 16:05:15</time>
      </trkpt>
      <trkpt lat="38.72366" lon="-0.05952">
        <ele>660.6</ele>
        <time>2021-01-31 16:05:16</time>
      </trkpt>
      <trkpt lat="38.72368" lon="-0.05951">
        <ele>660.6</ele>
        <time>2021-01-31 16:05:17</time>
      </trkpt>
      <trkpt lat="38.72371" lon="-0.0595">
        <ele>660.6</ele>
        <time>2021-01-31 16:05:18</time>
      </trkpt>
      <trkpt lat="38.72374" lon="-0.05951">
        <ele>660.6</ele>
        <time>2021-01-31 16:05:19</time>
      </trkpt>
      <trkpt lat="38.72377" lon="-0.05951">
        <ele>661.6</ele>
        <time>2021-01-31 16:05:20</time>
      </trkpt>
      <trkpt lat="38.72379" lon="-0.05951">
        <ele>661.6</ele>
        <time>2021-01-31 16:05:21</time>
      </trkpt>
      <trkpt lat="38.72381" lon="-0.05952">
        <ele>661.6</ele>
        <time>2021-01-31 16:05:22</time>
      </trkpt>
      <trkpt lat="38.72383" lon="-0.05952">
        <ele>661.6</ele>
        <time>2021-01-31 16:05:23</time>
      </trkpt>
      <trkpt lat="38.72383" lon="-0.05952">
        <ele>661.6</ele>
        <time>2021-01-31 16:05:24</time>
      </trkpt>
      <trkpt lat="38.72386" lon="-0.05952">
        <ele>662.6</ele>
        <time>2021-01-31 16:05:25</time>
      </trkpt>
      <trkpt lat="38.72386" lon="-0.05952">
        <ele>663</ele>
        <time>2021-01-31 16:05:26</time>
      </trkpt>
      <trkpt lat="38.72386" lon="-0.05952">
        <ele>663.4</ele>
        <time>2021-01-31 16:05:27</time>
      </trkpt>
      <trkpt lat="38.72387" lon="-0.05953">
        <ele>663.4</ele>
        <time>2021-01-31 16:05:28</time>
      </trkpt>
      <trkpt lat="38.72384" lon="-0.05952">
        <ele>662.4</ele>
        <time>2021-01-31 16:05:29</time>
      </trkpt>
      <trkpt lat="38.72384" lon="-0.05952">
        <ele>661.8</ele>
        <time>2021-01-31 16:05:30</time>
      </trkpt>
      <trkpt lat="38.7238" lon="-0.05953">
        <ele>661.8</ele>
        <time>2021-01-31 16:08:31</time>
      </trkpt>
      <trkpt lat="38.72378" lon="-0.05952">
        <ele>661.8</ele>
        <time>2021-01-31 16:08:32</time>
      </trkpt>
      <trkpt lat="38.72378" lon="-0.05952">
        <ele>661.8</ele>
        <time>2021-01-31 16:08:33</time>
      </trkpt>
      <trkpt lat="38.72371" lon="-0.05951">
        <ele>660.8</ele>
        <time>2021-01-31 16:08:34</time>
      </trkpt>
      <trkpt lat="38.72367" lon="-0.05951">
        <ele>660.8</ele>
        <time>2021-01-31 16:08:35</time>
      </trkpt>
      <trkpt lat="38.72367" lon="-0.05951">
        <ele>660.8</ele>
        <time>2021-01-31 16:08:36</time>
      </trkpt>
      <trkpt lat="38.72362" lon="-0.05956">
        <ele>660.8</ele>
        <time>2021-01-31 16:08:37</time>
      </trkpt>
      <trkpt lat="38.72362" lon="-0.05959">
        <ele>660.6</ele>
        <time>2021-01-31 16:08:38</time>
      </trkpt>
      <trkpt lat="38.72361" lon="-0.05962">
        <ele>660.2</ele>
        <time>2021-01-31 16:08:39</time>
      </trkpt>
      <trkpt lat="38.7236" lon="-0.05964">
        <ele>660.2</ele>
        <time>2021-01-31 16:08:40</time>
      </trkpt>
      <trkpt lat="38.7236" lon="-0.05966">
        <ele>660.2</ele>
        <time>2021-01-31 16:08:41</time>
      </trkpt>
      <trkpt lat="38.72359" lon="-0.05969">
        <ele>660.8</ele>
        <time>2021-01-31 16:08:42</time>
      </trkpt>
      <trkpt lat="38.72359" lon="-0.05973">
        <ele>660.8</ele>
        <time>2021-01-31 16:08:43</time>
      </trkpt>
      <trkpt lat="38.72358" lon="-0.05976">
        <ele>660.8</ele>
        <time>2021-01-31 16:08:44</time>
      </trkpt>
      <trkpt lat="38.72357" lon="-0.05979">
        <ele>660.6</ele>
        <time>2021-01-31 16:08:45</time>
      </trkpt>
      <trkpt lat="38.72356" lon="-0.05983">
        <ele>660.2</ele>
        <time>2021-01-31 16:08:46</time>
      </trkpt>
      <trkpt lat="38.72355" lon="-0.05986">
        <ele>660.2</ele>
        <time>2021-01-31 16:08:47</time>
      </trkpt>
      <trkpt lat="38.72354" lon="-0.05989">
        <ele>660.2</ele>
        <time>2021-01-31 16:08:48</time>
      </trkpt>
      <trkpt lat="38.72354" lon="-0.05993">
        <ele>661.2</ele>
        <time>2021-01-31 16:08:49</time>
      </trkpt>
      <trkpt lat="38.72353" lon="-0.05996">
        <ele>661.2</ele>
        <time>2021-01-31 16:08:50</time>
      </trkpt>
      <trkpt lat="38.72352" lon="-0.06">
        <ele>661.2</ele>
        <time>2021-01-31 16:08:51</time>
      </trkpt>
      <trkpt lat="38.72352" lon="-0.06003">
        <ele>660.2</ele>
        <time>2021-01-31 16:08:52</time>
      </trkpt>
      <trkpt lat="38.72351" lon="-0.06007">
        <ele>660</ele>
        <time>2021-01-31 16:08:53</time>
      </trkpt>
      <trkpt lat="38.72351" lon="-0.0601">
        <ele>659.6</ele>
        <time>2021-01-31 16:08:54</time>
      </trkpt>
      <trkpt lat="38.7235" lon="-0.06014">
        <ele>658.6</ele>
        <time>2021-01-31 16:08:55</time>
      </trkpt>
      <trkpt lat="38.72349" lon="-0.06018">
        <ele>658.6</ele>
        <time>2021-01-31 16:08:56</time>
      </trkpt>
      <trkpt lat="38.72349" lon="-0.06023">
        <ele>658.6</ele>
        <time>2021-01-31 16:08:57</time>
      </trkpt>
      <trkpt lat="38.72348" lon="-0.06028">
        <ele>658.6</ele>
        <time>2021-01-31 16:08:58</time>
      </trkpt>
      <trkpt lat="38.72347" lon="-0.06034">
        <ele>657.6</ele>
        <time>2021-01-31 16:08:59</time>
      </trkpt>
      <trkpt lat="38.72346" lon="-0.0604">
        <ele>656.6</ele>
        <time>2021-01-31 16:09:00</time>
      </trkpt>
      <trkpt lat="38.72345" lon="-0.06047">
        <ele>656.2</ele>
        <time>2021-01-31 16:09:01</time>
      </trkpt>
      <trkpt lat="38.72344" lon="-0.06054">
        <ele>655.2</ele>
        <time>2021-01-31 16:09:02</time>
      </trkpt>
      <trkpt lat="38.72343" lon="-0.06062">
        <ele>654.2</ele>
        <time>2021-01-31 16:09:03</time>
      </trkpt>
      <trkpt lat="38.72342" lon="-0.0607">
        <ele>653.2</ele>
        <time>2021-01-31 16:09:04</time>
      </trkpt>
      <trkpt lat="38.7234" lon="-0.06078">
        <ele>652.2</ele>
        <time>2021-01-31 16:09:05</time>
      </trkpt>
      <trkpt lat="38.72339" lon="-0.06087">
        <ele>651.2</ele>
        <time>2021-01-31 16:09:06</time>
      </trkpt>
      <trkpt lat="38.72337" lon="-0.06097">
        <ele>650.6</ele>
        <time>2021-01-31 16:09:07</time>
      </trkpt>
      <trkpt lat="38.72335" lon="-0.06106">
        <ele>650</ele>
        <time>2021-01-31 16:09:08</time>
      </trkpt>
      <trkpt lat="38.72334" lon="-0.06115">
        <ele>649.4</ele>
        <time>2021-01-31 16:09:09</time>
      </trkpt>
      <trkpt lat="38.72333" lon="-0.06125">
        <ele>649</ele>
        <time>2021-01-31 16:09:10</time>
      </trkpt>
      <trkpt lat="38.72332" lon="-0.06134">
        <ele>649</ele>
        <time>2021-01-31 16:09:11</time>
      </trkpt>
      <trkpt lat="38.72331" lon="-0.06143">
        <ele>649</ele>
        <time>2021-01-31 16:09:12</time>
      </trkpt>
      <trkpt lat="38.7233" lon="-0.06153">
        <ele>649</ele>
        <time>2021-01-31 16:09:13</time>
      </trkpt>
      <trkpt lat="38.72328" lon="-0.06164">
        <ele>648</ele>
        <time>2021-01-31 16:09:14</time>
      </trkpt>
      <trkpt lat="38.72328" lon="-0.06175">
        <ele>647.4</ele>
        <time>2021-01-31 16:09:15</time>
      </trkpt>
      <trkpt lat="38.72327" lon="-0.06184">
        <ele>646.8</ele>
        <time>2021-01-31 16:09:16</time>
      </trkpt>
      <trkpt lat="38.72325" lon="-0.06192">
        <ele>646</ele>
        <time>2021-01-31 16:09:17</time>
      </trkpt>
      <trkpt lat="38.72324" lon="-0.06201">
        <ele>645</ele>
        <time>2021-01-31 16:09:18</time>
      </trkpt>
      <trkpt lat="38.72321" lon="-0.06209">
        <ele>645</ele>
        <time>2021-01-31 16:09:19</time>
      </trkpt>
      <trkpt lat="38.72319" lon="-0.06217">
        <ele>645</ele>
        <time>2021-01-31 16:09:20</time>
      </trkpt>
      <trkpt lat="38.72315" lon="-0.06225">
        <ele>645</ele>
        <time>2021-01-31 16:09:21</time>
      </trkpt>
      <trkpt lat="38.72311" lon="-0.06234">
        <ele>644</ele>
        <time>2021-01-31 16:09:22</time>
      </trkpt>
      <trkpt lat="38.72307" lon="-0.06243">
        <ele>643</ele>
        <time>2021-01-31 16:09:23</time>
      </trkpt>
      <trkpt lat="38.72303" lon="-0.06253">
        <ele>642</ele>
        <time>2021-01-31 16:09:24</time>
      </trkpt>
      <trkpt lat="38.72299" lon="-0.06262">
        <ele>641.2</ele>
        <time>2021-01-31 16:09:25</time>
      </trkpt>
      <trkpt lat="38.72295" lon="-0.06271">
        <ele>640.4</ele>
        <time>2021-01-31 16:09:26</time>
      </trkpt>
      <trkpt lat="38.72291" lon="-0.0628">
        <ele>640.2</ele>
        <time>2021-01-31 16:09:27</time>
      </trkpt>
      <trkpt lat="38.72286" lon="-0.06289">
        <ele>639.6</ele>
        <time>2021-01-31 16:09:28</time>
      </trkpt>
      <trkpt lat="38.72281" lon="-0.06296">
        <ele>639.4</ele>
        <time>2021-01-31 16:09:29</time>
      </trkpt>
      <trkpt lat="38.72275" lon="-0.06303">
        <ele>638.8</ele>
        <time>2021-01-31 16:09:30</time>
      </trkpt>
      <trkpt lat="38.72269" lon="-0.0631">
        <ele>638.4</ele>
        <time>2021-01-31 16:09:31</time>
      </trkpt>
      <trkpt lat="38.72264" lon="-0.06318">
        <ele>637.4</ele>
        <time>2021-01-31 16:09:32</time>
      </trkpt>
      <trkpt lat="38.72258" lon="-0.06325">
        <ele>637.4</ele>
        <time>2021-01-31 16:09:33</time>
      </trkpt>
      <trkpt lat="38.72253" lon="-0.06333">
        <ele>637.4</ele>
        <time>2021-01-31 16:09:34</time>
      </trkpt>
      <trkpt lat="38.72247" lon="-0.0634">
        <ele>637.4</ele>
        <time>2021-01-31 16:09:35</time>
      </trkpt>
      <trkpt lat="38.72242" lon="-0.06346">
        <ele>637.4</ele>
        <time>2021-01-31 16:09:36</time>
      </trkpt>
      <trkpt lat="38.72238" lon="-0.06352">
        <ele>637.4</ele>
        <time>2021-01-31 16:09:37</time>
      </trkpt>
      <trkpt lat="38.72235" lon="-0.06358">
        <ele>637.4</ele>
        <time>2021-01-31 16:09:38</time>
      </trkpt>
      <trkpt lat="38.72233" lon="-0.06364">
        <ele>637.2</ele>
        <time>2021-01-31 16:09:39</time>
      </trkpt>
      <trkpt lat="38.72231" lon="-0.06367">
        <ele>636.8</ele>
        <time>2021-01-31 16:09:40</time>
      </trkpt>
      <trkpt lat="38.7223" lon="-0.0637">
        <ele>636.8</ele>
        <time>2021-01-31 16:09:41</time>
      </trkpt>
      <trkpt lat="38.72228" lon="-0.0637">
        <ele>636.8</ele>
        <time>2021-01-31 16:09:42</time>
      </trkpt>
      <trkpt lat="38.72227" lon="-0.06369">
        <ele>636.8</ele>
        <time>2021-01-31 16:09:43</time>
      </trkpt>
      <trkpt lat="38.72227" lon="-0.06369">
        <ele>636.8</ele>
        <time>2021-01-31 16:09:44</time>
      </trkpt>
      <trkpt lat="38.72227" lon="-0.06369">
        <ele>636.8</ele>
        <time>2021-01-31 16:09:45</time>
      </trkpt>
      <trkpt lat="38.72227" lon="-0.06369">
        <ele>636.8</ele>
        <time>2021-01-31 16:09:46</time>
      </trkpt>
      <trkpt lat="38.72227" lon="-0.06369">
        <ele>636.8</ele>
        <time>2021-01-31 16:09:47</time>
      </trkpt>
      <trkpt lat="38.72227" lon="-0.06369">
        <ele>636.6</ele>
        <time>2021-01-31 16:09:48</time>
      </trkpt>
      <trkpt lat="38.72227" lon="-0.06369">
        <ele>636.4</ele>
        <time>2021-01-31 16:09:49</time>
      </trkpt>
      <trkpt lat="38.72227" lon="-0.06369">
        <ele>636.2</ele>
        <time>2021-01-31 16:09:50</time>
      </trkpt>
      <trkpt lat="38.72227" lon="-0.06369">
        <ele>636.2</ele>
        <time>2021-01-31 16:11:08</time>
      </trkpt>
      <trkpt lat="38.72227" lon="-0.06369">
        <ele>636.2</ele>
        <time>2021-01-31 16:11:09</time>
      </trkpt>
      <trkpt lat="38.72227" lon="-0.06369">
        <ele>636.2</ele>
        <time>2021-01-31 16:11:10</time>
      </trkpt>
      <trkpt lat="38.72227" lon="-0.06369">
        <ele>635.8</ele>
        <time>2021-01-31 16:11:11</time>
      </trkpt>
      <trkpt lat="38.72227" lon="-0.06369">
        <ele>635.8</ele>
        <time>2021-01-31 16:11:12</time>
      </trkpt>
      <trkpt lat="38.72226" lon="-0.06369">
        <ele>635.8</ele>
        <time>2021-01-31 16:11:13</time>
      </trkpt>
      <trkpt lat="38.72226" lon="-0.06369">
        <ele>635.8</ele>
        <time>2021-01-31 16:11:14</time>
      </trkpt>
      <trkpt lat="38.72221" lon="-0.06374">
        <ele>635.4</ele>
        <time>2021-01-31 16:11:15</time>
      </trkpt>
      <trkpt lat="38.72218" lon="-0.06378">
        <ele>634.6</ele>
        <time>2021-01-31 16:11:16</time>
      </trkpt>
      <trkpt lat="38.72215" lon="-0.06383">
        <ele>633.8</ele>
        <time>2021-01-31 16:11:17</time>
      </trkpt>
      <trkpt lat="38.72213" lon="-0.06388">
        <ele>633.6</ele>
        <time>2021-01-31 16:11:18</time>
      </trkpt>
      <trkpt lat="38.72209" lon="-0.06394">
        <ele>633.6</ele>
        <time>2021-01-31 16:11:19</time>
      </trkpt>
      <trkpt lat="38.72207" lon="-0.06401">
        <ele>633.6</ele>
        <time>2021-01-31 16:11:20</time>
      </trkpt>
      <trkpt lat="38.72204" lon="-0.06408">
        <ele>633.6</ele>
        <time>2021-01-31 16:11:21</time>
      </trkpt>
      <trkpt lat="38.72201" lon="-0.06416">
        <ele>632.6</ele>
        <time>2021-01-31 16:11:22</time>
      </trkpt>
      <trkpt lat="38.72198" lon="-0.06425">
        <ele>631.6</ele>
        <time>2021-01-31 16:11:23</time>
      </trkpt>
      <trkpt lat="38.72196" lon="-0.06434">
        <ele>630.6</ele>
        <time>2021-01-31 16:11:24</time>
      </trkpt>
      <trkpt lat="38.72196" lon="-0.06434">
        <ele>629.6</ele>
        <time>2021-01-31 16:11:25</time>
      </trkpt>
      <trkpt lat="38.72189" lon="-0.06452">
        <ele>628.6</ele>
        <time>2021-01-31 16:11:26</time>
      </trkpt>
      <trkpt lat="38.72189" lon="-0.06452">
        <ele>627.6</ele>
        <time>2021-01-31 16:11:27</time>
      </trkpt>
      <trkpt lat="38.72178" lon="-0.06466">
        <ele>626.6</ele>
        <time>2021-01-31 16:11:28</time>
      </trkpt>
      <trkpt lat="38.7217" lon="-0.0647">
        <ele>626.4</ele>
        <time>2021-01-31 16:11:29</time>
      </trkpt>
      <trkpt lat="38.72162" lon="-0.06474">
        <ele>625.8</ele>
        <time>2021-01-31 16:11:30</time>
      </trkpt>
      <trkpt lat="38.72154" lon="-0.06477">
        <ele>625.8</ele>
        <time>2021-01-31 16:11:31</time>
      </trkpt>
      <trkpt lat="38.72145" lon="-0.06479">
        <ele>625.8</ele>
        <time>2021-01-31 16:11:32</time>
      </trkpt>
      <trkpt lat="38.72136" lon="-0.06482">
        <ele>625.8</ele>
        <time>2021-01-31 16:11:33</time>
      </trkpt>
      <trkpt lat="38.72127" lon="-0.06486">
        <ele>624.8</ele>
        <time>2021-01-31 16:11:34</time>
      </trkpt>
      <trkpt lat="38.72118" lon="-0.0649">
        <ele>623.8</ele>
        <time>2021-01-31 16:11:35</time>
      </trkpt>
      <trkpt lat="38.72109" lon="-0.06496">
        <ele>623.8</ele>
        <time>2021-01-31 16:11:36</time>
      </trkpt>
      <trkpt lat="38.72099" lon="-0.06501">
        <ele>623.8</ele>
        <time>2021-01-31 16:11:37</time>
      </trkpt>
      <trkpt lat="38.7209" lon="-0.06507">
        <ele>624.8</ele>
        <time>2021-01-31 16:11:38</time>
      </trkpt>
      <trkpt lat="38.72082" lon="-0.06513">
        <ele>624.8</ele>
        <time>2021-01-31 16:11:39</time>
      </trkpt>
      <trkpt lat="38.72073" lon="-0.06518">
        <ele>624.8</ele>
        <time>2021-01-31 16:11:40</time>
      </trkpt>
      <trkpt lat="38.72065" lon="-0.06524">
        <ele>623.8</ele>
        <time>2021-01-31 16:11:41</time>
      </trkpt>
      <trkpt lat="38.72057" lon="-0.06529">
        <ele>622.8</ele>
        <time>2021-01-31 16:11:42</time>
      </trkpt>
      <trkpt lat="38.7205" lon="-0.06536">
        <ele>621.8</ele>
        <time>2021-01-31 16:11:43</time>
      </trkpt>
      <trkpt lat="38.72043" lon="-0.06544">
        <ele>620.8</ele>
        <time>2021-01-31 16:11:44</time>
      </trkpt>
      <trkpt lat="38.72036" lon="-0.06553">
        <ele>619.8</ele>
        <time>2021-01-31 16:11:45</time>
      </trkpt>
      <trkpt lat="38.72029" lon="-0.06562">
        <ele>618.8</ele>
        <time>2021-01-31 16:11:46</time>
      </trkpt>
      <trkpt lat="38.72022" lon="-0.06571">
        <ele>618.8</ele>
        <time>2021-01-31 16:11:47</time>
      </trkpt>
      <trkpt lat="38.72022" lon="-0.06571">
        <ele>616.8</ele>
        <time>2021-01-31 16:11:48</time>
      </trkpt>
      <trkpt lat="38.72008" lon="-0.06589">
        <ele>615.8</ele>
        <time>2021-01-31 16:11:49</time>
      </trkpt>
      <trkpt lat="38.72" lon="-0.06598">
        <ele>614.8</ele>
        <time>2021-01-31 16:11:50</time>
      </trkpt>
      <trkpt lat="38.71994" lon="-0.06608">
        <ele>614</ele>
        <time>2021-01-31 16:11:51</time>
      </trkpt>
      <trkpt lat="38.71988" lon="-0.06619">
        <ele>613.8</ele>
        <time>2021-01-31 16:11:52</time>
      </trkpt>
      <trkpt lat="38.71983" lon="-0.06631">
        <ele>612.8</ele>
        <time>2021-01-31 16:11:53</time>
      </trkpt>
      <trkpt lat="38.7198" lon="-0.06644">
        <ele>611.8</ele>
        <time>2021-01-31 16:11:54</time>
      </trkpt>
      <trkpt lat="38.71978" lon="-0.06657">
        <ele>610.8</ele>
        <time>2021-01-31 16:11:55</time>
      </trkpt>
      <trkpt lat="38.71977" lon="-0.06671">
        <ele>609.8</ele>
        <time>2021-01-31 16:11:56</time>
      </trkpt>
      <trkpt lat="38.71977" lon="-0.06685">
        <ele>609.6</ele>
        <time>2021-01-31 16:11:57</time>
      </trkpt>
      <trkpt lat="38.71977" lon="-0.067">
        <ele>608.6</ele>
        <time>2021-01-31 16:11:58</time>
      </trkpt>
      <trkpt lat="38.71977" lon="-0.06714">
        <ele>607.6</ele>
        <time>2021-01-31 16:11:59</time>
      </trkpt>
      <trkpt lat="38.71977" lon="-0.06728">
        <ele>606.6</ele>
        <time>2021-01-31 16:12:00</time>
      </trkpt>
      <trkpt lat="38.71974" lon="-0.06743">
        <ele>606.4</ele>
        <time>2021-01-31 16:12:01</time>
      </trkpt>
      <trkpt lat="38.71971" lon="-0.06757">
        <ele>605.4</ele>
        <time>2021-01-31 16:12:02</time>
      </trkpt>
      <trkpt lat="38.71967" lon="-0.06771">
        <ele>604.4</ele>
        <time>2021-01-31 16:12:03</time>
      </trkpt>
      <trkpt lat="38.71963" lon="-0.06785">
        <ele>603.4</ele>
        <time>2021-01-31 16:12:04</time>
      </trkpt>
      <trkpt lat="38.71959" lon="-0.068">
        <ele>602.4</ele>
        <time>2021-01-31 16:12:05</time>
      </trkpt>
      <trkpt lat="38.71955" lon="-0.06814">
        <ele>601.4</ele>
        <time>2021-01-31 16:12:06</time>
      </trkpt>
      <trkpt lat="38.7195" lon="-0.06828">
        <ele>600.4</ele>
        <time>2021-01-31 16:12:07</time>
      </trkpt>
      <trkpt lat="38.71944" lon="-0.06842">
        <ele>599.4</ele>
        <time>2021-01-31 16:12:08</time>
      </trkpt>
      <trkpt lat="38.71938" lon="-0.06856">
        <ele>598.4</ele>
        <time>2021-01-31 16:12:09</time>
      </trkpt>
      <trkpt lat="38.71931" lon="-0.0687">
        <ele>597.4</ele>
        <time>2021-01-31 16:12:10</time>
      </trkpt>
      <trkpt lat="38.71924" lon="-0.06883">
        <ele>596.4</ele>
        <time>2021-01-31 16:12:11</time>
      </trkpt>
      <trkpt lat="38.71917" lon="-0.06897">
        <ele>595.4</ele>
        <time>2021-01-31 16:12:12</time>
      </trkpt>
      <trkpt lat="38.7191" lon="-0.06911">
        <ele>594.4</ele>
        <time>2021-01-31 16:12:13</time>
      </trkpt>
      <trkpt lat="38.71904" lon="-0.06924">
        <ele>593.4</ele>
        <time>2021-01-31 16:12:14</time>
      </trkpt>
      <trkpt lat="38.71897" lon="-0.06938">
        <ele>592.4</ele>
        <time>2021-01-31 16:12:15</time>
      </trkpt>
      <trkpt lat="38.71891" lon="-0.06953">
        <ele>591.4</ele>
        <time>2021-01-31 16:12:16</time>
      </trkpt>
      <trkpt lat="38.71886" lon="-0.06967">
        <ele>590.4</ele>
        <time>2021-01-31 16:12:17</time>
      </trkpt>
      <trkpt lat="38.7188" lon="-0.06981">
        <ele>590.4</ele>
        <time>2021-01-31 16:12:18</time>
      </trkpt>
      <trkpt lat="38.7188" lon="-0.06981">
        <ele>590.4</ele>
        <time>2021-01-31 16:12:19</time>
      </trkpt>
      <trkpt lat="38.71866" lon="-0.07005">
        <ele>590.4</ele>
        <time>2021-01-31 16:12:20</time>
      </trkpt>
      <trkpt lat="38.71859" lon="-0.07017">
        <ele>590.4</ele>
        <time>2021-01-31 16:12:21</time>
      </trkpt>
      <trkpt lat="38.71852" lon="-0.07028">
        <ele>589.4</ele>
        <time>2021-01-31 16:12:22</time>
      </trkpt>
      <trkpt lat="38.71845" lon="-0.07039">
        <ele>588.8</ele>
        <time>2021-01-31 16:12:23</time>
      </trkpt>
      <trkpt lat="38.71841" lon="-0.07051">
        <ele>588.8</ele>
        <time>2021-01-31 16:12:24</time>
      </trkpt>
      <trkpt lat="38.71837" lon="-0.07063">
        <ele>588.8</ele>
        <time>2021-01-31 16:12:25</time>
      </trkpt>
      <trkpt lat="38.71835" lon="-0.07075">
        <ele>588.8</ele>
        <time>2021-01-31 16:12:26</time>
      </trkpt>
      <trkpt lat="38.71835" lon="-0.07087">
        <ele>588.8</ele>
        <time>2021-01-31 16:12:27</time>
      </trkpt>
      <trkpt lat="38.71837" lon="-0.07099">
        <ele>588.8</ele>
        <time>2021-01-31 16:12:28</time>
      </trkpt>
      <trkpt lat="38.71841" lon="-0.0711">
        <ele>587.8</ele>
        <time>2021-01-31 16:12:29</time>
      </trkpt>
      <trkpt lat="38.71845" lon="-0.07121">
        <ele>586.8</ele>
        <time>2021-01-31 16:12:30</time>
      </trkpt>
      <trkpt lat="38.7185" lon="-0.07132">
        <ele>586.2</ele>
        <time>2021-01-31 16:12:31</time>
      </trkpt>
      <trkpt lat="38.71855" lon="-0.07143">
        <ele>585.6</ele>
        <time>2021-01-31 16:12:32</time>
      </trkpt>
      <trkpt lat="38.7186" lon="-0.07154">
        <ele>584.6</ele>
        <time>2021-01-31 16:12:33</time>
      </trkpt>
      <trkpt lat="38.71865" lon="-0.07165">
        <ele>584.6</ele>
        <time>2021-01-31 16:12:34</time>
      </trkpt>
      <trkpt lat="38.71867" lon="-0.07176">
        <ele>584.6</ele>
        <time>2021-01-31 16:12:35</time>
      </trkpt>
      <trkpt lat="38.71868" lon="-0.07188">
        <ele>584.6</ele>
        <time>2021-01-31 16:12:36</time>
      </trkpt>
      <trkpt lat="38.71864" lon="-0.07199">
        <ele>584.6</ele>
        <time>2021-01-31 16:12:37</time>
      </trkpt>
      <trkpt lat="38.71858" lon="-0.0721">
        <ele>583.6</ele>
        <time>2021-01-31 16:12:38</time>
      </trkpt>
      <trkpt lat="38.7185" lon="-0.07218">
        <ele>582.6</ele>
        <time>2021-01-31 16:12:39</time>
      </trkpt>
      <trkpt lat="38.71843" lon="-0.07227">
        <ele>581.6</ele>
        <time>2021-01-31 16:12:40</time>
      </trkpt>
      <trkpt lat="38.71835" lon="-0.07236">
        <ele>580.6</ele>
        <time>2021-01-31 16:12:41</time>
      </trkpt>
      <trkpt lat="38.71828" lon="-0.07246">
        <ele>579.6</ele>
        <time>2021-01-31 16:12:42</time>
      </trkpt>
      <trkpt lat="38.7182" lon="-0.07255">
        <ele>578.6</ele>
        <time>2021-01-31 16:12:43</time>
      </trkpt>
      <trkpt lat="38.71813" lon="-0.07265">
        <ele>577.6</ele>
        <time>2021-01-31 16:12:44</time>
      </trkpt>
      <trkpt lat="38.71806" lon="-0.07276">
        <ele>576.6</ele>
        <time>2021-01-31 16:12:45</time>
      </trkpt>
      <trkpt lat="38.71799" lon="-0.07287">
        <ele>576</ele>
        <time>2021-01-31 16:12:46</time>
      </trkpt>
      <trkpt lat="38.71795" lon="-0.07299">
        <ele>576</ele>
        <time>2021-01-31 16:12:47</time>
      </trkpt>
      <trkpt lat="38.71792" lon="-0.07313">
        <ele>576</ele>
        <time>2021-01-31 16:12:48</time>
      </trkpt>
      <trkpt lat="38.71792" lon="-0.07326">
        <ele>576.2</ele>
        <time>2021-01-31 16:12:49</time>
      </trkpt>
      <trkpt lat="38.71791" lon="-0.0734">
        <ele>576.2</ele>
        <time>2021-01-31 16:12:50</time>
      </trkpt>
      <trkpt lat="38.71789" lon="-0.07355">
        <ele>576.2</ele>
        <time>2021-01-31 16:12:51</time>
      </trkpt>
      <trkpt lat="38.71785" lon="-0.07368">
        <ele>576.2</ele>
        <time>2021-01-31 16:12:52</time>
      </trkpt>
      <trkpt lat="38.71785" lon="-0.07368">
        <ele>574.2</ele>
        <time>2021-01-31 16:12:53</time>
      </trkpt>
      <trkpt lat="38.71774" lon="-0.07393">
        <ele>573.2</ele>
        <time>2021-01-31 16:12:54</time>
      </trkpt>
      <trkpt lat="38.71769" lon="-0.07407">
        <ele>572.2</ele>
        <time>2021-01-31 16:12:55</time>
      </trkpt>
      <trkpt lat="38.71764" lon="-0.0742">
        <ele>571.2</ele>
        <time>2021-01-31 16:12:56</time>
      </trkpt>
      <trkpt lat="38.71761" lon="-0.07434">
        <ele>570.2</ele>
        <time>2021-01-31 16:12:57</time>
      </trkpt>
      <trkpt lat="38.71757" lon="-0.07448">
        <ele>569.2</ele>
        <time>2021-01-31 16:12:58</time>
      </trkpt>
      <trkpt lat="38.71754" lon="-0.07462">
        <ele>568.2</ele>
        <time>2021-01-31 16:12:59</time>
      </trkpt>
      <trkpt lat="38.7175" lon="-0.07476">
        <ele>568.2</ele>
        <time>2021-01-31 16:13:00</time>
      </trkpt>
      <trkpt lat="38.71748" lon="-0.0749">
        <ele>568.2</ele>
        <time>2021-01-31 16:13:01</time>
      </trkpt>
      <trkpt lat="38.71747" lon="-0.07503">
        <ele>568.2</ele>
        <time>2021-01-31 16:13:02</time>
      </trkpt>
      <trkpt lat="38.71747" lon="-0.07515">
        <ele>568.2</ele>
        <time>2021-01-31 16:13:03</time>
      </trkpt>
      <trkpt lat="38.71744" lon="-0.07527">
        <ele>568.2</ele>
        <time>2021-01-31 16:13:04</time>
      </trkpt>
      <trkpt lat="38.71738" lon="-0.07537">
        <ele>568.2</ele>
        <time>2021-01-31 16:13:05</time>
      </trkpt>
      <trkpt lat="38.71729" lon="-0.07544">
        <ele>568.2</ele>
        <time>2021-01-31 16:13:06</time>
      </trkpt>
      <trkpt lat="38.71722" lon="-0.07552">
        <ele>567.4</ele>
        <time>2021-01-31 16:13:07</time>
      </trkpt>
      <trkpt lat="38.71717" lon="-0.07563">
        <ele>567</ele>
        <time>2021-01-31 16:13:08</time>
      </trkpt>
      <trkpt lat="38.71714" lon="-0.07575">
        <ele>566.8</ele>
        <time>2021-01-31 16:13:09</time>
      </trkpt>
      <trkpt lat="38.71708" lon="-0.07584">
        <ele>565.8</ele>
        <time>2021-01-31 16:13:10</time>
      </trkpt>
      <trkpt lat="38.717" lon="-0.0759">
        <ele>565.2</ele>
        <time>2021-01-31 16:13:11</time>
      </trkpt>
      <trkpt lat="38.71689" lon="-0.0759">
        <ele>565.2</ele>
        <time>2021-01-31 16:13:12</time>
      </trkpt>
      <trkpt lat="38.71681" lon="-0.07587">
        <ele>565.2</ele>
        <time>2021-01-31 16:13:13</time>
      </trkpt>
      <trkpt lat="38.71672" lon="-0.07585">
        <ele>565.2</ele>
        <time>2021-01-31 16:13:14</time>
      </trkpt>
      <trkpt lat="38.71663" lon="-0.07586">
        <ele>564.2</ele>
        <time>2021-01-31 16:13:15</time>
      </trkpt>
      <trkpt lat="38.71655" lon="-0.07591">
        <ele>564.2</ele>
        <time>2021-01-31 16:13:16</time>
      </trkpt>
      <trkpt lat="38.71648" lon="-0.07599">
        <ele>564.2</ele>
        <time>2021-01-31 16:13:17</time>
      </trkpt>
      <trkpt lat="38.71644" lon="-0.07609">
        <ele>565.2</ele>
        <time>2021-01-31 16:13:18</time>
      </trkpt>
      <trkpt lat="38.71643" lon="-0.07619">
        <ele>565.2</ele>
        <time>2021-01-31 16:13:19</time>
      </trkpt>
      <trkpt lat="38.71644" lon="-0.07629">
        <ele>565.2</ele>
        <time>2021-01-31 16:13:20</time>
      </trkpt>
      <trkpt lat="38.71645" lon="-0.07639">
        <ele>565.2</ele>
        <time>2021-01-31 16:13:21</time>
      </trkpt>
      <trkpt lat="38.71647" lon="-0.07649">
        <ele>565.2</ele>
        <time>2021-01-31 16:13:22</time>
      </trkpt>
      <trkpt lat="38.7165" lon="-0.07658">
        <ele>566.2</ele>
        <time>2021-01-31 16:13:23</time>
      </trkpt>
      <trkpt lat="38.71653" lon="-0.07667">
        <ele>566.6</ele>
        <time>2021-01-31 16:13:24</time>
      </trkpt>
      <trkpt lat="38.71657" lon="-0.07675">
        <ele>566.6</ele>
        <time>2021-01-31 16:13:25</time>
      </trkpt>
      <trkpt lat="38.71661" lon="-0.07684">
        <ele>566.6</ele>
        <time>2021-01-31 16:13:26</time>
      </trkpt>
      <trkpt lat="38.71666" lon="-0.07692">
        <ele>565.6</ele>
        <time>2021-01-31 16:13:27</time>
      </trkpt>
      <trkpt lat="38.71671" lon="-0.07701">
        <ele>564.6</ele>
        <time>2021-01-31 16:13:28</time>
      </trkpt>
      <trkpt lat="38.71676" lon="-0.0771">
        <ele>563.6</ele>
        <time>2021-01-31 16:13:29</time>
      </trkpt>
      <trkpt lat="38.7168" lon="-0.07721">
        <ele>562.6</ele>
        <time>2021-01-31 16:13:30</time>
      </trkpt>
      <trkpt lat="38.71681" lon="-0.07732">
        <ele>561.6</ele>
        <time>2021-01-31 16:13:31</time>
      </trkpt>
      <trkpt lat="38.7168" lon="-0.07745">
        <ele>560.6</ele>
        <time>2021-01-31 16:13:32</time>
      </trkpt>
      <trkpt lat="38.71677" lon="-0.07757">
        <ele>559.6</ele>
        <time>2021-01-31 16:13:33</time>
      </trkpt>
      <trkpt lat="38.71672" lon="-0.07768">
        <ele>559.6</ele>
        <time>2021-01-31 16:13:34</time>
      </trkpt>
      <trkpt lat="38.71672" lon="-0.07768">
        <ele>559.6</ele>
        <time>2021-01-31 16:13:35</time>
      </trkpt>
      <trkpt lat="38.71672" lon="-0.07768">
        <ele>559.6</ele>
        <time>2021-01-31 16:13:36</time>
      </trkpt>
      <trkpt lat="38.71672" lon="-0.07768">
        <ele>560</ele>
        <time>2021-01-31 16:13:37</time>
      </trkpt>
      <trkpt lat="38.71653" lon="-0.07806">
        <ele>561</ele>
        <time>2021-01-31 16:13:38</time>
      </trkpt>
      <trkpt lat="38.7165" lon="-0.07815">
        <ele>562</ele>
        <time>2021-01-31 16:13:39</time>
      </trkpt>
      <trkpt lat="38.71647" lon="-0.07823">
        <ele>563</ele>
        <time>2021-01-31 16:13:40</time>
      </trkpt>
      <trkpt lat="38.71644" lon="-0.0783">
        <ele>563.2</ele>
        <time>2021-01-31 16:13:41</time>
      </trkpt>
      <trkpt lat="38.71642" lon="-0.07837">
        <ele>564.2</ele>
        <time>2021-01-31 16:13:42</time>
      </trkpt>
      <trkpt lat="38.7164" lon="-0.07843">
        <ele>565.2</ele>
        <time>2021-01-31 16:13:43</time>
      </trkpt>
      <trkpt lat="38.71638" lon="-0.07849">
        <ele>566.2</ele>
        <time>2021-01-31 16:13:44</time>
      </trkpt>
      <trkpt lat="38.71636" lon="-0.07856">
        <ele>567.2</ele>
        <time>2021-01-31 16:13:45</time>
      </trkpt>
      <trkpt lat="38.71634" lon="-0.07862">
        <ele>567.8</ele>
        <time>2021-01-31 16:13:46</time>
      </trkpt>
      <trkpt lat="38.71632" lon="-0.07868">
        <ele>568</ele>
        <time>2021-01-31 16:13:47</time>
      </trkpt>
      <trkpt lat="38.7163" lon="-0.07874">
        <ele>568.8</ele>
        <time>2021-01-31 16:13:48</time>
      </trkpt>
      <trkpt lat="38.71627" lon="-0.0788">
        <ele>568.8</ele>
        <time>2021-01-31 16:13:49</time>
      </trkpt>
      <trkpt lat="38.71624" lon="-0.07886">
        <ele>568.8</ele>
        <time>2021-01-31 16:13:50</time>
      </trkpt>
      <trkpt lat="38.71621" lon="-0.07892">
        <ele>568.2</ele>
        <time>2021-01-31 16:13:51</time>
      </trkpt>
      <trkpt lat="38.71619" lon="-0.07897">
        <ele>568.2</ele>
        <time>2021-01-31 16:13:52</time>
      </trkpt>
      <trkpt lat="38.71614" lon="-0.07902">
        <ele>568.2</ele>
        <time>2021-01-31 16:13:53</time>
      </trkpt>
      <trkpt lat="38.7161" lon="-0.07907">
        <ele>568.2</ele>
        <time>2021-01-31 16:13:54</time>
      </trkpt>
      <trkpt lat="38.71605" lon="-0.07912">
        <ele>567.2</ele>
        <time>2021-01-31 16:13:55</time>
      </trkpt>
      <trkpt lat="38.716" lon="-0.07916">
        <ele>567.2</ele>
        <time>2021-01-31 16:13:56</time>
      </trkpt>
      <trkpt lat="38.71595" lon="-0.0792">
        <ele>567.2</ele>
        <time>2021-01-31 16:13:57</time>
      </trkpt>
      <trkpt lat="38.71591" lon="-0.07924">
        <ele>567.8</ele>
        <time>2021-01-31 16:13:58</time>
      </trkpt>
      <trkpt lat="38.71585" lon="-0.07927">
        <ele>567.8</ele>
        <time>2021-01-31 16:13:59</time>
      </trkpt>
      <trkpt lat="38.7158" lon="-0.0793">
        <ele>567.8</ele>
        <time>2021-01-31 16:14:00</time>
      </trkpt>
      <trkpt lat="38.7158" lon="-0.0793">
        <ele>567.8</ele>
        <time>2021-01-31 16:14:01</time>
      </trkpt>
      <trkpt lat="38.71569" lon="-0.07934">
        <ele>567.8</ele>
        <time>2021-01-31 16:14:02</time>
      </trkpt>
      <trkpt lat="38.71563" lon="-0.07935">
        <ele>567.8</ele>
        <time>2021-01-31 16:14:03</time>
      </trkpt>
      <trkpt lat="38.71558" lon="-0.07936">
        <ele>567.8</ele>
        <time>2021-01-31 16:14:04</time>
      </trkpt>
      <trkpt lat="38.71552" lon="-0.07937">
        <ele>567.8</ele>
        <time>2021-01-31 16:14:05</time>
      </trkpt>
      <trkpt lat="38.71552" lon="-0.07937">
        <ele>567.8</ele>
        <time>2021-01-31 16:14:06</time>
      </trkpt>
      <trkpt lat="38.71552" lon="-0.07937">
        <ele>567.8</ele>
        <time>2021-01-31 16:14:07</time>
      </trkpt>
      <trkpt lat="38.71552" lon="-0.07937">
        <ele>568.8</ele>
        <time>2021-01-31 16:14:08</time>
      </trkpt>
      <trkpt lat="38.71527" lon="-0.07941">
        <ele>568.8</ele>
        <time>2021-01-31 16:14:09</time>
      </trkpt>
      <trkpt lat="38.71522" lon="-0.07945">
        <ele>568.8</ele>
        <time>2021-01-31 16:14:10</time>
      </trkpt>
      <trkpt lat="38.71517" lon="-0.07952">
        <ele>567.8</ele>
        <time>2021-01-31 16:14:11</time>
      </trkpt>
      <trkpt lat="38.71513" lon="-0.0796">
        <ele>567.2</ele>
        <time>2021-01-31 16:14:12</time>
      </trkpt>
      <trkpt lat="38.71509" lon="-0.0797">
        <ele>567.2</ele>
        <time>2021-01-31 16:14:13</time>
      </trkpt>
      <trkpt lat="38.71509" lon="-0.0797">
        <ele>567.2</ele>
        <time>2021-01-31 16:14:14</time>
      </trkpt>
      <trkpt lat="38.71509" lon="-0.0797">
        <ele>567.2</ele>
        <time>2021-01-31 16:14:15</time>
      </trkpt>
      <trkpt lat="38.71509" lon="-0.0797">
        <ele>567.2</ele>
        <time>2021-01-31 16:14:16</time>
      </trkpt>
      <trkpt lat="38.71509" lon="-0.0797">
        <ele>566.6</ele>
        <time>2021-01-31 16:14:17</time>
      </trkpt>
      <trkpt lat="38.71481" lon="-0.08008">
        <ele>566.6</ele>
        <time>2021-01-31 16:14:18</time>
      </trkpt>
      <trkpt lat="38.71477" lon="-0.08017">
        <ele>567.6</ele>
        <time>2021-01-31 16:14:19</time>
      </trkpt>
      <trkpt lat="38.71475" lon="-0.08026">
        <ele>568.6</ele>
        <time>2021-01-31 16:14:20</time>
      </trkpt>
      <trkpt lat="38.71476" lon="-0.08034">
        <ele>569.6</ele>
        <time>2021-01-31 16:14:21</time>
      </trkpt>
      <trkpt lat="38.7148" lon="-0.08041">
        <ele>570</ele>
        <time>2021-01-31 16:14:22</time>
      </trkpt>
      <trkpt lat="38.71484" lon="-0.08047">
        <ele>570</ele>
        <time>2021-01-31 16:14:23</time>
      </trkpt>
      <trkpt lat="38.71489" lon="-0.08052">
        <ele>570</ele>
        <time>2021-01-31 16:14:24</time>
      </trkpt>
      <trkpt lat="38.71494" lon="-0.08056">
        <ele>570</ele>
        <time>2021-01-31 16:14:25</time>
      </trkpt>
      <trkpt lat="38.71498" lon="-0.08061">
        <ele>570.2</ele>
        <time>2021-01-31 16:14:26</time>
      </trkpt>
      <trkpt lat="38.71502" lon="-0.08066">
        <ele>570.4</ele>
        <time>2021-01-31 16:14:27</time>
      </trkpt>
      <trkpt lat="38.71507" lon="-0.08071">
        <ele>570.4</ele>
        <time>2021-01-31 16:14:28</time>
      </trkpt>
      <trkpt lat="38.71513" lon="-0.08075">
        <ele>570.4</ele>
        <time>2021-01-31 16:14:29</time>
      </trkpt>
      <trkpt lat="38.71518" lon="-0.0808">
        <ele>570.4</ele>
        <time>2021-01-31 16:14:30</time>
      </trkpt>
      <trkpt lat="38.71523" lon="-0.08084">
        <ele>570</ele>
        <time>2021-01-31 16:14:31</time>
      </trkpt>
      <trkpt lat="38.71528" lon="-0.08089">
        <ele>569.8</ele>
        <time>2021-01-31 16:14:32</time>
      </trkpt>
      <trkpt lat="38.7153" lon="-0.08096">
        <ele>568.8</ele>
        <time>2021-01-31 16:14:33</time>
      </trkpt>
      <trkpt lat="38.71531" lon="-0.08103">
        <ele>568</ele>
        <time>2021-01-31 16:14:34</time>
      </trkpt>
      <trkpt lat="38.7153" lon="-0.08112">
        <ele>568</ele>
        <time>2021-01-31 16:14:35</time>
      </trkpt>
      <trkpt lat="38.71527" lon="-0.08121">
        <ele>568</ele>
        <time>2021-01-31 16:14:36</time>
      </trkpt>
      <trkpt lat="38.71523" lon="-0.08131">
        <ele>568</ele>
        <time>2021-01-31 16:14:37</time>
      </trkpt>
      <trkpt lat="38.7152" lon="-0.0814">
        <ele>568</ele>
        <time>2021-01-31 16:14:38</time>
      </trkpt>
      <trkpt lat="38.71516" lon="-0.08148">
        <ele>568</ele>
        <time>2021-01-31 16:14:39</time>
      </trkpt>
      <trkpt lat="38.71513" lon="-0.08157">
        <ele>568</ele>
        <time>2021-01-31 16:14:40</time>
      </trkpt>
      <trkpt lat="38.71509" lon="-0.08165">
        <ele>567</ele>
        <time>2021-01-31 16:14:41</time>
      </trkpt>
      <trkpt lat="38.71505" lon="-0.08173">
        <ele>566.6</ele>
        <time>2021-01-31 16:14:42</time>
      </trkpt>
      <trkpt lat="38.71501" lon="-0.0818">
        <ele>566.6</ele>
        <time>2021-01-31 16:14:43</time>
      </trkpt>
      <trkpt lat="38.71496" lon="-0.08187">
        <ele>566.6</ele>
        <time>2021-01-31 16:14:44</time>
      </trkpt>
      <trkpt lat="38.7149" lon="-0.08193">
        <ele>567.6</ele>
        <time>2021-01-31 16:14:45</time>
      </trkpt>
      <trkpt lat="38.71485" lon="-0.08199">
        <ele>567.6</ele>
        <time>2021-01-31 16:14:46</time>
      </trkpt>
      <trkpt lat="38.7148" lon="-0.08206">
        <ele>567.6</ele>
        <time>2021-01-31 16:14:47</time>
      </trkpt>
      <trkpt lat="38.71475" lon="-0.08213">
        <ele>566.6</ele>
        <time>2021-01-31 16:14:48</time>
      </trkpt>
      <trkpt lat="38.71471" lon="-0.0822">
        <ele>566.6</ele>
        <time>2021-01-31 16:14:49</time>
      </trkpt>
      <trkpt lat="38.71467" lon="-0.08227">
        <ele>566.6</ele>
        <time>2021-01-31 16:14:50</time>
      </trkpt>
      <trkpt lat="38.71463" lon="-0.08235">
        <ele>566.6</ele>
        <time>2021-01-31 16:14:51</time>
      </trkpt>
      <trkpt lat="38.71459" lon="-0.08241">
        <ele>566.6</ele>
        <time>2021-01-31 16:14:52</time>
      </trkpt>
      <trkpt lat="38.71459" lon="-0.08241">
        <ele>566.6</ele>
        <time>2021-01-31 16:14:53</time>
      </trkpt>
      <trkpt lat="38.71459" lon="-0.08241">
        <ele>566.6</ele>
        <time>2021-01-31 16:14:54</time>
      </trkpt>
      <trkpt lat="38.71459" lon="-0.08241">
        <ele>566.6</ele>
        <time>2021-01-31 16:14:55</time>
      </trkpt>
      <trkpt lat="38.71437" lon="-0.08263">
        <ele>565.6</ele>
        <time>2021-01-31 16:14:56</time>
      </trkpt>
      <trkpt lat="38.7143" lon="-0.08268">
        <ele>565.4</ele>
        <time>2021-01-31 16:14:57</time>
      </trkpt>
      <trkpt lat="38.71424" lon="-0.08272">
        <ele>565.2</ele>
        <time>2021-01-31 16:14:58</time>
      </trkpt>
      <trkpt lat="38.71417" lon="-0.08276">
        <ele>565.2</ele>
        <time>2021-01-31 16:14:59</time>
      </trkpt>
      <trkpt lat="38.7141" lon="-0.0828">
        <ele>565.2</ele>
        <time>2021-01-31 16:15:00</time>
      </trkpt>
      <trkpt lat="38.71404" lon="-0.08285">
        <ele>565.2</ele>
        <time>2021-01-31 16:15:01</time>
      </trkpt>
      <trkpt lat="38.71397" lon="-0.08292">
        <ele>564.2</ele>
        <time>2021-01-31 16:15:02</time>
      </trkpt>
      <trkpt lat="38.71392" lon="-0.083">
        <ele>563.2</ele>
        <time>2021-01-31 16:15:03</time>
      </trkpt>
      <trkpt lat="38.71388" lon="-0.08308">
        <ele>563.2</ele>
        <time>2021-01-31 16:15:04</time>
      </trkpt>
      <trkpt lat="38.71385" lon="-0.08316">
        <ele>563.2</ele>
        <time>2021-01-31 16:15:05</time>
      </trkpt>
      <trkpt lat="38.71383" lon="-0.08326">
        <ele>563.8</ele>
        <time>2021-01-31 16:15:06</time>
      </trkpt>
      <trkpt lat="38.71382" lon="-0.08334">
        <ele>564.4</ele>
        <time>2021-01-31 16:15:07</time>
      </trkpt>
      <trkpt lat="38.71382" lon="-0.08343">
        <ele>564.4</ele>
        <time>2021-01-31 16:15:08</time>
      </trkpt>
      <trkpt lat="38.71382" lon="-0.08352">
        <ele>564.4</ele>
        <time>2021-01-31 16:15:09</time>
      </trkpt>
      <trkpt lat="38.71382" lon="-0.08361">
        <ele>564.4</ele>
        <time>2021-01-31 16:15:10</time>
      </trkpt>
      <trkpt lat="38.71383" lon="-0.08369">
        <ele>564.4</ele>
        <time>2021-01-31 16:15:11</time>
      </trkpt>
      <trkpt lat="38.71383" lon="-0.08377">
        <ele>564.4</ele>
        <time>2021-01-31 16:15:12</time>
      </trkpt>
      <trkpt lat="38.71384" lon="-0.08385">
        <ele>565.4</ele>
        <time>2021-01-31 16:15:13</time>
      </trkpt>
      <trkpt lat="38.71386" lon="-0.08393">
        <ele>566.4</ele>
        <time>2021-01-31 16:15:14</time>
      </trkpt>
      <trkpt lat="38.71387" lon="-0.08401">
        <ele>566.4</ele>
        <time>2021-01-31 16:15:15</time>
      </trkpt>
      <trkpt lat="38.71388" lon="-0.08409">
        <ele>566.4</ele>
        <time>2021-01-31 16:15:16</time>
      </trkpt>
      <trkpt lat="38.71389" lon="-0.08417">
        <ele>566.4</ele>
        <time>2021-01-31 16:15:17</time>
      </trkpt>
      <trkpt lat="38.7139" lon="-0.08425">
        <ele>567.2</ele>
        <time>2021-01-31 16:15:18</time>
      </trkpt>
      <trkpt lat="38.7139" lon="-0.08433">
        <ele>567.2</ele>
        <time>2021-01-31 16:15:19</time>
      </trkpt>
      <trkpt lat="38.71389" lon="-0.08441">
        <ele>567.2</ele>
        <time>2021-01-31 16:15:20</time>
      </trkpt>
      <trkpt lat="38.71389" lon="-0.08449">
        <ele>567.2</ele>
        <time>2021-01-31 16:15:21</time>
      </trkpt>
      <trkpt lat="38.71388" lon="-0.08456">
        <ele>567.2</ele>
        <time>2021-01-31 16:15:22</time>
      </trkpt>
      <trkpt lat="38.71388" lon="-0.08464">
        <ele>567.6</ele>
        <time>2021-01-31 16:15:23</time>
      </trkpt>
      <trkpt lat="38.71388" lon="-0.08471">
        <ele>568.6</ele>
        <time>2021-01-31 16:15:24</time>
      </trkpt>
      <trkpt lat="38.71388" lon="-0.08479">
        <ele>568.8</ele>
        <time>2021-01-31 16:15:25</time>
      </trkpt>
      <trkpt lat="38.71388" lon="-0.08486">
        <ele>568.8</ele>
        <time>2021-01-31 16:15:26</time>
      </trkpt>
      <trkpt lat="38.71388" lon="-0.08493">
        <ele>568.8</ele>
        <time>2021-01-31 16:15:27</time>
      </trkpt>
      <trkpt lat="38.71389" lon="-0.08501">
        <ele>568.8</ele>
        <time>2021-01-31 16:15:28</time>
      </trkpt>
      <trkpt lat="38.7139" lon="-0.08508">
        <ele>569.6</ele>
        <time>2021-01-31 16:15:29</time>
      </trkpt>
      <trkpt lat="38.71391" lon="-0.08515">
        <ele>570.4</ele>
        <time>2021-01-31 16:15:30</time>
      </trkpt>
      <trkpt lat="38.71393" lon="-0.08521">
        <ele>571.2</ele>
        <time>2021-01-31 16:15:31</time>
      </trkpt>
      <trkpt lat="38.71395" lon="-0.08528">
        <ele>571.2</ele>
        <time>2021-01-31 16:15:32</time>
      </trkpt>
      <trkpt lat="38.71397" lon="-0.08534">
        <ele>571.2</ele>
        <time>2021-01-31 16:15:33</time>
      </trkpt>
      <trkpt lat="38.71399" lon="-0.0854">
        <ele>571.2</ele>
        <time>2021-01-31 16:15:34</time>
      </trkpt>
      <trkpt lat="38.71402" lon="-0.08546">
        <ele>572</ele>
        <time>2021-01-31 16:15:35</time>
      </trkpt>
      <trkpt lat="38.71403" lon="-0.08552">
        <ele>572.8</ele>
        <time>2021-01-31 16:15:36</time>
      </trkpt>
      <trkpt lat="38.71405" lon="-0.08558">
        <ele>573</ele>
        <time>2021-01-31 16:15:37</time>
      </trkpt>
      <trkpt lat="38.71405" lon="-0.08564">
        <ele>573</ele>
        <time>2021-01-31 16:15:38</time>
      </trkpt>
      <trkpt lat="38.71406" lon="-0.0857">
        <ele>573</ele>
        <time>2021-01-31 16:15:39</time>
      </trkpt>
      <trkpt lat="38.71406" lon="-0.08575">
        <ele>573</ele>
        <time>2021-01-31 16:15:40</time>
      </trkpt>
      <trkpt lat="38.71405" lon="-0.08579">
        <ele>573.6</ele>
        <time>2021-01-31 16:15:41</time>
      </trkpt>
      <trkpt lat="38.71405" lon="-0.08584">
        <ele>573.6</ele>
        <time>2021-01-31 16:15:42</time>
      </trkpt>
      <trkpt lat="38.71403" lon="-0.08588">
        <ele>573.6</ele>
        <time>2021-01-31 16:15:43</time>
      </trkpt>
      <trkpt lat="38.71401" lon="-0.08592">
        <ele>573.6</ele>
        <time>2021-01-31 16:15:44</time>
      </trkpt>
      <trkpt lat="38.71399" lon="-0.08595">
        <ele>573.6</ele>
        <time>2021-01-31 16:15:45</time>
      </trkpt>
      <trkpt lat="38.71397" lon="-0.08598">
        <ele>573.8</ele>
        <time>2021-01-31 16:15:46</time>
      </trkpt>
      <trkpt lat="38.71395" lon="-0.08601">
        <ele>574</ele>
        <time>2021-01-31 16:15:47</time>
      </trkpt>
      <trkpt lat="38.71392" lon="-0.08603">
        <ele>574.4</ele>
        <time>2021-01-31 16:15:48</time>
      </trkpt>
      <trkpt lat="38.71389" lon="-0.08605">
        <ele>574.4</ele>
        <time>2021-01-31 16:15:49</time>
      </trkpt>
      <trkpt lat="38.71386" lon="-0.08606">
        <ele>574.4</ele>
        <time>2021-01-31 16:15:50</time>
      </trkpt>
      <trkpt lat="38.71383" lon="-0.08607">
        <ele>574.4</ele>
        <time>2021-01-31 16:15:51</time>
      </trkpt>
      <trkpt lat="38.7138" lon="-0.08608">
        <ele>574.4</ele>
        <time>2021-01-31 16:15:52</time>
      </trkpt>
      <trkpt lat="38.71378" lon="-0.08609">
        <ele>574.4</ele>
        <time>2021-01-31 16:15:53</time>
      </trkpt>
      <trkpt lat="38.71375" lon="-0.0861">
        <ele>575</ele>
        <time>2021-01-31 16:15:54</time>
      </trkpt>
      <trkpt lat="38.71372" lon="-0.08611">
        <ele>575.2</ele>
        <time>2021-01-31 16:15:55</time>
      </trkpt>
      <trkpt lat="38.71369" lon="-0.08611">
        <ele>575.2</ele>
        <time>2021-01-31 16:15:56</time>
      </trkpt>
      <trkpt lat="38.71366" lon="-0.08612">
        <ele>575.2</ele>
        <time>2021-01-31 16:15:57</time>
      </trkpt>
      <trkpt lat="38.71363" lon="-0.08613">
        <ele>575.2</ele>
        <time>2021-01-31 16:15:58</time>
      </trkpt>
      <trkpt lat="38.71361" lon="-0.08614">
        <ele>575.2</ele>
        <time>2021-01-31 16:15:59</time>
      </trkpt>
      <trkpt lat="38.71358" lon="-0.08615">
        <ele>576</ele>
        <time>2021-01-31 16:16:00</time>
      </trkpt>
      <trkpt lat="38.71356" lon="-0.08616">
        <ele>576.4</ele>
        <time>2021-01-31 16:16:01</time>
      </trkpt>
      <trkpt lat="38.71353" lon="-0.08617">
        <ele>576.4</ele>
        <time>2021-01-31 16:16:02</time>
      </trkpt>
      <trkpt lat="38.7135" lon="-0.08618">
        <ele>576.4</ele>
        <time>2021-01-31 16:16:03</time>
      </trkpt>
      <trkpt lat="38.71348" lon="-0.08619">
        <ele>576.4</ele>
        <time>2021-01-31 16:16:04</time>
      </trkpt>
      <trkpt lat="38.71345" lon="-0.0862">
        <ele>576.4</ele>
        <time>2021-01-31 16:16:05</time>
      </trkpt>
      <trkpt lat="38.71343" lon="-0.08622">
        <ele>576.4</ele>
        <time>2021-01-31 16:16:06</time>
      </trkpt>
      <trkpt lat="38.7134" lon="-0.08623">
        <ele>577.2</ele>
        <time>2021-01-31 16:16:07</time>
      </trkpt>
      <trkpt lat="38.71338" lon="-0.08625">
        <ele>577.4</ele>
        <time>2021-01-31 16:16:08</time>
      </trkpt>
      <trkpt lat="38.71335" lon="-0.08627">
        <ele>578</ele>
        <time>2021-01-31 16:16:09</time>
      </trkpt>
      <trkpt lat="38.71333" lon="-0.08629">
        <ele>578</ele>
        <time>2021-01-31 16:16:10</time>
      </trkpt>
      <trkpt lat="38.71331" lon="-0.08631">
        <ele>578</ele>
        <time>2021-01-31 16:16:11</time>
      </trkpt>
      <trkpt lat="38.71329" lon="-0.08633">
        <ele>578</ele>
        <time>2021-01-31 16:16:12</time>
      </trkpt>
      <trkpt lat="38.71328" lon="-0.08636">
        <ele>578</ele>
        <time>2021-01-31 16:16:13</time>
      </trkpt>
      <trkpt lat="38.71326" lon="-0.08639">
        <ele>578.8</ele>
        <time>2021-01-31 16:16:14</time>
      </trkpt>
      <trkpt lat="38.71324" lon="-0.08642">
        <ele>579</ele>
        <time>2021-01-31 16:16:15</time>
      </trkpt>
      <trkpt lat="38.71323" lon="-0.08644">
        <ele>579</ele>
        <time>2021-01-31 16:16:16</time>
      </trkpt>
      <trkpt lat="38.71321" lon="-0.08647">
        <ele>579</ele>
        <time>2021-01-31 16:16:17</time>
      </trkpt>
      <trkpt lat="38.7132" lon="-0.0865">
        <ele>579</ele>
        <time>2021-01-31 16:16:18</time>
      </trkpt>
      <trkpt lat="38.71319" lon="-0.08653">
        <ele>579.6</ele>
        <time>2021-01-31 16:16:19</time>
      </trkpt>
      <trkpt lat="38.71318" lon="-0.08656">
        <ele>579.6</ele>
        <time>2021-01-31 16:16:20</time>
      </trkpt>
      <trkpt lat="38.71317" lon="-0.08659">
        <ele>579.6</ele>
        <time>2021-01-31 16:16:21</time>
      </trkpt>
      <trkpt lat="38.71315" lon="-0.08663">
        <ele>579.6</ele>
        <time>2021-01-31 16:16:22</time>
      </trkpt>
      <trkpt lat="38.71314" lon="-0.08666">
        <ele>580.6</ele>
        <time>2021-01-31 16:16:23</time>
      </trkpt>
      <trkpt lat="38.71313" lon="-0.08669">
        <ele>581.2</ele>
        <time>2021-01-31 16:16:24</time>
      </trkpt>
      <trkpt lat="38.71312" lon="-0.08672">
        <ele>581.6</ele>
        <time>2021-01-31 16:16:25</time>
      </trkpt>
      <trkpt lat="38.71311" lon="-0.08675">
        <ele>582</ele>
        <time>2021-01-31 16:16:26</time>
      </trkpt>
      <trkpt lat="38.71309" lon="-0.08679">
        <ele>582.2</ele>
        <time>2021-01-31 16:16:27</time>
      </trkpt>
      <trkpt lat="38.71309" lon="-0.08682">
        <ele>582.2</ele>
        <time>2021-01-31 16:16:28</time>
      </trkpt>
      <trkpt lat="38.71308" lon="-0.08686">
        <ele>582.2</ele>
        <time>2021-01-31 16:16:29</time>
      </trkpt>
      <trkpt lat="38.71307" lon="-0.08689">
        <ele>582.2</ele>
        <time>2021-01-31 16:16:30</time>
      </trkpt>
      <trkpt lat="38.71307" lon="-0.08693">
        <ele>583</ele>
        <time>2021-01-31 16:16:31</time>
      </trkpt>
      <trkpt lat="38.71307" lon="-0.08696">
        <ele>583</ele>
        <time>2021-01-31 16:16:32</time>
      </trkpt>
      <trkpt lat="38.71306" lon="-0.087">
        <ele>583</ele>
        <time>2021-01-31 16:16:33</time>
      </trkpt>
      <trkpt lat="38.71306" lon="-0.08703">
        <ele>583</ele>
        <time>2021-01-31 16:16:34</time>
      </trkpt>
      <trkpt lat="38.71305" lon="-0.08707">
        <ele>583</ele>
        <time>2021-01-31 16:16:35</time>
      </trkpt>
      <trkpt lat="38.71305" lon="-0.0871">
        <ele>583</ele>
        <time>2021-01-31 16:16:36</time>
      </trkpt>
      <trkpt lat="38.71305" lon="-0.08714">
        <ele>583</ele>
        <time>2021-01-31 16:16:37</time>
      </trkpt>
      <trkpt lat="38.71304" lon="-0.08717">
        <ele>584</ele>
        <time>2021-01-31 16:16:38</time>
      </trkpt>
      <trkpt lat="38.71304" lon="-0.08721">
        <ele>584</ele>
        <time>2021-01-31 16:16:39</time>
      </trkpt>
      <trkpt lat="38.71304" lon="-0.08724">
        <ele>584</ele>
        <time>2021-01-31 16:16:40</time>
      </trkpt>
      <trkpt lat="38.71304" lon="-0.08728">
        <ele>584</ele>
        <time>2021-01-31 16:16:41</time>
      </trkpt>
      <trkpt lat="38.71303" lon="-0.08731">
        <ele>584</ele>
        <time>2021-01-31 16:16:42</time>
      </trkpt>
      <trkpt lat="38.71303" lon="-0.08735">
        <ele>584</ele>
        <time>2021-01-31 16:16:43</time>
      </trkpt>
      <trkpt lat="38.71302" lon="-0.08738">
        <ele>584.6</ele>
        <time>2021-01-31 16:16:44</time>
      </trkpt>
      <trkpt lat="38.71302" lon="-0.08742">
        <ele>584.8</ele>
        <time>2021-01-31 16:16:45</time>
      </trkpt>
      <trkpt lat="38.71301" lon="-0.08745">
        <ele>584.8</ele>
        <time>2021-01-31 16:16:46</time>
      </trkpt>
      <trkpt lat="38.71301" lon="-0.08749">
        <ele>584.8</ele>
        <time>2021-01-31 16:16:47</time>
      </trkpt>
      <trkpt lat="38.713" lon="-0.08752">
        <ele>584.8</ele>
        <time>2021-01-31 16:16:48</time>
      </trkpt>
      <trkpt lat="38.713" lon="-0.08756">
        <ele>585</ele>
        <time>2021-01-31 16:16:49</time>
      </trkpt>
      <trkpt lat="38.71299" lon="-0.0876">
        <ele>585.4</ele>
        <time>2021-01-31 16:16:50</time>
      </trkpt>
      <trkpt lat="38.71298" lon="-0.08763">
        <ele>585.6</ele>
        <time>2021-01-31 16:16:51</time>
      </trkpt>
      <trkpt lat="38.71298" lon="-0.08767">
        <ele>586.2</ele>
        <time>2021-01-31 16:16:52</time>
      </trkpt>
      <trkpt lat="38.71297" lon="-0.0877">
        <ele>587.2</ele>
        <time>2021-01-31 16:16:53</time>
      </trkpt>
      <trkpt lat="38.71296" lon="-0.08774">
        <ele>587.4</ele>
        <time>2021-01-31 16:16:54</time>
      </trkpt>
      <trkpt lat="38.71295" lon="-0.08778">
        <ele>588</ele>
        <time>2021-01-31 16:16:55</time>
      </trkpt>
      <trkpt lat="38.71294" lon="-0.08782">
        <ele>588.8</ele>
        <time>2021-01-31 16:16:56</time>
      </trkpt>
      <trkpt lat="38.71292" lon="-0.08786">
        <ele>589.6</ele>
        <time>2021-01-31 16:16:57</time>
      </trkpt>
      <trkpt lat="38.71291" lon="-0.08789">
        <ele>589.6</ele>
        <time>2021-01-31 16:16:58</time>
      </trkpt>
      <trkpt lat="38.71289" lon="-0.08794">
        <ele>589.6</ele>
        <time>2021-01-31 16:16:59</time>
      </trkpt>
      <trkpt lat="38.71288" lon="-0.08798">
        <ele>589.6</ele>
        <time>2021-01-31 16:17:00</time>
      </trkpt>
      <trkpt lat="38.71287" lon="-0.08802">
        <ele>590.2</ele>
        <time>2021-01-31 16:17:01</time>
      </trkpt>
      <trkpt lat="38.71286" lon="-0.08806">
        <ele>590.2</ele>
        <time>2021-01-31 16:17:02</time>
      </trkpt>
      <trkpt lat="38.71285" lon="-0.0881">
        <ele>590.2</ele>
        <time>2021-01-31 16:17:03</time>
      </trkpt>
      <trkpt lat="38.71283" lon="-0.08814">
        <ele>590.2</ele>
        <time>2021-01-31 16:17:04</time>
      </trkpt>
      <trkpt lat="38.71282" lon="-0.08818">
        <ele>589.6</ele>
        <time>2021-01-31 16:17:05</time>
      </trkpt>
      <trkpt lat="38.71281" lon="-0.08822">
        <ele>589.6</ele>
        <time>2021-01-31 16:17:06</time>
      </trkpt>
      <trkpt lat="38.7128" lon="-0.08826">
        <ele>589.6</ele>
        <time>2021-01-31 16:17:07</time>
      </trkpt>
      <trkpt lat="38.71279" lon="-0.0883">
        <ele>590</ele>
        <time>2021-01-31 16:17:08</time>
      </trkpt>
      <trkpt lat="38.71277" lon="-0.08834">
        <ele>590</ele>
        <time>2021-01-31 16:17:09</time>
      </trkpt>
      <trkpt lat="38.71276" lon="-0.08838">
        <ele>590</ele>
        <time>2021-01-31 16:17:10</time>
      </trkpt>
      <trkpt lat="38.71275" lon="-0.08843">
        <ele>589.8</ele>
        <time>2021-01-31 16:17:11</time>
      </trkpt>
      <trkpt lat="38.71273" lon="-0.08847">
        <ele>589.8</ele>
        <time>2021-01-31 16:17:12</time>
      </trkpt>
      <trkpt lat="38.71271" lon="-0.0885">
        <ele>589.8</ele>
        <time>2021-01-31 16:17:13</time>
      </trkpt>
      <trkpt lat="38.7127" lon="-0.08854">
        <ele>589.8</ele>
        <time>2021-01-31 16:17:14</time>
      </trkpt>
      <trkpt lat="38.71268" lon="-0.08858">
        <ele>588.8</ele>
        <time>2021-01-31 16:17:15</time>
      </trkpt>
      <trkpt lat="38.71266" lon="-0.08862">
        <ele>588.8</ele>
        <time>2021-01-31 16:17:16</time>
      </trkpt>
      <trkpt lat="38.71264" lon="-0.08865">
        <ele>588.8</ele>
        <time>2021-01-31 16:17:17</time>
      </trkpt>
      <trkpt lat="38.71262" lon="-0.08869">
        <ele>588.8</ele>
        <time>2021-01-31 16:17:18</time>
      </trkpt>
      <trkpt lat="38.7126" lon="-0.08872">
        <ele>588.8</ele>
        <time>2021-01-31 16:17:19</time>
      </trkpt>
      <trkpt lat="38.71258" lon="-0.08876">
        <ele>588.8</ele>
        <time>2021-01-31 16:17:20</time>
      </trkpt>
      <trkpt lat="38.71256" lon="-0.08879">
        <ele>589.8</ele>
        <time>2021-01-31 16:17:21</time>
      </trkpt>
      <trkpt lat="38.71254" lon="-0.08883">
        <ele>590.6</ele>
        <time>2021-01-31 16:17:22</time>
      </trkpt>
      <trkpt lat="38.71252" lon="-0.08886">
        <ele>590.6</ele>
        <time>2021-01-31 16:17:23</time>
      </trkpt>
      <trkpt lat="38.71251" lon="-0.0889">
        <ele>590.6</ele>
        <time>2021-01-31 16:17:24</time>
      </trkpt>
      <trkpt lat="38.71251" lon="-0.08895">
        <ele>589.6</ele>
        <time>2021-01-31 16:17:25</time>
      </trkpt>
      <trkpt lat="38.7125" lon="-0.08899">
        <ele>589.4</ele>
        <time>2021-01-31 16:17:26</time>
      </trkpt>
      <trkpt lat="38.71249" lon="-0.08903">
        <ele>589.4</ele>
        <time>2021-01-31 16:17:27</time>
      </trkpt>
      <trkpt lat="38.71249" lon="-0.08907">
        <ele>589.4</ele>
        <time>2021-01-31 16:17:28</time>
      </trkpt>
      <trkpt lat="38.71249" lon="-0.08911">
        <ele>590.4</ele>
        <time>2021-01-31 16:17:29</time>
      </trkpt>
      <trkpt lat="38.7125" lon="-0.08915">
        <ele>591</ele>
        <time>2021-01-31 16:17:30</time>
      </trkpt>
      <trkpt lat="38.7125" lon="-0.0892">
        <ele>591.2</ele>
        <time>2021-01-31 16:17:31</time>
      </trkpt>
      <trkpt lat="38.71251" lon="-0.08924">
        <ele>591.2</ele>
        <time>2021-01-31 16:17:32</time>
      </trkpt>
      <trkpt lat="38.71252" lon="-0.08928">
        <ele>591.2</ele>
        <time>2021-01-31 16:17:33</time>
      </trkpt>
      <trkpt lat="38.71253" lon="-0.08931">
        <ele>591.2</ele>
        <time>2021-01-31 16:17:34</time>
      </trkpt>
      <trkpt lat="38.71254" lon="-0.08935">
        <ele>591.2</ele>
        <time>2021-01-31 16:17:35</time>
      </trkpt>
      <trkpt lat="38.71255" lon="-0.08939">
        <ele>591.2</ele>
        <time>2021-01-31 16:17:36</time>
      </trkpt>
      <trkpt lat="38.71256" lon="-0.08943">
        <ele>591.2</ele>
        <time>2021-01-31 16:17:37</time>
      </trkpt>
      <trkpt lat="38.71256" lon="-0.08943">
        <ele>591.2</ele>
        <time>2021-01-31 16:17:38</time>
      </trkpt>
      <trkpt lat="38.71256" lon="-0.08952">
        <ele>591.2</ele>
        <time>2021-01-31 16:17:39</time>
      </trkpt>
      <trkpt lat="38.71255" lon="-0.08957">
        <ele>591.2</ele>
        <time>2021-01-31 16:17:40</time>
      </trkpt>
      <trkpt lat="38.71255" lon="-0.08962">
        <ele>591.2</ele>
        <time>2021-01-31 16:17:41</time>
      </trkpt>
      <trkpt lat="38.71253" lon="-0.08967">
        <ele>591.2</ele>
        <time>2021-01-31 16:17:42</time>
      </trkpt>
      <trkpt lat="38.7125" lon="-0.08971">
        <ele>591.2</ele>
        <time>2021-01-31 16:17:43</time>
      </trkpt>
      <trkpt lat="38.71247" lon="-0.08976">
        <ele>591.2</ele>
        <time>2021-01-31 16:17:44</time>
      </trkpt>
      <trkpt lat="38.71243" lon="-0.0898">
        <ele>592</ele>
        <time>2021-01-31 16:17:45</time>
      </trkpt>
      <trkpt lat="38.7124" lon="-0.08983">
        <ele>592.4</ele>
        <time>2021-01-31 16:17:46</time>
      </trkpt>
      <trkpt lat="38.71236" lon="-0.08986">
        <ele>592.4</ele>
        <time>2021-01-31 16:17:47</time>
      </trkpt>
      <trkpt lat="38.71232" lon="-0.08989">
        <ele>592.4</ele>
        <time>2021-01-31 16:17:48</time>
      </trkpt>
      <trkpt lat="38.71229" lon="-0.08992">
        <ele>592.4</ele>
        <time>2021-01-31 16:17:49</time>
      </trkpt>
      <trkpt lat="38.71225" lon="-0.08995">
        <ele>592.4</ele>
        <time>2021-01-31 16:17:50</time>
      </trkpt>
      <trkpt lat="38.71222" lon="-0.08998">
        <ele>593</ele>
        <time>2021-01-31 16:17:51</time>
      </trkpt>
      <trkpt lat="38.71218" lon="-0.09001">
        <ele>593</ele>
        <time>2021-01-31 16:17:52</time>
      </trkpt>
      <trkpt lat="38.71215" lon="-0.09005">
        <ele>593</ele>
        <time>2021-01-31 16:17:53</time>
      </trkpt>
      <trkpt lat="38.71212" lon="-0.09008">
        <ele>592.6</ele>
        <time>2021-01-31 16:17:54</time>
      </trkpt>
      <trkpt lat="38.7121" lon="-0.09011">
        <ele>592.6</ele>
        <time>2021-01-31 16:17:55</time>
      </trkpt>
      <trkpt lat="38.71207" lon="-0.09015">
        <ele>592.6</ele>
        <time>2021-01-31 16:17:56</time>
      </trkpt>
      <trkpt lat="38.71205" lon="-0.09018">
        <ele>593.2</ele>
        <time>2021-01-31 16:17:57</time>
      </trkpt>
      <trkpt lat="38.71203" lon="-0.09022">
        <ele>593.8</ele>
        <time>2021-01-31 16:17:58</time>
      </trkpt>
      <trkpt lat="38.712" lon="-0.09025">
        <ele>594.2</ele>
        <time>2021-01-31 16:17:59</time>
      </trkpt>
      <trkpt lat="38.71198" lon="-0.09029">
        <ele>594.8</ele>
        <time>2021-01-31 16:18:00</time>
      </trkpt>
      <trkpt lat="38.71196" lon="-0.09032">
        <ele>594.8</ele>
        <time>2021-01-31 16:18:01</time>
      </trkpt>
      <trkpt lat="38.71194" lon="-0.09036">
        <ele>594.8</ele>
        <time>2021-01-31 16:18:02</time>
      </trkpt>
      <trkpt lat="38.71192" lon="-0.09039">
        <ele>594.8</ele>
        <time>2021-01-31 16:18:03</time>
      </trkpt>
      <trkpt lat="38.7119" lon="-0.09043">
        <ele>594.8</ele>
        <time>2021-01-31 16:18:04</time>
      </trkpt>
      <trkpt lat="38.71187" lon="-0.09047">
        <ele>594.8</ele>
        <time>2021-01-31 16:18:05</time>
      </trkpt>
      <trkpt lat="38.71185" lon="-0.0905">
        <ele>595.8</ele>
        <time>2021-01-31 16:18:06</time>
      </trkpt>
      <trkpt lat="38.71183" lon="-0.09054">
        <ele>596.2</ele>
        <time>2021-01-31 16:18:07</time>
      </trkpt>
      <trkpt lat="38.71181" lon="-0.09057">
        <ele>596.6</ele>
        <time>2021-01-31 16:18:08</time>
      </trkpt>
      <trkpt lat="38.71179" lon="-0.09061">
        <ele>596.6</ele>
        <time>2021-01-31 16:18:09</time>
      </trkpt>
      <trkpt lat="38.71177" lon="-0.09064">
        <ele>596.6</ele>
        <time>2021-01-31 16:18:10</time>
      </trkpt>
      <trkpt lat="38.71175" lon="-0.09067">
        <ele>596.6</ele>
        <time>2021-01-31 16:18:11</time>
      </trkpt>
      <trkpt lat="38.71173" lon="-0.09071">
        <ele>596.6</ele>
        <time>2021-01-31 16:18:12</time>
      </trkpt>
      <trkpt lat="38.71171" lon="-0.09074">
        <ele>596.6</ele>
        <time>2021-01-31 16:18:13</time>
      </trkpt>
      <trkpt lat="38.71169" lon="-0.09078">
        <ele>596.6</ele>
        <time>2021-01-31 16:18:14</time>
      </trkpt>
      <trkpt lat="38.71168" lon="-0.09082">
        <ele>596.6</ele>
        <time>2021-01-31 16:18:15</time>
      </trkpt>
      <trkpt lat="38.71167" lon="-0.09086">
        <ele>596.4</ele>
        <time>2021-01-31 16:18:16</time>
      </trkpt>
      <trkpt lat="38.71167" lon="-0.0909">
        <ele>596.4</ele>
        <time>2021-01-31 16:18:17</time>
      </trkpt>
      <trkpt lat="38.71167" lon="-0.09095">
        <ele>596.4</ele>
        <time>2021-01-31 16:18:18</time>
      </trkpt>
      <trkpt lat="38.71167" lon="-0.09099">
        <ele>597.4</ele>
        <time>2021-01-31 16:18:19</time>
      </trkpt>
      <trkpt lat="38.71168" lon="-0.09103">
        <ele>597.8</ele>
        <time>2021-01-31 16:18:20</time>
      </trkpt>
      <trkpt lat="38.71169" lon="-0.09107">
        <ele>597.8</ele>
        <time>2021-01-31 16:18:21</time>
      </trkpt>
      <trkpt lat="38.71171" lon="-0.0911">
        <ele>597.8</ele>
        <time>2021-01-31 16:18:22</time>
      </trkpt>
      <trkpt lat="38.71172" lon="-0.09113">
        <ele>597.8</ele>
        <time>2021-01-31 16:18:23</time>
      </trkpt>
      <trkpt lat="38.71173" lon="-0.09115">
        <ele>597.8</ele>
        <time>2021-01-31 16:18:24</time>
      </trkpt>
      <trkpt lat="38.71175" lon="-0.09118">
        <ele>598.4</ele>
        <time>2021-01-31 16:18:25</time>
      </trkpt>
      <trkpt lat="38.71176" lon="-0.09121">
        <ele>598.4</ele>
        <time>2021-01-31 16:18:26</time>
      </trkpt>
      <trkpt lat="38.71178" lon="-0.09123">
        <ele>598.4</ele>
        <time>2021-01-31 16:18:27</time>
      </trkpt>
      <trkpt lat="38.7118" lon="-0.09125">
        <ele>598.4</ele>
        <time>2021-01-31 16:18:28</time>
      </trkpt>
      <trkpt lat="38.71181" lon="-0.09128">
        <ele>598.4</ele>
        <time>2021-01-31 16:18:29</time>
      </trkpt>
      <trkpt lat="38.71183" lon="-0.09131">
        <ele>599.4</ele>
        <time>2021-01-31 16:18:30</time>
      </trkpt>
      <trkpt lat="38.71184" lon="-0.09133">
        <ele>600.4</ele>
        <time>2021-01-31 16:18:31</time>
      </trkpt>
      <trkpt lat="38.71186" lon="-0.09136">
        <ele>600.8</ele>
        <time>2021-01-31 16:18:32</time>
      </trkpt>
      <trkpt lat="38.71187" lon="-0.09138">
        <ele>600.8</ele>
        <time>2021-01-31 16:18:33</time>
      </trkpt>
      <trkpt lat="38.71189" lon="-0.09141">
        <ele>600.8</ele>
        <time>2021-01-31 16:18:34</time>
      </trkpt>
      <trkpt lat="38.71191" lon="-0.09143">
        <ele>600.8</ele>
        <time>2021-01-31 16:18:35</time>
      </trkpt>
      <trkpt lat="38.71192" lon="-0.09146">
        <ele>601.6</ele>
        <time>2021-01-31 16:18:36</time>
      </trkpt>
      <trkpt lat="38.71194" lon="-0.09148">
        <ele>601.8</ele>
        <time>2021-01-31 16:18:37</time>
      </trkpt>
      <trkpt lat="38.71195" lon="-0.0915">
        <ele>602.4</ele>
        <time>2021-01-31 16:18:38</time>
      </trkpt>
      <trkpt lat="38.71197" lon="-0.09153">
        <ele>602.4</ele>
        <time>2021-01-31 16:18:39</time>
      </trkpt>
      <trkpt lat="38.71198" lon="-0.09156">
        <ele>602.4</ele>
        <time>2021-01-31 16:18:40</time>
      </trkpt>
      <trkpt lat="38.712" lon="-0.09159">
        <ele>602.4</ele>
        <time>2021-01-31 16:18:41</time>
      </trkpt>
      <trkpt lat="38.71202" lon="-0.09163">
        <ele>601.4</ele>
        <time>2021-01-31 16:18:42</time>
      </trkpt>
      <trkpt lat="38.71203" lon="-0.09166">
        <ele>600.8</ele>
        <time>2021-01-31 16:18:43</time>
      </trkpt>
      <trkpt lat="38.71205" lon="-0.09169">
        <ele>600.8</ele>
        <time>2021-01-31 16:18:44</time>
      </trkpt>
      <trkpt lat="38.71206" lon="-0.09172">
        <ele>600.8</ele>
        <time>2021-01-31 16:18:45</time>
      </trkpt>
      <trkpt lat="38.71208" lon="-0.09176">
        <ele>601.6</ele>
        <time>2021-01-31 16:18:46</time>
      </trkpt>
      <trkpt lat="38.71209" lon="-0.09179">
        <ele>601.6</ele>
        <time>2021-01-31 16:18:47</time>
      </trkpt>
      <trkpt lat="38.7121" lon="-0.09183">
        <ele>601.6</ele>
        <time>2021-01-31 16:18:48</time>
      </trkpt>
      <trkpt lat="38.71212" lon="-0.09186">
        <ele>600.6</ele>
        <time>2021-01-31 16:18:49</time>
      </trkpt>
      <trkpt lat="38.71213" lon="-0.0919">
        <ele>599.6</ele>
        <time>2021-01-31 16:18:50</time>
      </trkpt>
      <trkpt lat="38.71215" lon="-0.09194">
        <ele>598.6</ele>
        <time>2021-01-31 16:18:51</time>
      </trkpt>
      <trkpt lat="38.71216" lon="-0.09198">
        <ele>597.6</ele>
        <time>2021-01-31 16:18:52</time>
      </trkpt>
      <trkpt lat="38.71217" lon="-0.09202">
        <ele>597.6</ele>
        <time>2021-01-31 16:18:53</time>
      </trkpt>
      <trkpt lat="38.71219" lon="-0.09206">
        <ele>597.6</ele>
        <time>2021-01-31 16:18:54</time>
      </trkpt>
      <trkpt lat="38.7122" lon="-0.0921">
        <ele>598.2</ele>
        <time>2021-01-31 16:18:55</time>
      </trkpt>
      <trkpt lat="38.71222" lon="-0.09215">
        <ele>599.2</ele>
        <time>2021-01-31 16:18:56</time>
      </trkpt>
      <trkpt lat="38.71223" lon="-0.09221">
        <ele>599.2</ele>
        <time>2021-01-31 16:18:57</time>
      </trkpt>
      <trkpt lat="38.71225" lon="-0.09226">
        <ele>599.2</ele>
        <time>2021-01-31 16:18:58</time>
      </trkpt>
      <trkpt lat="38.71227" lon="-0.09232">
        <ele>599</ele>
        <time>2021-01-31 16:18:59</time>
      </trkpt>
      <trkpt lat="38.71228" lon="-0.09238">
        <ele>598.4</ele>
        <time>2021-01-31 16:19:00</time>
      </trkpt>
      <trkpt lat="38.7123" lon="-0.09243">
        <ele>598.4</ele>
        <time>2021-01-31 16:19:01</time>
      </trkpt>
      <trkpt lat="38.71232" lon="-0.0925">
        <ele>598.4</ele>
        <time>2021-01-31 16:19:02</time>
      </trkpt>
      <trkpt lat="38.71234" lon="-0.09256">
        <ele>599.4</ele>
        <time>2021-01-31 16:19:03</time>
      </trkpt>
      <trkpt lat="38.71236" lon="-0.09263">
        <ele>600.4</ele>
        <time>2021-01-31 16:19:04</time>
      </trkpt>
      <trkpt lat="38.71237" lon="-0.0927">
        <ele>600.4</ele>
        <time>2021-01-31 16:19:05</time>
      </trkpt>
      <trkpt lat="38.71238" lon="-0.09277">
        <ele>600.4</ele>
        <time>2021-01-31 16:19:06</time>
      </trkpt>
      <trkpt lat="38.71238" lon="-0.09285">
        <ele>599.6</ele>
        <time>2021-01-31 16:19:07</time>
      </trkpt>
      <trkpt lat="38.71237" lon="-0.09293">
        <ele>599.6</ele>
        <time>2021-01-31 16:19:08</time>
      </trkpt>
      <trkpt lat="38.71237" lon="-0.09301">
        <ele>599.6</ele>
        <time>2021-01-31 16:19:09</time>
      </trkpt>
      <trkpt lat="38.71236" lon="-0.09309">
        <ele>599.6</ele>
        <time>2021-01-31 16:19:10</time>
      </trkpt>
      <trkpt lat="38.71236" lon="-0.09318">
        <ele>598.6</ele>
        <time>2021-01-31 16:19:11</time>
      </trkpt>
      <trkpt lat="38.71236" lon="-0.09326">
        <ele>597.6</ele>
        <time>2021-01-31 16:19:12</time>
      </trkpt>
      <trkpt lat="38.71235" lon="-0.09334">
        <ele>597.6</ele>
        <time>2021-01-31 16:19:13</time>
      </trkpt>
      <trkpt lat="38.71233" lon="-0.09342">
        <ele>597.6</ele>
        <time>2021-01-31 16:19:14</time>
      </trkpt>
      <trkpt lat="38.7123" lon="-0.0935">
        <ele>597.6</ele>
        <time>2021-01-31 16:19:15</time>
      </trkpt>
      <trkpt lat="38.71227" lon="-0.09357">
        <ele>597.6</ele>
        <time>2021-01-31 16:19:16</time>
      </trkpt>
      <trkpt lat="38.71222" lon="-0.09364">
        <ele>597.6</ele>
        <time>2021-01-31 16:19:17</time>
      </trkpt>
      <trkpt lat="38.71218" lon="-0.0937">
        <ele>597.6</ele>
        <time>2021-01-31 16:19:18</time>
      </trkpt>
      <trkpt lat="38.71213" lon="-0.09376">
        <ele>597.6</ele>
        <time>2021-01-31 16:19:19</time>
      </trkpt>
      <trkpt lat="38.71209" lon="-0.09382">
        <ele>596.6</ele>
        <time>2021-01-31 16:19:20</time>
      </trkpt>
      <trkpt lat="38.71204" lon="-0.09389">
        <ele>596</ele>
        <time>2021-01-31 16:19:21</time>
      </trkpt>
      <trkpt lat="38.71201" lon="-0.09396">
        <ele>595</ele>
        <time>2021-01-31 16:19:22</time>
      </trkpt>
      <trkpt lat="38.71197" lon="-0.09402">
        <ele>595</ele>
        <time>2021-01-31 16:19:23</time>
      </trkpt>
      <trkpt lat="38.71195" lon="-0.0941">
        <ele>595</ele>
        <time>2021-01-31 16:19:24</time>
      </trkpt>
      <trkpt lat="38.71193" lon="-0.09418">
        <ele>595</ele>
        <time>2021-01-31 16:19:25</time>
      </trkpt>
      <trkpt lat="38.71193" lon="-0.09427">
        <ele>595</ele>
        <time>2021-01-31 16:19:26</time>
      </trkpt>
      <trkpt lat="38.71194" lon="-0.09436">
        <ele>594.4</ele>
        <time>2021-01-31 16:19:27</time>
      </trkpt>
      <trkpt lat="38.71196" lon="-0.09445">
        <ele>593.4</ele>
        <time>2021-01-31 16:19:28</time>
      </trkpt>
      <trkpt lat="38.71199" lon="-0.09455">
        <ele>592.4</ele>
        <time>2021-01-31 16:19:29</time>
      </trkpt>
      <trkpt lat="38.71201" lon="-0.09464">
        <ele>592.4</ele>
        <time>2021-01-31 16:19:30</time>
      </trkpt>
      <trkpt lat="38.71203" lon="-0.09474">
        <ele>592.4</ele>
        <time>2021-01-31 16:19:31</time>
      </trkpt>
      <trkpt lat="38.71204" lon="-0.09484">
        <ele>592.4</ele>
        <time>2021-01-31 16:19:32</time>
      </trkpt>
      <trkpt lat="38.71205" lon="-0.09493">
        <ele>592.4</ele>
        <time>2021-01-31 16:19:33</time>
      </trkpt>
      <trkpt lat="38.71206" lon="-0.09502">
        <ele>592.4</ele>
        <time>2021-01-31 16:19:34</time>
      </trkpt>
      <trkpt lat="38.71207" lon="-0.09511">
        <ele>592.4</ele>
        <time>2021-01-31 16:19:35</time>
      </trkpt>
      <trkpt lat="38.71208" lon="-0.0952">
        <ele>592.2</ele>
        <time>2021-01-31 16:19:36</time>
      </trkpt>
      <trkpt lat="38.71209" lon="-0.09529">
        <ele>591.8</ele>
        <time>2021-01-31 16:19:37</time>
      </trkpt>
      <trkpt lat="38.71209" lon="-0.09538">
        <ele>591.6</ele>
        <time>2021-01-31 16:19:38</time>
      </trkpt>
      <trkpt lat="38.7121" lon="-0.09547">
        <ele>591.6</ele>
        <time>2021-01-31 16:19:39</time>
      </trkpt>
      <trkpt lat="38.71211" lon="-0.09556">
        <ele>591.6</ele>
        <time>2021-01-31 16:19:40</time>
      </trkpt>
      <trkpt lat="38.71211" lon="-0.09566">
        <ele>591.6</ele>
        <time>2021-01-31 16:19:41</time>
      </trkpt>
      <trkpt lat="38.71213" lon="-0.09575">
        <ele>591</ele>
        <time>2021-01-31 16:19:42</time>
      </trkpt>
      <trkpt lat="38.71215" lon="-0.09585">
        <ele>591</ele>
        <time>2021-01-31 16:19:43</time>
      </trkpt>
      <trkpt lat="38.71218" lon="-0.09595">
        <ele>591</ele>
        <time>2021-01-31 16:19:44</time>
      </trkpt>
      <trkpt lat="38.71223" lon="-0.09603">
        <ele>591</ele>
        <time>2021-01-31 16:19:45</time>
      </trkpt>
      <trkpt lat="38.71229" lon="-0.0961">
        <ele>591</ele>
        <time>2021-01-31 16:19:46</time>
      </trkpt>
      <trkpt lat="38.71236" lon="-0.09614">
        <ele>590</ele>
        <time>2021-01-31 16:19:47</time>
      </trkpt>
      <trkpt lat="38.71242" lon="-0.09618">
        <ele>589</ele>
        <time>2021-01-31 16:19:48</time>
      </trkpt>
      <trkpt lat="38.71249" lon="-0.09622">
        <ele>588.8</ele>
        <time>2021-01-31 16:19:49</time>
      </trkpt>
      <trkpt lat="38.71255" lon="-0.09626">
        <ele>588</ele>
        <time>2021-01-31 16:19:50</time>
      </trkpt>
      <trkpt lat="38.7126" lon="-0.09632">
        <ele>588</ele>
        <time>2021-01-31 16:19:51</time>
      </trkpt>
      <trkpt lat="38.71264" lon="-0.09639">
        <ele>588</ele>
        <time>2021-01-31 16:19:52</time>
      </trkpt>
      <trkpt lat="38.71266" lon="-0.09647">
        <ele>589</ele>
        <time>2021-01-31 16:19:53</time>
      </trkpt>
      <trkpt lat="38.71266" lon="-0.09655">
        <ele>590</ele>
        <time>2021-01-31 16:19:54</time>
      </trkpt>
      <trkpt lat="38.71263" lon="-0.09664">
        <ele>591</ele>
        <time>2021-01-31 16:19:55</time>
      </trkpt>
      <trkpt lat="38.71259" lon="-0.09672">
        <ele>591.2</ele>
        <time>2021-01-31 16:19:56</time>
      </trkpt>
      <trkpt lat="38.71254" lon="-0.0968">
        <ele>592.2</ele>
        <time>2021-01-31 16:19:57</time>
      </trkpt>
      <trkpt lat="38.71249" lon="-0.09688">
        <ele>593.2</ele>
        <time>2021-01-31 16:19:58</time>
      </trkpt>
      <trkpt lat="38.71244" lon="-0.09696">
        <ele>593.2</ele>
        <time>2021-01-31 16:19:59</time>
      </trkpt>
      <trkpt lat="38.71239" lon="-0.09705">
        <ele>593.2</ele>
        <time>2021-01-31 16:20:00</time>
      </trkpt>
      <trkpt lat="38.71234" lon="-0.09714">
        <ele>592.2</ele>
        <time>2021-01-31 16:20:01</time>
      </trkpt>
      <trkpt lat="38.7123" lon="-0.09723">
        <ele>591.2</ele>
        <time>2021-01-31 16:20:02</time>
      </trkpt>
      <trkpt lat="38.71226" lon="-0.09733">
        <ele>591.2</ele>
        <time>2021-01-31 16:20:03</time>
      </trkpt>
      <trkpt lat="38.71223" lon="-0.09744">
        <ele>591.2</ele>
        <time>2021-01-31 16:20:04</time>
      </trkpt>
      <trkpt lat="38.7122" lon="-0.09754">
        <ele>592.2</ele>
        <time>2021-01-31 16:20:05</time>
      </trkpt>
      <trkpt lat="38.71216" lon="-0.09764">
        <ele>592.2</ele>
        <time>2021-01-31 16:20:06</time>
      </trkpt>
      <trkpt lat="38.71212" lon="-0.09774">
        <ele>592.2</ele>
        <time>2021-01-31 16:20:07</time>
      </trkpt>
      <trkpt lat="38.71208" lon="-0.09784">
        <ele>591.2</ele>
        <time>2021-01-31 16:20:08</time>
      </trkpt>
      <trkpt lat="38.71202" lon="-0.09793">
        <ele>590.2</ele>
        <time>2021-01-31 16:20:09</time>
      </trkpt>
      <trkpt lat="38.71197" lon="-0.09802">
        <ele>589.2</ele>
        <time>2021-01-31 16:20:10</time>
      </trkpt>
      <trkpt lat="38.71191" lon="-0.09811">
        <ele>588.2</ele>
        <time>2021-01-31 16:20:11</time>
      </trkpt>
      <trkpt lat="38.71185" lon="-0.09819">
        <ele>588.2</ele>
        <time>2021-01-31 16:20:12</time>
      </trkpt>
      <trkpt lat="38.71176" lon="-0.09824">
        <ele>588.2</ele>
        <time>2021-01-31 16:20:13</time>
      </trkpt>
      <trkpt lat="38.71167" lon="-0.09826">
        <ele>588.2</ele>
        <time>2021-01-31 16:20:14</time>
      </trkpt>
      <trkpt lat="38.71158" lon="-0.09824">
        <ele>587.2</ele>
        <time>2021-01-31 16:20:15</time>
      </trkpt>
      <trkpt lat="38.71149" lon="-0.09819">
        <ele>586.2</ele>
        <time>2021-01-31 16:20:16</time>
      </trkpt>
      <trkpt lat="38.71141" lon="-0.09812">
        <ele>585.2</ele>
        <time>2021-01-31 16:20:17</time>
      </trkpt>
      <trkpt lat="38.71135" lon="-0.09804">
        <ele>584.8</ele>
        <time>2021-01-31 16:20:18</time>
      </trkpt>
      <trkpt lat="38.7113" lon="-0.09795">
        <ele>584.8</ele>
        <time>2021-01-31 16:20:19</time>
      </trkpt>
      <trkpt lat="38.71125" lon="-0.09785">
        <ele>584.8</ele>
        <time>2021-01-31 16:20:20</time>
      </trkpt>
      <trkpt lat="38.71121" lon="-0.09775">
        <ele>584.8</ele>
        <time>2021-01-31 16:20:21</time>
      </trkpt>
      <trkpt lat="38.71118" lon="-0.09765">
        <ele>584.8</ele>
        <time>2021-01-31 16:20:22</time>
      </trkpt>
      <trkpt lat="38.71115" lon="-0.09756">
        <ele>584.8</ele>
        <time>2021-01-31 16:20:23</time>
      </trkpt>
      <trkpt lat="38.71111" lon="-0.09745">
        <ele>584.8</ele>
        <time>2021-01-31 16:20:24</time>
      </trkpt>
      <trkpt lat="38.71108" lon="-0.09735">
        <ele>584.8</ele>
        <time>2021-01-31 16:20:25</time>
      </trkpt>
      <trkpt lat="38.71105" lon="-0.09724">
        <ele>583.8</ele>
        <time>2021-01-31 16:20:26</time>
      </trkpt>
      <trkpt lat="38.71103" lon="-0.09713">
        <ele>582.8</ele>
        <time>2021-01-31 16:20:27</time>
      </trkpt>
      <trkpt lat="38.71101" lon="-0.09701">
        <ele>581.8</ele>
        <time>2021-01-31 16:20:28</time>
      </trkpt>
      <trkpt lat="38.71098" lon="-0.09689">
        <ele>580.8</ele>
        <time>2021-01-31 16:20:29</time>
      </trkpt>
      <trkpt lat="38.71094" lon="-0.09678">
        <ele>579.8</ele>
        <time>2021-01-31 16:20:30</time>
      </trkpt>
      <trkpt lat="38.71089" lon="-0.09667">
        <ele>578.8</ele>
        <time>2021-01-31 16:20:31</time>
      </trkpt>
      <trkpt lat="38.71082" lon="-0.09658">
        <ele>577.8</ele>
        <time>2021-01-31 16:20:32</time>
      </trkpt>
      <trkpt lat="38.71074" lon="-0.0965">
        <ele>576.8</ele>
        <time>2021-01-31 16:20:33</time>
      </trkpt>
      <trkpt lat="38.71065" lon="-0.09644">
        <ele>575.8</ele>
        <time>2021-01-31 16:20:34</time>
      </trkpt>
      <trkpt lat="38.71056" lon="-0.09641">
        <ele>575.2</ele>
        <time>2021-01-31 16:20:35</time>
      </trkpt>
      <trkpt lat="38.71046" lon="-0.09639">
        <ele>575</ele>
        <time>2021-01-31 16:20:36</time>
      </trkpt>
      <trkpt lat="38.71036" lon="-0.09638">
        <ele>574</ele>
        <time>2021-01-31 16:20:37</time>
      </trkpt>
      <trkpt lat="38.71026" lon="-0.09634">
        <ele>573.4</ele>
        <time>2021-01-31 16:20:38</time>
      </trkpt>
      <trkpt lat="38.71016" lon="-0.09632">
        <ele>572.4</ele>
        <time>2021-01-31 16:20:39</time>
      </trkpt>
      <trkpt lat="38.71006" lon="-0.09629">
        <ele>571.4</ele>
        <time>2021-01-31 16:20:40</time>
      </trkpt>
      <trkpt lat="38.70996" lon="-0.09628">
        <ele>571.4</ele>
        <time>2021-01-31 16:20:41</time>
      </trkpt>
      <trkpt lat="38.70988" lon="-0.0963">
        <ele>571.4</ele>
        <time>2021-01-31 16:20:42</time>
      </trkpt>
      <trkpt lat="38.70982" lon="-0.09636">
        <ele>572.4</ele>
        <time>2021-01-31 16:20:43</time>
      </trkpt>
      <trkpt lat="38.70977" lon="-0.09643">
        <ele>573.4</ele>
        <time>2021-01-31 16:20:44</time>
      </trkpt>
      <trkpt lat="38.70975" lon="-0.09652">
        <ele>574.2</ele>
        <time>2021-01-31 16:20:45</time>
      </trkpt>
      <trkpt lat="38.70976" lon="-0.09661">
        <ele>574.2</ele>
        <time>2021-01-31 16:20:46</time>
      </trkpt>
      <trkpt lat="38.70979" lon="-0.09671">
        <ele>574.2</ele>
        <time>2021-01-31 16:20:47</time>
      </trkpt>
      <trkpt lat="38.70983" lon="-0.09681">
        <ele>573.2</ele>
        <time>2021-01-31 16:20:48</time>
      </trkpt>
      <trkpt lat="38.70987" lon="-0.09691">
        <ele>572.2</ele>
        <time>2021-01-31 16:20:49</time>
      </trkpt>
      <trkpt lat="38.7099" lon="-0.09702">
        <ele>571.2</ele>
        <time>2021-01-31 16:20:50</time>
      </trkpt>
      <trkpt lat="38.70994" lon="-0.09714">
        <ele>570.2</ele>
        <time>2021-01-31 16:20:51</time>
      </trkpt>
      <trkpt lat="38.70997" lon="-0.09725">
        <ele>569.2</ele>
        <time>2021-01-31 16:20:52</time>
      </trkpt>
      <trkpt lat="38.71001" lon="-0.09737">
        <ele>568.4</ele>
        <time>2021-01-31 16:20:53</time>
      </trkpt>
      <trkpt lat="38.71005" lon="-0.09749">
        <ele>568.4</ele>
        <time>2021-01-31 16:20:54</time>
      </trkpt>
      <trkpt lat="38.71008" lon="-0.09762">
        <ele>568.4</ele>
        <time>2021-01-31 16:20:55</time>
      </trkpt>
      <trkpt lat="38.71011" lon="-0.09775">
        <ele>568.4</ele>
        <time>2021-01-31 16:20:56</time>
      </trkpt>
      <trkpt lat="38.71013" lon="-0.09789">
        <ele>567.4</ele>
        <time>2021-01-31 16:20:57</time>
      </trkpt>
      <trkpt lat="38.71014" lon="-0.09804">
        <ele>566.4</ele>
        <time>2021-01-31 16:20:58</time>
      </trkpt>
      <trkpt lat="38.71012" lon="-0.09818">
        <ele>565.4</ele>
        <time>2021-01-31 16:20:59</time>
      </trkpt>
      <trkpt lat="38.71009" lon="-0.09832">
        <ele>565</ele>
        <time>2021-01-31 16:21:00</time>
      </trkpt>
      <trkpt lat="38.71006" lon="-0.09845">
        <ele>564.8</ele>
        <time>2021-01-31 16:21:01</time>
      </trkpt>
      <trkpt lat="38.71001" lon="-0.09856">
        <ele>563.8</ele>
        <time>2021-01-31 16:21:02</time>
      </trkpt>
      <trkpt lat="38.70995" lon="-0.09866">
        <ele>563.2</ele>
        <time>2021-01-31 16:21:03</time>
      </trkpt>
      <trkpt lat="38.70986" lon="-0.09873">
        <ele>562.4</ele>
        <time>2021-01-31 16:21:04</time>
      </trkpt>
      <trkpt lat="38.70975" lon="-0.09876">
        <ele>562.4</ele>
        <time>2021-01-31 16:21:05</time>
      </trkpt>
      <trkpt lat="38.70965" lon="-0.09878">
        <ele>561.4</ele>
        <time>2021-01-31 16:21:06</time>
      </trkpt>
      <trkpt lat="38.70955" lon="-0.09879">
        <ele>561.4</ele>
        <time>2021-01-31 16:21:07</time>
      </trkpt>
      <trkpt lat="38.70944" lon="-0.0988">
        <ele>561.4</ele>
        <time>2021-01-31 16:21:08</time>
      </trkpt>
      <trkpt lat="38.70935" lon="-0.09881">
        <ele>561.4</ele>
        <time>2021-01-31 16:21:09</time>
      </trkpt>
      <trkpt lat="38.70927" lon="-0.09885">
        <ele>560.6</ele>
        <time>2021-01-31 16:21:10</time>
      </trkpt>
      <trkpt lat="38.7092" lon="-0.09893">
        <ele>559.6</ele>
        <time>2021-01-31 16:21:11</time>
      </trkpt>
      <trkpt lat="38.70916" lon="-0.09902">
        <ele>559.6</ele>
        <time>2021-01-31 16:21:12</time>
      </trkpt>
      <trkpt lat="38.70912" lon="-0.09913">
        <ele>559.6</ele>
        <time>2021-01-31 16:21:13</time>
      </trkpt>
      <trkpt lat="38.70909" lon="-0.09924">
        <ele>559.6</ele>
        <time>2021-01-31 16:21:14</time>
      </trkpt>
      <trkpt lat="38.70906" lon="-0.09935">
        <ele>558.6</ele>
        <time>2021-01-31 16:21:15</time>
      </trkpt>
      <trkpt lat="38.70902" lon="-0.09945">
        <ele>557.6</ele>
        <time>2021-01-31 16:21:16</time>
      </trkpt>
      <trkpt lat="38.70896" lon="-0.09955">
        <ele>557.6</ele>
        <time>2021-01-31 16:21:17</time>
      </trkpt>
      <trkpt lat="38.70889" lon="-0.09962">
        <ele>557.6</ele>
        <time>2021-01-31 16:21:18</time>
      </trkpt>
      <trkpt lat="38.70881" lon="-0.09969">
        <ele>557.6</ele>
        <time>2021-01-31 16:21:19</time>
      </trkpt>
      <trkpt lat="38.70873" lon="-0.09975">
        <ele>556.6</ele>
        <time>2021-01-31 16:21:20</time>
      </trkpt>
      <trkpt lat="38.70865" lon="-0.0998">
        <ele>555.6</ele>
        <time>2021-01-31 16:21:21</time>
      </trkpt>
      <trkpt lat="38.70856" lon="-0.09984">
        <ele>554.8</ele>
        <time>2021-01-31 16:21:22</time>
      </trkpt>
      <trkpt lat="38.70848" lon="-0.09987">
        <ele>554.2</ele>
        <time>2021-01-31 16:21:23</time>
      </trkpt>
      <trkpt lat="38.7084" lon="-0.09993">
        <ele>554.2</ele>
        <time>2021-01-31 16:21:24</time>
      </trkpt>
      <trkpt lat="38.70834" lon="-0.10001">
        <ele>554.2</ele>
        <time>2021-01-31 16:21:25</time>
      </trkpt>
      <trkpt lat="38.70829" lon="-0.1001">
        <ele>554.2</ele>
        <time>2021-01-31 16:21:26</time>
      </trkpt>
      <trkpt lat="38.70823" lon="-0.10019">
        <ele>554.2</ele>
        <time>2021-01-31 16:21:27</time>
      </trkpt>
      <trkpt lat="38.70817" lon="-0.10027">
        <ele>554.4</ele>
        <time>2021-01-31 16:21:28</time>
      </trkpt>
      <trkpt lat="38.70811" lon="-0.10034">
        <ele>554.6</ele>
        <time>2021-01-31 16:21:29</time>
      </trkpt>
      <trkpt lat="38.70804" lon="-0.1004">
        <ele>554.6</ele>
        <time>2021-01-31 16:21:30</time>
      </trkpt>
      <trkpt lat="38.70796" lon="-0.10044">
        <ele>554.6</ele>
        <time>2021-01-31 16:21:31</time>
      </trkpt>
      <trkpt lat="38.70789" lon="-0.1005">
        <ele>553.6</ele>
        <time>2021-01-31 16:21:32</time>
      </trkpt>
      <trkpt lat="38.70783" lon="-0.10058">
        <ele>552.8</ele>
        <time>2021-01-31 16:21:33</time>
      </trkpt>
      <trkpt lat="38.7078" lon="-0.10068">
        <ele>552.8</ele>
        <time>2021-01-31 16:21:34</time>
      </trkpt>
      <trkpt lat="38.70778" lon="-0.10079">
        <ele>552.8</ele>
        <time>2021-01-31 16:21:35</time>
      </trkpt>
      <trkpt lat="38.70776" lon="-0.10089">
        <ele>552.8</ele>
        <time>2021-01-31 16:21:36</time>
      </trkpt>
      <trkpt lat="38.70774" lon="-0.101">
        <ele>552.8</ele>
        <time>2021-01-31 16:21:37</time>
      </trkpt>
      <trkpt lat="38.70771" lon="-0.10111">
        <ele>552.8</ele>
        <time>2021-01-31 16:21:38</time>
      </trkpt>
      <trkpt lat="38.70766" lon="-0.10121">
        <ele>552.8</ele>
        <time>2021-01-31 16:21:39</time>
      </trkpt>
      <trkpt lat="38.7076" lon="-0.1013">
        <ele>553</ele>
        <time>2021-01-31 16:21:40</time>
      </trkpt>
      <trkpt lat="38.70755" lon="-0.10139">
        <ele>553</ele>
        <time>2021-01-31 16:21:41</time>
      </trkpt>
      <trkpt lat="38.70749" lon="-0.10148">
        <ele>553.4</ele>
        <time>2021-01-31 16:21:42</time>
      </trkpt>
      <trkpt lat="38.70742" lon="-0.10155">
        <ele>553.6</ele>
        <time>2021-01-31 16:21:43</time>
      </trkpt>
      <trkpt lat="38.70734" lon="-0.10161">
        <ele>553.6</ele>
        <time>2021-01-31 16:21:44</time>
      </trkpt>
      <trkpt lat="38.70725" lon="-0.10165">
        <ele>553.6</ele>
        <time>2021-01-31 16:21:45</time>
      </trkpt>
      <trkpt lat="38.70717" lon="-0.10168">
        <ele>553.6</ele>
        <time>2021-01-31 16:21:46</time>
      </trkpt>
      <trkpt lat="38.70711" lon="-0.10173">
        <ele>553.6</ele>
        <time>2021-01-31 16:21:47</time>
      </trkpt>
      <trkpt lat="38.70706" lon="-0.10181">
        <ele>553.6</ele>
        <time>2021-01-31 16:21:48</time>
      </trkpt>
      <trkpt lat="38.70704" lon="-0.1019">
        <ele>552.6</ele>
        <time>2021-01-31 16:21:49</time>
      </trkpt>
      <trkpt lat="38.70703" lon="-0.10199">
        <ele>551.6</ele>
        <time>2021-01-31 16:21:50</time>
      </trkpt>
      <trkpt lat="38.70703" lon="-0.10208">
        <ele>550.6</ele>
        <time>2021-01-31 16:21:51</time>
      </trkpt>
      <trkpt lat="38.70704" lon="-0.10216">
        <ele>549.8</ele>
        <time>2021-01-31 16:21:52</time>
      </trkpt>
      <trkpt lat="38.70705" lon="-0.10225">
        <ele>549.6</ele>
        <time>2021-01-31 16:21:53</time>
      </trkpt>
      <trkpt lat="38.70706" lon="-0.10233">
        <ele>549.6</ele>
        <time>2021-01-31 16:21:54</time>
      </trkpt>
      <trkpt lat="38.70706" lon="-0.10241">
        <ele>549.6</ele>
        <time>2021-01-31 16:21:55</time>
      </trkpt>
      <trkpt lat="38.70707" lon="-0.1025">
        <ele>549.6</ele>
        <time>2021-01-31 16:21:56</time>
      </trkpt>
      <trkpt lat="38.70707" lon="-0.10258">
        <ele>549.6</ele>
        <time>2021-01-31 16:21:57</time>
      </trkpt>
      <trkpt lat="38.70706" lon="-0.10266">
        <ele>549</ele>
        <time>2021-01-31 16:21:58</time>
      </trkpt>
      <trkpt lat="38.70707" lon="-0.10275">
        <ele>548.8</ele>
        <time>2021-01-31 16:21:59</time>
      </trkpt>
      <trkpt lat="38.70709" lon="-0.10283">
        <ele>547.8</ele>
        <time>2021-01-31 16:22:00</time>
      </trkpt>
      <trkpt lat="38.70712" lon="-0.10292">
        <ele>547.8</ele>
        <time>2021-01-31 16:22:01</time>
      </trkpt>
      <trkpt lat="38.70716" lon="-0.10301">
        <ele>547.8</ele>
        <time>2021-01-31 16:22:02</time>
      </trkpt>
      <trkpt lat="38.70719" lon="-0.10309">
        <ele>548.8</ele>
        <time>2021-01-31 16:22:03</time>
      </trkpt>
      <trkpt lat="38.70723" lon="-0.10318">
        <ele>549.2</ele>
        <time>2021-01-31 16:22:04</time>
      </trkpt>
      <trkpt lat="38.70727" lon="-0.10327">
        <ele>549.2</ele>
        <time>2021-01-31 16:22:05</time>
      </trkpt>
      <trkpt lat="38.70731" lon="-0.10337">
        <ele>549.2</ele>
        <time>2021-01-31 16:22:06</time>
      </trkpt>
      <trkpt lat="38.70733" lon="-0.10348">
        <ele>548.2</ele>
        <time>2021-01-31 16:22:07</time>
      </trkpt>
      <trkpt lat="38.70735" lon="-0.10359">
        <ele>547.2</ele>
        <time>2021-01-31 16:22:08</time>
      </trkpt>
      <trkpt lat="38.70736" lon="-0.10371">
        <ele>546.2</ele>
        <time>2021-01-31 16:22:09</time>
      </trkpt>
      <trkpt lat="38.70737" lon="-0.10383">
        <ele>545.6</ele>
        <time>2021-01-31 16:22:10</time>
      </trkpt>
      <trkpt lat="38.70737" lon="-0.10396">
        <ele>545.6</ele>
        <time>2021-01-31 16:22:11</time>
      </trkpt>
      <trkpt lat="38.70736" lon="-0.10408">
        <ele>545.6</ele>
        <time>2021-01-31 16:22:12</time>
      </trkpt>
      <trkpt lat="38.70736" lon="-0.10419">
        <ele>545.6</ele>
        <time>2021-01-31 16:22:13</time>
      </trkpt>
      <trkpt lat="38.70735" lon="-0.1043">
        <ele>545.6</ele>
        <time>2021-01-31 16:22:14</time>
      </trkpt>
      <trkpt lat="38.70733" lon="-0.1044">
        <ele>546.6</ele>
        <time>2021-01-31 16:22:15</time>
      </trkpt>
      <trkpt lat="38.70731" lon="-0.10449">
        <ele>547.6</ele>
        <time>2021-01-31 16:22:16</time>
      </trkpt>
      <trkpt lat="38.70727" lon="-0.10457">
        <ele>548.6</ele>
        <time>2021-01-31 16:22:17</time>
      </trkpt>
      <trkpt lat="38.70723" lon="-0.10463">
        <ele>549.2</ele>
        <time>2021-01-31 16:22:18</time>
      </trkpt>
      <trkpt lat="38.70718" lon="-0.10469">
        <ele>550</ele>
        <time>2021-01-31 16:22:19</time>
      </trkpt>
      <trkpt lat="38.70714" lon="-0.10473">
        <ele>550.2</ele>
        <time>2021-01-31 16:22:20</time>
      </trkpt>
      <trkpt lat="38.7071" lon="-0.10476">
        <ele>550.6</ele>
        <time>2021-01-31 16:22:21</time>
      </trkpt>
      <trkpt lat="38.70707" lon="-0.10481">
        <ele>551.6</ele>
        <time>2021-01-31 16:22:22</time>
      </trkpt>
      <trkpt lat="38.70703" lon="-0.10485">
        <ele>552.4</ele>
        <time>2021-01-31 16:22:23</time>
      </trkpt>
      <trkpt lat="38.707" lon="-0.10489">
        <ele>552.6</ele>
        <time>2021-01-31 16:22:24</time>
      </trkpt>
      <trkpt lat="38.70697" lon="-0.10493">
        <ele>553.6</ele>
        <time>2021-01-31 16:22:25</time>
      </trkpt>
      <trkpt lat="38.70694" lon="-0.10496">
        <ele>554</ele>
        <time>2021-01-31 16:22:26</time>
      </trkpt>
      <trkpt lat="38.70692" lon="-0.105">
        <ele>554.6</ele>
        <time>2021-01-31 16:22:27</time>
      </trkpt>
      <trkpt lat="38.70689" lon="-0.10504">
        <ele>554.8</ele>
        <time>2021-01-31 16:22:28</time>
      </trkpt>
      <trkpt lat="38.70687" lon="-0.10507">
        <ele>555.8</ele>
        <time>2021-01-31 16:22:29</time>
      </trkpt>
      <trkpt lat="38.70685" lon="-0.10511">
        <ele>555.8</ele>
        <time>2021-01-31 16:22:30</time>
      </trkpt>
      <trkpt lat="38.70683" lon="-0.10515">
        <ele>555.8</ele>
        <time>2021-01-31 16:22:31</time>
      </trkpt>
      <trkpt lat="38.70681" lon="-0.10518">
        <ele>555.8</ele>
        <time>2021-01-31 16:22:32</time>
      </trkpt>
      <trkpt lat="38.7068" lon="-0.10522">
        <ele>556.6</ele>
        <time>2021-01-31 16:22:33</time>
      </trkpt>
      <trkpt lat="38.70678" lon="-0.10525">
        <ele>556.8</ele>
        <time>2021-01-31 16:22:34</time>
      </trkpt>
      <trkpt lat="38.70676" lon="-0.10529">
        <ele>556.8</ele>
        <time>2021-01-31 16:22:35</time>
      </trkpt>
      <trkpt lat="38.70674" lon="-0.10532">
        <ele>556.8</ele>
        <time>2021-01-31 16:22:36</time>
      </trkpt>
      <trkpt lat="38.70672" lon="-0.10535">
        <ele>556.8</ele>
        <time>2021-01-31 16:22:37</time>
      </trkpt>
      <trkpt lat="38.70671" lon="-0.10538">
        <ele>556.2</ele>
        <time>2021-01-31 16:22:38</time>
      </trkpt>
      <trkpt lat="38.70669" lon="-0.10542">
        <ele>556.2</ele>
        <time>2021-01-31 16:22:39</time>
      </trkpt>
      <trkpt lat="38.70668" lon="-0.10545">
        <ele>556.2</ele>
        <time>2021-01-31 16:22:40</time>
      </trkpt>
      <trkpt lat="38.70666" lon="-0.10548">
        <ele>556.8</ele>
        <time>2021-01-31 16:22:41</time>
      </trkpt>
      <trkpt lat="38.70665" lon="-0.10551">
        <ele>557.2</ele>
        <time>2021-01-31 16:22:42</time>
      </trkpt>
      <trkpt lat="38.70664" lon="-0.10555">
        <ele>557.6</ele>
        <time>2021-01-31 16:22:43</time>
      </trkpt>
      <trkpt lat="38.70663" lon="-0.10558">
        <ele>557.6</ele>
        <time>2021-01-31 16:22:44</time>
      </trkpt>
      <trkpt lat="38.70662" lon="-0.10561">
        <ele>557.6</ele>
        <time>2021-01-31 16:22:45</time>
      </trkpt>
      <trkpt lat="38.70662" lon="-0.10561">
        <ele>557.2</ele>
        <time>2021-01-31 16:22:46</time>
      </trkpt>
      <trkpt lat="38.70661" lon="-0.10568">
        <ele>557</ele>
        <time>2021-01-31 16:22:47</time>
      </trkpt>
      <trkpt lat="38.7066" lon="-0.10571">
        <ele>556.4</ele>
        <time>2021-01-31 16:22:48</time>
      </trkpt>
      <trkpt lat="38.7066" lon="-0.10575">
        <ele>556.4</ele>
        <time>2021-01-31 16:22:49</time>
      </trkpt>
      <trkpt lat="38.70659" lon="-0.10578">
        <ele>556.4</ele>
        <time>2021-01-31 16:22:50</time>
      </trkpt>
      <trkpt lat="38.70659" lon="-0.10581">
        <ele>557.4</ele>
        <time>2021-01-31 16:22:51</time>
      </trkpt>
      <trkpt lat="38.70659" lon="-0.10585">
        <ele>558.4</ele>
        <time>2021-01-31 16:22:52</time>
      </trkpt>
      <trkpt lat="38.70659" lon="-0.10588">
        <ele>559.2</ele>
        <time>2021-01-31 16:22:53</time>
      </trkpt>
      <trkpt lat="38.70658" lon="-0.10591">
        <ele>560.2</ele>
        <time>2021-01-31 16:22:54</time>
      </trkpt>
      <trkpt lat="38.70658" lon="-0.10595">
        <ele>561</ele>
        <time>2021-01-31 16:22:55</time>
      </trkpt>
      <trkpt lat="38.70658" lon="-0.10595">
        <ele>561.2</ele>
        <time>2021-01-31 16:22:56</time>
      </trkpt>
      <trkpt lat="38.70658" lon="-0.10602">
        <ele>561.2</ele>
        <time>2021-01-31 16:22:57</time>
      </trkpt>
      <trkpt lat="38.70657" lon="-0.10606">
        <ele>561.2</ele>
        <time>2021-01-31 16:22:58</time>
      </trkpt>
      <trkpt lat="38.70657" lon="-0.10609">
        <ele>561</ele>
        <time>2021-01-31 16:22:59</time>
      </trkpt>
      <trkpt lat="38.70657" lon="-0.10612">
        <ele>561</ele>
        <time>2021-01-31 16:23:00</time>
      </trkpt>
      <trkpt lat="38.70656" lon="-0.10616">
        <ele>561</ele>
        <time>2021-01-31 16:23:01</time>
      </trkpt>
      <trkpt lat="38.70656" lon="-0.10619">
        <ele>561</ele>
        <time>2021-01-31 16:23:02</time>
      </trkpt>
      <trkpt lat="38.70656" lon="-0.10623">
        <ele>562</ele>
        <time>2021-01-31 16:23:03</time>
      </trkpt>
      <trkpt lat="38.70656" lon="-0.10627">
        <ele>562.8</ele>
        <time>2021-01-31 16:23:04</time>
      </trkpt>
      <trkpt lat="38.70656" lon="-0.1063">
        <ele>563</ele>
        <time>2021-01-31 16:23:05</time>
      </trkpt>
      <trkpt lat="38.70655" lon="-0.10633">
        <ele>563</ele>
        <time>2021-01-31 16:23:06</time>
      </trkpt>
      <trkpt lat="38.70655" lon="-0.10637">
        <ele>563</ele>
        <time>2021-01-31 16:23:07</time>
      </trkpt>
      <trkpt lat="38.70655" lon="-0.1064">
        <ele>562.4</ele>
        <time>2021-01-31 16:23:08</time>
      </trkpt>
      <trkpt lat="38.70654" lon="-0.10644">
        <ele>562.4</ele>
        <time>2021-01-31 16:23:09</time>
      </trkpt>
      <trkpt lat="38.70654" lon="-0.10647">
        <ele>562.4</ele>
        <time>2021-01-31 16:23:10</time>
      </trkpt>
      <trkpt lat="38.70654" lon="-0.10651">
        <ele>563.4</ele>
        <time>2021-01-31 16:23:11</time>
      </trkpt>
      <trkpt lat="38.70653" lon="-0.10654">
        <ele>564.2</ele>
        <time>2021-01-31 16:23:12</time>
      </trkpt>
      <trkpt lat="38.70653" lon="-0.10657">
        <ele>564.4</ele>
        <time>2021-01-31 16:23:13</time>
      </trkpt>
      <trkpt lat="38.70653" lon="-0.10661">
        <ele>564.4</ele>
        <time>2021-01-31 16:23:14</time>
      </trkpt>
      <trkpt lat="38.70652" lon="-0.10664">
        <ele>564.4</ele>
        <time>2021-01-31 16:23:15</time>
      </trkpt>
      <trkpt lat="38.70652" lon="-0.10667">
        <ele>564.4</ele>
        <time>2021-01-31 16:23:16</time>
      </trkpt>
      <trkpt lat="38.70651" lon="-0.10671">
        <ele>564.4</ele>
        <time>2021-01-31 16:23:17</time>
      </trkpt>
      <trkpt lat="38.70651" lon="-0.10674">
        <ele>564.4</ele>
        <time>2021-01-31 16:23:18</time>
      </trkpt>
      <trkpt lat="38.7065" lon="-0.10677">
        <ele>564.4</ele>
        <time>2021-01-31 16:23:19</time>
      </trkpt>
      <trkpt lat="38.70649" lon="-0.10681">
        <ele>564.4</ele>
        <time>2021-01-31 16:23:20</time>
      </trkpt>
      <trkpt lat="38.70649" lon="-0.10684">
        <ele>565.4</ele>
        <time>2021-01-31 16:23:21</time>
      </trkpt>
      <trkpt lat="38.70648" lon="-0.10687">
        <ele>565.8</ele>
        <time>2021-01-31 16:23:22</time>
      </trkpt>
      <trkpt lat="38.70648" lon="-0.10691">
        <ele>565.8</ele>
        <time>2021-01-31 16:23:23</time>
      </trkpt>
      <trkpt lat="38.70647" lon="-0.10694">
        <ele>565.8</ele>
        <time>2021-01-31 16:23:24</time>
      </trkpt>
      <trkpt lat="38.70647" lon="-0.10697">
        <ele>565.8</ele>
        <time>2021-01-31 16:23:25</time>
      </trkpt>
      <trkpt lat="38.70646" lon="-0.10701">
        <ele>566.6</ele>
        <time>2021-01-31 16:23:26</time>
      </trkpt>
      <trkpt lat="38.70645" lon="-0.10704">
        <ele>566.6</ele>
        <time>2021-01-31 16:23:27</time>
      </trkpt>
      <trkpt lat="38.70645" lon="-0.10708">
        <ele>566.6</ele>
        <time>2021-01-31 16:23:28</time>
      </trkpt>
      <trkpt lat="38.70645" lon="-0.10711">
        <ele>566.6</ele>
        <time>2021-01-31 16:23:29</time>
      </trkpt>
      <trkpt lat="38.70645" lon="-0.10714">
        <ele>567.6</ele>
        <time>2021-01-31 16:23:30</time>
      </trkpt>
      <trkpt lat="38.70645" lon="-0.10717">
        <ele>568</ele>
        <time>2021-01-31 16:23:31</time>
      </trkpt>
      <trkpt lat="38.70646" lon="-0.1072">
        <ele>568</ele>
        <time>2021-01-31 16:23:32</time>
      </trkpt>
      <trkpt lat="38.70647" lon="-0.10723">
        <ele>568</ele>
        <time>2021-01-31 16:23:33</time>
      </trkpt>
      <trkpt lat="38.70647" lon="-0.10727">
        <ele>567.6</ele>
        <time>2021-01-31 16:23:34</time>
      </trkpt>
      <trkpt lat="38.70648" lon="-0.10729">
        <ele>567.6</ele>
        <time>2021-01-31 16:23:35</time>
      </trkpt>
      <trkpt lat="38.70649" lon="-0.10732">
        <ele>567.6</ele>
        <time>2021-01-31 16:23:36</time>
      </trkpt>
      <trkpt lat="38.7065" lon="-0.10735">
        <ele>568.4</ele>
        <time>2021-01-31 16:23:37</time>
      </trkpt>
      <trkpt lat="38.7065" lon="-0.10738">
        <ele>569</ele>
        <time>2021-01-31 16:23:38</time>
      </trkpt>
      <trkpt lat="38.70651" lon="-0.10741">
        <ele>569.2</ele>
        <time>2021-01-31 16:23:39</time>
      </trkpt>
      <trkpt lat="38.70651" lon="-0.10744">
        <ele>570</ele>
        <time>2021-01-31 16:23:40</time>
      </trkpt>
      <trkpt lat="38.70651" lon="-0.10747">
        <ele>571</ele>
        <time>2021-01-31 16:23:41</time>
      </trkpt>
      <trkpt lat="38.70651" lon="-0.10751">
        <ele>571</ele>
        <time>2021-01-31 16:23:42</time>
      </trkpt>
      <trkpt lat="38.70651" lon="-0.10754">
        <ele>571.6</ele>
        <time>2021-01-31 16:23:43</time>
      </trkpt>
      <trkpt lat="38.70651" lon="-0.10757">
        <ele>571.6</ele>
        <time>2021-01-31 16:23:44</time>
      </trkpt>
      <trkpt lat="38.7065" lon="-0.10761">
        <ele>571.6</ele>
        <time>2021-01-31 16:23:45</time>
      </trkpt>
      <trkpt lat="38.7065" lon="-0.10764">
        <ele>571.6</ele>
        <time>2021-01-31 16:23:46</time>
      </trkpt>
      <trkpt lat="38.70649" lon="-0.10768">
        <ele>572.6</ele>
        <time>2021-01-31 16:23:47</time>
      </trkpt>
      <trkpt lat="38.70648" lon="-0.10771">
        <ele>573</ele>
        <time>2021-01-31 16:23:48</time>
      </trkpt>
      <trkpt lat="38.70647" lon="-0.10774">
        <ele>573</ele>
        <time>2021-01-31 16:23:49</time>
      </trkpt>
      <trkpt lat="38.70646" lon="-0.10777">
        <ele>573</ele>
        <time>2021-01-31 16:23:50</time>
      </trkpt>
      <trkpt lat="38.70645" lon="-0.1078">
        <ele>573</ele>
        <time>2021-01-31 16:23:51</time>
      </trkpt>
      <trkpt lat="38.70643" lon="-0.10782">
        <ele>572</ele>
        <time>2021-01-31 16:23:52</time>
      </trkpt>
      <trkpt lat="38.70641" lon="-0.10785">
        <ele>572</ele>
        <time>2021-01-31 16:23:53</time>
      </trkpt>
      <trkpt lat="38.70639" lon="-0.10787">
        <ele>572</ele>
        <time>2021-01-31 16:23:54</time>
      </trkpt>
      <trkpt lat="38.70637" lon="-0.10789">
        <ele>573</ele>
        <time>2021-01-31 16:23:55</time>
      </trkpt>
      <trkpt lat="38.70635" lon="-0.1079">
        <ele>573.6</ele>
        <time>2021-01-31 16:23:56</time>
      </trkpt>
      <trkpt lat="38.70633" lon="-0.10792">
        <ele>573.6</ele>
        <time>2021-01-31 16:23:57</time>
      </trkpt>
      <trkpt lat="38.7063" lon="-0.10794">
        <ele>573.6</ele>
        <time>2021-01-31 16:23:58</time>
      </trkpt>
      <trkpt lat="38.70629" lon="-0.10796">
        <ele>573.6</ele>
        <time>2021-01-31 16:23:59</time>
      </trkpt>
      <trkpt lat="38.70627" lon="-0.10799">
        <ele>574.6</ele>
        <time>2021-01-31 16:24:00</time>
      </trkpt>
      <trkpt lat="38.70625" lon="-0.10802">
        <ele>574.6</ele>
        <time>2021-01-31 16:24:01</time>
      </trkpt>
      <trkpt lat="38.70624" lon="-0.10805">
        <ele>575.2</ele>
        <time>2021-01-31 16:24:02</time>
      </trkpt>
      <trkpt lat="38.70623" lon="-0.10807">
        <ele>575.6</ele>
        <time>2021-01-31 16:24:03</time>
      </trkpt>
      <trkpt lat="38.70621" lon="-0.1081">
        <ele>575.8</ele>
        <time>2021-01-31 16:24:04</time>
      </trkpt>
      <trkpt lat="38.7062" lon="-0.10813">
        <ele>576.4</ele>
        <time>2021-01-31 16:24:05</time>
      </trkpt>
      <trkpt lat="38.70618" lon="-0.10815">
        <ele>576.6</ele>
        <time>2021-01-31 16:24:06</time>
      </trkpt>
      <trkpt lat="38.70617" lon="-0.10818">
        <ele>577</ele>
        <time>2021-01-31 16:24:07</time>
      </trkpt>
      <trkpt lat="38.70615" lon="-0.1082">
        <ele>577.8</ele>
        <time>2021-01-31 16:24:08</time>
      </trkpt>
      <trkpt lat="38.70613" lon="-0.10822">
        <ele>577.8</ele>
        <time>2021-01-31 16:24:09</time>
      </trkpt>
      <trkpt lat="38.70611" lon="-0.10824">
        <ele>577.8</ele>
        <time>2021-01-31 16:24:10</time>
      </trkpt>
      <trkpt lat="38.70608" lon="-0.10825">
        <ele>577.8</ele>
        <time>2021-01-31 16:24:11</time>
      </trkpt>
      <trkpt lat="38.70606" lon="-0.10827">
        <ele>578.8</ele>
        <time>2021-01-31 16:24:12</time>
      </trkpt>
      <trkpt lat="38.70604" lon="-0.10828">
        <ele>579.2</ele>
        <time>2021-01-31 16:24:13</time>
      </trkpt>
      <trkpt lat="38.70601" lon="-0.10828">
        <ele>579.4</ele>
        <time>2021-01-31 16:24:14</time>
      </trkpt>
      <trkpt lat="38.70599" lon="-0.10829">
        <ele>579.4</ele>
        <time>2021-01-31 16:24:15</time>
      </trkpt>
      <trkpt lat="38.70596" lon="-0.1083">
        <ele>579.4</ele>
        <time>2021-01-31 16:24:16</time>
      </trkpt>
      <trkpt lat="38.70593" lon="-0.1083">
        <ele>579.4</ele>
        <time>2021-01-31 16:24:17</time>
      </trkpt>
      <trkpt lat="38.70591" lon="-0.1083">
        <ele>578.8</ele>
        <time>2021-01-31 16:24:18</time>
      </trkpt>
      <trkpt lat="38.70589" lon="-0.1083">
        <ele>578.8</ele>
        <time>2021-01-31 16:24:19</time>
      </trkpt>
      <trkpt lat="38.70586" lon="-0.10831">
        <ele>578.8</ele>
        <time>2021-01-31 16:24:20</time>
      </trkpt>
      <trkpt lat="38.70584" lon="-0.10831">
        <ele>578.8</ele>
        <time>2021-01-31 16:24:21</time>
      </trkpt>
      <trkpt lat="38.70581" lon="-0.10831">
        <ele>578.8</ele>
        <time>2021-01-31 16:24:22</time>
      </trkpt>
      <trkpt lat="38.70579" lon="-0.1083">
        <ele>578.8</ele>
        <time>2021-01-31 16:24:23</time>
      </trkpt>
      <trkpt lat="38.70576" lon="-0.10829">
        <ele>578.8</ele>
        <time>2021-01-31 16:24:24</time>
      </trkpt>
      <trkpt lat="38.70574" lon="-0.10829">
        <ele>578.8</ele>
        <time>2021-01-31 16:24:25</time>
      </trkpt>
      <trkpt lat="38.70571" lon="-0.10828">
        <ele>577.8</ele>
        <time>2021-01-31 16:24:26</time>
      </trkpt>
      <trkpt lat="38.70569" lon="-0.10827">
        <ele>577.8</ele>
        <time>2021-01-31 16:24:27</time>
      </trkpt>
      <trkpt lat="38.70567" lon="-0.10825">
        <ele>577.8</ele>
        <time>2021-01-31 16:24:28</time>
      </trkpt>
      <trkpt lat="38.70565" lon="-0.10824">
        <ele>577.8</ele>
        <time>2021-01-31 16:24:29</time>
      </trkpt>
      <trkpt lat="38.70562" lon="-0.10822">
        <ele>578</ele>
        <time>2021-01-31 16:24:30</time>
      </trkpt>
      <trkpt lat="38.7056" lon="-0.10821">
        <ele>578.4</ele>
        <time>2021-01-31 16:24:31</time>
      </trkpt>
      <trkpt lat="38.70558" lon="-0.10819">
        <ele>578.8</ele>
        <time>2021-01-31 16:24:32</time>
      </trkpt>
      <trkpt lat="38.70556" lon="-0.10817">
        <ele>579.8</ele>
        <time>2021-01-31 16:24:33</time>
      </trkpt>
      <trkpt lat="38.70554" lon="-0.10815">
        <ele>579.8</ele>
        <time>2021-01-31 16:24:34</time>
      </trkpt>
      <trkpt lat="38.70552" lon="-0.10813">
        <ele>579.8</ele>
        <time>2021-01-31 16:24:35</time>
      </trkpt>
      <trkpt lat="38.7055" lon="-0.10811">
        <ele>579.8</ele>
        <time>2021-01-31 16:24:36</time>
      </trkpt>
      <trkpt lat="38.70548" lon="-0.10809">
        <ele>579.8</ele>
        <time>2021-01-31 16:24:37</time>
      </trkpt>
      <trkpt lat="38.70546" lon="-0.10807">
        <ele>580.6</ele>
        <time>2021-01-31 16:24:38</time>
      </trkpt>
      <trkpt lat="38.70544" lon="-0.10805">
        <ele>580.6</ele>
        <time>2021-01-31 16:24:39</time>
      </trkpt>
      <trkpt lat="38.70542" lon="-0.10802">
        <ele>580.6</ele>
        <time>2021-01-31 16:24:40</time>
      </trkpt>
      <trkpt lat="38.7054" lon="-0.108">
        <ele>580.6</ele>
        <time>2021-01-31 16:24:41</time>
      </trkpt>
      <trkpt lat="38.70538" lon="-0.10798">
        <ele>581</ele>
        <time>2021-01-31 16:24:42</time>
      </trkpt>
      <trkpt lat="38.70535" lon="-0.10796">
        <ele>581.2</ele>
        <time>2021-01-31 16:24:43</time>
      </trkpt>
      <trkpt lat="38.70533" lon="-0.10794">
        <ele>581.2</ele>
        <time>2021-01-31 16:24:44</time>
      </trkpt>
      <trkpt lat="38.70531" lon="-0.10792">
        <ele>581.2</ele>
        <time>2021-01-31 16:24:45</time>
      </trkpt>
      <trkpt lat="38.70529" lon="-0.1079">
        <ele>581.2</ele>
        <time>2021-01-31 16:24:46</time>
      </trkpt>
      <trkpt lat="38.70527" lon="-0.10788">
        <ele>581.2</ele>
        <time>2021-01-31 16:24:47</time>
      </trkpt>
      <trkpt lat="38.70525" lon="-0.10787">
        <ele>580.8</ele>
        <time>2021-01-31 16:24:48</time>
      </trkpt>
      <trkpt lat="38.70523" lon="-0.10785">
        <ele>580.8</ele>
        <time>2021-01-31 16:24:49</time>
      </trkpt>
      <trkpt lat="38.70521" lon="-0.10783">
        <ele>580.8</ele>
        <time>2021-01-31 16:24:50</time>
      </trkpt>
      <trkpt lat="38.70519" lon="-0.10781">
        <ele>581.6</ele>
        <time>2021-01-31 16:24:51</time>
      </trkpt>
      <trkpt lat="38.70516" lon="-0.1078">
        <ele>581.6</ele>
        <time>2021-01-31 16:24:52</time>
      </trkpt>
      <trkpt lat="38.70514" lon="-0.10778">
        <ele>581.6</ele>
        <time>2021-01-31 16:24:53</time>
      </trkpt>
      <trkpt lat="38.70512" lon="-0.10776">
        <ele>581.6</ele>
        <time>2021-01-31 16:24:54</time>
      </trkpt>
      <trkpt lat="38.7051" lon="-0.10775">
        <ele>582.4</ele>
        <time>2021-01-31 16:24:55</time>
      </trkpt>
      <trkpt lat="38.70508" lon="-0.10773">
        <ele>582.4</ele>
        <time>2021-01-31 16:24:56</time>
      </trkpt>
      <trkpt lat="38.70506" lon="-0.10771">
        <ele>582.4</ele>
        <time>2021-01-31 16:24:57</time>
      </trkpt>
      <trkpt lat="38.70504" lon="-0.1077">
        <ele>581.8</ele>
        <time>2021-01-31 16:24:58</time>
      </trkpt>
      <trkpt lat="38.70501" lon="-0.10768">
        <ele>581.8</ele>
        <time>2021-01-31 16:24:59</time>
      </trkpt>
      <trkpt lat="38.70499" lon="-0.10766">
        <ele>581.8</ele>
        <time>2021-01-31 16:25:00</time>
      </trkpt>
      <trkpt lat="38.70497" lon="-0.10764">
        <ele>582.4</ele>
        <time>2021-01-31 16:25:01</time>
      </trkpt>
      <trkpt lat="38.70495" lon="-0.10763">
        <ele>582.8</ele>
        <time>2021-01-31 16:25:02</time>
      </trkpt>
      <trkpt lat="38.70493" lon="-0.10761">
        <ele>583</ele>
        <time>2021-01-31 16:25:03</time>
      </trkpt>
      <trkpt lat="38.70491" lon="-0.10759">
        <ele>583</ele>
        <time>2021-01-31 16:25:04</time>
      </trkpt>
      <trkpt lat="38.70489" lon="-0.10757">
        <ele>583.6</ele>
        <time>2021-01-31 16:25:05</time>
      </trkpt>
      <trkpt lat="38.70487" lon="-0.10756">
        <ele>583.6</ele>
        <time>2021-01-31 16:25:06</time>
      </trkpt>
      <trkpt lat="38.70485" lon="-0.10754">
        <ele>583.6</ele>
        <time>2021-01-31 16:25:07</time>
      </trkpt>
      <trkpt lat="38.70483" lon="-0.10753">
        <ele>583.6</ele>
        <time>2021-01-31 16:25:08</time>
      </trkpt>
      <trkpt lat="38.7048" lon="-0.10751">
        <ele>583.6</ele>
        <time>2021-01-31 16:25:09</time>
      </trkpt>
      <trkpt lat="38.70478" lon="-0.1075">
        <ele>584.6</ele>
        <time>2021-01-31 16:25:10</time>
      </trkpt>
      <trkpt lat="38.70476" lon="-0.10748">
        <ele>585.6</ele>
        <time>2021-01-31 16:25:11</time>
      </trkpt>
      <trkpt lat="38.70474" lon="-0.10747">
        <ele>586.2</ele>
        <time>2021-01-31 16:25:12</time>
      </trkpt>
      <trkpt lat="38.70471" lon="-0.10746">
        <ele>586.6</ele>
        <time>2021-01-31 16:25:13</time>
      </trkpt>
      <trkpt lat="38.70469" lon="-0.10746">
        <ele>586.8</ele>
        <time>2021-01-31 16:25:14</time>
      </trkpt>
      <trkpt lat="38.70466" lon="-0.10746">
        <ele>587.2</ele>
        <time>2021-01-31 16:25:15</time>
      </trkpt>
      <trkpt lat="38.70464" lon="-0.10746">
        <ele>587.4</ele>
        <time>2021-01-31 16:25:16</time>
      </trkpt>
      <trkpt lat="38.70464" lon="-0.10746">
        <ele>587.4</ele>
        <time>2021-01-31 16:25:17</time>
      </trkpt>
      <trkpt lat="38.70459" lon="-0.10746">
        <ele>587.4</ele>
        <time>2021-01-31 16:25:18</time>
      </trkpt>
      <trkpt lat="38.70457" lon="-0.10747">
        <ele>587.4</ele>
        <time>2021-01-31 16:25:19</time>
      </trkpt>
      <trkpt lat="38.70454" lon="-0.10747">
        <ele>587.4</ele>
        <time>2021-01-31 16:25:20</time>
      </trkpt>
      <trkpt lat="38.70452" lon="-0.10748">
        <ele>588.2</ele>
        <time>2021-01-31 16:25:21</time>
      </trkpt>
      <trkpt lat="38.70449" lon="-0.10749">
        <ele>589.2</ele>
        <time>2021-01-31 16:25:22</time>
      </trkpt>
      <trkpt lat="38.70447" lon="-0.10749">
        <ele>589.2</ele>
        <time>2021-01-31 16:25:23</time>
      </trkpt>
      <trkpt lat="38.70445" lon="-0.1075">
        <ele>589.2</ele>
        <time>2021-01-31 16:25:24</time>
      </trkpt>
      <trkpt lat="38.70442" lon="-0.1075">
        <ele>589.2</ele>
        <time>2021-01-31 16:25:25</time>
      </trkpt>
      <trkpt lat="38.7044" lon="-0.10751">
        <ele>588.2</ele>
        <time>2021-01-31 16:25:26</time>
      </trkpt>
      <trkpt lat="38.70437" lon="-0.10751">
        <ele>588.2</ele>
        <time>2021-01-31 16:25:27</time>
      </trkpt>
      <trkpt lat="38.70435" lon="-0.10752">
        <ele>588.2</ele>
        <time>2021-01-31 16:25:28</time>
      </trkpt>
      <trkpt lat="38.70432" lon="-0.10753">
        <ele>588.2</ele>
        <time>2021-01-31 16:25:29</time>
      </trkpt>
      <trkpt lat="38.7043" lon="-0.10753">
        <ele>588.2</ele>
        <time>2021-01-31 16:25:30</time>
      </trkpt>
      <trkpt lat="38.70428" lon="-0.10754">
        <ele>588.2</ele>
        <time>2021-01-31 16:25:31</time>
      </trkpt>
      <trkpt lat="38.70425" lon="-0.10754">
        <ele>588.2</ele>
        <time>2021-01-31 16:25:32</time>
      </trkpt>
      <trkpt lat="38.70423" lon="-0.10754">
        <ele>589.2</ele>
        <time>2021-01-31 16:25:33</time>
      </trkpt>
      <trkpt lat="38.7042" lon="-0.10754">
        <ele>590.2</ele>
        <time>2021-01-31 16:25:34</time>
      </trkpt>
      <trkpt lat="38.70418" lon="-0.10754">
        <ele>590.2</ele>
        <time>2021-01-31 16:25:35</time>
      </trkpt>
      <trkpt lat="38.70415" lon="-0.10754">
        <ele>590.2</ele>
        <time>2021-01-31 16:25:36</time>
      </trkpt>
      <trkpt lat="38.70413" lon="-0.10753">
        <ele>589.2</ele>
        <time>2021-01-31 16:25:37</time>
      </trkpt>
      <trkpt lat="38.7041" lon="-0.10753">
        <ele>589.2</ele>
        <time>2021-01-31 16:25:38</time>
      </trkpt>
      <trkpt lat="38.70408" lon="-0.10752">
        <ele>589.2</ele>
        <time>2021-01-31 16:25:39</time>
      </trkpt>
      <trkpt lat="38.70405" lon="-0.10751">
        <ele>589.6</ele>
        <time>2021-01-31 16:25:40</time>
      </trkpt>
      <trkpt lat="38.70403" lon="-0.1075">
        <ele>589.6</ele>
        <time>2021-01-31 16:25:41</time>
      </trkpt>
      <trkpt lat="38.704" lon="-0.10749">
        <ele>589.6</ele>
        <time>2021-01-31 16:25:42</time>
      </trkpt>
      <trkpt lat="38.70398" lon="-0.10748">
        <ele>589.6</ele>
        <time>2021-01-31 16:25:43</time>
      </trkpt>
      <trkpt lat="38.70395" lon="-0.10747">
        <ele>589.6</ele>
        <time>2021-01-31 16:25:44</time>
      </trkpt>
      <trkpt lat="38.70393" lon="-0.10746">
        <ele>590.6</ele>
        <time>2021-01-31 16:25:45</time>
      </trkpt>
      <trkpt lat="38.7039" lon="-0.10745">
        <ele>591.2</ele>
        <time>2021-01-31 16:25:46</time>
      </trkpt>
      <trkpt lat="38.70387" lon="-0.10744">
        <ele>591.4</ele>
        <time>2021-01-31 16:25:47</time>
      </trkpt>
      <trkpt lat="38.70385" lon="-0.10743">
        <ele>591.8</ele>
        <time>2021-01-31 16:25:48</time>
      </trkpt>
      <trkpt lat="38.70382" lon="-0.10742">
        <ele>591.8</ele>
        <time>2021-01-31 16:25:49</time>
      </trkpt>
      <trkpt lat="38.7038" lon="-0.10741">
        <ele>592.2</ele>
        <time>2021-01-31 16:25:50</time>
      </trkpt>
      <trkpt lat="38.70377" lon="-0.1074">
        <ele>592.4</ele>
        <time>2021-01-31 16:25:51</time>
      </trkpt>
      <trkpt lat="38.70375" lon="-0.10739">
        <ele>593.2</ele>
        <time>2021-01-31 16:25:52</time>
      </trkpt>
      <trkpt lat="38.70372" lon="-0.10737">
        <ele>593.2</ele>
        <time>2021-01-31 16:25:53</time>
      </trkpt>
      <trkpt lat="38.70369" lon="-0.10736">
        <ele>593.2</ele>
        <time>2021-01-31 16:25:54</time>
      </trkpt>
      <trkpt lat="38.70367" lon="-0.10735">
        <ele>593.2</ele>
        <time>2021-01-31 16:25:55</time>
      </trkpt>
      <trkpt lat="38.70364" lon="-0.10734">
        <ele>593.2</ele>
        <time>2021-01-31 16:25:56</time>
      </trkpt>
      <trkpt lat="38.70361" lon="-0.10733">
        <ele>593.2</ele>
        <time>2021-01-31 16:25:57</time>
      </trkpt>
      <trkpt lat="38.70359" lon="-0.10732">
        <ele>594</ele>
        <time>2021-01-31 16:25:58</time>
      </trkpt>
      <trkpt lat="38.70356" lon="-0.1073">
        <ele>594</ele>
        <time>2021-01-31 16:25:59</time>
      </trkpt>
      <trkpt lat="38.70353" lon="-0.10729">
        <ele>594</ele>
        <time>2021-01-31 16:26:00</time>
      </trkpt>
      <trkpt lat="38.70351" lon="-0.10727">
        <ele>594</ele>
        <time>2021-01-31 16:26:01</time>
      </trkpt>
      <trkpt lat="38.70348" lon="-0.10726">
        <ele>593.2</ele>
        <time>2021-01-31 16:26:02</time>
      </trkpt>
      <trkpt lat="38.70345" lon="-0.10724">
        <ele>593.2</ele>
        <time>2021-01-31 16:26:03</time>
      </trkpt>
      <trkpt lat="38.70342" lon="-0.10722">
        <ele>593.2</ele>
        <time>2021-01-31 16:26:04</time>
      </trkpt>
      <trkpt lat="38.70338" lon="-0.1072">
        <ele>593.2</ele>
        <time>2021-01-31 16:26:05</time>
      </trkpt>
      <trkpt lat="38.70335" lon="-0.10718">
        <ele>593</ele>
        <time>2021-01-31 16:26:06</time>
      </trkpt>
      <trkpt lat="38.70332" lon="-0.10716">
        <ele>593</ele>
        <time>2021-01-31 16:26:07</time>
      </trkpt>
      <trkpt lat="38.70329" lon="-0.10715">
        <ele>593</ele>
        <time>2021-01-31 16:26:08</time>
      </trkpt>
      <trkpt lat="38.70326" lon="-0.10713">
        <ele>593</ele>
        <time>2021-01-31 16:26:09</time>
      </trkpt>
      <trkpt lat="38.70323" lon="-0.10711">
        <ele>592.6</ele>
        <time>2021-01-31 16:26:10</time>
      </trkpt>
      <trkpt lat="38.7032" lon="-0.10709">
        <ele>592</ele>
        <time>2021-01-31 16:26:11</time>
      </trkpt>
      <trkpt lat="38.70317" lon="-0.10707">
        <ele>592</ele>
        <time>2021-01-31 16:26:12</time>
      </trkpt>
      <trkpt lat="38.70314" lon="-0.10705">
        <ele>592</ele>
        <time>2021-01-31 16:26:13</time>
      </trkpt>
      <trkpt lat="38.70311" lon="-0.10703">
        <ele>592</ele>
        <time>2021-01-31 16:26:14</time>
      </trkpt>
      <trkpt lat="38.70308" lon="-0.10701">
        <ele>592.4</ele>
        <time>2021-01-31 16:26:15</time>
      </trkpt>
      <trkpt lat="38.70304" lon="-0.10699">
        <ele>592.4</ele>
        <time>2021-01-31 16:26:16</time>
      </trkpt>
      <trkpt lat="38.70301" lon="-0.10697">
        <ele>592.4</ele>
        <time>2021-01-31 16:26:17</time>
      </trkpt>
      <trkpt lat="38.70298" lon="-0.10694">
        <ele>592.4</ele>
        <time>2021-01-31 16:26:18</time>
      </trkpt>
      <trkpt lat="38.70296" lon="-0.10692">
        <ele>592.4</ele>
        <time>2021-01-31 16:26:19</time>
      </trkpt>
      <trkpt lat="38.70293" lon="-0.10689">
        <ele>593.4</ele>
        <time>2021-01-31 16:26:20</time>
      </trkpt>
      <trkpt lat="38.7029" lon="-0.10687">
        <ele>593.8</ele>
        <time>2021-01-31 16:26:21</time>
      </trkpt>
      <trkpt lat="38.70287" lon="-0.10685">
        <ele>594.2</ele>
        <time>2021-01-31 16:26:22</time>
      </trkpt>
      <trkpt lat="38.70284" lon="-0.10682">
        <ele>594.6</ele>
        <time>2021-01-31 16:26:23</time>
      </trkpt>
      <trkpt lat="38.70281" lon="-0.1068">
        <ele>595</ele>
        <time>2021-01-31 16:26:24</time>
      </trkpt>
      <trkpt lat="38.70278" lon="-0.10679">
        <ele>595.2</ele>
        <time>2021-01-31 16:26:25</time>
      </trkpt>
      <trkpt lat="38.70275" lon="-0.10677">
        <ele>595.2</ele>
        <time>2021-01-31 16:26:26</time>
      </trkpt>
      <trkpt lat="38.70272" lon="-0.10676">
        <ele>596</ele>
        <time>2021-01-31 16:26:27</time>
      </trkpt>
      <trkpt lat="38.70269" lon="-0.10675">
        <ele>596</ele>
        <time>2021-01-31 16:26:28</time>
      </trkpt>
      <trkpt lat="38.70266" lon="-0.10674">
        <ele>596</ele>
        <time>2021-01-31 16:26:29</time>
      </trkpt>
      <trkpt lat="38.70263" lon="-0.10673">
        <ele>596</ele>
        <time>2021-01-31 16:26:30</time>
      </trkpt>
      <trkpt lat="38.7026" lon="-0.10673">
        <ele>597</ele>
        <time>2021-01-31 16:26:31</time>
      </trkpt>
      <trkpt lat="38.70257" lon="-0.10672">
        <ele>598</ele>
        <time>2021-01-31 16:26:32</time>
      </trkpt>
      <trkpt lat="38.70254" lon="-0.10672">
        <ele>599</ele>
        <time>2021-01-31 16:26:33</time>
      </trkpt>
      <trkpt lat="38.70251" lon="-0.10671">
        <ele>600</ele>
        <time>2021-01-31 16:26:34</time>
      </trkpt>
      <trkpt lat="38.70248" lon="-0.1067">
        <ele>601</ele>
        <time>2021-01-31 16:26:35</time>
      </trkpt>
      <trkpt lat="38.70245" lon="-0.1067">
        <ele>602</ele>
        <time>2021-01-31 16:26:36</time>
      </trkpt>
      <trkpt lat="38.70242" lon="-0.10669">
        <ele>603</ele>
        <time>2021-01-31 16:26:37</time>
      </trkpt>
      <trkpt lat="38.7024" lon="-0.10668">
        <ele>603.8</ele>
        <time>2021-01-31 16:26:38</time>
      </trkpt>
      <trkpt lat="38.70237" lon="-0.10668">
        <ele>604.2</ele>
        <time>2021-01-31 16:26:39</time>
      </trkpt>
      <trkpt lat="38.70234" lon="-0.10667">
        <ele>604.2</ele>
        <time>2021-01-31 16:26:40</time>
      </trkpt>
      <trkpt lat="38.70231" lon="-0.10667">
        <ele>604.2</ele>
        <time>2021-01-31 16:26:41</time>
      </trkpt>
      <trkpt lat="38.70228" lon="-0.10666">
        <ele>603.2</ele>
        <time>2021-01-31 16:26:42</time>
      </trkpt>
      <trkpt lat="38.70225" lon="-0.10665">
        <ele>602.2</ele>
        <time>2021-01-31 16:26:43</time>
      </trkpt>
      <trkpt lat="38.70222" lon="-0.10665">
        <ele>601.6</ele>
        <time>2021-01-31 16:26:44</time>
      </trkpt>
      <trkpt lat="38.7022" lon="-0.10664">
        <ele>601</ele>
        <time>2021-01-31 16:26:45</time>
      </trkpt>
      <trkpt lat="38.70217" lon="-0.10664">
        <ele>601</ele>
        <time>2021-01-31 16:26:46</time>
      </trkpt>
      <trkpt lat="38.70214" lon="-0.10663">
        <ele>601</ele>
        <time>2021-01-31 16:26:47</time>
      </trkpt>
      <trkpt lat="38.70211" lon="-0.10663">
        <ele>601.8</ele>
        <time>2021-01-31 16:26:48</time>
      </trkpt>
      <trkpt lat="38.70208" lon="-0.10662">
        <ele>601.8</ele>
        <time>2021-01-31 16:26:49</time>
      </trkpt>
      <trkpt lat="38.70205" lon="-0.10662">
        <ele>601.8</ele>
        <time>2021-01-31 16:26:50</time>
      </trkpt>
      <trkpt lat="38.70203" lon="-0.10662">
        <ele>601.8</ele>
        <time>2021-01-31 16:26:51</time>
      </trkpt>
      <trkpt lat="38.702" lon="-0.10661">
        <ele>602.8</ele>
        <time>2021-01-31 16:26:52</time>
      </trkpt>
      <trkpt lat="38.70197" lon="-0.10661">
        <ele>603.8</ele>
        <time>2021-01-31 16:26:53</time>
      </trkpt>
      <trkpt lat="38.70194" lon="-0.1066">
        <ele>604.8</ele>
        <time>2021-01-31 16:26:54</time>
      </trkpt>
      <trkpt lat="38.70191" lon="-0.1066">
        <ele>605.8</ele>
        <time>2021-01-31 16:26:55</time>
      </trkpt>
      <trkpt lat="38.70189" lon="-0.10659">
        <ele>605.8</ele>
        <time>2021-01-31 16:26:56</time>
      </trkpt>
      <trkpt lat="38.70186" lon="-0.10659">
        <ele>605.8</ele>
        <time>2021-01-31 16:26:57</time>
      </trkpt>
      <trkpt lat="38.70183" lon="-0.10659">
        <ele>605.2</ele>
        <time>2021-01-31 16:26:58</time>
      </trkpt>
      <trkpt lat="38.7018" lon="-0.10659">
        <ele>604.6</ele>
        <time>2021-01-31 16:26:59</time>
      </trkpt>
      <trkpt lat="38.70177" lon="-0.10658">
        <ele>604</ele>
        <time>2021-01-31 16:27:00</time>
      </trkpt>
      <trkpt lat="38.70174" lon="-0.10658">
        <ele>604</ele>
        <time>2021-01-31 16:27:01</time>
      </trkpt>
      <trkpt lat="38.70171" lon="-0.10658">
        <ele>604</ele>
        <time>2021-01-31 16:27:02</time>
      </trkpt>
      <trkpt lat="38.70168" lon="-0.10658">
        <ele>604</ele>
        <time>2021-01-31 16:27:03</time>
      </trkpt>
      <trkpt lat="38.70165" lon="-0.10657">
        <ele>604.6</ele>
        <time>2021-01-31 16:27:04</time>
      </trkpt>
      <trkpt lat="38.70162" lon="-0.10657">
        <ele>605</ele>
        <time>2021-01-31 16:27:05</time>
      </trkpt>
      <trkpt lat="38.70159" lon="-0.10657">
        <ele>605.4</ele>
        <time>2021-01-31 16:27:06</time>
      </trkpt>
      <trkpt lat="38.70156" lon="-0.10657">
        <ele>605.4</ele>
        <time>2021-01-31 16:27:07</time>
      </trkpt>
      <trkpt lat="38.70153" lon="-0.10656">
        <ele>605.4</ele>
        <time>2021-01-31 16:27:08</time>
      </trkpt>
      <trkpt lat="38.7015" lon="-0.10656">
        <ele>605.4</ele>
        <time>2021-01-31 16:27:09</time>
      </trkpt>
      <trkpt lat="38.70147" lon="-0.10655">
        <ele>605.4</ele>
        <time>2021-01-31 16:27:10</time>
      </trkpt>
      <trkpt lat="38.70144" lon="-0.10654">
        <ele>605.4</ele>
        <time>2021-01-31 16:27:11</time>
      </trkpt>
      <trkpt lat="38.70142" lon="-0.10653">
        <ele>606.2</ele>
        <time>2021-01-31 16:27:12</time>
      </trkpt>
      <trkpt lat="38.70139" lon="-0.10652">
        <ele>606.6</ele>
        <time>2021-01-31 16:27:13</time>
      </trkpt>
      <trkpt lat="38.70136" lon="-0.10651">
        <ele>606.6</ele>
        <time>2021-01-31 16:27:14</time>
      </trkpt>
      <trkpt lat="38.70133" lon="-0.1065">
        <ele>606.6</ele>
        <time>2021-01-31 16:27:15</time>
      </trkpt>
      <trkpt lat="38.70131" lon="-0.10649">
        <ele>606.6</ele>
        <time>2021-01-31 16:27:16</time>
      </trkpt>
      <trkpt lat="38.70128" lon="-0.10647">
        <ele>607.2</ele>
        <time>2021-01-31 16:27:17</time>
      </trkpt>
      <trkpt lat="38.70126" lon="-0.10645">
        <ele>607.6</ele>
        <time>2021-01-31 16:27:18</time>
      </trkpt>
      <trkpt lat="38.70124" lon="-0.10643">
        <ele>607.8</ele>
        <time>2021-01-31 16:27:19</time>
      </trkpt>
      <trkpt lat="38.70122" lon="-0.1064">
        <ele>608</ele>
        <time>2021-01-31 16:27:20</time>
      </trkpt>
      <trkpt lat="38.7012" lon="-0.10637">
        <ele>608.4</ele>
        <time>2021-01-31 16:27:21</time>
      </trkpt>
      <trkpt lat="38.70119" lon="-0.10633">
        <ele>608.6</ele>
        <time>2021-01-31 16:27:22</time>
      </trkpt>
      <trkpt lat="38.70118" lon="-0.1063">
        <ele>608.6</ele>
        <time>2021-01-31 16:27:23</time>
      </trkpt>
      <trkpt lat="38.70118" lon="-0.10626">
        <ele>608.6</ele>
        <time>2021-01-31 16:27:24</time>
      </trkpt>
      <trkpt lat="38.70118" lon="-0.10623">
        <ele>608.6</ele>
        <time>2021-01-31 16:27:25</time>
      </trkpt>
      <trkpt lat="38.70118" lon="-0.10619">
        <ele>609.6</ele>
        <time>2021-01-31 16:27:26</time>
      </trkpt>
      <trkpt lat="38.70119" lon="-0.10616">
        <ele>610</ele>
        <time>2021-01-31 16:27:27</time>
      </trkpt>
      <trkpt lat="38.70121" lon="-0.10613">
        <ele>610</ele>
        <time>2021-01-31 16:27:28</time>
      </trkpt>
      <trkpt lat="38.70123" lon="-0.1061">
        <ele>610</ele>
        <time>2021-01-31 16:27:29</time>
      </trkpt>
      <trkpt lat="38.70125" lon="-0.10608">
        <ele>609</ele>
        <time>2021-01-31 16:27:30</time>
      </trkpt>
      <trkpt lat="38.70127" lon="-0.10606">
        <ele>609</ele>
        <time>2021-01-31 16:27:31</time>
      </trkpt>
      <trkpt lat="38.70129" lon="-0.10604">
        <ele>609</ele>
        <time>2021-01-31 16:27:32</time>
      </trkpt>
      <trkpt lat="38.70132" lon="-0.10603">
        <ele>610</ele>
        <time>2021-01-31 16:27:33</time>
      </trkpt>
      <trkpt lat="38.70134" lon="-0.10601">
        <ele>610</ele>
        <time>2021-01-31 16:27:34</time>
      </trkpt>
      <trkpt lat="38.70137" lon="-0.106">
        <ele>610</ele>
        <time>2021-01-31 16:27:35</time>
      </trkpt>
      <trkpt lat="38.70139" lon="-0.10598">
        <ele>609.6</ele>
        <time>2021-01-31 16:27:36</time>
      </trkpt>
      <trkpt lat="38.70142" lon="-0.10595">
        <ele>609.6</ele>
        <time>2021-01-31 16:27:37</time>
      </trkpt>
      <trkpt lat="38.70144" lon="-0.10592">
        <ele>609.6</ele>
        <time>2021-01-31 16:27:38</time>
      </trkpt>
      <trkpt lat="38.70145" lon="-0.10589">
        <ele>610.6</ele>
        <time>2021-01-31 16:27:39</time>
      </trkpt>
      <trkpt lat="38.70146" lon="-0.10586">
        <ele>610.8</ele>
        <time>2021-01-31 16:27:40</time>
      </trkpt>
      <trkpt lat="38.70147" lon="-0.10582">
        <ele>611</ele>
        <time>2021-01-31 16:27:41</time>
      </trkpt>
      <trkpt lat="38.70148" lon="-0.10579">
        <ele>611</ele>
        <time>2021-01-31 16:27:42</time>
      </trkpt>
      <trkpt lat="38.70147" lon="-0.10575">
        <ele>611</ele>
        <time>2021-01-31 16:27:43</time>
      </trkpt>
      <trkpt lat="38.70147" lon="-0.10572">
        <ele>611</ele>
        <time>2021-01-31 16:27:44</time>
      </trkpt>
      <trkpt lat="38.70146" lon="-0.10569">
        <ele>611</ele>
        <time>2021-01-31 16:27:45</time>
      </trkpt>
      <trkpt lat="38.70146" lon="-0.10566">
        <ele>611</ele>
        <time>2021-01-31 16:27:46</time>
      </trkpt>
      <trkpt lat="38.70145" lon="-0.10563">
        <ele>610.8</ele>
        <time>2021-01-31 16:27:47</time>
      </trkpt>
      <trkpt lat="38.70144" lon="-0.1056">
        <ele>610.8</ele>
        <time>2021-01-31 16:27:48</time>
      </trkpt>
      <trkpt lat="38.70143" lon="-0.10557">
        <ele>610.8</ele>
        <time>2021-01-31 16:27:49</time>
      </trkpt>
      <trkpt lat="38.70142" lon="-0.10555">
        <ele>610.8</ele>
        <time>2021-01-31 16:27:50</time>
      </trkpt>
      <trkpt lat="38.70141" lon="-0.10552">
        <ele>610.8</ele>
        <time>2021-01-31 16:27:51</time>
      </trkpt>
      <trkpt lat="38.7014" lon="-0.10549">
        <ele>610.8</ele>
        <time>2021-01-31 16:27:52</time>
      </trkpt>
      <trkpt lat="38.70139" lon="-0.10546">
        <ele>611.4</ele>
        <time>2021-01-31 16:27:53</time>
      </trkpt>
      <trkpt lat="38.70138" lon="-0.10544">
        <ele>611.4</ele>
        <time>2021-01-31 16:27:54</time>
      </trkpt>
      <trkpt lat="38.70136" lon="-0.10541">
        <ele>611.4</ele>
        <time>2021-01-31 16:27:55</time>
      </trkpt>
      <trkpt lat="38.70135" lon="-0.10538">
        <ele>610.4</ele>
        <time>2021-01-31 16:27:56</time>
      </trkpt>
      <trkpt lat="38.70134" lon="-0.10536">
        <ele>610.4</ele>
        <time>2021-01-31 16:27:57</time>
      </trkpt>
      <trkpt lat="38.70132" lon="-0.10533">
        <ele>610.4</ele>
        <time>2021-01-31 16:27:58</time>
      </trkpt>
      <trkpt lat="38.70131" lon="-0.10531">
        <ele>611.4</ele>
        <time>2021-01-31 16:27:59</time>
      </trkpt>
      <trkpt lat="38.7013" lon="-0.10528">
        <ele>611.4</ele>
        <time>2021-01-31 16:28:00</time>
      </trkpt>
      <trkpt lat="38.70129" lon="-0.10525">
        <ele>611.6</ele>
        <time>2021-01-31 16:28:01</time>
      </trkpt>
      <trkpt lat="38.70128" lon="-0.10523">
        <ele>612</ele>
        <time>2021-01-31 16:28:02</time>
      </trkpt>
      <trkpt lat="38.70126" lon="-0.1052">
        <ele>612</ele>
        <time>2021-01-31 16:28:03</time>
      </trkpt>
      <trkpt lat="38.70125" lon="-0.10518">
        <ele>612</ele>
        <time>2021-01-31 16:28:04</time>
      </trkpt>
      <trkpt lat="38.70124" lon="-0.10515">
        <ele>612</ele>
        <time>2021-01-31 16:28:05</time>
      </trkpt>
      <trkpt lat="38.70123" lon="-0.10513">
        <ele>612</ele>
        <time>2021-01-31 16:28:06</time>
      </trkpt>
      <trkpt lat="38.70121" lon="-0.1051">
        <ele>612.8</ele>
        <time>2021-01-31 16:28:07</time>
      </trkpt>
      <trkpt lat="38.7012" lon="-0.10507">
        <ele>612.8</ele>
        <time>2021-01-31 16:28:08</time>
      </trkpt>
      <trkpt lat="38.70119" lon="-0.10504">
        <ele>612.8</ele>
        <time>2021-01-31 16:28:09</time>
      </trkpt>
      <trkpt lat="38.70118" lon="-0.10501">
        <ele>612.8</ele>
        <time>2021-01-31 16:28:10</time>
      </trkpt>
      <trkpt lat="38.70117" lon="-0.10498">
        <ele>613.8</ele>
        <time>2021-01-31 16:28:11</time>
      </trkpt>
      <trkpt lat="38.70116" lon="-0.10495">
        <ele>614.8</ele>
        <time>2021-01-31 16:28:12</time>
      </trkpt>
      <trkpt lat="38.70115" lon="-0.10492">
        <ele>615.2</ele>
        <time>2021-01-31 16:28:13</time>
      </trkpt>
      <trkpt lat="38.70114" lon="-0.10488">
        <ele>615.4</ele>
        <time>2021-01-31 16:28:14</time>
      </trkpt>
      <trkpt lat="38.70113" lon="-0.10485">
        <ele>616.4</ele>
        <time>2021-01-31 16:28:15</time>
      </trkpt>
      <trkpt lat="38.70112" lon="-0.10482">
        <ele>616.4</ele>
        <time>2021-01-31 16:28:16</time>
      </trkpt>
      <trkpt lat="38.70112" lon="-0.10478">
        <ele>616.4</ele>
        <time>2021-01-31 16:28:17</time>
      </trkpt>
      <trkpt lat="38.70111" lon="-0.10475">
        <ele>616.4</ele>
        <time>2021-01-31 16:28:18</time>
      </trkpt>
      <trkpt lat="38.70111" lon="-0.10472">
        <ele>616.4</ele>
        <time>2021-01-31 16:28:19</time>
      </trkpt>
      <trkpt lat="38.7011" lon="-0.10468">
        <ele>616.4</ele>
        <time>2021-01-31 16:28:20</time>
      </trkpt>
      <trkpt lat="38.70109" lon="-0.10465">
        <ele>617.4</ele>
        <time>2021-01-31 16:28:21</time>
      </trkpt>
      <trkpt lat="38.70108" lon="-0.10462">
        <ele>618.4</ele>
        <time>2021-01-31 16:28:22</time>
      </trkpt>
      <trkpt lat="38.70107" lon="-0.10459">
        <ele>618.4</ele>
        <time>2021-01-31 16:28:23</time>
      </trkpt>
      <trkpt lat="38.70106" lon="-0.10455">
        <ele>618.4</ele>
        <time>2021-01-31 16:28:24</time>
      </trkpt>
      <trkpt lat="38.70105" lon="-0.10452">
        <ele>617.4</ele>
        <time>2021-01-31 16:28:25</time>
      </trkpt>
      <trkpt lat="38.70105" lon="-0.10449">
        <ele>617</ele>
        <time>2021-01-31 16:28:26</time>
      </trkpt>
      <trkpt lat="38.70104" lon="-0.10445">
        <ele>617</ele>
        <time>2021-01-31 16:28:27</time>
      </trkpt>
      <trkpt lat="38.70103" lon="-0.10442">
        <ele>617</ele>
        <time>2021-01-31 16:28:28</time>
      </trkpt>
      <trkpt lat="38.70102" lon="-0.10439">
        <ele>617</ele>
        <time>2021-01-31 16:28:29</time>
      </trkpt>
      <trkpt lat="38.70101" lon="-0.10435">
        <ele>617</ele>
        <time>2021-01-31 16:28:30</time>
      </trkpt>
      <trkpt lat="38.701" lon="-0.10432">
        <ele>617</ele>
        <time>2021-01-31 16:28:31</time>
      </trkpt>
      <trkpt lat="38.70099" lon="-0.10428">
        <ele>617</ele>
        <time>2021-01-31 16:28:32</time>
      </trkpt>
      <trkpt lat="38.70099" lon="-0.10424">
        <ele>617</ele>
        <time>2021-01-31 16:28:33</time>
      </trkpt>
      <trkpt lat="38.70098" lon="-0.1042">
        <ele>617</ele>
        <time>2021-01-31 16:28:34</time>
      </trkpt>
      <trkpt lat="38.70098" lon="-0.10417">
        <ele>617</ele>
        <time>2021-01-31 16:28:35</time>
      </trkpt>
      <trkpt lat="38.70097" lon="-0.10413">
        <ele>617.6</ele>
        <time>2021-01-31 16:28:36</time>
      </trkpt>
      <trkpt lat="38.70096" lon="-0.10409">
        <ele>618.2</ele>
        <time>2021-01-31 16:28:37</time>
      </trkpt>
      <trkpt lat="38.70094" lon="-0.10406">
        <ele>619.2</ele>
        <time>2021-01-31 16:28:38</time>
      </trkpt>
      <trkpt lat="38.70092" lon="-0.10403">
        <ele>619.4</ele>
        <time>2021-01-31 16:28:39</time>
      </trkpt>
      <trkpt lat="38.7009" lon="-0.104">
        <ele>620</ele>
        <time>2021-01-31 16:28:40</time>
      </trkpt>
      <trkpt lat="38.70088" lon="-0.10397">
        <ele>620.2</ele>
        <time>2021-01-31 16:28:41</time>
      </trkpt>
      <trkpt lat="38.70086" lon="-0.10395">
        <ele>620.8</ele>
        <time>2021-01-31 16:28:42</time>
      </trkpt>
      <trkpt lat="38.70083" lon="-0.10393">
        <ele>621.2</ele>
        <time>2021-01-31 16:28:43</time>
      </trkpt>
      <trkpt lat="38.70081" lon="-0.10391">
        <ele>621.2</ele>
        <time>2021-01-31 16:28:44</time>
      </trkpt>
      <trkpt lat="38.70078" lon="-0.1039">
        <ele>621.2</ele>
        <time>2021-01-31 16:28:45</time>
      </trkpt>
      <trkpt lat="38.70076" lon="-0.10388">
        <ele>620.8</ele>
        <time>2021-01-31 16:28:46</time>
      </trkpt>
      <trkpt lat="38.70073" lon="-0.10386">
        <ele>620.8</ele>
        <time>2021-01-31 16:28:47</time>
      </trkpt>
      <trkpt lat="38.7007" lon="-0.10385">
        <ele>620.8</ele>
        <time>2021-01-31 16:28:48</time>
      </trkpt>
      <trkpt lat="38.7007" lon="-0.10385">
        <ele>621.8</ele>
        <time>2021-01-31 16:28:49</time>
      </trkpt>
      <trkpt lat="38.70065" lon="-0.1038">
        <ele>622.2</ele>
        <time>2021-01-31 16:28:50</time>
      </trkpt>
      <trkpt lat="38.70063" lon="-0.10378">
        <ele>622.4</ele>
        <time>2021-01-31 16:28:51</time>
      </trkpt>
      <trkpt lat="38.70061" lon="-0.10376">
        <ele>623</ele>
        <time>2021-01-31 16:28:52</time>
      </trkpt>
      <trkpt lat="38.70058" lon="-0.10373">
        <ele>623</ele>
        <time>2021-01-31 16:28:53</time>
      </trkpt>
      <trkpt lat="38.70056" lon="-0.10371">
        <ele>623</ele>
        <time>2021-01-31 16:28:54</time>
      </trkpt>
      <trkpt lat="38.70053" lon="-0.10368">
        <ele>623</ele>
        <time>2021-01-31 16:28:55</time>
      </trkpt>
      <trkpt lat="38.7005" lon="-0.10366">
        <ele>623</ele>
        <time>2021-01-31 16:28:56</time>
      </trkpt>
      <trkpt lat="38.70047" lon="-0.10364">
        <ele>622.6</ele>
        <time>2021-01-31 16:28:57</time>
      </trkpt>
      <trkpt lat="38.70044" lon="-0.10362">
        <ele>622.6</ele>
        <time>2021-01-31 16:28:58</time>
      </trkpt>
      <trkpt lat="38.70041" lon="-0.10361">
        <ele>622.6</ele>
        <time>2021-01-31 16:28:59</time>
      </trkpt>
      <trkpt lat="38.70037" lon="-0.1036">
        <ele>622.6</ele>
        <time>2021-01-31 16:29:00</time>
      </trkpt>
      <trkpt lat="38.70034" lon="-0.10358">
        <ele>622.6</ele>
        <time>2021-01-31 16:29:01</time>
      </trkpt>
      <trkpt lat="38.7003" lon="-0.10356">
        <ele>622.6</ele>
        <time>2021-01-31 16:29:02</time>
      </trkpt>
      <trkpt lat="38.70026" lon="-0.10355">
        <ele>623.4</ele>
        <time>2021-01-31 16:29:03</time>
      </trkpt>
      <trkpt lat="38.70023" lon="-0.10353">
        <ele>623.4</ele>
        <time>2021-01-31 16:29:04</time>
      </trkpt>
      <trkpt lat="38.70019" lon="-0.1035">
        <ele>623.8</ele>
        <time>2021-01-31 16:29:05</time>
      </trkpt>
      <trkpt lat="38.70016" lon="-0.10348">
        <ele>623.8</ele>
        <time>2021-01-31 16:29:06</time>
      </trkpt>
      <trkpt lat="38.70013" lon="-0.10344">
        <ele>623.8</ele>
        <time>2021-01-31 16:29:07</time>
      </trkpt>
      <trkpt lat="38.7001" lon="-0.10341">
        <ele>623.2</ele>
        <time>2021-01-31 16:29:08</time>
      </trkpt>
      <trkpt lat="38.70007" lon="-0.10338">
        <ele>623.2</ele>
        <time>2021-01-31 16:29:09</time>
      </trkpt>
      <trkpt lat="38.70004" lon="-0.10334">
        <ele>623.2</ele>
        <time>2021-01-31 16:29:10</time>
      </trkpt>
      <trkpt lat="38.70001" lon="-0.1033">
        <ele>624</ele>
        <time>2021-01-31 16:29:11</time>
      </trkpt>
      <trkpt lat="38.69998" lon="-0.10327">
        <ele>624.4</ele>
        <time>2021-01-31 16:29:12</time>
      </trkpt>
      <trkpt lat="38.69995" lon="-0.10323">
        <ele>624.6</ele>
        <time>2021-01-31 16:29:13</time>
      </trkpt>
      <trkpt lat="38.69992" lon="-0.1032">
        <ele>624.6</ele>
        <time>2021-01-31 16:29:14</time>
      </trkpt>
      <trkpt lat="38.69989" lon="-0.10317">
        <ele>624.8</ele>
        <time>2021-01-31 16:29:15</time>
      </trkpt>
      <trkpt lat="38.69985" lon="-0.10313">
        <ele>624.8</ele>
        <time>2021-01-31 16:29:16</time>
      </trkpt>
      <trkpt lat="38.69982" lon="-0.1031">
        <ele>624.8</ele>
        <time>2021-01-31 16:29:17</time>
      </trkpt>
      <trkpt lat="38.69979" lon="-0.10307">
        <ele>624.8</ele>
        <time>2021-01-31 16:29:18</time>
      </trkpt>
      <trkpt lat="38.69976" lon="-0.10304">
        <ele>624.8</ele>
        <time>2021-01-31 16:29:19</time>
      </trkpt>
      <trkpt lat="38.69973" lon="-0.10301">
        <ele>625.2</ele>
        <time>2021-01-31 16:29:20</time>
      </trkpt>
      <trkpt lat="38.6997" lon="-0.10298">
        <ele>626.2</ele>
        <time>2021-01-31 16:29:21</time>
      </trkpt>
      <trkpt lat="38.69966" lon="-0.10295">
        <ele>626.4</ele>
        <time>2021-01-31 16:29:22</time>
      </trkpt>
      <trkpt lat="38.69963" lon="-0.10292">
        <ele>626.8</ele>
        <time>2021-01-31 16:29:23</time>
      </trkpt>
      <trkpt lat="38.69959" lon="-0.1029">
        <ele>627.8</ele>
        <time>2021-01-31 16:29:24</time>
      </trkpt>
      <trkpt lat="38.69955" lon="-0.10289">
        <ele>628.8</ele>
        <time>2021-01-31 16:29:25</time>
      </trkpt>
      <trkpt lat="38.69951" lon="-0.10288">
        <ele>628.8</ele>
        <time>2021-01-31 16:29:26</time>
      </trkpt>
      <trkpt lat="38.69948" lon="-0.10288">
        <ele>628.8</ele>
        <time>2021-01-31 16:29:27</time>
      </trkpt>
      <trkpt lat="38.69944" lon="-0.10288">
        <ele>628.6</ele>
        <time>2021-01-31 16:29:28</time>
      </trkpt>
      <trkpt lat="38.6994" lon="-0.10288">
        <ele>628.6</ele>
        <time>2021-01-31 16:29:29</time>
      </trkpt>
      <trkpt lat="38.69936" lon="-0.10288">
        <ele>628.6</ele>
        <time>2021-01-31 16:29:30</time>
      </trkpt>
      <trkpt lat="38.69932" lon="-0.10287">
        <ele>629.6</ele>
        <time>2021-01-31 16:29:31</time>
      </trkpt>
      <trkpt lat="38.69928" lon="-0.10286">
        <ele>630</ele>
        <time>2021-01-31 16:29:32</time>
      </trkpt>
      <trkpt lat="38.69924" lon="-0.10284">
        <ele>630</ele>
        <time>2021-01-31 16:29:33</time>
      </trkpt>
      <trkpt lat="38.6992" lon="-0.10282">
        <ele>630</ele>
        <time>2021-01-31 16:29:34</time>
      </trkpt>
      <trkpt lat="38.69917" lon="-0.10279">
        <ele>629.2</ele>
        <time>2021-01-31 16:29:35</time>
      </trkpt>
      <trkpt lat="38.69913" lon="-0.10277">
        <ele>629.2</ele>
        <time>2021-01-31 16:29:36</time>
      </trkpt>
      <trkpt lat="38.6991" lon="-0.10273">
        <ele>629.2</ele>
        <time>2021-01-31 16:29:37</time>
      </trkpt>
      <trkpt lat="38.69907" lon="-0.10269">
        <ele>629.2</ele>
        <time>2021-01-31 16:29:38</time>
      </trkpt>
      <trkpt lat="38.69905" lon="-0.10265">
        <ele>629.2</ele>
        <time>2021-01-31 16:29:39</time>
      </trkpt>
      <trkpt lat="38.69902" lon="-0.10261">
        <ele>629.2</ele>
        <time>2021-01-31 16:29:40</time>
      </trkpt>
      <trkpt lat="38.69899" lon="-0.10257">
        <ele>629.2</ele>
        <time>2021-01-31 16:29:41</time>
      </trkpt>
      <trkpt lat="38.69896" lon="-0.10253">
        <ele>629.2</ele>
        <time>2021-01-31 16:29:42</time>
      </trkpt>
      <trkpt lat="38.69893" lon="-0.10249">
        <ele>629.2</ele>
        <time>2021-01-31 16:29:43</time>
      </trkpt>
      <trkpt lat="38.6989" lon="-0.10245">
        <ele>629.2</ele>
        <time>2021-01-31 16:29:44</time>
      </trkpt>
      <trkpt lat="38.69887" lon="-0.10241">
        <ele>629.2</ele>
        <time>2021-01-31 16:29:45</time>
      </trkpt>
      <trkpt lat="38.69884" lon="-0.10237">
        <ele>629.2</ele>
        <time>2021-01-31 16:29:46</time>
      </trkpt>
      <trkpt lat="38.69881" lon="-0.10232">
        <ele>628.2</ele>
        <time>2021-01-31 16:29:47</time>
      </trkpt>
      <trkpt lat="38.69877" lon="-0.10228">
        <ele>628.2</ele>
        <time>2021-01-31 16:29:48</time>
      </trkpt>
      <trkpt lat="38.69874" lon="-0.10224">
        <ele>628.2</ele>
        <time>2021-01-31 16:29:49</time>
      </trkpt>
      <trkpt lat="38.69871" lon="-0.10222">
        <ele>629</ele>
        <time>2021-01-31 16:29:50</time>
      </trkpt>
      <trkpt lat="38.69867" lon="-0.10219">
        <ele>629.4</ele>
        <time>2021-01-31 16:29:51</time>
      </trkpt>
      <trkpt lat="38.69863" lon="-0.10217">
        <ele>629.6</ele>
        <time>2021-01-31 16:29:52</time>
      </trkpt>
      <trkpt lat="38.69859" lon="-0.10215">
        <ele>629.6</ele>
        <time>2021-01-31 16:29:53</time>
      </trkpt>
      <trkpt lat="38.69854" lon="-0.10213">
        <ele>629.6</ele>
        <time>2021-01-31 16:29:54</time>
      </trkpt>
      <trkpt lat="38.6985" lon="-0.10212">
        <ele>629.2</ele>
        <time>2021-01-31 16:29:55</time>
      </trkpt>
      <trkpt lat="38.69845" lon="-0.10211">
        <ele>629.2</ele>
        <time>2021-01-31 16:29:56</time>
      </trkpt>
      <trkpt lat="38.6984" lon="-0.1021">
        <ele>629.2</ele>
        <time>2021-01-31 16:29:57</time>
      </trkpt>
      <trkpt lat="38.69836" lon="-0.1021">
        <ele>630.2</ele>
        <time>2021-01-31 16:29:58</time>
      </trkpt>
      <trkpt lat="38.69832" lon="-0.1021">
        <ele>631</ele>
        <time>2021-01-31 16:29:59</time>
      </trkpt>
      <trkpt lat="38.69828" lon="-0.10211">
        <ele>631</ele>
        <time>2021-01-31 16:30:00</time>
      </trkpt>
      <trkpt lat="38.69824" lon="-0.10213">
        <ele>631</ele>
        <time>2021-01-31 16:30:01</time>
      </trkpt>
      <trkpt lat="38.6982" lon="-0.10215">
        <ele>630</ele>
        <time>2021-01-31 16:30:02</time>
      </trkpt>
      <trkpt lat="38.69815" lon="-0.10217">
        <ele>629.6</ele>
        <time>2021-01-31 16:30:03</time>
      </trkpt>
      <trkpt lat="38.69811" lon="-0.1022">
        <ele>629.6</ele>
        <time>2021-01-31 16:30:04</time>
      </trkpt>
      <trkpt lat="38.69806" lon="-0.10224">
        <ele>629.6</ele>
        <time>2021-01-31 16:30:05</time>
      </trkpt>
      <trkpt lat="38.69801" lon="-0.10227">
        <ele>629.6</ele>
        <time>2021-01-31 16:30:06</time>
      </trkpt>
      <trkpt lat="38.69801" lon="-0.10227">
        <ele>628.6</ele>
        <time>2021-01-31 16:30:07</time>
      </trkpt>
      <trkpt lat="38.6979" lon="-0.10236">
        <ele>628.6</ele>
        <time>2021-01-31 16:30:08</time>
      </trkpt>
      <trkpt lat="38.6979" lon="-0.10236">
        <ele>626.6</ele>
        <time>2021-01-31 16:30:09</time>
      </trkpt>
      <trkpt lat="38.69777" lon="-0.10247">
        <ele>626.6</ele>
        <time>2021-01-31 16:30:10</time>
      </trkpt>
      <trkpt lat="38.69777" lon="-0.10247">
        <ele>624.8</ele>
        <time>2021-01-31 16:30:11</time>
      </trkpt>
      <trkpt lat="38.69767" lon="-0.10262">
        <ele>624.8</ele>
        <time>2021-01-31 16:30:12</time>
      </trkpt>
      <trkpt lat="38.69767" lon="-0.10262">
        <ele>623.6</ele>
        <time>2021-01-31 16:30:13</time>
      </trkpt>
      <trkpt lat="38.69762" lon="-0.10281">
        <ele>623.6</ele>
        <time>2021-01-31 16:30:14</time>
      </trkpt>
      <trkpt lat="38.69762" lon="-0.10281">
        <ele>622.6</ele>
        <time>2021-01-31 16:30:15</time>
      </trkpt>
      <trkpt lat="38.6976" lon="-0.10302">
        <ele>622.6</ele>
        <time>2021-01-31 16:30:16</time>
      </trkpt>
      <trkpt lat="38.6976" lon="-0.10312">
        <ele>622.6</ele>
        <time>2021-01-31 16:30:17</time>
      </trkpt>
      <trkpt lat="38.69759" lon="-0.10323">
        <ele>622.6</ele>
        <time>2021-01-31 16:30:18</time>
      </trkpt>
      <trkpt lat="38.69758" lon="-0.10333">
        <ele>622</ele>
        <time>2021-01-31 16:30:19</time>
      </trkpt>
      <trkpt lat="38.69757" lon="-0.10343">
        <ele>621</ele>
        <time>2021-01-31 16:30:20</time>
      </trkpt>
      <trkpt lat="38.69754" lon="-0.10353">
        <ele>621</ele>
        <time>2021-01-31 16:30:21</time>
      </trkpt>
      <trkpt lat="38.69751" lon="-0.10362">
        <ele>621</ele>
        <time>2021-01-31 16:30:22</time>
      </trkpt>
      <trkpt lat="38.69747" lon="-0.10371">
        <ele>621</ele>
        <time>2021-01-31 16:30:23</time>
      </trkpt>
      <trkpt lat="38.69742" lon="-0.1038">
        <ele>621</ele>
        <time>2021-01-31 16:30:24</time>
      </trkpt>
      <trkpt lat="38.69737" lon="-0.10388">
        <ele>621</ele>
        <time>2021-01-31 16:30:25</time>
      </trkpt>
      <trkpt lat="38.69737" lon="-0.10388">
        <ele>621</ele>
        <time>2021-01-31 16:30:26</time>
      </trkpt>
      <trkpt lat="38.69725" lon="-0.10403">
        <ele>621</ele>
        <time>2021-01-31 16:30:27</time>
      </trkpt>
      <trkpt lat="38.69725" lon="-0.10403">
        <ele>620.2</ele>
        <time>2021-01-31 16:30:28</time>
      </trkpt>
      <trkpt lat="38.69713" lon="-0.10418">
        <ele>620.2</ele>
        <time>2021-01-31 16:30:29</time>
      </trkpt>
      <trkpt lat="38.69713" lon="-0.10418">
        <ele>620.2</ele>
        <time>2021-01-31 16:30:30</time>
      </trkpt>
      <trkpt lat="38.697" lon="-0.10433">
        <ele>620.2</ele>
        <time>2021-01-31 16:30:31</time>
      </trkpt>
      <trkpt lat="38.697" lon="-0.10433">
        <ele>619</ele>
        <time>2021-01-31 16:30:32</time>
      </trkpt>
      <trkpt lat="38.69683" lon="-0.10441">
        <ele>619</ele>
        <time>2021-01-31 16:30:33</time>
      </trkpt>
      <trkpt lat="38.69683" lon="-0.10441">
        <ele>617.6</ele>
        <time>2021-01-31 16:30:34</time>
      </trkpt>
      <trkpt lat="38.69664" lon="-0.10437">
        <ele>617.6</ele>
        <time>2021-01-31 16:30:35</time>
      </trkpt>
      <trkpt lat="38.69664" lon="-0.10437">
        <ele>617.6</ele>
        <time>2021-01-31 16:30:36</time>
      </trkpt>
      <trkpt lat="38.69645" lon="-0.1043">
        <ele>617.6</ele>
        <time>2021-01-31 16:30:37</time>
      </trkpt>
      <trkpt lat="38.69645" lon="-0.1043">
        <ele>616.6</ele>
        <time>2021-01-31 16:30:38</time>
      </trkpt>
      <trkpt lat="38.69625" lon="-0.10423">
        <ele>616.6</ele>
        <time>2021-01-31 16:30:39</time>
      </trkpt>
      <trkpt lat="38.69619" lon="-0.10299">
        <ele>607</ele>
        <time>2021-01-31 16:30:40</time>
      </trkpt>
      <trkpt lat="38.69626" lon="-0.10305">
        <ele>607</ele>
        <time>2021-01-31 16:30:41</time>
      </trkpt>
      <trkpt lat="38.69629" lon="-0.10305">
        <ele>607</ele>
        <time>2021-01-31 16:32:12</time>
      </trkpt>
      <trkpt lat="38.69632" lon="-0.10306">
        <ele>606.2</ele>
        <time>2021-01-31 16:32:13</time>
      </trkpt>
      <trkpt lat="38.69636" lon="-0.10306">
        <ele>605.4</ele>
        <time>2021-01-31 16:32:14</time>
      </trkpt>
      <trkpt lat="38.6964" lon="-0.10304">
        <ele>604.4</ele>
        <time>2021-01-31 16:32:15</time>
      </trkpt>
      <trkpt lat="38.69644" lon="-0.103">
        <ele>604</ele>
        <time>2021-01-31 16:32:16</time>
      </trkpt>
      <trkpt lat="38.69648" lon="-0.10295">
        <ele>603.2</ele>
        <time>2021-01-31 16:32:17</time>
      </trkpt>
      <trkpt lat="38.69652" lon="-0.10288">
        <ele>602.2</ele>
        <time>2021-01-31 16:32:18</time>
      </trkpt>
      <trkpt lat="38.69654" lon="-0.1028">
        <ele>601.2</ele>
        <time>2021-01-31 16:32:19</time>
      </trkpt>
      <trkpt lat="38.69656" lon="-0.10271">
        <ele>601</ele>
        <time>2021-01-31 16:32:20</time>
      </trkpt>
      <trkpt lat="38.69657" lon="-0.10262">
        <ele>600</ele>
        <time>2021-01-31 16:32:21</time>
      </trkpt>
      <trkpt lat="38.69658" lon="-0.10252">
        <ele>599</ele>
        <time>2021-01-31 16:32:22</time>
      </trkpt>
      <trkpt lat="38.69658" lon="-0.10242">
        <ele>599</ele>
        <time>2021-01-31 16:32:23</time>
      </trkpt>
      <trkpt lat="38.69659" lon="-0.10232">
        <ele>599</ele>
        <time>2021-01-31 16:32:24</time>
      </trkpt>
      <trkpt lat="38.6966" lon="-0.10222">
        <ele>599</ele>
        <time>2021-01-31 16:32:25</time>
      </trkpt>
      <trkpt lat="38.69661" lon="-0.10211">
        <ele>598</ele>
        <time>2021-01-31 16:32:26</time>
      </trkpt>
      <trkpt lat="38.69662" lon="-0.102">
        <ele>597</ele>
        <time>2021-01-31 16:32:27</time>
      </trkpt>
      <trkpt lat="38.69663" lon="-0.10189">
        <ele>596</ele>
        <time>2021-01-31 16:32:28</time>
      </trkpt>
      <trkpt lat="38.69664" lon="-0.10178">
        <ele>595</ele>
        <time>2021-01-31 16:32:29</time>
      </trkpt>
      <trkpt lat="38.69665" lon="-0.10166">
        <ele>594</ele>
        <time>2021-01-31 16:32:30</time>
      </trkpt>
      <trkpt lat="38.69666" lon="-0.10156">
        <ele>594</ele>
        <time>2021-01-31 16:32:31</time>
      </trkpt>
      <trkpt lat="38.69666" lon="-0.10156">
        <ele>594</ele>
        <time>2021-01-31 16:32:32</time>
      </trkpt>
      <trkpt lat="38.69666" lon="-0.10156">
        <ele>594</ele>
        <time>2021-01-31 16:32:33</time>
      </trkpt>
      <trkpt lat="38.69666" lon="-0.10156">
        <ele>593</ele>
        <time>2021-01-31 16:32:34</time>
      </trkpt>
      <trkpt lat="38.69675" lon="-0.10113">
        <ele>592.2</ele>
        <time>2021-01-31 16:32:35</time>
      </trkpt>
      <trkpt lat="38.69679" lon="-0.10103">
        <ele>591.8</ele>
        <time>2021-01-31 16:32:36</time>
      </trkpt>
      <trkpt lat="38.69683" lon="-0.10092">
        <ele>591.4</ele>
        <time>2021-01-31 16:32:37</time>
      </trkpt>
      <trkpt lat="38.69688" lon="-0.10081">
        <ele>591.4</ele>
        <time>2021-01-31 16:32:38</time>
      </trkpt>
      <trkpt lat="38.69691" lon="-0.10069">
        <ele>591.4</ele>
        <time>2021-01-31 16:32:39</time>
      </trkpt>
      <trkpt lat="38.69694" lon="-0.10057">
        <ele>591.4</ele>
        <time>2021-01-31 16:32:40</time>
      </trkpt>
      <trkpt lat="38.69696" lon="-0.10045">
        <ele>590.4</ele>
        <time>2021-01-31 16:32:41</time>
      </trkpt>
      <trkpt lat="38.69698" lon="-0.10033">
        <ele>589.4</ele>
        <time>2021-01-31 16:32:42</time>
      </trkpt>
      <trkpt lat="38.69699" lon="-0.1002">
        <ele>588.4</ele>
        <time>2021-01-31 16:32:43</time>
      </trkpt>
      <trkpt lat="38.69699" lon="-0.10007">
        <ele>587.4</ele>
        <time>2021-01-31 16:32:44</time>
      </trkpt>
      <trkpt lat="38.69699" lon="-0.09995">
        <ele>586.4</ele>
        <time>2021-01-31 16:32:45</time>
      </trkpt>
      <trkpt lat="38.69697" lon="-0.09983">
        <ele>586</ele>
        <time>2021-01-31 16:32:46</time>
      </trkpt>
      <trkpt lat="38.69694" lon="-0.0997">
        <ele>585</ele>
        <time>2021-01-31 16:32:47</time>
      </trkpt>
      <trkpt lat="38.69691" lon="-0.09958">
        <ele>584</ele>
        <time>2021-01-31 16:32:48</time>
      </trkpt>
      <trkpt lat="38.69688" lon="-0.09945">
        <ele>583</ele>
        <time>2021-01-31 16:32:49</time>
      </trkpt>
      <trkpt lat="38.69684" lon="-0.09933">
        <ele>582.8</ele>
        <time>2021-01-31 16:32:50</time>
      </trkpt>
      <trkpt lat="38.69681" lon="-0.0992">
        <ele>582.4</ele>
        <time>2021-01-31 16:32:51</time>
      </trkpt>
      <trkpt lat="38.69677" lon="-0.09907">
        <ele>581.4</ele>
        <time>2021-01-31 16:32:52</time>
      </trkpt>
      <trkpt lat="38.69673" lon="-0.09895">
        <ele>580.4</ele>
        <time>2021-01-31 16:32:53</time>
      </trkpt>
      <trkpt lat="38.69669" lon="-0.09882">
        <ele>580.4</ele>
        <time>2021-01-31 16:32:54</time>
      </trkpt>
      <trkpt lat="38.69669" lon="-0.09882">
        <ele>580.4</ele>
        <time>2021-01-31 16:32:55</time>
      </trkpt>
      <trkpt lat="38.69669" lon="-0.09882">
        <ele>580.4</ele>
        <time>2021-01-31 16:32:56</time>
      </trkpt>
      <trkpt lat="38.69669" lon="-0.09882">
        <ele>576.6</ele>
        <time>2021-01-31 16:32:57</time>
      </trkpt>
      <trkpt lat="38.6964" lon="-0.09838">
        <ele>576</ele>
        <time>2021-01-31 16:32:58</time>
      </trkpt>
      <trkpt lat="38.69632" lon="-0.09828">
        <ele>575.2</ele>
        <time>2021-01-31 16:32:59</time>
      </trkpt>
      <trkpt lat="38.69623" lon="-0.09818">
        <ele>574.6</ele>
        <time>2021-01-31 16:33:00</time>
      </trkpt>
      <trkpt lat="38.69615" lon="-0.09807">
        <ele>574.6</ele>
        <time>2021-01-31 16:33:01</time>
      </trkpt>
      <trkpt lat="38.69615" lon="-0.09807">
        <ele>574.6</ele>
        <time>2021-01-31 16:33:02</time>
      </trkpt>
      <trkpt lat="38.69615" lon="-0.09807">
        <ele>574.6</ele>
        <time>2021-01-31 16:33:03</time>
      </trkpt>
      <trkpt lat="38.69615" lon="-0.09807">
        <ele>572.4</ele>
        <time>2021-01-31 16:33:04</time>
      </trkpt>
      <trkpt lat="38.6958" lon="-0.09766">
        <ele>571.6</ele>
        <time>2021-01-31 16:33:05</time>
      </trkpt>
      <trkpt lat="38.69572" lon="-0.09755">
        <ele>571.6</ele>
        <time>2021-01-31 16:33:06</time>
      </trkpt>
      <trkpt lat="38.69564" lon="-0.09743">
        <ele>571.6</ele>
        <time>2021-01-31 16:33:07</time>
      </trkpt>
      <trkpt lat="38.69556" lon="-0.0973">
        <ele>571.6</ele>
        <time>2021-01-31 16:33:08</time>
      </trkpt>
      <trkpt lat="38.69548" lon="-0.09718">
        <ele>570.6</ele>
        <time>2021-01-31 16:33:09</time>
      </trkpt>
      <trkpt lat="38.6954" lon="-0.09705">
        <ele>569.6</ele>
        <time>2021-01-31 16:33:10</time>
      </trkpt>
      <trkpt lat="38.69531" lon="-0.09693">
        <ele>568.6</ele>
        <time>2021-01-31 16:33:11</time>
      </trkpt>
      <trkpt lat="38.69523" lon="-0.0968">
        <ele>567.6</ele>
        <time>2021-01-31 16:33:12</time>
      </trkpt>
      <trkpt lat="38.69513" lon="-0.09668">
        <ele>566.6</ele>
        <time>2021-01-31 16:33:13</time>
      </trkpt>
      <trkpt lat="38.69504" lon="-0.09656">
        <ele>565.6</ele>
        <time>2021-01-31 16:33:14</time>
      </trkpt>
      <trkpt lat="38.69493" lon="-0.09644">
        <ele>564.6</ele>
        <time>2021-01-31 16:33:15</time>
      </trkpt>
      <trkpt lat="38.69483" lon="-0.09633">
        <ele>563.6</ele>
        <time>2021-01-31 16:33:16</time>
      </trkpt>
      <trkpt lat="38.69471" lon="-0.09624">
        <ele>562.6</ele>
        <time>2021-01-31 16:33:17</time>
      </trkpt>
      <trkpt lat="38.6946" lon="-0.09617">
        <ele>561.6</ele>
        <time>2021-01-31 16:33:18</time>
      </trkpt>
      <trkpt lat="38.69448" lon="-0.0961">
        <ele>561.6</ele>
        <time>2021-01-31 16:33:19</time>
      </trkpt>
      <trkpt lat="38.69448" lon="-0.0961">
        <ele>560.8</ele>
        <time>2021-01-31 16:33:20</time>
      </trkpt>
      <trkpt lat="38.69427" lon="-0.09596">
        <ele>560.8</ele>
        <time>2021-01-31 16:33:21</time>
      </trkpt>
      <trkpt lat="38.69427" lon="-0.09596">
        <ele>560.8</ele>
        <time>2021-01-31 16:33:22</time>
      </trkpt>
      <trkpt lat="38.69427" lon="-0.09596">
        <ele>560.8</ele>
        <time>2021-01-31 16:33:23</time>
      </trkpt>
      <trkpt lat="38.69427" lon="-0.09596">
        <ele>560.8</ele>
        <time>2021-01-31 16:33:24</time>
      </trkpt>
      <trkpt lat="38.69405" lon="-0.09551">
        <ele>560.8</ele>
        <time>2021-01-31 16:33:25</time>
      </trkpt>
      <trkpt lat="38.69405" lon="-0.09551">
        <ele>560.8</ele>
        <time>2021-01-31 16:33:26</time>
      </trkpt>
      <trkpt lat="38.69405" lon="-0.09551">
        <ele>560.8</ele>
        <time>2021-01-31 16:33:27</time>
      </trkpt>
      <trkpt lat="38.69405" lon="-0.09551">
        <ele>558.8</ele>
        <time>2021-01-31 16:33:28</time>
      </trkpt>
      <trkpt lat="38.69406" lon="-0.09496">
        <ele>557.8</ele>
        <time>2021-01-31 16:33:29</time>
      </trkpt>
      <trkpt lat="38.69404" lon="-0.09482">
        <ele>556.8</ele>
        <time>2021-01-31 16:33:30</time>
      </trkpt>
      <trkpt lat="38.69398" lon="-0.0947">
        <ele>555.8</ele>
        <time>2021-01-31 16:33:31</time>
      </trkpt>
      <trkpt lat="38.69392" lon="-0.09458">
        <ele>554.8</ele>
        <time>2021-01-31 16:33:32</time>
      </trkpt>
      <trkpt lat="38.69386" lon="-0.09447">
        <ele>553.8</ele>
        <time>2021-01-31 16:33:33</time>
      </trkpt>
      <trkpt lat="38.69379" lon="-0.09435">
        <ele>553.4</ele>
        <time>2021-01-31 16:33:34</time>
      </trkpt>
      <trkpt lat="38.69372" lon="-0.09425">
        <ele>553.2</ele>
        <time>2021-01-31 16:33:35</time>
      </trkpt>
      <trkpt lat="38.69364" lon="-0.09416">
        <ele>552.2</ele>
        <time>2021-01-31 16:33:36</time>
      </trkpt>
      <trkpt lat="38.69354" lon="-0.09411">
        <ele>551.8</ele>
        <time>2021-01-31 16:33:37</time>
      </trkpt>
      <trkpt lat="38.69343" lon="-0.09411">
        <ele>550.8</ele>
        <time>2021-01-31 16:33:38</time>
      </trkpt>
      <trkpt lat="38.69332" lon="-0.09412">
        <ele>549.8</ele>
        <time>2021-01-31 16:33:39</time>
      </trkpt>
      <trkpt lat="38.69322" lon="-0.09413">
        <ele>548.8</ele>
        <time>2021-01-31 16:33:40</time>
      </trkpt>
      <trkpt lat="38.69312" lon="-0.09415">
        <ele>547.8</ele>
        <time>2021-01-31 16:33:41</time>
      </trkpt>
      <trkpt lat="38.69302" lon="-0.09416">
        <ele>546.8</ele>
        <time>2021-01-31 16:33:42</time>
      </trkpt>
      <trkpt lat="38.69291" lon="-0.09416">
        <ele>545.8</ele>
        <time>2021-01-31 16:33:43</time>
      </trkpt>
      <trkpt lat="38.69281" lon="-0.09417">
        <ele>545</ele>
        <time>2021-01-31 16:33:44</time>
      </trkpt>
      <trkpt lat="38.69271" lon="-0.09417">
        <ele>545</ele>
        <time>2021-01-31 16:33:45</time>
      </trkpt>
      <trkpt lat="38.69261" lon="-0.09418">
        <ele>545</ele>
        <time>2021-01-31 16:33:46</time>
      </trkpt>
      <trkpt lat="38.69261" lon="-0.09418">
        <ele>545</ele>
        <time>2021-01-31 16:33:47</time>
      </trkpt>
      <trkpt lat="38.69241" lon="-0.09422">
        <ele>544.6</ele>
        <time>2021-01-31 16:33:48</time>
      </trkpt>
      <trkpt lat="38.69231" lon="-0.09423">
        <ele>544.6</ele>
        <time>2021-01-31 16:33:49</time>
      </trkpt>
      <trkpt lat="38.69222" lon="-0.0942">
        <ele>544.6</ele>
        <time>2021-01-31 16:33:50</time>
      </trkpt>
      <trkpt lat="38.69214" lon="-0.09414">
        <ele>544.6</ele>
        <time>2021-01-31 16:33:51</time>
      </trkpt>
      <trkpt lat="38.69208" lon="-0.09404">
        <ele>544.6</ele>
        <time>2021-01-31 16:33:52</time>
      </trkpt>
      <trkpt lat="38.69204" lon="-0.09393">
        <ele>543.6</ele>
        <time>2021-01-31 16:33:53</time>
      </trkpt>
      <trkpt lat="38.692" lon="-0.09381">
        <ele>543</ele>
        <time>2021-01-31 16:33:54</time>
      </trkpt>
      <trkpt lat="38.69196" lon="-0.09368">
        <ele>542.4</ele>
        <time>2021-01-31 16:33:55</time>
      </trkpt>
      <trkpt lat="38.69192" lon="-0.09355">
        <ele>542.4</ele>
        <time>2021-01-31 16:33:56</time>
      </trkpt>
      <trkpt lat="38.69192" lon="-0.09355">
        <ele>542.4</ele>
        <time>2021-01-31 16:33:57</time>
      </trkpt>
      <trkpt lat="38.69192" lon="-0.09355">
        <ele>542.4</ele>
        <time>2021-01-31 16:33:58</time>
      </trkpt>
      <trkpt lat="38.69192" lon="-0.09355">
        <ele>538.8</ele>
        <time>2021-01-31 16:33:59</time>
      </trkpt>
      <trkpt lat="38.69174" lon="-0.09301">
        <ele>538.8</ele>
        <time>2021-01-31 16:34:00</time>
      </trkpt>
      <trkpt lat="38.69174" lon="-0.09301">
        <ele>538.8</ele>
        <time>2021-01-31 16:34:01</time>
      </trkpt>
      <trkpt lat="38.69174" lon="-0.09301">
        <ele>538.8</ele>
        <time>2021-01-31 16:34:02</time>
      </trkpt>
      <trkpt lat="38.69174" lon="-0.09301">
        <ele>538.8</ele>
        <time>2021-01-31 16:34:03</time>
      </trkpt>
      <trkpt lat="38.6916" lon="-0.09243">
        <ele>537.8</ele>
        <time>2021-01-31 16:34:04</time>
      </trkpt>
      <trkpt lat="38.69158" lon="-0.09228">
        <ele>536.8</ele>
        <time>2021-01-31 16:34:05</time>
      </trkpt>
      <trkpt lat="38.69156" lon="-0.09212">
        <ele>535.8</ele>
        <time>2021-01-31 16:34:06</time>
      </trkpt>
      <trkpt lat="38.69155" lon="-0.09196">
        <ele>534.8</ele>
        <time>2021-01-31 16:34:07</time>
      </trkpt>
      <trkpt lat="38.69153" lon="-0.0918">
        <ele>533.8</ele>
        <time>2021-01-31 16:34:08</time>
      </trkpt>
      <trkpt lat="38.69152" lon="-0.09164">
        <ele>532.8</ele>
        <time>2021-01-31 16:34:09</time>
      </trkpt>
      <trkpt lat="38.69151" lon="-0.09148">
        <ele>532.6</ele>
        <time>2021-01-31 16:34:10</time>
      </trkpt>
      <trkpt lat="38.69148" lon="-0.09134">
        <ele>531.6</ele>
        <time>2021-01-31 16:34:11</time>
      </trkpt>
      <trkpt lat="38.69143" lon="-0.0912">
        <ele>530.6</ele>
        <time>2021-01-31 16:34:12</time>
      </trkpt>
      <trkpt lat="38.69136" lon="-0.09109">
        <ele>529.8</ele>
        <time>2021-01-31 16:34:13</time>
      </trkpt>
      <trkpt lat="38.69127" lon="-0.09099">
        <ele>529.8</ele>
        <time>2021-01-31 16:34:14</time>
      </trkpt>
      <trkpt lat="38.69119" lon="-0.09089">
        <ele>529.8</ele>
        <time>2021-01-31 16:34:15</time>
      </trkpt>
      <trkpt lat="38.6911" lon="-0.0908">
        <ele>530.8</ele>
        <time>2021-01-31 16:34:16</time>
      </trkpt>
      <trkpt lat="38.69101" lon="-0.09071">
        <ele>531.8</ele>
        <time>2021-01-31 16:34:17</time>
      </trkpt>
      <trkpt lat="38.69091" lon="-0.09065">
        <ele>531.8</ele>
        <time>2021-01-31 16:34:18</time>
      </trkpt>
      <trkpt lat="38.69081" lon="-0.09058">
        <ele>531.8</ele>
        <time>2021-01-31 16:34:19</time>
      </trkpt>
      <trkpt lat="38.69081" lon="-0.09058">
        <ele>531.8</ele>
        <time>2021-01-31 16:34:20</time>
      </trkpt>
      <trkpt lat="38.69059" lon="-0.09048">
        <ele>531.8</ele>
        <time>2021-01-31 16:34:21</time>
      </trkpt>
      <trkpt lat="38.69059" lon="-0.09048">
        <ele>529.8</ele>
        <time>2021-01-31 16:34:22</time>
      </trkpt>
      <trkpt lat="38.69036" lon="-0.09039">
        <ele>529.8</ele>
        <time>2021-01-31 16:34:23</time>
      </trkpt>
      <trkpt lat="38.69036" lon="-0.09039">
        <ele>527.8</ele>
        <time>2021-01-31 16:34:24</time>
      </trkpt>
      <trkpt lat="38.69013" lon="-0.09033">
        <ele>527.8</ele>
        <time>2021-01-31 16:34:25</time>
      </trkpt>
      <trkpt lat="38.69013" lon="-0.09033">
        <ele>527.8</ele>
        <time>2021-01-31 16:34:26</time>
      </trkpt>
      <trkpt lat="38.69013" lon="-0.09033">
        <ele>527.8</ele>
        <time>2021-01-31 16:34:27</time>
      </trkpt>
      <trkpt lat="38.69013" lon="-0.09033">
        <ele>527.8</ele>
        <time>2021-01-31 16:34:28</time>
      </trkpt>
      <trkpt lat="38.69013" lon="-0.09033">
        <ele>523.8</ele>
        <time>2021-01-31 16:34:29</time>
      </trkpt>
      <trkpt lat="38.6896" lon="-0.09022">
        <ele>523.8</ele>
        <time>2021-01-31 16:34:30</time>
      </trkpt>
      <trkpt lat="38.6896" lon="-0.09022">
        <ele>523.8</ele>
        <time>2021-01-31 16:34:31</time>
      </trkpt>
      <trkpt lat="38.6896" lon="-0.09022">
        <ele>523.8</ele>
        <time>2021-01-31 16:34:32</time>
      </trkpt>
      <trkpt lat="38.68931" lon="-0.09016">
        <ele>523.8</ele>
        <time>2021-01-31 16:34:33</time>
      </trkpt>
      <trkpt lat="38.68931" lon="-0.09016">
        <ele>522.8</ele>
        <time>2021-01-31 16:34:34</time>
      </trkpt>
      <trkpt lat="38.68913" lon="-0.09009">
        <ele>521.8</ele>
        <time>2021-01-31 16:34:35</time>
      </trkpt>
      <trkpt lat="38.68904" lon="-0.09004">
        <ele>521.8</ele>
        <time>2021-01-31 16:34:36</time>
      </trkpt>
      <trkpt lat="38.68896" lon="-0.08998">
        <ele>521.8</ele>
        <time>2021-01-31 16:34:37</time>
      </trkpt>
      <trkpt lat="38.68887" lon="-0.08992">
        <ele>521.8</ele>
        <time>2021-01-31 16:34:38</time>
      </trkpt>
      <trkpt lat="38.68879" lon="-0.08985">
        <ele>520.8</ele>
        <time>2021-01-31 16:34:39</time>
      </trkpt>
      <trkpt lat="38.68871" lon="-0.08978">
        <ele>520.8</ele>
        <time>2021-01-31 16:34:40</time>
      </trkpt>
      <trkpt lat="38.68864" lon="-0.0897">
        <ele>520.8</ele>
        <time>2021-01-31 16:34:41</time>
      </trkpt>
      <trkpt lat="38.68859" lon="-0.08961">
        <ele>521.8</ele>
        <time>2021-01-31 16:34:42</time>
      </trkpt>
      <trkpt lat="38.68856" lon="-0.08952">
        <ele>521.8</ele>
        <time>2021-01-31 16:34:43</time>
      </trkpt>
      <trkpt lat="38.68854" lon="-0.08943">
        <ele>521.8</ele>
        <time>2021-01-31 16:34:44</time>
      </trkpt>
      <trkpt lat="38.68851" lon="-0.08934">
        <ele>520.8</ele>
        <time>2021-01-31 16:34:45</time>
      </trkpt>
      <trkpt lat="38.68845" lon="-0.08928">
        <ele>519.8</ele>
        <time>2021-01-31 16:34:46</time>
      </trkpt>
      <trkpt lat="38.68837" lon="-0.08926">
        <ele>518.8</ele>
        <time>2021-01-31 16:34:47</time>
      </trkpt>
      <trkpt lat="38.68829" lon="-0.08925">
        <ele>517.8</ele>
        <time>2021-01-31 16:34:48</time>
      </trkpt>
      <trkpt lat="38.6882" lon="-0.08925">
        <ele>516.8</ele>
        <time>2021-01-31 16:34:49</time>
      </trkpt>
      <trkpt lat="38.68813" lon="-0.08926">
        <ele>515.8</ele>
        <time>2021-01-31 16:34:50</time>
      </trkpt>
      <trkpt lat="38.68805" lon="-0.08927">
        <ele>515.8</ele>
        <time>2021-01-31 16:34:51</time>
      </trkpt>
      <trkpt lat="38.68799" lon="-0.08931">
        <ele>515.8</ele>
        <time>2021-01-31 16:34:52</time>
      </trkpt>
      <trkpt lat="38.68794" lon="-0.08939">
        <ele>515.8</ele>
        <time>2021-01-31 16:34:53</time>
      </trkpt>
      <trkpt lat="38.68793" lon="-0.08949">
        <ele>514.8</ele>
        <time>2021-01-31 16:34:54</time>
      </trkpt>
      <trkpt lat="38.68795" lon="-0.08959">
        <ele>513.8</ele>
        <time>2021-01-31 16:34:55</time>
      </trkpt>
      <trkpt lat="38.68798" lon="-0.08969">
        <ele>512.8</ele>
        <time>2021-01-31 16:34:56</time>
      </trkpt>
      <trkpt lat="38.68801" lon="-0.0898">
        <ele>511.8</ele>
        <time>2021-01-31 16:34:57</time>
      </trkpt>
      <trkpt lat="38.68806" lon="-0.0899">
        <ele>510.8</ele>
        <time>2021-01-31 16:34:58</time>
      </trkpt>
      <trkpt lat="38.68811" lon="-0.09">
        <ele>509.8</ele>
        <time>2021-01-31 16:34:59</time>
      </trkpt>
      <trkpt lat="38.68817" lon="-0.0901">
        <ele>509.8</ele>
        <time>2021-01-31 16:35:00</time>
      </trkpt>
      <trkpt lat="38.68823" lon="-0.09019">
        <ele>509.8</ele>
        <time>2021-01-31 16:35:01</time>
      </trkpt>
      <trkpt lat="38.6883" lon="-0.09028">
        <ele>510.6</ele>
        <time>2021-01-31 16:35:02</time>
      </trkpt>
      <trkpt lat="38.68837" lon="-0.09037">
        <ele>510.6</ele>
        <time>2021-01-31 16:35:03</time>
      </trkpt>
      <trkpt lat="38.68845" lon="-0.09047">
        <ele>510.6</ele>
        <time>2021-01-31 16:35:04</time>
      </trkpt>
      <trkpt lat="38.68852" lon="-0.09057">
        <ele>509.6</ele>
        <time>2021-01-31 16:35:05</time>
      </trkpt>
      <trkpt lat="38.68859" lon="-0.09068">
        <ele>509.6</ele>
        <time>2021-01-31 16:35:06</time>
      </trkpt>
      <trkpt lat="38.68859" lon="-0.09068">
        <ele>509.6</ele>
        <time>2021-01-31 16:35:07</time>
      </trkpt>
      <trkpt lat="38.68859" lon="-0.09068">
        <ele>509.6</ele>
        <time>2021-01-31 16:35:08</time>
      </trkpt>
      <trkpt lat="38.68859" lon="-0.09068">
        <ele>509.6</ele>
        <time>2021-01-31 16:35:09</time>
      </trkpt>
      <trkpt lat="38.68859" lon="-0.09068">
        <ele>504.6</ele>
        <time>2021-01-31 16:35:10</time>
      </trkpt>
      <trkpt lat="38.68898" lon="-0.0912">
        <ele>503.6</ele>
        <time>2021-01-31 16:35:11</time>
      </trkpt>
      <trkpt lat="38.68907" lon="-0.09129">
        <ele>502.6</ele>
        <time>2021-01-31 16:35:12</time>
      </trkpt>
      <trkpt lat="38.68916" lon="-0.09138">
        <ele>501.6</ele>
        <time>2021-01-31 16:35:13</time>
      </trkpt>
      <trkpt lat="38.68925" lon="-0.09147">
        <ele>500.6</ele>
        <time>2021-01-31 16:35:14</time>
      </trkpt>
      <trkpt lat="38.68934" lon="-0.09155">
        <ele>499.6</ele>
        <time>2021-01-31 16:35:15</time>
      </trkpt>
      <trkpt lat="38.68944" lon="-0.09162">
        <ele>499.2</ele>
        <time>2021-01-31 16:35:16</time>
      </trkpt>
      <trkpt lat="38.68954" lon="-0.09168">
        <ele>499.2</ele>
        <time>2021-01-31 16:35:17</time>
      </trkpt>
      <trkpt lat="38.68965" lon="-0.09174">
        <ele>499.2</ele>
        <time>2021-01-31 16:35:18</time>
      </trkpt>
      <trkpt lat="38.68975" lon="-0.0918">
        <ele>499.2</ele>
        <time>2021-01-31 16:35:19</time>
      </trkpt>
      <trkpt lat="38.68986" lon="-0.09185">
        <ele>499.2</ele>
        <time>2021-01-31 16:35:20</time>
      </trkpt>
      <trkpt lat="38.68986" lon="-0.09185">
        <ele>499.2</ele>
        <time>2021-01-31 16:35:21</time>
      </trkpt>
      <trkpt lat="38.68986" lon="-0.09185">
        <ele>499.2</ele>
        <time>2021-01-31 16:35:22</time>
      </trkpt>
      <trkpt lat="38.68986" lon="-0.09185">
        <ele>495.2</ele>
        <time>2021-01-31 16:35:23</time>
      </trkpt>
      <trkpt lat="38.69024" lon="-0.09207">
        <ele>494.8</ele>
        <time>2021-01-31 16:35:24</time>
      </trkpt>
      <trkpt lat="38.69031" lon="-0.09212">
        <ele>494.2</ele>
        <time>2021-01-31 16:35:25</time>
      </trkpt>
      <trkpt lat="38.69037" lon="-0.09219">
        <ele>493.4</ele>
        <time>2021-01-31 16:35:26</time>
      </trkpt>
      <trkpt lat="38.69039" lon="-0.09229">
        <ele>492.6</ele>
        <time>2021-01-31 16:35:27</time>
      </trkpt>
      <trkpt lat="38.69039" lon="-0.09241">
        <ele>492.6</ele>
        <time>2021-01-31 16:35:28</time>
      </trkpt>
      <trkpt lat="38.69036" lon="-0.09252">
        <ele>492.6</ele>
        <time>2021-01-31 16:35:29</time>
      </trkpt>
      <trkpt lat="38.69033" lon="-0.09264">
        <ele>492.6</ele>
        <time>2021-01-31 16:35:30</time>
      </trkpt>
      <trkpt lat="38.69028" lon="-0.09275">
        <ele>491.6</ele>
        <time>2021-01-31 16:35:31</time>
      </trkpt>
      <trkpt lat="38.69023" lon="-0.09286">
        <ele>490.6</ele>
        <time>2021-01-31 16:35:32</time>
      </trkpt>
      <trkpt lat="38.69019" lon="-0.09297">
        <ele>490.4</ele>
        <time>2021-01-31 16:35:33</time>
      </trkpt>
      <trkpt lat="38.69018" lon="-0.09309">
        <ele>490.4</ele>
        <time>2021-01-31 16:35:34</time>
      </trkpt>
      <trkpt lat="38.6902" lon="-0.0932">
        <ele>490.4</ele>
        <time>2021-01-31 16:35:35</time>
      </trkpt>
      <trkpt lat="38.69025" lon="-0.0933">
        <ele>490.4</ele>
        <time>2021-01-31 16:35:36</time>
      </trkpt>
      <trkpt lat="38.69032" lon="-0.09339">
        <ele>490.4</ele>
        <time>2021-01-31 16:35:37</time>
      </trkpt>
      <trkpt lat="38.69032" lon="-0.09339">
        <ele>490.4</ele>
        <time>2021-01-31 16:35:38</time>
      </trkpt>
      <trkpt lat="38.69032" lon="-0.09339">
        <ele>490.4</ele>
        <time>2021-01-31 16:35:39</time>
      </trkpt>
      <trkpt lat="38.69032" lon="-0.09339">
        <ele>486.4</ele>
        <time>2021-01-31 16:35:40</time>
      </trkpt>
      <trkpt lat="38.69066" lon="-0.09366">
        <ele>485.4</ele>
        <time>2021-01-31 16:35:41</time>
      </trkpt>
      <trkpt lat="38.69073" lon="-0.09375">
        <ele>484.4</ele>
        <time>2021-01-31 16:35:42</time>
      </trkpt>
      <trkpt lat="38.69078" lon="-0.09384">
        <ele>483.4</ele>
        <time>2021-01-31 16:35:43</time>
      </trkpt>
      <trkpt lat="38.69082" lon="-0.09393">
        <ele>482.4</ele>
        <time>2021-01-31 16:35:44</time>
      </trkpt>
      <trkpt lat="38.69083" lon="-0.09401">
        <ele>481.8</ele>
        <time>2021-01-31 16:35:45</time>
      </trkpt>
      <trkpt lat="38.69081" lon="-0.09408">
        <ele>481.8</ele>
        <time>2021-01-31 16:35:46</time>
      </trkpt>
      <trkpt lat="38.69073" lon="-0.09412">
        <ele>481.8</ele>
        <time>2021-01-31 16:35:47</time>
      </trkpt>
      <trkpt lat="38.69066" lon="-0.09411">
        <ele>481.8</ele>
        <time>2021-01-31 16:35:48</time>
      </trkpt>
      <trkpt lat="38.6906" lon="-0.09407">
        <ele>480.8</ele>
        <time>2021-01-31 16:35:49</time>
      </trkpt>
      <trkpt lat="38.69054" lon="-0.094">
        <ele>479.8</ele>
        <time>2021-01-31 16:35:50</time>
      </trkpt>
      <trkpt lat="38.69048" lon="-0.09393">
        <ele>478.8</ele>
        <time>2021-01-31 16:35:51</time>
      </trkpt>
      <trkpt lat="38.69042" lon="-0.09386">
        <ele>477.8</ele>
        <time>2021-01-31 16:35:52</time>
      </trkpt>
      <trkpt lat="38.69035" lon="-0.09378">
        <ele>476.8</ele>
        <time>2021-01-31 16:35:53</time>
      </trkpt>
      <trkpt lat="38.69028" lon="-0.0937">
        <ele>475.8</ele>
        <time>2021-01-31 16:35:54</time>
      </trkpt>
      <trkpt lat="38.69021" lon="-0.09362">
        <ele>474.8</ele>
        <time>2021-01-31 16:35:55</time>
      </trkpt>
      <trkpt lat="38.69013" lon="-0.09354">
        <ele>473.8</ele>
        <time>2021-01-31 16:35:56</time>
      </trkpt>
      <trkpt lat="38.69005" lon="-0.09347">
        <ele>472.8</ele>
        <time>2021-01-31 16:35:57</time>
      </trkpt>
      <trkpt lat="38.68996" lon="-0.09341">
        <ele>471.8</ele>
        <time>2021-01-31 16:35:58</time>
      </trkpt>
      <trkpt lat="38.68986" lon="-0.09336">
        <ele>471.8</ele>
        <time>2021-01-31 16:35:59</time>
      </trkpt>
      <trkpt lat="38.68986" lon="-0.09336">
        <ele>471.8</ele>
        <time>2021-01-31 16:36:00</time>
      </trkpt>
      <trkpt lat="38.68986" lon="-0.09336">
        <ele>471.8</ele>
        <time>2021-01-31 16:36:01</time>
      </trkpt>
      <trkpt lat="38.68986" lon="-0.09336">
        <ele>471.8</ele>
        <time>2021-01-31 16:36:02</time>
      </trkpt>
      <trkpt lat="38.68986" lon="-0.09336">
        <ele>469.8</ele>
        <time>2021-01-31 16:36:03</time>
      </trkpt>
      <trkpt lat="38.68952" lon="-0.09299">
        <ele>469.8</ele>
        <time>2021-01-31 16:36:04</time>
      </trkpt>
      <trkpt lat="38.68952" lon="-0.09299">
        <ele>469.8</ele>
        <time>2021-01-31 16:36:05</time>
      </trkpt>
      <trkpt lat="38.68952" lon="-0.09299">
        <ele>469.8</ele>
        <time>2021-01-31 16:36:06</time>
      </trkpt>
      <trkpt lat="38.68952" lon="-0.09299">
        <ele>466.8</ele>
        <time>2021-01-31 16:36:07</time>
      </trkpt>
      <trkpt lat="38.68925" lon="-0.09306">
        <ele>465.8</ele>
        <time>2021-01-31 16:36:08</time>
      </trkpt>
      <trkpt lat="38.68919" lon="-0.09311">
        <ele>464.8</ele>
        <time>2021-01-31 16:36:09</time>
      </trkpt>
      <trkpt lat="38.68913" lon="-0.09317">
        <ele>463.8</ele>
        <time>2021-01-31 16:36:10</time>
      </trkpt>
      <trkpt lat="38.68907" lon="-0.09322">
        <ele>463.4</ele>
        <time>2021-01-31 16:36:11</time>
      </trkpt>
      <trkpt lat="38.689" lon="-0.09325">
        <ele>463.4</ele>
        <time>2021-01-31 16:36:12</time>
      </trkpt>
      <trkpt lat="38.68893" lon="-0.09327">
        <ele>463.4</ele>
        <time>2021-01-31 16:36:13</time>
      </trkpt>
      <trkpt lat="38.68885" lon="-0.09327">
        <ele>463.4</ele>
        <time>2021-01-31 16:36:14</time>
      </trkpt>
      <trkpt lat="38.68876" lon="-0.09326">
        <ele>462.4</ele>
        <time>2021-01-31 16:36:15</time>
      </trkpt>
      <trkpt lat="38.68867" lon="-0.09325">
        <ele>461.4</ele>
        <time>2021-01-31 16:36:16</time>
      </trkpt>
      <trkpt lat="38.68858" lon="-0.09325">
        <ele>460.4</ele>
        <time>2021-01-31 16:36:17</time>
      </trkpt>
      <trkpt lat="38.68849" lon="-0.09325">
        <ele>459.4</ele>
        <time>2021-01-31 16:36:18</time>
      </trkpt>
      <trkpt lat="38.68841" lon="-0.09327">
        <ele>458.4</ele>
        <time>2021-01-31 16:36:19</time>
      </trkpt>
      <trkpt lat="38.68832" lon="-0.0933">
        <ele>457.4</ele>
        <time>2021-01-31 16:36:20</time>
      </trkpt>
      <trkpt lat="38.68824" lon="-0.09333">
        <ele>456.4</ele>
        <time>2021-01-31 16:36:21</time>
      </trkpt>
      <trkpt lat="38.68817" lon="-0.09336">
        <ele>455.4</ele>
        <time>2021-01-31 16:36:22</time>
      </trkpt>
      <trkpt lat="38.6881" lon="-0.09339">
        <ele>455.4</ele>
        <time>2021-01-31 16:36:23</time>
      </trkpt>
      <trkpt lat="38.6881" lon="-0.09339">
        <ele>455.4</ele>
        <time>2021-01-31 16:36:24</time>
      </trkpt>
      <trkpt lat="38.6881" lon="-0.09339">
        <ele>455.4</ele>
        <time>2021-01-31 16:36:25</time>
      </trkpt>
      <trkpt lat="38.6881" lon="-0.09339">
        <ele>452.4</ele>
        <time>2021-01-31 16:36:26</time>
      </trkpt>
      <trkpt lat="38.68787" lon="-0.09348">
        <ele>452.4</ele>
        <time>2021-01-31 16:36:27</time>
      </trkpt>
      <trkpt lat="38.68781" lon="-0.09348">
        <ele>453.4</ele>
        <time>2021-01-31 16:36:28</time>
      </trkpt>
      <trkpt lat="38.68775" lon="-0.09348">
        <ele>454.4</ele>
        <time>2021-01-31 16:36:29</time>
      </trkpt>
      <trkpt lat="38.6877" lon="-0.09346">
        <ele>455.4</ele>
        <time>2021-01-31 16:36:30</time>
      </trkpt>
      <trkpt lat="38.68763" lon="-0.09343">
        <ele>455.4</ele>
        <time>2021-01-31 16:36:31</time>
      </trkpt>
      <trkpt lat="38.68763" lon="-0.09343">
        <ele>455.4</ele>
        <time>2021-01-31 16:36:32</time>
      </trkpt>
      <trkpt lat="38.68763" lon="-0.09343">
        <ele>455.4</ele>
        <time>2021-01-31 16:36:33</time>
      </trkpt>
      <trkpt lat="38.68763" lon="-0.09343">
        <ele>455.4</ele>
        <time>2021-01-31 16:36:34</time>
      </trkpt>
      <trkpt lat="38.68763" lon="-0.09343">
        <ele>453.4</ele>
        <time>2021-01-31 16:36:35</time>
      </trkpt>
      <trkpt lat="38.68735" lon="-0.09311">
        <ele>453.4</ele>
        <time>2021-01-31 16:36:36</time>
      </trkpt>
      <trkpt lat="38.68735" lon="-0.09311">
        <ele>453.4</ele>
        <time>2021-01-31 16:36:37</time>
      </trkpt>
      <trkpt lat="38.68735" lon="-0.09311">
        <ele>453.4</ele>
        <time>2021-01-31 16:36:38</time>
      </trkpt>
      <trkpt lat="38.68735" lon="-0.09311">
        <ele>452.4</ele>
        <time>2021-01-31 16:36:39</time>
      </trkpt>
      <trkpt lat="38.68714" lon="-0.09273">
        <ele>452.4</ele>
        <time>2021-01-31 16:36:40</time>
      </trkpt>
      <trkpt lat="38.68708" lon="-0.09267">
        <ele>451.4</ele>
        <time>2021-01-31 16:36:41</time>
      </trkpt>
      <trkpt lat="38.68701" lon="-0.09263">
        <ele>451.4</ele>
        <time>2021-01-31 16:36:42</time>
      </trkpt>
      <trkpt lat="38.68693" lon="-0.09263">
        <ele>451.4</ele>
        <time>2021-01-31 16:36:43</time>
      </trkpt>
      <trkpt lat="38.68686" lon="-0.09267">
        <ele>451.4</ele>
        <time>2021-01-31 16:36:44</time>
      </trkpt>
      <trkpt lat="38.6868" lon="-0.09274">
        <ele>450.4</ele>
        <time>2021-01-31 16:36:45</time>
      </trkpt>
      <trkpt lat="38.68676" lon="-0.09284">
        <ele>449.4</ele>
        <time>2021-01-31 16:36:46</time>
      </trkpt>
      <trkpt lat="38.68676" lon="-0.09294">
        <ele>448.4</ele>
        <time>2021-01-31 16:36:47</time>
      </trkpt>
      <trkpt lat="38.68677" lon="-0.09305">
        <ele>447.4</ele>
        <time>2021-01-31 16:36:48</time>
      </trkpt>
      <trkpt lat="38.6868" lon="-0.09314">
        <ele>446.4</ele>
        <time>2021-01-31 16:36:49</time>
      </trkpt>
      <trkpt lat="38.68682" lon="-0.09324">
        <ele>445.4</ele>
        <time>2021-01-31 16:36:50</time>
      </trkpt>
      <trkpt lat="38.68683" lon="-0.09334">
        <ele>444.4</ele>
        <time>2021-01-31 16:36:51</time>
      </trkpt>
      <trkpt lat="38.68685" lon="-0.09345">
        <ele>444.4</ele>
        <time>2021-01-31 16:36:52</time>
      </trkpt>
      <trkpt lat="38.68685" lon="-0.09345">
        <ele>444.4</ele>
        <time>2021-01-31 16:36:53</time>
      </trkpt>
      <trkpt lat="38.68685" lon="-0.09345">
        <ele>444.4</ele>
        <time>2021-01-31 16:36:54</time>
      </trkpt>
      <trkpt lat="38.68685" lon="-0.09345">
        <ele>440.4</ele>
        <time>2021-01-31 16:36:55</time>
      </trkpt>
      <trkpt lat="38.6869" lon="-0.09393">
        <ele>439.4</ele>
        <time>2021-01-31 16:36:56</time>
      </trkpt>
      <trkpt lat="38.68692" lon="-0.09406">
        <ele>438.4</ele>
        <time>2021-01-31 16:36:57</time>
      </trkpt>
      <trkpt lat="38.68694" lon="-0.09419">
        <ele>437.4</ele>
        <time>2021-01-31 16:36:58</time>
      </trkpt>
      <trkpt lat="38.68696" lon="-0.09432">
        <ele>436.8</ele>
        <time>2021-01-31 16:36:59</time>
      </trkpt>
      <trkpt lat="38.68698" lon="-0.09446">
        <ele>436.4</ele>
        <time>2021-01-31 16:37:00</time>
      </trkpt>
      <trkpt lat="38.687" lon="-0.0946">
        <ele>435.4</ele>
        <time>2021-01-31 16:37:01</time>
      </trkpt>
      <trkpt lat="38.68702" lon="-0.09474">
        <ele>434.4</ele>
        <time>2021-01-31 16:37:02</time>
      </trkpt>
      <trkpt lat="38.68704" lon="-0.0949">
        <ele>433.4</ele>
        <time>2021-01-31 16:37:03</time>
      </trkpt>
      <trkpt lat="38.68706" lon="-0.09504">
        <ele>432.4</ele>
        <time>2021-01-31 16:37:04</time>
      </trkpt>
      <trkpt lat="38.68708" lon="-0.09518">
        <ele>431.4</ele>
        <time>2021-01-31 16:37:05</time>
      </trkpt>
      <trkpt lat="38.68711" lon="-0.09532">
        <ele>430.4</ele>
        <time>2021-01-31 16:37:06</time>
      </trkpt>
      <trkpt lat="38.68713" lon="-0.09546">
        <ele>429.4</ele>
        <time>2021-01-31 16:37:07</time>
      </trkpt>
      <trkpt lat="38.68715" lon="-0.0956">
        <ele>428.4</ele>
        <time>2021-01-31 16:37:08</time>
      </trkpt>
      <trkpt lat="38.68715" lon="-0.09573">
        <ele>427.4</ele>
        <time>2021-01-31 16:37:09</time>
      </trkpt>
      <trkpt lat="38.68715" lon="-0.09587">
        <ele>426.4</ele>
        <time>2021-01-31 16:37:10</time>
      </trkpt>
      <trkpt lat="38.68715" lon="-0.096">
        <ele>425.4</ele>
        <time>2021-01-31 16:37:11</time>
      </trkpt>
      <trkpt lat="38.68715" lon="-0.09613">
        <ele>424.4</ele>
        <time>2021-01-31 16:37:12</time>
      </trkpt>
      <trkpt lat="38.68715" lon="-0.09625">
        <ele>424.4</ele>
        <time>2021-01-31 16:37:13</time>
      </trkpt>
      <trkpt lat="38.68715" lon="-0.09625">
        <ele>424.4</ele>
        <time>2021-01-31 16:37:14</time>
      </trkpt>
      <trkpt lat="38.68715" lon="-0.09625">
        <ele>424.4</ele>
        <time>2021-01-31 16:37:15</time>
      </trkpt>
      <trkpt lat="38.68715" lon="-0.09625">
        <ele>420.4</ele>
        <time>2021-01-31 16:37:16</time>
      </trkpt>
      <trkpt lat="38.68712" lon="-0.09674">
        <ele>419.4</ele>
        <time>2021-01-31 16:37:17</time>
      </trkpt>
      <trkpt lat="38.6871" lon="-0.09685">
        <ele>418.4</ele>
        <time>2021-01-31 16:37:18</time>
      </trkpt>
      <trkpt lat="38.68707" lon="-0.09697">
        <ele>417.4</ele>
        <time>2021-01-31 16:37:19</time>
      </trkpt>
      <trkpt lat="38.68704" lon="-0.0971">
        <ele>417.4</ele>
        <time>2021-01-31 16:37:20</time>
      </trkpt>
      <trkpt lat="38.68701" lon="-0.09723">
        <ele>417.4</ele>
        <time>2021-01-31 16:37:21</time>
      </trkpt>
      <trkpt lat="38.68698" lon="-0.09736">
        <ele>418.2</ele>
        <time>2021-01-31 16:37:22</time>
      </trkpt>
      <trkpt lat="38.68695" lon="-0.09749">
        <ele>419.2</ele>
        <time>2021-01-31 16:37:23</time>
      </trkpt>
      <trkpt lat="38.68692" lon="-0.09763">
        <ele>419.4</ele>
        <time>2021-01-31 16:37:24</time>
      </trkpt>
      <trkpt lat="38.68689" lon="-0.09775">
        <ele>419.4</ele>
        <time>2021-01-31 16:37:25</time>
      </trkpt>
      <trkpt lat="38.68686" lon="-0.09789">
        <ele>419.4</ele>
        <time>2021-01-31 16:37:26</time>
      </trkpt>
      <trkpt lat="38.68682" lon="-0.09802">
        <ele>418.4</ele>
        <time>2021-01-31 16:37:27</time>
      </trkpt>
      <trkpt lat="38.68678" lon="-0.09815">
        <ele>417.4</ele>
        <time>2021-01-31 16:37:28</time>
      </trkpt>
      <trkpt lat="38.68673" lon="-0.09828">
        <ele>416.4</ele>
        <time>2021-01-31 16:37:29</time>
      </trkpt>
      <trkpt lat="38.68667" lon="-0.0984">
        <ele>415.4</ele>
        <time>2021-01-31 16:37:30</time>
      </trkpt>
      <trkpt lat="38.68662" lon="-0.09852">
        <ele>414.4</ele>
        <time>2021-01-31 16:37:31</time>
      </trkpt>
      <trkpt lat="38.68656" lon="-0.09864">
        <ele>413.4</ele>
        <time>2021-01-31 16:37:32</time>
      </trkpt>
      <trkpt lat="38.68649" lon="-0.09875">
        <ele>412.4</ele>
        <time>2021-01-31 16:37:33</time>
      </trkpt>
      <trkpt lat="38.68642" lon="-0.09885">
        <ele>411.4</ele>
        <time>2021-01-31 16:37:34</time>
      </trkpt>
      <trkpt lat="38.68634" lon="-0.09894">
        <ele>411.4</ele>
        <time>2021-01-31 16:37:35</time>
      </trkpt>
      <trkpt lat="38.68634" lon="-0.09894">
        <ele>411.4</ele>
        <time>2021-01-31 16:37:36</time>
      </trkpt>
      <trkpt lat="38.68634" lon="-0.09894">
        <ele>411.4</ele>
        <time>2021-01-31 16:37:37</time>
      </trkpt>
      <trkpt lat="38.68634" lon="-0.09894">
        <ele>407.4</ele>
        <time>2021-01-31 16:37:38</time>
      </trkpt>
      <trkpt lat="38.68596" lon="-0.09912">
        <ele>406.4</ele>
        <time>2021-01-31 16:37:39</time>
      </trkpt>
      <trkpt lat="38.68586" lon="-0.09912">
        <ele>405.4</ele>
        <time>2021-01-31 16:37:40</time>
      </trkpt>
      <trkpt lat="38.68577" lon="-0.09913">
        <ele>404.4</ele>
        <time>2021-01-31 16:37:41</time>
      </trkpt>
      <trkpt lat="38.68568" lon="-0.09912">
        <ele>403.4</ele>
        <time>2021-01-31 16:37:42</time>
      </trkpt>
      <trkpt lat="38.6856" lon="-0.09911">
        <ele>402.4</ele>
        <time>2021-01-31 16:37:43</time>
      </trkpt>
      <trkpt lat="38.68552" lon="-0.0991">
        <ele>401.4</ele>
        <time>2021-01-31 16:37:44</time>
      </trkpt>
      <trkpt lat="38.68545" lon="-0.09908">
        <ele>401.4</ele>
        <time>2021-01-31 16:37:45</time>
      </trkpt>
      <trkpt lat="38.68545" lon="-0.09908">
        <ele>401.4</ele>
        <time>2021-01-31 16:37:46</time>
      </trkpt>
      <trkpt lat="38.68545" lon="-0.09908">
        <ele>401.4</ele>
        <time>2021-01-31 16:37:47</time>
      </trkpt>
      <trkpt lat="38.68545" lon="-0.09908">
        <ele>401.4</ele>
        <time>2021-01-31 16:37:48</time>
      </trkpt>
      <trkpt lat="38.68545" lon="-0.09908">
        <ele>396.6</ele>
        <time>2021-01-31 16:37:49</time>
      </trkpt>
      <trkpt lat="38.68528" lon="-0.09913">
        <ele>396.4</ele>
        <time>2021-01-31 16:37:50</time>
      </trkpt>
      <trkpt lat="38.68531" lon="-0.09917">
        <ele>396.2</ele>
        <time>2021-01-31 16:37:51</time>
      </trkpt>
      <trkpt lat="38.68536" lon="-0.09919">
        <ele>396</ele>
        <time>2021-01-31 16:37:52</time>
      </trkpt>
      <trkpt lat="38.68541" lon="-0.09918">
        <ele>395.4</ele>
        <time>2021-01-31 16:37:53</time>
      </trkpt>
      <trkpt lat="38.68546" lon="-0.09917">
        <ele>394.8</ele>
        <time>2021-01-31 16:37:54</time>
      </trkpt>
      <trkpt lat="38.68552" lon="-0.09919">
        <ele>394.8</ele>
        <time>2021-01-31 16:37:55</time>
      </trkpt>
      <trkpt lat="38.68552" lon="-0.09919">
        <ele>394.8</ele>
        <time>2021-01-31 16:37:56</time>
      </trkpt>
      <trkpt lat="38.68552" lon="-0.09919">
        <ele>394.8</ele>
        <time>2021-01-31 16:37:57</time>
      </trkpt>
      <trkpt lat="38.68552" lon="-0.09919">
        <ele>394.8</ele>
        <time>2021-01-31 16:37:58</time>
      </trkpt>
      <trkpt lat="38.68552" lon="-0.09919">
        <ele>390.6</ele>
        <time>2021-01-31 16:37:59</time>
      </trkpt>
      <trkpt lat="38.68538" lon="-0.09939">
        <ele>390.6</ele>
        <time>2021-01-31 16:38:00</time>
      </trkpt>
      <trkpt lat="38.68538" lon="-0.09939">
        <ele>390.6</ele>
        <time>2021-01-31 16:38:01</time>
      </trkpt>
      <trkpt lat="38.68538" lon="-0.09939">
        <ele>390.6</ele>
        <time>2021-01-31 16:38:02</time>
      </trkpt>
      <trkpt lat="38.68538" lon="-0.09939">
        <ele>390.6</ele>
        <time>2021-01-31 16:38:03</time>
      </trkpt>
      <trkpt lat="38.68538" lon="-0.09939">
        <ele>388.2</ele>
        <time>2021-01-31 16:38:04</time>
      </trkpt>
      <trkpt lat="38.68505" lon="-0.09919">
        <ele>388.2</ele>
        <time>2021-01-31 16:38:05</time>
      </trkpt>
      <trkpt lat="38.68497" lon="-0.09921">
        <ele>387.2</ele>
        <time>2021-01-31 16:38:06</time>
      </trkpt>
      <trkpt lat="38.68492" lon="-0.09928">
        <ele>386.2</ele>
        <time>2021-01-31 16:38:07</time>
      </trkpt>
      <trkpt lat="38.68487" lon="-0.09936">
        <ele>385.2</ele>
        <time>2021-01-31 16:38:08</time>
      </trkpt>
      <trkpt lat="38.68482" lon="-0.09944">
        <ele>384.2</ele>
        <time>2021-01-31 16:38:09</time>
      </trkpt>
      <trkpt lat="38.68477" lon="-0.09952">
        <ele>383.2</ele>
        <time>2021-01-31 16:38:10</time>
      </trkpt>
      <trkpt lat="38.68471" lon="-0.09962">
        <ele>382.2</ele>
        <time>2021-01-31 16:38:11</time>
      </trkpt>
      <trkpt lat="38.68466" lon="-0.09972">
        <ele>381.6</ele>
        <time>2021-01-31 16:38:12</time>
      </trkpt>
      <trkpt lat="38.68459" lon="-0.09982">
        <ele>381</ele>
        <time>2021-01-31 16:38:13</time>
      </trkpt>
      <trkpt lat="38.68452" lon="-0.09993">
        <ele>380.2</ele>
        <time>2021-01-31 16:38:14</time>
      </trkpt>
      <trkpt lat="38.68445" lon="-0.10004">
        <ele>380</ele>
        <time>2021-01-31 16:38:15</time>
      </trkpt>
      <trkpt lat="38.68437" lon="-0.10016">
        <ele>379</ele>
        <time>2021-01-31 16:38:16</time>
      </trkpt>
      <trkpt lat="38.68429" lon="-0.10028">
        <ele>378</ele>
        <time>2021-01-31 16:38:17</time>
      </trkpt>
      <trkpt lat="38.6842" lon="-0.10039">
        <ele>377</ele>
        <time>2021-01-31 16:38:18</time>
      </trkpt>
      <trkpt lat="38.68411" lon="-0.10049">
        <ele>376</ele>
        <time>2021-01-31 16:38:19</time>
      </trkpt>
      <trkpt lat="38.68402" lon="-0.10059">
        <ele>375</ele>
        <time>2021-01-31 16:38:20</time>
      </trkpt>
      <trkpt lat="38.68393" lon="-0.10068">
        <ele>374</ele>
        <time>2021-01-31 16:38:21</time>
      </trkpt>
      <trkpt lat="38.68385" lon="-0.10079">
        <ele>373</ele>
        <time>2021-01-31 16:38:22</time>
      </trkpt>
      <trkpt lat="38.68377" lon="-0.10091">
        <ele>372.2</ele>
        <time>2021-01-31 16:38:23</time>
      </trkpt>
      <trkpt lat="38.68371" lon="-0.10103">
        <ele>371.2</ele>
        <time>2021-01-31 16:38:24</time>
      </trkpt>
      <trkpt lat="38.68364" lon="-0.10114">
        <ele>370.2</ele>
        <time>2021-01-31 16:38:25</time>
      </trkpt>
      <trkpt lat="38.68359" lon="-0.10124">
        <ele>369.8</ele>
        <time>2021-01-31 16:38:26</time>
      </trkpt>
      <trkpt lat="38.68356" lon="-0.10134">
        <ele>369</ele>
        <time>2021-01-31 16:38:27</time>
      </trkpt>
      <trkpt lat="38.68354" lon="-0.10141">
        <ele>368</ele>
        <time>2021-01-31 16:38:28</time>
      </trkpt>
      <trkpt lat="38.68353" lon="-0.10147">
        <ele>367.6</ele>
        <time>2021-01-31 16:38:29</time>
      </trkpt>
      <trkpt lat="38.68354" lon="-0.10155">
        <ele>366.6</ele>
        <time>2021-01-31 16:38:30</time>
      </trkpt>
      <trkpt lat="38.68353" lon="-0.10161">
        <ele>365.6</ele>
        <time>2021-01-31 16:38:31</time>
      </trkpt>
      <trkpt lat="38.68357" lon="-0.10171">
        <ele>365.6</ele>
        <time>2021-01-31 16:38:32</time>
      </trkpt>
      <trkpt lat="38.68357" lon="-0.10171">
        <ele>365.6</ele>
        <time>2021-01-31 16:38:33</time>
      </trkpt>
      <trkpt lat="38.68357" lon="-0.10171">
        <ele>365.6</ele>
        <time>2021-01-31 16:38:34</time>
      </trkpt>
      <trkpt lat="38.68357" lon="-0.10171">
        <ele>361.6</ele>
        <time>2021-01-31 16:38:35</time>
      </trkpt>
      <trkpt lat="38.68379" lon="-0.10155">
        <ele>361.6</ele>
        <time>2021-01-31 16:38:36</time>
      </trkpt>
      <trkpt lat="38.68379" lon="-0.10155">
        <ele>361.6</ele>
        <time>2021-01-31 16:38:37</time>
      </trkpt>
      <trkpt lat="38.68379" lon="-0.10155">
        <ele>361.6</ele>
        <time>2021-01-31 16:38:38</time>
      </trkpt>
      <trkpt lat="38.68379" lon="-0.10155">
        <ele>361.6</ele>
        <time>2021-01-31 16:38:39</time>
      </trkpt>
      <trkpt lat="38.68379" lon="-0.10155">
        <ele>358.2</ele>
        <time>2021-01-31 16:38:40</time>
      </trkpt>
      <trkpt lat="38.68397" lon="-0.10113">
        <ele>358.2</ele>
        <time>2021-01-31 16:38:41</time>
      </trkpt>
      <trkpt lat="38.68404" lon="-0.1011">
        <ele>358.2</ele>
        <time>2021-01-31 16:38:42</time>
      </trkpt>
      <trkpt lat="38.68412" lon="-0.10111">
        <ele>357.2</ele>
        <time>2021-01-31 16:38:43</time>
      </trkpt>
      <trkpt lat="38.68419" lon="-0.10117">
        <ele>356.2</ele>
        <time>2021-01-31 16:38:44</time>
      </trkpt>
      <trkpt lat="38.68423" lon="-0.10125">
        <ele>355.6</ele>
        <time>2021-01-31 16:38:45</time>
      </trkpt>
      <trkpt lat="38.68424" lon="-0.10131">
        <ele>354.6</ele>
        <time>2021-01-31 16:38:46</time>
      </trkpt>
      <trkpt lat="38.68423" lon="-0.10143">
        <ele>354.2</ele>
        <time>2021-01-31 16:38:47</time>
      </trkpt>
      <trkpt lat="38.68423" lon="-0.10155">
        <ele>353.2</ele>
        <time>2021-01-31 16:38:48</time>
      </trkpt>
      <trkpt lat="38.68422" lon="-0.10167">
        <ele>353.2</ele>
        <time>2021-01-31 16:38:49</time>
      </trkpt>
      <trkpt lat="38.68422" lon="-0.10167">
        <ele>353.2</ele>
        <time>2021-01-31 16:38:50</time>
      </trkpt>
      <trkpt lat="38.68422" lon="-0.10167">
        <ele>353.2</ele>
        <time>2021-01-31 16:38:51</time>
      </trkpt>
      <trkpt lat="38.68422" lon="-0.10167">
        <ele>349.6</ele>
        <time>2021-01-31 16:38:52</time>
      </trkpt>
      <trkpt lat="38.68412" lon="-0.10219">
        <ele>348.6</ele>
        <time>2021-01-31 16:38:53</time>
      </trkpt>
      <trkpt lat="38.68406" lon="-0.10231">
        <ele>347.6</ele>
        <time>2021-01-31 16:38:54</time>
      </trkpt>
      <trkpt lat="38.68398" lon="-0.10241">
        <ele>346.6</ele>
        <time>2021-01-31 16:38:55</time>
      </trkpt>
      <trkpt lat="38.68389" lon="-0.10251">
        <ele>345.6</ele>
        <time>2021-01-31 16:38:56</time>
      </trkpt>
      <trkpt lat="38.6838" lon="-0.10262">
        <ele>344.6</ele>
        <time>2021-01-31 16:38:57</time>
      </trkpt>
      <trkpt lat="38.68373" lon="-0.10275">
        <ele>343.6</ele>
        <time>2021-01-31 16:38:58</time>
      </trkpt>
      <trkpt lat="38.68366" lon="-0.10287">
        <ele>343.6</ele>
        <time>2021-01-31 16:38:59</time>
      </trkpt>
      <trkpt lat="38.68359" lon="-0.10299">
        <ele>343.6</ele>
        <time>2021-01-31 16:39:00</time>
      </trkpt>
      <trkpt lat="38.68353" lon="-0.10312">
        <ele>344.6</ele>
        <time>2021-01-31 16:39:01</time>
      </trkpt>
      <trkpt lat="38.68347" lon="-0.10325">
        <ele>345.6</ele>
        <time>2021-01-31 16:39:02</time>
      </trkpt>
      <trkpt lat="38.68342" lon="-0.10336">
        <ele>346.6</ele>
        <time>2021-01-31 16:39:03</time>
      </trkpt>
      <trkpt lat="38.68338" lon="-0.10348">
        <ele>347.6</ele>
        <time>2021-01-31 16:39:04</time>
      </trkpt>
      <trkpt lat="38.68337" lon="-0.10359">
        <ele>348.6</ele>
        <time>2021-01-31 16:39:05</time>
      </trkpt>
      <trkpt lat="38.68339" lon="-0.10371">
        <ele>349.6</ele>
        <time>2021-01-31 16:39:06</time>
      </trkpt>
      <trkpt lat="38.68343" lon="-0.10382">
        <ele>349.6</ele>
        <time>2021-01-31 16:39:07</time>
      </trkpt>
      <trkpt lat="38.68347" lon="-0.10392">
        <ele>349.6</ele>
        <time>2021-01-31 16:39:08</time>
      </trkpt>
      <trkpt lat="38.68352" lon="-0.10402">
        <ele>349</ele>
        <time>2021-01-31 16:39:09</time>
      </trkpt>
      <trkpt lat="38.68355" lon="-0.10412">
        <ele>349</ele>
        <time>2021-01-31 16:39:10</time>
      </trkpt>
      <trkpt lat="38.68355" lon="-0.10423">
        <ele>349</ele>
        <time>2021-01-31 16:39:11</time>
      </trkpt>
      <trkpt lat="38.68353" lon="-0.10433">
        <ele>349</ele>
        <time>2021-01-31 16:39:12</time>
      </trkpt>
      <trkpt lat="38.68349" lon="-0.10442">
        <ele>349</ele>
        <time>2021-01-31 16:39:13</time>
      </trkpt>
      <trkpt lat="38.68349" lon="-0.10442">
        <ele>349</ele>
        <time>2021-01-31 16:39:14</time>
      </trkpt>
      <trkpt lat="38.68349" lon="-0.10442">
        <ele>349</ele>
        <time>2021-01-31 16:39:15</time>
      </trkpt>
      <trkpt lat="38.68349" lon="-0.10442">
        <ele>349</ele>
        <time>2021-01-31 16:39:16</time>
      </trkpt>
      <trkpt lat="38.68349" lon="-0.10442">
        <ele>349.2</ele>
        <time>2021-01-31 16:39:17</time>
      </trkpt>
      <trkpt lat="38.68323" lon="-0.10477">
        <ele>349.2</ele>
        <time>2021-01-31 16:39:18</time>
      </trkpt>
      <trkpt lat="38.68323" lon="-0.10477">
        <ele>349.2</ele>
        <time>2021-01-31 16:39:19</time>
      </trkpt>
      <trkpt lat="38.68323" lon="-0.10477">
        <ele>349.2</ele>
        <time>2021-01-31 16:39:20</time>
      </trkpt>
      <trkpt lat="38.68323" lon="-0.10477">
        <ele>349.2</ele>
        <time>2021-01-31 16:39:21</time>
      </trkpt>
      <trkpt lat="38.68323" lon="-0.10508">
        <ele>349.2</ele>
        <time>2021-01-31 16:39:22</time>
      </trkpt>
      <trkpt lat="38.68327" lon="-0.10514">
        <ele>349.2</ele>
        <time>2021-01-31 16:39:23</time>
      </trkpt>
      <trkpt lat="38.68331" lon="-0.10522">
        <ele>349.8</ele>
        <time>2021-01-31 16:39:24</time>
      </trkpt>
      <trkpt lat="38.68334" lon="-0.1053">
        <ele>349.8</ele>
        <time>2021-01-31 16:39:25</time>
      </trkpt>
      <trkpt lat="38.68336" lon="-0.10539">
        <ele>349.8</ele>
        <time>2021-01-31 16:39:26</time>
      </trkpt>
      <trkpt lat="38.68334" lon="-0.1055">
        <ele>348.8</ele>
        <time>2021-01-31 16:39:27</time>
      </trkpt>
      <trkpt lat="38.68331" lon="-0.10561">
        <ele>347.8</ele>
        <time>2021-01-31 16:39:28</time>
      </trkpt>
      <trkpt lat="38.68326" lon="-0.10571">
        <ele>346.8</ele>
        <time>2021-01-31 16:39:29</time>
      </trkpt>
      <trkpt lat="38.6832" lon="-0.10581">
        <ele>345.8</ele>
        <time>2021-01-31 16:39:30</time>
      </trkpt>
      <trkpt lat="38.68313" lon="-0.10592">
        <ele>344.8</ele>
        <time>2021-01-31 16:39:31</time>
      </trkpt>
      <trkpt lat="38.68307" lon="-0.10601">
        <ele>343.8</ele>
        <time>2021-01-31 16:39:32</time>
      </trkpt>
      <trkpt lat="38.68301" lon="-0.1061">
        <ele>343.2</ele>
        <time>2021-01-31 16:39:33</time>
      </trkpt>
      <trkpt lat="38.68301" lon="-0.1061">
        <ele>342.4</ele>
        <time>2021-01-31 16:39:34</time>
      </trkpt>
      <trkpt lat="38.68295" lon="-0.10632">
        <ele>341.4</ele>
        <time>2021-01-31 16:39:35</time>
      </trkpt>
      <trkpt lat="38.68295" lon="-0.10641">
        <ele>340.4</ele>
        <time>2021-01-31 16:39:36</time>
      </trkpt>
      <trkpt lat="38.68295" lon="-0.10652">
        <ele>339.6</ele>
        <time>2021-01-31 16:39:37</time>
      </trkpt>
      <trkpt lat="38.68294" lon="-0.10663">
        <ele>338.6</ele>
        <time>2021-01-31 16:39:38</time>
      </trkpt>
      <trkpt lat="38.6829" lon="-0.10676">
        <ele>337.6</ele>
        <time>2021-01-31 16:39:39</time>
      </trkpt>
      <trkpt lat="38.68283" lon="-0.10686">
        <ele>336.6</ele>
        <time>2021-01-31 16:39:40</time>
      </trkpt>
      <trkpt lat="38.68274" lon="-0.10693">
        <ele>336</ele>
        <time>2021-01-31 16:39:41</time>
      </trkpt>
      <trkpt lat="38.68265" lon="-0.10698">
        <ele>336</ele>
        <time>2021-01-31 16:39:42</time>
      </trkpt>
      <trkpt lat="38.68256" lon="-0.10702">
        <ele>336</ele>
        <time>2021-01-31 16:39:43</time>
      </trkpt>
      <trkpt lat="38.68248" lon="-0.10709">
        <ele>336</ele>
        <time>2021-01-31 16:39:44</time>
      </trkpt>
      <trkpt lat="38.68243" lon="-0.10719">
        <ele>335</ele>
        <time>2021-01-31 16:39:45</time>
      </trkpt>
      <trkpt lat="38.68241" lon="-0.10731">
        <ele>334</ele>
        <time>2021-01-31 16:39:46</time>
      </trkpt>
      <trkpt lat="38.68242" lon="-0.10744">
        <ele>334</ele>
        <time>2021-01-31 16:39:47</time>
      </trkpt>
      <trkpt lat="38.68242" lon="-0.10744">
        <ele>333</ele>
        <time>2021-01-31 16:39:48</time>
      </trkpt>
      <trkpt lat="38.68246" lon="-0.10768">
        <ele>333</ele>
        <time>2021-01-31 16:39:49</time>
      </trkpt>
      <trkpt lat="38.68246" lon="-0.10768">
        <ele>333</ele>
        <time>2021-01-31 16:39:50</time>
      </trkpt>
      <trkpt lat="38.68246" lon="-0.10768">
        <ele>333</ele>
        <time>2021-01-31 16:39:51</time>
      </trkpt>
      <trkpt lat="38.68246" lon="-0.10768">
        <ele>333</ele>
        <time>2021-01-31 16:39:52</time>
      </trkpt>
      <trkpt lat="38.68246" lon="-0.10768">
        <ele>333</ele>
        <time>2021-01-31 16:39:53</time>
      </trkpt>
      <trkpt lat="38.6827" lon="-0.10817">
        <ele>333</ele>
        <time>2021-01-31 16:39:54</time>
      </trkpt>
      <trkpt lat="38.68277" lon="-0.10826">
        <ele>333</ele>
        <time>2021-01-31 16:39:55</time>
      </trkpt>
      <trkpt lat="38.68285" lon="-0.10836">
        <ele>332</ele>
        <time>2021-01-31 16:39:56</time>
      </trkpt>
      <trkpt lat="38.68292" lon="-0.10846">
        <ele>331</ele>
        <time>2021-01-31 16:39:57</time>
      </trkpt>
      <trkpt lat="38.68298" lon="-0.10856">
        <ele>330</ele>
        <time>2021-01-31 16:39:58</time>
      </trkpt>
      <trkpt lat="38.68303" lon="-0.10868">
        <ele>329</ele>
        <time>2021-01-31 16:39:59</time>
      </trkpt>
      <trkpt lat="38.68304" lon="-0.1088">
        <ele>328</ele>
        <time>2021-01-31 16:40:00</time>
      </trkpt>
      <trkpt lat="38.68303" lon="-0.10895">
        <ele>327</ele>
        <time>2021-01-31 16:40:01</time>
      </trkpt>
      <trkpt lat="38.683" lon="-0.10909">
        <ele>326.4</ele>
        <time>2021-01-31 16:40:02</time>
      </trkpt>
      <trkpt lat="38.68298" lon="-0.10924">
        <ele>325.4</ele>
        <time>2021-01-31 16:40:03</time>
      </trkpt>
      <trkpt lat="38.68297" lon="-0.10938">
        <ele>325.2</ele>
        <time>2021-01-31 16:40:04</time>
      </trkpt>
      <trkpt lat="38.68294" lon="-0.10952">
        <ele>325.2</ele>
        <time>2021-01-31 16:40:05</time>
      </trkpt>
      <trkpt lat="38.6829" lon="-0.10964">
        <ele>325.2</ele>
        <time>2021-01-31 16:40:06</time>
      </trkpt>
      <trkpt lat="38.68285" lon="-0.10976">
        <ele>325.2</ele>
        <time>2021-01-31 16:40:07</time>
      </trkpt>
      <trkpt lat="38.68277" lon="-0.10984">
        <ele>324.2</ele>
        <time>2021-01-31 16:40:08</time>
      </trkpt>
      <trkpt lat="38.68268" lon="-0.1099">
        <ele>324.2</ele>
        <time>2021-01-31 16:40:09</time>
      </trkpt>
      <trkpt lat="38.68268" lon="-0.1099">
        <ele>324.2</ele>
        <time>2021-01-31 16:40:10</time>
      </trkpt>
      <trkpt lat="38.68268" lon="-0.1099">
        <ele>324.2</ele>
        <time>2021-01-31 16:40:11</time>
      </trkpt>
      <trkpt lat="38.68268" lon="-0.1099">
        <ele>324.2</ele>
        <time>2021-01-31 16:40:12</time>
      </trkpt>
      <trkpt lat="38.68268" lon="-0.1099">
        <ele>323</ele>
        <time>2021-01-31 16:40:13</time>
      </trkpt>
      <trkpt lat="38.6824" lon="-0.11026">
        <ele>322</ele>
        <time>2021-01-31 16:40:14</time>
      </trkpt>
      <trkpt lat="38.68232" lon="-0.11032">
        <ele>321.2</ele>
        <time>2021-01-31 16:40:15</time>
      </trkpt>
      <trkpt lat="38.68225" lon="-0.11036">
        <ele>320.2</ele>
        <time>2021-01-31 16:40:16</time>
      </trkpt>
      <trkpt lat="38.68216" lon="-0.1104">
        <ele>319.2</ele>
        <time>2021-01-31 16:40:17</time>
      </trkpt>
      <trkpt lat="38.68208" lon="-0.11044">
        <ele>318.2</ele>
        <time>2021-01-31 16:40:18</time>
      </trkpt>
      <trkpt lat="38.68202" lon="-0.1105">
        <ele>317.2</ele>
        <time>2021-01-31 16:40:19</time>
      </trkpt>
      <trkpt lat="38.68197" lon="-0.11059">
        <ele>316.2</ele>
        <time>2021-01-31 16:40:20</time>
      </trkpt>
      <trkpt lat="38.68195" lon="-0.11069">
        <ele>315.2</ele>
        <time>2021-01-31 16:40:21</time>
      </trkpt>
      <trkpt lat="38.68197" lon="-0.11079">
        <ele>314.2</ele>
        <time>2021-01-31 16:40:22</time>
      </trkpt>
      <trkpt lat="38.68201" lon="-0.11087">
        <ele>313.2</ele>
        <time>2021-01-31 16:40:23</time>
      </trkpt>
      <trkpt lat="38.68206" lon="-0.11094">
        <ele>313.2</ele>
        <time>2021-01-31 16:40:24</time>
      </trkpt>
      <trkpt lat="38.68212" lon="-0.11101">
        <ele>313.2</ele>
        <time>2021-01-31 16:40:25</time>
      </trkpt>
      <trkpt lat="38.6822" lon="-0.11105">
        <ele>313.2</ele>
        <time>2021-01-31 16:40:26</time>
      </trkpt>
      <trkpt lat="38.68227" lon="-0.11108">
        <ele>312.2</ele>
        <time>2021-01-31 16:40:27</time>
      </trkpt>
      <trkpt lat="38.68235" lon="-0.1111">
        <ele>311.2</ele>
        <time>2021-01-31 16:40:28</time>
      </trkpt>
      <trkpt lat="38.68244" lon="-0.11111">
        <ele>310.2</ele>
        <time>2021-01-31 16:40:29</time>
      </trkpt>
      <trkpt lat="38.68252" lon="-0.11113">
        <ele>309.2</ele>
        <time>2021-01-31 16:40:30</time>
      </trkpt>
      <trkpt lat="38.6826" lon="-0.11119">
        <ele>308.2</ele>
        <time>2021-01-31 16:40:31</time>
      </trkpt>
      <trkpt lat="38.68267" lon="-0.11127">
        <ele>307.2</ele>
        <time>2021-01-31 16:40:32</time>
      </trkpt>
      <trkpt lat="38.68273" lon="-0.11136">
        <ele>306.2</ele>
        <time>2021-01-31 16:40:33</time>
      </trkpt>
      <trkpt lat="38.68278" lon="-0.11147">
        <ele>305.2</ele>
        <time>2021-01-31 16:40:34</time>
      </trkpt>
      <trkpt lat="38.68284" lon="-0.11157">
        <ele>304.2</ele>
        <time>2021-01-31 16:40:35</time>
      </trkpt>
      <trkpt lat="38.68289" lon="-0.11168">
        <ele>303.2</ele>
        <time>2021-01-31 16:40:36</time>
      </trkpt>
      <trkpt lat="38.68295" lon="-0.11179">
        <ele>302.2</ele>
        <time>2021-01-31 16:40:37</time>
      </trkpt>
      <trkpt lat="38.68301" lon="-0.1119">
        <ele>301.2</ele>
        <time>2021-01-31 16:40:38</time>
      </trkpt>
      <trkpt lat="38.68307" lon="-0.11199">
        <ele>300.2</ele>
        <time>2021-01-31 16:40:39</time>
      </trkpt>
      <trkpt lat="38.68313" lon="-0.11208">
        <ele>299.2</ele>
        <time>2021-01-31 16:40:40</time>
      </trkpt>
      <trkpt lat="38.6832" lon="-0.11216">
        <ele>298.4</ele>
        <time>2021-01-31 16:40:41</time>
      </trkpt>
      <trkpt lat="38.68329" lon="-0.11222">
        <ele>298.4</ele>
        <time>2021-01-31 16:40:42</time>
      </trkpt>
      <trkpt lat="38.68337" lon="-0.11226">
        <ele>298.4</ele>
        <time>2021-01-31 16:40:43</time>
      </trkpt>
      <trkpt lat="38.68337" lon="-0.11226">
        <ele>298.4</ele>
        <time>2021-01-31 16:40:44</time>
      </trkpt>
      <trkpt lat="38.68337" lon="-0.11226">
        <ele>298.4</ele>
        <time>2021-01-31 16:40:45</time>
      </trkpt>
      <trkpt lat="38.68337" lon="-0.11226">
        <ele>298.4</ele>
        <time>2021-01-31 16:40:46</time>
      </trkpt>
      <trkpt lat="38.68337" lon="-0.11226">
        <ele>297.4</ele>
        <time>2021-01-31 16:40:47</time>
      </trkpt>
      <trkpt lat="38.68375" lon="-0.11242">
        <ele>298.4</ele>
        <time>2021-01-31 16:40:48</time>
      </trkpt>
      <trkpt lat="38.68378" lon="-0.11249">
        <ele>299.4</ele>
        <time>2021-01-31 16:40:49</time>
      </trkpt>
      <trkpt lat="38.68378" lon="-0.11257">
        <ele>299.8</ele>
        <time>2021-01-31 16:40:50</time>
      </trkpt>
      <trkpt lat="38.68374" lon="-0.11265">
        <ele>299.8</ele>
        <time>2021-01-31 16:40:51</time>
      </trkpt>
      <trkpt lat="38.68374" lon="-0.11265">
        <ele>299.8</ele>
        <time>2021-01-31 16:40:52</time>
      </trkpt>
      <trkpt lat="38.68374" lon="-0.11265">
        <ele>299.8</ele>
        <time>2021-01-31 16:40:53</time>
      </trkpt>
      <trkpt lat="38.68374" lon="-0.11265">
        <ele>297.8</ele>
        <time>2021-01-31 16:40:54</time>
      </trkpt>
      <trkpt lat="38.6835" lon="-0.11263">
        <ele>296.8</ele>
        <time>2021-01-31 16:40:55</time>
      </trkpt>
      <trkpt lat="38.68342" lon="-0.11259">
        <ele>296.8</ele>
        <time>2021-01-31 16:40:56</time>
      </trkpt>
      <trkpt lat="38.68342" lon="-0.11259">
        <ele>296.8</ele>
        <time>2021-01-31 16:40:57</time>
      </trkpt>
      <trkpt lat="38.68342" lon="-0.11259">
        <ele>296.8</ele>
        <time>2021-01-31 16:40:58</time>
      </trkpt>
      <trkpt lat="38.68342" lon="-0.11259">
        <ele>292.8</ele>
        <time>2021-01-31 16:40:59</time>
      </trkpt>
      <trkpt lat="38.68309" lon="-0.1124">
        <ele>292.8</ele>
        <time>2021-01-31 16:41:00</time>
      </trkpt>
      <trkpt lat="38.68309" lon="-0.1124">
        <ele>292.8</ele>
        <time>2021-01-31 16:41:01</time>
      </trkpt>
      <trkpt lat="38.68309" lon="-0.1124">
        <ele>292.8</ele>
        <time>2021-01-31 16:41:02</time>
      </trkpt>
      <trkpt lat="38.68309" lon="-0.1124">
        <ele>288.8</ele>
        <time>2021-01-31 16:41:03</time>
      </trkpt>
      <trkpt lat="38.68271" lon="-0.11218">
        <ele>287.8</ele>
        <time>2021-01-31 16:41:04</time>
      </trkpt>
      <trkpt lat="38.68263" lon="-0.11213">
        <ele>286.8</ele>
        <time>2021-01-31 16:41:05</time>
      </trkpt>
      <trkpt lat="38.68255" lon="-0.11208">
        <ele>286.2</ele>
        <time>2021-01-31 16:41:06</time>
      </trkpt>
      <trkpt lat="38.68248" lon="-0.11204">
        <ele>286</ele>
        <time>2021-01-31 16:41:07</time>
      </trkpt>
      <trkpt lat="38.68242" lon="-0.11202">
        <ele>285.6</ele>
        <time>2021-01-31 16:41:08</time>
      </trkpt>
      <trkpt lat="38.68237" lon="-0.11202">
        <ele>285.2</ele>
        <time>2021-01-31 16:41:09</time>
      </trkpt>
      <trkpt lat="38.68233" lon="-0.11207">
        <ele>284.2</ele>
        <time>2021-01-31 16:41:10</time>
      </trkpt>
      <trkpt lat="38.6823" lon="-0.11214">
        <ele>284.2</ele>
        <time>2021-01-31 16:41:11</time>
      </trkpt>
      <trkpt lat="38.68232" lon="-0.11222">
        <ele>284.2</ele>
        <time>2021-01-31 16:41:12</time>
      </trkpt>
      <trkpt lat="38.68237" lon="-0.11228">
        <ele>284.8</ele>
        <time>2021-01-31 16:41:13</time>
      </trkpt>
      <trkpt lat="38.68241" lon="-0.11234">
        <ele>284.8</ele>
        <time>2021-01-31 16:41:14</time>
      </trkpt>
      <trkpt lat="38.68242" lon="-0.11243">
        <ele>284.8</ele>
        <time>2021-01-31 16:41:15</time>
      </trkpt>
      <trkpt lat="38.6824" lon="-0.11252">
        <ele>283.8</ele>
        <time>2021-01-31 16:41:16</time>
      </trkpt>
      <trkpt lat="38.68234" lon="-0.1126">
        <ele>282.8</ele>
        <time>2021-01-31 16:41:17</time>
      </trkpt>
      <trkpt lat="38.68227" lon="-0.11266">
        <ele>282.8</ele>
        <time>2021-01-31 16:41:18</time>
      </trkpt>
      <trkpt lat="38.68227" lon="-0.11266">
        <ele>282.8</ele>
        <time>2021-01-31 16:41:19</time>
      </trkpt>
      <trkpt lat="38.68227" lon="-0.11266">
        <ele>282.8</ele>
        <time>2021-01-31 16:41:20</time>
      </trkpt>
      <trkpt lat="38.68227" lon="-0.11266">
        <ele>278.8</ele>
        <time>2021-01-31 16:41:21</time>
      </trkpt>
      <trkpt lat="38.68195" lon="-0.11273">
        <ele>277.8</ele>
        <time>2021-01-31 16:41:22</time>
      </trkpt>
      <trkpt lat="38.68187" lon="-0.11267">
        <ele>276.8</ele>
        <time>2021-01-31 16:41:23</time>
      </trkpt>
      <trkpt lat="38.68179" lon="-0.11259">
        <ele>276.8</ele>
        <time>2021-01-31 16:41:24</time>
      </trkpt>
      <trkpt lat="38.68179" lon="-0.11259">
        <ele>276.8</ele>
        <time>2021-01-31 16:41:25</time>
      </trkpt>
      <trkpt lat="38.68179" lon="-0.11259">
        <ele>276.8</ele>
        <time>2021-01-31 16:41:26</time>
      </trkpt>
      <trkpt lat="38.68179" lon="-0.11259">
        <ele>272.8</ele>
        <time>2021-01-31 16:41:27</time>
      </trkpt>
      <trkpt lat="38.68158" lon="-0.11213">
        <ele>272.8</ele>
        <time>2021-01-31 16:41:28</time>
      </trkpt>
      <trkpt lat="38.68154" lon="-0.11202">
        <ele>272.8</ele>
        <time>2021-01-31 16:41:29</time>
      </trkpt>
      <trkpt lat="38.68149" lon="-0.11191">
        <ele>272.8</ele>
        <time>2021-01-31 16:41:30</time>
      </trkpt>
      <trkpt lat="38.68144" lon="-0.1118">
        <ele>272.8</ele>
        <time>2021-01-31 16:41:31</time>
      </trkpt>
      <trkpt lat="38.68137" lon="-0.11171">
        <ele>272.8</ele>
        <time>2021-01-31 16:41:32</time>
      </trkpt>
      <trkpt lat="38.6813" lon="-0.11163">
        <ele>273.8</ele>
        <time>2021-01-31 16:41:33</time>
      </trkpt>
      <trkpt lat="38.68123" lon="-0.11157">
        <ele>274.8</ele>
        <time>2021-01-31 16:41:34</time>
      </trkpt>
      <trkpt lat="38.68116" lon="-0.11152">
        <ele>274.8</ele>
        <time>2021-01-31 16:41:35</time>
      </trkpt>
      <trkpt lat="38.68116" lon="-0.11152">
        <ele>274.8</ele>
        <time>2021-01-31 16:41:36</time>
      </trkpt>
      <trkpt lat="38.68116" lon="-0.11152">
        <ele>274.8</ele>
        <time>2021-01-31 16:41:37</time>
      </trkpt>
      <trkpt lat="38.68116" lon="-0.11152">
        <ele>278.8</ele>
        <time>2021-01-31 16:41:38</time>
      </trkpt>
      <trkpt lat="38.68088" lon="-0.11141">
        <ele>279</ele>
        <time>2021-01-31 16:41:39</time>
      </trkpt>
      <trkpt lat="38.68081" lon="-0.11141">
        <ele>279.4</ele>
        <time>2021-01-31 16:41:40</time>
      </trkpt>
      <trkpt lat="38.68075" lon="-0.11143">
        <ele>279.6</ele>
        <time>2021-01-31 16:41:41</time>
      </trkpt>
      <trkpt lat="38.6807" lon="-0.11145">
        <ele>280.6</ele>
        <time>2021-01-31 16:41:42</time>
      </trkpt>
      <trkpt lat="38.68064" lon="-0.11148">
        <ele>280.6</ele>
        <time>2021-01-31 16:41:43</time>
      </trkpt>
      <trkpt lat="38.68061" lon="-0.11152">
        <ele>280.6</ele>
        <time>2021-01-31 16:41:44</time>
      </trkpt>
      <trkpt lat="38.68057" lon="-0.11156">
        <ele>280.6</ele>
        <time>2021-01-31 16:41:45</time>
      </trkpt>
      <trkpt lat="38.68055" lon="-0.1116">
        <ele>280.6</ele>
        <time>2021-01-31 16:41:46</time>
      </trkpt>
      <trkpt lat="38.68053" lon="-0.11164">
        <ele>281.6</ele>
        <time>2021-01-31 16:41:47</time>
      </trkpt>
      <trkpt lat="38.6805" lon="-0.11167">
        <ele>281.6</ele>
        <time>2021-01-31 16:41:48</time>
      </trkpt>
      <trkpt lat="38.68046" lon="-0.11171">
        <ele>281.6</ele>
        <time>2021-01-31 16:41:49</time>
      </trkpt>
      <trkpt lat="38.68044" lon="-0.11175">
        <ele>281.6</ele>
        <time>2021-01-31 16:41:50</time>
      </trkpt>
      <trkpt lat="38.68042" lon="-0.11178">
        <ele>281.6</ele>
        <time>2021-01-31 16:41:51</time>
      </trkpt>
      <trkpt lat="38.68039" lon="-0.11181">
        <ele>281.6</ele>
        <time>2021-01-31 16:41:52</time>
      </trkpt>
      <trkpt lat="38.68037" lon="-0.11185">
        <ele>281.6</ele>
        <time>2021-01-31 16:41:53</time>
      </trkpt>
      <trkpt lat="38.68033" lon="-0.1119">
        <ele>281.6</ele>
        <time>2021-01-31 16:41:54</time>
      </trkpt>
      <trkpt lat="38.6803" lon="-0.11195">
        <ele>280.6</ele>
        <time>2021-01-31 16:41:55</time>
      </trkpt>
      <trkpt lat="38.68026" lon="-0.11201">
        <ele>279.6</ele>
        <time>2021-01-31 16:41:56</time>
      </trkpt>
      <trkpt lat="38.68021" lon="-0.11208">
        <ele>278.8</ele>
        <time>2021-01-31 16:41:57</time>
      </trkpt>
      <trkpt lat="38.68016" lon="-0.11215">
        <ele>278.4</ele>
        <time>2021-01-31 16:41:58</time>
      </trkpt>
      <trkpt lat="38.6801" lon="-0.11223">
        <ele>277.8</ele>
        <time>2021-01-31 16:41:59</time>
      </trkpt>
      <trkpt lat="38.68004" lon="-0.11233">
        <ele>277</ele>
        <time>2021-01-31 16:42:00</time>
      </trkpt>
      <trkpt lat="38.67998" lon="-0.11242">
        <ele>276.6</ele>
        <time>2021-01-31 16:42:01</time>
      </trkpt>
      <trkpt lat="38.67991" lon="-0.11252">
        <ele>275.6</ele>
        <time>2021-01-31 16:42:02</time>
      </trkpt>
      <trkpt lat="38.67983" lon="-0.11261">
        <ele>274.6</ele>
        <time>2021-01-31 16:42:03</time>
      </trkpt>
      <trkpt lat="38.67974" lon="-0.1127">
        <ele>274.6</ele>
        <time>2021-01-31 16:42:04</time>
      </trkpt>
      <trkpt lat="38.67974" lon="-0.1127">
        <ele>274.6</ele>
        <time>2021-01-31 16:42:05</time>
      </trkpt>
      <trkpt lat="38.67974" lon="-0.1127">
        <ele>274.6</ele>
        <time>2021-01-31 16:42:06</time>
      </trkpt>
      <trkpt lat="38.67974" lon="-0.1127">
        <ele>270.6</ele>
        <time>2021-01-31 16:42:07</time>
      </trkpt>
      <trkpt lat="38.67952" lon="-0.11314">
        <ele>269.6</ele>
        <time>2021-01-31 16:42:08</time>
      </trkpt>
      <trkpt lat="38.67951" lon="-0.11324">
        <ele>268.6</ele>
        <time>2021-01-31 16:42:09</time>
      </trkpt>
      <trkpt lat="38.67951" lon="-0.11334">
        <ele>267.6</ele>
        <time>2021-01-31 16:42:10</time>
      </trkpt>
      <trkpt lat="38.6795" lon="-0.11343">
        <ele>266.6</ele>
        <time>2021-01-31 16:42:11</time>
      </trkpt>
      <trkpt lat="38.67945" lon="-0.11352">
        <ele>265.6</ele>
        <time>2021-01-31 16:42:12</time>
      </trkpt>
      <trkpt lat="38.67938" lon="-0.11358">
        <ele>264.6</ele>
        <time>2021-01-31 16:42:13</time>
      </trkpt>
      <trkpt lat="38.6793" lon="-0.1136">
        <ele>263.6</ele>
        <time>2021-01-31 16:42:14</time>
      </trkpt>
      <trkpt lat="38.67921" lon="-0.11359">
        <ele>262.6</ele>
        <time>2021-01-31 16:42:15</time>
      </trkpt>
      <trkpt lat="38.67913" lon="-0.11355">
        <ele>262.4</ele>
        <time>2021-01-31 16:42:16</time>
      </trkpt>
      <trkpt lat="38.67905" lon="-0.11351">
        <ele>262.4</ele>
        <time>2021-01-31 16:42:17</time>
      </trkpt>
      <trkpt lat="38.67905" lon="-0.11351">
        <ele>262.4</ele>
        <time>2021-01-31 16:42:18</time>
      </trkpt>
      <trkpt lat="38.67905" lon="-0.11351">
        <ele>262.4</ele>
        <time>2021-01-31 16:42:19</time>
      </trkpt>
      <trkpt lat="38.67905" lon="-0.11351">
        <ele>261.6</ele>
        <time>2021-01-31 16:42:20</time>
      </trkpt>
      <trkpt lat="38.67875" lon="-0.11326">
        <ele>261.6</ele>
        <time>2021-01-31 16:42:21</time>
      </trkpt>
      <trkpt lat="38.67867" lon="-0.11319">
        <ele>261.6</ele>
        <time>2021-01-31 16:42:22</time>
      </trkpt>
      <trkpt lat="38.67858" lon="-0.11314">
        <ele>261.6</ele>
        <time>2021-01-31 16:42:23</time>
      </trkpt>
      <trkpt lat="38.6785" lon="-0.11307">
        <ele>260.6</ele>
        <time>2021-01-31 16:42:24</time>
      </trkpt>
      <trkpt lat="38.67841" lon="-0.11302">
        <ele>260</ele>
        <time>2021-01-31 16:42:25</time>
      </trkpt>
      <trkpt lat="38.67832" lon="-0.11296">
        <ele>260</ele>
        <time>2021-01-31 16:42:26</time>
      </trkpt>
      <trkpt lat="38.67823" lon="-0.11291">
        <ele>260</ele>
        <time>2021-01-31 16:42:27</time>
      </trkpt>
      <trkpt lat="38.67814" lon="-0.11288">
        <ele>260</ele>
        <time>2021-01-31 16:42:28</time>
      </trkpt>
      <trkpt lat="38.67806" lon="-0.11285">
        <ele>260</ele>
        <time>2021-01-31 16:42:29</time>
      </trkpt>
      <trkpt lat="38.67796" lon="-0.11281">
        <ele>260</ele>
        <time>2021-01-31 16:42:30</time>
      </trkpt>
      <trkpt lat="38.67788" lon="-0.11278">
        <ele>260</ele>
        <time>2021-01-31 16:42:31</time>
      </trkpt>
      <trkpt lat="38.6778" lon="-0.11273">
        <ele>259</ele>
        <time>2021-01-31 16:42:32</time>
      </trkpt>
      <trkpt lat="38.67772" lon="-0.11266">
        <ele>258</ele>
        <time>2021-01-31 16:42:33</time>
      </trkpt>
      <trkpt lat="38.67766" lon="-0.11259">
        <ele>258</ele>
        <time>2021-01-31 16:42:34</time>
      </trkpt>
      <trkpt lat="38.67766" lon="-0.11259">
        <ele>258</ele>
        <time>2021-01-31 16:42:35</time>
      </trkpt>
      <trkpt lat="38.67766" lon="-0.11259">
        <ele>258</ele>
        <time>2021-01-31 16:42:36</time>
      </trkpt>
      <trkpt lat="38.67766" lon="-0.11259">
        <ele>254</ele>
        <time>2021-01-31 16:42:37</time>
      </trkpt>
      <trkpt lat="38.6775" lon="-0.11212">
        <ele>253</ele>
        <time>2021-01-31 16:42:38</time>
      </trkpt>
      <trkpt lat="38.67749" lon="-0.11199">
        <ele>252.8</ele>
        <time>2021-01-31 16:42:39</time>
      </trkpt>
      <trkpt lat="38.67747" lon="-0.11188">
        <ele>252.8</ele>
        <time>2021-01-31 16:42:40</time>
      </trkpt>
      <trkpt lat="38.67743" lon="-0.11178">
        <ele>252.8</ele>
        <time>2021-01-31 16:42:41</time>
      </trkpt>
      <trkpt lat="38.67737" lon="-0.11171">
        <ele>253.6</ele>
        <time>2021-01-31 16:42:42</time>
      </trkpt>
      <trkpt lat="38.6773" lon="-0.11165">
        <ele>253.6</ele>
        <time>2021-01-31 16:42:43</time>
      </trkpt>
      <trkpt lat="38.67723" lon="-0.1116">
        <ele>253.6</ele>
        <time>2021-01-31 16:42:44</time>
      </trkpt>
      <trkpt lat="38.67716" lon="-0.11154">
        <ele>252.6</ele>
        <time>2021-01-31 16:42:45</time>
      </trkpt>
      <trkpt lat="38.67708" lon="-0.11149">
        <ele>251.6</ele>
        <time>2021-01-31 16:42:46</time>
      </trkpt>
      <trkpt lat="38.677" lon="-0.11144">
        <ele>250.6</ele>
        <time>2021-01-31 16:42:47</time>
      </trkpt>
      <trkpt lat="38.67693" lon="-0.11138">
        <ele>250.6</ele>
        <time>2021-01-31 16:42:48</time>
      </trkpt>
      <trkpt lat="38.67693" lon="-0.11138">
        <ele>250.6</ele>
        <time>2021-01-31 16:42:49</time>
      </trkpt>
      <trkpt lat="38.67693" lon="-0.11138">
        <ele>250.6</ele>
        <time>2021-01-31 16:42:50</time>
      </trkpt>
      <trkpt lat="38.67693" lon="-0.11138">
        <ele>250.6</ele>
        <time>2021-01-31 16:42:51</time>
      </trkpt>
      <trkpt lat="38.67693" lon="-0.11138">
        <ele>248.6</ele>
        <time>2021-01-31 16:42:52</time>
      </trkpt>
      <trkpt lat="38.6765" lon="-0.11109">
        <ele>247.6</ele>
        <time>2021-01-31 16:42:53</time>
      </trkpt>
      <trkpt lat="38.67642" lon="-0.11105">
        <ele>246.6</ele>
        <time>2021-01-31 16:42:54</time>
      </trkpt>
      <trkpt lat="38.67634" lon="-0.11098">
        <ele>245.6</ele>
        <time>2021-01-31 16:42:55</time>
      </trkpt>
      <trkpt lat="38.67625" lon="-0.11091">
        <ele>245.6</ele>
        <time>2021-01-31 16:42:56</time>
      </trkpt>
      <trkpt lat="38.67617" lon="-0.11085">
        <ele>245.6</ele>
        <time>2021-01-31 16:42:57</time>
      </trkpt>
      <trkpt lat="38.67608" lon="-0.11079">
        <ele>245.6</ele>
        <time>2021-01-31 16:42:58</time>
      </trkpt>
      <trkpt lat="38.67599" lon="-0.11072">
        <ele>245.6</ele>
        <time>2021-01-31 16:42:59</time>
      </trkpt>
      <trkpt lat="38.67591" lon="-0.11066">
        <ele>244.8</ele>
        <time>2021-01-31 16:43:00</time>
      </trkpt>
      <trkpt lat="38.67582" lon="-0.1106">
        <ele>244.6</ele>
        <time>2021-01-31 16:43:01</time>
      </trkpt>
      <trkpt lat="38.67574" lon="-0.11054">
        <ele>244.6</ele>
        <time>2021-01-31 16:43:02</time>
      </trkpt>
      <trkpt lat="38.67566" lon="-0.11048">
        <ele>244.6</ele>
        <time>2021-01-31 16:43:03</time>
      </trkpt>
      <trkpt lat="38.67558" lon="-0.11042">
        <ele>245</ele>
        <time>2021-01-31 16:43:04</time>
      </trkpt>
      <trkpt lat="38.67549" lon="-0.11036">
        <ele>245</ele>
        <time>2021-01-31 16:43:05</time>
      </trkpt>
      <trkpt lat="38.67541" lon="-0.1103">
        <ele>245</ele>
        <time>2021-01-31 16:43:06</time>
      </trkpt>
      <trkpt lat="38.67532" lon="-0.11024">
        <ele>244</ele>
        <time>2021-01-31 16:43:07</time>
      </trkpt>
      <trkpt lat="38.67524" lon="-0.11017">
        <ele>243</ele>
        <time>2021-01-31 16:43:08</time>
      </trkpt>
      <trkpt lat="38.67515" lon="-0.11011">
        <ele>242</ele>
        <time>2021-01-31 16:43:09</time>
      </trkpt>
      <trkpt lat="38.67506" lon="-0.11004">
        <ele>241.6</ele>
        <time>2021-01-31 16:43:10</time>
      </trkpt>
      <trkpt lat="38.67497" lon="-0.10998">
        <ele>241</ele>
        <time>2021-01-31 16:43:11</time>
      </trkpt>
      <trkpt lat="38.67488" lon="-0.10992">
        <ele>240</ele>
        <time>2021-01-31 16:43:12</time>
      </trkpt>
      <trkpt lat="38.67478" lon="-0.10985">
        <ele>240</ele>
        <time>2021-01-31 16:43:13</time>
      </trkpt>
      <trkpt lat="38.67478" lon="-0.10985">
        <ele>240</ele>
        <time>2021-01-31 16:43:14</time>
      </trkpt>
      <trkpt lat="38.67478" lon="-0.10985">
        <ele>240</ele>
        <time>2021-01-31 16:43:15</time>
      </trkpt>
      <trkpt lat="38.67478" lon="-0.10985">
        <ele>237.8</ele>
        <time>2021-01-31 16:43:16</time>
      </trkpt>
      <trkpt lat="38.67438" lon="-0.10965">
        <ele>237</ele>
        <time>2021-01-31 16:43:17</time>
      </trkpt>
      <trkpt lat="38.67428" lon="-0.1096">
        <ele>236.8</ele>
        <time>2021-01-31 16:43:18</time>
      </trkpt>
      <trkpt lat="38.67417" lon="-0.10955">
        <ele>236.8</ele>
        <time>2021-01-31 16:43:19</time>
      </trkpt>
      <trkpt lat="38.67407" lon="-0.10951">
        <ele>236.8</ele>
        <time>2021-01-31 16:43:20</time>
      </trkpt>
      <trkpt lat="38.67396" lon="-0.10946">
        <ele>236.8</ele>
        <time>2021-01-31 16:43:21</time>
      </trkpt>
      <trkpt lat="38.67385" lon="-0.10942">
        <ele>235.8</ele>
        <time>2021-01-31 16:43:22</time>
      </trkpt>
      <trkpt lat="38.67375" lon="-0.10936">
        <ele>234.8</ele>
        <time>2021-01-31 16:43:23</time>
      </trkpt>
      <trkpt lat="38.67365" lon="-0.10929">
        <ele>233.8</ele>
        <time>2021-01-31 16:43:24</time>
      </trkpt>
      <trkpt lat="38.67355" lon="-0.10922">
        <ele>233.8</ele>
        <time>2021-01-31 16:43:25</time>
      </trkpt>
      <trkpt lat="38.67345" lon="-0.10914">
        <ele>233.8</ele>
        <time>2021-01-31 16:43:26</time>
      </trkpt>
      <trkpt lat="38.67345" lon="-0.10914">
        <ele>233.8</ele>
        <time>2021-01-31 16:43:27</time>
      </trkpt>
      <trkpt lat="38.67327" lon="-0.10898">
        <ele>234.2</ele>
        <time>2021-01-31 16:43:28</time>
      </trkpt>
      <trkpt lat="38.67318" lon="-0.1089">
        <ele>234.2</ele>
        <time>2021-01-31 16:43:29</time>
      </trkpt>
      <trkpt lat="38.67309" lon="-0.10882">
        <ele>234.2</ele>
        <time>2021-01-31 16:43:30</time>
      </trkpt>
      <trkpt lat="38.67299" lon="-0.10874">
        <ele>233.2</ele>
        <time>2021-01-31 16:43:31</time>
      </trkpt>
      <trkpt lat="38.6729" lon="-0.10866">
        <ele>232.2</ele>
        <time>2021-01-31 16:43:32</time>
      </trkpt>
      <trkpt lat="38.67281" lon="-0.10859">
        <ele>232</ele>
        <time>2021-01-31 16:43:33</time>
      </trkpt>
      <trkpt lat="38.67272" lon="-0.10851">
        <ele>231.6</ele>
        <time>2021-01-31 16:43:34</time>
      </trkpt>
      <trkpt lat="38.67262" lon="-0.10843">
        <ele>231</ele>
        <time>2021-01-31 16:43:35</time>
      </trkpt>
      <trkpt lat="38.67253" lon="-0.10835">
        <ele>231</ele>
        <time>2021-01-31 16:43:36</time>
      </trkpt>
      <trkpt lat="38.67244" lon="-0.10827">
        <ele>231</ele>
        <time>2021-01-31 16:43:37</time>
      </trkpt>
      <trkpt lat="38.67235" lon="-0.10819">
        <ele>231</ele>
        <time>2021-01-31 16:43:38</time>
      </trkpt>
      <trkpt lat="38.67226" lon="-0.10811">
        <ele>230.2</ele>
        <time>2021-01-31 16:43:39</time>
      </trkpt>
      <trkpt lat="38.67216" lon="-0.10803">
        <ele>230</ele>
        <time>2021-01-31 16:43:40</time>
      </trkpt>
      <trkpt lat="38.67207" lon="-0.10795">
        <ele>229.8</ele>
        <time>2021-01-31 16:43:41</time>
      </trkpt>
      <trkpt lat="38.67198" lon="-0.10787">
        <ele>229.8</ele>
        <time>2021-01-31 16:43:42</time>
      </trkpt>
      <trkpt lat="38.67189" lon="-0.10779">
        <ele>229.8</ele>
        <time>2021-01-31 16:43:43</time>
      </trkpt>
      <trkpt lat="38.67179" lon="-0.10771">
        <ele>229.8</ele>
        <time>2021-01-31 16:43:44</time>
      </trkpt>
      <trkpt lat="38.6717" lon="-0.10764">
        <ele>229.4</ele>
        <time>2021-01-31 16:43:45</time>
      </trkpt>
      <trkpt lat="38.6716" lon="-0.10756">
        <ele>228.8</ele>
        <time>2021-01-31 16:43:46</time>
      </trkpt>
      <trkpt lat="38.67151" lon="-0.10748">
        <ele>228.8</ele>
        <time>2021-01-31 16:43:47</time>
      </trkpt>
      <trkpt lat="38.67142" lon="-0.10741">
        <ele>228.8</ele>
        <time>2021-01-31 16:43:48</time>
      </trkpt>
      <trkpt lat="38.67134" lon="-0.10733">
        <ele>229.6</ele>
        <time>2021-01-31 16:43:49</time>
      </trkpt>
      <trkpt lat="38.67125" lon="-0.10726">
        <ele>229.8</ele>
        <time>2021-01-31 16:43:50</time>
      </trkpt>
      <trkpt lat="38.67117" lon="-0.1072">
        <ele>229.8</ele>
        <time>2021-01-31 16:43:51</time>
      </trkpt>
      <trkpt lat="38.67109" lon="-0.10713">
        <ele>229.8</ele>
        <time>2021-01-31 16:43:52</time>
      </trkpt>
      <trkpt lat="38.67101" lon="-0.10706">
        <ele>229.8</ele>
        <time>2021-01-31 16:43:53</time>
      </trkpt>
      <trkpt lat="38.67093" lon="-0.10699">
        <ele>230.8</ele>
        <time>2021-01-31 16:43:54</time>
      </trkpt>
      <trkpt lat="38.67086" lon="-0.10692">
        <ele>230.8</ele>
        <time>2021-01-31 16:43:55</time>
      </trkpt>
      <trkpt lat="38.67078" lon="-0.10686">
        <ele>230.8</ele>
        <time>2021-01-31 16:43:56</time>
      </trkpt>
      <trkpt lat="38.6707" lon="-0.1068">
        <ele>230.8</ele>
        <time>2021-01-31 16:43:57</time>
      </trkpt>
      <trkpt lat="38.67062" lon="-0.10674">
        <ele>230.8</ele>
        <time>2021-01-31 16:43:58</time>
      </trkpt>
      <trkpt lat="38.67055" lon="-0.10669">
        <ele>231</ele>
        <time>2021-01-31 16:43:59</time>
      </trkpt>
      <trkpt lat="38.67047" lon="-0.10665">
        <ele>231</ele>
        <time>2021-01-31 16:44:00</time>
      </trkpt>
      <trkpt lat="38.67039" lon="-0.10662">
        <ele>231</ele>
        <time>2021-01-31 16:44:01</time>
      </trkpt>
      <trkpt lat="38.67031" lon="-0.10659">
        <ele>231</ele>
        <time>2021-01-31 16:44:02</time>
      </trkpt>
      <trkpt lat="38.67024" lon="-0.10656">
        <ele>231</ele>
        <time>2021-01-31 16:44:03</time>
      </trkpt>
      <trkpt lat="38.67016" lon="-0.10654">
        <ele>231</ele>
        <time>2021-01-31 16:44:04</time>
      </trkpt>
      <trkpt lat="38.67008" lon="-0.10651">
        <ele>231</ele>
        <time>2021-01-31 16:44:05</time>
      </trkpt>
      <trkpt lat="38.67" lon="-0.10648">
        <ele>230.6</ele>
        <time>2021-01-31 16:44:06</time>
      </trkpt>
      <trkpt lat="38.66991" lon="-0.10645">
        <ele>229.8</ele>
        <time>2021-01-31 16:44:07</time>
      </trkpt>
      <trkpt lat="38.66982" lon="-0.10642">
        <ele>229.8</ele>
        <time>2021-01-31 16:44:08</time>
      </trkpt>
      <trkpt lat="38.66974" lon="-0.10639">
        <ele>229.8</ele>
        <time>2021-01-31 16:44:09</time>
      </trkpt>
      <trkpt lat="38.66965" lon="-0.10636">
        <ele>229.8</ele>
        <time>2021-01-31 16:44:10</time>
      </trkpt>
      <trkpt lat="38.66956" lon="-0.10634">
        <ele>228.8</ele>
        <time>2021-01-31 16:44:11</time>
      </trkpt>
      <trkpt lat="38.66947" lon="-0.10631">
        <ele>227.8</ele>
        <time>2021-01-31 16:44:12</time>
      </trkpt>
      <trkpt lat="38.66938" lon="-0.10628">
        <ele>227.6</ele>
        <time>2021-01-31 16:44:13</time>
      </trkpt>
      <trkpt lat="38.66929" lon="-0.10625">
        <ele>227.6</ele>
        <time>2021-01-31 16:44:14</time>
      </trkpt>
      <trkpt lat="38.6692" lon="-0.10622">
        <ele>227.6</ele>
        <time>2021-01-31 16:44:15</time>
      </trkpt>
      <trkpt lat="38.66911" lon="-0.1062">
        <ele>227.6</ele>
        <time>2021-01-31 16:44:16</time>
      </trkpt>
      <trkpt lat="38.66902" lon="-0.10617">
        <ele>226.6</ele>
        <time>2021-01-31 16:44:17</time>
      </trkpt>
      <trkpt lat="38.66893" lon="-0.10614">
        <ele>226.6</ele>
        <time>2021-01-31 16:44:18</time>
      </trkpt>
      <trkpt lat="38.66884" lon="-0.1061">
        <ele>226.6</ele>
        <time>2021-01-31 16:44:19</time>
      </trkpt>
      <trkpt lat="38.66875" lon="-0.10604">
        <ele>226.6</ele>
        <time>2021-01-31 16:44:20</time>
      </trkpt>
      <trkpt lat="38.66869" lon="-0.10596">
        <ele>227.4</ele>
        <time>2021-01-31 16:44:21</time>
      </trkpt>
      <trkpt lat="38.66865" lon="-0.10585">
        <ele>227.4</ele>
        <time>2021-01-31 16:44:22</time>
      </trkpt>
      <trkpt lat="38.66862" lon="-0.10572">
        <ele>227.4</ele>
        <time>2021-01-31 16:44:23</time>
      </trkpt>
      <trkpt lat="38.66863" lon="-0.10559">
        <ele>226.4</ele>
        <time>2021-01-31 16:44:24</time>
      </trkpt>
      <trkpt lat="38.66865" lon="-0.10548">
        <ele>226</ele>
        <time>2021-01-31 16:44:25</time>
      </trkpt>
      <trkpt lat="38.66865" lon="-0.10548">
        <ele>226</ele>
        <time>2021-01-31 16:44:26</time>
      </trkpt>
      <trkpt lat="38.66866" lon="-0.10526">
        <ele>226</ele>
        <time>2021-01-31 16:44:27</time>
      </trkpt>
      <trkpt lat="38.66863" lon="-0.10516">
        <ele>227</ele>
        <time>2021-01-31 16:44:28</time>
      </trkpt>
      <trkpt lat="38.66859" lon="-0.10508">
        <ele>228</ele>
        <time>2021-01-31 16:44:29</time>
      </trkpt>
      <trkpt lat="38.66854" lon="-0.10505">
        <ele>229</ele>
        <time>2021-01-31 16:44:30</time>
      </trkpt>
      <trkpt lat="38.66848" lon="-0.10501">
        <ele>230</ele>
        <time>2021-01-31 16:44:31</time>
      </trkpt>
      <trkpt lat="38.66843" lon="-0.10498">
        <ele>230.4</ele>
        <time>2021-01-31 16:44:32</time>
      </trkpt>
      <trkpt lat="38.66837" lon="-0.10494">
        <ele>230.6</ele>
        <time>2021-01-31 16:44:33</time>
      </trkpt>
      <trkpt lat="38.66832" lon="-0.10491">
        <ele>231.2</ele>
        <time>2021-01-31 16:44:34</time>
      </trkpt>
      <trkpt lat="38.66826" lon="-0.1049">
        <ele>232</ele>
        <time>2021-01-31 16:44:35</time>
      </trkpt>
      <trkpt lat="38.66821" lon="-0.10488">
        <ele>232.4</ele>
        <time>2021-01-31 16:44:36</time>
      </trkpt>
      <trkpt lat="38.66815" lon="-0.10487">
        <ele>233</ele>
        <time>2021-01-31 16:44:37</time>
      </trkpt>
      <trkpt lat="38.66809" lon="-0.10486">
        <ele>233.4</ele>
        <time>2021-01-31 16:44:38</time>
      </trkpt>
      <trkpt lat="38.66803" lon="-0.10486">
        <ele>234</ele>
        <time>2021-01-31 16:44:39</time>
      </trkpt>
      <trkpt lat="38.66798" lon="-0.10486">
        <ele>234</ele>
        <time>2021-01-31 16:44:40</time>
      </trkpt>
      <trkpt lat="38.66793" lon="-0.10488">
        <ele>234</ele>
        <time>2021-01-31 16:44:41</time>
      </trkpt>
      <trkpt lat="38.66789" lon="-0.10489">
        <ele>234</ele>
        <time>2021-01-31 16:44:42</time>
      </trkpt>
      <trkpt lat="38.66784" lon="-0.10491">
        <ele>234</ele>
        <time>2021-01-31 16:44:43</time>
      </trkpt>
      <trkpt lat="38.6678" lon="-0.10493">
        <ele>234</ele>
        <time>2021-01-31 16:44:44</time>
      </trkpt>
      <trkpt lat="38.66775" lon="-0.10495">
        <ele>235</ele>
        <time>2021-01-31 16:44:45</time>
      </trkpt>
      <trkpt lat="38.6677" lon="-0.10496">
        <ele>236</ele>
        <time>2021-01-31 16:44:46</time>
      </trkpt>
      <trkpt lat="38.66765" lon="-0.10497">
        <ele>236</ele>
        <time>2021-01-31 16:44:47</time>
      </trkpt>
      <trkpt lat="38.6676" lon="-0.10499">
        <ele>236</ele>
        <time>2021-01-31 16:44:48</time>
      </trkpt>
      <trkpt lat="38.66754" lon="-0.10501">
        <ele>236</ele>
        <time>2021-01-31 16:44:49</time>
      </trkpt>
      <trkpt lat="38.66749" lon="-0.10503">
        <ele>237</ele>
        <time>2021-01-31 16:44:50</time>
      </trkpt>
      <trkpt lat="38.66744" lon="-0.10506">
        <ele>237</ele>
        <time>2021-01-31 16:44:51</time>
      </trkpt>
      <trkpt lat="38.66739" lon="-0.10508">
        <ele>237</ele>
        <time>2021-01-31 16:44:52</time>
      </trkpt>
      <trkpt lat="38.66734" lon="-0.1051">
        <ele>237</ele>
        <time>2021-01-31 16:44:53</time>
      </trkpt>
      <trkpt lat="38.66729" lon="-0.10512">
        <ele>237</ele>
        <time>2021-01-31 16:44:54</time>
      </trkpt>
      <trkpt lat="38.66725" lon="-0.10514">
        <ele>237.8</ele>
        <time>2021-01-31 16:44:55</time>
      </trkpt>
      <trkpt lat="38.66721" lon="-0.10516">
        <ele>237.8</ele>
        <time>2021-01-31 16:44:56</time>
      </trkpt>
      <trkpt lat="38.66717" lon="-0.10518">
        <ele>237.8</ele>
        <time>2021-01-31 16:44:57</time>
      </trkpt>
      <trkpt lat="38.66712" lon="-0.1052">
        <ele>237.8</ele>
        <time>2021-01-31 16:44:58</time>
      </trkpt>
      <trkpt lat="38.66708" lon="-0.10521">
        <ele>237.8</ele>
        <time>2021-01-31 16:44:59</time>
      </trkpt>
      <trkpt lat="38.66704" lon="-0.10523">
        <ele>238.2</ele>
        <time>2021-01-31 16:45:00</time>
      </trkpt>
      <trkpt lat="38.667" lon="-0.10525">
        <ele>238.2</ele>
        <time>2021-01-31 16:45:01</time>
      </trkpt>
      <trkpt lat="38.66696" lon="-0.10528">
        <ele>238.2</ele>
        <time>2021-01-31 16:45:02</time>
      </trkpt>
      <trkpt lat="38.66692" lon="-0.10531">
        <ele>237.4</ele>
        <time>2021-01-31 16:45:03</time>
      </trkpt>
      <trkpt lat="38.66687" lon="-0.10535">
        <ele>237.2</ele>
        <time>2021-01-31 16:45:04</time>
      </trkpt>
      <trkpt lat="38.66684" lon="-0.10541">
        <ele>236.4</ele>
        <time>2021-01-31 16:45:05</time>
      </trkpt>
      <trkpt lat="38.66681" lon="-0.10548">
        <ele>236</ele>
        <time>2021-01-31 16:45:06</time>
      </trkpt>
      <trkpt lat="38.66678" lon="-0.10556">
        <ele>236</ele>
        <time>2021-01-31 16:45:07</time>
      </trkpt>
      <trkpt lat="38.66676" lon="-0.10565">
        <ele>236</ele>
        <time>2021-01-31 16:45:08</time>
      </trkpt>
      <trkpt lat="38.66674" lon="-0.10574">
        <ele>236.2</ele>
        <time>2021-01-31 16:45:09</time>
      </trkpt>
      <trkpt lat="38.66669" lon="-0.10582">
        <ele>236.2</ele>
        <time>2021-01-31 16:45:10</time>
      </trkpt>
      <trkpt lat="38.66663" lon="-0.10589">
        <ele>236.2</ele>
        <time>2021-01-31 16:45:11</time>
      </trkpt>
      <trkpt lat="38.66654" lon="-0.10592">
        <ele>235.2</ele>
        <time>2021-01-31 16:45:12</time>
      </trkpt>
      <trkpt lat="38.66645" lon="-0.10592">
        <ele>234.2</ele>
        <time>2021-01-31 16:45:13</time>
      </trkpt>
      <trkpt lat="38.66636" lon="-0.10589">
        <ele>233.2</ele>
        <time>2021-01-31 16:45:14</time>
      </trkpt>
      <trkpt lat="38.66627" lon="-0.10586">
        <ele>232.2</ele>
        <time>2021-01-31 16:45:15</time>
      </trkpt>
      <trkpt lat="38.66617" lon="-0.10584">
        <ele>231.2</ele>
        <time>2021-01-31 16:45:16</time>
      </trkpt>
      <trkpt lat="38.66607" lon="-0.10584">
        <ele>230.2</ele>
        <time>2021-01-31 16:45:17</time>
      </trkpt>
      <trkpt lat="38.66597" lon="-0.10586">
        <ele>229.2</ele>
        <time>2021-01-31 16:45:18</time>
      </trkpt>
      <trkpt lat="38.66587" lon="-0.1059">
        <ele>228.6</ele>
        <time>2021-01-31 16:45:19</time>
      </trkpt>
      <trkpt lat="38.66576" lon="-0.10594">
        <ele>228.2</ele>
        <time>2021-01-31 16:45:20</time>
      </trkpt>
      <trkpt lat="38.66565" lon="-0.10596">
        <ele>227.2</ele>
        <time>2021-01-31 16:45:21</time>
      </trkpt>
      <trkpt lat="38.66554" lon="-0.10593">
        <ele>226.2</ele>
        <time>2021-01-31 16:45:22</time>
      </trkpt>
      <trkpt lat="38.66543" lon="-0.10588">
        <ele>225.2</ele>
        <time>2021-01-31 16:45:23</time>
      </trkpt>
      <trkpt lat="38.66532" lon="-0.10582">
        <ele>224.2</ele>
        <time>2021-01-31 16:45:24</time>
      </trkpt>
      <trkpt lat="38.6652" lon="-0.10578">
        <ele>223.2</ele>
        <time>2021-01-31 16:45:25</time>
      </trkpt>
      <trkpt lat="38.66509" lon="-0.10576">
        <ele>222.2</ele>
        <time>2021-01-31 16:45:26</time>
      </trkpt>
      <trkpt lat="38.66499" lon="-0.10575">
        <ele>221.4</ele>
        <time>2021-01-31 16:45:27</time>
      </trkpt>
      <trkpt lat="38.66489" lon="-0.10575">
        <ele>220.4</ele>
        <time>2021-01-31 16:45:28</time>
      </trkpt>
      <trkpt lat="38.66481" lon="-0.10578">
        <ele>219.8</ele>
        <time>2021-01-31 16:45:29</time>
      </trkpt>
      <trkpt lat="38.66473" lon="-0.10586">
        <ele>218.8</ele>
        <time>2021-01-31 16:45:30</time>
      </trkpt>
      <trkpt lat="38.66466" lon="-0.10594">
        <ele>217.8</ele>
        <time>2021-01-31 16:45:31</time>
      </trkpt>
      <trkpt lat="38.6646" lon="-0.10605">
        <ele>217.8</ele>
        <time>2021-01-31 16:45:32</time>
      </trkpt>
      <trkpt lat="38.66455" lon="-0.10617">
        <ele>217.8</ele>
        <time>2021-01-31 16:45:33</time>
      </trkpt>
      <trkpt lat="38.66451" lon="-0.10629">
        <ele>217.8</ele>
        <time>2021-01-31 16:45:34</time>
      </trkpt>
      <trkpt lat="38.66447" lon="-0.10641">
        <ele>216.8</ele>
        <time>2021-01-31 16:45:35</time>
      </trkpt>
      <trkpt lat="38.66443" lon="-0.10654">
        <ele>215.8</ele>
        <time>2021-01-31 16:45:36</time>
      </trkpt>
      <trkpt lat="38.66438" lon="-0.10667">
        <ele>214.8</ele>
        <time>2021-01-31 16:45:37</time>
      </trkpt>
      <trkpt lat="38.66431" lon="-0.10678">
        <ele>214.6</ele>
        <time>2021-01-31 16:45:38</time>
      </trkpt>
      <trkpt lat="38.66423" lon="-0.10688">
        <ele>214.2</ele>
        <time>2021-01-31 16:45:39</time>
      </trkpt>
      <trkpt lat="38.66414" lon="-0.10697">
        <ele>213.6</ele>
        <time>2021-01-31 16:45:40</time>
      </trkpt>
      <trkpt lat="38.66405" lon="-0.10703">
        <ele>212.8</ele>
        <time>2021-01-31 16:45:41</time>
      </trkpt>
      <trkpt lat="38.66395" lon="-0.10705">
        <ele>212</ele>
        <time>2021-01-31 16:45:42</time>
      </trkpt>
      <trkpt lat="38.66385" lon="-0.10704">
        <ele>212</ele>
        <time>2021-01-31 16:45:43</time>
      </trkpt>
      <trkpt lat="38.66376" lon="-0.107">
        <ele>212</ele>
        <time>2021-01-31 16:45:44</time>
      </trkpt>
      <trkpt lat="38.66368" lon="-0.10693">
        <ele>212.8</ele>
        <time>2021-01-31 16:45:45</time>
      </trkpt>
      <trkpt lat="38.66362" lon="-0.10686">
        <ele>213.8</ele>
        <time>2021-01-31 16:45:46</time>
      </trkpt>
      <trkpt lat="38.6636" lon="-0.10676">
        <ele>214.8</ele>
        <time>2021-01-31 16:45:47</time>
      </trkpt>
      <trkpt lat="38.66359" lon="-0.10667">
        <ele>215.2</ele>
        <time>2021-01-31 16:45:48</time>
      </trkpt>
      <trkpt lat="38.66358" lon="-0.10656">
        <ele>215.8</ele>
        <time>2021-01-31 16:45:49</time>
      </trkpt>
      <trkpt lat="38.66357" lon="-0.10648">
        <ele>216.6</ele>
        <time>2021-01-31 16:45:50</time>
      </trkpt>
      <trkpt lat="38.66358" lon="-0.10637">
        <ele>216.6</ele>
        <time>2021-01-31 16:45:51</time>
      </trkpt>
      <trkpt lat="38.66358" lon="-0.10625">
        <ele>216.6</ele>
        <time>2021-01-31 16:45:52</time>
      </trkpt>
      <trkpt lat="38.66356" lon="-0.10614">
        <ele>216.6</ele>
        <time>2021-01-31 16:45:53</time>
      </trkpt>
      <trkpt lat="38.66354" lon="-0.10603">
        <ele>217.6</ele>
        <time>2021-01-31 16:45:54</time>
      </trkpt>
      <trkpt lat="38.66352" lon="-0.10592">
        <ele>218.6</ele>
        <time>2021-01-31 16:45:55</time>
      </trkpt>
      <trkpt lat="38.66348" lon="-0.10583">
        <ele>219.6</ele>
        <time>2021-01-31 16:45:56</time>
      </trkpt>
      <trkpt lat="38.66344" lon="-0.10575">
        <ele>220.4</ele>
        <time>2021-01-31 16:45:57</time>
      </trkpt>
      <trkpt lat="38.6634" lon="-0.10567">
        <ele>220.8</ele>
        <time>2021-01-31 16:45:58</time>
      </trkpt>
      <trkpt lat="38.66335" lon="-0.10561">
        <ele>220.8</ele>
        <time>2021-01-31 16:45:59</time>
      </trkpt>
      <trkpt lat="38.6633" lon="-0.10555">
        <ele>221.4</ele>
        <time>2021-01-31 16:46:00</time>
      </trkpt>
      <trkpt lat="38.66325" lon="-0.10549">
        <ele>221.8</ele>
        <time>2021-01-31 16:46:01</time>
      </trkpt>
      <trkpt lat="38.6632" lon="-0.10543">
        <ele>222.6</ele>
        <time>2021-01-31 16:46:02</time>
      </trkpt>
      <trkpt lat="38.66316" lon="-0.10537">
        <ele>223</ele>
        <time>2021-01-31 16:46:03</time>
      </trkpt>
      <trkpt lat="38.66312" lon="-0.10531">
        <ele>223.4</ele>
        <time>2021-01-31 16:46:04</time>
      </trkpt>
      <trkpt lat="38.66308" lon="-0.10526">
        <ele>224.4</ele>
        <time>2021-01-31 16:46:05</time>
      </trkpt>
      <trkpt lat="38.66304" lon="-0.1052">
        <ele>224.8</ele>
        <time>2021-01-31 16:46:06</time>
      </trkpt>
      <trkpt lat="38.663" lon="-0.10515">
        <ele>224.8</ele>
        <time>2021-01-31 16:46:07</time>
      </trkpt>
      <trkpt lat="38.66297" lon="-0.10509">
        <ele>224.8</ele>
        <time>2021-01-31 16:46:08</time>
      </trkpt>
      <trkpt lat="38.66293" lon="-0.10502">
        <ele>224.8</ele>
        <time>2021-01-31 16:46:09</time>
      </trkpt>
      <trkpt lat="38.6629" lon="-0.10496">
        <ele>225.2</ele>
        <time>2021-01-31 16:46:10</time>
      </trkpt>
      <trkpt lat="38.66288" lon="-0.10491">
        <ele>225.8</ele>
        <time>2021-01-31 16:46:11</time>
      </trkpt>
      <trkpt lat="38.66285" lon="-0.10487">
        <ele>226.2</ele>
        <time>2021-01-31 16:46:12</time>
      </trkpt>
      <trkpt lat="38.66282" lon="-0.10482">
        <ele>226.8</ele>
        <time>2021-01-31 16:46:13</time>
      </trkpt>
      <trkpt lat="38.66278" lon="-0.10477">
        <ele>227.4</ele>
        <time>2021-01-31 16:46:14</time>
      </trkpt>
      <trkpt lat="38.66275" lon="-0.10472">
        <ele>227.6</ele>
        <time>2021-01-31 16:46:15</time>
      </trkpt>
      <trkpt lat="38.66272" lon="-0.10469">
        <ele>227.6</ele>
        <time>2021-01-31 16:46:16</time>
      </trkpt>
      <trkpt lat="38.66268" lon="-0.10466">
        <ele>227.8</ele>
        <time>2021-01-31 16:46:17</time>
      </trkpt>
      <trkpt lat="38.66265" lon="-0.10464">
        <ele>227.8</ele>
        <time>2021-01-31 16:46:18</time>
      </trkpt>
      <trkpt lat="38.66262" lon="-0.10463">
        <ele>227.8</ele>
        <time>2021-01-31 16:46:19</time>
      </trkpt>
      <trkpt lat="38.66258" lon="-0.10461">
        <ele>227.8</ele>
        <time>2021-01-31 16:46:20</time>
      </trkpt>
      <trkpt lat="38.66254" lon="-0.10461">
        <ele>227.8</ele>
        <time>2021-01-31 16:46:21</time>
      </trkpt>
      <trkpt lat="38.66251" lon="-0.1046">
        <ele>228.2</ele>
        <time>2021-01-31 16:46:22</time>
      </trkpt>
      <trkpt lat="38.66247" lon="-0.1046">
        <ele>228.8</ele>
        <time>2021-01-31 16:46:23</time>
      </trkpt>
      <trkpt lat="38.66244" lon="-0.10461">
        <ele>229.4</ele>
        <time>2021-01-31 16:46:24</time>
      </trkpt>
      <trkpt lat="38.6624" lon="-0.10461">
        <ele>229.8</ele>
        <time>2021-01-31 16:46:25</time>
      </trkpt>
      <trkpt lat="38.66237" lon="-0.10463">
        <ele>229.8</ele>
        <time>2021-01-31 16:46:26</time>
      </trkpt>
      <trkpt lat="38.66233" lon="-0.10464">
        <ele>230.2</ele>
        <time>2021-01-31 16:46:27</time>
      </trkpt>
      <trkpt lat="38.6623" lon="-0.10465">
        <ele>230.2</ele>
        <time>2021-01-31 16:46:28</time>
      </trkpt>
      <trkpt lat="38.66227" lon="-0.10465">
        <ele>230.6</ele>
        <time>2021-01-31 16:46:29</time>
      </trkpt>
      <trkpt lat="38.66224" lon="-0.10467">
        <ele>230.8</ele>
        <time>2021-01-31 16:46:30</time>
      </trkpt>
      <trkpt lat="38.66221" lon="-0.10469">
        <ele>231.4</ele>
        <time>2021-01-31 16:46:31</time>
      </trkpt>
      <trkpt lat="38.66217" lon="-0.1047">
        <ele>231.4</ele>
        <time>2021-01-31 16:46:32</time>
      </trkpt>
      <trkpt lat="38.66214" lon="-0.1047">
        <ele>231.4</ele>
        <time>2021-01-31 16:46:33</time>
      </trkpt>
      <trkpt lat="38.6621" lon="-0.1047">
        <ele>231.4</ele>
        <time>2021-01-31 16:46:34</time>
      </trkpt>
      <trkpt lat="38.66207" lon="-0.1047">
        <ele>231.8</ele>
        <time>2021-01-31 16:46:35</time>
      </trkpt>
      <trkpt lat="38.66203" lon="-0.10471">
        <ele>231.8</ele>
        <time>2021-01-31 16:46:36</time>
      </trkpt>
      <trkpt lat="38.66199" lon="-0.10471">
        <ele>231.8</ele>
        <time>2021-01-31 16:46:37</time>
      </trkpt>
      <trkpt lat="38.66195" lon="-0.10472">
        <ele>231.8</ele>
        <time>2021-01-31 16:46:38</time>
      </trkpt>
      <trkpt lat="38.66191" lon="-0.10473">
        <ele>231.6</ele>
        <time>2021-01-31 16:46:39</time>
      </trkpt>
      <trkpt lat="38.66187" lon="-0.10476">
        <ele>231.6</ele>
        <time>2021-01-31 16:46:40</time>
      </trkpt>
      <trkpt lat="38.66184" lon="-0.1048">
        <ele>231.6</ele>
        <time>2021-01-31 16:46:41</time>
      </trkpt>
      <trkpt lat="38.66181" lon="-0.10483">
        <ele>231.6</ele>
        <time>2021-01-31 16:46:42</time>
      </trkpt>
      <trkpt lat="38.66179" lon="-0.10486">
        <ele>232.6</ele>
        <time>2021-01-31 16:46:43</time>
      </trkpt>
      <trkpt lat="38.66176" lon="-0.10489">
        <ele>233.2</ele>
        <time>2021-01-31 16:46:44</time>
      </trkpt>
      <trkpt lat="38.66174" lon="-0.10493">
        <ele>233.2</ele>
        <time>2021-01-31 16:46:45</time>
      </trkpt>
      <trkpt lat="38.66172" lon="-0.10496">
        <ele>233.6</ele>
        <time>2021-01-31 16:46:46</time>
      </trkpt>
      <trkpt lat="38.6617" lon="-0.105">
        <ele>233.8</ele>
        <time>2021-01-31 16:46:47</time>
      </trkpt>
      <trkpt lat="38.66167" lon="-0.10503">
        <ele>234</ele>
        <time>2021-01-31 16:46:48</time>
      </trkpt>
      <trkpt lat="38.66165" lon="-0.10506">
        <ele>234.6</ele>
        <time>2021-01-31 16:46:49</time>
      </trkpt>
      <trkpt lat="38.66163" lon="-0.10509">
        <ele>235.2</ele>
        <time>2021-01-31 16:46:50</time>
      </trkpt>
      <trkpt lat="38.6616" lon="-0.10512">
        <ele>235.4</ele>
        <time>2021-01-31 16:46:51</time>
      </trkpt>
      <trkpt lat="38.66158" lon="-0.10515">
        <ele>235.6</ele>
        <time>2021-01-31 16:46:52</time>
      </trkpt>
      <trkpt lat="38.66156" lon="-0.10519">
        <ele>236.2</ele>
        <time>2021-01-31 16:46:53</time>
      </trkpt>
      <trkpt lat="38.66153" lon="-0.10522">
        <ele>236.2</ele>
        <time>2021-01-31 16:46:54</time>
      </trkpt>
      <trkpt lat="38.66151" lon="-0.10525">
        <ele>236.2</ele>
        <time>2021-01-31 16:46:55</time>
      </trkpt>
      <trkpt lat="38.66149" lon="-0.10528">
        <ele>236.2</ele>
        <time>2021-01-31 16:46:56</time>
      </trkpt>
      <trkpt lat="38.66147" lon="-0.10532">
        <ele>236.8</ele>
        <time>2021-01-31 16:46:57</time>
      </trkpt>
      <trkpt lat="38.66145" lon="-0.10535">
        <ele>236.8</ele>
        <time>2021-01-31 16:46:58</time>
      </trkpt>
      <trkpt lat="38.66143" lon="-0.10538">
        <ele>237.2</ele>
        <time>2021-01-31 16:46:59</time>
      </trkpt>
      <trkpt lat="38.66141" lon="-0.10541">
        <ele>237.8</ele>
        <time>2021-01-31 16:47:00</time>
      </trkpt>
      <trkpt lat="38.66139" lon="-0.10542">
        <ele>238.4</ele>
        <time>2021-01-31 16:47:01</time>
      </trkpt>
      <trkpt lat="38.66137" lon="-0.10544">
        <ele>238.8</ele>
        <time>2021-01-31 16:47:02</time>
      </trkpt>
      <trkpt lat="38.66134" lon="-0.10545">
        <ele>238.8</ele>
        <time>2021-01-31 16:47:03</time>
      </trkpt>
      <trkpt lat="38.66131" lon="-0.10545">
        <ele>238.8</ele>
        <time>2021-01-31 16:47:04</time>
      </trkpt>
      <trkpt lat="38.66128" lon="-0.10547">
        <ele>238.2</ele>
        <time>2021-01-31 16:47:05</time>
      </trkpt>
      <trkpt lat="38.66124" lon="-0.10546">
        <ele>237.2</ele>
        <time>2021-01-31 16:47:06</time>
      </trkpt>
      <trkpt lat="38.66121" lon="-0.10543">
        <ele>237.2</ele>
        <time>2021-01-31 16:47:07</time>
      </trkpt>
      <trkpt lat="38.66118" lon="-0.1054">
        <ele>237.2</ele>
        <time>2021-01-31 16:47:08</time>
      </trkpt>
      <trkpt lat="38.66116" lon="-0.10536">
        <ele>238.2</ele>
        <time>2021-01-31 16:47:09</time>
      </trkpt>
      <trkpt lat="38.66114" lon="-0.10532">
        <ele>238.6</ele>
        <time>2021-01-31 16:47:10</time>
      </trkpt>
      <trkpt lat="38.66113" lon="-0.10527">
        <ele>238.6</ele>
        <time>2021-01-31 16:47:11</time>
      </trkpt>
      <trkpt lat="38.66111" lon="-0.10523">
        <ele>238.6</ele>
        <time>2021-01-31 16:47:12</time>
      </trkpt>
      <trkpt lat="38.6611" lon="-0.10518">
        <ele>238.6</ele>
        <time>2021-01-31 16:47:13</time>
      </trkpt>
      <trkpt lat="38.66108" lon="-0.10513">
        <ele>238.6</ele>
        <time>2021-01-31 16:47:14</time>
      </trkpt>
      <trkpt lat="38.66107" lon="-0.10508">
        <ele>237.6</ele>
        <time>2021-01-31 16:47:15</time>
      </trkpt>
      <trkpt lat="38.66105" lon="-0.10503">
        <ele>237.4</ele>
        <time>2021-01-31 16:47:16</time>
      </trkpt>
      <trkpt lat="38.66103" lon="-0.10499">
        <ele>237.4</ele>
        <time>2021-01-31 16:47:17</time>
      </trkpt>
      <trkpt lat="38.66101" lon="-0.10494">
        <ele>237.4</ele>
        <time>2021-01-31 16:47:18</time>
      </trkpt>
      <trkpt lat="38.66099" lon="-0.1049">
        <ele>238.2</ele>
        <time>2021-01-31 16:47:19</time>
      </trkpt>
      <trkpt lat="38.66097" lon="-0.10486">
        <ele>238.8</ele>
        <time>2021-01-31 16:47:20</time>
      </trkpt>
      <trkpt lat="38.66095" lon="-0.10482">
        <ele>238.8</ele>
        <time>2021-01-31 16:47:21</time>
      </trkpt>
      <trkpt lat="38.66093" lon="-0.10478">
        <ele>238.8</ele>
        <time>2021-01-31 16:47:22</time>
      </trkpt>
      <trkpt lat="38.66091" lon="-0.10475">
        <ele>238.8</ele>
        <time>2021-01-31 16:47:23</time>
      </trkpt>
      <trkpt lat="38.66089" lon="-0.1047">
        <ele>238.8</ele>
        <time>2021-01-31 16:47:24</time>
      </trkpt>
      <trkpt lat="38.66088" lon="-0.10465">
        <ele>238.8</ele>
        <time>2021-01-31 16:47:25</time>
      </trkpt>
      <trkpt lat="38.66086" lon="-0.10461">
        <ele>238.8</ele>
        <time>2021-01-31 16:47:26</time>
      </trkpt>
      <trkpt lat="38.66084" lon="-0.10457">
        <ele>238.8</ele>
        <time>2021-01-31 16:47:27</time>
      </trkpt>
      <trkpt lat="38.66082" lon="-0.10453">
        <ele>239.8</ele>
        <time>2021-01-31 16:47:28</time>
      </trkpt>
      <trkpt lat="38.6608" lon="-0.10449">
        <ele>239.8</ele>
        <time>2021-01-31 16:47:29</time>
      </trkpt>
      <trkpt lat="38.66078" lon="-0.10444">
        <ele>239.8</ele>
        <time>2021-01-31 16:47:30</time>
      </trkpt>
      <trkpt lat="38.66076" lon="-0.1044">
        <ele>239.8</ele>
        <time>2021-01-31 16:47:31</time>
      </trkpt>
      <trkpt lat="38.66073" lon="-0.10437">
        <ele>239.4</ele>
        <time>2021-01-31 16:47:32</time>
      </trkpt>
      <trkpt lat="38.6607" lon="-0.10436">
        <ele>239.4</ele>
        <time>2021-01-31 16:47:33</time>
      </trkpt>
      <trkpt lat="38.66066" lon="-0.10434">
        <ele>239.4</ele>
        <time>2021-01-31 16:47:34</time>
      </trkpt>
      <trkpt lat="38.66062" lon="-0.10432">
        <ele>240.4</ele>
        <time>2021-01-31 16:47:35</time>
      </trkpt>
      <trkpt lat="38.66057" lon="-0.10433">
        <ele>241.4</ele>
        <time>2021-01-31 16:47:36</time>
      </trkpt>
      <trkpt lat="38.66052" lon="-0.10434">
        <ele>242.4</ele>
        <time>2021-01-31 16:47:37</time>
      </trkpt>
      <trkpt lat="38.66048" lon="-0.10436">
        <ele>243.4</ele>
        <time>2021-01-31 16:47:38</time>
      </trkpt>
      <trkpt lat="38.66043" lon="-0.10439">
        <ele>243.4</ele>
        <time>2021-01-31 16:47:39</time>
      </trkpt>
      <trkpt lat="38.66038" lon="-0.10443">
        <ele>243.4</ele>
        <time>2021-01-31 16:47:40</time>
      </trkpt>
      <trkpt lat="38.66032" lon="-0.10447">
        <ele>242.4</ele>
        <time>2021-01-31 16:47:41</time>
      </trkpt>
      <trkpt lat="38.66026" lon="-0.1045">
        <ele>241.4</ele>
        <time>2021-01-31 16:47:42</time>
      </trkpt>
      <trkpt lat="38.6602" lon="-0.10454">
        <ele>240.4</ele>
        <time>2021-01-31 16:47:43</time>
      </trkpt>
      <trkpt lat="38.66014" lon="-0.10457">
        <ele>239.4</ele>
        <time>2021-01-31 16:47:44</time>
      </trkpt>
      <trkpt lat="38.66007" lon="-0.1046">
        <ele>238.4</ele>
        <time>2021-01-31 16:47:45</time>
      </trkpt>
      <trkpt lat="38.65999" lon="-0.10461">
        <ele>237.4</ele>
        <time>2021-01-31 16:47:46</time>
      </trkpt>
      <trkpt lat="38.65991" lon="-0.10463">
        <ele>236.4</ele>
        <time>2021-01-31 16:47:47</time>
      </trkpt>
      <trkpt lat="38.65983" lon="-0.10465">
        <ele>235.4</ele>
        <time>2021-01-31 16:47:48</time>
      </trkpt>
      <trkpt lat="38.65976" lon="-0.10466">
        <ele>234.4</ele>
        <time>2021-01-31 16:47:49</time>
      </trkpt>
      <trkpt lat="38.65967" lon="-0.10467">
        <ele>233.6</ele>
        <time>2021-01-31 16:47:50</time>
      </trkpt>
      <trkpt lat="38.65959" lon="-0.10469">
        <ele>233.6</ele>
        <time>2021-01-31 16:47:51</time>
      </trkpt>
      <trkpt lat="38.6595" lon="-0.10473">
        <ele>233.6</ele>
        <time>2021-01-31 16:47:52</time>
      </trkpt>
      <trkpt lat="38.65941" lon="-0.10477">
        <ele>233.6</ele>
        <time>2021-01-31 16:47:53</time>
      </trkpt>
      <trkpt lat="38.65932" lon="-0.10483">
        <ele>232.6</ele>
        <time>2021-01-31 16:47:54</time>
      </trkpt>
      <trkpt lat="38.65924" lon="-0.1049">
        <ele>231.6</ele>
        <time>2021-01-31 16:47:55</time>
      </trkpt>
      <trkpt lat="38.65916" lon="-0.10498">
        <ele>230.6</ele>
        <time>2021-01-31 16:47:56</time>
      </trkpt>
      <trkpt lat="38.65908" lon="-0.10505">
        <ele>229.6</ele>
        <time>2021-01-31 16:47:57</time>
      </trkpt>
      <trkpt lat="38.65899" lon="-0.10511">
        <ele>229.6</ele>
        <time>2021-01-31 16:47:58</time>
      </trkpt>
      <trkpt lat="38.65889" lon="-0.10515">
        <ele>229.6</ele>
        <time>2021-01-31 16:47:59</time>
      </trkpt>
      <trkpt lat="38.65878" lon="-0.10516">
        <ele>229.6</ele>
        <time>2021-01-31 16:48:00</time>
      </trkpt>
      <trkpt lat="38.65868" lon="-0.10516">
        <ele>229.6</ele>
        <time>2021-01-31 16:48:01</time>
      </trkpt>
      <trkpt lat="38.65857" lon="-0.10515">
        <ele>228.6</ele>
        <time>2021-01-31 16:48:02</time>
      </trkpt>
      <trkpt lat="38.65846" lon="-0.10517">
        <ele>227.6</ele>
        <time>2021-01-31 16:48:03</time>
      </trkpt>
      <trkpt lat="38.65835" lon="-0.10519">
        <ele>226.6</ele>
        <time>2021-01-31 16:48:04</time>
      </trkpt>
      <trkpt lat="38.65824" lon="-0.10524">
        <ele>226</ele>
        <time>2021-01-31 16:48:05</time>
      </trkpt>
      <trkpt lat="38.65814" lon="-0.10528">
        <ele>225</ele>
        <time>2021-01-31 16:48:06</time>
      </trkpt>
      <trkpt lat="38.65804" lon="-0.1053">
        <ele>225</ele>
        <time>2021-01-31 16:48:07</time>
      </trkpt>
      <trkpt lat="38.65793" lon="-0.10528">
        <ele>225</ele>
        <time>2021-01-31 16:48:08</time>
      </trkpt>
      <trkpt lat="38.65784" lon="-0.10523">
        <ele>225</ele>
        <time>2021-01-31 16:48:09</time>
      </trkpt>
      <trkpt lat="38.65775" lon="-0.10516">
        <ele>224</ele>
        <time>2021-01-31 16:48:10</time>
      </trkpt>
      <trkpt lat="38.65766" lon="-0.10508">
        <ele>223</ele>
        <time>2021-01-31 16:48:11</time>
      </trkpt>
      <trkpt lat="38.65757" lon="-0.10502">
        <ele>222</ele>
        <time>2021-01-31 16:48:12</time>
      </trkpt>
      <trkpt lat="38.65746" lon="-0.10499">
        <ele>221</ele>
        <time>2021-01-31 16:48:13</time>
      </trkpt>
      <trkpt lat="38.65736" lon="-0.10499">
        <ele>220.2</ele>
        <time>2021-01-31 16:48:14</time>
      </trkpt>
      <trkpt lat="38.65725" lon="-0.10499">
        <ele>219.6</ele>
        <time>2021-01-31 16:48:15</time>
      </trkpt>
      <trkpt lat="38.65714" lon="-0.10499">
        <ele>218.6</ele>
        <time>2021-01-31 16:48:16</time>
      </trkpt>
      <trkpt lat="38.65704" lon="-0.10499">
        <ele>218.6</ele>
        <time>2021-01-31 16:48:17</time>
      </trkpt>
      <trkpt lat="38.65694" lon="-0.10502">
        <ele>218.6</ele>
        <time>2021-01-31 16:48:18</time>
      </trkpt>
      <trkpt lat="38.65686" lon="-0.10508">
        <ele>218.6</ele>
        <time>2021-01-31 16:48:19</time>
      </trkpt>
      <trkpt lat="38.65678" lon="-0.10517">
        <ele>217.6</ele>
        <time>2021-01-31 16:48:20</time>
      </trkpt>
      <trkpt lat="38.65673" lon="-0.10527">
        <ele>217.6</ele>
        <time>2021-01-31 16:48:21</time>
      </trkpt>
      <trkpt lat="38.65669" lon="-0.10539">
        <ele>217.6</ele>
        <time>2021-01-31 16:48:22</time>
      </trkpt>
      <trkpt lat="38.65666" lon="-0.10551">
        <ele>217.6</ele>
        <time>2021-01-31 16:48:23</time>
      </trkpt>
      <trkpt lat="38.65664" lon="-0.10563">
        <ele>216.6</ele>
        <time>2021-01-31 16:48:24</time>
      </trkpt>
      <trkpt lat="38.65661" lon="-0.10574">
        <ele>216.2</ele>
        <time>2021-01-31 16:48:25</time>
      </trkpt>
      <trkpt lat="38.65658" lon="-0.10586">
        <ele>215.2</ele>
        <time>2021-01-31 16:48:26</time>
      </trkpt>
      <trkpt lat="38.65655" lon="-0.10598">
        <ele>215.2</ele>
        <time>2021-01-31 16:48:27</time>
      </trkpt>
      <trkpt lat="38.65652" lon="-0.10609">
        <ele>215.2</ele>
        <time>2021-01-31 16:48:28</time>
      </trkpt>
      <trkpt lat="38.65649" lon="-0.10622">
        <ele>215.2</ele>
        <time>2021-01-31 16:48:29</time>
      </trkpt>
      <trkpt lat="38.65647" lon="-0.10634">
        <ele>215.2</ele>
        <time>2021-01-31 16:48:30</time>
      </trkpt>
      <trkpt lat="38.65644" lon="-0.10645">
        <ele>214.2</ele>
        <time>2021-01-31 16:48:31</time>
      </trkpt>
      <trkpt lat="38.65641" lon="-0.10657">
        <ele>214.2</ele>
        <time>2021-01-31 16:48:32</time>
      </trkpt>
      <trkpt lat="38.65636" lon="-0.10667">
        <ele>214.2</ele>
        <time>2021-01-31 16:48:33</time>
      </trkpt>
      <trkpt lat="38.6563" lon="-0.10677">
        <ele>215</ele>
        <time>2021-01-31 16:48:34</time>
      </trkpt>
      <trkpt lat="38.65623" lon="-0.10684">
        <ele>216</ele>
        <time>2021-01-31 16:48:35</time>
      </trkpt>
      <trkpt lat="38.65614" lon="-0.10689">
        <ele>216.8</ele>
        <time>2021-01-31 16:48:36</time>
      </trkpt>
      <trkpt lat="38.65606" lon="-0.1069">
        <ele>217.8</ele>
        <time>2021-01-31 16:48:37</time>
      </trkpt>
      <trkpt lat="38.65598" lon="-0.10689">
        <ele>218.4</ele>
        <time>2021-01-31 16:48:38</time>
      </trkpt>
      <trkpt lat="38.6559" lon="-0.10688">
        <ele>219.2</ele>
        <time>2021-01-31 16:48:39</time>
      </trkpt>
      <trkpt lat="38.65583" lon="-0.10687">
        <ele>219.6</ele>
        <time>2021-01-31 16:48:40</time>
      </trkpt>
      <trkpt lat="38.65576" lon="-0.10686">
        <ele>219.6</ele>
        <time>2021-01-31 16:48:41</time>
      </trkpt>
      <trkpt lat="38.65569" lon="-0.10685">
        <ele>219.6</ele>
        <time>2021-01-31 16:48:42</time>
      </trkpt>
      <trkpt lat="38.65562" lon="-0.10684">
        <ele>219.2</ele>
        <time>2021-01-31 16:48:43</time>
      </trkpt>
      <trkpt lat="38.65556" lon="-0.10682">
        <ele>219.2</ele>
        <time>2021-01-31 16:48:44</time>
      </trkpt>
      <trkpt lat="38.6555" lon="-0.10682">
        <ele>219.2</ele>
        <time>2021-01-31 16:48:45</time>
      </trkpt>
      <trkpt lat="38.65544" lon="-0.10682">
        <ele>220.2</ele>
        <time>2021-01-31 16:48:46</time>
      </trkpt>
      <trkpt lat="38.65538" lon="-0.10683">
        <ele>221.2</ele>
        <time>2021-01-31 16:48:47</time>
      </trkpt>
      <trkpt lat="38.65532" lon="-0.10683">
        <ele>222.2</ele>
        <time>2021-01-31 16:48:48</time>
      </trkpt>
      <trkpt lat="38.65527" lon="-0.10685">
        <ele>222.2</ele>
        <time>2021-01-31 16:48:49</time>
      </trkpt>
      <trkpt lat="38.65521" lon="-0.10686">
        <ele>222.2</ele>
        <time>2021-01-31 16:48:50</time>
      </trkpt>
      <trkpt lat="38.65515" lon="-0.10687">
        <ele>222.2</ele>
        <time>2021-01-31 16:48:51</time>
      </trkpt>
      <trkpt lat="38.65509" lon="-0.10688">
        <ele>221.8</ele>
        <time>2021-01-31 16:48:52</time>
      </trkpt>
      <trkpt lat="38.65504" lon="-0.10689">
        <ele>221.8</ele>
        <time>2021-01-31 16:48:53</time>
      </trkpt>
      <trkpt lat="38.65498" lon="-0.10691">
        <ele>221.8</ele>
        <time>2021-01-31 16:48:54</time>
      </trkpt>
      <trkpt lat="38.65493" lon="-0.10692">
        <ele>222.6</ele>
        <time>2021-01-31 16:48:55</time>
      </trkpt>
      <trkpt lat="38.65488" lon="-0.10694">
        <ele>222.6</ele>
        <time>2021-01-31 16:48:56</time>
      </trkpt>
      <trkpt lat="38.65482" lon="-0.10695">
        <ele>222.6</ele>
        <time>2021-01-31 16:48:57</time>
      </trkpt>
      <trkpt lat="38.65477" lon="-0.10696">
        <ele>222.6</ele>
        <time>2021-01-31 16:48:58</time>
      </trkpt>
      <trkpt lat="38.65471" lon="-0.10697">
        <ele>222.6</ele>
        <time>2021-01-31 16:48:59</time>
      </trkpt>
      <trkpt lat="38.65466" lon="-0.10697">
        <ele>223.2</ele>
        <time>2021-01-31 16:49:00</time>
      </trkpt>
      <trkpt lat="38.65461" lon="-0.10699">
        <ele>223.2</ele>
        <time>2021-01-31 16:49:01</time>
      </trkpt>
      <trkpt lat="38.65456" lon="-0.107">
        <ele>223.2</ele>
        <time>2021-01-31 16:49:02</time>
      </trkpt>
      <trkpt lat="38.6545" lon="-0.10701">
        <ele>223.2</ele>
        <time>2021-01-31 16:49:03</time>
      </trkpt>
      <trkpt lat="38.65445" lon="-0.10703">
        <ele>223.2</ele>
        <time>2021-01-31 16:49:04</time>
      </trkpt>
      <trkpt lat="38.6544" lon="-0.10704">
        <ele>223.2</ele>
        <time>2021-01-31 16:49:05</time>
      </trkpt>
      <trkpt lat="38.65436" lon="-0.10705">
        <ele>223.6</ele>
        <time>2021-01-31 16:49:06</time>
      </trkpt>
      <trkpt lat="38.65431" lon="-0.10707">
        <ele>223.6</ele>
        <time>2021-01-31 16:49:07</time>
      </trkpt>
      <trkpt lat="38.65431" lon="-0.10707">
        <ele>223.6</ele>
        <time>2021-01-31 16:49:08</time>
      </trkpt>
      <trkpt lat="38.65421" lon="-0.10709">
        <ele>223.6</ele>
        <time>2021-01-31 16:49:09</time>
      </trkpt>
      <trkpt lat="38.65416" lon="-0.1071">
        <ele>224</ele>
        <time>2021-01-31 16:49:10</time>
      </trkpt>
      <trkpt lat="38.6541" lon="-0.10711">
        <ele>224</ele>
        <time>2021-01-31 16:49:11</time>
      </trkpt>
      <trkpt lat="38.65405" lon="-0.10713">
        <ele>224</ele>
        <time>2021-01-31 16:49:12</time>
      </trkpt>
      <trkpt lat="38.654" lon="-0.10715">
        <ele>223.2</ele>
        <time>2021-01-31 16:49:13</time>
      </trkpt>
      <trkpt lat="38.65394" lon="-0.10718">
        <ele>222.8</ele>
        <time>2021-01-31 16:49:14</time>
      </trkpt>
      <trkpt lat="38.65389" lon="-0.10721">
        <ele>221.8</ele>
        <time>2021-01-31 16:49:15</time>
      </trkpt>
      <trkpt lat="38.65389" lon="-0.10721">
        <ele>221.8</ele>
        <time>2021-01-31 16:49:16</time>
      </trkpt>
      <trkpt lat="38.65379" lon="-0.10729">
        <ele>221.8</ele>
        <time>2021-01-31 16:49:17</time>
      </trkpt>
      <trkpt lat="38.65374" lon="-0.10735">
        <ele>221.8</ele>
        <time>2021-01-31 16:49:18</time>
      </trkpt>
      <trkpt lat="38.6537" lon="-0.1074">
        <ele>221.6</ele>
        <time>2021-01-31 16:49:19</time>
      </trkpt>
      <trkpt lat="38.65366" lon="-0.10747">
        <ele>221.6</ele>
        <time>2021-01-31 16:49:20</time>
      </trkpt>
      <trkpt lat="38.65362" lon="-0.10754">
        <ele>220.8</ele>
        <time>2021-01-31 16:49:21</time>
      </trkpt>
      <trkpt lat="38.65362" lon="-0.10754">
        <ele>220.8</ele>
        <time>2021-01-31 16:49:22</time>
      </trkpt>
      <trkpt lat="38.65358" lon="-0.1077">
        <ele>220.8</ele>
        <time>2021-01-31 16:49:23</time>
      </trkpt>
      <trkpt lat="38.65356" lon="-0.10777">
        <ele>220.8</ele>
        <time>2021-01-31 16:49:24</time>
      </trkpt>
      <trkpt lat="38.65354" lon="-0.10785">
        <ele>220.8</ele>
        <time>2021-01-31 16:49:25</time>
      </trkpt>
      <trkpt lat="38.65353" lon="-0.10794">
        <ele>219.8</ele>
        <time>2021-01-31 16:49:26</time>
      </trkpt>
      <trkpt lat="38.65351" lon="-0.10802">
        <ele>219.2</ele>
        <time>2021-01-31 16:49:27</time>
      </trkpt>
      <trkpt lat="38.65349" lon="-0.10812">
        <ele>218.2</ele>
        <time>2021-01-31 16:49:28</time>
      </trkpt>
      <trkpt lat="38.65348" lon="-0.10821">
        <ele>217.2</ele>
        <time>2021-01-31 16:49:29</time>
      </trkpt>
      <trkpt lat="38.65346" lon="-0.10831">
        <ele>216.2</ele>
        <time>2021-01-31 16:49:30</time>
      </trkpt>
      <trkpt lat="38.65345" lon="-0.10841">
        <ele>215.8</ele>
        <time>2021-01-31 16:49:31</time>
      </trkpt>
      <trkpt lat="38.65343" lon="-0.10851">
        <ele>214.8</ele>
        <time>2021-01-31 16:49:32</time>
      </trkpt>
      <trkpt lat="38.65341" lon="-0.10862">
        <ele>214.2</ele>
        <time>2021-01-31 16:49:33</time>
      </trkpt>
      <trkpt lat="38.6534" lon="-0.10873">
        <ele>213.2</ele>
        <time>2021-01-31 16:49:34</time>
      </trkpt>
      <trkpt lat="38.65338" lon="-0.10884">
        <ele>212.2</ele>
        <time>2021-01-31 16:49:35</time>
      </trkpt>
      <trkpt lat="38.65336" lon="-0.10895">
        <ele>211.4</ele>
        <time>2021-01-31 16:49:36</time>
      </trkpt>
      <trkpt lat="38.65334" lon="-0.10907">
        <ele>210.8</ele>
        <time>2021-01-31 16:49:37</time>
      </trkpt>
      <trkpt lat="38.65332" lon="-0.10918">
        <ele>210.8</ele>
        <time>2021-01-31 16:49:38</time>
      </trkpt>
      <trkpt lat="38.6533" lon="-0.1093">
        <ele>210.8</ele>
        <time>2021-01-31 16:49:39</time>
      </trkpt>
      <trkpt lat="38.65328" lon="-0.10942">
        <ele>210.8</ele>
        <time>2021-01-31 16:49:40</time>
      </trkpt>
      <trkpt lat="38.65326" lon="-0.10953">
        <ele>210.8</ele>
        <time>2021-01-31 16:49:41</time>
      </trkpt>
      <trkpt lat="38.65326" lon="-0.10953">
        <ele>210.8</ele>
        <time>2021-01-31 16:49:42</time>
      </trkpt>
      <trkpt lat="38.65323" lon="-0.10975">
        <ele>211</ele>
        <time>2021-01-31 16:49:43</time>
      </trkpt>
      <trkpt lat="38.65323" lon="-0.10986">
        <ele>211</ele>
        <time>2021-01-31 16:49:44</time>
      </trkpt>
      <trkpt lat="38.65325" lon="-0.10996">
        <ele>211</ele>
        <time>2021-01-31 16:49:45</time>
      </trkpt>
      <trkpt lat="38.65327" lon="-0.11006">
        <ele>211</ele>
        <time>2021-01-31 16:49:46</time>
      </trkpt>
      <trkpt lat="38.65332" lon="-0.11014">
        <ele>211</ele>
        <time>2021-01-31 16:49:47</time>
      </trkpt>
      <trkpt lat="38.65337" lon="-0.1102">
        <ele>211</ele>
        <time>2021-01-31 16:49:48</time>
      </trkpt>
      <trkpt lat="38.65344" lon="-0.11026">
        <ele>211</ele>
        <time>2021-01-31 16:49:49</time>
      </trkpt>
      <trkpt lat="38.65351" lon="-0.11032">
        <ele>211</ele>
        <time>2021-01-31 16:49:50</time>
      </trkpt>
      <trkpt lat="38.65358" lon="-0.11038">
        <ele>210</ele>
        <time>2021-01-31 16:49:51</time>
      </trkpt>
      <trkpt lat="38.65364" lon="-0.11044">
        <ele>209</ele>
        <time>2021-01-31 16:49:52</time>
      </trkpt>
      <trkpt lat="38.65371" lon="-0.11051">
        <ele>208</ele>
        <time>2021-01-31 16:49:53</time>
      </trkpt>
      <trkpt lat="38.65378" lon="-0.11057">
        <ele>207</ele>
        <time>2021-01-31 16:49:54</time>
      </trkpt>
      <trkpt lat="38.65385" lon="-0.11063">
        <ele>206</ele>
        <time>2021-01-31 16:49:55</time>
      </trkpt>
      <trkpt lat="38.65391" lon="-0.11068">
        <ele>205</ele>
        <time>2021-01-31 16:49:56</time>
      </trkpt>
      <trkpt lat="38.65398" lon="-0.11074">
        <ele>204.8</ele>
        <time>2021-01-31 16:49:57</time>
      </trkpt>
      <trkpt lat="38.65405" lon="-0.1108">
        <ele>204.8</ele>
        <time>2021-01-31 16:49:58</time>
      </trkpt>
      <trkpt lat="38.65411" lon="-0.11086">
        <ele>204.8</ele>
        <time>2021-01-31 16:49:59</time>
      </trkpt>
      <trkpt lat="38.65418" lon="-0.11092">
        <ele>205.8</ele>
        <time>2021-01-31 16:50:00</time>
      </trkpt>
      <trkpt lat="38.65425" lon="-0.11098">
        <ele>206.8</ele>
        <time>2021-01-31 16:50:01</time>
      </trkpt>
      <trkpt lat="38.65432" lon="-0.11104">
        <ele>207.8</ele>
        <time>2021-01-31 16:50:02</time>
      </trkpt>
      <trkpt lat="38.65439" lon="-0.11111">
        <ele>208</ele>
        <time>2021-01-31 16:50:03</time>
      </trkpt>
      <trkpt lat="38.65444" lon="-0.11119">
        <ele>208</ele>
        <time>2021-01-31 16:50:04</time>
      </trkpt>
      <trkpt lat="38.65446" lon="-0.11129">
        <ele>208</ele>
        <time>2021-01-31 16:50:05</time>
      </trkpt>
      <trkpt lat="38.65445" lon="-0.11139">
        <ele>208</ele>
        <time>2021-01-31 16:50:06</time>
      </trkpt>
      <trkpt lat="38.65445" lon="-0.11139">
        <ele>208</ele>
        <time>2021-01-31 16:50:07</time>
      </trkpt>
      <trkpt lat="38.65445" lon="-0.11139">
        <ele>208</ele>
        <time>2021-01-31 16:50:08</time>
      </trkpt>
      <trkpt lat="38.65445" lon="-0.11139">
        <ele>208</ele>
        <time>2021-01-31 16:50:09</time>
      </trkpt>
      <trkpt lat="38.65445" lon="-0.11139">
        <ele>206.4</ele>
        <time>2021-01-31 16:50:10</time>
      </trkpt>
      <trkpt lat="38.65418" lon="-0.11176">
        <ele>206.4</ele>
        <time>2021-01-31 16:50:11</time>
      </trkpt>
      <trkpt lat="38.65411" lon="-0.11177">
        <ele>207.4</ele>
        <time>2021-01-31 16:50:12</time>
      </trkpt>
      <trkpt lat="38.65403" lon="-0.11177">
        <ele>208.4</ele>
        <time>2021-01-31 16:50:13</time>
      </trkpt>
      <trkpt lat="38.65396" lon="-0.11175">
        <ele>209.2</ele>
        <time>2021-01-31 16:50:14</time>
      </trkpt>
      <trkpt lat="38.65389" lon="-0.11173">
        <ele>209.4</ele>
        <time>2021-01-31 16:50:15</time>
      </trkpt>
      <trkpt lat="38.65382" lon="-0.11171">
        <ele>209.4</ele>
        <time>2021-01-31 16:50:16</time>
      </trkpt>
      <trkpt lat="38.65375" lon="-0.11169">
        <ele>209.4</ele>
        <time>2021-01-31 16:50:17</time>
      </trkpt>
      <trkpt lat="38.65368" lon="-0.11168">
        <ele>209.4</ele>
        <time>2021-01-31 16:50:18</time>
      </trkpt>
      <trkpt lat="38.65361" lon="-0.11166">
        <ele>210</ele>
        <time>2021-01-31 16:50:19</time>
      </trkpt>
      <trkpt lat="38.65354" lon="-0.11164">
        <ele>210</ele>
        <time>2021-01-31 16:50:20</time>
      </trkpt>
      <trkpt lat="38.65348" lon="-0.11162">
        <ele>210</ele>
        <time>2021-01-31 16:50:21</time>
      </trkpt>
      <trkpt lat="38.65341" lon="-0.1116">
        <ele>210</ele>
        <time>2021-01-31 16:50:22</time>
      </trkpt>
      <trkpt lat="38.65335" lon="-0.11158">
        <ele>210</ele>
        <time>2021-01-31 16:50:23</time>
      </trkpt>
      <trkpt lat="38.65329" lon="-0.11156">
        <ele>210</ele>
        <time>2021-01-31 16:50:24</time>
      </trkpt>
      <trkpt lat="38.65329" lon="-0.11156">
        <ele>210</ele>
        <time>2021-01-31 16:50:25</time>
      </trkpt>
      <trkpt lat="38.65329" lon="-0.11156">
        <ele>210</ele>
        <time>2021-01-31 16:50:26</time>
      </trkpt>
      <trkpt lat="38.65329" lon="-0.11156">
        <ele>211.6</ele>
        <time>2021-01-31 16:50:27</time>
      </trkpt>
      <trkpt lat="38.65305" lon="-0.11149">
        <ele>211.6</ele>
        <time>2021-01-31 16:50:28</time>
      </trkpt>
      <trkpt lat="38.65299" lon="-0.11147">
        <ele>212.6</ele>
        <time>2021-01-31 16:50:29</time>
      </trkpt>
      <trkpt lat="38.65294" lon="-0.11146">
        <ele>212.6</ele>
        <time>2021-01-31 16:50:30</time>
      </trkpt>
      <trkpt lat="38.65288" lon="-0.11146">
        <ele>212.6</ele>
        <time>2021-01-31 16:50:31</time>
      </trkpt>
      <trkpt lat="38.65282" lon="-0.11147">
        <ele>211.6</ele>
        <time>2021-01-31 16:50:32</time>
      </trkpt>
      <trkpt lat="38.65277" lon="-0.1115">
        <ele>211.6</ele>
        <time>2021-01-31 16:50:33</time>
      </trkpt>
      <trkpt lat="38.65273" lon="-0.11153">
        <ele>211.6</ele>
        <time>2021-01-31 16:50:34</time>
      </trkpt>
      <trkpt lat="38.65269" lon="-0.11157">
        <ele>211.6</ele>
        <time>2021-01-31 16:50:35</time>
      </trkpt>
      <trkpt lat="38.65266" lon="-0.11162">
        <ele>212.6</ele>
        <time>2021-01-31 16:50:36</time>
      </trkpt>
      <trkpt lat="38.65263" lon="-0.11166">
        <ele>212.6</ele>
        <time>2021-01-31 16:50:37</time>
      </trkpt>
      <trkpt lat="38.65261" lon="-0.11171">
        <ele>212.6</ele>
        <time>2021-01-31 16:50:38</time>
      </trkpt>
      <trkpt lat="38.65259" lon="-0.11175">
        <ele>212.6</ele>
        <time>2021-01-31 16:50:39</time>
      </trkpt>
      <trkpt lat="38.65257" lon="-0.11179">
        <ele>213.2</ele>
        <time>2021-01-31 16:50:40</time>
      </trkpt>
      <trkpt lat="38.65255" lon="-0.11184">
        <ele>213.2</ele>
        <time>2021-01-31 16:50:41</time>
      </trkpt>
      <trkpt lat="38.65253" lon="-0.11188">
        <ele>213.2</ele>
        <time>2021-01-31 16:50:42</time>
      </trkpt>
      <trkpt lat="38.65252" lon="-0.11192">
        <ele>213.2</ele>
        <time>2021-01-31 16:50:43</time>
      </trkpt>
      <trkpt lat="38.6525" lon="-0.11196">
        <ele>214.2</ele>
        <time>2021-01-31 16:50:44</time>
      </trkpt>
      <trkpt lat="38.65248" lon="-0.11201">
        <ele>215.2</ele>
        <time>2021-01-31 16:50:45</time>
      </trkpt>
      <trkpt lat="38.65247" lon="-0.11206">
        <ele>215.6</ele>
        <time>2021-01-31 16:50:46</time>
      </trkpt>
      <trkpt lat="38.65246" lon="-0.1121">
        <ele>216.2</ele>
        <time>2021-01-31 16:50:47</time>
      </trkpt>
      <trkpt lat="38.65246" lon="-0.11215">
        <ele>216.2</ele>
        <time>2021-01-31 16:50:48</time>
      </trkpt>
      <trkpt lat="38.65246" lon="-0.11219">
        <ele>216.2</ele>
        <time>2021-01-31 16:50:49</time>
      </trkpt>
      <trkpt lat="38.65246" lon="-0.11224">
        <ele>215.2</ele>
        <time>2021-01-31 16:50:50</time>
      </trkpt>
      <trkpt lat="38.65247" lon="-0.11228">
        <ele>215.2</ele>
        <time>2021-01-31 16:50:51</time>
      </trkpt>
      <trkpt lat="38.65247" lon="-0.11232">
        <ele>215.2</ele>
        <time>2021-01-31 16:50:52</time>
      </trkpt>
      <trkpt lat="38.65248" lon="-0.11235">
        <ele>216.2</ele>
        <time>2021-01-31 16:50:53</time>
      </trkpt>
      <trkpt lat="38.65249" lon="-0.11238">
        <ele>217.2</ele>
        <time>2021-01-31 16:50:54</time>
      </trkpt>
      <trkpt lat="38.6525" lon="-0.11241">
        <ele>218.2</ele>
        <time>2021-01-31 16:50:55</time>
      </trkpt>
      <trkpt lat="38.65251" lon="-0.11245">
        <ele>218.2</ele>
        <time>2021-01-31 16:50:56</time>
      </trkpt>
      <trkpt lat="38.65251" lon="-0.11247">
        <ele>218.2</ele>
        <time>2021-01-31 16:50:57</time>
      </trkpt>
      <trkpt lat="38.65252" lon="-0.1125">
        <ele>218.2</ele>
        <time>2021-01-31 16:50:58</time>
      </trkpt>
      <trkpt lat="38.65252" lon="-0.11252">
        <ele>219.2</ele>
        <time>2021-01-31 16:50:59</time>
      </trkpt>
      <trkpt lat="38.65253" lon="-0.11256">
        <ele>219.2</ele>
        <time>2021-01-31 16:51:00</time>
      </trkpt>
      <trkpt lat="38.65254" lon="-0.11259">
        <ele>219.2</ele>
        <time>2021-01-31 16:51:01</time>
      </trkpt>
      <trkpt lat="38.65255" lon="-0.11263">
        <ele>219.2</ele>
        <time>2021-01-31 16:51:02</time>
      </trkpt>
      <trkpt lat="38.65255" lon="-0.11263">
        <ele>219.2</ele>
        <time>2021-01-31 16:51:03</time>
      </trkpt>
      <trkpt lat="38.65255" lon="-0.11263">
        <ele>219.2</ele>
        <time>2021-01-31 16:51:04</time>
      </trkpt>
      <trkpt lat="38.65255" lon="-0.11263">
        <ele>219.2</ele>
        <time>2021-01-31 16:51:05</time>
      </trkpt>
      <trkpt lat="38.65258" lon="-0.11279">
        <ele>220</ele>
        <time>2021-01-31 16:51:06</time>
      </trkpt>
      <trkpt lat="38.65259" lon="-0.11283">
        <ele>220</ele>
        <time>2021-01-31 16:51:07</time>
      </trkpt>
      <trkpt lat="38.6526" lon="-0.11287">
        <ele>220</ele>
        <time>2021-01-31 16:51:08</time>
      </trkpt>
      <trkpt lat="38.6526" lon="-0.11292">
        <ele>219.8</ele>
        <time>2021-01-31 16:51:09</time>
      </trkpt>
      <trkpt lat="38.65261" lon="-0.11296">
        <ele>219.8</ele>
        <time>2021-01-31 16:51:10</time>
      </trkpt>
      <trkpt lat="38.65261" lon="-0.113">
        <ele>219.6</ele>
        <time>2021-01-31 16:51:11</time>
      </trkpt>
      <trkpt lat="38.65261" lon="-0.11304">
        <ele>219.6</ele>
        <time>2021-01-31 16:51:12</time>
      </trkpt>
      <trkpt lat="38.6526" lon="-0.11308">
        <ele>219.6</ele>
        <time>2021-01-31 16:51:13</time>
      </trkpt>
      <trkpt lat="38.6526" lon="-0.11313">
        <ele>219.8</ele>
        <time>2021-01-31 16:51:14</time>
      </trkpt>
      <trkpt lat="38.65259" lon="-0.11317">
        <ele>220.2</ele>
        <time>2021-01-31 16:51:15</time>
      </trkpt>
      <trkpt lat="38.65258" lon="-0.11321">
        <ele>220.8</ele>
        <time>2021-01-31 16:51:16</time>
      </trkpt>
      <trkpt lat="38.65256" lon="-0.11325">
        <ele>220.8</ele>
        <time>2021-01-31 16:51:17</time>
      </trkpt>
      <trkpt lat="38.65254" lon="-0.11329">
        <ele>220.8</ele>
        <time>2021-01-31 16:51:18</time>
      </trkpt>
      <trkpt lat="38.65252" lon="-0.11332">
        <ele>220.6</ele>
        <time>2021-01-31 16:51:19</time>
      </trkpt>
      <trkpt lat="38.6525" lon="-0.11336">
        <ele>220.6</ele>
        <time>2021-01-31 16:51:20</time>
      </trkpt>
      <trkpt lat="38.65248" lon="-0.11339">
        <ele>220.6</ele>
        <time>2021-01-31 16:51:21</time>
      </trkpt>
      <trkpt lat="38.65246" lon="-0.11342">
        <ele>221.2</ele>
        <time>2021-01-31 16:51:22</time>
      </trkpt>
      <trkpt lat="38.65243" lon="-0.11345">
        <ele>221.2</ele>
        <time>2021-01-31 16:51:23</time>
      </trkpt>
      <trkpt lat="38.65241" lon="-0.11348">
        <ele>221.2</ele>
        <time>2021-01-31 16:51:24</time>
      </trkpt>
      <trkpt lat="38.65238" lon="-0.11351">
        <ele>221.2</ele>
        <time>2021-01-31 16:51:25</time>
      </trkpt>
      <trkpt lat="38.65236" lon="-0.11354">
        <ele>222</ele>
        <time>2021-01-31 16:51:26</time>
      </trkpt>
      <trkpt lat="38.65233" lon="-0.11357">
        <ele>222.6</ele>
        <time>2021-01-31 16:51:27</time>
      </trkpt>
      <trkpt lat="38.65231" lon="-0.1136">
        <ele>222.6</ele>
        <time>2021-01-31 16:51:28</time>
      </trkpt>
      <trkpt lat="38.65229" lon="-0.11363">
        <ele>222.6</ele>
        <time>2021-01-31 16:51:29</time>
      </trkpt>
      <trkpt lat="38.65226" lon="-0.11365">
        <ele>222.6</ele>
        <time>2021-01-31 16:51:30</time>
      </trkpt>
      <trkpt lat="38.65223" lon="-0.11368">
        <ele>222.6</ele>
        <time>2021-01-31 16:51:31</time>
      </trkpt>
      <trkpt lat="38.65221" lon="-0.11371">
        <ele>222.6</ele>
        <time>2021-01-31 16:51:32</time>
      </trkpt>
      <trkpt lat="38.65219" lon="-0.11374">
        <ele>222.6</ele>
        <time>2021-01-31 16:51:33</time>
      </trkpt>
      <trkpt lat="38.65216" lon="-0.11376">
        <ele>222.6</ele>
        <time>2021-01-31 16:51:34</time>
      </trkpt>
      <trkpt lat="38.65214" lon="-0.11379">
        <ele>223.4</ele>
        <time>2021-01-31 16:51:35</time>
      </trkpt>
      <trkpt lat="38.65212" lon="-0.11382">
        <ele>223.8</ele>
        <time>2021-01-31 16:51:36</time>
      </trkpt>
      <trkpt lat="38.6521" lon="-0.11385">
        <ele>223.8</ele>
        <time>2021-01-31 16:51:37</time>
      </trkpt>
      <trkpt lat="38.65208" lon="-0.11388">
        <ele>223.8</ele>
        <time>2021-01-31 16:51:38</time>
      </trkpt>
      <trkpt lat="38.65206" lon="-0.1139">
        <ele>223.8</ele>
        <time>2021-01-31 16:51:39</time>
      </trkpt>
      <trkpt lat="38.65204" lon="-0.11392">
        <ele>224.8</ele>
        <time>2021-01-31 16:51:40</time>
      </trkpt>
      <trkpt lat="38.65202" lon="-0.11395">
        <ele>224.8</ele>
        <time>2021-01-31 16:51:41</time>
      </trkpt>
      <trkpt lat="38.65199" lon="-0.11398">
        <ele>225.2</ele>
        <time>2021-01-31 16:51:42</time>
      </trkpt>
      <trkpt lat="38.65197" lon="-0.11401">
        <ele>225.6</ele>
        <time>2021-01-31 16:51:43</time>
      </trkpt>
      <trkpt lat="38.65195" lon="-0.11403">
        <ele>225.8</ele>
        <time>2021-01-31 16:51:44</time>
      </trkpt>
      <trkpt lat="38.65193" lon="-0.11406">
        <ele>225.8</ele>
        <time>2021-01-31 16:51:45</time>
      </trkpt>
      <trkpt lat="38.65191" lon="-0.11409">
        <ele>225.8</ele>
        <time>2021-01-31 16:51:46</time>
      </trkpt>
      <trkpt lat="38.65189" lon="-0.11411">
        <ele>225.8</ele>
        <time>2021-01-31 16:51:47</time>
      </trkpt>
      <trkpt lat="38.65187" lon="-0.11414">
        <ele>225.8</ele>
        <time>2021-01-31 16:51:48</time>
      </trkpt>
      <trkpt lat="38.65185" lon="-0.11417">
        <ele>226.4</ele>
        <time>2021-01-31 16:51:49</time>
      </trkpt>
      <trkpt lat="38.65183" lon="-0.11419">
        <ele>227</ele>
        <time>2021-01-31 16:51:50</time>
      </trkpt>
      <trkpt lat="38.6518" lon="-0.11422">
        <ele>227.2</ele>
        <time>2021-01-31 16:51:51</time>
      </trkpt>
      <trkpt lat="38.65178" lon="-0.11425">
        <ele>228</ele>
        <time>2021-01-31 16:51:52</time>
      </trkpt>
      <trkpt lat="38.65176" lon="-0.11428">
        <ele>228</ele>
        <time>2021-01-31 16:51:53</time>
      </trkpt>
      <trkpt lat="38.65174" lon="-0.1143">
        <ele>228</ele>
        <time>2021-01-31 16:51:54</time>
      </trkpt>
      <trkpt lat="38.65172" lon="-0.11432">
        <ele>227</ele>
        <time>2021-01-31 16:51:55</time>
      </trkpt>
      <trkpt lat="38.6517" lon="-0.11434">
        <ele>227</ele>
        <time>2021-01-31 16:51:56</time>
      </trkpt>
      <trkpt lat="38.65168" lon="-0.11437">
        <ele>227</ele>
        <time>2021-01-31 16:51:57</time>
      </trkpt>
      <trkpt lat="38.65165" lon="-0.11439">
        <ele>227.2</ele>
        <time>2021-01-31 16:51:58</time>
      </trkpt>
      <trkpt lat="38.65163" lon="-0.11442">
        <ele>227.2</ele>
        <time>2021-01-31 16:51:59</time>
      </trkpt>
      <trkpt lat="38.65161" lon="-0.11444">
        <ele>227.2</ele>
        <time>2021-01-31 16:52:00</time>
      </trkpt>
      <trkpt lat="38.65159" lon="-0.11447">
        <ele>227.2</ele>
        <time>2021-01-31 16:52:01</time>
      </trkpt>
      <trkpt lat="38.65157" lon="-0.11449">
        <ele>227.2</ele>
        <time>2021-01-31 16:52:02</time>
      </trkpt>
      <trkpt lat="38.65155" lon="-0.11452">
        <ele>227.6</ele>
        <time>2021-01-31 16:52:03</time>
      </trkpt>
      <trkpt lat="38.65152" lon="-0.11455">
        <ele>227.6</ele>
        <time>2021-01-31 16:52:04</time>
      </trkpt>
      <trkpt lat="38.6515" lon="-0.11457">
        <ele>227.6</ele>
        <time>2021-01-31 16:52:05</time>
      </trkpt>
      <trkpt lat="38.65148" lon="-0.11459">
        <ele>227.6</ele>
        <time>2021-01-31 16:52:06</time>
      </trkpt>
      <trkpt lat="38.65146" lon="-0.11462">
        <ele>227.6</ele>
        <time>2021-01-31 16:52:07</time>
      </trkpt>
      <trkpt lat="38.65144" lon="-0.11464">
        <ele>227.6</ele>
        <time>2021-01-31 16:52:08</time>
      </trkpt>
      <trkpt lat="38.65142" lon="-0.11467">
        <ele>228.6</ele>
        <time>2021-01-31 16:52:09</time>
      </trkpt>
      <trkpt lat="38.6514" lon="-0.11469">
        <ele>228.6</ele>
        <time>2021-01-31 16:52:10</time>
      </trkpt>
      <trkpt lat="38.65138" lon="-0.11472">
        <ele>228.6</ele>
        <time>2021-01-31 16:52:11</time>
      </trkpt>
      <trkpt lat="38.65136" lon="-0.11475">
        <ele>229</ele>
        <time>2021-01-31 16:52:12</time>
      </trkpt>
      <trkpt lat="38.65134" lon="-0.11477">
        <ele>229.8</ele>
        <time>2021-01-31 16:52:13</time>
      </trkpt>
      <trkpt lat="38.65131" lon="-0.1148">
        <ele>230.4</ele>
        <time>2021-01-31 16:52:14</time>
      </trkpt>
      <trkpt lat="38.65129" lon="-0.11483">
        <ele>230.8</ele>
        <time>2021-01-31 16:52:15</time>
      </trkpt>
      <trkpt lat="38.65128" lon="-0.11485">
        <ele>231.4</ele>
        <time>2021-01-31 16:52:16</time>
      </trkpt>
      <trkpt lat="38.65126" lon="-0.11488">
        <ele>232.4</ele>
        <time>2021-01-31 16:52:17</time>
      </trkpt>
      <trkpt lat="38.65124" lon="-0.11491">
        <ele>232.4</ele>
        <time>2021-01-31 16:52:18</time>
      </trkpt>
      <trkpt lat="38.65123" lon="-0.11494">
        <ele>232.4</ele>
        <time>2021-01-31 16:52:19</time>
      </trkpt>
      <trkpt lat="38.65121" lon="-0.11497">
        <ele>232.4</ele>
        <time>2021-01-31 16:52:20</time>
      </trkpt>
      <trkpt lat="38.6512" lon="-0.11501">
        <ele>232.4</ele>
        <time>2021-01-31 16:52:21</time>
      </trkpt>
      <trkpt lat="38.6512" lon="-0.11501">
        <ele>232.4</ele>
        <time>2021-01-31 16:52:22</time>
      </trkpt>
      <trkpt lat="38.6512" lon="-0.11501">
        <ele>232.4</ele>
        <time>2021-01-31 16:52:23</time>
      </trkpt>
      <trkpt lat="38.6512" lon="-0.11501">
        <ele>233.2</ele>
        <time>2021-01-31 16:52:24</time>
      </trkpt>
      <trkpt lat="38.65116" lon="-0.11514">
        <ele>233.2</ele>
        <time>2021-01-31 16:52:25</time>
      </trkpt>
      <trkpt lat="38.65116" lon="-0.11517">
        <ele>233.2</ele>
        <time>2021-01-31 16:52:26</time>
      </trkpt>
      <trkpt lat="38.65115" lon="-0.1152">
        <ele>233.4</ele>
        <time>2021-01-31 16:52:27</time>
      </trkpt>
      <trkpt lat="38.65114" lon="-0.11524">
        <ele>233.8</ele>
        <time>2021-01-31 16:52:28</time>
      </trkpt>
      <trkpt lat="38.65113" lon="-0.11527">
        <ele>233.8</ele>
        <time>2021-01-31 16:52:29</time>
      </trkpt>
      <trkpt lat="38.65112" lon="-0.1153">
        <ele>234.2</ele>
        <time>2021-01-31 16:52:30</time>
      </trkpt>
      <trkpt lat="38.65111" lon="-0.11534">
        <ele>234.2</ele>
        <time>2021-01-31 16:52:31</time>
      </trkpt>
      <trkpt lat="38.65111" lon="-0.11537">
        <ele>234.2</ele>
        <time>2021-01-31 16:52:32</time>
      </trkpt>
      <trkpt lat="38.65111" lon="-0.11537">
        <ele>234.2</ele>
        <time>2021-01-31 16:52:33</time>
      </trkpt>
      <trkpt lat="38.65111" lon="-0.11537">
        <ele>234.2</ele>
        <time>2021-01-31 16:52:34</time>
      </trkpt>
      <trkpt lat="38.65111" lon="-0.11537">
        <ele>234.2</ele>
        <time>2021-01-31 16:52:35</time>
      </trkpt>
      <trkpt lat="38.65111" lon="-0.11537">
        <ele>235.6</ele>
        <time>2021-01-31 16:52:36</time>
      </trkpt>
      <trkpt lat="38.65106" lon="-0.11553">
        <ele>236</ele>
        <time>2021-01-31 16:52:37</time>
      </trkpt>
      <trkpt lat="38.65106" lon="-0.11557">
        <ele>236.6</ele>
        <time>2021-01-31 16:52:38</time>
      </trkpt>
      <trkpt lat="38.65105" lon="-0.1156">
        <ele>236.6</ele>
        <time>2021-01-31 16:52:39</time>
      </trkpt>
      <trkpt lat="38.65105" lon="-0.11564">
        <ele>236.6</ele>
        <time>2021-01-31 16:52:40</time>
      </trkpt>
      <trkpt lat="38.65104" lon="-0.11567">
        <ele>236.6</ele>
        <time>2021-01-31 16:52:41</time>
      </trkpt>
      <trkpt lat="38.65104" lon="-0.1157">
        <ele>237.6</ele>
        <time>2021-01-31 16:52:42</time>
      </trkpt>
      <trkpt lat="38.65104" lon="-0.11574">
        <ele>237.8</ele>
        <time>2021-01-31 16:52:43</time>
      </trkpt>
      <trkpt lat="38.65104" lon="-0.11577">
        <ele>238.8</ele>
        <time>2021-01-31 16:52:44</time>
      </trkpt>
      <trkpt lat="38.65104" lon="-0.11581">
        <ele>239.6</ele>
        <time>2021-01-31 16:52:45</time>
      </trkpt>
      <trkpt lat="38.65105" lon="-0.11583">
        <ele>239.6</ele>
        <time>2021-01-31 16:52:46</time>
      </trkpt>
      <trkpt lat="38.65105" lon="-0.11587">
        <ele>239.6</ele>
        <time>2021-01-31 16:52:47</time>
      </trkpt>
      <trkpt lat="38.65106" lon="-0.11589">
        <ele>239.6</ele>
        <time>2021-01-31 16:52:48</time>
      </trkpt>
      <trkpt lat="38.65106" lon="-0.11592">
        <ele>239.6</ele>
        <time>2021-01-31 16:52:49</time>
      </trkpt>
      <trkpt lat="38.65106" lon="-0.11595">
        <ele>239.8</ele>
        <time>2021-01-31 16:52:50</time>
      </trkpt>
      <trkpt lat="38.65106" lon="-0.11598">
        <ele>239.8</ele>
        <time>2021-01-31 16:52:51</time>
      </trkpt>
      <trkpt lat="38.65107" lon="-0.116">
        <ele>239.8</ele>
        <time>2021-01-31 16:52:52</time>
      </trkpt>
      <trkpt lat="38.65107" lon="-0.11602">
        <ele>239.8</ele>
        <time>2021-01-31 16:52:53</time>
      </trkpt>
      <trkpt lat="38.65107" lon="-0.11604">
        <ele>239.8</ele>
        <time>2021-01-31 16:52:54</time>
      </trkpt>
      <trkpt lat="38.65107" lon="-0.11604">
        <ele>240.4</ele>
        <time>2021-01-31 16:52:55</time>
      </trkpt>
      <trkpt lat="38.65106" lon="-0.11609">
        <ele>241.4</ele>
        <time>2021-01-31 16:52:56</time>
      </trkpt>
      <trkpt lat="38.65106" lon="-0.11609">
        <ele>242.2</ele>
        <time>2021-01-31 16:52:57</time>
      </trkpt>
      <trkpt lat="38.65105" lon="-0.11612">
        <ele>242.6</ele>
        <time>2021-01-31 16:52:58</time>
      </trkpt>
      <trkpt lat="38.65104" lon="-0.11614">
        <ele>242.6</ele>
        <time>2021-01-31 16:52:59</time>
      </trkpt>
      <trkpt lat="38.65104" lon="-0.11616">
        <ele>242.6</ele>
        <time>2021-01-31 16:53:00</time>
      </trkpt>
      <trkpt lat="38.65103" lon="-0.11617">
        <ele>242.2</ele>
        <time>2021-01-31 16:53:01</time>
      </trkpt>
      <trkpt lat="38.65102" lon="-0.11618">
        <ele>242.2</ele>
        <time>2021-01-31 16:53:02</time>
      </trkpt>
      <trkpt lat="38.65101" lon="-0.11619">
        <ele>242.2</ele>
        <time>2021-01-31 16:53:03</time>
      </trkpt>
      <trkpt lat="38.651" lon="-0.11619">
        <ele>242.2</ele>
        <time>2021-01-31 16:53:04</time>
      </trkpt>
      <trkpt lat="38.65099" lon="-0.1162">
        <ele>241.8</ele>
        <time>2021-01-31 16:53:05</time>
      </trkpt>
      <trkpt lat="38.65098" lon="-0.11621">
        <ele>241.4</ele>
        <time>2021-01-31 16:53:06</time>
      </trkpt>
      <trkpt lat="38.65097" lon="-0.11621">
        <ele>241.4</ele>
        <time>2021-01-31 16:53:07</time>
      </trkpt>
      <trkpt lat="38.65095" lon="-0.1162">
        <ele>240.4</ele>
        <time>2021-01-31 16:53:08</time>
      </trkpt>
      <trkpt lat="38.65092" lon="-0.11619">
        <ele>240.4</ele>
        <time>2021-01-31 16:53:09</time>
      </trkpt>
      <trkpt lat="38.65089" lon="-0.11618">
        <ele>240.4</ele>
        <time>2021-01-31 16:53:10</time>
      </trkpt>
      <trkpt lat="38.65088" lon="-0.11616">
        <ele>240.8</ele>
        <time>2021-01-31 16:53:11</time>
      </trkpt>
      <trkpt lat="38.65087" lon="-0.11613">
        <ele>240.8</ele>
        <time>2021-01-31 16:53:12</time>
      </trkpt>
      <trkpt lat="38.65088" lon="-0.11608">
        <ele>240.8</ele>
        <time>2021-01-31 16:53:13</time>
      </trkpt>
      <trkpt lat="38.65088" lon="-0.11601">
        <ele>239.8</ele>
        <time>2021-01-31 16:53:14</time>
      </trkpt>
      <trkpt lat="38.65089" lon="-0.11594">
        <ele>238.8</ele>
        <time>2021-01-31 16:53:15</time>
      </trkpt>
      <trkpt lat="38.65089" lon="-0.11585">
        <ele>237.8</ele>
        <time>2021-01-31 16:53:16</time>
      </trkpt>
      <trkpt lat="38.65088" lon="-0.11578">
        <ele>236.8</ele>
        <time>2021-01-31 16:53:17</time>
      </trkpt>
      <trkpt lat="38.65086" lon="-0.11572">
        <ele>235.8</ele>
        <time>2021-01-31 16:53:18</time>
      </trkpt>
      <trkpt lat="38.65082" lon="-0.11567">
        <ele>234.8</ele>
        <time>2021-01-31 16:53:19</time>
      </trkpt>
      <trkpt lat="38.65076" lon="-0.11563">
        <ele>233.8</ele>
        <time>2021-01-31 16:53:20</time>
      </trkpt>
      <trkpt lat="38.65069" lon="-0.1156">
        <ele>232.8</ele>
        <time>2021-01-31 16:53:21</time>
      </trkpt>
      <trkpt lat="38.65062" lon="-0.11554">
        <ele>231.8</ele>
        <time>2021-01-31 16:53:22</time>
      </trkpt>
      <trkpt lat="38.65055" lon="-0.11547">
        <ele>230.8</ele>
        <time>2021-01-31 16:53:23</time>
      </trkpt>
      <trkpt lat="38.65049" lon="-0.11539">
        <ele>229.8</ele>
        <time>2021-01-31 16:53:24</time>
      </trkpt>
      <trkpt lat="38.65043" lon="-0.1153">
        <ele>229.8</ele>
        <time>2021-01-31 16:53:25</time>
      </trkpt>
      <trkpt lat="38.65043" lon="-0.1153">
        <ele>229.8</ele>
        <time>2021-01-31 16:53:26</time>
      </trkpt>
      <trkpt lat="38.65043" lon="-0.1153">
        <ele>229.8</ele>
        <time>2021-01-31 16:53:27</time>
      </trkpt>
      <trkpt lat="38.65043" lon="-0.1153">
        <ele>229</ele>
        <time>2021-01-31 16:53:28</time>
      </trkpt>
      <trkpt lat="38.65021" lon="-0.11497">
        <ele>230</ele>
        <time>2021-01-31 16:53:29</time>
      </trkpt>
      <trkpt lat="38.65015" lon="-0.1149">
        <ele>230</ele>
        <time>2021-01-31 16:53:30</time>
      </trkpt>
      <trkpt lat="38.65009" lon="-0.11484">
        <ele>230.2</ele>
        <time>2021-01-31 16:53:31</time>
      </trkpt>
      <trkpt lat="38.65004" lon="-0.11477">
        <ele>230.2</ele>
        <time>2021-01-31 16:53:32</time>
      </trkpt>
      <trkpt lat="38.64999" lon="-0.11469">
        <ele>230.2</ele>
        <time>2021-01-31 16:53:33</time>
      </trkpt>
      <trkpt lat="38.64996" lon="-0.11462">
        <ele>230.2</ele>
        <time>2021-01-31 16:53:34</time>
      </trkpt>
      <trkpt lat="38.64993" lon="-0.11455">
        <ele>230.2</ele>
        <time>2021-01-31 16:53:35</time>
      </trkpt>
      <trkpt lat="38.64991" lon="-0.1145">
        <ele>231.2</ele>
        <time>2021-01-31 16:53:36</time>
      </trkpt>
      <trkpt lat="38.6499" lon="-0.11444">
        <ele>232.2</ele>
        <time>2021-01-31 16:53:37</time>
      </trkpt>
      <trkpt lat="38.64989" lon="-0.1144">
        <ele>233.2</ele>
        <time>2021-01-31 16:53:38</time>
      </trkpt>
      <trkpt lat="38.64988" lon="-0.11436">
        <ele>234.2</ele>
        <time>2021-01-31 16:53:39</time>
      </trkpt>
      <trkpt lat="38.64987" lon="-0.11433">
        <ele>235</ele>
        <time>2021-01-31 16:53:40</time>
      </trkpt>
      <trkpt lat="38.64986" lon="-0.1143">
        <ele>235.4</ele>
        <time>2021-01-31 16:53:41</time>
      </trkpt>
      <trkpt lat="38.64986" lon="-0.11428">
        <ele>235.6</ele>
        <time>2021-01-31 16:53:42</time>
      </trkpt>
      <trkpt lat="38.64985" lon="-0.11424">
        <ele>236.2</ele>
        <time>2021-01-31 16:53:43</time>
      </trkpt>
      <trkpt lat="38.64984" lon="-0.11421">
        <ele>236.8</ele>
        <time>2021-01-31 16:53:44</time>
      </trkpt>
      <trkpt lat="38.64984" lon="-0.11418">
        <ele>237.2</ele>
        <time>2021-01-31 16:53:45</time>
      </trkpt>
      <trkpt lat="38.64983" lon="-0.11416">
        <ele>237.6</ele>
        <time>2021-01-31 16:53:46</time>
      </trkpt>
      <trkpt lat="38.64983" lon="-0.11413">
        <ele>237.8</ele>
        <time>2021-01-31 16:53:47</time>
      </trkpt>
      <trkpt lat="38.64982" lon="-0.1141">
        <ele>238.2</ele>
        <time>2021-01-31 16:53:48</time>
      </trkpt>
      <trkpt lat="38.64982" lon="-0.11407">
        <ele>238.6</ele>
        <time>2021-01-31 16:53:49</time>
      </trkpt>
      <trkpt lat="38.64981" lon="-0.11404">
        <ele>238.8</ele>
        <time>2021-01-31 16:53:50</time>
      </trkpt>
      <trkpt lat="38.6498" lon="-0.11402">
        <ele>239.2</ele>
        <time>2021-01-31 16:53:51</time>
      </trkpt>
      <trkpt lat="38.64979" lon="-0.11399">
        <ele>239.2</ele>
        <time>2021-01-31 16:53:52</time>
      </trkpt>
      <trkpt lat="38.64978" lon="-0.11398">
        <ele>239.2</ele>
        <time>2021-01-31 16:53:53</time>
      </trkpt>
      <trkpt lat="38.64977" lon="-0.11396">
        <ele>239.2</ele>
        <time>2021-01-31 16:53:54</time>
      </trkpt>
      <trkpt lat="38.64975" lon="-0.11394">
        <ele>240.2</ele>
        <time>2021-01-31 16:53:55</time>
      </trkpt>
      <trkpt lat="38.64974" lon="-0.11392">
        <ele>240.6</ele>
        <time>2021-01-31 16:53:56</time>
      </trkpt>
      <trkpt lat="38.64972" lon="-0.1139">
        <ele>241</ele>
        <time>2021-01-31 16:53:57</time>
      </trkpt>
      <trkpt lat="38.6497" lon="-0.11388">
        <ele>242</ele>
        <time>2021-01-31 16:53:58</time>
      </trkpt>
      <trkpt lat="38.64969" lon="-0.11387">
        <ele>242.2</ele>
        <time>2021-01-31 16:53:59</time>
      </trkpt>
      <trkpt lat="38.64967" lon="-0.11386">
        <ele>242.2</ele>
        <time>2021-01-31 16:54:00</time>
      </trkpt>
      <trkpt lat="38.64965" lon="-0.11385">
        <ele>242.2</ele>
        <time>2021-01-31 16:54:01</time>
      </trkpt>
      <trkpt lat="38.64963" lon="-0.11383">
        <ele>242.2</ele>
        <time>2021-01-31 16:54:02</time>
      </trkpt>
      <trkpt lat="38.64962" lon="-0.11382">
        <ele>243.2</ele>
        <time>2021-01-31 16:54:03</time>
      </trkpt>
      <trkpt lat="38.6496" lon="-0.11381">
        <ele>244.2</ele>
        <time>2021-01-31 16:54:04</time>
      </trkpt>
      <trkpt lat="38.64959" lon="-0.11379">
        <ele>244.6</ele>
        <time>2021-01-31 16:54:05</time>
      </trkpt>
      <trkpt lat="38.64957" lon="-0.11379">
        <ele>245.2</ele>
        <time>2021-01-31 16:54:06</time>
      </trkpt>
      <trkpt lat="38.64956" lon="-0.11377">
        <ele>245.6</ele>
        <time>2021-01-31 16:54:07</time>
      </trkpt>
      <trkpt lat="38.64955" lon="-0.11377">
        <ele>245.6</ele>
        <time>2021-01-31 16:54:08</time>
      </trkpt>
      <trkpt lat="38.64953" lon="-0.11375">
        <ele>245.6</ele>
        <time>2021-01-31 16:54:09</time>
      </trkpt>
      <trkpt lat="38.64952" lon="-0.11374">
        <ele>245.6</ele>
        <time>2021-01-31 16:54:10</time>
      </trkpt>
      <trkpt lat="38.64951" lon="-0.11372">
        <ele>246.6</ele>
        <time>2021-01-31 16:54:11</time>
      </trkpt>
      <trkpt lat="38.6495" lon="-0.1137">
        <ele>247.2</ele>
        <time>2021-01-31 16:54:12</time>
      </trkpt>
      <trkpt lat="38.64949" lon="-0.11368">
        <ele>247.2</ele>
        <time>2021-01-31 16:54:13</time>
      </trkpt>
      <trkpt lat="38.64948" lon="-0.11367">
        <ele>247.4</ele>
        <time>2021-01-31 16:54:14</time>
      </trkpt>
      <trkpt lat="38.64947" lon="-0.11365">
        <ele>248</ele>
        <time>2021-01-31 16:54:15</time>
      </trkpt>
      <trkpt lat="38.64946" lon="-0.11363">
        <ele>248</ele>
        <time>2021-01-31 16:54:16</time>
      </trkpt>
      <trkpt lat="38.64945" lon="-0.11361">
        <ele>248.4</ele>
        <time>2021-01-31 16:54:17</time>
      </trkpt>
      <trkpt lat="38.64943" lon="-0.1136">
        <ele>249</ele>
        <time>2021-01-31 16:54:18</time>
      </trkpt>
      <trkpt lat="38.64942" lon="-0.11358">
        <ele>249.2</ele>
        <time>2021-01-31 16:54:19</time>
      </trkpt>
      <trkpt lat="38.6494" lon="-0.11356">
        <ele>249.6</ele>
        <time>2021-01-31 16:54:20</time>
      </trkpt>
      <trkpt lat="38.64939" lon="-0.11354">
        <ele>249.6</ele>
        <time>2021-01-31 16:54:21</time>
      </trkpt>
      <trkpt lat="38.64937" lon="-0.11351">
        <ele>249.6</ele>
        <time>2021-01-31 16:54:22</time>
      </trkpt>
      <trkpt lat="38.64936" lon="-0.11349">
        <ele>249.6</ele>
        <time>2021-01-31 16:54:23</time>
      </trkpt>
      <trkpt lat="38.64935" lon="-0.11346">
        <ele>250</ele>
        <time>2021-01-31 16:54:24</time>
      </trkpt>
      <trkpt lat="38.64934" lon="-0.11344">
        <ele>250</ele>
        <time>2021-01-31 16:54:25</time>
      </trkpt>
      <trkpt lat="38.64932" lon="-0.11342">
        <ele>250</ele>
        <time>2021-01-31 16:54:26</time>
      </trkpt>
      <trkpt lat="38.6493" lon="-0.1134">
        <ele>250</ele>
        <time>2021-01-31 16:54:27</time>
      </trkpt>
      <trkpt lat="38.64928" lon="-0.11339">
        <ele>249.4</ele>
        <time>2021-01-31 16:54:28</time>
      </trkpt>
      <trkpt lat="38.64926" lon="-0.11337">
        <ele>249.4</ele>
        <time>2021-01-31 16:54:29</time>
      </trkpt>
      <trkpt lat="38.64924" lon="-0.11335">
        <ele>249.4</ele>
        <time>2021-01-31 16:54:30</time>
      </trkpt>
      <trkpt lat="38.6492" lon="-0.11332">
        <ele>249.4</ele>
        <time>2021-01-31 16:54:31</time>
      </trkpt>
      <trkpt lat="38.64917" lon="-0.11329">
        <ele>249.4</ele>
        <time>2021-01-31 16:54:32</time>
      </trkpt>
      <trkpt lat="38.64913" lon="-0.11326">
        <ele>249.4</ele>
        <time>2021-01-31 16:54:33</time>
      </trkpt>
      <trkpt lat="38.6491" lon="-0.11321">
        <ele>248.4</ele>
        <time>2021-01-31 16:54:34</time>
      </trkpt>
      <trkpt lat="38.64905" lon="-0.11317">
        <ele>247.4</ele>
        <time>2021-01-31 16:54:35</time>
      </trkpt>
      <trkpt lat="38.64901" lon="-0.11311">
        <ele>247.4</ele>
        <time>2021-01-31 16:54:36</time>
      </trkpt>
      <trkpt lat="38.64901" lon="-0.11311">
        <ele>247.4</ele>
        <time>2021-01-31 16:54:37</time>
      </trkpt>
      <trkpt lat="38.64901" lon="-0.11311">
        <ele>247.4</ele>
        <time>2021-01-31 16:54:38</time>
      </trkpt>
      <trkpt lat="38.64901" lon="-0.11311">
        <ele>246.4</ele>
        <time>2021-01-31 16:54:39</time>
      </trkpt>
      <trkpt lat="38.64882" lon="-0.11292">
        <ele>245.6</ele>
        <time>2021-01-31 16:54:40</time>
      </trkpt>
      <trkpt lat="38.64877" lon="-0.11294">
        <ele>245.6</ele>
        <time>2021-01-31 16:54:41</time>
      </trkpt>
      <trkpt lat="38.64873" lon="-0.11296">
        <ele>245.6</ele>
        <time>2021-01-31 16:54:42</time>
      </trkpt>
      <trkpt lat="38.64868" lon="-0.11298">
        <ele>245.6</ele>
        <time>2021-01-31 16:54:43</time>
      </trkpt>
      <trkpt lat="38.64864" lon="-0.11301">
        <ele>246.2</ele>
        <time>2021-01-31 16:54:44</time>
      </trkpt>
      <trkpt lat="38.6486" lon="-0.11304">
        <ele>246.2</ele>
        <time>2021-01-31 16:54:45</time>
      </trkpt>
      <trkpt lat="38.64856" lon="-0.11306">
        <ele>246.2</ele>
        <time>2021-01-31 16:54:46</time>
      </trkpt>
      <trkpt lat="38.64851" lon="-0.11309">
        <ele>245.6</ele>
        <time>2021-01-31 16:54:47</time>
      </trkpt>
      <trkpt lat="38.64846" lon="-0.11313">
        <ele>245.4</ele>
        <time>2021-01-31 16:54:48</time>
      </trkpt>
      <trkpt lat="38.6484" lon="-0.11316">
        <ele>245.4</ele>
        <time>2021-01-31 16:54:49</time>
      </trkpt>
      <trkpt lat="38.64834" lon="-0.1132">
        <ele>245.4</ele>
        <time>2021-01-31 16:54:50</time>
      </trkpt>
      <trkpt lat="38.64828" lon="-0.11323">
        <ele>245.4</ele>
        <time>2021-01-31 16:54:51</time>
      </trkpt>
      <trkpt lat="38.64821" lon="-0.11327">
        <ele>244.4</ele>
        <time>2021-01-31 16:54:52</time>
      </trkpt>
      <trkpt lat="38.64814" lon="-0.11328">
        <ele>243.4</ele>
        <time>2021-01-31 16:54:53</time>
      </trkpt>
      <trkpt lat="38.64808" lon="-0.11328">
        <ele>243</ele>
        <time>2021-01-31 16:54:54</time>
      </trkpt>
      <trkpt lat="38.64801" lon="-0.11325">
        <ele>243</ele>
        <time>2021-01-31 16:54:55</time>
      </trkpt>
      <trkpt lat="38.64795" lon="-0.11322">
        <ele>243</ele>
        <time>2021-01-31 16:54:56</time>
      </trkpt>
      <trkpt lat="38.64789" lon="-0.1132">
        <ele>243</ele>
        <time>2021-01-31 16:54:57</time>
      </trkpt>
      <trkpt lat="38.64782" lon="-0.11317">
        <ele>243</ele>
        <time>2021-01-31 16:54:58</time>
      </trkpt>
      <trkpt lat="38.64775" lon="-0.11315">
        <ele>242.8</ele>
        <time>2021-01-31 16:54:59</time>
      </trkpt>
      <trkpt lat="38.64768" lon="-0.11313">
        <ele>242.8</ele>
        <time>2021-01-31 16:55:00</time>
      </trkpt>
      <trkpt lat="38.64762" lon="-0.11311">
        <ele>242.8</ele>
        <time>2021-01-31 16:55:01</time>
      </trkpt>
      <trkpt lat="38.64757" lon="-0.11308">
        <ele>242.8</ele>
        <time>2021-01-31 16:55:02</time>
      </trkpt>
      <trkpt lat="38.64752" lon="-0.11302">
        <ele>242.8</ele>
        <time>2021-01-31 16:55:03</time>
      </trkpt>
      <trkpt lat="38.64748" lon="-0.11295">
        <ele>242.8</ele>
        <time>2021-01-31 16:55:04</time>
      </trkpt>
      <trkpt lat="38.64746" lon="-0.11288">
        <ele>242.8</ele>
        <time>2021-01-31 16:55:05</time>
      </trkpt>
      <trkpt lat="38.64745" lon="-0.11282">
        <ele>242.8</ele>
        <time>2021-01-31 16:55:06</time>
      </trkpt>
      <trkpt lat="38.64742" lon="-0.11275">
        <ele>243.8</ele>
        <time>2021-01-31 16:55:07</time>
      </trkpt>
      <trkpt lat="38.64738" lon="-0.1127">
        <ele>244.8</ele>
        <time>2021-01-31 16:55:08</time>
      </trkpt>
      <trkpt lat="38.64734" lon="-0.11265">
        <ele>245.8</ele>
        <time>2021-01-31 16:55:09</time>
      </trkpt>
      <trkpt lat="38.6473" lon="-0.11261">
        <ele>245.8</ele>
        <time>2021-01-31 16:55:10</time>
      </trkpt>
      <trkpt lat="38.6473" lon="-0.11261">
        <ele>245.8</ele>
        <time>2021-01-31 16:55:11</time>
      </trkpt>
      <trkpt lat="38.6473" lon="-0.11261">
        <ele>245.8</ele>
        <time>2021-01-31 16:55:12</time>
      </trkpt>
      <trkpt lat="38.6473" lon="-0.11261">
        <ele>245.6</ele>
        <time>2021-01-31 16:55:13</time>
      </trkpt>
      <trkpt lat="38.64715" lon="-0.11248">
        <ele>244.6</ele>
        <time>2021-01-31 16:55:14</time>
      </trkpt>
      <trkpt lat="38.6471" lon="-0.11246">
        <ele>244.6</ele>
        <time>2021-01-31 16:55:15</time>
      </trkpt>
      <trkpt lat="38.64704" lon="-0.11243">
        <ele>244.6</ele>
        <time>2021-01-31 16:55:16</time>
      </trkpt>
      <trkpt lat="38.64699" lon="-0.1124">
        <ele>244.6</ele>
        <time>2021-01-31 16:55:17</time>
      </trkpt>
      <trkpt lat="38.64693" lon="-0.11239">
        <ele>244.6</ele>
        <time>2021-01-31 16:55:18</time>
      </trkpt>
      <trkpt lat="38.64686" lon="-0.11236">
        <ele>244.6</ele>
        <time>2021-01-31 16:55:19</time>
      </trkpt>
      <trkpt lat="38.64686" lon="-0.11236">
        <ele>244.6</ele>
        <time>2021-01-31 16:55:20</time>
      </trkpt>
      <trkpt lat="38.64686" lon="-0.11236">
        <ele>244.6</ele>
        <time>2021-01-31 16:55:21</time>
      </trkpt>
      <trkpt lat="38.64686" lon="-0.11236">
        <ele>244.6</ele>
        <time>2021-01-31 16:55:22</time>
      </trkpt>
      <trkpt lat="38.6467" lon="-0.11243">
        <ele>244.4</ele>
        <time>2021-01-31 16:55:23</time>
      </trkpt>
      <trkpt lat="38.64669" lon="-0.11246">
        <ele>244.4</ele>
        <time>2021-01-31 16:55:24</time>
      </trkpt>
      <trkpt lat="38.64668" lon="-0.11249">
        <ele>244.4</ele>
        <time>2021-01-31 16:55:25</time>
      </trkpt>
      <trkpt lat="38.64668" lon="-0.11251">
        <ele>244.8</ele>
        <time>2021-01-31 16:55:26</time>
      </trkpt>
      <trkpt lat="38.64667" lon="-0.11253">
        <ele>245.8</ele>
        <time>2021-01-31 16:55:27</time>
      </trkpt>
      <trkpt lat="38.64666" lon="-0.11256">
        <ele>245.8</ele>
        <time>2021-01-31 16:55:28</time>
      </trkpt>
      <trkpt lat="38.64666" lon="-0.11258">
        <ele>245.8</ele>
        <time>2021-01-31 16:55:29</time>
      </trkpt>
      <trkpt lat="38.64665" lon="-0.11261">
        <ele>245.8</ele>
        <time>2021-01-31 16:55:30</time>
      </trkpt>
      <trkpt lat="38.64665" lon="-0.11261">
        <ele>245.8</ele>
        <time>2021-01-31 16:55:31</time>
      </trkpt>
      <trkpt lat="38.64665" lon="-0.11261">
        <ele>245.8</ele>
        <time>2021-01-31 16:55:32</time>
      </trkpt>
      <trkpt lat="38.64665" lon="-0.11261">
        <ele>242</ele>
        <time>2021-01-31 16:55:33</time>
      </trkpt>
      <trkpt lat="38.64654" lon="-0.11281">
        <ele>242</ele>
        <time>2021-01-31 16:55:34</time>
      </trkpt>
      <trkpt lat="38.64651" lon="-0.11287">
        <ele>242</ele>
        <time>2021-01-31 16:55:35</time>
      </trkpt>
      <trkpt lat="38.64648" lon="-0.11293">
        <ele>242</ele>
        <time>2021-01-31 16:55:36</time>
      </trkpt>
      <trkpt lat="38.64645" lon="-0.11298">
        <ele>242</ele>
        <time>2021-01-31 16:55:37</time>
      </trkpt>
      <trkpt lat="38.64643" lon="-0.11302">
        <ele>241</ele>
        <time>2021-01-31 16:55:38</time>
      </trkpt>
      <trkpt lat="38.6464" lon="-0.11305">
        <ele>240</ele>
        <time>2021-01-31 16:55:39</time>
      </trkpt>
      <trkpt lat="38.64638" lon="-0.11308">
        <ele>239</ele>
        <time>2021-01-31 16:55:40</time>
      </trkpt>
      <trkpt lat="38.64636" lon="-0.1131">
        <ele>239</ele>
        <time>2021-01-31 16:55:41</time>
      </trkpt>
      <trkpt lat="38.64634" lon="-0.11312">
        <ele>239</ele>
        <time>2021-01-31 16:55:42</time>
      </trkpt>
      <trkpt lat="38.64633" lon="-0.11314">
        <ele>239</ele>
        <time>2021-01-31 16:55:43</time>
      </trkpt>
      <trkpt lat="38.64632" lon="-0.11316">
        <ele>238.8</ele>
        <time>2021-01-31 16:55:44</time>
      </trkpt>
      <trkpt lat="38.6463" lon="-0.11318">
        <ele>238.8</ele>
        <time>2021-01-31 16:55:45</time>
      </trkpt>
      <trkpt lat="38.64627" lon="-0.1132">
        <ele>238.8</ele>
        <time>2021-01-31 16:55:46</time>
      </trkpt>
      <trkpt lat="38.64624" lon="-0.1132">
        <ele>239.2</ele>
        <time>2021-01-31 16:55:47</time>
      </trkpt>
      <trkpt lat="38.6462" lon="-0.11319">
        <ele>239.2</ele>
        <time>2021-01-31 16:55:48</time>
      </trkpt>
      <trkpt lat="38.64617" lon="-0.11317">
        <ele>239.2</ele>
        <time>2021-01-31 16:55:49</time>
      </trkpt>
      <trkpt lat="38.64613" lon="-0.11314">
        <ele>238.2</ele>
        <time>2021-01-31 16:55:50</time>
      </trkpt>
      <trkpt lat="38.64609" lon="-0.11311">
        <ele>237.6</ele>
        <time>2021-01-31 16:55:51</time>
      </trkpt>
      <trkpt lat="38.64604" lon="-0.11307">
        <ele>236.8</ele>
        <time>2021-01-31 16:55:52</time>
      </trkpt>
      <trkpt lat="38.64598" lon="-0.11303">
        <ele>236.4</ele>
        <time>2021-01-31 16:55:53</time>
      </trkpt>
      <trkpt lat="38.64592" lon="-0.11299">
        <ele>236.2</ele>
        <time>2021-01-31 16:55:54</time>
      </trkpt>
      <trkpt lat="38.64586" lon="-0.11294">
        <ele>236</ele>
        <time>2021-01-31 16:55:55</time>
      </trkpt>
      <trkpt lat="38.64579" lon="-0.11289">
        <ele>235</ele>
        <time>2021-01-31 16:55:56</time>
      </trkpt>
      <trkpt lat="38.64572" lon="-0.11283">
        <ele>235</ele>
        <time>2021-01-31 16:55:57</time>
      </trkpt>
      <trkpt lat="38.64565" lon="-0.11277">
        <ele>235</ele>
        <time>2021-01-31 16:55:58</time>
      </trkpt>
      <trkpt lat="38.64557" lon="-0.11271">
        <ele>235</ele>
        <time>2021-01-31 16:55:59</time>
      </trkpt>
      <trkpt lat="38.64549" lon="-0.11264">
        <ele>234</ele>
        <time>2021-01-31 16:56:00</time>
      </trkpt>
      <trkpt lat="38.64541" lon="-0.11257">
        <ele>234</ele>
        <time>2021-01-31 16:56:01</time>
      </trkpt>
      <trkpt lat="38.64541" lon="-0.11257">
        <ele>234</ele>
        <time>2021-01-31 16:56:02</time>
      </trkpt>
      <trkpt lat="38.64541" lon="-0.11257">
        <ele>234</ele>
        <time>2021-01-31 16:56:03</time>
      </trkpt>
      <trkpt lat="38.64541" lon="-0.11257">
        <ele>231.4</ele>
        <time>2021-01-31 16:56:04</time>
      </trkpt>
      <trkpt lat="38.64509" lon="-0.1123">
        <ele>231.4</ele>
        <time>2021-01-31 16:56:05</time>
      </trkpt>
      <trkpt lat="38.64502" lon="-0.11224">
        <ele>231.4</ele>
        <time>2021-01-31 16:56:06</time>
      </trkpt>
      <trkpt lat="38.64494" lon="-0.11218">
        <ele>231.4</ele>
        <time>2021-01-31 16:56:07</time>
      </trkpt>
      <trkpt lat="38.64486" lon="-0.11211">
        <ele>231.4</ele>
        <time>2021-01-31 16:56:08</time>
      </trkpt>
      <trkpt lat="38.64478" lon="-0.11205">
        <ele>231.4</ele>
        <time>2021-01-31 16:56:09</time>
      </trkpt>
      <trkpt lat="38.6447" lon="-0.11199">
        <ele>231.4</ele>
        <time>2021-01-31 16:56:10</time>
      </trkpt>
      <trkpt lat="38.6447" lon="-0.11199">
        <ele>231.4</ele>
        <time>2021-01-31 16:56:11</time>
      </trkpt>
      <trkpt lat="38.6447" lon="-0.11199">
        <ele>231.4</ele>
        <time>2021-01-31 16:56:12</time>
      </trkpt>
      <trkpt lat="38.6447" lon="-0.11199">
        <ele>230.8</ele>
        <time>2021-01-31 16:56:13</time>
      </trkpt>
      <trkpt lat="38.64439" lon="-0.11175">
        <ele>230.8</ele>
        <time>2021-01-31 16:56:14</time>
      </trkpt>
      <trkpt lat="38.64432" lon="-0.11169">
        <ele>231.8</ele>
        <time>2021-01-31 16:56:15</time>
      </trkpt>
      <trkpt lat="38.64424" lon="-0.11163">
        <ele>231.8</ele>
        <time>2021-01-31 16:56:16</time>
      </trkpt>
      <trkpt lat="38.64417" lon="-0.11157">
        <ele>231.8</ele>
        <time>2021-01-31 16:56:17</time>
      </trkpt>
      <trkpt lat="38.64409" lon="-0.11151">
        <ele>230.8</ele>
        <time>2021-01-31 16:56:18</time>
      </trkpt>
      <trkpt lat="38.64402" lon="-0.11144">
        <ele>230.8</ele>
        <time>2021-01-31 16:56:19</time>
      </trkpt>
      <trkpt lat="38.64394" lon="-0.11137">
        <ele>230.8</ele>
        <time>2021-01-31 16:56:20</time>
      </trkpt>
      <trkpt lat="38.64386" lon="-0.11128">
        <ele>230.8</ele>
        <time>2021-01-31 16:56:21</time>
      </trkpt>
      <trkpt lat="38.64378" lon="-0.11119">
        <ele>229.8</ele>
        <time>2021-01-31 16:56:22</time>
      </trkpt>
      <trkpt lat="38.6437" lon="-0.11109">
        <ele>228.8</ele>
        <time>2021-01-31 16:56:23</time>
      </trkpt>
      <trkpt lat="38.64362" lon="-0.11098">
        <ele>227.8</ele>
        <time>2021-01-31 16:56:24</time>
      </trkpt>
      <trkpt lat="38.64353" lon="-0.11086">
        <ele>226.8</ele>
        <time>2021-01-31 16:56:25</time>
      </trkpt>
      <trkpt lat="38.64346" lon="-0.11074">
        <ele>225.8</ele>
        <time>2021-01-31 16:56:26</time>
      </trkpt>
      <trkpt lat="38.64338" lon="-0.1106">
        <ele>224.8</ele>
        <time>2021-01-31 16:56:27</time>
      </trkpt>
      <trkpt lat="38.64331" lon="-0.11046">
        <ele>223.8</ele>
        <time>2021-01-31 16:56:28</time>
      </trkpt>
      <trkpt lat="38.64324" lon="-0.11032">
        <ele>222.8</ele>
        <time>2021-01-31 16:56:29</time>
      </trkpt>
      <trkpt lat="38.64316" lon="-0.11018">
        <ele>221.8</ele>
        <time>2021-01-31 16:56:30</time>
      </trkpt>
      <trkpt lat="38.64309" lon="-0.11004">
        <ele>220.8</ele>
        <time>2021-01-31 16:56:31</time>
      </trkpt>
      <trkpt lat="38.64301" lon="-0.1099">
        <ele>219.8</ele>
        <time>2021-01-31 16:56:32</time>
      </trkpt>
      <trkpt lat="38.64294" lon="-0.10975">
        <ele>219.8</ele>
        <time>2021-01-31 16:56:33</time>
      </trkpt>
      <trkpt lat="38.64294" lon="-0.10975">
        <ele>219.8</ele>
        <time>2021-01-31 16:56:34</time>
      </trkpt>
      <trkpt lat="38.64294" lon="-0.10975">
        <ele>219.8</ele>
        <time>2021-01-31 16:56:35</time>
      </trkpt>
      <trkpt lat="38.64294" lon="-0.10975">
        <ele>215.8</ele>
        <time>2021-01-31 16:56:36</time>
      </trkpt>
      <trkpt lat="38.64262" lon="-0.10922">
        <ele>214.8</ele>
        <time>2021-01-31 16:56:37</time>
      </trkpt>
      <trkpt lat="38.64252" lon="-0.10912">
        <ele>214.8</ele>
        <time>2021-01-31 16:56:38</time>
      </trkpt>
      <trkpt lat="38.64252" lon="-0.10912">
        <ele>214.8</ele>
        <time>2021-01-31 16:56:39</time>
      </trkpt>
      <trkpt lat="38.64252" lon="-0.10912">
        <ele>214.8</ele>
        <time>2021-01-31 16:56:40</time>
      </trkpt>
      <trkpt lat="38.64252" lon="-0.10912">
        <ele>210.8</ele>
        <time>2021-01-31 16:56:41</time>
      </trkpt>
      <trkpt lat="38.6421" lon="-0.10877">
        <ele>209.8</ele>
        <time>2021-01-31 16:56:42</time>
      </trkpt>
      <trkpt lat="38.64202" lon="-0.10866">
        <ele>208.8</ele>
        <time>2021-01-31 16:56:43</time>
      </trkpt>
      <trkpt lat="38.64194" lon="-0.10854">
        <ele>207.8</ele>
        <time>2021-01-31 16:56:44</time>
      </trkpt>
      <trkpt lat="38.64186" lon="-0.10842">
        <ele>206.8</ele>
        <time>2021-01-31 16:56:45</time>
      </trkpt>
      <trkpt lat="38.64178" lon="-0.1083">
        <ele>205.8</ele>
        <time>2021-01-31 16:56:46</time>
      </trkpt>
      <trkpt lat="38.6417" lon="-0.10819">
        <ele>204.8</ele>
        <time>2021-01-31 16:56:47</time>
      </trkpt>
      <trkpt lat="38.64161" lon="-0.10808">
        <ele>203.8</ele>
        <time>2021-01-31 16:56:48</time>
      </trkpt>
      <trkpt lat="38.64152" lon="-0.10799">
        <ele>202.8</ele>
        <time>2021-01-31 16:56:49</time>
      </trkpt>
      <trkpt lat="38.64142" lon="-0.10791">
        <ele>201.8</ele>
        <time>2021-01-31 16:56:50</time>
      </trkpt>
      <trkpt lat="38.64131" lon="-0.10785">
        <ele>201.8</ele>
        <time>2021-01-31 16:56:51</time>
      </trkpt>
      <trkpt lat="38.6412" lon="-0.1078">
        <ele>201.8</ele>
        <time>2021-01-31 16:56:52</time>
      </trkpt>
      <trkpt lat="38.6411" lon="-0.10776">
        <ele>201.8</ele>
        <time>2021-01-31 16:56:53</time>
      </trkpt>
      <trkpt lat="38.64099" lon="-0.10771">
        <ele>201.8</ele>
        <time>2021-01-31 16:56:54</time>
      </trkpt>
      <trkpt lat="38.64089" lon="-0.10767">
        <ele>201.8</ele>
        <time>2021-01-31 16:56:55</time>
      </trkpt>
      <trkpt lat="38.64079" lon="-0.10763">
        <ele>201.8</ele>
        <time>2021-01-31 16:56:56</time>
      </trkpt>
      <trkpt lat="38.64069" lon="-0.10761">
        <ele>201.8</ele>
        <time>2021-01-31 16:56:57</time>
      </trkpt>
      <trkpt lat="38.64058" lon="-0.10759">
        <ele>201.8</ele>
        <time>2021-01-31 16:56:58</time>
      </trkpt>
      <trkpt lat="38.64048" lon="-0.1076">
        <ele>200.8</ele>
        <time>2021-01-31 16:56:59</time>
      </trkpt>
      <trkpt lat="38.64037" lon="-0.10762">
        <ele>200.8</ele>
        <time>2021-01-31 16:57:00</time>
      </trkpt>
      <trkpt lat="38.64037" lon="-0.10762">
        <ele>200.8</ele>
        <time>2021-01-31 16:57:01</time>
      </trkpt>
      <trkpt lat="38.64037" lon="-0.10762">
        <ele>201.6</ele>
        <time>2021-01-31 16:57:02</time>
      </trkpt>
      <trkpt lat="38.64006" lon="-0.1076">
        <ele>201.6</ele>
        <time>2021-01-31 16:57:03</time>
      </trkpt>
      <trkpt lat="38.64006" lon="-0.1076">
        <ele>201.6</ele>
        <time>2021-01-31 16:57:04</time>
      </trkpt>
      <trkpt lat="38.63989" lon="-0.10743">
        <ele>201.6</ele>
        <time>2021-01-31 16:57:05</time>
      </trkpt>
      <trkpt lat="38.63989" lon="-0.10743">
        <ele>199.6</ele>
        <time>2021-01-31 16:57:06</time>
      </trkpt>
      <trkpt lat="38.63973" lon="-0.10721">
        <ele>199.6</ele>
        <time>2021-01-31 16:57:07</time>
      </trkpt>
      <trkpt lat="38.63973" lon="-0.10721">
        <ele>197.6</ele>
        <time>2021-01-31 16:57:08</time>
      </trkpt>
      <trkpt lat="38.63957" lon="-0.10698">
        <ele>197.6</ele>
        <time>2021-01-31 16:57:09</time>
      </trkpt>
      <trkpt lat="38.63957" lon="-0.10698">
        <ele>195.6</ele>
        <time>2021-01-31 16:57:10</time>
      </trkpt>
      <trkpt lat="38.63942" lon="-0.10675">
        <ele>195.6</ele>
        <time>2021-01-31 16:57:11</time>
      </trkpt>
      <trkpt lat="38.63942" lon="-0.10675">
        <ele>193.6</ele>
        <time>2021-01-31 16:57:12</time>
      </trkpt>
      <trkpt lat="38.63926" lon="-0.10653">
        <ele>193.6</ele>
        <time>2021-01-31 16:57:13</time>
      </trkpt>
      <trkpt lat="38.63926" lon="-0.10653">
        <ele>192.4</ele>
        <time>2021-01-31 16:57:14</time>
      </trkpt>
      <trkpt lat="38.63911" lon="-0.10633">
        <ele>192.4</ele>
        <time>2021-01-31 16:57:15</time>
      </trkpt>
      <trkpt lat="38.63911" lon="-0.10633">
        <ele>192.4</ele>
        <time>2021-01-31 16:57:16</time>
      </trkpt>
      <trkpt lat="38.63895" lon="-0.10613">
        <ele>192.4</ele>
        <time>2021-01-31 16:57:17</time>
      </trkpt>
      <trkpt lat="38.63895" lon="-0.10613">
        <ele>191.4</ele>
        <time>2021-01-31 16:57:18</time>
      </trkpt>
      <trkpt lat="38.63877" lon="-0.10594">
        <ele>191.4</ele>
        <time>2021-01-31 16:57:19</time>
      </trkpt>
      <trkpt lat="38.63877" lon="-0.10594">
        <ele>189.4</ele>
        <time>2021-01-31 16:57:20</time>
      </trkpt>
      <trkpt lat="38.63858" lon="-0.10574">
        <ele>189.4</ele>
        <time>2021-01-31 16:57:21</time>
      </trkpt>
      <trkpt lat="38.63858" lon="-0.10574">
        <ele>187.4</ele>
        <time>2021-01-31 16:57:22</time>
      </trkpt>
      <trkpt lat="38.6384" lon="-0.10554">
        <ele>187.4</ele>
        <time>2021-01-31 16:57:23</time>
      </trkpt>
      <trkpt lat="38.6384" lon="-0.10554">
        <ele>185.4</ele>
        <time>2021-01-31 16:57:24</time>
      </trkpt>
      <trkpt lat="38.63824" lon="-0.10528">
        <ele>185.4</ele>
        <time>2021-01-31 16:57:25</time>
      </trkpt>
      <trkpt lat="38.63824" lon="-0.10528">
        <ele>183.4</ele>
        <time>2021-01-31 16:57:26</time>
      </trkpt>
      <trkpt lat="38.6381" lon="-0.105">
        <ele>183.4</ele>
        <time>2021-01-31 16:57:27</time>
      </trkpt>
      <trkpt lat="38.6381" lon="-0.105">
        <ele>181.4</ele>
        <time>2021-01-31 16:57:28</time>
      </trkpt>
      <trkpt lat="38.63789" lon="-0.1048">
        <ele>181.4</ele>
        <time>2021-01-31 16:57:29</time>
      </trkpt>
      <trkpt lat="38.63789" lon="-0.1048">
        <ele>181</ele>
        <time>2021-01-31 16:57:30</time>
      </trkpt>
      <trkpt lat="38.63765" lon="-0.10471">
        <ele>181</ele>
        <time>2021-01-31 16:57:31</time>
      </trkpt>
      <trkpt lat="38.63765" lon="-0.10471">
        <ele>180.4</ele>
        <time>2021-01-31 16:57:32</time>
      </trkpt>
      <trkpt lat="38.63742" lon="-0.1047">
        <ele>180.4</ele>
        <time>2021-01-31 16:57:33</time>
      </trkpt>
      <trkpt lat="38.63742" lon="-0.1047">
        <ele>180.4</ele>
        <time>2021-01-31 16:57:34</time>
      </trkpt>
      <trkpt lat="38.6372" lon="-0.10463">
        <ele>180.4</ele>
        <time>2021-01-31 16:57:35</time>
      </trkpt>
      <trkpt lat="38.6372" lon="-0.10463">
        <ele>180.8</ele>
        <time>2021-01-31 16:57:36</time>
      </trkpt>
      <trkpt lat="38.63702" lon="-0.10447">
        <ele>180.8</ele>
        <time>2021-01-31 16:57:37</time>
      </trkpt>
      <trkpt lat="38.63702" lon="-0.10447">
        <ele>180.8</ele>
        <time>2021-01-31 16:57:38</time>
      </trkpt>
      <trkpt lat="38.63686" lon="-0.10425">
        <ele>180.8</ele>
        <time>2021-01-31 16:57:39</time>
      </trkpt>
      <trkpt lat="38.63686" lon="-0.10425">
        <ele>178.8</ele>
        <time>2021-01-31 16:57:40</time>
      </trkpt>
      <trkpt lat="38.6367" lon="-0.104">
        <ele>178.8</ele>
        <time>2021-01-31 16:57:41</time>
      </trkpt>
      <trkpt lat="38.6367" lon="-0.104">
        <ele>176.8</ele>
        <time>2021-01-31 16:57:42</time>
      </trkpt>
      <trkpt lat="38.63651" lon="-0.10378">
        <ele>176.8</ele>
        <time>2021-01-31 16:57:43</time>
      </trkpt>
      <trkpt lat="38.63651" lon="-0.10378">
        <ele>174.8</ele>
        <time>2021-01-31 16:57:44</time>
      </trkpt>
      <trkpt lat="38.63627" lon="-0.10369">
        <ele>174.8</ele>
        <time>2021-01-31 16:57:45</time>
      </trkpt>
      <trkpt lat="38.63627" lon="-0.10369">
        <ele>173.4</ele>
        <time>2021-01-31 16:57:46</time>
      </trkpt>
      <trkpt lat="38.63604" lon="-0.10365">
        <ele>173.4</ele>
        <time>2021-01-31 16:57:47</time>
      </trkpt>
      <trkpt lat="38.63604" lon="-0.10365">
        <ele>173.4</ele>
        <time>2021-01-31 16:57:48</time>
      </trkpt>
      <trkpt lat="38.63582" lon="-0.10362">
        <ele>173.4</ele>
        <time>2021-01-31 16:57:49</time>
      </trkpt>
      <trkpt lat="38.63582" lon="-0.10362">
        <ele>174</ele>
        <time>2021-01-31 16:57:50</time>
      </trkpt>
      <trkpt lat="38.63562" lon="-0.10354">
        <ele>174</ele>
        <time>2021-01-31 16:57:51</time>
      </trkpt>
      <trkpt lat="38.63562" lon="-0.10354">
        <ele>174</ele>
        <time>2021-01-31 16:57:52</time>
      </trkpt>
      <trkpt lat="38.63544" lon="-0.10341">
        <ele>174</ele>
        <time>2021-01-31 16:57:53</time>
      </trkpt>
      <trkpt lat="38.63544" lon="-0.10341">
        <ele>174.4</ele>
        <time>2021-01-31 16:57:54</time>
      </trkpt>
      <trkpt lat="38.63528" lon="-0.10325">
        <ele>174.4</ele>
        <time>2021-01-31 16:57:55</time>
      </trkpt>
      <trkpt lat="38.63528" lon="-0.10325">
        <ele>174.4</ele>
        <time>2021-01-31 16:57:56</time>
      </trkpt>
      <trkpt lat="38.63516" lon="-0.10306">
        <ele>174.4</ele>
        <time>2021-01-31 16:57:57</time>
      </trkpt>
      <trkpt lat="38.63516" lon="-0.10306">
        <ele>176.4</ele>
        <time>2021-01-31 16:57:58</time>
      </trkpt>
      <trkpt lat="38.63505" lon="-0.10287">
        <ele>176.4</ele>
        <time>2021-01-31 16:57:59</time>
      </trkpt>
      <trkpt lat="38.63505" lon="-0.10287">
        <ele>177</ele>
        <time>2021-01-31 16:58:00</time>
      </trkpt>
      <trkpt lat="38.63496" lon="-0.10269">
        <ele>177</ele>
        <time>2021-01-31 16:58:01</time>
      </trkpt>
      <trkpt lat="38.63496" lon="-0.10269">
        <ele>177</ele>
        <time>2021-01-31 16:58:02</time>
      </trkpt>
      <trkpt lat="38.63487" lon="-0.10253">
        <ele>177</ele>
        <time>2021-01-31 16:58:03</time>
      </trkpt>
      <trkpt lat="38.63487" lon="-0.10253">
        <ele>179</ele>
        <time>2021-01-31 16:58:04</time>
      </trkpt>
      <trkpt lat="38.6348" lon="-0.10238">
        <ele>179</ele>
        <time>2021-01-31 16:58:05</time>
      </trkpt>
      <trkpt lat="38.6348" lon="-0.10238">
        <ele>179.6</ele>
        <time>2021-01-31 16:58:06</time>
      </trkpt>
      <trkpt lat="38.63473" lon="-0.10226">
        <ele>179.6</ele>
        <time>2021-01-31 16:58:07</time>
      </trkpt>
      <trkpt lat="38.63473" lon="-0.10226">
        <ele>180.2</ele>
        <time>2021-01-31 16:58:08</time>
      </trkpt>
      <trkpt lat="38.63466" lon="-0.10214">
        <ele>180.2</ele>
        <time>2021-01-31 16:58:09</time>
      </trkpt>
      <trkpt lat="38.63466" lon="-0.10214">
        <ele>180.2</ele>
        <time>2021-01-31 16:58:10</time>
      </trkpt>
      <trkpt lat="38.63461" lon="-0.10203">
        <ele>180.2</ele>
        <time>2021-01-31 16:58:11</time>
      </trkpt>
      <trkpt lat="38.63461" lon="-0.10203">
        <ele>181.2</ele>
        <time>2021-01-31 16:58:12</time>
      </trkpt>
      <trkpt lat="38.63457" lon="-0.10191">
        <ele>181.2</ele>
        <time>2021-01-31 16:58:13</time>
      </trkpt>
      <trkpt lat="38.63457" lon="-0.10191">
        <ele>181.2</ele>
        <time>2021-01-31 16:58:14</time>
      </trkpt>
      <trkpt lat="38.63454" lon="-0.10178">
        <ele>181.2</ele>
        <time>2021-01-31 16:58:15</time>
      </trkpt>
      <trkpt lat="38.63454" lon="-0.10178">
        <ele>181.2</ele>
        <time>2021-01-31 16:58:16</time>
      </trkpt>
      <trkpt lat="38.63453" lon="-0.10165">
        <ele>180.8</ele>
        <time>2021-01-31 16:58:17</time>
      </trkpt>
      <trkpt lat="38.63453" lon="-0.10158">
        <ele>180.6</ele>
        <time>2021-01-31 16:58:18</time>
      </trkpt>
      <trkpt lat="38.63454" lon="-0.1015">
        <ele>179.8</ele>
        <time>2021-01-31 16:58:19</time>
      </trkpt>
      <trkpt lat="38.63455" lon="-0.10142">
        <ele>179.2</ele>
        <time>2021-01-31 16:58:20</time>
      </trkpt>
      <trkpt lat="38.63455" lon="-0.10134">
        <ele>178.8</ele>
        <time>2021-01-31 16:58:21</time>
      </trkpt>
      <trkpt lat="38.63456" lon="-0.10126">
        <ele>177.8</ele>
        <time>2021-01-31 16:58:22</time>
      </trkpt>
      <trkpt lat="38.63457" lon="-0.10117">
        <ele>177.4</ele>
        <time>2021-01-31 16:58:23</time>
      </trkpt>
      <trkpt lat="38.63457" lon="-0.10107">
        <ele>177.2</ele>
        <time>2021-01-31 16:58:24</time>
      </trkpt>
      <trkpt lat="38.63458" lon="-0.10098">
        <ele>177.2</ele>
        <time>2021-01-31 16:58:25</time>
      </trkpt>
      <trkpt lat="38.63458" lon="-0.10089">
        <ele>177.2</ele>
        <time>2021-01-31 16:58:26</time>
      </trkpt>
      <trkpt lat="38.63459" lon="-0.1008">
        <ele>177.2</ele>
        <time>2021-01-31 16:58:27</time>
      </trkpt>
      <trkpt lat="38.6346" lon="-0.10071">
        <ele>177.2</ele>
        <time>2021-01-31 16:58:28</time>
      </trkpt>
      <trkpt lat="38.6346" lon="-0.10062">
        <ele>178.2</ele>
        <time>2021-01-31 16:58:29</time>
      </trkpt>
      <trkpt lat="38.63461" lon="-0.10053">
        <ele>178.2</ele>
        <time>2021-01-31 16:58:30</time>
      </trkpt>
      <trkpt lat="38.63461" lon="-0.10045">
        <ele>178.2</ele>
        <time>2021-01-31 16:58:31</time>
      </trkpt>
      <trkpt lat="38.63461" lon="-0.10036">
        <ele>177.6</ele>
        <time>2021-01-31 16:58:32</time>
      </trkpt>
      <trkpt lat="38.63461" lon="-0.10027">
        <ele>177.6</ele>
        <time>2021-01-31 16:58:33</time>
      </trkpt>
      <trkpt lat="38.63461" lon="-0.10019">
        <ele>177</ele>
        <time>2021-01-31 16:58:34</time>
      </trkpt>
      <trkpt lat="38.6346" lon="-0.1001">
        <ele>177</ele>
        <time>2021-01-31 16:58:35</time>
      </trkpt>
      <trkpt lat="38.63458" lon="-0.10001">
        <ele>177</ele>
        <time>2021-01-31 16:58:36</time>
      </trkpt>
      <trkpt lat="38.63457" lon="-0.09993">
        <ele>177</ele>
        <time>2021-01-31 16:58:37</time>
      </trkpt>
      <trkpt lat="38.63455" lon="-0.09984">
        <ele>176</ele>
        <time>2021-01-31 16:58:38</time>
      </trkpt>
      <trkpt lat="38.63452" lon="-0.09975">
        <ele>175.6</ele>
        <time>2021-01-31 16:58:39</time>
      </trkpt>
      <trkpt lat="38.6345" lon="-0.09965">
        <ele>174.6</ele>
        <time>2021-01-31 16:58:40</time>
      </trkpt>
      <trkpt lat="38.63448" lon="-0.09956">
        <ele>174.6</ele>
        <time>2021-01-31 16:58:41</time>
      </trkpt>
      <trkpt lat="38.63446" lon="-0.09947">
        <ele>174.6</ele>
        <time>2021-01-31 16:58:42</time>
      </trkpt>
      <trkpt lat="38.63444" lon="-0.09937">
        <ele>174.6</ele>
        <time>2021-01-31 16:58:43</time>
      </trkpt>
      <trkpt lat="38.63441" lon="-0.09927">
        <ele>174.6</ele>
        <time>2021-01-31 16:58:44</time>
      </trkpt>
      <trkpt lat="38.63439" lon="-0.09917">
        <ele>174.2</ele>
        <time>2021-01-31 16:58:45</time>
      </trkpt>
      <trkpt lat="38.63436" lon="-0.09907">
        <ele>173.8</ele>
        <time>2021-01-31 16:58:46</time>
      </trkpt>
      <trkpt lat="38.63434" lon="-0.09896">
        <ele>173.8</ele>
        <time>2021-01-31 16:58:47</time>
      </trkpt>
      <trkpt lat="38.63432" lon="-0.09886">
        <ele>173.8</ele>
        <time>2021-01-31 16:58:48</time>
      </trkpt>
      <trkpt lat="38.63429" lon="-0.09875">
        <ele>174.8</ele>
        <time>2021-01-31 16:58:49</time>
      </trkpt>
      <trkpt lat="38.63427" lon="-0.09865">
        <ele>174.8</ele>
        <time>2021-01-31 16:58:50</time>
      </trkpt>
      <trkpt lat="38.63425" lon="-0.09854">
        <ele>174.8</ele>
        <time>2021-01-31 16:58:51</time>
      </trkpt>
      <trkpt lat="38.63422" lon="-0.09843">
        <ele>174.8</ele>
        <time>2021-01-31 16:58:52</time>
      </trkpt>
      <trkpt lat="38.63422" lon="-0.09843">
        <ele>174.8</ele>
        <time>2021-01-31 16:58:53</time>
      </trkpt>
      <trkpt lat="38.63422" lon="-0.09843">
        <ele>174.8</ele>
        <time>2021-01-31 16:58:54</time>
      </trkpt>
      <trkpt lat="38.63422" lon="-0.09843">
        <ele>171.4</ele>
        <time>2021-01-31 16:58:55</time>
      </trkpt>
      <trkpt lat="38.63419" lon="-0.09799">
        <ele>170.6</ele>
        <time>2021-01-31 16:58:56</time>
      </trkpt>
      <trkpt lat="38.63418" lon="-0.09788">
        <ele>170.6</ele>
        <time>2021-01-31 16:58:57</time>
      </trkpt>
      <trkpt lat="38.63418" lon="-0.09776">
        <ele>170.6</ele>
        <time>2021-01-31 16:58:58</time>
      </trkpt>
      <trkpt lat="38.63418" lon="-0.09764">
        <ele>170.6</ele>
        <time>2021-01-31 16:58:59</time>
      </trkpt>
      <trkpt lat="38.63418" lon="-0.09752">
        <ele>169.6</ele>
        <time>2021-01-31 16:59:00</time>
      </trkpt>
      <trkpt lat="38.63417" lon="-0.0974">
        <ele>168.6</ele>
        <time>2021-01-31 16:59:01</time>
      </trkpt>
      <trkpt lat="38.63417" lon="-0.09727">
        <ele>167.6</ele>
        <time>2021-01-31 16:59:02</time>
      </trkpt>
      <trkpt lat="38.63417" lon="-0.09715">
        <ele>167.6</ele>
        <time>2021-01-31 16:59:03</time>
      </trkpt>
      <trkpt lat="38.63417" lon="-0.09702">
        <ele>167.6</ele>
        <time>2021-01-31 16:59:04</time>
      </trkpt>
      <trkpt lat="38.63418" lon="-0.09689">
        <ele>167.6</ele>
        <time>2021-01-31 16:59:05</time>
      </trkpt>
      <trkpt lat="38.63419" lon="-0.09677">
        <ele>166.6</ele>
        <time>2021-01-31 16:59:06</time>
      </trkpt>
      <trkpt lat="38.63421" lon="-0.09664">
        <ele>165.6</ele>
        <time>2021-01-31 16:59:07</time>
      </trkpt>
      <trkpt lat="38.63424" lon="-0.09651">
        <ele>164.6</ele>
        <time>2021-01-31 16:59:08</time>
      </trkpt>
      <trkpt lat="38.63426" lon="-0.09637">
        <ele>163.6</ele>
        <time>2021-01-31 16:59:09</time>
      </trkpt>
      <trkpt lat="38.63428" lon="-0.09623">
        <ele>162.6</ele>
        <time>2021-01-31 16:59:10</time>
      </trkpt>
      <trkpt lat="38.63429" lon="-0.09609">
        <ele>162.6</ele>
        <time>2021-01-31 16:59:11</time>
      </trkpt>
      <trkpt lat="38.63429" lon="-0.09609">
        <ele>160.8</ele>
        <time>2021-01-31 16:59:12</time>
      </trkpt>
      <trkpt lat="38.63425" lon="-0.0958">
        <ele>160.8</ele>
        <time>2021-01-31 16:59:13</time>
      </trkpt>
      <trkpt lat="38.63425" lon="-0.0958">
        <ele>159</ele>
        <time>2021-01-31 16:59:14</time>
      </trkpt>
      <trkpt lat="38.6342" lon="-0.0955">
        <ele>159</ele>
        <time>2021-01-31 16:59:15</time>
      </trkpt>
      <trkpt lat="38.6342" lon="-0.0955">
        <ele>157</ele>
        <time>2021-01-31 16:59:16</time>
      </trkpt>
      <trkpt lat="38.63415" lon="-0.09519">
        <ele>157</ele>
        <time>2021-01-31 16:59:17</time>
      </trkpt>
      <trkpt lat="38.63415" lon="-0.09519">
        <ele>157</ele>
        <time>2021-01-31 16:59:18</time>
      </trkpt>
      <trkpt lat="38.63415" lon="-0.09519">
        <ele>154.2</ele>
        <time>2021-01-31 16:59:19</time>
      </trkpt>
      <trkpt lat="38.63407" lon="-0.09471">
        <ele>154.2</ele>
        <time>2021-01-31 16:59:20</time>
      </trkpt>
      <trkpt lat="38.63407" lon="-0.09471">
        <ele>154.2</ele>
        <time>2021-01-31 16:59:21</time>
      </trkpt>
      <trkpt lat="38.63407" lon="-0.09471">
        <ele>154.2</ele>
        <time>2021-01-31 16:59:22</time>
      </trkpt>
      <trkpt lat="38.63407" lon="-0.09471">
        <ele>150.2</ele>
        <time>2021-01-31 16:59:23</time>
      </trkpt>
      <trkpt lat="38.63395" lon="-0.09402">
        <ele>150.2</ele>
        <time>2021-01-31 16:59:24</time>
      </trkpt>
      <trkpt lat="38.63395" lon="-0.09402">
        <ele>150.2</ele>
        <time>2021-01-31 16:59:25</time>
      </trkpt>
      <trkpt lat="38.63395" lon="-0.09402">
        <ele>150.2</ele>
        <time>2021-01-31 16:59:26</time>
      </trkpt>
      <trkpt lat="38.63395" lon="-0.09402">
        <ele>146.2</ele>
        <time>2021-01-31 16:59:27</time>
      </trkpt>
      <trkpt lat="38.63383" lon="-0.0933">
        <ele>146.2</ele>
        <time>2021-01-31 16:59:28</time>
      </trkpt>
      <trkpt lat="38.63383" lon="-0.0933">
        <ele>146.2</ele>
        <time>2021-01-31 16:59:29</time>
      </trkpt>
      <trkpt lat="38.63383" lon="-0.0933">
        <ele>146.2</ele>
        <time>2021-01-31 16:59:30</time>
      </trkpt>
      <trkpt lat="38.63383" lon="-0.0933">
        <ele>142.2</ele>
        <time>2021-01-31 16:59:31</time>
      </trkpt>
      <trkpt lat="38.63368" lon="-0.09258">
        <ele>141.2</ele>
        <time>2021-01-31 16:59:32</time>
      </trkpt>
      <trkpt lat="38.63363" lon="-0.09241">
        <ele>140.2</ele>
        <time>2021-01-31 16:59:33</time>
      </trkpt>
      <trkpt lat="38.63356" lon="-0.09223">
        <ele>139.2</ele>
        <time>2021-01-31 16:59:34</time>
      </trkpt>
      <trkpt lat="38.6335" lon="-0.09206">
        <ele>138.2</ele>
        <time>2021-01-31 16:59:35</time>
      </trkpt>
      <trkpt lat="38.63343" lon="-0.09188">
        <ele>137.2</ele>
        <time>2021-01-31 16:59:36</time>
      </trkpt>
      <trkpt lat="38.63336" lon="-0.0917">
        <ele>136.2</ele>
        <time>2021-01-31 16:59:37</time>
      </trkpt>
      <trkpt lat="38.6333" lon="-0.09153">
        <ele>135.2</ele>
        <time>2021-01-31 16:59:38</time>
      </trkpt>
      <trkpt lat="38.63323" lon="-0.09135">
        <ele>134.2</ele>
        <time>2021-01-31 16:59:39</time>
      </trkpt>
      <trkpt lat="38.63317" lon="-0.09118">
        <ele>133.2</ele>
        <time>2021-01-31 16:59:40</time>
      </trkpt>
      <trkpt lat="38.63311" lon="-0.091">
        <ele>132.2</ele>
        <time>2021-01-31 16:59:41</time>
      </trkpt>
      <trkpt lat="38.63304" lon="-0.09083">
        <ele>131.2</ele>
        <time>2021-01-31 16:59:42</time>
      </trkpt>
      <trkpt lat="38.63298" lon="-0.09066">
        <ele>130.4</ele>
        <time>2021-01-31 16:59:43</time>
      </trkpt>
      <trkpt lat="38.63292" lon="-0.09049">
        <ele>130.4</ele>
        <time>2021-01-31 16:59:44</time>
      </trkpt>
      <trkpt lat="38.63292" lon="-0.09049">
        <ele>128.4</ele>
        <time>2021-01-31 16:59:45</time>
      </trkpt>
      <trkpt lat="38.63279" lon="-0.09016">
        <ele>128.4</ele>
        <time>2021-01-31 16:59:46</time>
      </trkpt>
      <trkpt lat="38.63279" lon="-0.09016">
        <ele>126.4</ele>
        <time>2021-01-31 16:59:47</time>
      </trkpt>
      <trkpt lat="38.63267" lon="-0.08984">
        <ele>126.4</ele>
        <time>2021-01-31 16:59:48</time>
      </trkpt>
      <trkpt lat="38.63267" lon="-0.08984">
        <ele>126</ele>
        <time>2021-01-31 16:59:49</time>
      </trkpt>
      <trkpt lat="38.63256" lon="-0.08953">
        <ele>126</ele>
        <time>2021-01-31 16:59:50</time>
      </trkpt>
      <trkpt lat="38.63256" lon="-0.08953">
        <ele>126</ele>
        <time>2021-01-31 16:59:51</time>
      </trkpt>
      <trkpt lat="38.63245" lon="-0.08923">
        <ele>126</ele>
        <time>2021-01-31 16:59:52</time>
      </trkpt>
      <trkpt lat="38.63245" lon="-0.08923">
        <ele>126</ele>
        <time>2021-01-31 16:59:53</time>
      </trkpt>
      <trkpt lat="38.63235" lon="-0.08894">
        <ele>126</ele>
        <time>2021-01-31 16:59:54</time>
      </trkpt>
      <trkpt lat="38.63235" lon="-0.08894">
        <ele>124.2</ele>
        <time>2021-01-31 16:59:55</time>
      </trkpt>
      <trkpt lat="38.63226" lon="-0.08864">
        <ele>124.2</ele>
        <time>2021-01-31 16:59:56</time>
      </trkpt>
      <trkpt lat="38.63226" lon="-0.08864">
        <ele>124.2</ele>
        <time>2021-01-31 16:59:57</time>
      </trkpt>
      <trkpt lat="38.63221" lon="-0.08834">
        <ele>124.2</ele>
        <time>2021-01-31 16:59:58</time>
      </trkpt>
      <trkpt lat="38.63221" lon="-0.08834">
        <ele>124.2</ele>
        <time>2021-01-31 16:59:59</time>
      </trkpt>
      <trkpt lat="38.63217" lon="-0.08805">
        <ele>124.2</ele>
        <time>2021-01-31 17:00:00</time>
      </trkpt>
      <trkpt lat="38.63217" lon="-0.08805">
        <ele>123.2</ele>
        <time>2021-01-31 17:00:01</time>
      </trkpt>
      <trkpt lat="38.63214" lon="-0.08777">
        <ele>123.2</ele>
        <time>2021-01-31 17:00:02</time>
      </trkpt>
      <trkpt lat="38.63214" lon="-0.08777">
        <ele>123.2</ele>
        <time>2021-01-31 17:00:03</time>
      </trkpt>
      <trkpt lat="38.63211" lon="-0.0875">
        <ele>123.2</ele>
        <time>2021-01-31 17:00:04</time>
      </trkpt>
      <trkpt lat="38.63211" lon="-0.0875">
        <ele>123.2</ele>
        <time>2021-01-31 17:00:05</time>
      </trkpt>
      <trkpt lat="38.63208" lon="-0.08724">
        <ele>123.2</ele>
        <time>2021-01-31 17:00:06</time>
      </trkpt>
      <trkpt lat="38.63208" lon="-0.08724">
        <ele>123.2</ele>
        <time>2021-01-31 17:00:07</time>
      </trkpt>
      <trkpt lat="38.63206" lon="-0.08699">
        <ele>123.2</ele>
        <time>2021-01-31 17:00:08</time>
      </trkpt>
      <trkpt lat="38.63206" lon="-0.08699">
        <ele>122.2</ele>
        <time>2021-01-31 17:00:09</time>
      </trkpt>
      <trkpt lat="38.63205" lon="-0.08673">
        <ele>122.2</ele>
        <time>2021-01-31 17:00:10</time>
      </trkpt>
      <trkpt lat="38.63205" lon="-0.08673">
        <ele>122</ele>
        <time>2021-01-31 17:00:11</time>
      </trkpt>
      <trkpt lat="38.63205" lon="-0.08648">
        <ele>122</ele>
        <time>2021-01-31 17:00:12</time>
      </trkpt>
      <trkpt lat="38.63205" lon="-0.08648">
        <ele>121.2</ele>
        <time>2021-01-31 17:00:13</time>
      </trkpt>
      <trkpt lat="38.63204" lon="-0.08624">
        <ele>121.2</ele>
        <time>2021-01-31 17:00:14</time>
      </trkpt>
      <trkpt lat="38.63204" lon="-0.08624">
        <ele>120.2</ele>
        <time>2021-01-31 17:00:15</time>
      </trkpt>
      <trkpt lat="38.63203" lon="-0.08601">
        <ele>120.2</ele>
        <time>2021-01-31 17:00:16</time>
      </trkpt>
      <trkpt lat="38.63203" lon="-0.08601">
        <ele>120.2</ele>
        <time>2021-01-31 17:00:17</time>
      </trkpt>
      <trkpt lat="38.63202" lon="-0.08578">
        <ele>120.2</ele>
        <time>2021-01-31 17:00:18</time>
      </trkpt>
      <trkpt lat="38.63202" lon="-0.08578">
        <ele>121.2</ele>
        <time>2021-01-31 17:00:19</time>
      </trkpt>
      <trkpt lat="38.63202" lon="-0.08556">
        <ele>121.2</ele>
        <time>2021-01-31 17:00:20</time>
      </trkpt>
      <trkpt lat="38.63202" lon="-0.08556">
        <ele>121.2</ele>
        <time>2021-01-31 17:00:21</time>
      </trkpt>
      <trkpt lat="38.63201" lon="-0.08535">
        <ele>121.2</ele>
        <time>2021-01-31 17:00:22</time>
      </trkpt>
      <trkpt lat="38.63201" lon="-0.08535">
        <ele>121.2</ele>
        <time>2021-01-31 17:00:23</time>
      </trkpt>
      <trkpt lat="38.63194" lon="-0.08516">
        <ele>121.2</ele>
        <time>2021-01-31 17:00:24</time>
      </trkpt>
      <trkpt lat="38.63194" lon="-0.08516">
        <ele>121.2</ele>
        <time>2021-01-31 17:00:25</time>
      </trkpt>
      <trkpt lat="38.63194" lon="-0.08516">
        <ele>121.2</ele>
        <time>2021-01-31 17:00:26</time>
      </trkpt>
      <trkpt lat="38.63194" lon="-0.08516">
        <ele>119</ele>
        <time>2021-01-31 17:00:27</time>
      </trkpt>
      <trkpt lat="38.63173" lon="-0.08482">
        <ele>119</ele>
        <time>2021-01-31 17:00:28</time>
      </trkpt>
      <trkpt lat="38.63173" lon="-0.08482">
        <ele>119.8</ele>
        <time>2021-01-31 17:00:29</time>
      </trkpt>
      <trkpt lat="38.63163" lon="-0.08465">
        <ele>119.8</ele>
        <time>2021-01-31 17:00:30</time>
      </trkpt>
      <trkpt lat="38.63163" lon="-0.08465">
        <ele>120.4</ele>
        <time>2021-01-31 17:00:31</time>
      </trkpt>
      <trkpt lat="38.63152" lon="-0.08447">
        <ele>120.4</ele>
        <time>2021-01-31 17:00:32</time>
      </trkpt>
      <trkpt lat="38.63152" lon="-0.08447">
        <ele>119.4</ele>
        <time>2021-01-31 17:00:33</time>
      </trkpt>
      <trkpt lat="38.6314" lon="-0.08428">
        <ele>119.4</ele>
        <time>2021-01-31 17:00:34</time>
      </trkpt>
      <trkpt lat="38.6314" lon="-0.08428">
        <ele>117.4</ele>
        <time>2021-01-31 17:00:35</time>
      </trkpt>
      <trkpt lat="38.63128" lon="-0.08409">
        <ele>117.4</ele>
        <time>2021-01-31 17:00:36</time>
      </trkpt>
      <trkpt lat="38.63128" lon="-0.08409">
        <ele>115.6</ele>
        <time>2021-01-31 17:00:37</time>
      </trkpt>
      <trkpt lat="38.63117" lon="-0.08391">
        <ele>115.6</ele>
        <time>2021-01-31 17:00:38</time>
      </trkpt>
      <trkpt lat="38.63117" lon="-0.08391">
        <ele>115.6</ele>
        <time>2021-01-31 17:00:39</time>
      </trkpt>
      <trkpt lat="38.63105" lon="-0.08373">
        <ele>115.6</ele>
        <time>2021-01-31 17:00:40</time>
      </trkpt>
      <trkpt lat="38.63105" lon="-0.08373">
        <ele>114.6</ele>
        <time>2021-01-31 17:00:41</time>
      </trkpt>
      <trkpt lat="38.63093" lon="-0.08355">
        <ele>114.6</ele>
        <time>2021-01-31 17:00:42</time>
      </trkpt>
      <trkpt lat="38.63093" lon="-0.08355">
        <ele>113.6</ele>
        <time>2021-01-31 17:00:43</time>
      </trkpt>
      <trkpt lat="38.63081" lon="-0.08336">
        <ele>113.6</ele>
        <time>2021-01-31 17:00:44</time>
      </trkpt>
      <trkpt lat="38.63081" lon="-0.08336">
        <ele>113.4</ele>
        <time>2021-01-31 17:00:45</time>
      </trkpt>
      <trkpt lat="38.63072" lon="-0.08315">
        <ele>113.4</ele>
        <time>2021-01-31 17:00:46</time>
      </trkpt>
      <trkpt lat="38.63072" lon="-0.08315">
        <ele>113.4</ele>
        <time>2021-01-31 17:00:47</time>
      </trkpt>
      <trkpt lat="38.63065" lon="-0.08293">
        <ele>113.4</ele>
        <time>2021-01-31 17:00:48</time>
      </trkpt>
      <trkpt lat="38.63065" lon="-0.08293">
        <ele>113.4</ele>
        <time>2021-01-31 17:00:49</time>
      </trkpt>
      <trkpt lat="38.6306" lon="-0.0827">
        <ele>113.4</ele>
        <time>2021-01-31 17:00:50</time>
      </trkpt>
      <trkpt lat="38.6306" lon="-0.0827">
        <ele>112.2</ele>
        <time>2021-01-31 17:00:51</time>
      </trkpt>
      <trkpt lat="38.63055" lon="-0.08246">
        <ele>112.2</ele>
        <time>2021-01-31 17:00:52</time>
      </trkpt>
      <trkpt lat="38.63052" lon="-0.08235">
        <ele>111.8</ele>
        <time>2021-01-31 17:00:53</time>
      </trkpt>
      <trkpt lat="38.63052" lon="-0.08235">
        <ele>110.8</ele>
        <time>2021-01-31 17:00:54</time>
      </trkpt>
      <trkpt lat="38.63047" lon="-0.08211">
        <ele>110.8</ele>
        <time>2021-01-31 17:00:55</time>
      </trkpt>
      <trkpt lat="38.63047" lon="-0.08211">
        <ele>110.8</ele>
        <time>2021-01-31 17:00:56</time>
      </trkpt>
      <trkpt lat="38.63047" lon="-0.08211">
        <ele>110.8</ele>
        <time>2021-01-31 17:00:57</time>
      </trkpt>
      <trkpt lat="38.63047" lon="-0.08211">
        <ele>110.8</ele>
        <time>2021-01-31 17:00:58</time>
      </trkpt>
      <trkpt lat="38.63037" lon="-0.08167">
        <ele>110.6</ele>
        <time>2021-01-31 17:00:59</time>
      </trkpt>
      <trkpt lat="38.63034" lon="-0.08156">
        <ele>110.2</ele>
        <time>2021-01-31 17:01:00</time>
      </trkpt>
      <trkpt lat="38.63032" lon="-0.08145">
        <ele>109.8</ele>
        <time>2021-01-31 17:01:01</time>
      </trkpt>
      <trkpt lat="38.63031" lon="-0.08134">
        <ele>109.8</ele>
        <time>2021-01-31 17:01:02</time>
      </trkpt>
      <trkpt lat="38.6303" lon="-0.08123">
        <ele>109.8</ele>
        <time>2021-01-31 17:01:03</time>
      </trkpt>
      <trkpt lat="38.63029" lon="-0.08112">
        <ele>110</ele>
        <time>2021-01-31 17:01:04</time>
      </trkpt>
      <trkpt lat="38.63028" lon="-0.081">
        <ele>110</ele>
        <time>2021-01-31 17:01:05</time>
      </trkpt>
      <trkpt lat="38.63028" lon="-0.08089">
        <ele>110</ele>
        <time>2021-01-31 17:01:06</time>
      </trkpt>
      <trkpt lat="38.63027" lon="-0.08078">
        <ele>109</ele>
        <time>2021-01-31 17:01:07</time>
      </trkpt>
      <trkpt lat="38.63027" lon="-0.08067">
        <ele>108</ele>
        <time>2021-01-31 17:01:08</time>
      </trkpt>
      <trkpt lat="38.63026" lon="-0.08055">
        <ele>107</ele>
        <time>2021-01-31 17:01:09</time>
      </trkpt>
      <trkpt lat="38.63026" lon="-0.08043">
        <ele>106</ele>
        <time>2021-01-31 17:01:10</time>
      </trkpt>
      <trkpt lat="38.63026" lon="-0.08031">
        <ele>105</ele>
        <time>2021-01-31 17:01:11</time>
      </trkpt>
      <trkpt lat="38.63025" lon="-0.08019">
        <ele>104</ele>
        <time>2021-01-31 17:01:12</time>
      </trkpt>
      <trkpt lat="38.63025" lon="-0.08006">
        <ele>103</ele>
        <time>2021-01-31 17:01:13</time>
      </trkpt>
      <trkpt lat="38.63025" lon="-0.07993">
        <ele>102</ele>
        <time>2021-01-31 17:01:14</time>
      </trkpt>
      <trkpt lat="38.63024" lon="-0.0798">
        <ele>101</ele>
        <time>2021-01-31 17:01:15</time>
      </trkpt>
      <trkpt lat="38.63024" lon="-0.07967">
        <ele>100</ele>
        <time>2021-01-31 17:01:16</time>
      </trkpt>
      <trkpt lat="38.63024" lon="-0.07954">
        <ele>100</ele>
        <time>2021-01-31 17:01:17</time>
      </trkpt>
      <trkpt lat="38.63024" lon="-0.07954">
        <ele>99</ele>
        <time>2021-01-31 17:01:18</time>
      </trkpt>
      <trkpt lat="38.63023" lon="-0.07928">
        <ele>99</ele>
        <time>2021-01-31 17:01:19</time>
      </trkpt>
      <trkpt lat="38.63023" lon="-0.07928">
        <ele>98.4</ele>
        <time>2021-01-31 17:01:20</time>
      </trkpt>
      <trkpt lat="38.63022" lon="-0.07903">
        <ele>98.4</ele>
        <time>2021-01-31 17:01:21</time>
      </trkpt>
      <trkpt lat="38.63022" lon="-0.07903">
        <ele>99.4</ele>
        <time>2021-01-31 17:01:22</time>
      </trkpt>
      <trkpt lat="38.63024" lon="-0.07879">
        <ele>99.4</ele>
        <time>2021-01-31 17:01:23</time>
      </trkpt>
      <trkpt lat="38.63024" lon="-0.07879">
        <ele>99.4</ele>
        <time>2021-01-31 17:01:24</time>
      </trkpt>
      <trkpt lat="38.63024" lon="-0.07879">
        <ele>99.4</ele>
        <time>2021-01-31 17:01:25</time>
      </trkpt>
      <trkpt lat="38.63024" lon="-0.07879">
        <ele>99.8</ele>
        <time>2021-01-31 17:01:26</time>
      </trkpt>
      <trkpt lat="38.63047" lon="-0.07844">
        <ele>99.8</ele>
        <time>2021-01-31 17:01:27</time>
      </trkpt>
      <trkpt lat="38.63055" lon="-0.07837">
        <ele>100.2</ele>
        <time>2021-01-31 17:01:28</time>
      </trkpt>
      <trkpt lat="38.63063" lon="-0.07832">
        <ele>100.2</ele>
        <time>2021-01-31 17:01:29</time>
      </trkpt>
      <trkpt lat="38.63072" lon="-0.07826">
        <ele>100.2</ele>
        <time>2021-01-31 17:01:30</time>
      </trkpt>
      <trkpt lat="38.6308" lon="-0.07821">
        <ele>100.2</ele>
        <time>2021-01-31 17:01:31</time>
      </trkpt>
      <trkpt lat="38.63089" lon="-0.07815">
        <ele>101</ele>
        <time>2021-01-31 17:01:32</time>
      </trkpt>
      <trkpt lat="38.63098" lon="-0.0781">
        <ele>101</ele>
        <time>2021-01-31 17:01:33</time>
      </trkpt>
      <trkpt lat="38.63106" lon="-0.07805">
        <ele>101</ele>
        <time>2021-01-31 17:01:34</time>
      </trkpt>
      <trkpt lat="38.63114" lon="-0.07799">
        <ele>101</ele>
        <time>2021-01-31 17:01:35</time>
      </trkpt>
      <trkpt lat="38.63123" lon="-0.07794">
        <ele>101</ele>
        <time>2021-01-31 17:01:36</time>
      </trkpt>
      <trkpt lat="38.63131" lon="-0.07788">
        <ele>101</ele>
        <time>2021-01-31 17:01:37</time>
      </trkpt>
      <trkpt lat="38.63139" lon="-0.07783">
        <ele>101.2</ele>
        <time>2021-01-31 17:01:38</time>
      </trkpt>
      <trkpt lat="38.63148" lon="-0.07777">
        <ele>101.6</ele>
        <time>2021-01-31 17:01:39</time>
      </trkpt>
      <trkpt lat="38.63156" lon="-0.07772">
        <ele>102</ele>
        <time>2021-01-31 17:01:40</time>
      </trkpt>
      <trkpt lat="38.63164" lon="-0.07766">
        <ele>102.2</ele>
        <time>2021-01-31 17:01:41</time>
      </trkpt>
      <trkpt lat="38.63172" lon="-0.0776">
        <ele>103.2</ele>
        <time>2021-01-31 17:01:42</time>
      </trkpt>
      <trkpt lat="38.6318" lon="-0.07755">
        <ele>104.2</ele>
        <time>2021-01-31 17:01:43</time>
      </trkpt>
      <trkpt lat="38.63187" lon="-0.07751">
        <ele>104.8</ele>
        <time>2021-01-31 17:01:44</time>
      </trkpt>
      <trkpt lat="38.63194" lon="-0.07746">
        <ele>104.8</ele>
        <time>2021-01-31 17:01:45</time>
      </trkpt>
      <trkpt lat="38.63194" lon="-0.07746">
        <ele>104.8</ele>
        <time>2021-01-31 17:01:46</time>
      </trkpt>
      <trkpt lat="38.63194" lon="-0.07746">
        <ele>104.8</ele>
        <time>2021-01-31 17:01:47</time>
      </trkpt>
      <trkpt lat="38.63194" lon="-0.07746">
        <ele>106.4</ele>
        <time>2021-01-31 17:01:48</time>
      </trkpt>
      <trkpt lat="38.63217" lon="-0.07726">
        <ele>106.4</ele>
        <time>2021-01-31 17:01:49</time>
      </trkpt>
      <trkpt lat="38.63217" lon="-0.07726">
        <ele>107.4</ele>
        <time>2021-01-31 17:01:50</time>
      </trkpt>
      <trkpt lat="38.63224" lon="-0.07714">
        <ele>108.4</ele>
        <time>2021-01-31 17:01:51</time>
      </trkpt>
      <trkpt lat="38.63226" lon="-0.07708">
        <ele>109.4</ele>
        <time>2021-01-31 17:01:52</time>
      </trkpt>
      <trkpt lat="38.63229" lon="-0.07702">
        <ele>110.2</ele>
        <time>2021-01-31 17:01:53</time>
      </trkpt>
      <trkpt lat="38.63231" lon="-0.07696">
        <ele>110.6</ele>
        <time>2021-01-31 17:01:54</time>
      </trkpt>
      <trkpt lat="38.63233" lon="-0.0769">
        <ele>110.6</ele>
        <time>2021-01-31 17:01:55</time>
      </trkpt>
      <trkpt lat="38.63233" lon="-0.0769">
        <ele>110.6</ele>
        <time>2021-01-31 17:01:56</time>
      </trkpt>
      <trkpt lat="38.63233" lon="-0.0769">
        <ele>110.6</ele>
        <time>2021-01-31 17:01:57</time>
      </trkpt>
      <trkpt lat="38.63233" lon="-0.0769">
        <ele>110.4</ele>
        <time>2021-01-31 17:01:58</time>
      </trkpt>
      <trkpt lat="38.63247" lon="-0.0767">
        <ele>110.4</ele>
        <time>2021-01-31 17:01:59</time>
      </trkpt>
      <trkpt lat="38.63252" lon="-0.07666">
        <ele>110.4</ele>
        <time>2021-01-31 17:02:00</time>
      </trkpt>
      <trkpt lat="38.63256" lon="-0.07661">
        <ele>111</ele>
        <time>2021-01-31 17:02:01</time>
      </trkpt>
      <trkpt lat="38.63262" lon="-0.07657">
        <ele>111.2</ele>
        <time>2021-01-31 17:02:02</time>
      </trkpt>
      <trkpt lat="38.63267" lon="-0.07654">
        <ele>111.2</ele>
        <time>2021-01-31 17:02:03</time>
      </trkpt>
      <trkpt lat="38.63272" lon="-0.0765">
        <ele>111.2</ele>
        <time>2021-01-31 17:02:04</time>
      </trkpt>
      <trkpt lat="38.63276" lon="-0.07646">
        <ele>110.4</ele>
        <time>2021-01-31 17:02:05</time>
      </trkpt>
      <trkpt lat="38.63282" lon="-0.07642">
        <ele>110.4</ele>
        <time>2021-01-31 17:02:06</time>
      </trkpt>
      <trkpt lat="38.63287" lon="-0.07637">
        <ele>110.4</ele>
        <time>2021-01-31 17:02:07</time>
      </trkpt>
      <trkpt lat="38.63291" lon="-0.07632">
        <ele>111</ele>
        <time>2021-01-31 17:02:08</time>
      </trkpt>
      <trkpt lat="38.63295" lon="-0.07627">
        <ele>111.4</ele>
        <time>2021-01-31 17:02:09</time>
      </trkpt>
      <trkpt lat="38.63299" lon="-0.07621">
        <ele>112.2</ele>
        <time>2021-01-31 17:02:10</time>
      </trkpt>
      <trkpt lat="38.63302" lon="-0.07615">
        <ele>112.2</ele>
        <time>2021-01-31 17:02:11</time>
      </trkpt>
      <trkpt lat="38.63304" lon="-0.07608">
        <ele>112.2</ele>
        <time>2021-01-31 17:02:12</time>
      </trkpt>
      <trkpt lat="38.63304" lon="-0.07608">
        <ele>112.2</ele>
        <time>2021-01-31 17:02:13</time>
      </trkpt>
      <trkpt lat="38.63306" lon="-0.07595">
        <ele>112.2</ele>
        <time>2021-01-31 17:02:14</time>
      </trkpt>
      <trkpt lat="38.63306" lon="-0.07589">
        <ele>113.2</ele>
        <time>2021-01-31 17:02:15</time>
      </trkpt>
      <trkpt lat="38.63307" lon="-0.07584">
        <ele>113.8</ele>
        <time>2021-01-31 17:02:16</time>
      </trkpt>
      <trkpt lat="38.63307" lon="-0.07578">
        <ele>114</ele>
        <time>2021-01-31 17:02:17</time>
      </trkpt>
      <trkpt lat="38.63308" lon="-0.07573">
        <ele>114.2</ele>
        <time>2021-01-31 17:02:18</time>
      </trkpt>
      <trkpt lat="38.63308" lon="-0.07568">
        <ele>114.6</ele>
        <time>2021-01-31 17:02:19</time>
      </trkpt>
      <trkpt lat="38.63308" lon="-0.07563">
        <ele>114.8</ele>
        <time>2021-01-31 17:02:20</time>
      </trkpt>
      <trkpt lat="38.63309" lon="-0.07558">
        <ele>115.2</ele>
        <time>2021-01-31 17:02:21</time>
      </trkpt>
      <trkpt lat="38.63309" lon="-0.07553">
        <ele>115.8</ele>
        <time>2021-01-31 17:02:22</time>
      </trkpt>
      <trkpt lat="38.63309" lon="-0.07548">
        <ele>115.8</ele>
        <time>2021-01-31 17:02:23</time>
      </trkpt>
      <trkpt lat="38.63309" lon="-0.07543">
        <ele>115.8</ele>
        <time>2021-01-31 17:02:24</time>
      </trkpt>
      <trkpt lat="38.63309" lon="-0.07538">
        <ele>115.8</ele>
        <time>2021-01-31 17:02:25</time>
      </trkpt>
      <trkpt lat="38.6331" lon="-0.07533">
        <ele>116.4</ele>
        <time>2021-01-31 17:02:26</time>
      </trkpt>
      <trkpt lat="38.6331" lon="-0.07528">
        <ele>116.4</ele>
        <time>2021-01-31 17:02:27</time>
      </trkpt>
      <trkpt lat="38.6331" lon="-0.07523">
        <ele>116.4</ele>
        <time>2021-01-31 17:02:28</time>
      </trkpt>
      <trkpt lat="38.6331" lon="-0.07518">
        <ele>116.4</ele>
        <time>2021-01-31 17:02:29</time>
      </trkpt>
      <trkpt lat="38.63309" lon="-0.07513">
        <ele>117</ele>
        <time>2021-01-31 17:02:30</time>
      </trkpt>
      <trkpt lat="38.63309" lon="-0.07508">
        <ele>117.2</ele>
        <time>2021-01-31 17:02:31</time>
      </trkpt>
      <trkpt lat="38.63308" lon="-0.07504">
        <ele>117.4</ele>
        <time>2021-01-31 17:02:32</time>
      </trkpt>
      <trkpt lat="38.63307" lon="-0.075">
        <ele>117.4</ele>
        <time>2021-01-31 17:02:33</time>
      </trkpt>
      <trkpt lat="38.63306" lon="-0.07495">
        <ele>117.4</ele>
        <time>2021-01-31 17:02:34</time>
      </trkpt>
      <trkpt lat="38.63305" lon="-0.0749">
        <ele>117.4</ele>
        <time>2021-01-31 17:02:35</time>
      </trkpt>
      <trkpt lat="38.63304" lon="-0.07484">
        <ele>117.4</ele>
        <time>2021-01-31 17:02:36</time>
      </trkpt>
      <trkpt lat="38.63303" lon="-0.07479">
        <ele>117.4</ele>
        <time>2021-01-31 17:02:37</time>
      </trkpt>
      <trkpt lat="38.63301" lon="-0.07474">
        <ele>117.8</ele>
        <time>2021-01-31 17:02:38</time>
      </trkpt>
      <trkpt lat="38.633" lon="-0.07469">
        <ele>117.8</ele>
        <time>2021-01-31 17:02:39</time>
      </trkpt>
      <trkpt lat="38.63299" lon="-0.07465">
        <ele>117.8</ele>
        <time>2021-01-31 17:02:40</time>
      </trkpt>
      <trkpt lat="38.63297" lon="-0.0746">
        <ele>117.8</ele>
        <time>2021-01-31 17:02:41</time>
      </trkpt>
      <trkpt lat="38.63296" lon="-0.07454">
        <ele>117.8</ele>
        <time>2021-01-31 17:02:42</time>
      </trkpt>
      <trkpt lat="38.63295" lon="-0.07449">
        <ele>118.4</ele>
        <time>2021-01-31 17:02:43</time>
      </trkpt>
      <trkpt lat="38.63294" lon="-0.07445">
        <ele>119</ele>
        <time>2021-01-31 17:02:44</time>
      </trkpt>
      <trkpt lat="38.63292" lon="-0.0744">
        <ele>119</ele>
        <time>2021-01-31 17:02:45</time>
      </trkpt>
      <trkpt lat="38.63291" lon="-0.07435">
        <ele>119</ele>
        <time>2021-01-31 17:02:46</time>
      </trkpt>
      <trkpt lat="38.6329" lon="-0.0743">
        <ele>118.4</ele>
        <time>2021-01-31 17:02:47</time>
      </trkpt>
      <trkpt lat="38.63289" lon="-0.07425">
        <ele>118.4</ele>
        <time>2021-01-31 17:02:48</time>
      </trkpt>
      <trkpt lat="38.63287" lon="-0.07419">
        <ele>117.4</ele>
        <time>2021-01-31 17:02:49</time>
      </trkpt>
      <trkpt lat="38.63286" lon="-0.07412">
        <ele>117.4</ele>
        <time>2021-01-31 17:02:50</time>
      </trkpt>
      <trkpt lat="38.63286" lon="-0.07412">
        <ele>117.4</ele>
        <time>2021-01-31 17:02:51</time>
      </trkpt>
      <trkpt lat="38.63286" lon="-0.07412">
        <ele>117.4</ele>
        <time>2021-01-31 17:02:52</time>
      </trkpt>
      <trkpt lat="38.63286" lon="-0.07412">
        <ele>115</ele>
        <time>2021-01-31 17:02:53</time>
      </trkpt>
      <trkpt lat="38.6328" lon="-0.07379">
        <ele>115</ele>
        <time>2021-01-31 17:02:54</time>
      </trkpt>
      <trkpt lat="38.63278" lon="-0.07369">
        <ele>115</ele>
        <time>2021-01-31 17:02:55</time>
      </trkpt>
      <trkpt lat="38.63277" lon="-0.07359">
        <ele>115</ele>
        <time>2021-01-31 17:02:56</time>
      </trkpt>
      <trkpt lat="38.63275" lon="-0.07349">
        <ele>114.6</ele>
        <time>2021-01-31 17:02:57</time>
      </trkpt>
      <trkpt lat="38.63274" lon="-0.0734">
        <ele>114.6</ele>
        <time>2021-01-31 17:02:58</time>
      </trkpt>
      <trkpt lat="38.63272" lon="-0.0733">
        <ele>114.6</ele>
        <time>2021-01-31 17:02:59</time>
      </trkpt>
      <trkpt lat="38.63271" lon="-0.0732">
        <ele>114.6</ele>
        <time>2021-01-31 17:03:00</time>
      </trkpt>
      <trkpt lat="38.63269" lon="-0.07311">
        <ele>114.6</ele>
        <time>2021-01-31 17:03:01</time>
      </trkpt>
      <trkpt lat="38.63268" lon="-0.07302">
        <ele>114.6</ele>
        <time>2021-01-31 17:03:02</time>
      </trkpt>
      <trkpt lat="38.63266" lon="-0.07293">
        <ele>115.6</ele>
        <time>2021-01-31 17:03:03</time>
      </trkpt>
      <trkpt lat="38.63265" lon="-0.07285">
        <ele>116.2</ele>
        <time>2021-01-31 17:03:04</time>
      </trkpt>
      <trkpt lat="38.63264" lon="-0.07277">
        <ele>116.2</ele>
        <time>2021-01-31 17:03:05</time>
      </trkpt>
      <trkpt lat="38.63263" lon="-0.07269">
        <ele>116.2</ele>
        <time>2021-01-31 17:03:06</time>
      </trkpt>
      <trkpt lat="38.63261" lon="-0.07262">
        <ele>116.2</ele>
        <time>2021-01-31 17:03:07</time>
      </trkpt>
      <trkpt lat="38.6326" lon="-0.07254">
        <ele>116.2</ele>
        <time>2021-01-31 17:03:08</time>
      </trkpt>
      <trkpt lat="38.63259" lon="-0.07245">
        <ele>115.2</ele>
        <time>2021-01-31 17:03:09</time>
      </trkpt>
      <trkpt lat="38.63258" lon="-0.07236">
        <ele>115</ele>
        <time>2021-01-31 17:03:10</time>
      </trkpt>
      <trkpt lat="38.63256" lon="-0.07227">
        <ele>114.2</ele>
        <time>2021-01-31 17:03:11</time>
      </trkpt>
      <trkpt lat="38.63255" lon="-0.07217">
        <ele>113.8</ele>
        <time>2021-01-31 17:03:12</time>
      </trkpt>
      <trkpt lat="38.63253" lon="-0.07207">
        <ele>113.8</ele>
        <time>2021-01-31 17:03:13</time>
      </trkpt>
      <trkpt lat="38.63252" lon="-0.07197">
        <ele>113.8</ele>
        <time>2021-01-31 17:03:14</time>
      </trkpt>
      <trkpt lat="38.6325" lon="-0.07187">
        <ele>113.8</ele>
        <time>2021-01-31 17:03:15</time>
      </trkpt>
      <trkpt lat="38.63249" lon="-0.07177">
        <ele>113.8</ele>
        <time>2021-01-31 17:03:16</time>
      </trkpt>
      <trkpt lat="38.63247" lon="-0.07166">
        <ele>113.8</ele>
        <time>2021-01-31 17:03:17</time>
      </trkpt>
      <trkpt lat="38.63246" lon="-0.07156">
        <ele>113.8</ele>
        <time>2021-01-31 17:03:18</time>
      </trkpt>
      <trkpt lat="38.63244" lon="-0.07146">
        <ele>113.2</ele>
        <time>2021-01-31 17:03:19</time>
      </trkpt>
      <trkpt lat="38.63243" lon="-0.07136">
        <ele>112.2</ele>
        <time>2021-01-31 17:03:20</time>
      </trkpt>
      <trkpt lat="38.63241" lon="-0.07126">
        <ele>112.2</ele>
        <time>2021-01-31 17:03:21</time>
      </trkpt>
      <trkpt lat="38.6324" lon="-0.07116">
        <ele>112.2</ele>
        <time>2021-01-31 17:03:22</time>
      </trkpt>
      <trkpt lat="38.63239" lon="-0.07106">
        <ele>113.2</ele>
        <time>2021-01-31 17:03:23</time>
      </trkpt>
      <trkpt lat="38.63237" lon="-0.07096">
        <ele>113.2</ele>
        <time>2021-01-31 17:03:24</time>
      </trkpt>
      <trkpt lat="38.63235" lon="-0.07086">
        <ele>113.2</ele>
        <time>2021-01-31 17:03:25</time>
      </trkpt>
      <trkpt lat="38.63233" lon="-0.07076">
        <ele>113.2</ele>
        <time>2021-01-31 17:03:26</time>
      </trkpt>
      <trkpt lat="38.6323" lon="-0.07067">
        <ele>113.4</ele>
        <time>2021-01-31 17:03:27</time>
      </trkpt>
      <trkpt lat="38.63225" lon="-0.07059">
        <ele>113.4</ele>
        <time>2021-01-31 17:03:28</time>
      </trkpt>
      <trkpt lat="38.63219" lon="-0.07052">
        <ele>113.4</ele>
        <time>2021-01-31 17:03:29</time>
      </trkpt>
      <trkpt lat="38.63213" lon="-0.07048">
        <ele>113.4</ele>
        <time>2021-01-31 17:03:30</time>
      </trkpt>
      <trkpt lat="38.63206" lon="-0.07047">
        <ele>114.4</ele>
        <time>2021-01-31 17:03:31</time>
      </trkpt>
      <trkpt lat="38.632" lon="-0.07046">
        <ele>115.4</ele>
        <time>2021-01-31 17:03:32</time>
      </trkpt>
      <trkpt lat="38.63195" lon="-0.07046">
        <ele>116.4</ele>
        <time>2021-01-31 17:03:33</time>
      </trkpt>
      <trkpt lat="38.6319" lon="-0.07046">
        <ele>117</ele>
        <time>2021-01-31 17:03:34</time>
      </trkpt>
      <trkpt lat="38.63186" lon="-0.07047">
        <ele>117.6</ele>
        <time>2021-01-31 17:03:35</time>
      </trkpt>
      <trkpt lat="38.63181" lon="-0.07047">
        <ele>118.6</ele>
        <time>2021-01-31 17:03:36</time>
      </trkpt>
      <trkpt lat="38.63177" lon="-0.07046">
        <ele>119.2</ele>
        <time>2021-01-31 17:03:37</time>
      </trkpt>
      <trkpt lat="38.63173" lon="-0.07046">
        <ele>119.6</ele>
        <time>2021-01-31 17:03:38</time>
      </trkpt>
      <trkpt lat="38.63168" lon="-0.07045">
        <ele>119.6</ele>
        <time>2021-01-31 17:03:39</time>
      </trkpt>
      <trkpt lat="38.63164" lon="-0.07043">
        <ele>119.6</ele>
        <time>2021-01-31 17:03:40</time>
      </trkpt>
      <trkpt lat="38.63159" lon="-0.07042">
        <ele>119</ele>
        <time>2021-01-31 17:03:41</time>
      </trkpt>
      <trkpt lat="38.63155" lon="-0.07039">
        <ele>118.8</ele>
        <time>2021-01-31 17:03:42</time>
      </trkpt>
      <trkpt lat="38.63151" lon="-0.07036">
        <ele>118.8</ele>
        <time>2021-01-31 17:03:43</time>
      </trkpt>
      <trkpt lat="38.63147" lon="-0.07032">
        <ele>118.8</ele>
        <time>2021-01-31 17:03:44</time>
      </trkpt>
      <trkpt lat="38.63144" lon="-0.0703">
        <ele>118.8</ele>
        <time>2021-01-31 17:03:45</time>
      </trkpt>
      <trkpt lat="38.63141" lon="-0.07027">
        <ele>117.8</ele>
        <time>2021-01-31 17:03:46</time>
      </trkpt>
      <trkpt lat="38.63139" lon="-0.07024">
        <ele>117.8</ele>
        <time>2021-01-31 17:03:47</time>
      </trkpt>
      <trkpt lat="38.63135" lon="-0.0702">
        <ele>117.8</ele>
        <time>2021-01-31 17:03:48</time>
      </trkpt>
      <trkpt lat="38.63132" lon="-0.07016">
        <ele>117.8</ele>
        <time>2021-01-31 17:03:49</time>
      </trkpt>
      <trkpt lat="38.63129" lon="-0.07012">
        <ele>117.8</ele>
        <time>2021-01-31 17:03:50</time>
      </trkpt>
      <trkpt lat="38.63126" lon="-0.07009">
        <ele>117.8</ele>
        <time>2021-01-31 17:03:51</time>
      </trkpt>
      <trkpt lat="38.63123" lon="-0.07005">
        <ele>117.8</ele>
        <time>2021-01-31 17:03:52</time>
      </trkpt>
      <trkpt lat="38.6312" lon="-0.07">
        <ele>118.8</ele>
        <time>2021-01-31 17:03:53</time>
      </trkpt>
      <trkpt lat="38.63117" lon="-0.06996">
        <ele>118.8</ele>
        <time>2021-01-31 17:03:54</time>
      </trkpt>
      <trkpt lat="38.63114" lon="-0.06992">
        <ele>118.8</ele>
        <time>2021-01-31 17:03:55</time>
      </trkpt>
      <trkpt lat="38.63111" lon="-0.06988">
        <ele>118.8</ele>
        <time>2021-01-31 17:03:56</time>
      </trkpt>
      <trkpt lat="38.63109" lon="-0.06984">
        <ele>118.8</ele>
        <time>2021-01-31 17:03:57</time>
      </trkpt>
      <trkpt lat="38.63106" lon="-0.06978">
        <ele>118.8</ele>
        <time>2021-01-31 17:03:58</time>
      </trkpt>
      <trkpt lat="38.63103" lon="-0.06974">
        <ele>118.8</ele>
        <time>2021-01-31 17:03:59</time>
      </trkpt>
      <trkpt lat="38.63099" lon="-0.06969">
        <ele>118.8</ele>
        <time>2021-01-31 17:04:00</time>
      </trkpt>
      <trkpt lat="38.63096" lon="-0.06965">
        <ele>118.4</ele>
        <time>2021-01-31 17:04:01</time>
      </trkpt>
      <trkpt lat="38.63093" lon="-0.06961">
        <ele>118.4</ele>
        <time>2021-01-31 17:04:02</time>
      </trkpt>
      <trkpt lat="38.6309" lon="-0.06956">
        <ele>118.4</ele>
        <time>2021-01-31 17:04:03</time>
      </trkpt>
      <trkpt lat="38.63088" lon="-0.06951">
        <ele>118.4</ele>
        <time>2021-01-31 17:04:04</time>
      </trkpt>
      <trkpt lat="38.63086" lon="-0.06946">
        <ele>118.4</ele>
        <time>2021-01-31 17:04:05</time>
      </trkpt>
      <trkpt lat="38.63084" lon="-0.06941">
        <ele>119.4</ele>
        <time>2021-01-31 17:04:06</time>
      </trkpt>
      <trkpt lat="38.63083" lon="-0.06934">
        <ele>120.2</ele>
        <time>2021-01-31 17:04:07</time>
      </trkpt>
      <trkpt lat="38.63082" lon="-0.06929">
        <ele>120.6</ele>
        <time>2021-01-31 17:04:08</time>
      </trkpt>
      <trkpt lat="38.63082" lon="-0.06923">
        <ele>120.6</ele>
        <time>2021-01-31 17:04:09</time>
      </trkpt>
      <trkpt lat="38.63083" lon="-0.06918">
        <ele>120.6</ele>
        <time>2021-01-31 17:04:10</time>
      </trkpt>
      <trkpt lat="38.63083" lon="-0.06913">
        <ele>120.6</ele>
        <time>2021-01-31 17:04:11</time>
      </trkpt>
      <trkpt lat="38.63084" lon="-0.06907">
        <ele>120.6</ele>
        <time>2021-01-31 17:04:12</time>
      </trkpt>
      <trkpt lat="38.63086" lon="-0.069">
        <ele>120.6</ele>
        <time>2021-01-31 17:04:13</time>
      </trkpt>
      <trkpt lat="38.63088" lon="-0.06893">
        <ele>120.6</ele>
        <time>2021-01-31 17:04:14</time>
      </trkpt>
      <trkpt lat="38.6309" lon="-0.06887">
        <ele>119.6</ele>
        <time>2021-01-31 17:04:15</time>
      </trkpt>
      <trkpt lat="38.63092" lon="-0.06879">
        <ele>118.8</ele>
        <time>2021-01-31 17:04:16</time>
      </trkpt>
      <trkpt lat="38.63094" lon="-0.06871">
        <ele>118.8</ele>
        <time>2021-01-31 17:04:17</time>
      </trkpt>
      <trkpt lat="38.63096" lon="-0.06862">
        <ele>118.8</ele>
        <time>2021-01-31 17:04:18</time>
      </trkpt>
      <trkpt lat="38.63099" lon="-0.06854">
        <ele>118.8</ele>
        <time>2021-01-31 17:04:19</time>
      </trkpt>
      <trkpt lat="38.63101" lon="-0.06845">
        <ele>117.8</ele>
        <time>2021-01-31 17:04:20</time>
      </trkpt>
      <trkpt lat="38.63104" lon="-0.06836">
        <ele>116.8</ele>
        <time>2021-01-31 17:04:21</time>
      </trkpt>
      <trkpt lat="38.63106" lon="-0.06827">
        <ele>116.6</ele>
        <time>2021-01-31 17:04:22</time>
      </trkpt>
      <trkpt lat="38.63109" lon="-0.06817">
        <ele>115.8</ele>
        <time>2021-01-31 17:04:23</time>
      </trkpt>
      <trkpt lat="38.63112" lon="-0.06808">
        <ele>115.8</ele>
        <time>2021-01-31 17:04:24</time>
      </trkpt>
      <trkpt lat="38.63115" lon="-0.06798">
        <ele>115.8</ele>
        <time>2021-01-31 17:04:25</time>
      </trkpt>
      <trkpt lat="38.63118" lon="-0.06789">
        <ele>115.8</ele>
        <time>2021-01-31 17:04:26</time>
      </trkpt>
      <trkpt lat="38.6312" lon="-0.0678">
        <ele>115.8</ele>
        <time>2021-01-31 17:04:27</time>
      </trkpt>
      <trkpt lat="38.63123" lon="-0.06771">
        <ele>115.8</ele>
        <time>2021-01-31 17:04:28</time>
      </trkpt>
      <trkpt lat="38.63126" lon="-0.06762">
        <ele>115.4</ele>
        <time>2021-01-31 17:04:29</time>
      </trkpt>
      <trkpt lat="38.63128" lon="-0.06754">
        <ele>115.4</ele>
        <time>2021-01-31 17:04:30</time>
      </trkpt>
      <trkpt lat="38.63131" lon="-0.06745">
        <ele>115.4</ele>
        <time>2021-01-31 17:04:31</time>
      </trkpt>
      <trkpt lat="38.63133" lon="-0.06738">
        <ele>116.4</ele>
        <time>2021-01-31 17:04:32</time>
      </trkpt>
      <trkpt lat="38.63135" lon="-0.06731">
        <ele>117.4</ele>
        <time>2021-01-31 17:04:33</time>
      </trkpt>
      <trkpt lat="38.63137" lon="-0.06724">
        <ele>118</ele>
        <time>2021-01-31 17:04:34</time>
      </trkpt>
      <trkpt lat="38.63139" lon="-0.06718">
        <ele>118.2</ele>
        <time>2021-01-31 17:04:35</time>
      </trkpt>
      <trkpt lat="38.63141" lon="-0.06712">
        <ele>118.8</ele>
        <time>2021-01-31 17:04:36</time>
      </trkpt>
      <trkpt lat="38.63143" lon="-0.06706">
        <ele>119.6</ele>
        <time>2021-01-31 17:04:37</time>
      </trkpt>
      <trkpt lat="38.63145" lon="-0.067">
        <ele>119.6</ele>
        <time>2021-01-31 17:04:38</time>
      </trkpt>
      <trkpt lat="38.63147" lon="-0.06695">
        <ele>119.6</ele>
        <time>2021-01-31 17:04:39</time>
      </trkpt>
      <trkpt lat="38.63149" lon="-0.06689">
        <ele>119.6</ele>
        <time>2021-01-31 17:04:40</time>
      </trkpt>
      <trkpt lat="38.6315" lon="-0.06684">
        <ele>119.6</ele>
        <time>2021-01-31 17:04:41</time>
      </trkpt>
      <trkpt lat="38.63152" lon="-0.06678">
        <ele>119.6</ele>
        <time>2021-01-31 17:04:42</time>
      </trkpt>
      <trkpt lat="38.63153" lon="-0.06672">
        <ele>120</ele>
        <time>2021-01-31 17:04:43</time>
      </trkpt>
      <trkpt lat="38.63155" lon="-0.06666">
        <ele>120.2</ele>
        <time>2021-01-31 17:04:44</time>
      </trkpt>
      <trkpt lat="38.63156" lon="-0.06661">
        <ele>121</ele>
        <time>2021-01-31 17:04:45</time>
      </trkpt>
      <trkpt lat="38.63158" lon="-0.06655">
        <ele>121</ele>
        <time>2021-01-31 17:04:46</time>
      </trkpt>
      <trkpt lat="38.63159" lon="-0.06649">
        <ele>121</ele>
        <time>2021-01-31 17:04:47</time>
      </trkpt>
      <trkpt lat="38.6316" lon="-0.06643">
        <ele>120</ele>
        <time>2021-01-31 17:04:48</time>
      </trkpt>
      <trkpt lat="38.63161" lon="-0.06638">
        <ele>120</ele>
        <time>2021-01-31 17:04:49</time>
      </trkpt>
      <trkpt lat="38.63161" lon="-0.06632">
        <ele>120</ele>
        <time>2021-01-31 17:04:50</time>
      </trkpt>
      <trkpt lat="38.63162" lon="-0.06626">
        <ele>121</ele>
        <time>2021-01-31 17:04:51</time>
      </trkpt>
      <trkpt lat="38.63162" lon="-0.0662">
        <ele>121.6</ele>
        <time>2021-01-31 17:04:52</time>
      </trkpt>
      <trkpt lat="38.63161" lon="-0.06614">
        <ele>122.2</ele>
        <time>2021-01-31 17:04:53</time>
      </trkpt>
      <trkpt lat="38.6316" lon="-0.06608">
        <ele>122.2</ele>
        <time>2021-01-31 17:04:54</time>
      </trkpt>
      <trkpt lat="38.63158" lon="-0.06603">
        <ele>122.2</ele>
        <time>2021-01-31 17:04:55</time>
      </trkpt>
      <trkpt lat="38.63155" lon="-0.06597">
        <ele>121.8</ele>
        <time>2021-01-31 17:04:56</time>
      </trkpt>
      <trkpt lat="38.63153" lon="-0.06592">
        <ele>121.8</ele>
        <time>2021-01-31 17:04:57</time>
      </trkpt>
      <trkpt lat="38.6315" lon="-0.06586">
        <ele>121.8</ele>
        <time>2021-01-31 17:04:58</time>
      </trkpt>
      <trkpt lat="38.63147" lon="-0.06581">
        <ele>121.8</ele>
        <time>2021-01-31 17:04:59</time>
      </trkpt>
      <trkpt lat="38.63144" lon="-0.06575">
        <ele>121.8</ele>
        <time>2021-01-31 17:05:00</time>
      </trkpt>
      <trkpt lat="38.63141" lon="-0.06568">
        <ele>120.8</ele>
        <time>2021-01-31 17:05:01</time>
      </trkpt>
      <trkpt lat="38.63138" lon="-0.06563">
        <ele>120</ele>
        <time>2021-01-31 17:05:02</time>
      </trkpt>
      <trkpt lat="38.63135" lon="-0.06558">
        <ele>120</ele>
        <time>2021-01-31 17:05:03</time>
      </trkpt>
      <trkpt lat="38.63132" lon="-0.06552">
        <ele>120</ele>
        <time>2021-01-31 17:05:04</time>
      </trkpt>
      <trkpt lat="38.63128" lon="-0.06545">
        <ele>120</ele>
        <time>2021-01-31 17:05:05</time>
      </trkpt>
      <trkpt lat="38.63123" lon="-0.06537">
        <ele>119</ele>
        <time>2021-01-31 17:05:06</time>
      </trkpt>
      <trkpt lat="38.63118" lon="-0.0653">
        <ele>118</ele>
        <time>2021-01-31 17:05:07</time>
      </trkpt>
      <trkpt lat="38.63111" lon="-0.06521">
        <ele>117</ele>
        <time>2021-01-31 17:05:08</time>
      </trkpt>
      <trkpt lat="38.63105" lon="-0.06513">
        <ele>116</ele>
        <time>2021-01-31 17:05:09</time>
      </trkpt>
      <trkpt lat="38.63098" lon="-0.06504">
        <ele>115</ele>
        <time>2021-01-31 17:05:10</time>
      </trkpt>
      <trkpt lat="38.6309" lon="-0.06495">
        <ele>114</ele>
        <time>2021-01-31 17:05:11</time>
      </trkpt>
      <trkpt lat="38.63082" lon="-0.06485">
        <ele>113</ele>
        <time>2021-01-31 17:05:12</time>
      </trkpt>
      <trkpt lat="38.63074" lon="-0.06475">
        <ele>112</ele>
        <time>2021-01-31 17:05:13</time>
      </trkpt>
      <trkpt lat="38.63065" lon="-0.06465">
        <ele>111</ele>
        <time>2021-01-31 17:05:14</time>
      </trkpt>
      <trkpt lat="38.63057" lon="-0.06456">
        <ele>110</ele>
        <time>2021-01-31 17:05:15</time>
      </trkpt>
      <trkpt lat="38.63048" lon="-0.06446">
        <ele>109</ele>
        <time>2021-01-31 17:05:16</time>
      </trkpt>
      <trkpt lat="38.6304" lon="-0.06436">
        <ele>108</ele>
        <time>2021-01-31 17:05:17</time>
      </trkpt>
      <trkpt lat="38.63031" lon="-0.06427">
        <ele>107</ele>
        <time>2021-01-31 17:05:18</time>
      </trkpt>
      <trkpt lat="38.63023" lon="-0.06417">
        <ele>106.6</ele>
        <time>2021-01-31 17:05:19</time>
      </trkpt>
      <trkpt lat="38.63015" lon="-0.06407">
        <ele>106.6</ele>
        <time>2021-01-31 17:05:20</time>
      </trkpt>
      <trkpt lat="38.63007" lon="-0.06397">
        <ele>106.6</ele>
        <time>2021-01-31 17:05:21</time>
      </trkpt>
      <trkpt lat="38.62999" lon="-0.06388">
        <ele>107.6</ele>
        <time>2021-01-31 17:05:22</time>
      </trkpt>
      <trkpt lat="38.62992" lon="-0.06377">
        <ele>108.6</ele>
        <time>2021-01-31 17:05:23</time>
      </trkpt>
      <trkpt lat="38.62987" lon="-0.06367">
        <ele>109.6</ele>
        <time>2021-01-31 17:05:24</time>
      </trkpt>
      <trkpt lat="38.62981" lon="-0.06355">
        <ele>110.6</ele>
        <time>2021-01-31 17:05:25</time>
      </trkpt>
      <trkpt lat="38.62977" lon="-0.06344">
        <ele>111.6</ele>
        <time>2021-01-31 17:05:26</time>
      </trkpt>
      <trkpt lat="38.62974" lon="-0.06333">
        <ele>112.2</ele>
        <time>2021-01-31 17:05:27</time>
      </trkpt>
      <trkpt lat="38.62972" lon="-0.06322">
        <ele>112.2</ele>
        <time>2021-01-31 17:05:28</time>
      </trkpt>
      <trkpt lat="38.62971" lon="-0.06311">
        <ele>112.2</ele>
        <time>2021-01-31 17:05:29</time>
      </trkpt>
      <trkpt lat="38.62971" lon="-0.063">
        <ele>111.2</ele>
        <time>2021-01-31 17:05:30</time>
      </trkpt>
      <trkpt lat="38.6297" lon="-0.06288">
        <ele>110.2</ele>
        <time>2021-01-31 17:05:31</time>
      </trkpt>
      <trkpt lat="38.62969" lon="-0.06277">
        <ele>109.2</ele>
        <time>2021-01-31 17:05:32</time>
      </trkpt>
      <trkpt lat="38.62969" lon="-0.06265">
        <ele>108.2</ele>
        <time>2021-01-31 17:05:33</time>
      </trkpt>
      <trkpt lat="38.62969" lon="-0.06253">
        <ele>107.4</ele>
        <time>2021-01-31 17:05:34</time>
      </trkpt>
      <trkpt lat="38.62969" lon="-0.06241">
        <ele>106.6</ele>
        <time>2021-01-31 17:05:35</time>
      </trkpt>
      <trkpt lat="38.62969" lon="-0.06227">
        <ele>106.4</ele>
        <time>2021-01-31 17:05:36</time>
      </trkpt>
      <trkpt lat="38.62969" lon="-0.06212">
        <ele>105.4</ele>
        <time>2021-01-31 17:05:37</time>
      </trkpt>
      <trkpt lat="38.62969" lon="-0.06198">
        <ele>104.4</ele>
        <time>2021-01-31 17:05:38</time>
      </trkpt>
      <trkpt lat="38.62968" lon="-0.06184">
        <ele>103.4</ele>
        <time>2021-01-31 17:05:39</time>
      </trkpt>
      <trkpt lat="38.62968" lon="-0.0617">
        <ele>102.4</ele>
        <time>2021-01-31 17:05:40</time>
      </trkpt>
      <trkpt lat="38.62967" lon="-0.06156">
        <ele>101.4</ele>
        <time>2021-01-31 17:05:41</time>
      </trkpt>
      <trkpt lat="38.62965" lon="-0.06142">
        <ele>100.6</ele>
        <time>2021-01-31 17:05:42</time>
      </trkpt>
      <trkpt lat="38.62961" lon="-0.06128">
        <ele>100.6</ele>
        <time>2021-01-31 17:05:43</time>
      </trkpt>
      <trkpt lat="38.62955" lon="-0.06115">
        <ele>100.6</ele>
        <time>2021-01-31 17:05:44</time>
      </trkpt>
      <trkpt lat="38.62948" lon="-0.06103">
        <ele>100.6</ele>
        <time>2021-01-31 17:05:45</time>
      </trkpt>
      <trkpt lat="38.62941" lon="-0.06093">
        <ele>100.6</ele>
        <time>2021-01-31 17:05:46</time>
      </trkpt>
      <trkpt lat="38.62934" lon="-0.06082">
        <ele>101.6</ele>
        <time>2021-01-31 17:05:47</time>
      </trkpt>
      <trkpt lat="38.62928" lon="-0.06072">
        <ele>102.6</ele>
        <time>2021-01-31 17:05:48</time>
      </trkpt>
      <trkpt lat="38.62923" lon="-0.06061">
        <ele>103.6</ele>
        <time>2021-01-31 17:05:49</time>
      </trkpt>
      <trkpt lat="38.6292" lon="-0.0605">
        <ele>103.8</ele>
        <time>2021-01-31 17:05:50</time>
      </trkpt>
      <trkpt lat="38.6292" lon="-0.06038">
        <ele>104.6</ele>
        <time>2021-01-31 17:05:51</time>
      </trkpt>
      <trkpt lat="38.62919" lon="-0.06027">
        <ele>105</ele>
        <time>2021-01-31 17:05:52</time>
      </trkpt>
      <trkpt lat="38.6292" lon="-0.06015">
        <ele>105.8</ele>
        <time>2021-01-31 17:05:53</time>
      </trkpt>
      <trkpt lat="38.62921" lon="-0.06004">
        <ele>105.8</ele>
        <time>2021-01-31 17:05:54</time>
      </trkpt>
      <trkpt lat="38.62922" lon="-0.05994">
        <ele>105.8</ele>
        <time>2021-01-31 17:05:55</time>
      </trkpt>
      <trkpt lat="38.62923" lon="-0.05984">
        <ele>105.8</ele>
        <time>2021-01-31 17:05:56</time>
      </trkpt>
      <trkpt lat="38.62924" lon="-0.05974">
        <ele>105.8</ele>
        <time>2021-01-31 17:05:57</time>
      </trkpt>
      <trkpt lat="38.62925" lon="-0.05964">
        <ele>105</ele>
        <time>2021-01-31 17:05:58</time>
      </trkpt>
      <trkpt lat="38.62926" lon="-0.05953">
        <ele>105</ele>
        <time>2021-01-31 17:05:59</time>
      </trkpt>
      <trkpt lat="38.62927" lon="-0.05943">
        <ele>105</ele>
        <time>2021-01-31 17:06:00</time>
      </trkpt>
      <trkpt lat="38.62928" lon="-0.05932">
        <ele>105</ele>
        <time>2021-01-31 17:06:01</time>
      </trkpt>
      <trkpt lat="38.62928" lon="-0.05922">
        <ele>104</ele>
        <time>2021-01-31 17:06:02</time>
      </trkpt>
      <trkpt lat="38.62929" lon="-0.05911">
        <ele>104</ele>
        <time>2021-01-31 17:06:03</time>
      </trkpt>
      <trkpt lat="38.6293" lon="-0.059">
        <ele>104</ele>
        <time>2021-01-31 17:06:04</time>
      </trkpt>
      <trkpt lat="38.62931" lon="-0.05889">
        <ele>104</ele>
        <time>2021-01-31 17:06:05</time>
      </trkpt>
      <trkpt lat="38.62932" lon="-0.05878">
        <ele>103.6</ele>
        <time>2021-01-31 17:06:06</time>
      </trkpt>
      <trkpt lat="38.62933" lon="-0.05867">
        <ele>102.6</ele>
        <time>2021-01-31 17:06:07</time>
      </trkpt>
      <trkpt lat="38.62934" lon="-0.05856">
        <ele>102.6</ele>
        <time>2021-01-31 17:06:08</time>
      </trkpt>
      <trkpt lat="38.62935" lon="-0.05844">
        <ele>102.6</ele>
        <time>2021-01-31 17:06:09</time>
      </trkpt>
      <trkpt lat="38.62937" lon="-0.05831">
        <ele>102.6</ele>
        <time>2021-01-31 17:06:10</time>
      </trkpt>
      <trkpt lat="38.62939" lon="-0.05818">
        <ele>101.6</ele>
        <time>2021-01-31 17:06:11</time>
      </trkpt>
      <trkpt lat="38.62941" lon="-0.05805">
        <ele>100.6</ele>
        <time>2021-01-31 17:06:12</time>
      </trkpt>
      <trkpt lat="38.62943" lon="-0.05791">
        <ele>99.6</ele>
        <time>2021-01-31 17:06:13</time>
      </trkpt>
      <trkpt lat="38.62945" lon="-0.05777">
        <ele>98.6</ele>
        <time>2021-01-31 17:06:14</time>
      </trkpt>
      <trkpt lat="38.62948" lon="-0.05763">
        <ele>97.6</ele>
        <time>2021-01-31 17:06:15</time>
      </trkpt>
      <trkpt lat="38.6295" lon="-0.05749">
        <ele>96.6</ele>
        <time>2021-01-31 17:06:16</time>
      </trkpt>
      <trkpt lat="38.62952" lon="-0.05735">
        <ele>96.6</ele>
        <time>2021-01-31 17:06:17</time>
      </trkpt>
      <trkpt lat="38.62954" lon="-0.05722">
        <ele>96.6</ele>
        <time>2021-01-31 17:06:18</time>
      </trkpt>
      <trkpt lat="38.62956" lon="-0.0571">
        <ele>97.4</ele>
        <time>2021-01-31 17:06:19</time>
      </trkpt>
      <trkpt lat="38.62957" lon="-0.05697">
        <ele>98.2</ele>
        <time>2021-01-31 17:06:20</time>
      </trkpt>
      <trkpt lat="38.62959" lon="-0.05685">
        <ele>98.6</ele>
        <time>2021-01-31 17:06:21</time>
      </trkpt>
      <trkpt lat="38.62961" lon="-0.05673">
        <ele>99.2</ele>
        <time>2021-01-31 17:06:22</time>
      </trkpt>
      <trkpt lat="38.62963" lon="-0.05662">
        <ele>100.2</ele>
        <time>2021-01-31 17:06:23</time>
      </trkpt>
      <trkpt lat="38.62964" lon="-0.05651">
        <ele>100.2</ele>
        <time>2021-01-31 17:06:24</time>
      </trkpt>
      <trkpt lat="38.62966" lon="-0.05641">
        <ele>100.2</ele>
        <time>2021-01-31 17:06:25</time>
      </trkpt>
      <trkpt lat="38.62967" lon="-0.05631">
        <ele>100.2</ele>
        <time>2021-01-31 17:06:26</time>
      </trkpt>
      <trkpt lat="38.62968" lon="-0.05621">
        <ele>100.6</ele>
        <time>2021-01-31 17:06:27</time>
      </trkpt>
      <trkpt lat="38.62969" lon="-0.05612">
        <ele>101.2</ele>
        <time>2021-01-31 17:06:28</time>
      </trkpt>
      <trkpt lat="38.62969" lon="-0.05602">
        <ele>101.8</ele>
        <time>2021-01-31 17:06:29</time>
      </trkpt>
      <trkpt lat="38.62969" lon="-0.05593">
        <ele>102</ele>
        <time>2021-01-31 17:06:30</time>
      </trkpt>
      <trkpt lat="38.62968" lon="-0.05585">
        <ele>102.4</ele>
        <time>2021-01-31 17:06:31</time>
      </trkpt>
      <trkpt lat="38.62968" lon="-0.05577">
        <ele>103.2</ele>
        <time>2021-01-31 17:06:32</time>
      </trkpt>
      <trkpt lat="38.62967" lon="-0.05569">
        <ele>103.6</ele>
        <time>2021-01-31 17:06:33</time>
      </trkpt>
      <trkpt lat="38.62965" lon="-0.05562">
        <ele>104.2</ele>
        <time>2021-01-31 17:06:34</time>
      </trkpt>
      <trkpt lat="38.62964" lon="-0.05555">
        <ele>104.4</ele>
        <time>2021-01-31 17:06:35</time>
      </trkpt>
      <trkpt lat="38.62963" lon="-0.05549">
        <ele>104.4</ele>
        <time>2021-01-31 17:06:36</time>
      </trkpt>
      <trkpt lat="38.62962" lon="-0.05542">
        <ele>104.6</ele>
        <time>2021-01-31 17:06:37</time>
      </trkpt>
      <trkpt lat="38.6296" lon="-0.05536">
        <ele>104.8</ele>
        <time>2021-01-31 17:06:38</time>
      </trkpt>
      <trkpt lat="38.62958" lon="-0.0553">
        <ele>105.2</ele>
        <time>2021-01-31 17:06:39</time>
      </trkpt>
      <trkpt lat="38.62958" lon="-0.05524">
        <ele>105.2</ele>
        <time>2021-01-31 17:06:40</time>
      </trkpt>
      <trkpt lat="38.62956" lon="-0.05518">
        <ele>105.6</ele>
        <time>2021-01-31 17:06:41</time>
      </trkpt>
      <trkpt lat="38.62954" lon="-0.05511">
        <ele>105.6</ele>
        <time>2021-01-31 17:06:42</time>
      </trkpt>
      <trkpt lat="38.62953" lon="-0.05505">
        <ele>105.6</ele>
        <time>2021-01-31 17:06:43</time>
      </trkpt>
      <trkpt lat="38.62951" lon="-0.05499">
        <ele>105.6</ele>
        <time>2021-01-31 17:06:44</time>
      </trkpt>
      <trkpt lat="38.6295" lon="-0.05493">
        <ele>106.6</ele>
        <time>2021-01-31 17:06:45</time>
      </trkpt>
      <trkpt lat="38.62948" lon="-0.05487">
        <ele>106.6</ele>
        <time>2021-01-31 17:06:46</time>
      </trkpt>
      <trkpt lat="38.62947" lon="-0.05481">
        <ele>106.6</ele>
        <time>2021-01-31 17:06:47</time>
      </trkpt>
      <trkpt lat="38.62945" lon="-0.05474">
        <ele>106.6</ele>
        <time>2021-01-31 17:06:48</time>
      </trkpt>
      <trkpt lat="38.62944" lon="-0.05468">
        <ele>107.4</ele>
        <time>2021-01-31 17:06:49</time>
      </trkpt>
      <trkpt lat="38.62943" lon="-0.05462">
        <ele>107.6</ele>
        <time>2021-01-31 17:06:50</time>
      </trkpt>
      <trkpt lat="38.62941" lon="-0.05456">
        <ele>107.8</ele>
        <time>2021-01-31 17:06:51</time>
      </trkpt>
      <trkpt lat="38.6294" lon="-0.0545">
        <ele>108.6</ele>
        <time>2021-01-31 17:06:52</time>
      </trkpt>
      <trkpt lat="38.6294" lon="-0.05445">
        <ele>108.6</ele>
        <time>2021-01-31 17:06:53</time>
      </trkpt>
      <trkpt lat="38.62939" lon="-0.05439">
        <ele>108.6</ele>
        <time>2021-01-31 17:06:54</time>
      </trkpt>
      <trkpt lat="38.62938" lon="-0.05433">
        <ele>108.6</ele>
        <time>2021-01-31 17:06:55</time>
      </trkpt>
      <trkpt lat="38.62938" lon="-0.05428">
        <ele>108.6</ele>
        <time>2021-01-31 17:06:56</time>
      </trkpt>
      <trkpt lat="38.62937" lon="-0.05422">
        <ele>108.6</ele>
        <time>2021-01-31 17:06:57</time>
      </trkpt>
      <trkpt lat="38.62937" lon="-0.05417">
        <ele>108.6</ele>
        <time>2021-01-31 17:06:58</time>
      </trkpt>
      <trkpt lat="38.62936" lon="-0.05411">
        <ele>109.6</ele>
        <time>2021-01-31 17:06:59</time>
      </trkpt>
      <trkpt lat="38.62936" lon="-0.05406">
        <ele>110.2</ele>
        <time>2021-01-31 17:07:00</time>
      </trkpt>
      <trkpt lat="38.62935" lon="-0.054">
        <ele>110.2</ele>
        <time>2021-01-31 17:07:01</time>
      </trkpt>
      <trkpt lat="38.62935" lon="-0.05395">
        <ele>110.2</ele>
        <time>2021-01-31 17:07:02</time>
      </trkpt>
      <trkpt lat="38.62934" lon="-0.05389">
        <ele>110.2</ele>
        <time>2021-01-31 17:07:03</time>
      </trkpt>
      <trkpt lat="38.62934" lon="-0.05384">
        <ele>110.2</ele>
        <time>2021-01-31 17:07:04</time>
      </trkpt>
      <trkpt lat="38.62934" lon="-0.05378">
        <ele>110.2</ele>
        <time>2021-01-31 17:07:05</time>
      </trkpt>
      <trkpt lat="38.62933" lon="-0.05373">
        <ele>110.2</ele>
        <time>2021-01-31 17:07:06</time>
      </trkpt>
      <trkpt lat="38.62933" lon="-0.05367">
        <ele>110.2</ele>
        <time>2021-01-31 17:07:07</time>
      </trkpt>
      <trkpt lat="38.62932" lon="-0.05362">
        <ele>111</ele>
        <time>2021-01-31 17:07:08</time>
      </trkpt>
      <trkpt lat="38.62932" lon="-0.05357">
        <ele>111</ele>
        <time>2021-01-31 17:07:09</time>
      </trkpt>
      <trkpt lat="38.62932" lon="-0.05352">
        <ele>111</ele>
        <time>2021-01-31 17:07:10</time>
      </trkpt>
      <trkpt lat="38.62931" lon="-0.05346">
        <ele>111</ele>
        <time>2021-01-31 17:07:11</time>
      </trkpt>
      <trkpt lat="38.62931" lon="-0.05341">
        <ele>111.8</ele>
        <time>2021-01-31 17:07:12</time>
      </trkpt>
      <trkpt lat="38.6293" lon="-0.05336">
        <ele>112</ele>
        <time>2021-01-31 17:07:13</time>
      </trkpt>
      <trkpt lat="38.6293" lon="-0.05331">
        <ele>112.2</ele>
        <time>2021-01-31 17:07:14</time>
      </trkpt>
      <trkpt lat="38.6293" lon="-0.05325">
        <ele>112.8</ele>
        <time>2021-01-31 17:07:15</time>
      </trkpt>
      <trkpt lat="38.62929" lon="-0.0532">
        <ele>113</ele>
        <time>2021-01-31 17:07:16</time>
      </trkpt>
      <trkpt lat="38.62929" lon="-0.05315">
        <ele>113</ele>
        <time>2021-01-31 17:07:17</time>
      </trkpt>
      <trkpt lat="38.62929" lon="-0.0531">
        <ele>113</ele>
        <time>2021-01-31 17:07:18</time>
      </trkpt>
      <trkpt lat="38.62928" lon="-0.05305">
        <ele>113</ele>
        <time>2021-01-31 17:07:19</time>
      </trkpt>
      <trkpt lat="38.62928" lon="-0.053">
        <ele>113</ele>
        <time>2021-01-31 17:07:20</time>
      </trkpt>
      <trkpt lat="38.62928" lon="-0.05295">
        <ele>113</ele>
        <time>2021-01-31 17:07:21</time>
      </trkpt>
      <trkpt lat="38.62928" lon="-0.0529">
        <ele>113</ele>
        <time>2021-01-31 17:07:22</time>
      </trkpt>
      <trkpt lat="38.62928" lon="-0.05285">
        <ele>113</ele>
        <time>2021-01-31 17:07:23</time>
      </trkpt>
      <trkpt lat="38.62928" lon="-0.0528">
        <ele>114</ele>
        <time>2021-01-31 17:07:24</time>
      </trkpt>
      <trkpt lat="38.62927" lon="-0.05275">
        <ele>114.6</ele>
        <time>2021-01-31 17:07:25</time>
      </trkpt>
      <trkpt lat="38.62925" lon="-0.05271">
        <ele>114.6</ele>
        <time>2021-01-31 17:07:26</time>
      </trkpt>
      <trkpt lat="38.62925" lon="-0.05267">
        <ele>115</ele>
        <time>2021-01-31 17:07:27</time>
      </trkpt>
      <trkpt lat="38.62925" lon="-0.05262">
        <ele>115.2</ele>
        <time>2021-01-31 17:07:28</time>
      </trkpt>
      <trkpt lat="38.62927" lon="-0.05257">
        <ele>115.2</ele>
        <time>2021-01-31 17:07:29</time>
      </trkpt>
      <trkpt lat="38.62927" lon="-0.05253">
        <ele>115.8</ele>
        <time>2021-01-31 17:07:30</time>
      </trkpt>
      <trkpt lat="38.62929" lon="-0.05249">
        <ele>115.8</ele>
        <time>2021-01-31 17:07:31</time>
      </trkpt>
      <trkpt lat="38.6293" lon="-0.05244">
        <ele>115.8</ele>
        <time>2021-01-31 17:07:32</time>
      </trkpt>
      <trkpt lat="38.62932" lon="-0.0524">
        <ele>115.8</ele>
        <time>2021-01-31 17:07:33</time>
      </trkpt>
      <trkpt lat="38.62933" lon="-0.05235">
        <ele>115.8</ele>
        <time>2021-01-31 17:07:34</time>
      </trkpt>
      <trkpt lat="38.62935" lon="-0.0523">
        <ele>115.8</ele>
        <time>2021-01-31 17:07:35</time>
      </trkpt>
      <trkpt lat="38.62938" lon="-0.05225">
        <ele>115.8</ele>
        <time>2021-01-31 17:07:36</time>
      </trkpt>
      <trkpt lat="38.6294" lon="-0.0522">
        <ele>115.8</ele>
        <time>2021-01-31 17:07:37</time>
      </trkpt>
      <trkpt lat="38.62943" lon="-0.05215">
        <ele>115.8</ele>
        <time>2021-01-31 17:07:38</time>
      </trkpt>
      <trkpt lat="38.62946" lon="-0.0521">
        <ele>115.2</ele>
        <time>2021-01-31 17:07:39</time>
      </trkpt>
      <trkpt lat="38.62949" lon="-0.05206">
        <ele>115.2</ele>
        <time>2021-01-31 17:07:40</time>
      </trkpt>
      <trkpt lat="38.62952" lon="-0.052">
        <ele>115.2</ele>
        <time>2021-01-31 17:07:41</time>
      </trkpt>
      <trkpt lat="38.62956" lon="-0.05195">
        <ele>115.2</ele>
        <time>2021-01-31 17:07:42</time>
      </trkpt>
      <trkpt lat="38.6296" lon="-0.05191">
        <ele>115.2</ele>
        <time>2021-01-31 17:07:43</time>
      </trkpt>
      <trkpt lat="38.62964" lon="-0.05186">
        <ele>114.6</ele>
        <time>2021-01-31 17:07:44</time>
      </trkpt>
      <trkpt lat="38.62967" lon="-0.0518">
        <ele>113.8</ele>
        <time>2021-01-31 17:07:45</time>
      </trkpt>
      <trkpt lat="38.62971" lon="-0.05175">
        <ele>113.8</ele>
        <time>2021-01-31 17:07:46</time>
      </trkpt>
      <trkpt lat="38.62974" lon="-0.0517">
        <ele>113.8</ele>
        <time>2021-01-31 17:07:47</time>
      </trkpt>
      <trkpt lat="38.62977" lon="-0.05165">
        <ele>114.8</ele>
        <time>2021-01-31 17:07:48</time>
      </trkpt>
      <trkpt lat="38.6298" lon="-0.0516">
        <ele>115</ele>
        <time>2021-01-31 17:07:49</time>
      </trkpt>
      <trkpt lat="38.62983" lon="-0.05155">
        <ele>115.2</ele>
        <time>2021-01-31 17:07:50</time>
      </trkpt>
      <trkpt lat="38.62986" lon="-0.0515">
        <ele>115.4</ele>
        <time>2021-01-31 17:07:51</time>
      </trkpt>
      <trkpt lat="38.62989" lon="-0.05145">
        <ele>115.8</ele>
        <time>2021-01-31 17:07:52</time>
      </trkpt>
      <trkpt lat="38.62992" lon="-0.05141">
        <ele>115.8</ele>
        <time>2021-01-31 17:07:53</time>
      </trkpt>
      <trkpt lat="38.62994" lon="-0.05136">
        <ele>116</ele>
        <time>2021-01-31 17:07:54</time>
      </trkpt>
      <trkpt lat="38.62997" lon="-0.05131">
        <ele>116.6</ele>
        <time>2021-01-31 17:07:55</time>
      </trkpt>
      <trkpt lat="38.63" lon="-0.05126">
        <ele>116.6</ele>
        <time>2021-01-31 17:07:56</time>
      </trkpt>
      <trkpt lat="38.63003" lon="-0.05121">
        <ele>116.6</ele>
        <time>2021-01-31 17:07:57</time>
      </trkpt>
      <trkpt lat="38.63005" lon="-0.05115">
        <ele>116.6</ele>
        <time>2021-01-31 17:07:58</time>
      </trkpt>
      <trkpt lat="38.63009" lon="-0.0511">
        <ele>117.6</ele>
        <time>2021-01-31 17:07:59</time>
      </trkpt>
      <trkpt lat="38.63013" lon="-0.05105">
        <ele>117.6</ele>
        <time>2021-01-31 17:08:00</time>
      </trkpt>
      <trkpt lat="38.63016" lon="-0.051">
        <ele>117.6</ele>
        <time>2021-01-31 17:08:01</time>
      </trkpt>
      <trkpt lat="38.6302" lon="-0.05095">
        <ele>117.6</ele>
        <time>2021-01-31 17:08:02</time>
      </trkpt>
      <trkpt lat="38.63024" lon="-0.05089">
        <ele>116.6</ele>
        <time>2021-01-31 17:08:03</time>
      </trkpt>
      <trkpt lat="38.63028" lon="-0.05083">
        <ele>115.6</ele>
        <time>2021-01-31 17:08:04</time>
      </trkpt>
      <trkpt lat="38.63032" lon="-0.05076">
        <ele>114.6</ele>
        <time>2021-01-31 17:08:05</time>
      </trkpt>
      <trkpt lat="38.63036" lon="-0.05069">
        <ele>113.6</ele>
        <time>2021-01-31 17:08:06</time>
      </trkpt>
      <trkpt lat="38.63042" lon="-0.05062">
        <ele>112.6</ele>
        <time>2021-01-31 17:08:07</time>
      </trkpt>
      <trkpt lat="38.63047" lon="-0.05054">
        <ele>111.8</ele>
        <time>2021-01-31 17:08:08</time>
      </trkpt>
      <trkpt lat="38.63052" lon="-0.05045">
        <ele>110.8</ele>
        <time>2021-01-31 17:08:09</time>
      </trkpt>
      <trkpt lat="38.63057" lon="-0.05036">
        <ele>110</ele>
        <time>2021-01-31 17:08:10</time>
      </trkpt>
      <trkpt lat="38.63064" lon="-0.05027">
        <ele>109.6</ele>
        <time>2021-01-31 17:08:11</time>
      </trkpt>
      <trkpt lat="38.6307" lon="-0.05018">
        <ele>108.8</ele>
        <time>2021-01-31 17:08:12</time>
      </trkpt>
      <trkpt lat="38.63077" lon="-0.05009">
        <ele>108</ele>
        <time>2021-01-31 17:08:13</time>
      </trkpt>
      <trkpt lat="38.63085" lon="-0.05">
        <ele>108</ele>
        <time>2021-01-31 17:08:14</time>
      </trkpt>
      <trkpt lat="38.63092" lon="-0.04992">
        <ele>108</ele>
        <time>2021-01-31 17:08:15</time>
      </trkpt>
      <trkpt lat="38.631" lon="-0.04984">
        <ele>108</ele>
        <time>2021-01-31 17:08:16</time>
      </trkpt>
      <trkpt lat="38.63108" lon="-0.04976">
        <ele>107</ele>
        <time>2021-01-31 17:08:17</time>
      </trkpt>
      <trkpt lat="38.63115" lon="-0.04967">
        <ele>106.4</ele>
        <time>2021-01-31 17:08:18</time>
      </trkpt>
      <trkpt lat="38.63123" lon="-0.04959">
        <ele>106.4</ele>
        <time>2021-01-31 17:08:19</time>
      </trkpt>
      <trkpt lat="38.6313" lon="-0.0495">
        <ele>106.4</ele>
        <time>2021-01-31 17:08:20</time>
      </trkpt>
      <trkpt lat="38.63138" lon="-0.04942">
        <ele>106.4</ele>
        <time>2021-01-31 17:08:21</time>
      </trkpt>
      <trkpt lat="38.63144" lon="-0.04933">
        <ele>105.4</ele>
        <time>2021-01-31 17:08:22</time>
      </trkpt>
      <trkpt lat="38.63151" lon="-0.04923">
        <ele>105.4</ele>
        <time>2021-01-31 17:08:23</time>
      </trkpt>
      <trkpt lat="38.63156" lon="-0.04912">
        <ele>105.4</ele>
        <time>2021-01-31 17:08:24</time>
      </trkpt>
      <trkpt lat="38.63161" lon="-0.04901">
        <ele>105.4</ele>
        <time>2021-01-31 17:08:25</time>
      </trkpt>
      <trkpt lat="38.63164" lon="-0.0489">
        <ele>105.4</ele>
        <time>2021-01-31 17:08:26</time>
      </trkpt>
      <trkpt lat="38.63166" lon="-0.04878">
        <ele>106.4</ele>
        <time>2021-01-31 17:08:27</time>
      </trkpt>
      <trkpt lat="38.63168" lon="-0.04866">
        <ele>107.4</ele>
        <time>2021-01-31 17:08:28</time>
      </trkpt>
      <trkpt lat="38.63168" lon="-0.04855">
        <ele>107.6</ele>
        <time>2021-01-31 17:08:29</time>
      </trkpt>
      <trkpt lat="38.63168" lon="-0.04844">
        <ele>108.6</ele>
        <time>2021-01-31 17:08:30</time>
      </trkpt>
      <trkpt lat="38.63166" lon="-0.04833">
        <ele>108.8</ele>
        <time>2021-01-31 17:08:31</time>
      </trkpt>
      <trkpt lat="38.63165" lon="-0.04822">
        <ele>109</ele>
        <time>2021-01-31 17:08:32</time>
      </trkpt>
      <trkpt lat="38.63163" lon="-0.04812">
        <ele>109.4</ele>
        <time>2021-01-31 17:08:33</time>
      </trkpt>
      <trkpt lat="38.63161" lon="-0.04802">
        <ele>109.4</ele>
        <time>2021-01-31 17:08:34</time>
      </trkpt>
      <trkpt lat="38.63158" lon="-0.04793">
        <ele>109.4</ele>
        <time>2021-01-31 17:08:35</time>
      </trkpt>
      <trkpt lat="38.63154" lon="-0.04784">
        <ele>109.4</ele>
        <time>2021-01-31 17:08:36</time>
      </trkpt>
      <trkpt lat="38.63151" lon="-0.04776">
        <ele>110.4</ele>
        <time>2021-01-31 17:08:37</time>
      </trkpt>
      <trkpt lat="38.63148" lon="-0.04767">
        <ele>110.6</ele>
        <time>2021-01-31 17:08:38</time>
      </trkpt>
      <trkpt lat="38.63144" lon="-0.04758">
        <ele>111</ele>
        <time>2021-01-31 17:08:39</time>
      </trkpt>
      <trkpt lat="38.63141" lon="-0.04748">
        <ele>111</ele>
        <time>2021-01-31 17:08:40</time>
      </trkpt>
      <trkpt lat="38.63139" lon="-0.04739">
        <ele>111</ele>
        <time>2021-01-31 17:08:41</time>
      </trkpt>
      <trkpt lat="38.63136" lon="-0.0473">
        <ele>111</ele>
        <time>2021-01-31 17:08:42</time>
      </trkpt>
      <trkpt lat="38.63133" lon="-0.04721">
        <ele>111.4</ele>
        <time>2021-01-31 17:08:43</time>
      </trkpt>
      <trkpt lat="38.63131" lon="-0.04712">
        <ele>111.6</ele>
        <time>2021-01-31 17:08:44</time>
      </trkpt>
      <trkpt lat="38.6313" lon="-0.04703">
        <ele>112.2</ele>
        <time>2021-01-31 17:08:45</time>
      </trkpt>
      <trkpt lat="38.6313" lon="-0.04694">
        <ele>112.2</ele>
        <time>2021-01-31 17:08:46</time>
      </trkpt>
      <trkpt lat="38.63131" lon="-0.04685">
        <ele>112.2</ele>
        <time>2021-01-31 17:08:47</time>
      </trkpt>
      <trkpt lat="38.63133" lon="-0.04677">
        <ele>112.2</ele>
        <time>2021-01-31 17:08:48</time>
      </trkpt>
      <trkpt lat="38.63137" lon="-0.0467">
        <ele>113</ele>
        <time>2021-01-31 17:08:49</time>
      </trkpt>
      <trkpt lat="38.63141" lon="-0.04664">
        <ele>113.2</ele>
        <time>2021-01-31 17:08:50</time>
      </trkpt>
      <trkpt lat="38.63145" lon="-0.04658">
        <ele>113.2</ele>
        <time>2021-01-31 17:08:51</time>
      </trkpt>
      <trkpt lat="38.6315" lon="-0.04653">
        <ele>113.2</ele>
        <time>2021-01-31 17:08:52</time>
      </trkpt>
      <trkpt lat="38.63155" lon="-0.04647">
        <ele>112.6</ele>
        <time>2021-01-31 17:08:53</time>
      </trkpt>
      <trkpt lat="38.63161" lon="-0.04641">
        <ele>111.8</ele>
        <time>2021-01-31 17:08:54</time>
      </trkpt>
      <trkpt lat="38.63166" lon="-0.04635">
        <ele>111.6</ele>
        <time>2021-01-31 17:08:55</time>
      </trkpt>
      <trkpt lat="38.63171" lon="-0.04628">
        <ele>111.2</ele>
        <time>2021-01-31 17:08:56</time>
      </trkpt>
      <trkpt lat="38.63176" lon="-0.04622">
        <ele>110.4</ele>
        <time>2021-01-31 17:08:57</time>
      </trkpt>
      <trkpt lat="38.63181" lon="-0.04615">
        <ele>110.4</ele>
        <time>2021-01-31 17:08:58</time>
      </trkpt>
      <trkpt lat="38.63186" lon="-0.04609">
        <ele>110.4</ele>
        <time>2021-01-31 17:08:59</time>
      </trkpt>
      <trkpt lat="38.63191" lon="-0.04602">
        <ele>110.4</ele>
        <time>2021-01-31 17:09:00</time>
      </trkpt>
      <trkpt lat="38.63196" lon="-0.04594">
        <ele>110.4</ele>
        <time>2021-01-31 17:09:01</time>
      </trkpt>
      <trkpt lat="38.63199" lon="-0.04584">
        <ele>109.4</ele>
        <time>2021-01-31 17:09:02</time>
      </trkpt>
      <trkpt lat="38.63201" lon="-0.04573">
        <ele>108.4</ele>
        <time>2021-01-31 17:09:03</time>
      </trkpt>
      <trkpt lat="38.63201" lon="-0.04562">
        <ele>107.4</ele>
        <time>2021-01-31 17:09:04</time>
      </trkpt>
      <trkpt lat="38.632" lon="-0.0455">
        <ele>106.4</ele>
        <time>2021-01-31 17:09:05</time>
      </trkpt>
      <trkpt lat="38.63199" lon="-0.04539">
        <ele>106.4</ele>
        <time>2021-01-31 17:09:06</time>
      </trkpt>
      <trkpt lat="38.63197" lon="-0.04528">
        <ele>106.4</ele>
        <time>2021-01-31 17:09:07</time>
      </trkpt>
      <trkpt lat="38.63194" lon="-0.04518">
        <ele>107.4</ele>
        <time>2021-01-31 17:09:08</time>
      </trkpt>
      <trkpt lat="38.63189" lon="-0.04511">
        <ele>108.4</ele>
        <time>2021-01-31 17:09:09</time>
      </trkpt>
      <trkpt lat="38.63183" lon="-0.04508">
        <ele>109.4</ele>
        <time>2021-01-31 17:09:10</time>
      </trkpt>
      <trkpt lat="38.63176" lon="-0.04507">
        <ele>110.4</ele>
        <time>2021-01-31 17:09:11</time>
      </trkpt>
      <trkpt lat="38.63171" lon="-0.04507">
        <ele>111.4</ele>
        <time>2021-01-31 17:09:12</time>
      </trkpt>
      <trkpt lat="38.63166" lon="-0.04507">
        <ele>111.8</ele>
        <time>2021-01-31 17:09:13</time>
      </trkpt>
      <trkpt lat="38.63161" lon="-0.04506">
        <ele>112</ele>
        <time>2021-01-31 17:09:14</time>
      </trkpt>
      <trkpt lat="38.63156" lon="-0.04505">
        <ele>112.4</ele>
        <time>2021-01-31 17:09:15</time>
      </trkpt>
      <trkpt lat="38.63152" lon="-0.04504">
        <ele>113</ele>
        <time>2021-01-31 17:09:16</time>
      </trkpt>
      <trkpt lat="38.63148" lon="-0.04505">
        <ele>113.6</ele>
        <time>2021-01-31 17:09:17</time>
      </trkpt>
      <trkpt lat="38.63144" lon="-0.04504">
        <ele>113.6</ele>
        <time>2021-01-31 17:09:18</time>
      </trkpt>
      <trkpt lat="38.63139" lon="-0.04503">
        <ele>113.6</ele>
        <time>2021-01-31 17:09:19</time>
      </trkpt>
      <trkpt lat="38.63135" lon="-0.04502">
        <ele>113.6</ele>
        <time>2021-01-31 17:09:20</time>
      </trkpt>
      <trkpt lat="38.6313" lon="-0.04501">
        <ele>113.6</ele>
        <time>2021-01-31 17:09:21</time>
      </trkpt>
      <trkpt lat="38.63125" lon="-0.04499">
        <ele>114.6</ele>
        <time>2021-01-31 17:09:22</time>
      </trkpt>
      <trkpt lat="38.63121" lon="-0.04497">
        <ele>115.4</ele>
        <time>2021-01-31 17:09:23</time>
      </trkpt>
      <trkpt lat="38.63117" lon="-0.04496">
        <ele>115.6</ele>
        <time>2021-01-31 17:09:24</time>
      </trkpt>
      <trkpt lat="38.63113" lon="-0.04494">
        <ele>115.8</ele>
        <time>2021-01-31 17:09:25</time>
      </trkpt>
      <trkpt lat="38.63109" lon="-0.04492">
        <ele>115.8</ele>
        <time>2021-01-31 17:09:26</time>
      </trkpt>
      <trkpt lat="38.63106" lon="-0.04494">
        <ele>115.8</ele>
        <time>2021-01-31 17:09:27</time>
      </trkpt>
      <trkpt lat="38.63102" lon="-0.04493">
        <ele>115.8</ele>
        <time>2021-01-31 17:09:28</time>
      </trkpt>
      <trkpt lat="38.63099" lon="-0.04492">
        <ele>115.8</ele>
        <time>2021-01-31 17:09:29</time>
      </trkpt>
      <trkpt lat="38.63095" lon="-0.04491">
        <ele>115.8</ele>
        <time>2021-01-31 17:09:30</time>
      </trkpt>
      <trkpt lat="38.6309" lon="-0.04489">
        <ele>115.8</ele>
        <time>2021-01-31 17:09:31</time>
      </trkpt>
      <trkpt lat="38.63085" lon="-0.04486">
        <ele>114.8</ele>
        <time>2021-01-31 17:09:32</time>
      </trkpt>
      <trkpt lat="38.6308" lon="-0.04482">
        <ele>114.4</ele>
        <time>2021-01-31 17:09:33</time>
      </trkpt>
      <trkpt lat="38.63075" lon="-0.0448">
        <ele>114.4</ele>
        <time>2021-01-31 17:09:34</time>
      </trkpt>
      <trkpt lat="38.63069" lon="-0.04476">
        <ele>114.4</ele>
        <time>2021-01-31 17:09:35</time>
      </trkpt>
      <trkpt lat="38.63064" lon="-0.04473">
        <ele>114.4</ele>
        <time>2021-01-31 17:09:36</time>
      </trkpt>
      <trkpt lat="38.63064" lon="-0.04473">
        <ele>113.6</ele>
        <time>2021-01-31 17:09:37</time>
      </trkpt>
      <trkpt lat="38.63053" lon="-0.04468">
        <ele>113.6</ele>
        <time>2021-01-31 17:09:38</time>
      </trkpt>
      <trkpt lat="38.63053" lon="-0.04468">
        <ele>113.6</ele>
        <time>2021-01-31 17:09:39</time>
      </trkpt>
      <trkpt lat="38.63042" lon="-0.0446">
        <ele>113.6</ele>
        <time>2021-01-31 17:09:40</time>
      </trkpt>
      <trkpt lat="38.63042" lon="-0.0446">
        <ele>113.6</ele>
        <time>2021-01-31 17:09:41</time>
      </trkpt>
      <trkpt lat="38.6303" lon="-0.04453">
        <ele>113.6</ele>
        <time>2021-01-31 17:09:42</time>
      </trkpt>
      <trkpt lat="38.6303" lon="-0.04453">
        <ele>114</ele>
        <time>2021-01-31 17:09:43</time>
      </trkpt>
      <trkpt lat="38.63019" lon="-0.04441">
        <ele>114</ele>
        <time>2021-01-31 17:09:44</time>
      </trkpt>
      <trkpt lat="38.63019" lon="-0.04441">
        <ele>113.2</ele>
        <time>2021-01-31 17:09:45</time>
      </trkpt>
      <trkpt lat="38.63009" lon="-0.04428">
        <ele>113.2</ele>
        <time>2021-01-31 17:09:46</time>
      </trkpt>
      <trkpt lat="38.63009" lon="-0.04428">
        <ele>112.2</ele>
        <time>2021-01-31 17:09:47</time>
      </trkpt>
      <trkpt lat="38.63003" lon="-0.04412">
        <ele>112.2</ele>
        <time>2021-01-31 17:09:48</time>
      </trkpt>
      <trkpt lat="38.63003" lon="-0.04412">
        <ele>112.2</ele>
        <time>2021-01-31 17:09:49</time>
      </trkpt>
      <trkpt lat="38.62998" lon="-0.04391">
        <ele>112.2</ele>
        <time>2021-01-31 17:09:50</time>
      </trkpt>
      <trkpt lat="38.62998" lon="-0.04391">
        <ele>111.2</ele>
        <time>2021-01-31 17:09:51</time>
      </trkpt>
      <trkpt lat="38.6299" lon="-0.04364">
        <ele>111.2</ele>
        <time>2021-01-31 17:09:52</time>
      </trkpt>
      <trkpt lat="38.6299" lon="-0.04364">
        <ele>109.2</ele>
        <time>2021-01-31 17:09:53</time>
      </trkpt>
      <trkpt lat="38.6298" lon="-0.04341">
        <ele>109.2</ele>
        <time>2021-01-31 17:09:54</time>
      </trkpt>
      <trkpt lat="38.6298" lon="-0.04341">
        <ele>107.2</ele>
        <time>2021-01-31 17:09:55</time>
      </trkpt>
      <trkpt lat="38.62968" lon="-0.04318">
        <ele>107.2</ele>
        <time>2021-01-31 17:09:56</time>
      </trkpt>
      <trkpt lat="38.62968" lon="-0.04318">
        <ele>105.2</ele>
        <time>2021-01-31 17:09:57</time>
      </trkpt>
      <trkpt lat="38.62955" lon="-0.04293">
        <ele>105.2</ele>
        <time>2021-01-31 17:09:58</time>
      </trkpt>
      <trkpt lat="38.62955" lon="-0.04293">
        <ele>103.2</ele>
        <time>2021-01-31 17:09:59</time>
      </trkpt>
      <trkpt lat="38.62941" lon="-0.0427">
        <ele>103.2</ele>
        <time>2021-01-31 17:10:00</time>
      </trkpt>
      <trkpt lat="38.62941" lon="-0.0427">
        <ele>101.2</ele>
        <time>2021-01-31 17:10:01</time>
      </trkpt>
      <trkpt lat="38.62925" lon="-0.04254">
        <ele>101.2</ele>
        <time>2021-01-31 17:10:02</time>
      </trkpt>
      <trkpt lat="38.62925" lon="-0.04254">
        <ele>100</ele>
        <time>2021-01-31 17:10:03</time>
      </trkpt>
      <trkpt lat="38.62906" lon="-0.04245">
        <ele>100</ele>
        <time>2021-01-31 17:10:04</time>
      </trkpt>
      <trkpt lat="38.62906" lon="-0.04245">
        <ele>99.6</ele>
        <time>2021-01-31 17:10:05</time>
      </trkpt>
      <trkpt lat="38.62889" lon="-0.04229">
        <ele>99.6</ele>
        <time>2021-01-31 17:10:06</time>
      </trkpt>
      <trkpt lat="38.62889" lon="-0.04229">
        <ele>99.6</ele>
        <time>2021-01-31 17:10:07</time>
      </trkpt>
      <trkpt lat="38.62878" lon="-0.04206">
        <ele>99.6</ele>
        <time>2021-01-31 17:10:08</time>
      </trkpt>
      <trkpt lat="38.62878" lon="-0.04206">
        <ele>97.6</ele>
        <time>2021-01-31 17:10:09</time>
      </trkpt>
      <trkpt lat="38.62868" lon="-0.04181">
        <ele>97.6</ele>
        <time>2021-01-31 17:10:10</time>
      </trkpt>
      <trkpt lat="38.62868" lon="-0.04181">
        <ele>96</ele>
        <time>2021-01-31 17:10:11</time>
      </trkpt>
      <trkpt lat="38.62858" lon="-0.04156">
        <ele>96</ele>
        <time>2021-01-31 17:10:12</time>
      </trkpt>
      <trkpt lat="38.62858" lon="-0.04156">
        <ele>95.6</ele>
        <time>2021-01-31 17:10:13</time>
      </trkpt>
      <trkpt lat="38.62847" lon="-0.04132">
        <ele>95.6</ele>
        <time>2021-01-31 17:10:14</time>
      </trkpt>
      <trkpt lat="38.62847" lon="-0.04132">
        <ele>95.6</ele>
        <time>2021-01-31 17:10:15</time>
      </trkpt>
      <trkpt lat="38.62847" lon="-0.04132">
        <ele>95.6</ele>
        <time>2021-01-31 17:10:16</time>
      </trkpt>
      <trkpt lat="38.62847" lon="-0.04132">
        <ele>95.6</ele>
        <time>2021-01-31 17:10:17</time>
      </trkpt>
      <trkpt lat="38.62847" lon="-0.04132">
        <ele>95.6</ele>
        <time>2021-01-31 17:10:18</time>
      </trkpt>
      <trkpt lat="38.62847" lon="-0.04132">
        <ele>96.4</ele>
        <time>2021-01-31 17:10:19</time>
      </trkpt>
      <trkpt lat="38.62803" lon="-0.04082">
        <ele>96.4</ele>
        <time>2021-01-31 17:10:20</time>
      </trkpt>
      <trkpt lat="38.62803" lon="-0.04082">
        <ele>96.4</ele>
        <time>2021-01-31 17:10:21</time>
      </trkpt>
      <trkpt lat="38.62788" lon="-0.04069">
        <ele>96.4</ele>
        <time>2021-01-31 17:10:22</time>
      </trkpt>
      <trkpt lat="38.62788" lon="-0.04069">
        <ele>96.4</ele>
        <time>2021-01-31 17:10:23</time>
      </trkpt>
      <trkpt lat="38.62774" lon="-0.04055">
        <ele>96.4</ele>
        <time>2021-01-31 17:10:24</time>
      </trkpt>
      <trkpt lat="38.62774" lon="-0.04055">
        <ele>97.2</ele>
        <time>2021-01-31 17:10:25</time>
      </trkpt>
      <trkpt lat="38.62762" lon="-0.0404">
        <ele>97.2</ele>
        <time>2021-01-31 17:10:26</time>
      </trkpt>
      <trkpt lat="38.62762" lon="-0.0404">
        <ele>97.4</ele>
        <time>2021-01-31 17:10:27</time>
      </trkpt>
      <trkpt lat="38.62753" lon="-0.04023">
        <ele>97.4</ele>
        <time>2021-01-31 17:10:28</time>
      </trkpt>
      <trkpt lat="38.62753" lon="-0.04023">
        <ele>96.4</ele>
        <time>2021-01-31 17:10:29</time>
      </trkpt>
      <trkpt lat="38.62744" lon="-0.04002">
        <ele>96.4</ele>
        <time>2021-01-31 17:10:30</time>
      </trkpt>
      <trkpt lat="38.62744" lon="-0.04002">
        <ele>96</ele>
        <time>2021-01-31 17:10:31</time>
      </trkpt>
      <trkpt lat="38.62736" lon="-0.03979">
        <ele>96</ele>
        <time>2021-01-31 17:10:32</time>
      </trkpt>
      <trkpt lat="38.62736" lon="-0.03979">
        <ele>96.2</ele>
        <time>2021-01-31 17:10:33</time>
      </trkpt>
      <trkpt lat="38.62729" lon="-0.03957">
        <ele>96.2</ele>
        <time>2021-01-31 17:10:34</time>
      </trkpt>
      <trkpt lat="38.62729" lon="-0.03957">
        <ele>96.2</ele>
        <time>2021-01-31 17:10:35</time>
      </trkpt>
      <trkpt lat="38.62722" lon="-0.03934">
        <ele>96.2</ele>
        <time>2021-01-31 17:10:36</time>
      </trkpt>
      <trkpt lat="38.62722" lon="-0.03934">
        <ele>94.2</ele>
        <time>2021-01-31 17:10:37</time>
      </trkpt>
      <trkpt lat="38.62714" lon="-0.0391">
        <ele>94.2</ele>
        <time>2021-01-31 17:10:38</time>
      </trkpt>
      <trkpt lat="38.62714" lon="-0.0391">
        <ele>93.2</ele>
        <time>2021-01-31 17:10:39</time>
      </trkpt>
      <trkpt lat="38.62707" lon="-0.03886">
        <ele>93.2</ele>
        <time>2021-01-31 17:10:40</time>
      </trkpt>
      <trkpt lat="38.62707" lon="-0.03886">
        <ele>93.2</ele>
        <time>2021-01-31 17:10:41</time>
      </trkpt>
      <trkpt lat="38.62699" lon="-0.03863">
        <ele>93.2</ele>
        <time>2021-01-31 17:10:42</time>
      </trkpt>
      <trkpt lat="38.62699" lon="-0.03863">
        <ele>94</ele>
        <time>2021-01-31 17:10:43</time>
      </trkpt>
      <trkpt lat="38.62692" lon="-0.03841">
        <ele>94</ele>
        <time>2021-01-31 17:10:44</time>
      </trkpt>
      <trkpt lat="38.62692" lon="-0.03841">
        <ele>94</ele>
        <time>2021-01-31 17:10:45</time>
      </trkpt>
      <trkpt lat="38.62685" lon="-0.03818">
        <ele>94</ele>
        <time>2021-01-31 17:10:46</time>
      </trkpt>
      <trkpt lat="38.62685" lon="-0.03818">
        <ele>93</ele>
        <time>2021-01-31 17:10:47</time>
      </trkpt>
      <trkpt lat="38.62678" lon="-0.03795">
        <ele>93</ele>
        <time>2021-01-31 17:10:48</time>
      </trkpt>
      <trkpt lat="38.62678" lon="-0.03795">
        <ele>93</ele>
        <time>2021-01-31 17:10:49</time>
      </trkpt>
      <trkpt lat="38.62678" lon="-0.03795">
        <ele>93</ele>
        <time>2021-01-31 17:10:50</time>
      </trkpt>
      <trkpt lat="38.62678" lon="-0.03795">
        <ele>93</ele>
        <time>2021-01-31 17:10:51</time>
      </trkpt>
      <trkpt lat="38.62678" lon="-0.03795">
        <ele>95</ele>
        <time>2021-01-31 17:10:52</time>
      </trkpt>
      <trkpt lat="38.6266" lon="-0.03742">
        <ele>96</ele>
        <time>2021-01-31 17:10:53</time>
      </trkpt>
      <trkpt lat="38.62657" lon="-0.03733">
        <ele>97</ele>
        <time>2021-01-31 17:10:54</time>
      </trkpt>
      <trkpt lat="38.62652" lon="-0.03723">
        <ele>98</ele>
        <time>2021-01-31 17:10:55</time>
      </trkpt>
      <trkpt lat="38.62647" lon="-0.03713">
        <ele>98.2</ele>
        <time>2021-01-31 17:10:56</time>
      </trkpt>
      <trkpt lat="38.62642" lon="-0.03705">
        <ele>98.2</ele>
        <time>2021-01-31 17:10:57</time>
      </trkpt>
      <trkpt lat="38.62635" lon="-0.03695">
        <ele>98.2</ele>
        <time>2021-01-31 17:10:58</time>
      </trkpt>
      <trkpt lat="38.62628" lon="-0.03686">
        <ele>97.2</ele>
        <time>2021-01-31 17:10:59</time>
      </trkpt>
      <trkpt lat="38.6262" lon="-0.03678">
        <ele>96.2</ele>
        <time>2021-01-31 17:11:00</time>
      </trkpt>
      <trkpt lat="38.6261" lon="-0.0367">
        <ele>95.2</ele>
        <time>2021-01-31 17:11:01</time>
      </trkpt>
      <trkpt lat="38.626" lon="-0.03663">
        <ele>94.2</ele>
        <time>2021-01-31 17:11:02</time>
      </trkpt>
      <trkpt lat="38.6259" lon="-0.03658">
        <ele>93.2</ele>
        <time>2021-01-31 17:11:03</time>
      </trkpt>
      <trkpt lat="38.62579" lon="-0.03653">
        <ele>92.2</ele>
        <time>2021-01-31 17:11:04</time>
      </trkpt>
      <trkpt lat="38.62567" lon="-0.03649">
        <ele>91.2</ele>
        <time>2021-01-31 17:11:05</time>
      </trkpt>
      <trkpt lat="38.62556" lon="-0.03644">
        <ele>90.2</ele>
        <time>2021-01-31 17:11:06</time>
      </trkpt>
      <trkpt lat="38.62544" lon="-0.03641">
        <ele>89.2</ele>
        <time>2021-01-31 17:11:07</time>
      </trkpt>
      <trkpt lat="38.62532" lon="-0.03637">
        <ele>89.2</ele>
        <time>2021-01-31 17:11:08</time>
      </trkpt>
      <trkpt lat="38.62532" lon="-0.03637">
        <ele>89.2</ele>
        <time>2021-01-31 17:11:09</time>
      </trkpt>
      <trkpt lat="38.62532" lon="-0.03637">
        <ele>89.2</ele>
        <time>2021-01-31 17:11:10</time>
      </trkpt>
      <trkpt lat="38.62532" lon="-0.03637">
        <ele>85.2</ele>
        <time>2021-01-31 17:11:11</time>
      </trkpt>
      <trkpt lat="38.62482" lon="-0.03623">
        <ele>84.2</ele>
        <time>2021-01-31 17:11:12</time>
      </trkpt>
      <trkpt lat="38.62469" lon="-0.03619">
        <ele>83.2</ele>
        <time>2021-01-31 17:11:13</time>
      </trkpt>
      <trkpt lat="38.62459" lon="-0.03619">
        <ele>82.8</ele>
        <time>2021-01-31 17:11:14</time>
      </trkpt>
      <trkpt lat="38.62448" lon="-0.03615">
        <ele>82.4</ele>
        <time>2021-01-31 17:11:15</time>
      </trkpt>
      <trkpt lat="38.62436" lon="-0.03611">
        <ele>81.4</ele>
        <time>2021-01-31 17:11:16</time>
      </trkpt>
      <trkpt lat="38.62425" lon="-0.03608">
        <ele>81.4</ele>
        <time>2021-01-31 17:11:17</time>
      </trkpt>
      <trkpt lat="38.62415" lon="-0.03607">
        <ele>81.4</ele>
        <time>2021-01-31 17:11:18</time>
      </trkpt>
      <trkpt lat="38.62407" lon="-0.03607">
        <ele>82.4</ele>
        <time>2021-01-31 17:11:19</time>
      </trkpt>
      <trkpt lat="38.624" lon="-0.03607">
        <ele>83.4</ele>
        <time>2021-01-31 17:11:20</time>
      </trkpt>
      <trkpt lat="38.62393" lon="-0.03607">
        <ele>84.4</ele>
        <time>2021-01-31 17:11:21</time>
      </trkpt>
      <trkpt lat="38.62387" lon="-0.03606">
        <ele>84.4</ele>
        <time>2021-01-31 17:11:22</time>
      </trkpt>
      <trkpt lat="38.62382" lon="-0.03603">
        <ele>84.4</ele>
        <time>2021-01-31 17:11:23</time>
      </trkpt>
      <trkpt lat="38.62378" lon="-0.03601">
        <ele>84.4</ele>
        <time>2021-01-31 17:11:24</time>
      </trkpt>
      <trkpt lat="38.62375" lon="-0.03598">
        <ele>84.4</ele>
        <time>2021-01-31 17:11:25</time>
      </trkpt>
      <trkpt lat="38.62372" lon="-0.03593">
        <ele>84.4</ele>
        <time>2021-01-31 17:11:26</time>
      </trkpt>
      <trkpt lat="38.6237" lon="-0.03586">
        <ele>84.4</ele>
        <time>2021-01-31 17:11:27</time>
      </trkpt>
      <trkpt lat="38.62368" lon="-0.03579">
        <ele>84.4</ele>
        <time>2021-01-31 17:11:28</time>
      </trkpt>
      <trkpt lat="38.62367" lon="-0.03572">
        <ele>84.4</ele>
        <time>2021-01-31 17:11:29</time>
      </trkpt>
      <trkpt lat="38.62367" lon="-0.03564">
        <ele>84.4</ele>
        <time>2021-01-31 17:11:30</time>
      </trkpt>
      <trkpt lat="38.62367" lon="-0.03564">
        <ele>84.4</ele>
        <time>2021-01-31 17:11:31</time>
      </trkpt>
      <trkpt lat="38.62367" lon="-0.03564">
        <ele>84.4</ele>
        <time>2021-01-31 17:11:32</time>
      </trkpt>
      <trkpt lat="38.62367" lon="-0.03564">
        <ele>84.4</ele>
        <time>2021-01-31 17:11:33</time>
      </trkpt>
      <trkpt lat="38.62367" lon="-0.03564">
        <ele>83.4</ele>
        <time>2021-01-31 17:11:34</time>
      </trkpt>
      <trkpt lat="38.62368" lon="-0.03511">
        <ele>82.6</ele>
        <time>2021-01-31 17:11:35</time>
      </trkpt>
      <trkpt lat="38.62369" lon="-0.03499">
        <ele>81.8</ele>
        <time>2021-01-31 17:11:36</time>
      </trkpt>
      <trkpt lat="38.62368" lon="-0.03487">
        <ele>81.2</ele>
        <time>2021-01-31 17:11:37</time>
      </trkpt>
      <trkpt lat="38.62368" lon="-0.03475">
        <ele>80.8</ele>
        <time>2021-01-31 17:11:38</time>
      </trkpt>
      <trkpt lat="38.62367" lon="-0.03462">
        <ele>79.8</ele>
        <time>2021-01-31 17:11:39</time>
      </trkpt>
      <trkpt lat="38.62366" lon="-0.03449">
        <ele>79.8</ele>
        <time>2021-01-31 17:11:40</time>
      </trkpt>
      <trkpt lat="38.62364" lon="-0.03436">
        <ele>79.8</ele>
        <time>2021-01-31 17:11:41</time>
      </trkpt>
      <trkpt lat="38.62363" lon="-0.03423">
        <ele>79.8</ele>
        <time>2021-01-31 17:11:42</time>
      </trkpt>
      <trkpt lat="38.62361" lon="-0.03409">
        <ele>78.8</ele>
        <time>2021-01-31 17:11:43</time>
      </trkpt>
      <trkpt lat="38.62359" lon="-0.03394">
        <ele>77.8</ele>
        <time>2021-01-31 17:11:44</time>
      </trkpt>
      <trkpt lat="38.62356" lon="-0.0338">
        <ele>76.8</ele>
        <time>2021-01-31 17:11:45</time>
      </trkpt>
      <trkpt lat="38.62355" lon="-0.03365">
        <ele>76.6</ele>
        <time>2021-01-31 17:11:46</time>
      </trkpt>
      <trkpt lat="38.62353" lon="-0.0335">
        <ele>75.6</ele>
        <time>2021-01-31 17:11:47</time>
      </trkpt>
      <trkpt lat="38.62351" lon="-0.03334">
        <ele>74.6</ele>
        <time>2021-01-31 17:11:48</time>
      </trkpt>
      <trkpt lat="38.62349" lon="-0.03319">
        <ele>73.6</ele>
        <time>2021-01-31 17:11:49</time>
      </trkpt>
      <trkpt lat="38.62347" lon="-0.03303">
        <ele>72.6</ele>
        <time>2021-01-31 17:11:50</time>
      </trkpt>
      <trkpt lat="38.62345" lon="-0.03287">
        <ele>71.6</ele>
        <time>2021-01-31 17:11:51</time>
      </trkpt>
      <trkpt lat="38.62343" lon="-0.03271">
        <ele>71.6</ele>
        <time>2021-01-31 17:11:52</time>
      </trkpt>
      <trkpt lat="38.62343" lon="-0.03271">
        <ele>71.6</ele>
        <time>2021-01-31 17:11:53</time>
      </trkpt>
      <trkpt lat="38.62343" lon="-0.03271">
        <ele>71.6</ele>
        <time>2021-01-31 17:11:54</time>
      </trkpt>
      <trkpt lat="38.62343" lon="-0.03271">
        <ele>67.6</ele>
        <time>2021-01-31 17:11:55</time>
      </trkpt>
      <trkpt lat="38.62332" lon="-0.03207">
        <ele>66.6</ele>
        <time>2021-01-31 17:11:56</time>
      </trkpt>
      <trkpt lat="38.62329" lon="-0.03191">
        <ele>66.6</ele>
        <time>2021-01-31 17:11:57</time>
      </trkpt>
      <trkpt lat="38.62327" lon="-0.03175">
        <ele>66.6</ele>
        <time>2021-01-31 17:11:58</time>
      </trkpt>
      <trkpt lat="38.62327" lon="-0.03175">
        <ele>66.6</ele>
        <time>2021-01-31 17:11:59</time>
      </trkpt>
      <trkpt lat="38.62327" lon="-0.03175">
        <ele>66.6</ele>
        <time>2021-01-31 17:12:00</time>
      </trkpt>
      <trkpt lat="38.62327" lon="-0.03175">
        <ele>65</ele>
        <time>2021-01-31 17:12:01</time>
      </trkpt>
      <trkpt lat="38.62317" lon="-0.03111">
        <ele>64.2</ele>
        <time>2021-01-31 17:12:02</time>
      </trkpt>
      <trkpt lat="38.62316" lon="-0.03095">
        <ele>63.8</ele>
        <time>2021-01-31 17:12:03</time>
      </trkpt>
      <trkpt lat="38.62313" lon="-0.0308">
        <ele>63.8</ele>
        <time>2021-01-31 17:12:04</time>
      </trkpt>
      <trkpt lat="38.62311" lon="-0.03066">
        <ele>63.8</ele>
        <time>2021-01-31 17:12:05</time>
      </trkpt>
      <trkpt lat="38.62309" lon="-0.03052">
        <ele>64.2</ele>
        <time>2021-01-31 17:12:06</time>
      </trkpt>
      <trkpt lat="38.62306" lon="-0.03038">
        <ele>65.2</ele>
        <time>2021-01-31 17:12:07</time>
      </trkpt>
      <trkpt lat="38.62304" lon="-0.03025">
        <ele>66.2</ele>
        <time>2021-01-31 17:12:08</time>
      </trkpt>
      <trkpt lat="38.62303" lon="-0.03012">
        <ele>67.2</ele>
        <time>2021-01-31 17:12:09</time>
      </trkpt>
      <trkpt lat="38.62301" lon="-0.03">
        <ele>67.2</ele>
        <time>2021-01-31 17:12:10</time>
      </trkpt>
      <trkpt lat="38.62301" lon="-0.03">
        <ele>67.2</ele>
        <time>2021-01-31 17:12:11</time>
      </trkpt>
      <trkpt lat="38.62301" lon="-0.03">
        <ele>67.2</ele>
        <time>2021-01-31 17:12:12</time>
      </trkpt>
      <trkpt lat="38.62301" lon="-0.03">
        <ele>68.2</ele>
        <time>2021-01-31 17:12:13</time>
      </trkpt>
      <trkpt lat="38.62293" lon="-0.02953">
        <ele>69.2</ele>
        <time>2021-01-31 17:12:14</time>
      </trkpt>
      <trkpt lat="38.62292" lon="-0.02941">
        <ele>70.2</ele>
        <time>2021-01-31 17:12:15</time>
      </trkpt>
      <trkpt lat="38.6229" lon="-0.0293">
        <ele>71.2</ele>
        <time>2021-01-31 17:12:16</time>
      </trkpt>
      <trkpt lat="38.62289" lon="-0.0292">
        <ele>72</ele>
        <time>2021-01-31 17:12:17</time>
      </trkpt>
      <trkpt lat="38.62287" lon="-0.02909">
        <ele>72.2</ele>
        <time>2021-01-31 17:12:18</time>
      </trkpt>
      <trkpt lat="38.62285" lon="-0.02899">
        <ele>72.2</ele>
        <time>2021-01-31 17:12:19</time>
      </trkpt>
      <trkpt lat="38.62284" lon="-0.0289">
        <ele>72.2</ele>
        <time>2021-01-31 17:12:20</time>
      </trkpt>
      <trkpt lat="38.62282" lon="-0.0288">
        <ele>72.2</ele>
        <time>2021-01-31 17:12:21</time>
      </trkpt>
      <trkpt lat="38.62281" lon="-0.02871">
        <ele>72.2</ele>
        <time>2021-01-31 17:12:22</time>
      </trkpt>
      <trkpt lat="38.62281" lon="-0.02871">
        <ele>72.6</ele>
        <time>2021-01-31 17:12:23</time>
      </trkpt>
      <trkpt lat="38.62278" lon="-0.02853">
        <ele>73.2</ele>
        <time>2021-01-31 17:12:24</time>
      </trkpt>
      <trkpt lat="38.62277" lon="-0.02844">
        <ele>73.2</ele>
        <time>2021-01-31 17:12:25</time>
      </trkpt>
      <trkpt lat="38.62276" lon="-0.02836">
        <ele>73.2</ele>
        <time>2021-01-31 17:12:26</time>
      </trkpt>
      <trkpt lat="38.62274" lon="-0.02828">
        <ele>73.2</ele>
        <time>2021-01-31 17:12:27</time>
      </trkpt>
      <trkpt lat="38.62273" lon="-0.0282">
        <ele>74</ele>
        <time>2021-01-31 17:12:28</time>
      </trkpt>
      <trkpt lat="38.62272" lon="-0.02812">
        <ele>74</ele>
        <time>2021-01-31 17:12:29</time>
      </trkpt>
      <trkpt lat="38.62271" lon="-0.02804">
        <ele>74</ele>
        <time>2021-01-31 17:12:30</time>
      </trkpt>
      <trkpt lat="38.62269" lon="-0.02796">
        <ele>74</ele>
        <time>2021-01-31 17:12:31</time>
      </trkpt>
      <trkpt lat="38.62269" lon="-0.02789">
        <ele>74</ele>
        <time>2021-01-31 17:12:32</time>
      </trkpt>
      <trkpt lat="38.62267" lon="-0.02781">
        <ele>74</ele>
        <time>2021-01-31 17:12:33</time>
      </trkpt>
      <trkpt lat="38.62266" lon="-0.02774">
        <ele>74</ele>
        <time>2021-01-31 17:12:34</time>
      </trkpt>
      <trkpt lat="38.62265" lon="-0.02767">
        <ele>74</ele>
        <time>2021-01-31 17:12:35</time>
      </trkpt>
      <trkpt lat="38.62264" lon="-0.02761">
        <ele>74</ele>
        <time>2021-01-31 17:12:36</time>
      </trkpt>
      <trkpt lat="38.62263" lon="-0.02755">
        <ele>74.8</ele>
        <time>2021-01-31 17:12:37</time>
      </trkpt>
      <trkpt lat="38.62262" lon="-0.02749">
        <ele>74.8</ele>
        <time>2021-01-31 17:12:38</time>
      </trkpt>
      <trkpt lat="38.62261" lon="-0.02743">
        <ele>74.8</ele>
        <time>2021-01-31 17:12:39</time>
      </trkpt>
      <trkpt lat="38.62261" lon="-0.02738">
        <ele>74.8</ele>
        <time>2021-01-31 17:12:40</time>
      </trkpt>
      <trkpt lat="38.62261" lon="-0.02738">
        <ele>74.8</ele>
        <time>2021-01-31 17:12:41</time>
      </trkpt>
      <trkpt lat="38.62261" lon="-0.02738">
        <ele>74.8</ele>
        <time>2021-01-31 17:12:42</time>
      </trkpt>
      <trkpt lat="38.62261" lon="-0.02738">
        <ele>74.6</ele>
        <time>2021-01-31 17:12:43</time>
      </trkpt>
      <trkpt lat="38.62262" lon="-0.02725">
        <ele>74.8</ele>
        <time>2021-01-31 17:12:44</time>
      </trkpt>
      <trkpt lat="38.62265" lon="-0.02725">
        <ele>74.8</ele>
        <time>2021-01-31 17:12:45</time>
      </trkpt>
      <trkpt lat="38.62267" lon="-0.02729">
        <ele>74.8</ele>
        <time>2021-01-31 17:12:46</time>
      </trkpt>
      <trkpt lat="38.62269" lon="-0.02735">
        <ele>74.2</ele>
        <time>2021-01-31 17:12:47</time>
      </trkpt>
      <trkpt lat="38.6227" lon="-0.02741">
        <ele>73.4</ele>
        <time>2021-01-31 17:12:48</time>
      </trkpt>
      <trkpt lat="38.62271" lon="-0.02748">
        <ele>72.4</ele>
        <time>2021-01-31 17:12:49</time>
      </trkpt>
      <trkpt lat="38.62272" lon="-0.02755">
        <ele>72.4</ele>
        <time>2021-01-31 17:12:50</time>
      </trkpt>
      <trkpt lat="38.62272" lon="-0.02755">
        <ele>72.4</ele>
        <time>2021-01-31 17:12:51</time>
      </trkpt>
      <trkpt lat="38.62272" lon="-0.02755">
        <ele>72.4</ele>
        <time>2021-01-31 17:12:52</time>
      </trkpt>
      <trkpt lat="38.62272" lon="-0.02755">
        <ele>72.2</ele>
        <time>2021-01-31 17:12:53</time>
      </trkpt>
      <trkpt lat="38.62277" lon="-0.02784">
        <ele>71.4</ele>
        <time>2021-01-31 17:12:54</time>
      </trkpt>
      <trkpt lat="38.62279" lon="-0.02791">
        <ele>71.2</ele>
        <time>2021-01-31 17:12:55</time>
      </trkpt>
      <trkpt lat="38.62281" lon="-0.02798">
        <ele>71.2</ele>
        <time>2021-01-31 17:12:56</time>
      </trkpt>
      <trkpt lat="38.62283" lon="-0.02806">
        <ele>71.2</ele>
        <time>2021-01-31 17:12:57</time>
      </trkpt>
      <trkpt lat="38.62285" lon="-0.02814">
        <ele>71.2</ele>
        <time>2021-01-31 17:12:58</time>
      </trkpt>
      <trkpt lat="38.62286" lon="-0.02821">
        <ele>70.2</ele>
        <time>2021-01-31 17:12:59</time>
      </trkpt>
      <trkpt lat="38.62287" lon="-0.02829">
        <ele>70.2</ele>
        <time>2021-01-31 17:13:00</time>
      </trkpt>
      <trkpt lat="38.62288" lon="-0.02836">
        <ele>69.2</ele>
        <time>2021-01-31 17:13:01</time>
      </trkpt>
      <trkpt lat="38.6229" lon="-0.02843">
        <ele>69.2</ele>
        <time>2021-01-31 17:13:02</time>
      </trkpt>
      <trkpt lat="38.6229" lon="-0.02851">
        <ele>69.2</ele>
        <time>2021-01-31 17:13:03</time>
      </trkpt>
      <trkpt lat="38.62291" lon="-0.02858">
        <ele>70</ele>
        <time>2021-01-31 17:13:04</time>
      </trkpt>
      <trkpt lat="38.62292" lon="-0.02865">
        <ele>70</ele>
        <time>2021-01-31 17:13:05</time>
      </trkpt>
      <trkpt lat="38.62293" lon="-0.02872">
        <ele>70</ele>
        <time>2021-01-31 17:13:06</time>
      </trkpt>
      <trkpt lat="38.62294" lon="-0.02879">
        <ele>70</ele>
        <time>2021-01-31 17:13:07</time>
      </trkpt>
      <trkpt lat="38.62295" lon="-0.02886">
        <ele>70</ele>
        <time>2021-01-31 17:13:08</time>
      </trkpt>
      <trkpt lat="38.62296" lon="-0.02894">
        <ele>70</ele>
        <time>2021-01-31 17:13:09</time>
      </trkpt>
      <trkpt lat="38.62297" lon="-0.02901">
        <ele>70</ele>
        <time>2021-01-31 17:13:10</time>
      </trkpt>
      <trkpt lat="38.62298" lon="-0.02907">
        <ele>70.2</ele>
        <time>2021-01-31 17:13:11</time>
      </trkpt>
      <trkpt lat="38.62299" lon="-0.02913">
        <ele>70.6</ele>
        <time>2021-01-31 17:13:12</time>
      </trkpt>
      <trkpt lat="38.62299" lon="-0.02919">
        <ele>71.2</ele>
        <time>2021-01-31 17:13:13</time>
      </trkpt>
      <trkpt lat="38.62297" lon="-0.02924">
        <ele>71.2</ele>
        <time>2021-01-31 17:13:14</time>
      </trkpt>
      <trkpt lat="38.62294" lon="-0.02927">
        <ele>71.2</ele>
        <time>2021-01-31 17:13:15</time>
      </trkpt>
      <trkpt lat="38.62289" lon="-0.02929">
        <ele>71.2</ele>
        <time>2021-01-31 17:13:16</time>
      </trkpt>
      <trkpt lat="38.62283" lon="-0.02927">
        <ele>71.8</ele>
        <time>2021-01-31 17:13:17</time>
      </trkpt>
      <trkpt lat="38.62279" lon="-0.02922">
        <ele>71.8</ele>
        <time>2021-01-31 17:13:18</time>
      </trkpt>
      <trkpt lat="38.62275" lon="-0.02916">
        <ele>71.8</ele>
        <time>2021-01-31 17:13:19</time>
      </trkpt>
      <trkpt lat="38.62272" lon="-0.02909">
        <ele>71.6</ele>
        <time>2021-01-31 17:13:20</time>
      </trkpt>
      <trkpt lat="38.62268" lon="-0.02901">
        <ele>70.8</ele>
        <time>2021-01-31 17:13:21</time>
      </trkpt>
      <trkpt lat="38.62264" lon="-0.02894">
        <ele>70</ele>
        <time>2021-01-31 17:13:22</time>
      </trkpt>
      <trkpt lat="38.6226" lon="-0.02886">
        <ele>70</ele>
        <time>2021-01-31 17:13:23</time>
      </trkpt>
      <trkpt lat="38.62255" lon="-0.02879">
        <ele>70</ele>
        <time>2021-01-31 17:13:24</time>
      </trkpt>
      <trkpt lat="38.6225" lon="-0.02873">
        <ele>70</ele>
        <time>2021-01-31 17:13:25</time>
      </trkpt>
      <trkpt lat="38.62245" lon="-0.02865">
        <ele>70</ele>
        <time>2021-01-31 17:13:26</time>
      </trkpt>
      <trkpt lat="38.62239" lon="-0.02859">
        <ele>69</ele>
        <time>2021-01-31 17:13:27</time>
      </trkpt>
      <trkpt lat="38.62233" lon="-0.02853">
        <ele>68</ele>
        <time>2021-01-31 17:13:28</time>
      </trkpt>
      <trkpt lat="38.62226" lon="-0.02846">
        <ele>67.6</ele>
        <time>2021-01-31 17:13:29</time>
      </trkpt>
      <trkpt lat="38.62219" lon="-0.02839">
        <ele>66.6</ele>
        <time>2021-01-31 17:13:30</time>
      </trkpt>
      <trkpt lat="38.62212" lon="-0.02831">
        <ele>65.6</ele>
        <time>2021-01-31 17:13:31</time>
      </trkpt>
      <trkpt lat="38.62204" lon="-0.02825">
        <ele>65.6</ele>
        <time>2021-01-31 17:13:32</time>
      </trkpt>
      <trkpt lat="38.62196" lon="-0.02818">
        <ele>65.6</ele>
        <time>2021-01-31 17:13:33</time>
      </trkpt>
      <trkpt lat="38.62187" lon="-0.02812">
        <ele>65.6</ele>
        <time>2021-01-31 17:13:34</time>
      </trkpt>
      <trkpt lat="38.62178" lon="-0.02807">
        <ele>64.6</ele>
        <time>2021-01-31 17:13:35</time>
      </trkpt>
      <trkpt lat="38.62169" lon="-0.02802">
        <ele>63.6</ele>
        <time>2021-01-31 17:13:36</time>
      </trkpt>
      <trkpt lat="38.6216" lon="-0.02797">
        <ele>63.2</ele>
        <time>2021-01-31 17:13:37</time>
      </trkpt>
      <trkpt lat="38.62152" lon="-0.02793">
        <ele>63</ele>
        <time>2021-01-31 17:13:38</time>
      </trkpt>
      <trkpt lat="38.62144" lon="-0.02789">
        <ele>63</ele>
        <time>2021-01-31 17:13:39</time>
      </trkpt>
      <trkpt lat="38.62137" lon="-0.02784">
        <ele>62.8</ele>
        <time>2021-01-31 17:13:40</time>
      </trkpt>
      <trkpt lat="38.6213" lon="-0.0278">
        <ele>62.8</ele>
        <time>2021-01-31 17:13:41</time>
      </trkpt>
      <trkpt lat="38.62102" lon="-0.02758">
        <ele>62.2</ele>
        <time>2021-01-31 17:13:42</time>
      </trkpt>
      <trkpt lat="38.62105" lon="-0.02758">
        <ele>62</ele>
        <time>2021-01-31 17:13:43</time>
      </trkpt>
      <trkpt lat="38.62105" lon="-0.02758">
        <ele>62</ele>
        <time>2021-01-31 17:14:26</time>
      </trkpt>
      <trkpt lat="38.62102" lon="-0.02754">
        <ele>62</ele>
        <time>2021-01-31 17:14:27</time>
      </trkpt>
      <trkpt lat="38.62102" lon="-0.02752">
        <ele>62</ele>
        <time>2021-01-31 17:14:28</time>
      </trkpt>
      <trkpt lat="38.62102" lon="-0.0275">
        <ele>62</ele>
        <time>2021-01-31 17:14:29</time>
      </trkpt>
      <trkpt lat="38.62102" lon="-0.02747">
        <ele>62</ele>
        <time>2021-01-31 17:14:30</time>
      </trkpt>
      <trkpt lat="38.62101" lon="-0.02742">
        <ele>62.4</ele>
        <time>2021-01-31 17:14:31</time>
      </trkpt>
      <trkpt lat="38.62101" lon="-0.02738">
        <ele>62.4</ele>
        <time>2021-01-31 17:14:32</time>
      </trkpt>
      <trkpt lat="38.62101" lon="-0.02738">
        <ele>62.4</ele>
        <time>2021-01-31 17:14:33</time>
      </trkpt>
      <trkpt lat="38.62101" lon="-0.02738">
        <ele>62.4</ele>
        <time>2021-01-31 17:14:34</time>
      </trkpt>
      <trkpt lat="38.62101" lon="-0.02738">
        <ele>62.2</ele>
        <time>2021-01-31 17:14:35</time>
      </trkpt>
      <trkpt lat="38.62104" lon="-0.02721">
        <ele>62.2</ele>
        <time>2021-01-31 17:14:36</time>
      </trkpt>
      <trkpt lat="38.62106" lon="-0.02717">
        <ele>62.8</ele>
        <time>2021-01-31 17:14:37</time>
      </trkpt>
      <trkpt lat="38.62109" lon="-0.02714">
        <ele>62.8</ele>
        <time>2021-01-31 17:14:38</time>
      </trkpt>
      <trkpt lat="38.62112" lon="-0.02711">
        <ele>62.8</ele>
        <time>2021-01-31 17:14:39</time>
      </trkpt>
      <trkpt lat="38.62116" lon="-0.02709">
        <ele>62.6</ele>
        <time>2021-01-31 17:14:40</time>
      </trkpt>
      <trkpt lat="38.62119" lon="-0.02707">
        <ele>62.6</ele>
        <time>2021-01-31 17:14:41</time>
      </trkpt>
      <trkpt lat="38.62122" lon="-0.02705">
        <ele>62.6</ele>
        <time>2021-01-31 17:14:42</time>
      </trkpt>
      <trkpt lat="38.62122" lon="-0.02705">
        <ele>62.6</ele>
        <time>2021-01-31 17:14:43</time>
      </trkpt>
      <trkpt lat="38.62122" lon="-0.02705">
        <ele>62.6</ele>
        <time>2021-01-31 17:14:44</time>
      </trkpt>
      <trkpt lat="38.62122" lon="-0.02705">
        <ele>64.4</ele>
        <time>2021-01-31 17:14:45</time>
      </trkpt>
      <trkpt lat="38.62132" lon="-0.02693">
        <ele>65</ele>
        <time>2021-01-31 17:14:46</time>
      </trkpt>
      <trkpt lat="38.62131" lon="-0.02689">
        <ele>65</ele>
        <time>2021-01-31 17:14:47</time>
      </trkpt>
      <trkpt lat="38.62129" lon="-0.02686">
        <ele>65</ele>
        <time>2021-01-31 17:14:48</time>
      </trkpt>
      <trkpt lat="38.62127" lon="-0.02682">
        <ele>64.6</ele>
        <time>2021-01-31 17:14:49</time>
      </trkpt>
      <trkpt lat="38.62124" lon="-0.02679">
        <ele>64.6</ele>
        <time>2021-01-31 17:14:50</time>
      </trkpt>
      <trkpt lat="38.62121" lon="-0.02675">
        <ele>64.6</ele>
        <time>2021-01-31 17:14:51</time>
      </trkpt>
      <trkpt lat="38.62119" lon="-0.02672">
        <ele>64.6</ele>
        <time>2021-01-31 17:14:52</time>
      </trkpt>
      <trkpt lat="38.62116" lon="-0.02668">
        <ele>64.6</ele>
        <time>2021-01-31 17:14:53</time>
      </trkpt>
      <trkpt lat="38.62116" lon="-0.02668">
        <ele>64.6</ele>
        <time>2021-01-31 17:14:54</time>
      </trkpt>
      <trkpt lat="38.62116" lon="-0.02668">
        <ele>64.6</ele>
        <time>2021-01-31 17:14:55</time>
      </trkpt>
      <trkpt lat="38.62116" lon="-0.02668">
        <ele>63.8</ele>
        <time>2021-01-31 17:14:56</time>
      </trkpt>
      <trkpt lat="38.62103" lon="-0.02652">
        <ele>63.2</ele>
        <time>2021-01-31 17:14:57</time>
      </trkpt>
      <trkpt lat="38.62099" lon="-0.02649">
        <ele>63</ele>
        <time>2021-01-31 17:14:58</time>
      </trkpt>
      <trkpt lat="38.62096" lon="-0.02645">
        <ele>62.4</ele>
        <time>2021-01-31 17:14:59</time>
      </trkpt>
      <trkpt lat="38.62092" lon="-0.02639">
        <ele>61.4</ele>
        <time>2021-01-31 17:15:00</time>
      </trkpt>
      <trkpt lat="38.62088" lon="-0.02634">
        <ele>61.4</ele>
        <time>2021-01-31 17:15:01</time>
      </trkpt>
      <trkpt lat="38.62085" lon="-0.02629">
        <ele>61.4</ele>
        <time>2021-01-31 17:15:02</time>
      </trkpt>
      <trkpt lat="38.62081" lon="-0.02626">
        <ele>62</ele>
        <time>2021-01-31 17:15:03</time>
      </trkpt>
      <trkpt lat="38.62078" lon="-0.02623">
        <ele>62</ele>
        <time>2021-01-31 17:15:04</time>
      </trkpt>
      <trkpt lat="38.62075" lon="-0.02619">
        <ele>62</ele>
        <time>2021-01-31 17:15:05</time>
      </trkpt>
      <trkpt lat="38.62072" lon="-0.02614">
        <ele>61</ele>
        <time>2021-01-31 17:15:06</time>
      </trkpt>
      <trkpt lat="38.6207" lon="-0.0261">
        <ele>60.4</ele>
        <time>2021-01-31 17:15:07</time>
      </trkpt>
      <trkpt lat="38.62068" lon="-0.02604">
        <ele>60.4</ele>
        <time>2021-01-31 17:15:08</time>
      </trkpt>
      <trkpt lat="38.62067" lon="-0.02598">
        <ele>60.4</ele>
        <time>2021-01-31 17:15:09</time>
      </trkpt>
      <trkpt lat="38.62066" lon="-0.02591">
        <ele>60.6</ele>
        <time>2021-01-31 17:15:10</time>
      </trkpt>
      <trkpt lat="38.62065" lon="-0.02585">
        <ele>60.6</ele>
        <time>2021-01-31 17:15:11</time>
      </trkpt>
      <trkpt lat="38.62064" lon="-0.02582">
        <ele>60.6</ele>
        <time>2021-01-31 17:15:12</time>
      </trkpt>
      <trkpt lat="38.62065" lon="-0.02581">
        <ele>60.6</ele>
        <time>2021-01-31 17:15:13</time>
      </trkpt>
      <trkpt lat="38.62065" lon="-0.02578">
        <ele>60.6</ele>
        <time>2021-01-31 17:15:14</time>
      </trkpt>
      <trkpt lat="38.62065" lon="-0.02575">
        <ele>60.6</ele>
        <time>2021-01-31 17:15:15</time>
      </trkpt>
      <trkpt lat="38.62065" lon="-0.02572">
        <ele>60.6</ele>
        <time>2021-01-31 17:15:16</time>
      </trkpt>
      <trkpt lat="38.62065" lon="-0.02568">
        <ele>60.6</ele>
        <time>2021-01-31 17:15:17</time>
      </trkpt>
      <trkpt lat="38.62066" lon="-0.02565">
        <ele>60.6</ele>
        <time>2021-01-31 17:15:18</time>
      </trkpt>
      <trkpt lat="38.62068" lon="-0.02562">
        <ele>60.6</ele>
        <time>2021-01-31 17:15:19</time>
      </trkpt>
      <trkpt lat="38.62071" lon="-0.0256">
        <ele>60.6</ele>
        <time>2021-01-31 17:15:20</time>
      </trkpt>
    </trkseg>
  </trk>
</gpx>
